<?xml version="1.0" encoding="UTF-8" standalone="no" ?>
<gpx xmlns="http://www.topografix.com/GPX/1/1" xmlns:xsi="http://www.w3.org/2001/XMLSchema-instance" xsi:schemaLocation="http://www.topografix.com/GPX/1/1 http://www.topografix.com/GPX/1/1/gpx.xsd" version="1.1" creator="VisuGPX - https://www.visugpx.com">
  <metadata>
    <name>Autour de Paulhiac (47)</name>
    <desc><![CDATA[Une bonne boucle autour de Paulhiac, qui lorgne sur Gavaudun. Beaucoup de montées et de descentes.]]></desc>
  </metadata>
  <trk>
    <name><![CDATA[Autour de Paulhiac (47)_1]]></name>
    <trkseg>
      <trkpt lat="44.58569" lon="0.82472">
        <ele>143</ele>
        <time>2012-01-30T13:12:32Z</time>
      </trkpt>
      <trkpt lat="44.58597" lon="0.82475">
        <ele>131</ele>
        <time>2012-01-30T13:14:25Z</time>
      </trkpt>
      <trkpt lat="44.58601" lon="0.82473">
        <ele>131</ele>
        <time>2012-01-30T13:14:26Z</time>
      </trkpt>
      <trkpt lat="44.58604" lon="0.82471">
        <ele>130</ele>
        <time>2012-01-30T13:14:27Z</time>
      </trkpt>
      <trkpt lat="44.58607" lon="0.8247">
        <ele>130</ele>
        <time>2012-01-30T13:14:28Z</time>
      </trkpt>
      <trkpt lat="44.5861" lon="0.82468">
        <ele>130</ele>
        <time>2012-01-30T13:14:29Z</time>
      </trkpt>
      <trkpt lat="44.58613" lon="0.82466">
        <ele>130</ele>
        <time>2012-01-30T13:14:30Z</time>
      </trkpt>
      <trkpt lat="44.58616" lon="0.82464">
        <ele>129</ele>
        <time>2012-01-30T13:14:31Z</time>
      </trkpt>
      <trkpt lat="44.5862" lon="0.82462">
        <ele>129</ele>
        <time>2012-01-30T13:14:32Z</time>
      </trkpt>
      <trkpt lat="44.58623" lon="0.82461">
        <ele>129</ele>
        <time>2012-01-30T13:14:33Z</time>
      </trkpt>
      <trkpt lat="44.58626" lon="0.82459">
        <ele>129</ele>
        <time>2012-01-30T13:14:34Z</time>
      </trkpt>
      <trkpt lat="44.58629" lon="0.82457">
        <ele>128</ele>
        <time>2012-01-30T13:14:35Z</time>
      </trkpt>
      <trkpt lat="44.58633" lon="0.82455">
        <ele>128</ele>
        <time>2012-01-30T13:14:36Z</time>
      </trkpt>
      <trkpt lat="44.58637" lon="0.82453">
        <ele>128</ele>
        <time>2012-01-30T13:14:37Z</time>
      </trkpt>
      <trkpt lat="44.5864" lon="0.82451">
        <ele>128</ele>
        <time>2012-01-30T13:14:38Z</time>
      </trkpt>
      <trkpt lat="44.58643" lon="0.82449">
        <ele>128</ele>
        <time>2012-01-30T13:14:39Z</time>
      </trkpt>
      <trkpt lat="44.58646" lon="0.82448">
        <ele>127</ele>
        <time>2012-01-30T13:14:40Z</time>
      </trkpt>
      <trkpt lat="44.58649" lon="0.82446">
        <ele>127</ele>
        <time>2012-01-30T13:14:41Z</time>
      </trkpt>
      <trkpt lat="44.58652" lon="0.82444">
        <ele>127</ele>
        <time>2012-01-30T13:14:42Z</time>
      </trkpt>
      <trkpt lat="44.58656" lon="0.82442">
        <ele>127</ele>
        <time>2012-01-30T13:14:43Z</time>
      </trkpt>
      <trkpt lat="44.58658" lon="0.8244">
        <ele>127</ele>
        <time>2012-01-30T13:14:44Z</time>
      </trkpt>
      <trkpt lat="44.58662" lon="0.82437">
        <ele>127</ele>
        <time>2012-01-30T13:14:45Z</time>
      </trkpt>
      <trkpt lat="44.58665" lon="0.82435">
        <ele>127</ele>
        <time>2012-01-30T13:14:46Z</time>
      </trkpt>
      <trkpt lat="44.58668" lon="0.82432">
        <ele>127</ele>
        <time>2012-01-30T13:14:47Z</time>
      </trkpt>
      <trkpt lat="44.58672" lon="0.82429">
        <ele>127</ele>
        <time>2012-01-30T13:14:48Z</time>
      </trkpt>
      <trkpt lat="44.58676" lon="0.82425">
        <ele>127</ele>
        <time>2012-01-30T13:14:49Z</time>
      </trkpt>
      <trkpt lat="44.5868" lon="0.82422">
        <ele>127</ele>
        <time>2012-01-30T13:14:50Z</time>
      </trkpt>
      <trkpt lat="44.58683" lon="0.82418">
        <ele>127</ele>
        <time>2012-01-30T13:14:51Z</time>
      </trkpt>
      <trkpt lat="44.58686" lon="0.82414">
        <ele>127</ele>
        <time>2012-01-30T13:14:52Z</time>
      </trkpt>
      <trkpt lat="44.5869" lon="0.8241">
        <ele>127</ele>
        <time>2012-01-30T13:14:53Z</time>
      </trkpt>
      <trkpt lat="44.58693" lon="0.82407">
        <ele>127</ele>
        <time>2012-01-30T13:14:54Z</time>
      </trkpt>
      <trkpt lat="44.58696" lon="0.82403">
        <ele>127</ele>
        <time>2012-01-30T13:14:55Z</time>
      </trkpt>
      <trkpt lat="44.587" lon="0.82399">
        <ele>127</ele>
        <time>2012-01-30T13:14:56Z</time>
      </trkpt>
      <trkpt lat="44.58704" lon="0.82395">
        <ele>127</ele>
        <time>2012-01-30T13:14:57Z</time>
      </trkpt>
      <trkpt lat="44.58707" lon="0.82391">
        <ele>127</ele>
        <time>2012-01-30T13:14:57Z</time>
      </trkpt>
      <trkpt lat="44.58711" lon="0.82387">
        <ele>126</ele>
        <time>2012-01-30T13:14:59Z</time>
      </trkpt>
      <trkpt lat="44.58715" lon="0.82384">
        <ele>126</ele>
        <time>2012-01-30T13:15:00Z</time>
      </trkpt>
      <trkpt lat="44.5872" lon="0.82381">
        <ele>126</ele>
        <time>2012-01-30T13:15:01Z</time>
      </trkpt>
      <trkpt lat="44.58725" lon="0.82378">
        <ele>125</ele>
        <time>2012-01-30T13:15:02Z</time>
      </trkpt>
      <trkpt lat="44.58729" lon="0.82377">
        <ele>125</ele>
        <time>2012-01-30T13:15:03Z</time>
      </trkpt>
      <trkpt lat="44.58733" lon="0.82377">
        <ele>125</ele>
        <time>2012-01-30T13:15:04Z</time>
      </trkpt>
      <trkpt lat="44.58738" lon="0.82377">
        <ele>125</ele>
        <time>2012-01-30T13:15:05Z</time>
      </trkpt>
      <trkpt lat="44.58742" lon="0.82378">
        <ele>125</ele>
        <time>2012-01-30T13:15:05Z</time>
      </trkpt>
      <trkpt lat="44.58747" lon="0.82379">
        <ele>125</ele>
        <time>2012-01-30T13:15:07Z</time>
      </trkpt>
      <trkpt lat="44.58752" lon="0.82379">
        <ele>125</ele>
        <time>2012-01-30T13:15:08Z</time>
      </trkpt>
      <trkpt lat="44.58757" lon="0.82381">
        <ele>125</ele>
        <time>2012-01-30T13:15:09Z</time>
      </trkpt>
      <trkpt lat="44.58762" lon="0.82383">
        <ele>125</ele>
        <time>2012-01-30T13:15:09Z</time>
      </trkpt>
      <trkpt lat="44.58767" lon="0.82384">
        <ele>125</ele>
        <time>2012-01-30T13:15:11Z</time>
      </trkpt>
      <trkpt lat="44.58772" lon="0.82386">
        <ele>125</ele>
        <time>2012-01-30T13:15:12Z</time>
      </trkpt>
      <trkpt lat="44.58777" lon="0.82387">
        <ele>125</ele>
        <time>2012-01-30T13:15:12Z</time>
      </trkpt>
      <trkpt lat="44.58783" lon="0.82388">
        <ele>125</ele>
        <time>2012-01-30T13:15:14Z</time>
      </trkpt>
      <trkpt lat="44.58788" lon="0.82389">
        <ele>125</ele>
        <time>2012-01-30T13:15:15Z</time>
      </trkpt>
      <trkpt lat="44.58793" lon="0.82389">
        <ele>124</ele>
        <time>2012-01-30T13:15:16Z</time>
      </trkpt>
      <trkpt lat="44.58799" lon="0.82389">
        <ele>124</ele>
        <time>2012-01-30T13:15:17Z</time>
      </trkpt>
      <trkpt lat="44.58806" lon="0.82387">
        <ele>124</ele>
        <time>2012-01-30T13:15:18Z</time>
      </trkpt>
      <trkpt lat="44.58812" lon="0.82387">
        <ele>123</ele>
        <time>2012-01-30T13:15:19Z</time>
      </trkpt>
      <trkpt lat="44.58818" lon="0.82386">
        <ele>122</ele>
        <time>2012-01-30T13:15:20Z</time>
      </trkpt>
      <trkpt lat="44.58822" lon="0.82387">
        <ele>121</ele>
        <time>2012-01-30T13:15:21Z</time>
      </trkpt>
      <trkpt lat="44.58826" lon="0.82388">
        <ele>121</ele>
        <time>2012-01-30T13:15:22Z</time>
      </trkpt>
      <trkpt lat="44.5883" lon="0.82389">
        <ele>120</ele>
        <time>2012-01-30T13:15:23Z</time>
      </trkpt>
      <trkpt lat="44.58834" lon="0.82389">
        <ele>119</ele>
        <time>2012-01-30T13:15:24Z</time>
      </trkpt>
      <trkpt lat="44.58838" lon="0.82391">
        <ele>119</ele>
        <time>2012-01-30T13:15:25Z</time>
      </trkpt>
      <trkpt lat="44.58843" lon="0.82392">
        <ele>118</ele>
        <time>2012-01-30T13:15:26Z</time>
      </trkpt>
      <trkpt lat="44.58846" lon="0.82394">
        <ele>118</ele>
        <time>2012-01-30T13:15:27Z</time>
      </trkpt>
      <trkpt lat="44.5885" lon="0.82396">
        <ele>117</ele>
        <time>2012-01-30T13:15:28Z</time>
      </trkpt>
      <trkpt lat="44.58854" lon="0.82399">
        <ele>117</ele>
        <time>2012-01-30T13:15:29Z</time>
      </trkpt>
      <trkpt lat="44.58857" lon="0.82402">
        <ele>116</ele>
        <time>2012-01-30T13:15:29Z</time>
      </trkpt>
      <trkpt lat="44.5886" lon="0.82404">
        <ele>116</ele>
        <time>2012-01-30T13:15:31Z</time>
      </trkpt>
      <trkpt lat="44.58864" lon="0.82407">
        <ele>116</ele>
        <time>2012-01-30T13:15:32Z</time>
      </trkpt>
      <trkpt lat="44.58867" lon="0.82409">
        <ele>116</ele>
        <time>2012-01-30T13:15:33Z</time>
      </trkpt>
      <trkpt lat="44.5887" lon="0.82411">
        <ele>116</ele>
        <time>2012-01-30T13:15:34Z</time>
      </trkpt>
      <trkpt lat="44.58874" lon="0.82411">
        <ele>116</ele>
        <time>2012-01-30T13:15:35Z</time>
      </trkpt>
      <trkpt lat="44.58877" lon="0.82412">
        <ele>116</ele>
        <time>2012-01-30T13:15:36Z</time>
      </trkpt>
      <trkpt lat="44.58881" lon="0.82413">
        <ele>116</ele>
        <time>2012-01-30T13:15:37Z</time>
      </trkpt>
      <trkpt lat="44.58884" lon="0.82414">
        <ele>115</ele>
        <time>2012-01-30T13:15:38Z</time>
      </trkpt>
      <trkpt lat="44.58887" lon="0.82414">
        <ele>115</ele>
        <time>2012-01-30T13:15:39Z</time>
      </trkpt>
      <trkpt lat="44.58891" lon="0.82415">
        <ele>115</ele>
        <time>2012-01-30T13:15:40Z</time>
      </trkpt>
      <trkpt lat="44.58895" lon="0.82415">
        <ele>115</ele>
        <time>2012-01-30T13:15:41Z</time>
      </trkpt>
      <trkpt lat="44.58899" lon="0.82416">
        <ele>114</ele>
        <time>2012-01-30T13:15:42Z</time>
      </trkpt>
      <trkpt lat="44.58904" lon="0.82418">
        <ele>114</ele>
        <time>2012-01-30T13:15:42Z</time>
      </trkpt>
      <trkpt lat="44.58908" lon="0.8242">
        <ele>114</ele>
        <time>2012-01-30T13:15:44Z</time>
      </trkpt>
      <trkpt lat="44.58912" lon="0.82422">
        <ele>114</ele>
        <time>2012-01-30T13:15:45Z</time>
      </trkpt>
      <trkpt lat="44.58916" lon="0.82424">
        <ele>113</ele>
        <time>2012-01-30T13:15:46Z</time>
      </trkpt>
      <trkpt lat="44.58921" lon="0.82426">
        <ele>113</ele>
        <time>2012-01-30T13:15:46Z</time>
      </trkpt>
      <trkpt lat="44.58925" lon="0.82428">
        <ele>113</ele>
        <time>2012-01-30T13:15:48Z</time>
      </trkpt>
      <trkpt lat="44.58929" lon="0.8243">
        <ele>112</ele>
        <time>2012-01-30T13:15:49Z</time>
      </trkpt>
      <trkpt lat="44.58932" lon="0.82433">
        <ele>112</ele>
        <time>2012-01-30T13:15:50Z</time>
      </trkpt>
      <trkpt lat="44.58935" lon="0.82437">
        <ele>112</ele>
        <time>2012-01-30T13:15:50Z</time>
      </trkpt>
      <trkpt lat="44.58936" lon="0.82443">
        <ele>112</ele>
        <time>2012-01-30T13:15:52Z</time>
      </trkpt>
      <trkpt lat="44.58935" lon="0.82449">
        <ele>111</ele>
        <time>2012-01-30T13:15:53Z</time>
      </trkpt>
      <trkpt lat="44.58934" lon="0.82455">
        <ele>111</ele>
        <time>2012-01-30T13:15:54Z</time>
      </trkpt>
      <trkpt lat="44.58933" lon="0.8246">
        <ele>111</ele>
        <time>2012-01-30T13:15:55Z</time>
      </trkpt>
      <trkpt lat="44.58931" lon="0.82466">
        <ele>111</ele>
        <time>2012-01-30T13:15:56Z</time>
      </trkpt>
      <trkpt lat="44.5893" lon="0.82472">
        <ele>111</ele>
        <time>2012-01-30T13:15:57Z</time>
      </trkpt>
      <trkpt lat="44.58929" lon="0.82477">
        <ele>111</ele>
        <time>2012-01-30T13:15:58Z</time>
      </trkpt>
      <trkpt lat="44.58927" lon="0.82482">
        <ele>111</ele>
        <time>2012-01-30T13:15:59Z</time>
      </trkpt>
      <trkpt lat="44.58926" lon="0.82488">
        <ele>111</ele>
        <time>2012-01-30T13:16:00Z</time>
      </trkpt>
      <trkpt lat="44.58924" lon="0.82493">
        <ele>111</ele>
        <time>2012-01-30T13:16:01Z</time>
      </trkpt>
      <trkpt lat="44.58923" lon="0.82499">
        <ele>111</ele>
        <time>2012-01-30T13:16:02Z</time>
      </trkpt>
      <trkpt lat="44.58922" lon="0.82504">
        <ele>110</ele>
        <time>2012-01-30T13:16:03Z</time>
      </trkpt>
      <trkpt lat="44.5892" lon="0.82509">
        <ele>110</ele>
        <time>2012-01-30T13:16:04Z</time>
      </trkpt>
      <trkpt lat="44.58919" lon="0.82515">
        <ele>110</ele>
        <time>2012-01-30T13:16:05Z</time>
      </trkpt>
      <trkpt lat="44.58917" lon="0.8252">
        <ele>110</ele>
        <time>2012-01-30T13:16:06Z</time>
      </trkpt>
      <trkpt lat="44.58915" lon="0.82526">
        <ele>109</ele>
        <time>2012-01-30T13:16:07Z</time>
      </trkpt>
      <trkpt lat="44.58913" lon="0.82532">
        <ele>109</ele>
        <time>2012-01-30T13:16:08Z</time>
      </trkpt>
      <trkpt lat="44.58911" lon="0.82538">
        <ele>109</ele>
        <time>2012-01-30T13:16:09Z</time>
      </trkpt>
      <trkpt lat="44.5891" lon="0.82544">
        <ele>109</ele>
        <time>2012-01-30T13:16:10Z</time>
      </trkpt>
      <trkpt lat="44.58908" lon="0.82551">
        <ele>109</ele>
        <time>2012-01-30T13:16:11Z</time>
      </trkpt>
      <trkpt lat="44.58906" lon="0.82557">
        <ele>109</ele>
        <time>2012-01-30T13:16:12Z</time>
      </trkpt>
      <trkpt lat="44.58905" lon="0.82563">
        <ele>109</ele>
        <time>2012-01-30T13:16:13Z</time>
      </trkpt>
      <trkpt lat="44.58905" lon="0.82569">
        <ele>109</ele>
        <time>2012-01-30T13:16:14Z</time>
      </trkpt>
      <trkpt lat="44.58907" lon="0.82575">
        <ele>109</ele>
        <time>2012-01-30T13:16:15Z</time>
      </trkpt>
      <trkpt lat="44.58909" lon="0.8258">
        <ele>109</ele>
        <time>2012-01-30T13:16:16Z</time>
      </trkpt>
      <trkpt lat="44.58913" lon="0.82584">
        <ele>109</ele>
        <time>2012-01-30T13:16:17Z</time>
      </trkpt>
      <trkpt lat="44.58917" lon="0.82586">
        <ele>109</ele>
        <time>2012-01-30T13:16:18Z</time>
      </trkpt>
      <trkpt lat="44.58922" lon="0.82589">
        <ele>109</ele>
        <time>2012-01-30T13:16:19Z</time>
      </trkpt>
      <trkpt lat="44.58926" lon="0.82591">
        <ele>109</ele>
        <time>2012-01-30T13:16:20Z</time>
      </trkpt>
      <trkpt lat="44.58931" lon="0.82593">
        <ele>109</ele>
        <time>2012-01-30T13:16:21Z</time>
      </trkpt>
      <trkpt lat="44.58936" lon="0.82596">
        <ele>108</ele>
        <time>2012-01-30T13:16:22Z</time>
      </trkpt>
      <trkpt lat="44.5894" lon="0.82598">
        <ele>108</ele>
        <time>2012-01-30T13:16:23Z</time>
      </trkpt>
      <trkpt lat="44.58945" lon="0.826">
        <ele>108</ele>
        <time>2012-01-30T13:16:24Z</time>
      </trkpt>
      <trkpt lat="44.5895" lon="0.82603">
        <ele>108</ele>
        <time>2012-01-30T13:16:25Z</time>
      </trkpt>
      <trkpt lat="44.58955" lon="0.82605">
        <ele>108</ele>
        <time>2012-01-30T13:16:26Z</time>
      </trkpt>
      <trkpt lat="44.58961" lon="0.82608">
        <ele>108</ele>
        <time>2012-01-30T13:16:27Z</time>
      </trkpt>
      <trkpt lat="44.58966" lon="0.8261">
        <ele>108</ele>
        <time>2012-01-30T13:16:28Z</time>
      </trkpt>
      <trkpt lat="44.58971" lon="0.82614">
        <ele>108</ele>
        <time>2012-01-30T13:16:29Z</time>
      </trkpt>
      <trkpt lat="44.58975" lon="0.82618">
        <ele>108</ele>
        <time>2012-01-30T13:16:30Z</time>
      </trkpt>
      <trkpt lat="44.58978" lon="0.82624">
        <ele>108</ele>
        <time>2012-01-30T13:16:31Z</time>
      </trkpt>
      <trkpt lat="44.58981" lon="0.8263">
        <ele>108</ele>
        <time>2012-01-30T13:16:32Z</time>
      </trkpt>
      <trkpt lat="44.58983" lon="0.82636">
        <ele>108</ele>
        <time>2012-01-30T13:16:33Z</time>
      </trkpt>
      <trkpt lat="44.58984" lon="0.82641">
        <ele>108</ele>
        <time>2012-01-30T13:16:34Z</time>
      </trkpt>
      <trkpt lat="44.58986" lon="0.82646">
        <ele>108</ele>
        <time>2012-01-30T13:16:35Z</time>
      </trkpt>
      <trkpt lat="44.58986" lon="0.82651">
        <ele>108</ele>
        <time>2012-01-30T13:16:36Z</time>
      </trkpt>
      <trkpt lat="44.58986" lon="0.82655">
        <ele>108</ele>
        <time>2012-01-30T13:16:37Z</time>
      </trkpt>
      <trkpt lat="44.58985" lon="0.82659">
        <ele>108</ele>
        <time>2012-01-30T13:16:38Z</time>
      </trkpt>
      <trkpt lat="44.58984" lon="0.82663">
        <ele>108</ele>
        <time>2012-01-30T13:16:39Z</time>
      </trkpt>
      <trkpt lat="44.58983" lon="0.82667">
        <ele>108</ele>
        <time>2012-01-30T13:16:40Z</time>
      </trkpt>
      <trkpt lat="44.58982" lon="0.82672">
        <ele>108</ele>
        <time>2012-01-30T13:16:41Z</time>
      </trkpt>
      <trkpt lat="44.58981" lon="0.82675">
        <ele>108</ele>
        <time>2012-01-30T13:16:42Z</time>
      </trkpt>
      <trkpt lat="44.58981" lon="0.8268">
        <ele>108</ele>
        <time>2012-01-30T13:16:43Z</time>
      </trkpt>
      <trkpt lat="44.5898" lon="0.82684">
        <ele>108</ele>
        <time>2012-01-30T13:16:44Z</time>
      </trkpt>
      <trkpt lat="44.58979" lon="0.82688">
        <ele>108</ele>
        <time>2012-01-30T13:16:45Z</time>
      </trkpt>
      <trkpt lat="44.58978" lon="0.82693">
        <ele>108</ele>
        <time>2012-01-30T13:16:46Z</time>
      </trkpt>
      <trkpt lat="44.58977" lon="0.82697">
        <ele>109</ele>
        <time>2012-01-30T13:16:47Z</time>
      </trkpt>
      <trkpt lat="44.58977" lon="0.82701">
        <ele>109</ele>
        <time>2012-01-30T13:16:48Z</time>
      </trkpt>
      <trkpt lat="44.58976" lon="0.82705">
        <ele>110</ele>
        <time>2012-01-30T13:16:49Z</time>
      </trkpt>
      <trkpt lat="44.58976" lon="0.82709">
        <ele>110</ele>
        <time>2012-01-30T13:16:50Z</time>
      </trkpt>
      <trkpt lat="44.58975" lon="0.82713">
        <ele>110</ele>
        <time>2012-01-30T13:16:51Z</time>
      </trkpt>
      <trkpt lat="44.58976" lon="0.82717">
        <ele>111</ele>
        <time>2012-01-30T13:16:52Z</time>
      </trkpt>
      <trkpt lat="44.58976" lon="0.8272">
        <ele>111</ele>
        <time>2012-01-30T13:16:53Z</time>
      </trkpt>
      <trkpt lat="44.58976" lon="0.82723">
        <ele>112</ele>
        <time>2012-01-30T13:16:54Z</time>
      </trkpt>
      <trkpt lat="44.58977" lon="0.82727">
        <ele>112</ele>
        <time>2012-01-30T13:16:55Z</time>
      </trkpt>
      <trkpt lat="44.58978" lon="0.82731">
        <ele>113</ele>
        <time>2012-01-30T13:16:56Z</time>
      </trkpt>
      <trkpt lat="44.58978" lon="0.82735">
        <ele>113</ele>
        <time>2012-01-30T13:16:57Z</time>
      </trkpt>
      <trkpt lat="44.58979" lon="0.82739">
        <ele>114</ele>
        <time>2012-01-30T13:16:58Z</time>
      </trkpt>
      <trkpt lat="44.58981" lon="0.82744">
        <ele>114</ele>
        <time>2012-01-30T13:16:58Z</time>
      </trkpt>
      <trkpt lat="44.58982" lon="0.82749">
        <ele>114</ele>
        <time>2012-01-30T13:17:00Z</time>
      </trkpt>
      <trkpt lat="44.58984" lon="0.82754">
        <ele>114</ele>
        <time>2012-01-30T13:17:01Z</time>
      </trkpt>
      <trkpt lat="44.58986" lon="0.8276">
        <ele>114</ele>
        <time>2012-01-30T13:17:02Z</time>
      </trkpt>
      <trkpt lat="44.58989" lon="0.82765">
        <ele>114</ele>
        <time>2012-01-30T13:17:03Z</time>
      </trkpt>
      <trkpt lat="44.58992" lon="0.8277">
        <ele>114</ele>
        <time>2012-01-30T13:17:04Z</time>
      </trkpt>
      <trkpt lat="44.58995" lon="0.82775">
        <ele>114</ele>
        <time>2012-01-30T13:17:05Z</time>
      </trkpt>
      <trkpt lat="44.59" lon="0.82779">
        <ele>114</ele>
        <time>2012-01-30T13:17:06Z</time>
      </trkpt>
      <trkpt lat="44.59005" lon="0.82782">
        <ele>114</ele>
        <time>2012-01-30T13:17:07Z</time>
      </trkpt>
      <trkpt lat="44.5901" lon="0.82784">
        <ele>114</ele>
        <time>2012-01-30T13:17:08Z</time>
      </trkpt>
      <trkpt lat="44.59016" lon="0.82787">
        <ele>114</ele>
        <time>2012-01-30T13:17:09Z</time>
      </trkpt>
      <trkpt lat="44.59021" lon="0.82789">
        <ele>114</ele>
        <time>2012-01-30T13:17:10Z</time>
      </trkpt>
      <trkpt lat="44.59026" lon="0.8279">
        <ele>114</ele>
        <time>2012-01-30T13:17:11Z</time>
      </trkpt>
      <trkpt lat="44.59031" lon="0.82793">
        <ele>114</ele>
        <time>2012-01-30T13:17:12Z</time>
      </trkpt>
      <trkpt lat="44.59036" lon="0.82795">
        <ele>114</ele>
        <time>2012-01-30T13:17:13Z</time>
      </trkpt>
      <trkpt lat="44.5904" lon="0.82798">
        <ele>113</ele>
        <time>2012-01-30T13:17:14Z</time>
      </trkpt>
      <trkpt lat="44.59043" lon="0.828">
        <ele>113</ele>
        <time>2012-01-30T13:17:15Z</time>
      </trkpt>
      <trkpt lat="44.59043" lon="0.82804">
        <ele>112</ele>
        <time>2012-01-30T13:17:16Z</time>
      </trkpt>
      <trkpt lat="44.59042" lon="0.8281">
        <ele>112</ele>
        <time>2012-01-30T13:17:17Z</time>
      </trkpt>
      <trkpt lat="44.59041" lon="0.82815">
        <ele>111</ele>
        <time>2012-01-30T13:17:18Z</time>
      </trkpt>
      <trkpt lat="44.5904" lon="0.82821">
        <ele>110</ele>
        <time>2012-01-30T13:17:19Z</time>
      </trkpt>
      <trkpt lat="44.59038" lon="0.82827">
        <ele>110</ele>
        <time>2012-01-30T13:17:20Z</time>
      </trkpt>
      <trkpt lat="44.59036" lon="0.82833">
        <ele>110</ele>
        <time>2012-01-30T13:17:21Z</time>
      </trkpt>
      <trkpt lat="44.59035" lon="0.82839">
        <ele>110</ele>
        <time>2012-01-30T13:17:22Z</time>
      </trkpt>
      <trkpt lat="44.59034" lon="0.82844">
        <ele>110</ele>
        <time>2012-01-30T13:17:23Z</time>
      </trkpt>
      <trkpt lat="44.59032" lon="0.8285">
        <ele>109</ele>
        <time>2012-01-30T13:17:24Z</time>
      </trkpt>
      <trkpt lat="44.59031" lon="0.82855">
        <ele>109</ele>
        <time>2012-01-30T13:17:25Z</time>
      </trkpt>
      <trkpt lat="44.5903" lon="0.82861">
        <ele>109</ele>
        <time>2012-01-30T13:17:26Z</time>
      </trkpt>
      <trkpt lat="44.59029" lon="0.82866">
        <ele>109</ele>
        <time>2012-01-30T13:17:27Z</time>
      </trkpt>
      <trkpt lat="44.59028" lon="0.82872">
        <ele>108</ele>
        <time>2012-01-30T13:17:28Z</time>
      </trkpt>
      <trkpt lat="44.59027" lon="0.82877">
        <ele>108</ele>
        <time>2012-01-30T13:17:29Z</time>
      </trkpt>
      <trkpt lat="44.59026" lon="0.82882">
        <ele>108</ele>
        <time>2012-01-30T13:17:30Z</time>
      </trkpt>
      <trkpt lat="44.59024" lon="0.82887">
        <ele>108</ele>
        <time>2012-01-30T13:17:31Z</time>
      </trkpt>
      <trkpt lat="44.59022" lon="0.82892">
        <ele>107</ele>
        <time>2012-01-30T13:17:32Z</time>
      </trkpt>
      <trkpt lat="44.5902" lon="0.82897">
        <ele>107</ele>
        <time>2012-01-30T13:17:33Z</time>
      </trkpt>
      <trkpt lat="44.59017" lon="0.82902">
        <ele>106</ele>
        <time>2012-01-30T13:17:34Z</time>
      </trkpt>
      <trkpt lat="44.59014" lon="0.82906">
        <ele>106</ele>
        <time>2012-01-30T13:17:35Z</time>
      </trkpt>
      <trkpt lat="44.59011" lon="0.82911">
        <ele>106</ele>
        <time>2012-01-30T13:17:36Z</time>
      </trkpt>
      <trkpt lat="44.59006" lon="0.82914">
        <ele>106</ele>
        <time>2012-01-30T13:17:37Z</time>
      </trkpt>
      <trkpt lat="44.59002" lon="0.82917">
        <ele>106</ele>
        <time>2012-01-30T13:17:38Z</time>
      </trkpt>
      <trkpt lat="44.58997" lon="0.82921">
        <ele>105</ele>
        <time>2012-01-30T13:17:39Z</time>
      </trkpt>
      <trkpt lat="44.58992" lon="0.82924">
        <ele>105</ele>
        <time>2012-01-30T13:17:40Z</time>
      </trkpt>
      <trkpt lat="44.58987" lon="0.82927">
        <ele>104</ele>
        <time>2012-01-30T13:17:41Z</time>
      </trkpt>
      <trkpt lat="44.58981" lon="0.8293">
        <ele>103</ele>
        <time>2012-01-30T13:17:42Z</time>
      </trkpt>
      <trkpt lat="44.58976" lon="0.82932">
        <ele>103</ele>
        <time>2012-01-30T13:17:43Z</time>
      </trkpt>
      <trkpt lat="44.5897" lon="0.82935">
        <ele>102</ele>
        <time>2012-01-30T13:17:44Z</time>
      </trkpt>
      <trkpt lat="44.58964" lon="0.82937">
        <ele>102</ele>
        <time>2012-01-30T13:17:45Z</time>
      </trkpt>
      <trkpt lat="44.58958" lon="0.8294">
        <ele>102</ele>
        <time>2012-01-30T13:17:46Z</time>
      </trkpt>
      <trkpt lat="44.58952" lon="0.82943">
        <ele>102</ele>
        <time>2012-01-30T13:17:47Z</time>
      </trkpt>
      <trkpt lat="44.58946" lon="0.82948">
        <ele>102</ele>
        <time>2012-01-30T13:17:48Z</time>
      </trkpt>
      <trkpt lat="44.58942" lon="0.82953">
        <ele>102</ele>
        <time>2012-01-30T13:17:49Z</time>
      </trkpt>
      <trkpt lat="44.58937" lon="0.82957">
        <ele>102</ele>
        <time>2012-01-30T13:17:50Z</time>
      </trkpt>
      <trkpt lat="44.58933" lon="0.82961">
        <ele>102</ele>
        <time>2012-01-30T13:17:51Z</time>
      </trkpt>
      <trkpt lat="44.58929" lon="0.82965">
        <ele>102</ele>
        <time>2012-01-30T13:17:52Z</time>
      </trkpt>
      <trkpt lat="44.58925" lon="0.82968">
        <ele>102</ele>
        <time>2012-01-30T13:17:53Z</time>
      </trkpt>
      <trkpt lat="44.58921" lon="0.82972">
        <ele>102</ele>
        <time>2012-01-30T13:17:54Z</time>
      </trkpt>
      <trkpt lat="44.58918" lon="0.82975">
        <ele>102</ele>
        <time>2012-01-30T13:17:55Z</time>
      </trkpt>
      <trkpt lat="44.58914" lon="0.82979">
        <ele>102</ele>
        <time>2012-01-30T13:17:56Z</time>
      </trkpt>
      <trkpt lat="44.5891" lon="0.82983">
        <ele>102</ele>
        <time>2012-01-30T13:17:57Z</time>
      </trkpt>
      <trkpt lat="44.58908" lon="0.82987">
        <ele>102</ele>
        <time>2012-01-30T13:17:58Z</time>
      </trkpt>
      <trkpt lat="44.58905" lon="0.82991">
        <ele>102</ele>
        <time>2012-01-30T13:17:59Z</time>
      </trkpt>
      <trkpt lat="44.58902" lon="0.82995">
        <ele>102</ele>
        <time>2012-01-30T13:18:00Z</time>
      </trkpt>
      <trkpt lat="44.58899" lon="0.82999">
        <ele>102</ele>
        <time>2012-01-30T13:18:01Z</time>
      </trkpt>
      <trkpt lat="44.58897" lon="0.83003">
        <ele>102</ele>
        <time>2012-01-30T13:18:02Z</time>
      </trkpt>
      <trkpt lat="44.58895" lon="0.83006">
        <ele>102</ele>
        <time>2012-01-30T13:18:03Z</time>
      </trkpt>
      <trkpt lat="44.58894" lon="0.83009">
        <ele>102</ele>
        <time>2012-01-30T13:18:04Z</time>
      </trkpt>
      <trkpt lat="44.58893" lon="0.83012">
        <ele>102</ele>
        <time>2012-01-30T13:18:05Z</time>
      </trkpt>
      <trkpt lat="44.58892" lon="0.83015">
        <ele>102</ele>
        <time>2012-01-30T13:18:06Z</time>
      </trkpt>
      <trkpt lat="44.58891" lon="0.83018">
        <ele>102</ele>
        <time>2012-01-30T13:18:07Z</time>
      </trkpt>
      <trkpt lat="44.58891" lon="0.83021">
        <ele>102</ele>
        <time>2012-01-30T13:18:08Z</time>
      </trkpt>
      <trkpt lat="44.5889" lon="0.83024">
        <ele>102</ele>
        <time>2012-01-30T13:18:09Z</time>
      </trkpt>
      <trkpt lat="44.58889" lon="0.83027">
        <ele>102</ele>
        <time>2012-01-30T13:18:10Z</time>
      </trkpt>
      <trkpt lat="44.58888" lon="0.83031">
        <ele>103</ele>
        <time>2012-01-30T13:18:11Z</time>
      </trkpt>
      <trkpt lat="44.58887" lon="0.83034">
        <ele>104</ele>
        <time>2012-01-30T13:18:12Z</time>
      </trkpt>
      <trkpt lat="44.58887" lon="0.83037">
        <ele>105</ele>
        <time>2012-01-30T13:18:13Z</time>
      </trkpt>
      <trkpt lat="44.58886" lon="0.83041">
        <ele>105</ele>
        <time>2012-01-30T13:18:14Z</time>
      </trkpt>
      <trkpt lat="44.58885" lon="0.83044">
        <ele>106</ele>
        <time>2012-01-30T13:18:15Z</time>
      </trkpt>
      <trkpt lat="44.58884" lon="0.83047">
        <ele>107</ele>
        <time>2012-01-30T13:18:16Z</time>
      </trkpt>
      <trkpt lat="44.58883" lon="0.83051">
        <ele>107</ele>
        <time>2012-01-30T13:18:17Z</time>
      </trkpt>
      <trkpt lat="44.58882" lon="0.83054">
        <ele>107</ele>
        <time>2012-01-30T13:18:18Z</time>
      </trkpt>
      <trkpt lat="44.58881" lon="0.83057">
        <ele>107</ele>
        <time>2012-01-30T13:18:19Z</time>
      </trkpt>
      <trkpt lat="44.58879" lon="0.8306">
        <ele>107</ele>
        <time>2012-01-30T13:18:20Z</time>
      </trkpt>
      <trkpt lat="44.58878" lon="0.83062">
        <ele>108</ele>
        <time>2012-01-30T13:18:21Z</time>
      </trkpt>
      <trkpt lat="44.58876" lon="0.83064">
        <ele>108</ele>
        <time>2012-01-30T13:18:22Z</time>
      </trkpt>
      <trkpt lat="44.58875" lon="0.83067">
        <ele>109</ele>
        <time>2012-01-30T13:18:23Z</time>
      </trkpt>
      <trkpt lat="44.58872" lon="0.83071">
        <ele>109</ele>
        <time>2012-01-30T13:18:24Z</time>
      </trkpt>
      <trkpt lat="44.5887" lon="0.83074">
        <ele>110</ele>
        <time>2012-01-30T13:18:25Z</time>
      </trkpt>
      <trkpt lat="44.58868" lon="0.83077">
        <ele>111</ele>
        <time>2012-01-30T13:18:26Z</time>
      </trkpt>
      <trkpt lat="44.58866" lon="0.83081">
        <ele>112</ele>
        <time>2012-01-30T13:18:27Z</time>
      </trkpt>
      <trkpt lat="44.58863" lon="0.83084">
        <ele>112</ele>
        <time>2012-01-30T13:18:28Z</time>
      </trkpt>
      <trkpt lat="44.5886" lon="0.83086">
        <ele>113</ele>
        <time>2012-01-30T13:18:29Z</time>
      </trkpt>
      <trkpt lat="44.58857" lon="0.83088">
        <ele>113</ele>
        <time>2012-01-30T13:18:30Z</time>
      </trkpt>
      <trkpt lat="44.58855" lon="0.83091">
        <ele>114</ele>
        <time>2012-01-30T13:18:31Z</time>
      </trkpt>
      <trkpt lat="44.58852" lon="0.83093">
        <ele>114</ele>
        <time>2012-01-30T13:18:32Z</time>
      </trkpt>
      <trkpt lat="44.58849" lon="0.83095">
        <ele>114</ele>
        <time>2012-01-30T13:18:32Z</time>
      </trkpt>
      <trkpt lat="44.58846" lon="0.83098">
        <ele>115</ele>
        <time>2012-01-30T13:18:34Z</time>
      </trkpt>
      <trkpt lat="44.58844" lon="0.83101">
        <ele>115</ele>
        <time>2012-01-30T13:18:35Z</time>
      </trkpt>
      <trkpt lat="44.58841" lon="0.83104">
        <ele>115</ele>
        <time>2012-01-30T13:18:36Z</time>
      </trkpt>
      <trkpt lat="44.58838" lon="0.83107">
        <ele>115</ele>
        <time>2012-01-30T13:18:37Z</time>
      </trkpt>
      <trkpt lat="44.58835" lon="0.8311">
        <ele>115</ele>
        <time>2012-01-30T13:18:38Z</time>
      </trkpt>
      <trkpt lat="44.58832" lon="0.83113">
        <ele>115</ele>
        <time>2012-01-30T13:18:39Z</time>
      </trkpt>
      <trkpt lat="44.58829" lon="0.83116">
        <ele>115</ele>
        <time>2012-01-30T13:18:40Z</time>
      </trkpt>
      <trkpt lat="44.58827" lon="0.83118">
        <ele>115</ele>
        <time>2012-01-30T13:18:41Z</time>
      </trkpt>
      <trkpt lat="44.58824" lon="0.83121">
        <ele>115</ele>
        <time>2012-01-30T13:18:42Z</time>
      </trkpt>
      <trkpt lat="44.58821" lon="0.83124">
        <ele>115</ele>
        <time>2012-01-30T13:18:43Z</time>
      </trkpt>
      <trkpt lat="44.58818" lon="0.83127">
        <ele>115</ele>
        <time>2012-01-30T13:18:44Z</time>
      </trkpt>
      <trkpt lat="44.58816" lon="0.8313">
        <ele>115</ele>
        <time>2012-01-30T13:18:45Z</time>
      </trkpt>
      <trkpt lat="44.58813" lon="0.83132">
        <ele>115</ele>
        <time>2012-01-30T13:18:45Z</time>
      </trkpt>
      <trkpt lat="44.58811" lon="0.83133">
        <ele>115</ele>
        <time>2012-01-30T13:18:47Z</time>
      </trkpt>
      <trkpt lat="44.58809" lon="0.83135">
        <ele>115</ele>
        <time>2012-01-30T13:18:48Z</time>
      </trkpt>
      <trkpt lat="44.58807" lon="0.83136">
        <ele>115</ele>
        <time>2012-01-30T13:18:49Z</time>
      </trkpt>
      <trkpt lat="44.58805" lon="0.83138">
        <ele>115</ele>
        <time>2012-01-30T13:18:50Z</time>
      </trkpt>
      <trkpt lat="44.58804" lon="0.83139">
        <ele>115</ele>
        <time>2012-01-30T13:18:51Z</time>
      </trkpt>
      <trkpt lat="44.58802" lon="0.8314">
        <ele>115</ele>
        <time>2012-01-30T13:18:52Z</time>
      </trkpt>
      <trkpt lat="44.588" lon="0.83142">
        <ele>115</ele>
        <time>2012-01-30T13:18:52Z</time>
      </trkpt>
      <trkpt lat="44.58797" lon="0.83144">
        <ele>115</ele>
        <time>2012-01-30T13:18:54Z</time>
      </trkpt>
      <trkpt lat="44.58795" lon="0.83145">
        <ele>115</ele>
        <time>2012-01-30T13:18:55Z</time>
      </trkpt>
      <trkpt lat="44.58793" lon="0.83147">
        <ele>115</ele>
        <time>2012-01-30T13:18:56Z</time>
      </trkpt>
      <trkpt lat="44.58791" lon="0.83148">
        <ele>115</ele>
        <time>2012-01-30T13:18:57Z</time>
      </trkpt>
      <trkpt lat="44.58789" lon="0.8315">
        <ele>115</ele>
        <time>2012-01-30T13:18:58Z</time>
      </trkpt>
      <trkpt lat="44.58787" lon="0.83151">
        <ele>115</ele>
        <time>2012-01-30T13:18:59Z</time>
      </trkpt>
      <trkpt lat="44.58785" lon="0.83152">
        <ele>115</ele>
        <time>2012-01-30T13:19:00Z</time>
      </trkpt>
      <trkpt lat="44.58782" lon="0.83153">
        <ele>115</ele>
        <time>2012-01-30T13:19:01Z</time>
      </trkpt>
      <trkpt lat="44.5878" lon="0.83155">
        <ele>115</ele>
        <time>2012-01-30T13:19:02Z</time>
      </trkpt>
      <trkpt lat="44.58778" lon="0.83157">
        <ele>115</ele>
        <time>2012-01-30T13:19:03Z</time>
      </trkpt>
      <trkpt lat="44.58775" lon="0.83158">
        <ele>115</ele>
        <time>2012-01-30T13:19:04Z</time>
      </trkpt>
      <trkpt lat="44.58773" lon="0.8316">
        <ele>116</ele>
        <time>2012-01-30T13:19:05Z</time>
      </trkpt>
      <trkpt lat="44.58771" lon="0.83162">
        <ele>116</ele>
        <time>2012-01-30T13:19:06Z</time>
      </trkpt>
      <trkpt lat="44.58768" lon="0.83165">
        <ele>116</ele>
        <time>2012-01-30T13:19:07Z</time>
      </trkpt>
      <trkpt lat="44.58765" lon="0.83167">
        <ele>116</ele>
        <time>2012-01-30T13:19:08Z</time>
      </trkpt>
      <trkpt lat="44.58762" lon="0.8317">
        <ele>117</ele>
        <time>2012-01-30T13:19:09Z</time>
      </trkpt>
      <trkpt lat="44.58759" lon="0.83173">
        <ele>117</ele>
        <time>2012-01-30T13:19:10Z</time>
      </trkpt>
      <trkpt lat="44.58756" lon="0.83176">
        <ele>117</ele>
        <time>2012-01-30T13:19:11Z</time>
      </trkpt>
      <trkpt lat="44.58754" lon="0.83179">
        <ele>117</ele>
        <time>2012-01-30T13:19:12Z</time>
      </trkpt>
      <trkpt lat="44.58751" lon="0.83182">
        <ele>117</ele>
        <time>2012-01-30T13:19:13Z</time>
      </trkpt>
      <trkpt lat="44.58749" lon="0.83184">
        <ele>117</ele>
        <time>2012-01-30T13:19:14Z</time>
      </trkpt>
      <trkpt lat="44.58746" lon="0.83187">
        <ele>117</ele>
        <time>2012-01-30T13:19:15Z</time>
      </trkpt>
      <trkpt lat="44.58744" lon="0.8319">
        <ele>117</ele>
        <time>2012-01-30T13:19:16Z</time>
      </trkpt>
      <trkpt lat="44.58741" lon="0.83193">
        <ele>117</ele>
        <time>2012-01-30T13:19:17Z</time>
      </trkpt>
      <trkpt lat="44.58738" lon="0.83196">
        <ele>117</ele>
        <time>2012-01-30T13:19:18Z</time>
      </trkpt>
      <trkpt lat="44.58736" lon="0.83198">
        <ele>117</ele>
        <time>2012-01-30T13:19:19Z</time>
      </trkpt>
      <trkpt lat="44.58734" lon="0.832">
        <ele>118</ele>
        <time>2012-01-30T13:19:20Z</time>
      </trkpt>
      <trkpt lat="44.58732" lon="0.83202">
        <ele>118</ele>
        <time>2012-01-30T13:19:21Z</time>
      </trkpt>
      <trkpt lat="44.58729" lon="0.83205">
        <ele>118</ele>
        <time>2012-01-30T13:19:22Z</time>
      </trkpt>
      <trkpt lat="44.58727" lon="0.83207">
        <ele>119</ele>
        <time>2012-01-30T13:19:23Z</time>
      </trkpt>
      <trkpt lat="44.58724" lon="0.83209">
        <ele>119</ele>
        <time>2012-01-30T13:19:24Z</time>
      </trkpt>
      <trkpt lat="44.58722" lon="0.83211">
        <ele>120</ele>
        <time>2012-01-30T13:19:25Z</time>
      </trkpt>
      <trkpt lat="44.5872" lon="0.83213">
        <ele>120</ele>
        <time>2012-01-30T13:19:26Z</time>
      </trkpt>
      <trkpt lat="44.58717" lon="0.83215">
        <ele>120</ele>
        <time>2012-01-30T13:19:27Z</time>
      </trkpt>
      <trkpt lat="44.58715" lon="0.83218">
        <ele>120</ele>
        <time>2012-01-30T13:19:28Z</time>
      </trkpt>
      <trkpt lat="44.58712" lon="0.83221">
        <ele>120</ele>
        <time>2012-01-30T13:19:29Z</time>
      </trkpt>
      <trkpt lat="44.58709" lon="0.83225">
        <ele>120</ele>
        <time>2012-01-30T13:19:30Z</time>
      </trkpt>
      <trkpt lat="44.58707" lon="0.83228">
        <ele>120</ele>
        <time>2012-01-30T13:19:31Z</time>
      </trkpt>
      <trkpt lat="44.58705" lon="0.83231">
        <ele>120</ele>
        <time>2012-01-30T13:19:32Z</time>
      </trkpt>
      <trkpt lat="44.58702" lon="0.83235">
        <ele>120</ele>
        <time>2012-01-30T13:19:33Z</time>
      </trkpt>
      <trkpt lat="44.587" lon="0.83239">
        <ele>120</ele>
        <time>2012-01-30T13:19:34Z</time>
      </trkpt>
      <trkpt lat="44.58697" lon="0.83243">
        <ele>120</ele>
        <time>2012-01-30T13:19:35Z</time>
      </trkpt>
      <trkpt lat="44.58695" lon="0.83246">
        <ele>120</ele>
        <time>2012-01-30T13:19:36Z</time>
      </trkpt>
      <trkpt lat="44.58693" lon="0.8325">
        <ele>120</ele>
        <time>2012-01-30T13:19:37Z</time>
      </trkpt>
      <trkpt lat="44.5869" lon="0.83254">
        <ele>120</ele>
        <time>2012-01-30T13:19:38Z</time>
      </trkpt>
      <trkpt lat="44.58688" lon="0.83257">
        <ele>120</ele>
        <time>2012-01-30T13:19:39Z</time>
      </trkpt>
      <trkpt lat="44.58686" lon="0.83261">
        <ele>120</ele>
        <time>2012-01-30T13:19:40Z</time>
      </trkpt>
      <trkpt lat="44.58683" lon="0.83265">
        <ele>120</ele>
        <time>2012-01-30T13:19:41Z</time>
      </trkpt>
      <trkpt lat="44.58681" lon="0.83269">
        <ele>120</ele>
        <time>2012-01-30T13:19:42Z</time>
      </trkpt>
      <trkpt lat="44.58678" lon="0.83273">
        <ele>120</ele>
        <time>2012-01-30T13:19:43Z</time>
      </trkpt>
      <trkpt lat="44.58676" lon="0.83277">
        <ele>120</ele>
        <time>2012-01-30T13:19:44Z</time>
      </trkpt>
      <trkpt lat="44.58675" lon="0.8328">
        <ele>120</ele>
        <time>2012-01-30T13:19:45Z</time>
      </trkpt>
      <trkpt lat="44.58674" lon="0.83285">
        <ele>120</ele>
        <time>2012-01-30T13:19:46Z</time>
      </trkpt>
      <trkpt lat="44.58674" lon="0.83289">
        <ele>120</ele>
        <time>2012-01-30T13:19:47Z</time>
      </trkpt>
      <trkpt lat="44.58676" lon="0.83293">
        <ele>120</ele>
        <time>2012-01-30T13:19:48Z</time>
      </trkpt>
      <trkpt lat="44.58678" lon="0.83296">
        <ele>120</ele>
        <time>2012-01-30T13:19:49Z</time>
      </trkpt>
      <trkpt lat="44.58681" lon="0.83298">
        <ele>120</ele>
        <time>2012-01-30T13:19:50Z</time>
      </trkpt>
      <trkpt lat="44.58683" lon="0.83301">
        <ele>120</ele>
        <time>2012-01-30T13:19:51Z</time>
      </trkpt>
      <trkpt lat="44.58686" lon="0.83303">
        <ele>120</ele>
        <time>2012-01-30T13:19:52Z</time>
      </trkpt>
      <trkpt lat="44.58689" lon="0.83306">
        <ele>120</ele>
        <time>2012-01-30T13:19:53Z</time>
      </trkpt>
      <trkpt lat="44.58692" lon="0.83308">
        <ele>120</ele>
        <time>2012-01-30T13:19:54Z</time>
      </trkpt>
      <trkpt lat="44.58695" lon="0.8331">
        <ele>120</ele>
        <time>2012-01-30T13:19:55Z</time>
      </trkpt>
      <trkpt lat="44.58698" lon="0.83312">
        <ele>120</ele>
        <time>2012-01-30T13:19:56Z</time>
      </trkpt>
      <trkpt lat="44.58701" lon="0.83315">
        <ele>120</ele>
        <time>2012-01-30T13:19:57Z</time>
      </trkpt>
      <trkpt lat="44.58705" lon="0.83317">
        <ele>120</ele>
        <time>2012-01-30T13:19:58Z</time>
      </trkpt>
      <trkpt lat="44.58708" lon="0.8332">
        <ele>121</ele>
        <time>2012-01-30T13:19:59Z</time>
      </trkpt>
      <trkpt lat="44.58711" lon="0.83322">
        <ele>121</ele>
        <time>2012-01-30T13:20:00Z</time>
      </trkpt>
      <trkpt lat="44.58714" lon="0.83325">
        <ele>121</ele>
        <time>2012-01-30T13:20:01Z</time>
      </trkpt>
      <trkpt lat="44.58717" lon="0.83328">
        <ele>121</ele>
        <time>2012-01-30T13:20:02Z</time>
      </trkpt>
      <trkpt lat="44.58718" lon="0.83331">
        <ele>121</ele>
        <time>2012-01-30T13:20:03Z</time>
      </trkpt>
      <trkpt lat="44.5872" lon="0.83335">
        <ele>121</ele>
        <time>2012-01-30T13:20:04Z</time>
      </trkpt>
      <trkpt lat="44.58721" lon="0.83339">
        <ele>122</ele>
        <time>2012-01-30T13:20:05Z</time>
      </trkpt>
      <trkpt lat="44.58722" lon="0.83344">
        <ele>122</ele>
        <time>2012-01-30T13:20:06Z</time>
      </trkpt>
      <trkpt lat="44.58722" lon="0.83349">
        <ele>122</ele>
        <time>2012-01-30T13:20:07Z</time>
      </trkpt>
      <trkpt lat="44.58722" lon="0.83354">
        <ele>122</ele>
        <time>2012-01-30T13:20:08Z</time>
      </trkpt>
      <trkpt lat="44.58722" lon="0.83358">
        <ele>122</ele>
        <time>2012-01-30T13:20:09Z</time>
      </trkpt>
      <trkpt lat="44.58723" lon="0.83363">
        <ele>122</ele>
        <time>2012-01-30T13:20:10Z</time>
      </trkpt>
      <trkpt lat="44.58724" lon="0.83368">
        <ele>122</ele>
        <time>2012-01-30T13:20:11Z</time>
      </trkpt>
      <trkpt lat="44.58725" lon="0.83373">
        <ele>122</ele>
        <time>2012-01-30T13:20:12Z</time>
      </trkpt>
      <trkpt lat="44.58728" lon="0.83377">
        <ele>122</ele>
        <time>2012-01-30T13:20:13Z</time>
      </trkpt>
      <trkpt lat="44.58731" lon="0.83382">
        <ele>122</ele>
        <time>2012-01-30T13:20:14Z</time>
      </trkpt>
      <trkpt lat="44.58734" lon="0.83386">
        <ele>122</ele>
        <time>2012-01-30T13:20:15Z</time>
      </trkpt>
      <trkpt lat="44.58738" lon="0.8339">
        <ele>122</ele>
        <time>2012-01-30T13:20:16Z</time>
      </trkpt>
      <trkpt lat="44.58743" lon="0.83394">
        <ele>122</ele>
        <time>2012-01-30T13:20:17Z</time>
      </trkpt>
      <trkpt lat="44.58747" lon="0.83399">
        <ele>122</ele>
        <time>2012-01-30T13:20:18Z</time>
      </trkpt>
      <trkpt lat="44.58752" lon="0.83404">
        <ele>122</ele>
        <time>2012-01-30T13:20:19Z</time>
      </trkpt>
      <trkpt lat="44.58756" lon="0.83409">
        <ele>122</ele>
        <time>2012-01-30T13:20:20Z</time>
      </trkpt>
      <trkpt lat="44.58761" lon="0.83415">
        <ele>121</ele>
        <time>2012-01-30T13:20:21Z</time>
      </trkpt>
      <trkpt lat="44.58766" lon="0.83421">
        <ele>121</ele>
        <time>2012-01-30T13:20:22Z</time>
      </trkpt>
      <trkpt lat="44.58772" lon="0.83427">
        <ele>120</ele>
        <time>2012-01-30T13:20:23Z</time>
      </trkpt>
      <trkpt lat="44.58778" lon="0.83433">
        <ele>119</ele>
        <time>2012-01-30T13:20:24Z</time>
      </trkpt>
      <trkpt lat="44.58783" lon="0.8344">
        <ele>118</ele>
        <time>2012-01-30T13:20:24Z</time>
      </trkpt>
      <trkpt lat="44.58789" lon="0.83448">
        <ele>118</ele>
        <time>2012-01-30T13:20:26Z</time>
      </trkpt>
      <trkpt lat="44.58795" lon="0.83456">
        <ele>117</ele>
        <time>2012-01-30T13:20:27Z</time>
      </trkpt>
      <trkpt lat="44.58801" lon="0.83465">
        <ele>117</ele>
        <time>2012-01-30T13:20:28Z</time>
      </trkpt>
      <trkpt lat="44.58804" lon="0.83473">
        <ele>116</ele>
        <time>2012-01-30T13:20:29Z</time>
      </trkpt>
      <trkpt lat="44.58807" lon="0.83482">
        <ele>116</ele>
        <time>2012-01-30T13:20:30Z</time>
      </trkpt>
      <trkpt lat="44.58807" lon="0.8349">
        <ele>115</ele>
        <time>2012-01-30T13:20:31Z</time>
      </trkpt>
      <trkpt lat="44.58805" lon="0.83498">
        <ele>115</ele>
        <time>2012-01-30T13:20:32Z</time>
      </trkpt>
      <trkpt lat="44.58802" lon="0.83506">
        <ele>114</ele>
        <time>2012-01-30T13:20:33Z</time>
      </trkpt>
      <trkpt lat="44.58799" lon="0.83515">
        <ele>113</ele>
        <time>2012-01-30T13:20:34Z</time>
      </trkpt>
      <trkpt lat="44.58797" lon="0.83525">
        <ele>113</ele>
        <time>2012-01-30T13:20:35Z</time>
      </trkpt>
      <trkpt lat="44.58798" lon="0.83537">
        <ele>112</ele>
        <time>2012-01-30T13:20:36Z</time>
      </trkpt>
      <trkpt lat="44.588" lon="0.83549">
        <ele>111</ele>
        <time>2012-01-30T13:20:37Z</time>
      </trkpt>
      <trkpt lat="44.58801" lon="0.83561">
        <ele>111</ele>
        <time>2012-01-30T13:20:38Z</time>
      </trkpt>
      <trkpt lat="44.58803" lon="0.83572">
        <ele>111</ele>
        <time>2012-01-30T13:20:39Z</time>
      </trkpt>
      <trkpt lat="44.58805" lon="0.83584">
        <ele>111</ele>
        <time>2012-01-30T13:20:40Z</time>
      </trkpt>
      <trkpt lat="44.58807" lon="0.83594">
        <ele>110</ele>
        <time>2012-01-30T13:20:41Z</time>
      </trkpt>
      <trkpt lat="44.58809" lon="0.83603">
        <ele>110</ele>
        <time>2012-01-30T13:20:42Z</time>
      </trkpt>
      <trkpt lat="44.5881" lon="0.83611">
        <ele>110</ele>
        <time>2012-01-30T13:20:43Z</time>
      </trkpt>
      <trkpt lat="44.5881" lon="0.83618">
        <ele>109</ele>
        <time>2012-01-30T13:20:44Z</time>
      </trkpt>
      <trkpt lat="44.5881" lon="0.83623">
        <ele>109</ele>
        <time>2012-01-30T13:20:45Z</time>
      </trkpt>
      <trkpt lat="44.58809" lon="0.83626">
        <ele>109</ele>
        <time>2012-01-30T13:20:46Z</time>
      </trkpt>
      <trkpt lat="44.58806" lon="0.83627">
        <ele>109</ele>
        <time>2012-01-30T13:20:47Z</time>
      </trkpt>
      <trkpt lat="44.58802" lon="0.83628">
        <ele>109</ele>
        <time>2012-01-30T13:20:48Z</time>
      </trkpt>
      <trkpt lat="44.58798" lon="0.83628">
        <ele>109</ele>
        <time>2012-01-30T13:20:49Z</time>
      </trkpt>
      <trkpt lat="44.58794" lon="0.8363">
        <ele>109</ele>
        <time>2012-01-30T13:20:50Z</time>
      </trkpt>
      <trkpt lat="44.5879" lon="0.83631">
        <ele>109</ele>
        <time>2012-01-30T13:20:51Z</time>
      </trkpt>
      <trkpt lat="44.58786" lon="0.83632">
        <ele>109</ele>
        <time>2012-01-30T13:20:52Z</time>
      </trkpt>
      <trkpt lat="44.58782" lon="0.83634">
        <ele>109</ele>
        <time>2012-01-30T13:20:53Z</time>
      </trkpt>
      <trkpt lat="44.58778" lon="0.83634">
        <ele>109</ele>
        <time>2012-01-30T13:20:53Z</time>
      </trkpt>
      <trkpt lat="44.58774" lon="0.83635">
        <ele>109</ele>
        <time>2012-01-30T13:20:55Z</time>
      </trkpt>
      <trkpt lat="44.58769" lon="0.83637">
        <ele>109</ele>
        <time>2012-01-30T13:20:56Z</time>
      </trkpt>
      <trkpt lat="44.58764" lon="0.83637">
        <ele>109</ele>
        <time>2012-01-30T13:20:57Z</time>
      </trkpt>
      <trkpt lat="44.5876" lon="0.83637">
        <ele>109</ele>
        <time>2012-01-30T13:20:58Z</time>
      </trkpt>
      <trkpt lat="44.58756" lon="0.83639">
        <ele>110</ele>
        <time>2012-01-30T13:20:59Z</time>
      </trkpt>
      <trkpt lat="44.58752" lon="0.83641">
        <ele>111</ele>
        <time>2012-01-30T13:21:00Z</time>
      </trkpt>
      <trkpt lat="44.58748" lon="0.83643">
        <ele>112</ele>
        <time>2012-01-30T13:21:01Z</time>
      </trkpt>
      <trkpt lat="44.58744" lon="0.83645">
        <ele>113</ele>
        <time>2012-01-30T13:21:02Z</time>
      </trkpt>
      <trkpt lat="44.5874" lon="0.83646">
        <ele>113</ele>
        <time>2012-01-30T13:21:03Z</time>
      </trkpt>
      <trkpt lat="44.58737" lon="0.83647">
        <ele>113</ele>
        <time>2012-01-30T13:21:04Z</time>
      </trkpt>
      <trkpt lat="44.58733" lon="0.83648">
        <ele>114</ele>
        <time>2012-01-30T13:21:05Z</time>
      </trkpt>
      <trkpt lat="44.58728" lon="0.8365">
        <ele>114</ele>
        <time>2012-01-30T13:21:06Z</time>
      </trkpt>
      <trkpt lat="44.58724" lon="0.83652">
        <ele>114</ele>
        <time>2012-01-30T13:21:07Z</time>
      </trkpt>
      <trkpt lat="44.5872" lon="0.83653">
        <ele>115</ele>
        <time>2012-01-30T13:21:08Z</time>
      </trkpt>
      <trkpt lat="44.58715" lon="0.83655">
        <ele>115</ele>
        <time>2012-01-30T13:21:09Z</time>
      </trkpt>
      <trkpt lat="44.58711" lon="0.83658">
        <ele>115</ele>
        <time>2012-01-30T13:21:10Z</time>
      </trkpt>
      <trkpt lat="44.58707" lon="0.8366">
        <ele>116</ele>
        <time>2012-01-30T13:21:11Z</time>
      </trkpt>
      <trkpt lat="44.58703" lon="0.83662">
        <ele>116</ele>
        <time>2012-01-30T13:21:12Z</time>
      </trkpt>
      <trkpt lat="44.58699" lon="0.83665">
        <ele>116</ele>
        <time>2012-01-30T13:21:13Z</time>
      </trkpt>
      <trkpt lat="44.58695" lon="0.83667">
        <ele>116</ele>
        <time>2012-01-30T13:21:14Z</time>
      </trkpt>
      <trkpt lat="44.58691" lon="0.83669">
        <ele>116</ele>
        <time>2012-01-30T13:21:15Z</time>
      </trkpt>
      <trkpt lat="44.58687" lon="0.83671">
        <ele>116</ele>
        <time>2012-01-30T13:21:15Z</time>
      </trkpt>
      <trkpt lat="44.58683" lon="0.83674">
        <ele>116</ele>
        <time>2012-01-30T13:21:17Z</time>
      </trkpt>
      <trkpt lat="44.5868" lon="0.83676">
        <ele>117</ele>
        <time>2012-01-30T13:21:18Z</time>
      </trkpt>
      <trkpt lat="44.58676" lon="0.83679">
        <ele>117</ele>
        <time>2012-01-30T13:21:19Z</time>
      </trkpt>
      <trkpt lat="44.58672" lon="0.83681">
        <ele>117</ele>
        <time>2012-01-30T13:21:20Z</time>
      </trkpt>
      <trkpt lat="44.58669" lon="0.83684">
        <ele>117</ele>
        <time>2012-01-30T13:21:21Z</time>
      </trkpt>
      <trkpt lat="44.58665" lon="0.83686">
        <ele>118</ele>
        <time>2012-01-30T13:21:22Z</time>
      </trkpt>
      <trkpt lat="44.58662" lon="0.83689">
        <ele>118</ele>
        <time>2012-01-30T13:21:23Z</time>
      </trkpt>
      <trkpt lat="44.58657" lon="0.83692">
        <ele>119</ele>
        <time>2012-01-30T13:21:24Z</time>
      </trkpt>
      <trkpt lat="44.58654" lon="0.83694">
        <ele>119</ele>
        <time>2012-01-30T13:21:25Z</time>
      </trkpt>
      <trkpt lat="44.5865" lon="0.83696">
        <ele>120</ele>
        <time>2012-01-30T13:21:26Z</time>
      </trkpt>
      <trkpt lat="44.58648" lon="0.83698">
        <ele>121</ele>
        <time>2012-01-30T13:21:27Z</time>
      </trkpt>
      <trkpt lat="44.58644" lon="0.83701">
        <ele>121</ele>
        <time>2012-01-30T13:21:28Z</time>
      </trkpt>
      <trkpt lat="44.58641" lon="0.83703">
        <ele>121</ele>
        <time>2012-01-30T13:21:29Z</time>
      </trkpt>
      <trkpt lat="44.58638" lon="0.83705">
        <ele>121</ele>
        <time>2012-01-30T13:21:30Z</time>
      </trkpt>
      <trkpt lat="44.58634" lon="0.83708">
        <ele>121</ele>
        <time>2012-01-30T13:21:31Z</time>
      </trkpt>
      <trkpt lat="44.5863" lon="0.83711">
        <ele>121</ele>
        <time>2012-01-30T13:21:32Z</time>
      </trkpt>
      <trkpt lat="44.58627" lon="0.83713">
        <ele>122</ele>
        <time>2012-01-30T13:21:33Z</time>
      </trkpt>
      <trkpt lat="44.58624" lon="0.83715">
        <ele>122</ele>
        <time>2012-01-30T13:21:34Z</time>
      </trkpt>
      <trkpt lat="44.58621" lon="0.83718">
        <ele>122</ele>
        <time>2012-01-30T13:21:35Z</time>
      </trkpt>
      <trkpt lat="44.58618" lon="0.83719">
        <ele>122</ele>
        <time>2012-01-30T13:21:36Z</time>
      </trkpt>
      <trkpt lat="44.58616" lon="0.83722">
        <ele>122</ele>
        <time>2012-01-30T13:21:37Z</time>
      </trkpt>
      <trkpt lat="44.58614" lon="0.83726">
        <ele>122</ele>
        <time>2012-01-30T13:21:38Z</time>
      </trkpt>
      <trkpt lat="44.58612" lon="0.8373">
        <ele>122</ele>
        <time>2012-01-30T13:21:39Z</time>
      </trkpt>
      <trkpt lat="44.58612" lon="0.83732">
        <ele>122</ele>
        <time>2012-01-30T13:21:40Z</time>
      </trkpt>
      <trkpt lat="44.58613" lon="0.83735">
        <ele>122</ele>
        <time>2012-01-30T13:21:41Z</time>
      </trkpt>
      <trkpt lat="44.58614" lon="0.83738">
        <ele>122</ele>
        <time>2012-01-30T13:21:42Z</time>
      </trkpt>
      <trkpt lat="44.58616" lon="0.83741">
        <ele>122</ele>
        <time>2012-01-30T13:21:43Z</time>
      </trkpt>
      <trkpt lat="44.58619" lon="0.83743">
        <ele>122</ele>
        <time>2012-01-30T13:21:44Z</time>
      </trkpt>
      <trkpt lat="44.5862" lon="0.83746">
        <ele>122</ele>
        <time>2012-01-30T13:21:45Z</time>
      </trkpt>
      <trkpt lat="44.58622" lon="0.83748">
        <ele>122</ele>
        <time>2012-01-30T13:21:46Z</time>
      </trkpt>
      <trkpt lat="44.58624" lon="0.8375">
        <ele>122</ele>
        <time>2012-01-30T13:21:47Z</time>
      </trkpt>
      <trkpt lat="44.58626" lon="0.83752">
        <ele>122</ele>
        <time>2012-01-30T13:21:48Z</time>
      </trkpt>
      <trkpt lat="44.58627" lon="0.83754">
        <ele>122</ele>
        <time>2012-01-30T13:21:49Z</time>
      </trkpt>
      <trkpt lat="44.58628" lon="0.83757">
        <ele>122</ele>
        <time>2012-01-30T13:21:50Z</time>
      </trkpt>
      <trkpt lat="44.58629" lon="0.83758">
        <ele>122</ele>
        <time>2012-01-30T13:21:51Z</time>
      </trkpt>
      <trkpt lat="44.58631" lon="0.83761">
        <ele>122</ele>
        <time>2012-01-30T13:21:52Z</time>
      </trkpt>
      <trkpt lat="44.58632" lon="0.83763">
        <ele>122</ele>
        <time>2012-01-30T13:21:53Z</time>
      </trkpt>
      <trkpt lat="44.58634" lon="0.83766">
        <ele>122</ele>
        <time>2012-01-30T13:21:54Z</time>
      </trkpt>
      <trkpt lat="44.58636" lon="0.83767">
        <ele>122</ele>
        <time>2012-01-30T13:21:55Z</time>
      </trkpt>
      <trkpt lat="44.58639" lon="0.83769">
        <ele>122</ele>
        <time>2012-01-30T13:21:56Z</time>
      </trkpt>
      <trkpt lat="44.58641" lon="0.83772">
        <ele>122</ele>
        <time>2012-01-30T13:21:57Z</time>
      </trkpt>
      <trkpt lat="44.58643" lon="0.83775">
        <ele>123</ele>
        <time>2012-01-30T13:21:58Z</time>
      </trkpt>
      <trkpt lat="44.58644" lon="0.83777">
        <ele>124</ele>
        <time>2012-01-30T13:21:59Z</time>
      </trkpt>
      <trkpt lat="44.58646" lon="0.83779">
        <ele>125</ele>
        <time>2012-01-30T13:22:00Z</time>
      </trkpt>
      <trkpt lat="44.58648" lon="0.83782">
        <ele>125</ele>
        <time>2012-01-30T13:22:01Z</time>
      </trkpt>
      <trkpt lat="44.5865" lon="0.83784">
        <ele>125</ele>
        <time>2012-01-30T13:22:02Z</time>
      </trkpt>
      <trkpt lat="44.58651" lon="0.83787">
        <ele>126</ele>
        <time>2012-01-30T13:22:03Z</time>
      </trkpt>
      <trkpt lat="44.58652" lon="0.8379">
        <ele>127</ele>
        <time>2012-01-30T13:22:04Z</time>
      </trkpt>
      <trkpt lat="44.58654" lon="0.83792">
        <ele>127</ele>
        <time>2012-01-30T13:22:05Z</time>
      </trkpt>
      <trkpt lat="44.58656" lon="0.83794">
        <ele>128</ele>
        <time>2012-01-30T13:22:06Z</time>
      </trkpt>
      <trkpt lat="44.58658" lon="0.83797">
        <ele>129</ele>
        <time>2012-01-30T13:22:07Z</time>
      </trkpt>
      <trkpt lat="44.5866" lon="0.83799">
        <ele>130</ele>
        <time>2012-01-30T13:22:08Z</time>
      </trkpt>
      <trkpt lat="44.58662" lon="0.838">
        <ele>131</ele>
        <time>2012-01-30T13:22:09Z</time>
      </trkpt>
      <trkpt lat="44.58664" lon="0.83802">
        <ele>132</ele>
        <time>2012-01-30T13:22:10Z</time>
      </trkpt>
      <trkpt lat="44.58666" lon="0.83804">
        <ele>133</ele>
        <time>2012-01-30T13:22:11Z</time>
      </trkpt>
      <trkpt lat="44.58668" lon="0.83806">
        <ele>134</ele>
        <time>2012-01-30T13:22:12Z</time>
      </trkpt>
      <trkpt lat="44.5867" lon="0.83808">
        <ele>135</ele>
        <time>2012-01-30T13:22:13Z</time>
      </trkpt>
      <trkpt lat="44.58672" lon="0.83809">
        <ele>136</ele>
        <time>2012-01-30T13:22:14Z</time>
      </trkpt>
      <trkpt lat="44.58674" lon="0.83811">
        <ele>136</ele>
        <time>2012-01-30T13:22:15Z</time>
      </trkpt>
      <trkpt lat="44.58676" lon="0.83812">
        <ele>136</ele>
        <time>2012-01-30T13:22:16Z</time>
      </trkpt>
      <trkpt lat="44.58678" lon="0.83814">
        <ele>137</ele>
        <time>2012-01-30T13:22:17Z</time>
      </trkpt>
      <trkpt lat="44.5868" lon="0.83816">
        <ele>137</ele>
        <time>2012-01-30T13:22:18Z</time>
      </trkpt>
      <trkpt lat="44.58682" lon="0.83818">
        <ele>137</ele>
        <time>2012-01-30T13:22:19Z</time>
      </trkpt>
      <trkpt lat="44.58683" lon="0.8382">
        <ele>137</ele>
        <time>2012-01-30T13:22:20Z</time>
      </trkpt>
      <trkpt lat="44.58685" lon="0.83822">
        <ele>137</ele>
        <time>2012-01-30T13:22:21Z</time>
      </trkpt>
      <trkpt lat="44.58687" lon="0.83823">
        <ele>137</ele>
        <time>2012-01-30T13:22:22Z</time>
      </trkpt>
      <trkpt lat="44.58689" lon="0.83825">
        <ele>138</ele>
        <time>2012-01-30T13:22:23Z</time>
      </trkpt>
      <trkpt lat="44.58691" lon="0.83827">
        <ele>138</ele>
        <time>2012-01-30T13:22:24Z</time>
      </trkpt>
      <trkpt lat="44.58693" lon="0.83829">
        <ele>138</ele>
        <time>2012-01-30T13:22:25Z</time>
      </trkpt>
      <trkpt lat="44.58696" lon="0.8383">
        <ele>139</ele>
        <time>2012-01-30T13:22:26Z</time>
      </trkpt>
      <trkpt lat="44.58698" lon="0.83832">
        <ele>139</ele>
        <time>2012-01-30T13:22:27Z</time>
      </trkpt>
      <trkpt lat="44.587" lon="0.83833">
        <ele>139</ele>
        <time>2012-01-30T13:22:28Z</time>
      </trkpt>
      <trkpt lat="44.58702" lon="0.83835">
        <ele>139</ele>
        <time>2012-01-30T13:22:29Z</time>
      </trkpt>
      <trkpt lat="44.58704" lon="0.83836">
        <ele>139</ele>
        <time>2012-01-30T13:22:30Z</time>
      </trkpt>
      <trkpt lat="44.58706" lon="0.83837">
        <ele>139</ele>
        <time>2012-01-30T13:22:31Z</time>
      </trkpt>
      <trkpt lat="44.58708" lon="0.83837">
        <ele>139</ele>
        <time>2012-01-30T13:22:32Z</time>
      </trkpt>
      <trkpt lat="44.5871" lon="0.83838">
        <ele>139</ele>
        <time>2012-01-30T13:22:33Z</time>
      </trkpt>
      <trkpt lat="44.58712" lon="0.83839">
        <ele>139</ele>
        <time>2012-01-30T13:22:34Z</time>
      </trkpt>
      <trkpt lat="44.58714" lon="0.83841">
        <ele>139</ele>
        <time>2012-01-30T13:22:35Z</time>
      </trkpt>
      <trkpt lat="44.58716" lon="0.83843">
        <ele>139</ele>
        <time>2012-01-30T13:22:36Z</time>
      </trkpt>
      <trkpt lat="44.58718" lon="0.83843">
        <ele>139</ele>
        <time>2012-01-30T13:22:37Z</time>
      </trkpt>
      <trkpt lat="44.58721" lon="0.83844">
        <ele>139</ele>
        <time>2012-01-30T13:22:38Z</time>
      </trkpt>
      <trkpt lat="44.58723" lon="0.83844">
        <ele>139</ele>
        <time>2012-01-30T13:22:39Z</time>
      </trkpt>
      <trkpt lat="44.58725" lon="0.83844">
        <ele>139</ele>
        <time>2012-01-30T13:22:40Z</time>
      </trkpt>
      <trkpt lat="44.58727" lon="0.83844">
        <ele>139</ele>
        <time>2012-01-30T13:22:41Z</time>
      </trkpt>
      <trkpt lat="44.5873" lon="0.83845">
        <ele>139</ele>
        <time>2012-01-30T13:22:42Z</time>
      </trkpt>
      <trkpt lat="44.58731" lon="0.83845">
        <ele>139</ele>
        <time>2012-01-30T13:22:43Z</time>
      </trkpt>
      <trkpt lat="44.58734" lon="0.83846">
        <ele>139</ele>
        <time>2012-01-30T13:22:44Z</time>
      </trkpt>
      <trkpt lat="44.58736" lon="0.83847">
        <ele>139</ele>
        <time>2012-01-30T13:22:45Z</time>
      </trkpt>
      <trkpt lat="44.58738" lon="0.83849">
        <ele>139</ele>
        <time>2012-01-30T13:22:46Z</time>
      </trkpt>
      <trkpt lat="44.5874" lon="0.83851">
        <ele>139</ele>
        <time>2012-01-30T13:22:47Z</time>
      </trkpt>
      <trkpt lat="44.58742" lon="0.83853">
        <ele>139</ele>
        <time>2012-01-30T13:22:48Z</time>
      </trkpt>
      <trkpt lat="44.58744" lon="0.83855">
        <ele>139</ele>
        <time>2012-01-30T13:22:49Z</time>
      </trkpt>
      <trkpt lat="44.58746" lon="0.83858">
        <ele>139</ele>
        <time>2012-01-30T13:22:50Z</time>
      </trkpt>
      <trkpt lat="44.58749" lon="0.83861">
        <ele>139</ele>
        <time>2012-01-30T13:22:51Z</time>
      </trkpt>
      <trkpt lat="44.58751" lon="0.83864">
        <ele>139</ele>
        <time>2012-01-30T13:22:52Z</time>
      </trkpt>
      <trkpt lat="44.58753" lon="0.83867">
        <ele>139</ele>
        <time>2012-01-30T13:22:53Z</time>
      </trkpt>
      <trkpt lat="44.58755" lon="0.83869">
        <ele>139</ele>
        <time>2012-01-30T13:22:54Z</time>
      </trkpt>
      <trkpt lat="44.58757" lon="0.83871">
        <ele>139</ele>
        <time>2012-01-30T13:22:55Z</time>
      </trkpt>
      <trkpt lat="44.58759" lon="0.83873">
        <ele>139</ele>
        <time>2012-01-30T13:22:56Z</time>
      </trkpt>
      <trkpt lat="44.58761" lon="0.83875">
        <ele>139</ele>
        <time>2012-01-30T13:22:57Z</time>
      </trkpt>
      <trkpt lat="44.58762" lon="0.83878">
        <ele>139</ele>
        <time>2012-01-30T13:22:58Z</time>
      </trkpt>
      <trkpt lat="44.58764" lon="0.8388">
        <ele>139</ele>
        <time>2012-01-30T13:22:59Z</time>
      </trkpt>
      <trkpt lat="44.58766" lon="0.83882">
        <ele>139</ele>
        <time>2012-01-30T13:23:00Z</time>
      </trkpt>
      <trkpt lat="44.58769" lon="0.83885">
        <ele>139</ele>
        <time>2012-01-30T13:23:01Z</time>
      </trkpt>
      <trkpt lat="44.58771" lon="0.83887">
        <ele>139</ele>
        <time>2012-01-30T13:23:02Z</time>
      </trkpt>
      <trkpt lat="44.58774" lon="0.83889">
        <ele>139</ele>
        <time>2012-01-30T13:23:03Z</time>
      </trkpt>
      <trkpt lat="44.58776" lon="0.8389">
        <ele>139</ele>
        <time>2012-01-30T13:23:04Z</time>
      </trkpt>
      <trkpt lat="44.58778" lon="0.83892">
        <ele>139</ele>
        <time>2012-01-30T13:23:05Z</time>
      </trkpt>
      <trkpt lat="44.58781" lon="0.83894">
        <ele>139</ele>
        <time>2012-01-30T13:23:06Z</time>
      </trkpt>
      <trkpt lat="44.58783" lon="0.83895">
        <ele>139</ele>
        <time>2012-01-30T13:23:07Z</time>
      </trkpt>
      <trkpt lat="44.58786" lon="0.83897">
        <ele>139</ele>
        <time>2012-01-30T13:23:08Z</time>
      </trkpt>
      <trkpt lat="44.58789" lon="0.83899">
        <ele>139</ele>
        <time>2012-01-30T13:23:09Z</time>
      </trkpt>
      <trkpt lat="44.58792" lon="0.83901">
        <ele>139</ele>
        <time>2012-01-30T13:23:10Z</time>
      </trkpt>
      <trkpt lat="44.58794" lon="0.83903">
        <ele>139</ele>
        <time>2012-01-30T13:23:11Z</time>
      </trkpt>
      <trkpt lat="44.58796" lon="0.83906">
        <ele>139</ele>
        <time>2012-01-30T13:23:12Z</time>
      </trkpt>
      <trkpt lat="44.58798" lon="0.83908">
        <ele>139</ele>
        <time>2012-01-30T13:23:13Z</time>
      </trkpt>
      <trkpt lat="44.588" lon="0.83911">
        <ele>139</ele>
        <time>2012-01-30T13:23:14Z</time>
      </trkpt>
      <trkpt lat="44.58801" lon="0.83913">
        <ele>140</ele>
        <time>2012-01-30T13:23:15Z</time>
      </trkpt>
      <trkpt lat="44.58803" lon="0.83916">
        <ele>140</ele>
        <time>2012-01-30T13:23:16Z</time>
      </trkpt>
      <trkpt lat="44.58804" lon="0.83919">
        <ele>140</ele>
        <time>2012-01-30T13:23:17Z</time>
      </trkpt>
      <trkpt lat="44.58805" lon="0.83921">
        <ele>141</ele>
        <time>2012-01-30T13:23:18Z</time>
      </trkpt>
      <trkpt lat="44.58807" lon="0.83924">
        <ele>141</ele>
        <time>2012-01-30T13:23:19Z</time>
      </trkpt>
      <trkpt lat="44.58809" lon="0.83926">
        <ele>141</ele>
        <time>2012-01-30T13:23:20Z</time>
      </trkpt>
      <trkpt lat="44.5881" lon="0.83929">
        <ele>141</ele>
        <time>2012-01-30T13:23:21Z</time>
      </trkpt>
      <trkpt lat="44.58812" lon="0.83932">
        <ele>141</ele>
        <time>2012-01-30T13:23:22Z</time>
      </trkpt>
      <trkpt lat="44.58813" lon="0.83935">
        <ele>141</ele>
        <time>2012-01-30T13:23:23Z</time>
      </trkpt>
      <trkpt lat="44.58815" lon="0.83938">
        <ele>141</ele>
        <time>2012-01-30T13:23:24Z</time>
      </trkpt>
      <trkpt lat="44.58816" lon="0.83941">
        <ele>141</ele>
        <time>2012-01-30T13:23:25Z</time>
      </trkpt>
      <trkpt lat="44.58818" lon="0.83943">
        <ele>141</ele>
        <time>2012-01-30T13:23:26Z</time>
      </trkpt>
      <trkpt lat="44.58819" lon="0.83946">
        <ele>141</ele>
        <time>2012-01-30T13:23:27Z</time>
      </trkpt>
      <trkpt lat="44.58821" lon="0.83948">
        <ele>141</ele>
        <time>2012-01-30T13:23:28Z</time>
      </trkpt>
      <trkpt lat="44.58823" lon="0.83952">
        <ele>141</ele>
        <time>2012-01-30T13:23:29Z</time>
      </trkpt>
      <trkpt lat="44.58825" lon="0.83955">
        <ele>141</ele>
        <time>2012-01-30T13:23:30Z</time>
      </trkpt>
      <trkpt lat="44.58826" lon="0.83958">
        <ele>141</ele>
        <time>2012-01-30T13:23:31Z</time>
      </trkpt>
      <trkpt lat="44.58828" lon="0.83961">
        <ele>141</ele>
        <time>2012-01-30T13:23:32Z</time>
      </trkpt>
      <trkpt lat="44.58829" lon="0.83965">
        <ele>141</ele>
        <time>2012-01-30T13:23:33Z</time>
      </trkpt>
      <trkpt lat="44.58831" lon="0.83969">
        <ele>141</ele>
        <time>2012-01-30T13:23:34Z</time>
      </trkpt>
      <trkpt lat="44.58833" lon="0.83973">
        <ele>141</ele>
        <time>2012-01-30T13:23:35Z</time>
      </trkpt>
      <trkpt lat="44.58836" lon="0.83978">
        <ele>141</ele>
        <time>2012-01-30T13:23:36Z</time>
      </trkpt>
      <trkpt lat="44.58839" lon="0.83983">
        <ele>141</ele>
        <time>2012-01-30T13:23:37Z</time>
      </trkpt>
      <trkpt lat="44.58841" lon="0.83989">
        <ele>141</ele>
        <time>2012-01-30T13:23:38Z</time>
      </trkpt>
      <trkpt lat="44.58843" lon="0.83995">
        <ele>141</ele>
        <time>2012-01-30T13:23:39Z</time>
      </trkpt>
      <trkpt lat="44.58845" lon="0.84001">
        <ele>141</ele>
        <time>2012-01-30T13:23:40Z</time>
      </trkpt>
      <trkpt lat="44.58848" lon="0.84007">
        <ele>141</ele>
        <time>2012-01-30T13:23:41Z</time>
      </trkpt>
      <trkpt lat="44.58851" lon="0.84013">
        <ele>141</ele>
        <time>2012-01-30T13:23:42Z</time>
      </trkpt>
      <trkpt lat="44.58854" lon="0.84018">
        <ele>141</ele>
        <time>2012-01-30T13:23:43Z</time>
      </trkpt>
      <trkpt lat="44.58857" lon="0.84022">
        <ele>141</ele>
        <time>2012-01-30T13:23:44Z</time>
      </trkpt>
      <trkpt lat="44.58861" lon="0.84026">
        <ele>141</ele>
        <time>2012-01-30T13:23:45Z</time>
      </trkpt>
      <trkpt lat="44.58863" lon="0.84031">
        <ele>141</ele>
        <time>2012-01-30T13:23:46Z</time>
      </trkpt>
      <trkpt lat="44.58866" lon="0.84037">
        <ele>140</ele>
        <time>2012-01-30T13:23:47Z</time>
      </trkpt>
      <trkpt lat="44.58868" lon="0.84043">
        <ele>140</ele>
        <time>2012-01-30T13:23:48Z</time>
      </trkpt>
      <trkpt lat="44.58869" lon="0.84048">
        <ele>140</ele>
        <time>2012-01-30T13:23:49Z</time>
      </trkpt>
      <trkpt lat="44.5887" lon="0.84054">
        <ele>140</ele>
        <time>2012-01-30T13:23:50Z</time>
      </trkpt>
      <trkpt lat="44.58872" lon="0.8406">
        <ele>140</ele>
        <time>2012-01-30T13:23:51Z</time>
      </trkpt>
      <trkpt lat="44.58874" lon="0.84065">
        <ele>140</ele>
        <time>2012-01-30T13:23:52Z</time>
      </trkpt>
      <trkpt lat="44.58875" lon="0.8407">
        <ele>140</ele>
        <time>2012-01-30T13:23:53Z</time>
      </trkpt>
      <trkpt lat="44.58877" lon="0.84075">
        <ele>140</ele>
        <time>2012-01-30T13:23:54Z</time>
      </trkpt>
      <trkpt lat="44.58878" lon="0.84081">
        <ele>140</ele>
        <time>2012-01-30T13:23:55Z</time>
      </trkpt>
      <trkpt lat="44.5888" lon="0.84086">
        <ele>140</ele>
        <time>2012-01-30T13:23:56Z</time>
      </trkpt>
      <trkpt lat="44.58881" lon="0.8409">
        <ele>140</ele>
        <time>2012-01-30T13:23:57Z</time>
      </trkpt>
      <trkpt lat="44.58883" lon="0.84094">
        <ele>140</ele>
        <time>2012-01-30T13:23:58Z</time>
      </trkpt>
      <trkpt lat="44.58885" lon="0.84099">
        <ele>140</ele>
        <time>2012-01-30T13:23:59Z</time>
      </trkpt>
      <trkpt lat="44.58887" lon="0.84104">
        <ele>140</ele>
        <time>2012-01-30T13:24:00Z</time>
      </trkpt>
      <trkpt lat="44.58889" lon="0.84108">
        <ele>140</ele>
        <time>2012-01-30T13:24:01Z</time>
      </trkpt>
      <trkpt lat="44.58891" lon="0.84113">
        <ele>140</ele>
        <time>2012-01-30T13:24:02Z</time>
      </trkpt>
      <trkpt lat="44.58892" lon="0.84117">
        <ele>140</ele>
        <time>2012-01-30T13:24:03Z</time>
      </trkpt>
      <trkpt lat="44.58894" lon="0.84122">
        <ele>140</ele>
        <time>2012-01-30T13:24:04Z</time>
      </trkpt>
      <trkpt lat="44.58895" lon="0.84127">
        <ele>140</ele>
        <time>2012-01-30T13:24:05Z</time>
      </trkpt>
      <trkpt lat="44.58896" lon="0.8413">
        <ele>140</ele>
        <time>2012-01-30T13:24:06Z</time>
      </trkpt>
      <trkpt lat="44.58896" lon="0.84132">
        <ele>140</ele>
        <time>2012-01-30T13:24:07Z</time>
      </trkpt>
      <trkpt lat="44.58897" lon="0.84135">
        <ele>140</ele>
        <time>2012-01-30T13:24:08Z</time>
      </trkpt>
      <trkpt lat="44.58897" lon="0.84137">
        <ele>139</ele>
        <time>2012-01-30T13:24:09Z</time>
      </trkpt>
      <trkpt lat="44.58898" lon="0.84141">
        <ele>139</ele>
        <time>2012-01-30T13:24:10Z</time>
      </trkpt>
      <trkpt lat="44.58899" lon="0.84143">
        <ele>139</ele>
        <time>2012-01-30T13:24:10Z</time>
      </trkpt>
      <trkpt lat="44.58901" lon="0.84146">
        <ele>139</ele>
        <time>2012-01-30T13:24:12Z</time>
      </trkpt>
      <trkpt lat="44.58902" lon="0.84151">
        <ele>139</ele>
        <time>2012-01-30T13:24:13Z</time>
      </trkpt>
      <trkpt lat="44.58904" lon="0.84156">
        <ele>139</ele>
        <time>2012-01-30T13:24:14Z</time>
      </trkpt>
      <trkpt lat="44.58904" lon="0.84161">
        <ele>139</ele>
        <time>2012-01-30T13:24:15Z</time>
      </trkpt>
      <trkpt lat="44.58905" lon="0.84166">
        <ele>139</ele>
        <time>2012-01-30T13:24:16Z</time>
      </trkpt>
      <trkpt lat="44.58905" lon="0.84171">
        <ele>139</ele>
        <time>2012-01-30T13:24:17Z</time>
      </trkpt>
      <trkpt lat="44.58904" lon="0.84176">
        <ele>139</ele>
        <time>2012-01-30T13:24:18Z</time>
      </trkpt>
      <trkpt lat="44.58902" lon="0.8418">
        <ele>139</ele>
        <time>2012-01-30T13:24:19Z</time>
      </trkpt>
      <trkpt lat="44.58901" lon="0.84185">
        <ele>139</ele>
        <time>2012-01-30T13:24:20Z</time>
      </trkpt>
      <trkpt lat="44.589" lon="0.84189">
        <ele>139</ele>
        <time>2012-01-30T13:24:21Z</time>
      </trkpt>
      <trkpt lat="44.58899" lon="0.84193">
        <ele>139</ele>
        <time>2012-01-30T13:24:22Z</time>
      </trkpt>
      <trkpt lat="44.58898" lon="0.84197">
        <ele>139</ele>
        <time>2012-01-30T13:24:23Z</time>
      </trkpt>
      <trkpt lat="44.58896" lon="0.84202">
        <ele>139</ele>
        <time>2012-01-30T13:24:24Z</time>
      </trkpt>
      <trkpt lat="44.58893" lon="0.84207">
        <ele>139</ele>
        <time>2012-01-30T13:24:25Z</time>
      </trkpt>
      <trkpt lat="44.58891" lon="0.84214">
        <ele>139</ele>
        <time>2012-01-30T13:24:26Z</time>
      </trkpt>
      <trkpt lat="44.58888" lon="0.8422">
        <ele>139</ele>
        <time>2012-01-30T13:24:27Z</time>
      </trkpt>
      <trkpt lat="44.58886" lon="0.84227">
        <ele>138</ele>
        <time>2012-01-30T13:24:28Z</time>
      </trkpt>
      <trkpt lat="44.58883" lon="0.84233">
        <ele>138</ele>
        <time>2012-01-30T13:24:29Z</time>
      </trkpt>
      <trkpt lat="44.58881" lon="0.8424">
        <ele>137</ele>
        <time>2012-01-30T13:24:30Z</time>
      </trkpt>
      <trkpt lat="44.5888" lon="0.84246">
        <ele>137</ele>
        <time>2012-01-30T13:24:31Z</time>
      </trkpt>
      <trkpt lat="44.5888" lon="0.84253">
        <ele>136</ele>
        <time>2012-01-30T13:24:32Z</time>
      </trkpt>
      <trkpt lat="44.5888" lon="0.84259">
        <ele>136</ele>
        <time>2012-01-30T13:24:33Z</time>
      </trkpt>
      <trkpt lat="44.5888" lon="0.84266">
        <ele>135</ele>
        <time>2012-01-30T13:24:34Z</time>
      </trkpt>
      <trkpt lat="44.58879" lon="0.84272">
        <ele>135</ele>
        <time>2012-01-30T13:24:35Z</time>
      </trkpt>
      <trkpt lat="44.58878" lon="0.84279">
        <ele>135</ele>
        <time>2012-01-30T13:24:36Z</time>
      </trkpt>
      <trkpt lat="44.58878" lon="0.84286">
        <ele>135</ele>
        <time>2012-01-30T13:24:37Z</time>
      </trkpt>
      <trkpt lat="44.58878" lon="0.84293">
        <ele>135</ele>
        <time>2012-01-30T13:24:38Z</time>
      </trkpt>
      <trkpt lat="44.58878" lon="0.843">
        <ele>135</ele>
        <time>2012-01-30T13:24:39Z</time>
      </trkpt>
      <trkpt lat="44.58878" lon="0.84307">
        <ele>135</ele>
        <time>2012-01-30T13:24:40Z</time>
      </trkpt>
      <trkpt lat="44.58878" lon="0.84313">
        <ele>135</ele>
        <time>2012-01-30T13:24:41Z</time>
      </trkpt>
      <trkpt lat="44.58878" lon="0.8432">
        <ele>135</ele>
        <time>2012-01-30T13:24:42Z</time>
      </trkpt>
      <trkpt lat="44.58879" lon="0.84325">
        <ele>135</ele>
        <time>2012-01-30T13:24:43Z</time>
      </trkpt>
      <trkpt lat="44.58881" lon="0.84329">
        <ele>135</ele>
        <time>2012-01-30T13:24:44Z</time>
      </trkpt>
      <trkpt lat="44.58883" lon="0.84333">
        <ele>135</ele>
        <time>2012-01-30T13:24:45Z</time>
      </trkpt>
      <trkpt lat="44.58885" lon="0.84338">
        <ele>135</ele>
        <time>2012-01-30T13:24:46Z</time>
      </trkpt>
      <trkpt lat="44.58887" lon="0.84343">
        <ele>135</ele>
        <time>2012-01-30T13:24:47Z</time>
      </trkpt>
      <trkpt lat="44.58888" lon="0.84349">
        <ele>134</ele>
        <time>2012-01-30T13:24:48Z</time>
      </trkpt>
      <trkpt lat="44.58889" lon="0.84355">
        <ele>134</ele>
        <time>2012-01-30T13:24:49Z</time>
      </trkpt>
      <trkpt lat="44.58892" lon="0.84361">
        <ele>134</ele>
        <time>2012-01-30T13:24:50Z</time>
      </trkpt>
      <trkpt lat="44.58894" lon="0.84367">
        <ele>134</ele>
        <time>2012-01-30T13:24:51Z</time>
      </trkpt>
      <trkpt lat="44.58896" lon="0.84374">
        <ele>134</ele>
        <time>2012-01-30T13:24:52Z</time>
      </trkpt>
      <trkpt lat="44.58897" lon="0.8438">
        <ele>134</ele>
        <time>2012-01-30T13:24:53Z</time>
      </trkpt>
      <trkpt lat="44.58899" lon="0.84385">
        <ele>134</ele>
        <time>2012-01-30T13:24:54Z</time>
      </trkpt>
      <trkpt lat="44.58899" lon="0.84389">
        <ele>134</ele>
        <time>2012-01-30T13:24:55Z</time>
      </trkpt>
      <trkpt lat="44.58898" lon="0.84394">
        <ele>134</ele>
        <time>2012-01-30T13:24:56Z</time>
      </trkpt>
      <trkpt lat="44.58899" lon="0.84398">
        <ele>135</ele>
        <time>2012-01-30T13:24:57Z</time>
      </trkpt>
      <trkpt lat="44.589" lon="0.84403">
        <ele>136</ele>
        <time>2012-01-30T13:24:58Z</time>
      </trkpt>
      <trkpt lat="44.589" lon="0.84408">
        <ele>137</ele>
        <time>2012-01-30T13:24:59Z</time>
      </trkpt>
      <trkpt lat="44.58901" lon="0.84412">
        <ele>138</ele>
        <time>2012-01-30T13:25:00Z</time>
      </trkpt>
      <trkpt lat="44.58902" lon="0.84417">
        <ele>138</ele>
        <time>2012-01-30T13:25:01Z</time>
      </trkpt>
      <trkpt lat="44.58904" lon="0.84422">
        <ele>139</ele>
        <time>2012-01-30T13:25:02Z</time>
      </trkpt>
      <trkpt lat="44.58904" lon="0.84427">
        <ele>139</ele>
        <time>2012-01-30T13:25:03Z</time>
      </trkpt>
      <trkpt lat="44.58905" lon="0.84433">
        <ele>140</ele>
        <time>2012-01-30T13:25:04Z</time>
      </trkpt>
      <trkpt lat="44.58906" lon="0.84439">
        <ele>140</ele>
        <time>2012-01-30T13:25:05Z</time>
      </trkpt>
      <trkpt lat="44.58907" lon="0.84444">
        <ele>140</ele>
        <time>2012-01-30T13:25:06Z</time>
      </trkpt>
      <trkpt lat="44.58908" lon="0.84449">
        <ele>140</ele>
        <time>2012-01-30T13:25:07Z</time>
      </trkpt>
      <trkpt lat="44.58909" lon="0.84454">
        <ele>141</ele>
        <time>2012-01-30T13:25:08Z</time>
      </trkpt>
      <trkpt lat="44.5891" lon="0.84459">
        <ele>141</ele>
        <time>2012-01-30T13:25:09Z</time>
      </trkpt>
      <trkpt lat="44.5891" lon="0.84465">
        <ele>141</ele>
        <time>2012-01-30T13:25:10Z</time>
      </trkpt>
      <trkpt lat="44.58911" lon="0.8447">
        <ele>141</ele>
        <time>2012-01-30T13:25:11Z</time>
      </trkpt>
      <trkpt lat="44.58912" lon="0.84476">
        <ele>141</ele>
        <time>2012-01-30T13:25:12Z</time>
      </trkpt>
      <trkpt lat="44.58913" lon="0.84481">
        <ele>141</ele>
        <time>2012-01-30T13:25:13Z</time>
      </trkpt>
      <trkpt lat="44.58914" lon="0.84487">
        <ele>142</ele>
        <time>2012-01-30T13:25:14Z</time>
      </trkpt>
      <trkpt lat="44.58916" lon="0.84492">
        <ele>142</ele>
        <time>2012-01-30T13:25:15Z</time>
      </trkpt>
      <trkpt lat="44.58917" lon="0.84497">
        <ele>143</ele>
        <time>2012-01-30T13:25:16Z</time>
      </trkpt>
      <trkpt lat="44.58918" lon="0.84502">
        <ele>144</ele>
        <time>2012-01-30T13:25:17Z</time>
      </trkpt>
      <trkpt lat="44.5892" lon="0.84507">
        <ele>144</ele>
        <time>2012-01-30T13:25:18Z</time>
      </trkpt>
      <trkpt lat="44.5892" lon="0.84512">
        <ele>145</ele>
        <time>2012-01-30T13:25:19Z</time>
      </trkpt>
      <trkpt lat="44.5892" lon="0.84517">
        <ele>145</ele>
        <time>2012-01-30T13:25:20Z</time>
      </trkpt>
      <trkpt lat="44.5892" lon="0.84523">
        <ele>145</ele>
        <time>2012-01-30T13:25:21Z</time>
      </trkpt>
      <trkpt lat="44.5892" lon="0.8453">
        <ele>145</ele>
        <time>2012-01-30T13:25:22Z</time>
      </trkpt>
      <trkpt lat="44.5892" lon="0.84536">
        <ele>145</ele>
        <time>2012-01-30T13:25:23Z</time>
      </trkpt>
      <trkpt lat="44.5892" lon="0.84544">
        <ele>145</ele>
        <time>2012-01-30T13:25:24Z</time>
      </trkpt>
      <trkpt lat="44.58919" lon="0.84552">
        <ele>145</ele>
        <time>2012-01-30T13:25:25Z</time>
      </trkpt>
      <trkpt lat="44.58918" lon="0.8456">
        <ele>145</ele>
        <time>2012-01-30T13:25:26Z</time>
      </trkpt>
      <trkpt lat="44.58916" lon="0.84567">
        <ele>146</ele>
        <time>2012-01-30T13:25:27Z</time>
      </trkpt>
      <trkpt lat="44.58915" lon="0.84575">
        <ele>146</ele>
        <time>2012-01-30T13:25:28Z</time>
      </trkpt>
      <trkpt lat="44.58915" lon="0.84582">
        <ele>147</ele>
        <time>2012-01-30T13:25:29Z</time>
      </trkpt>
      <trkpt lat="44.58914" lon="0.84589">
        <ele>147</ele>
        <time>2012-01-30T13:25:30Z</time>
      </trkpt>
      <trkpt lat="44.58913" lon="0.84596">
        <ele>148</ele>
        <time>2012-01-30T13:25:31Z</time>
      </trkpt>
      <trkpt lat="44.58913" lon="0.84603">
        <ele>148</ele>
        <time>2012-01-30T13:25:32Z</time>
      </trkpt>
      <trkpt lat="44.58911" lon="0.8461">
        <ele>149</ele>
        <time>2012-01-30T13:25:33Z</time>
      </trkpt>
      <trkpt lat="44.5891" lon="0.84617">
        <ele>149</ele>
        <time>2012-01-30T13:25:34Z</time>
      </trkpt>
      <trkpt lat="44.5891" lon="0.84622">
        <ele>149</ele>
        <time>2012-01-30T13:25:35Z</time>
      </trkpt>
      <trkpt lat="44.5891" lon="0.84627">
        <ele>150</ele>
        <time>2012-01-30T13:25:36Z</time>
      </trkpt>
      <trkpt lat="44.58909" lon="0.84634">
        <ele>150</ele>
        <time>2012-01-30T13:25:37Z</time>
      </trkpt>
      <trkpt lat="44.58908" lon="0.84641">
        <ele>150</ele>
        <time>2012-01-30T13:25:38Z</time>
      </trkpt>
      <trkpt lat="44.58908" lon="0.84649">
        <ele>150</ele>
        <time>2012-01-30T13:25:39Z</time>
      </trkpt>
      <trkpt lat="44.58907" lon="0.84656">
        <ele>150</ele>
        <time>2012-01-30T13:25:40Z</time>
      </trkpt>
      <trkpt lat="44.58906" lon="0.84663">
        <ele>151</ele>
        <time>2012-01-30T13:25:41Z</time>
      </trkpt>
      <trkpt lat="44.58905" lon="0.8467">
        <ele>151</ele>
        <time>2012-01-30T13:25:42Z</time>
      </trkpt>
      <trkpt lat="44.58903" lon="0.84676">
        <ele>151</ele>
        <time>2012-01-30T13:25:43Z</time>
      </trkpt>
      <trkpt lat="44.589" lon="0.84682">
        <ele>151</ele>
        <time>2012-01-30T13:25:44Z</time>
      </trkpt>
      <trkpt lat="44.58897" lon="0.84687">
        <ele>152</ele>
        <time>2012-01-30T13:25:45Z</time>
      </trkpt>
      <trkpt lat="44.58894" lon="0.84691">
        <ele>152</ele>
        <time>2012-01-30T13:25:46Z</time>
      </trkpt>
      <trkpt lat="44.58891" lon="0.84695">
        <ele>153</ele>
        <time>2012-01-30T13:25:47Z</time>
      </trkpt>
      <trkpt lat="44.58887" lon="0.847">
        <ele>154</ele>
        <time>2012-01-30T13:25:48Z</time>
      </trkpt>
      <trkpt lat="44.58884" lon="0.84705">
        <ele>154</ele>
        <time>2012-01-30T13:25:49Z</time>
      </trkpt>
      <trkpt lat="44.58881" lon="0.84709">
        <ele>155</ele>
        <time>2012-01-30T13:25:50Z</time>
      </trkpt>
      <trkpt lat="44.58878" lon="0.84712">
        <ele>156</ele>
        <time>2012-01-30T13:25:51Z</time>
      </trkpt>
      <trkpt lat="44.58874" lon="0.84717">
        <ele>156</ele>
        <time>2012-01-30T13:25:52Z</time>
      </trkpt>
      <trkpt lat="44.58871" lon="0.84721">
        <ele>157</ele>
        <time>2012-01-30T13:25:53Z</time>
      </trkpt>
      <trkpt lat="44.58869" lon="0.84725">
        <ele>158</ele>
        <time>2012-01-30T13:25:54Z</time>
      </trkpt>
      <trkpt lat="44.58868" lon="0.8473">
        <ele>158</ele>
        <time>2012-01-30T13:25:55Z</time>
      </trkpt>
      <trkpt lat="44.58865" lon="0.84735">
        <ele>158</ele>
        <time>2012-01-30T13:25:56Z</time>
      </trkpt>
      <trkpt lat="44.58863" lon="0.84741">
        <ele>158</ele>
        <time>2012-01-30T13:25:57Z</time>
      </trkpt>
      <trkpt lat="44.58861" lon="0.84746">
        <ele>158</ele>
        <time>2012-01-30T13:25:58Z</time>
      </trkpt>
      <trkpt lat="44.58859" lon="0.84752">
        <ele>158</ele>
        <time>2012-01-30T13:25:59Z</time>
      </trkpt>
      <trkpt lat="44.58857" lon="0.84756">
        <ele>158</ele>
        <time>2012-01-30T13:26:00Z</time>
      </trkpt>
      <trkpt lat="44.58854" lon="0.84762">
        <ele>158</ele>
        <time>2012-01-30T13:26:01Z</time>
      </trkpt>
      <trkpt lat="44.58852" lon="0.84768">
        <ele>158</ele>
        <time>2012-01-30T13:26:02Z</time>
      </trkpt>
      <trkpt lat="44.58849" lon="0.84774">
        <ele>158</ele>
        <time>2012-01-30T13:26:03Z</time>
      </trkpt>
      <trkpt lat="44.58847" lon="0.84781">
        <ele>158</ele>
        <time>2012-01-30T13:26:04Z</time>
      </trkpt>
      <trkpt lat="44.58845" lon="0.84786">
        <ele>158</ele>
        <time>2012-01-30T13:26:05Z</time>
      </trkpt>
      <trkpt lat="44.58844" lon="0.84791">
        <ele>158</ele>
        <time>2012-01-30T13:26:06Z</time>
      </trkpt>
      <trkpt lat="44.58842" lon="0.84797">
        <ele>158</ele>
        <time>2012-01-30T13:26:07Z</time>
      </trkpt>
      <trkpt lat="44.58841" lon="0.84802">
        <ele>158</ele>
        <time>2012-01-30T13:26:08Z</time>
      </trkpt>
      <trkpt lat="44.58839" lon="0.84808">
        <ele>158</ele>
        <time>2012-01-30T13:26:09Z</time>
      </trkpt>
      <trkpt lat="44.58838" lon="0.84815">
        <ele>158</ele>
        <time>2012-01-30T13:26:10Z</time>
      </trkpt>
      <trkpt lat="44.58836" lon="0.8482">
        <ele>158</ele>
        <time>2012-01-30T13:26:11Z</time>
      </trkpt>
      <trkpt lat="44.58835" lon="0.84824">
        <ele>158</ele>
        <time>2012-01-30T13:26:12Z</time>
      </trkpt>
      <trkpt lat="44.58834" lon="0.84828">
        <ele>158</ele>
        <time>2012-01-30T13:26:13Z</time>
      </trkpt>
      <trkpt lat="44.58832" lon="0.84833">
        <ele>158</ele>
        <time>2012-01-30T13:26:14Z</time>
      </trkpt>
      <trkpt lat="44.5883" lon="0.84837">
        <ele>158</ele>
        <time>2012-01-30T13:26:15Z</time>
      </trkpt>
      <trkpt lat="44.58828" lon="0.84841">
        <ele>158</ele>
        <time>2012-01-30T13:26:16Z</time>
      </trkpt>
      <trkpt lat="44.58825" lon="0.84846">
        <ele>158</ele>
        <time>2012-01-30T13:26:17Z</time>
      </trkpt>
      <trkpt lat="44.58823" lon="0.8485">
        <ele>158</ele>
        <time>2012-01-30T13:26:18Z</time>
      </trkpt>
      <trkpt lat="44.5882" lon="0.84855">
        <ele>158</ele>
        <time>2012-01-30T13:26:19Z</time>
      </trkpt>
      <trkpt lat="44.58818" lon="0.8486">
        <ele>158</ele>
        <time>2012-01-30T13:26:20Z</time>
      </trkpt>
      <trkpt lat="44.58817" lon="0.84864">
        <ele>158</ele>
        <time>2012-01-30T13:26:21Z</time>
      </trkpt>
      <trkpt lat="44.58815" lon="0.84868">
        <ele>158</ele>
        <time>2012-01-30T13:26:22Z</time>
      </trkpt>
      <trkpt lat="44.58814" lon="0.84872">
        <ele>158</ele>
        <time>2012-01-30T13:26:23Z</time>
      </trkpt>
      <trkpt lat="44.58814" lon="0.84876">
        <ele>158</ele>
        <time>2012-01-30T13:26:24Z</time>
      </trkpt>
      <trkpt lat="44.58813" lon="0.8488">
        <ele>158</ele>
        <time>2012-01-30T13:26:25Z</time>
      </trkpt>
      <trkpt lat="44.58812" lon="0.84884">
        <ele>158</ele>
        <time>2012-01-30T13:26:26Z</time>
      </trkpt>
      <trkpt lat="44.5881" lon="0.84887">
        <ele>159</ele>
        <time>2012-01-30T13:26:27Z</time>
      </trkpt>
      <trkpt lat="44.58809" lon="0.84891">
        <ele>160</ele>
        <time>2012-01-30T13:26:28Z</time>
      </trkpt>
      <trkpt lat="44.58807" lon="0.84895">
        <ele>160</ele>
        <time>2012-01-30T13:26:29Z</time>
      </trkpt>
      <trkpt lat="44.58804" lon="0.84899">
        <ele>160</ele>
        <time>2012-01-30T13:26:30Z</time>
      </trkpt>
      <trkpt lat="44.58801" lon="0.84901">
        <ele>161</ele>
        <time>2012-01-30T13:26:31Z</time>
      </trkpt>
      <trkpt lat="44.58798" lon="0.84904">
        <ele>161</ele>
        <time>2012-01-30T13:26:32Z</time>
      </trkpt>
      <trkpt lat="44.58796" lon="0.84905">
        <ele>161</ele>
        <time>2012-01-30T13:26:33Z</time>
      </trkpt>
      <trkpt lat="44.58794" lon="0.84907">
        <ele>161</ele>
        <time>2012-01-30T13:26:34Z</time>
      </trkpt>
      <trkpt lat="44.58793" lon="0.84909">
        <ele>161</ele>
        <time>2012-01-30T13:26:35Z</time>
      </trkpt>
      <trkpt lat="44.58791" lon="0.84913">
        <ele>161</ele>
        <time>2012-01-30T13:26:36Z</time>
      </trkpt>
      <trkpt lat="44.58789" lon="0.84916">
        <ele>161</ele>
        <time>2012-01-30T13:26:37Z</time>
      </trkpt>
      <trkpt lat="44.58787" lon="0.84919">
        <ele>161</ele>
        <time>2012-01-30T13:26:38Z</time>
      </trkpt>
      <trkpt lat="44.58786" lon="0.84923">
        <ele>161</ele>
        <time>2012-01-30T13:26:39Z</time>
      </trkpt>
      <trkpt lat="44.58784" lon="0.84927">
        <ele>161</ele>
        <time>2012-01-30T13:26:40Z</time>
      </trkpt>
      <trkpt lat="44.58783" lon="0.84931">
        <ele>161</ele>
        <time>2012-01-30T13:26:41Z</time>
      </trkpt>
      <trkpt lat="44.58781" lon="0.84934">
        <ele>161</ele>
        <time>2012-01-30T13:26:42Z</time>
      </trkpt>
      <trkpt lat="44.5878" lon="0.84937">
        <ele>161</ele>
        <time>2012-01-30T13:26:43Z</time>
      </trkpt>
      <trkpt lat="44.58779" lon="0.84941">
        <ele>161</ele>
        <time>2012-01-30T13:26:44Z</time>
      </trkpt>
      <trkpt lat="44.58776" lon="0.84945">
        <ele>161</ele>
        <time>2012-01-30T13:26:45Z</time>
      </trkpt>
      <trkpt lat="44.58774" lon="0.84949">
        <ele>161</ele>
        <time>2012-01-30T13:26:46Z</time>
      </trkpt>
      <trkpt lat="44.58772" lon="0.84953">
        <ele>161</ele>
        <time>2012-01-30T13:26:47Z</time>
      </trkpt>
      <trkpt lat="44.5877" lon="0.84957">
        <ele>161</ele>
        <time>2012-01-30T13:26:48Z</time>
      </trkpt>
      <trkpt lat="44.58769" lon="0.84961">
        <ele>161</ele>
        <time>2012-01-30T13:26:49Z</time>
      </trkpt>
      <trkpt lat="44.58767" lon="0.84965">
        <ele>161</ele>
        <time>2012-01-30T13:26:50Z</time>
      </trkpt>
      <trkpt lat="44.58767" lon="0.84969">
        <ele>161</ele>
        <time>2012-01-30T13:26:51Z</time>
      </trkpt>
      <trkpt lat="44.58766" lon="0.84973">
        <ele>161</ele>
        <time>2012-01-30T13:26:52Z</time>
      </trkpt>
      <trkpt lat="44.58765" lon="0.84977">
        <ele>161</ele>
        <time>2012-01-30T13:26:53Z</time>
      </trkpt>
      <trkpt lat="44.58765" lon="0.84982">
        <ele>161</ele>
        <time>2012-01-30T13:26:54Z</time>
      </trkpt>
      <trkpt lat="44.58764" lon="0.84986">
        <ele>161</ele>
        <time>2012-01-30T13:26:55Z</time>
      </trkpt>
      <trkpt lat="44.58763" lon="0.84991">
        <ele>161</ele>
        <time>2012-01-30T13:26:56Z</time>
      </trkpt>
      <trkpt lat="44.58761" lon="0.84996">
        <ele>161</ele>
        <time>2012-01-30T13:26:57Z</time>
      </trkpt>
      <trkpt lat="44.58759" lon="0.85">
        <ele>161</ele>
        <time>2012-01-30T13:26:58Z</time>
      </trkpt>
      <trkpt lat="44.58757" lon="0.85004">
        <ele>161</ele>
        <time>2012-01-30T13:26:59Z</time>
      </trkpt>
      <trkpt lat="44.58756" lon="0.85009">
        <ele>161</ele>
        <time>2012-01-30T13:27:00Z</time>
      </trkpt>
      <trkpt lat="44.58756" lon="0.85013">
        <ele>161</ele>
        <time>2012-01-30T13:27:01Z</time>
      </trkpt>
      <trkpt lat="44.58757" lon="0.85018">
        <ele>161</ele>
        <time>2012-01-30T13:27:02Z</time>
      </trkpt>
      <trkpt lat="44.58759" lon="0.85022">
        <ele>161</ele>
        <time>2012-01-30T13:27:03Z</time>
      </trkpt>
      <trkpt lat="44.5876" lon="0.85025">
        <ele>161</ele>
        <time>2012-01-30T13:27:04Z</time>
      </trkpt>
      <trkpt lat="44.58762" lon="0.85029">
        <ele>161</ele>
        <time>2012-01-30T13:27:05Z</time>
      </trkpt>
      <trkpt lat="44.58764" lon="0.85032">
        <ele>161</ele>
        <time>2012-01-30T13:27:06Z</time>
      </trkpt>
      <trkpt lat="44.58766" lon="0.85035">
        <ele>161</ele>
        <time>2012-01-30T13:27:07Z</time>
      </trkpt>
      <trkpt lat="44.58769" lon="0.85038">
        <ele>161</ele>
        <time>2012-01-30T13:27:08Z</time>
      </trkpt>
      <trkpt lat="44.58771" lon="0.85042">
        <ele>161</ele>
        <time>2012-01-30T13:27:09Z</time>
      </trkpt>
      <trkpt lat="44.58773" lon="0.85045">
        <ele>161</ele>
        <time>2012-01-30T13:27:10Z</time>
      </trkpt>
      <trkpt lat="44.58774" lon="0.85049">
        <ele>161</ele>
        <time>2012-01-30T13:27:11Z</time>
      </trkpt>
      <trkpt lat="44.58776" lon="0.85052">
        <ele>161</ele>
        <time>2012-01-30T13:27:12Z</time>
      </trkpt>
      <trkpt lat="44.58777" lon="0.85056">
        <ele>161</ele>
        <time>2012-01-30T13:27:13Z</time>
      </trkpt>
      <trkpt lat="44.58779" lon="0.85059">
        <ele>161</ele>
        <time>2012-01-30T13:27:14Z</time>
      </trkpt>
      <trkpt lat="44.58781" lon="0.85062">
        <ele>161</ele>
        <time>2012-01-30T13:27:15Z</time>
      </trkpt>
      <trkpt lat="44.58783" lon="0.85065">
        <ele>161</ele>
        <time>2012-01-30T13:27:16Z</time>
      </trkpt>
      <trkpt lat="44.58786" lon="0.85067">
        <ele>161</ele>
        <time>2012-01-30T13:27:17Z</time>
      </trkpt>
      <trkpt lat="44.58789" lon="0.8507">
        <ele>161</ele>
        <time>2012-01-30T13:27:18Z</time>
      </trkpt>
      <trkpt lat="44.58792" lon="0.85073">
        <ele>161</ele>
        <time>2012-01-30T13:27:19Z</time>
      </trkpt>
      <trkpt lat="44.58794" lon="0.85075">
        <ele>161</ele>
        <time>2012-01-30T13:27:20Z</time>
      </trkpt>
      <trkpt lat="44.58797" lon="0.85078">
        <ele>161</ele>
        <time>2012-01-30T13:27:21Z</time>
      </trkpt>
      <trkpt lat="44.588" lon="0.8508">
        <ele>161</ele>
        <time>2012-01-30T13:27:22Z</time>
      </trkpt>
      <trkpt lat="44.58802" lon="0.85083">
        <ele>161</ele>
        <time>2012-01-30T13:27:23Z</time>
      </trkpt>
      <trkpt lat="44.58805" lon="0.85084">
        <ele>161</ele>
        <time>2012-01-30T13:27:24Z</time>
      </trkpt>
      <trkpt lat="44.58808" lon="0.85086">
        <ele>161</ele>
        <time>2012-01-30T13:27:25Z</time>
      </trkpt>
      <trkpt lat="44.58811" lon="0.85087">
        <ele>161</ele>
        <time>2012-01-30T13:27:26Z</time>
      </trkpt>
      <trkpt lat="44.58814" lon="0.85089">
        <ele>161</ele>
        <time>2012-01-30T13:27:27Z</time>
      </trkpt>
      <trkpt lat="44.58817" lon="0.85091">
        <ele>161</ele>
        <time>2012-01-30T13:27:28Z</time>
      </trkpt>
      <trkpt lat="44.5882" lon="0.85093">
        <ele>161</ele>
        <time>2012-01-30T13:27:29Z</time>
      </trkpt>
      <trkpt lat="44.58823" lon="0.85095">
        <ele>161</ele>
        <time>2012-01-30T13:27:30Z</time>
      </trkpt>
      <trkpt lat="44.58826" lon="0.85097">
        <ele>161</ele>
        <time>2012-01-30T13:27:31Z</time>
      </trkpt>
      <trkpt lat="44.58828" lon="0.851">
        <ele>161</ele>
        <time>2012-01-30T13:27:32Z</time>
      </trkpt>
      <trkpt lat="44.58831" lon="0.85104">
        <ele>161</ele>
        <time>2012-01-30T13:27:33Z</time>
      </trkpt>
      <trkpt lat="44.58833" lon="0.85108">
        <ele>161</ele>
        <time>2012-01-30T13:27:34Z</time>
      </trkpt>
      <trkpt lat="44.58836" lon="0.85112">
        <ele>161</ele>
        <time>2012-01-30T13:27:35Z</time>
      </trkpt>
      <trkpt lat="44.58838" lon="0.85116">
        <ele>161</ele>
        <time>2012-01-30T13:27:36Z</time>
      </trkpt>
      <trkpt lat="44.5884" lon="0.85121">
        <ele>161</ele>
        <time>2012-01-30T13:27:37Z</time>
      </trkpt>
      <trkpt lat="44.58842" lon="0.85125">
        <ele>161</ele>
        <time>2012-01-30T13:27:38Z</time>
      </trkpt>
      <trkpt lat="44.58844" lon="0.8513">
        <ele>161</ele>
        <time>2012-01-30T13:27:39Z</time>
      </trkpt>
      <trkpt lat="44.58846" lon="0.85134">
        <ele>161</ele>
        <time>2012-01-30T13:27:40Z</time>
      </trkpt>
      <trkpt lat="44.58848" lon="0.85138">
        <ele>161</ele>
        <time>2012-01-30T13:27:41Z</time>
      </trkpt>
      <trkpt lat="44.5885" lon="0.85142">
        <ele>162</ele>
        <time>2012-01-30T13:27:42Z</time>
      </trkpt>
      <trkpt lat="44.58852" lon="0.85146">
        <ele>162</ele>
        <time>2012-01-30T13:27:43Z</time>
      </trkpt>
      <trkpt lat="44.58854" lon="0.8515">
        <ele>162</ele>
        <time>2012-01-30T13:27:44Z</time>
      </trkpt>
      <trkpt lat="44.58855" lon="0.85154">
        <ele>162</ele>
        <time>2012-01-30T13:27:45Z</time>
      </trkpt>
      <trkpt lat="44.58857" lon="0.85158">
        <ele>162</ele>
        <time>2012-01-30T13:27:46Z</time>
      </trkpt>
      <trkpt lat="44.58859" lon="0.85161">
        <ele>162</ele>
        <time>2012-01-30T13:27:47Z</time>
      </trkpt>
      <trkpt lat="44.58862" lon="0.85166">
        <ele>163</ele>
        <time>2012-01-30T13:27:48Z</time>
      </trkpt>
      <trkpt lat="44.58865" lon="0.85169">
        <ele>163</ele>
        <time>2012-01-30T13:27:49Z</time>
      </trkpt>
      <trkpt lat="44.58867" lon="0.85172">
        <ele>164</ele>
        <time>2012-01-30T13:27:50Z</time>
      </trkpt>
      <trkpt lat="44.5887" lon="0.85172">
        <ele>164</ele>
        <time>2012-01-30T13:27:51Z</time>
      </trkpt>
      <trkpt lat="44.58872" lon="0.85172">
        <ele>164</ele>
        <time>2012-01-30T13:27:52Z</time>
      </trkpt>
      <trkpt lat="44.58876" lon="0.85171">
        <ele>165</ele>
        <time>2012-01-30T13:27:53Z</time>
      </trkpt>
      <trkpt lat="44.58878" lon="0.85171">
        <ele>165</ele>
        <time>2012-01-30T13:27:54Z</time>
      </trkpt>
      <trkpt lat="44.58881" lon="0.85171">
        <ele>165</ele>
        <time>2012-01-30T13:27:55Z</time>
      </trkpt>
      <trkpt lat="44.58884" lon="0.85172">
        <ele>165</ele>
        <time>2012-01-30T13:27:56Z</time>
      </trkpt>
      <trkpt lat="44.58888" lon="0.85172">
        <ele>165</ele>
        <time>2012-01-30T13:27:57Z</time>
      </trkpt>
      <trkpt lat="44.58891" lon="0.85174">
        <ele>165</ele>
        <time>2012-01-30T13:27:58Z</time>
      </trkpt>
      <trkpt lat="44.58895" lon="0.85178">
        <ele>165</ele>
        <time>2012-01-30T13:27:59Z</time>
      </trkpt>
      <trkpt lat="44.58899" lon="0.85183">
        <ele>165</ele>
        <time>2012-01-30T13:28:00Z</time>
      </trkpt>
      <trkpt lat="44.58902" lon="0.85188">
        <ele>165</ele>
        <time>2012-01-30T13:28:01Z</time>
      </trkpt>
      <trkpt lat="44.58906" lon="0.85194">
        <ele>165</ele>
        <time>2012-01-30T13:28:02Z</time>
      </trkpt>
      <trkpt lat="44.5891" lon="0.85198">
        <ele>165</ele>
        <time>2012-01-30T13:28:03Z</time>
      </trkpt>
      <trkpt lat="44.58913" lon="0.85203">
        <ele>165</ele>
        <time>2012-01-30T13:28:04Z</time>
      </trkpt>
      <trkpt lat="44.58916" lon="0.85207">
        <ele>164</ele>
        <time>2012-01-30T13:28:05Z</time>
      </trkpt>
      <trkpt lat="44.5892" lon="0.85208">
        <ele>163</ele>
        <time>2012-01-30T13:28:06Z</time>
      </trkpt>
      <trkpt lat="44.58924" lon="0.85209">
        <ele>163</ele>
        <time>2012-01-30T13:28:07Z</time>
      </trkpt>
      <trkpt lat="44.58928" lon="0.8521">
        <ele>162</ele>
        <time>2012-01-30T13:28:08Z</time>
      </trkpt>
      <trkpt lat="44.58933" lon="0.85211">
        <ele>162</ele>
        <time>2012-01-30T13:28:09Z</time>
      </trkpt>
      <trkpt lat="44.58938" lon="0.85213">
        <ele>162</ele>
        <time>2012-01-30T13:28:10Z</time>
      </trkpt>
      <trkpt lat="44.58945" lon="0.85213">
        <ele>161</ele>
        <time>2012-01-30T13:28:11Z</time>
      </trkpt>
      <trkpt lat="44.58951" lon="0.85212">
        <ele>161</ele>
        <time>2012-01-30T13:28:12Z</time>
      </trkpt>
      <trkpt lat="44.58958" lon="0.85211">
        <ele>160</ele>
        <time>2012-01-30T13:28:13Z</time>
      </trkpt>
      <trkpt lat="44.58965" lon="0.85208">
        <ele>159</ele>
        <time>2012-01-30T13:28:14Z</time>
      </trkpt>
      <trkpt lat="44.58971" lon="0.85206">
        <ele>159</ele>
        <time>2012-01-30T13:28:15Z</time>
      </trkpt>
      <trkpt lat="44.58976" lon="0.85204">
        <ele>158</ele>
        <time>2012-01-30T13:28:16Z</time>
      </trkpt>
      <trkpt lat="44.5898" lon="0.85204">
        <ele>157</ele>
        <time>2012-01-30T13:28:17Z</time>
      </trkpt>
      <trkpt lat="44.58985" lon="0.85204">
        <ele>156</ele>
        <time>2012-01-30T13:28:18Z</time>
      </trkpt>
      <trkpt lat="44.58989" lon="0.85204">
        <ele>156</ele>
        <time>2012-01-30T13:28:19Z</time>
      </trkpt>
      <trkpt lat="44.58994" lon="0.85201">
        <ele>156</ele>
        <time>2012-01-30T13:28:20Z</time>
      </trkpt>
      <trkpt lat="44.59" lon="0.85197">
        <ele>156</ele>
        <time>2012-01-30T13:28:21Z</time>
      </trkpt>
      <trkpt lat="44.59006" lon="0.85194">
        <ele>156</ele>
        <time>2012-01-30T13:28:22Z</time>
      </trkpt>
      <trkpt lat="44.59011" lon="0.85189">
        <ele>156</ele>
        <time>2012-01-30T13:28:23Z</time>
      </trkpt>
      <trkpt lat="44.59017" lon="0.85185">
        <ele>156</ele>
        <time>2012-01-30T13:28:24Z</time>
      </trkpt>
      <trkpt lat="44.59022" lon="0.85182">
        <ele>156</ele>
        <time>2012-01-30T13:28:25Z</time>
      </trkpt>
      <trkpt lat="44.59028" lon="0.85179">
        <ele>156</ele>
        <time>2012-01-30T13:28:26Z</time>
      </trkpt>
      <trkpt lat="44.59033" lon="0.85176">
        <ele>155</ele>
        <time>2012-01-30T13:28:27Z</time>
      </trkpt>
      <trkpt lat="44.59038" lon="0.85175">
        <ele>155</ele>
        <time>2012-01-30T13:28:28Z</time>
      </trkpt>
      <trkpt lat="44.59042" lon="0.85172">
        <ele>155</ele>
        <time>2012-01-30T13:28:29Z</time>
      </trkpt>
      <trkpt lat="44.59047" lon="0.85171">
        <ele>154</ele>
        <time>2012-01-30T13:28:30Z</time>
      </trkpt>
      <trkpt lat="44.59052" lon="0.85169">
        <ele>154</ele>
        <time>2012-01-30T13:28:31Z</time>
      </trkpt>
      <trkpt lat="44.59057" lon="0.85167">
        <ele>154</ele>
        <time>2012-01-30T13:28:32Z</time>
      </trkpt>
      <trkpt lat="44.59061" lon="0.85165">
        <ele>154</ele>
        <time>2012-01-30T13:28:33Z</time>
      </trkpt>
      <trkpt lat="44.59066" lon="0.85163">
        <ele>153</ele>
        <time>2012-01-30T13:28:34Z</time>
      </trkpt>
      <trkpt lat="44.59071" lon="0.85162">
        <ele>153</ele>
        <time>2012-01-30T13:28:35Z</time>
      </trkpt>
      <trkpt lat="44.59077" lon="0.85161">
        <ele>153</ele>
        <time>2012-01-30T13:28:36Z</time>
      </trkpt>
      <trkpt lat="44.59081" lon="0.8516">
        <ele>153</ele>
        <time>2012-01-30T13:28:37Z</time>
      </trkpt>
      <trkpt lat="44.59086" lon="0.85159">
        <ele>153</ele>
        <time>2012-01-30T13:28:38Z</time>
      </trkpt>
      <trkpt lat="44.59091" lon="0.85158">
        <ele>153</ele>
        <time>2012-01-30T13:28:39Z</time>
      </trkpt>
      <trkpt lat="44.59097" lon="0.85157">
        <ele>153</ele>
        <time>2012-01-30T13:28:40Z</time>
      </trkpt>
      <trkpt lat="44.59102" lon="0.85155">
        <ele>153</ele>
        <time>2012-01-30T13:28:41Z</time>
      </trkpt>
      <trkpt lat="44.59108" lon="0.85154">
        <ele>153</ele>
        <time>2012-01-30T13:28:42Z</time>
      </trkpt>
      <trkpt lat="44.59113" lon="0.85153">
        <ele>153</ele>
        <time>2012-01-30T13:28:43Z</time>
      </trkpt>
      <trkpt lat="44.59118" lon="0.85152">
        <ele>153</ele>
        <time>2012-01-30T13:28:44Z</time>
      </trkpt>
      <trkpt lat="44.59123" lon="0.8515">
        <ele>153</ele>
        <time>2012-01-30T13:28:45Z</time>
      </trkpt>
      <trkpt lat="44.59129" lon="0.85148">
        <ele>153</ele>
        <time>2012-01-30T13:28:46Z</time>
      </trkpt>
      <trkpt lat="44.59134" lon="0.85145">
        <ele>153</ele>
        <time>2012-01-30T13:28:47Z</time>
      </trkpt>
      <trkpt lat="44.59139" lon="0.85141">
        <ele>153</ele>
        <time>2012-01-30T13:28:48Z</time>
      </trkpt>
      <trkpt lat="44.59145" lon="0.85138">
        <ele>153</ele>
        <time>2012-01-30T13:28:49Z</time>
      </trkpt>
      <trkpt lat="44.5915" lon="0.85134">
        <ele>153</ele>
        <time>2012-01-30T13:28:50Z</time>
      </trkpt>
      <trkpt lat="44.59155" lon="0.8513">
        <ele>153</ele>
        <time>2012-01-30T13:28:51Z</time>
      </trkpt>
      <trkpt lat="44.5916" lon="0.85126">
        <ele>153</ele>
        <time>2012-01-30T13:28:52Z</time>
      </trkpt>
      <trkpt lat="44.59166" lon="0.85122">
        <ele>153</ele>
        <time>2012-01-30T13:28:53Z</time>
      </trkpt>
      <trkpt lat="44.59171" lon="0.85118">
        <ele>153</ele>
        <time>2012-01-30T13:28:54Z</time>
      </trkpt>
      <trkpt lat="44.59176" lon="0.85114">
        <ele>153</ele>
        <time>2012-01-30T13:28:55Z</time>
      </trkpt>
      <trkpt lat="44.59181" lon="0.8511">
        <ele>153</ele>
        <time>2012-01-30T13:28:56Z</time>
      </trkpt>
      <trkpt lat="44.59187" lon="0.85106">
        <ele>153</ele>
        <time>2012-01-30T13:28:57Z</time>
      </trkpt>
      <trkpt lat="44.59193" lon="0.85101">
        <ele>153</ele>
        <time>2012-01-30T13:28:58Z</time>
      </trkpt>
      <trkpt lat="44.59198" lon="0.85096">
        <ele>153</ele>
        <time>2012-01-30T13:28:59Z</time>
      </trkpt>
      <trkpt lat="44.59203" lon="0.85092">
        <ele>152</ele>
        <time>2012-01-30T13:29:00Z</time>
      </trkpt>
      <trkpt lat="44.59209" lon="0.85087">
        <ele>151</ele>
        <time>2012-01-30T13:29:01Z</time>
      </trkpt>
      <trkpt lat="44.59215" lon="0.85083">
        <ele>151</ele>
        <time>2012-01-30T13:29:02Z</time>
      </trkpt>
      <trkpt lat="44.5922" lon="0.85078">
        <ele>150</ele>
        <time>2012-01-30T13:29:03Z</time>
      </trkpt>
      <trkpt lat="44.59226" lon="0.85073">
        <ele>149</ele>
        <time>2012-01-30T13:29:04Z</time>
      </trkpt>
      <trkpt lat="44.59232" lon="0.85069">
        <ele>149</ele>
        <time>2012-01-30T13:29:05Z</time>
      </trkpt>
      <trkpt lat="44.59238" lon="0.85065">
        <ele>148</ele>
        <time>2012-01-30T13:29:06Z</time>
      </trkpt>
      <trkpt lat="44.59245" lon="0.85062">
        <ele>147</ele>
        <time>2012-01-30T13:29:07Z</time>
      </trkpt>
      <trkpt lat="44.59251" lon="0.8506">
        <ele>147</ele>
        <time>2012-01-30T13:29:08Z</time>
      </trkpt>
      <trkpt lat="44.59258" lon="0.85057">
        <ele>147</ele>
        <time>2012-01-30T13:29:09Z</time>
      </trkpt>
      <trkpt lat="44.59264" lon="0.85055">
        <ele>147</ele>
        <time>2012-01-30T13:29:10Z</time>
      </trkpt>
      <trkpt lat="44.59269" lon="0.85052">
        <ele>147</ele>
        <time>2012-01-30T13:29:11Z</time>
      </trkpt>
      <trkpt lat="44.59275" lon="0.85048">
        <ele>147</ele>
        <time>2012-01-30T13:29:12Z</time>
      </trkpt>
      <trkpt lat="44.5928" lon="0.85043">
        <ele>147</ele>
        <time>2012-01-30T13:29:13Z</time>
      </trkpt>
      <trkpt lat="44.59286" lon="0.85038">
        <ele>147</ele>
        <time>2012-01-30T13:29:14Z</time>
      </trkpt>
      <trkpt lat="44.59292" lon="0.85034">
        <ele>147</ele>
        <time>2012-01-30T13:29:15Z</time>
      </trkpt>
      <trkpt lat="44.59298" lon="0.85029">
        <ele>147</ele>
        <time>2012-01-30T13:29:16Z</time>
      </trkpt>
      <trkpt lat="44.59303" lon="0.85024">
        <ele>147</ele>
        <time>2012-01-30T13:29:17Z</time>
      </trkpt>
      <trkpt lat="44.59308" lon="0.85019">
        <ele>147</ele>
        <time>2012-01-30T13:29:18Z</time>
      </trkpt>
      <trkpt lat="44.59312" lon="0.85014">
        <ele>147</ele>
        <time>2012-01-30T13:29:19Z</time>
      </trkpt>
      <trkpt lat="44.59317" lon="0.85008">
        <ele>147</ele>
        <time>2012-01-30T13:29:20Z</time>
      </trkpt>
      <trkpt lat="44.5932" lon="0.85002">
        <ele>147</ele>
        <time>2012-01-30T13:29:21Z</time>
      </trkpt>
      <trkpt lat="44.59322" lon="0.84996">
        <ele>147</ele>
        <time>2012-01-30T13:29:22Z</time>
      </trkpt>
      <trkpt lat="44.59324" lon="0.8499">
        <ele>147</ele>
        <time>2012-01-30T13:29:23Z</time>
      </trkpt>
      <trkpt lat="44.59326" lon="0.84983">
        <ele>147</ele>
        <time>2012-01-30T13:29:24Z</time>
      </trkpt>
      <trkpt lat="44.59327" lon="0.84977">
        <ele>147</ele>
        <time>2012-01-30T13:29:25Z</time>
      </trkpt>
      <trkpt lat="44.59328" lon="0.84971">
        <ele>147</ele>
        <time>2012-01-30T13:29:26Z</time>
      </trkpt>
      <trkpt lat="44.5933" lon="0.84965">
        <ele>147</ele>
        <time>2012-01-30T13:29:27Z</time>
      </trkpt>
      <trkpt lat="44.59334" lon="0.8496">
        <ele>147</ele>
        <time>2012-01-30T13:29:28Z</time>
      </trkpt>
      <trkpt lat="44.59338" lon="0.84955">
        <ele>147</ele>
        <time>2012-01-30T13:29:29Z</time>
      </trkpt>
      <trkpt lat="44.59342" lon="0.8495">
        <ele>147</ele>
        <time>2012-01-30T13:29:30Z</time>
      </trkpt>
      <trkpt lat="44.59346" lon="0.84946">
        <ele>147</ele>
        <time>2012-01-30T13:29:31Z</time>
      </trkpt>
      <trkpt lat="44.59351" lon="0.84941">
        <ele>147</ele>
        <time>2012-01-30T13:29:32Z</time>
      </trkpt>
      <trkpt lat="44.59355" lon="0.84936">
        <ele>147</ele>
        <time>2012-01-30T13:29:33Z</time>
      </trkpt>
      <trkpt lat="44.5936" lon="0.84932">
        <ele>147</ele>
        <time>2012-01-30T13:29:34Z</time>
      </trkpt>
      <trkpt lat="44.59364" lon="0.84927">
        <ele>147</ele>
        <time>2012-01-30T13:29:35Z</time>
      </trkpt>
      <trkpt lat="44.59369" lon="0.84922">
        <ele>147</ele>
        <time>2012-01-30T13:29:36Z</time>
      </trkpt>
      <trkpt lat="44.59373" lon="0.84917">
        <ele>147</ele>
        <time>2012-01-30T13:29:37Z</time>
      </trkpt>
      <trkpt lat="44.59379" lon="0.84913">
        <ele>147</ele>
        <time>2012-01-30T13:29:38Z</time>
      </trkpt>
      <trkpt lat="44.59383" lon="0.84908">
        <ele>147</ele>
        <time>2012-01-30T13:29:39Z</time>
      </trkpt>
      <trkpt lat="44.59388" lon="0.84904">
        <ele>147</ele>
        <time>2012-01-30T13:29:40Z</time>
      </trkpt>
      <trkpt lat="44.59392" lon="0.84898">
        <ele>147</ele>
        <time>2012-01-30T13:29:41Z</time>
      </trkpt>
      <trkpt lat="44.59395" lon="0.84892">
        <ele>147</ele>
        <time>2012-01-30T13:29:42Z</time>
      </trkpt>
      <trkpt lat="44.59398" lon="0.84886">
        <ele>147</ele>
        <time>2012-01-30T13:29:43Z</time>
      </trkpt>
      <trkpt lat="44.59399" lon="0.84878">
        <ele>147</ele>
        <time>2012-01-30T13:29:44Z</time>
      </trkpt>
      <trkpt lat="44.594" lon="0.84872">
        <ele>147</ele>
        <time>2012-01-30T13:29:45Z</time>
      </trkpt>
      <trkpt lat="44.594" lon="0.84864">
        <ele>147</ele>
        <time>2012-01-30T13:29:46Z</time>
      </trkpt>
      <trkpt lat="44.594" lon="0.84856">
        <ele>147</ele>
        <time>2012-01-30T13:29:47Z</time>
      </trkpt>
      <trkpt lat="44.59399" lon="0.84848">
        <ele>148</ele>
        <time>2012-01-30T13:29:48Z</time>
      </trkpt>
      <trkpt lat="44.59399" lon="0.84842">
        <ele>148</ele>
        <time>2012-01-30T13:29:49Z</time>
      </trkpt>
      <trkpt lat="44.59398" lon="0.84837">
        <ele>148</ele>
        <time>2012-01-30T13:29:50Z</time>
      </trkpt>
      <trkpt lat="44.59398" lon="0.84833">
        <ele>148</ele>
        <time>2012-01-30T13:29:51Z</time>
      </trkpt>
      <trkpt lat="44.59398" lon="0.84829">
        <ele>148</ele>
        <time>2012-01-30T13:29:52Z</time>
      </trkpt>
      <trkpt lat="44.59398" lon="0.84825">
        <ele>148</ele>
        <time>2012-01-30T13:29:53Z</time>
      </trkpt>
      <trkpt lat="44.59399" lon="0.84823">
        <ele>148</ele>
        <time>2012-01-30T13:29:54Z</time>
      </trkpt>
      <trkpt lat="44.59401" lon="0.84821">
        <ele>148</ele>
        <time>2012-01-30T13:29:55Z</time>
      </trkpt>
      <trkpt lat="44.59404" lon="0.8482">
        <ele>148</ele>
        <time>2012-01-30T13:29:56Z</time>
      </trkpt>
      <trkpt lat="44.59406" lon="0.84818">
        <ele>148</ele>
        <time>2012-01-30T13:29:57Z</time>
      </trkpt>
      <trkpt lat="44.59408" lon="0.84815">
        <ele>148</ele>
        <time>2012-01-30T13:29:58Z</time>
      </trkpt>
      <trkpt lat="44.59411" lon="0.84812">
        <ele>148</ele>
        <time>2012-01-30T13:29:59Z</time>
      </trkpt>
      <trkpt lat="44.59414" lon="0.84808">
        <ele>148</ele>
        <time>2012-01-30T13:30:00Z</time>
      </trkpt>
      <trkpt lat="44.59417" lon="0.84804">
        <ele>148</ele>
        <time>2012-01-30T13:30:01Z</time>
      </trkpt>
      <trkpt lat="44.5942" lon="0.84799">
        <ele>148</ele>
        <time>2012-01-30T13:30:02Z</time>
      </trkpt>
      <trkpt lat="44.59423" lon="0.84795">
        <ele>148</ele>
        <time>2012-01-30T13:30:03Z</time>
      </trkpt>
      <trkpt lat="44.59427" lon="0.8479">
        <ele>148</ele>
        <time>2012-01-30T13:30:04Z</time>
      </trkpt>
      <trkpt lat="44.59431" lon="0.84786">
        <ele>148</ele>
        <time>2012-01-30T13:30:05Z</time>
      </trkpt>
      <trkpt lat="44.59434" lon="0.84781">
        <ele>148</ele>
        <time>2012-01-30T13:30:06Z</time>
      </trkpt>
      <trkpt lat="44.59438" lon="0.84777">
        <ele>148</ele>
        <time>2012-01-30T13:30:07Z</time>
      </trkpt>
      <trkpt lat="44.5944" lon="0.84771">
        <ele>148</ele>
        <time>2012-01-30T13:30:08Z</time>
      </trkpt>
      <trkpt lat="44.59442" lon="0.84766">
        <ele>148</ele>
        <time>2012-01-30T13:30:09Z</time>
      </trkpt>
      <trkpt lat="44.59444" lon="0.8476">
        <ele>148</ele>
        <time>2012-01-30T13:30:10Z</time>
      </trkpt>
      <trkpt lat="44.59445" lon="0.84755">
        <ele>148</ele>
        <time>2012-01-30T13:30:11Z</time>
      </trkpt>
      <trkpt lat="44.59443" lon="0.84748">
        <ele>148</ele>
        <time>2012-01-30T13:30:12Z</time>
      </trkpt>
      <trkpt lat="44.5944" lon="0.84741">
        <ele>148</ele>
        <time>2012-01-30T13:30:13Z</time>
      </trkpt>
      <trkpt lat="44.59438" lon="0.84733">
        <ele>148</ele>
        <time>2012-01-30T13:30:14Z</time>
      </trkpt>
      <trkpt lat="44.59436" lon="0.84725">
        <ele>148</ele>
        <time>2012-01-30T13:30:15Z</time>
      </trkpt>
      <trkpt lat="44.59434" lon="0.84717">
        <ele>148</ele>
        <time>2012-01-30T13:30:16Z</time>
      </trkpt>
      <trkpt lat="44.59432" lon="0.84709">
        <ele>147</ele>
        <time>2012-01-30T13:30:17Z</time>
      </trkpt>
      <trkpt lat="44.5943" lon="0.84701">
        <ele>147</ele>
        <time>2012-01-30T13:30:18Z</time>
      </trkpt>
      <trkpt lat="44.59428" lon="0.84693">
        <ele>146</ele>
        <time>2012-01-30T13:30:19Z</time>
      </trkpt>
      <trkpt lat="44.59426" lon="0.84684">
        <ele>146</ele>
        <time>2012-01-30T13:30:20Z</time>
      </trkpt>
      <trkpt lat="44.59423" lon="0.84675">
        <ele>145</ele>
        <time>2012-01-30T13:30:21Z</time>
      </trkpt>
      <trkpt lat="44.5942" lon="0.84667">
        <ele>144</ele>
        <time>2012-01-30T13:30:22Z</time>
      </trkpt>
      <trkpt lat="44.59416" lon="0.84658">
        <ele>144</ele>
        <time>2012-01-30T13:30:23Z</time>
      </trkpt>
      <trkpt lat="44.59414" lon="0.8465">
        <ele>143</ele>
        <time>2012-01-30T13:30:24Z</time>
      </trkpt>
      <trkpt lat="44.59412" lon="0.84642">
        <ele>142</ele>
        <time>2012-01-30T13:30:25Z</time>
      </trkpt>
      <trkpt lat="44.59411" lon="0.84635">
        <ele>142</ele>
        <time>2012-01-30T13:30:26Z</time>
      </trkpt>
      <trkpt lat="44.5941" lon="0.84627">
        <ele>141</ele>
        <time>2012-01-30T13:30:27Z</time>
      </trkpt>
      <trkpt lat="44.59409" lon="0.8462">
        <ele>141</ele>
        <time>2012-01-30T13:30:28Z</time>
      </trkpt>
      <trkpt lat="44.59408" lon="0.84614">
        <ele>141</ele>
        <time>2012-01-30T13:30:29Z</time>
      </trkpt>
      <trkpt lat="44.59406" lon="0.84607">
        <ele>140</ele>
        <time>2012-01-30T13:30:30Z</time>
      </trkpt>
      <trkpt lat="44.59404" lon="0.846">
        <ele>139</ele>
        <time>2012-01-30T13:30:31Z</time>
      </trkpt>
      <trkpt lat="44.59402" lon="0.84592">
        <ele>139</ele>
        <time>2012-01-30T13:30:32Z</time>
      </trkpt>
      <trkpt lat="44.594" lon="0.84585">
        <ele>139</ele>
        <time>2012-01-30T13:30:33Z</time>
      </trkpt>
      <trkpt lat="44.59399" lon="0.84578">
        <ele>138</ele>
        <time>2012-01-30T13:30:34Z</time>
      </trkpt>
      <trkpt lat="44.59398" lon="0.8457">
        <ele>138</ele>
        <time>2012-01-30T13:30:35Z</time>
      </trkpt>
      <trkpt lat="44.59397" lon="0.84562">
        <ele>138</ele>
        <time>2012-01-30T13:30:36Z</time>
      </trkpt>
      <trkpt lat="44.59399" lon="0.84556">
        <ele>138</ele>
        <time>2012-01-30T13:30:37Z</time>
      </trkpt>
      <trkpt lat="44.59402" lon="0.84552">
        <ele>138</ele>
        <time>2012-01-30T13:30:38Z</time>
      </trkpt>
      <trkpt lat="44.59406" lon="0.84547">
        <ele>138</ele>
        <time>2012-01-30T13:30:39Z</time>
      </trkpt>
      <trkpt lat="44.59411" lon="0.84541">
        <ele>138</ele>
        <time>2012-01-30T13:30:40Z</time>
      </trkpt>
      <trkpt lat="44.59416" lon="0.84535">
        <ele>138</ele>
        <time>2012-01-30T13:30:41Z</time>
      </trkpt>
      <trkpt lat="44.59421" lon="0.8453">
        <ele>138</ele>
        <time>2012-01-30T13:30:42Z</time>
      </trkpt>
      <trkpt lat="44.59425" lon="0.84525">
        <ele>138</ele>
        <time>2012-01-30T13:30:43Z</time>
      </trkpt>
      <trkpt lat="44.5943" lon="0.84519">
        <ele>138</ele>
        <time>2012-01-30T13:30:44Z</time>
      </trkpt>
      <trkpt lat="44.59434" lon="0.84515">
        <ele>138</ele>
        <time>2012-01-30T13:30:45Z</time>
      </trkpt>
      <trkpt lat="44.59438" lon="0.8451">
        <ele>138</ele>
        <time>2012-01-30T13:30:46Z</time>
      </trkpt>
      <trkpt lat="44.59442" lon="0.84504">
        <ele>138</ele>
        <time>2012-01-30T13:30:47Z</time>
      </trkpt>
      <trkpt lat="44.59445" lon="0.84499">
        <ele>138</ele>
        <time>2012-01-30T13:30:48Z</time>
      </trkpt>
      <trkpt lat="44.59449" lon="0.84494">
        <ele>138</ele>
        <time>2012-01-30T13:30:49Z</time>
      </trkpt>
      <trkpt lat="44.59453" lon="0.84489">
        <ele>138</ele>
        <time>2012-01-30T13:30:50Z</time>
      </trkpt>
      <trkpt lat="44.59457" lon="0.84483">
        <ele>138</ele>
        <time>2012-01-30T13:30:51Z</time>
      </trkpt>
      <trkpt lat="44.59462" lon="0.84478">
        <ele>138</ele>
        <time>2012-01-30T13:30:52Z</time>
      </trkpt>
      <trkpt lat="44.59466" lon="0.84472">
        <ele>138</ele>
        <time>2012-01-30T13:30:53Z</time>
      </trkpt>
      <trkpt lat="44.5947" lon="0.84466">
        <ele>138</ele>
        <time>2012-01-30T13:30:54Z</time>
      </trkpt>
      <trkpt lat="44.59475" lon="0.84461">
        <ele>138</ele>
        <time>2012-01-30T13:30:55Z</time>
      </trkpt>
      <trkpt lat="44.5948" lon="0.84456">
        <ele>138</ele>
        <time>2012-01-30T13:30:56Z</time>
      </trkpt>
      <trkpt lat="44.59485" lon="0.8445">
        <ele>138</ele>
        <time>2012-01-30T13:30:57Z</time>
      </trkpt>
      <trkpt lat="44.59491" lon="0.84446">
        <ele>138</ele>
        <time>2012-01-30T13:30:58Z</time>
      </trkpt>
      <trkpt lat="44.59497" lon="0.8444">
        <ele>138</ele>
        <time>2012-01-30T13:30:59Z</time>
      </trkpt>
      <trkpt lat="44.59502" lon="0.84435">
        <ele>138</ele>
        <time>2012-01-30T13:31:00Z</time>
      </trkpt>
      <trkpt lat="44.59507" lon="0.84429">
        <ele>138</ele>
        <time>2012-01-30T13:31:01Z</time>
      </trkpt>
      <trkpt lat="44.59513" lon="0.84424">
        <ele>138</ele>
        <time>2012-01-30T13:31:02Z</time>
      </trkpt>
      <trkpt lat="44.59519" lon="0.84418">
        <ele>138</ele>
        <time>2012-01-30T13:31:03Z</time>
      </trkpt>
      <trkpt lat="44.59525" lon="0.84412">
        <ele>138</ele>
        <time>2012-01-30T13:31:04Z</time>
      </trkpt>
      <trkpt lat="44.5953" lon="0.84407">
        <ele>138</ele>
        <time>2012-01-30T13:31:05Z</time>
      </trkpt>
      <trkpt lat="44.59534" lon="0.84403">
        <ele>138</ele>
        <time>2012-01-30T13:31:06Z</time>
      </trkpt>
      <trkpt lat="44.5954" lon="0.84398">
        <ele>138</ele>
        <time>2012-01-30T13:31:07Z</time>
      </trkpt>
      <trkpt lat="44.59545" lon="0.84392">
        <ele>138</ele>
        <time>2012-01-30T13:31:08Z</time>
      </trkpt>
      <trkpt lat="44.5955" lon="0.84387">
        <ele>138</ele>
        <time>2012-01-30T13:31:09Z</time>
      </trkpt>
      <trkpt lat="44.59555" lon="0.84382">
        <ele>138</ele>
        <time>2012-01-30T13:31:10Z</time>
      </trkpt>
      <trkpt lat="44.59559" lon="0.84377">
        <ele>138</ele>
        <time>2012-01-30T13:31:11Z</time>
      </trkpt>
      <trkpt lat="44.59563" lon="0.84373">
        <ele>138</ele>
        <time>2012-01-30T13:31:12Z</time>
      </trkpt>
      <trkpt lat="44.59566" lon="0.84369">
        <ele>138</ele>
        <time>2012-01-30T13:31:13Z</time>
      </trkpt>
      <trkpt lat="44.59571" lon="0.84364">
        <ele>138</ele>
        <time>2012-01-30T13:31:14Z</time>
      </trkpt>
      <trkpt lat="44.59576" lon="0.8436">
        <ele>138</ele>
        <time>2012-01-30T13:31:15Z</time>
      </trkpt>
      <trkpt lat="44.59581" lon="0.84357">
        <ele>138</ele>
        <time>2012-01-30T13:31:16Z</time>
      </trkpt>
      <trkpt lat="44.59586" lon="0.84353">
        <ele>138</ele>
        <time>2012-01-30T13:31:17Z</time>
      </trkpt>
      <trkpt lat="44.59591" lon="0.8435">
        <ele>138</ele>
        <time>2012-01-30T13:31:18Z</time>
      </trkpt>
      <trkpt lat="44.59595" lon="0.84346">
        <ele>138</ele>
        <time>2012-01-30T13:31:19Z</time>
      </trkpt>
      <trkpt lat="44.596" lon="0.84342">
        <ele>138</ele>
        <time>2012-01-30T13:31:20Z</time>
      </trkpt>
      <trkpt lat="44.59605" lon="0.84338">
        <ele>138</ele>
        <time>2012-01-30T13:31:21Z</time>
      </trkpt>
      <trkpt lat="44.59609" lon="0.84335">
        <ele>138</ele>
        <time>2012-01-30T13:31:22Z</time>
      </trkpt>
      <trkpt lat="44.59612" lon="0.84331">
        <ele>138</ele>
        <time>2012-01-30T13:31:23Z</time>
      </trkpt>
      <trkpt lat="44.59615" lon="0.84328">
        <ele>138</ele>
        <time>2012-01-30T13:31:24Z</time>
      </trkpt>
      <trkpt lat="44.59619" lon="0.84323">
        <ele>138</ele>
        <time>2012-01-30T13:31:25Z</time>
      </trkpt>
      <trkpt lat="44.59623" lon="0.84319">
        <ele>138</ele>
        <time>2012-01-30T13:31:26Z</time>
      </trkpt>
      <trkpt lat="44.59627" lon="0.84315">
        <ele>138</ele>
        <time>2012-01-30T13:31:27Z</time>
      </trkpt>
      <trkpt lat="44.59631" lon="0.8431">
        <ele>138</ele>
        <time>2012-01-30T13:31:28Z</time>
      </trkpt>
      <trkpt lat="44.59636" lon="0.84305">
        <ele>138</ele>
        <time>2012-01-30T13:31:29Z</time>
      </trkpt>
      <trkpt lat="44.5964" lon="0.84299">
        <ele>138</ele>
        <time>2012-01-30T13:31:30Z</time>
      </trkpt>
      <trkpt lat="44.59643" lon="0.84291">
        <ele>138</ele>
        <time>2012-01-30T13:31:31Z</time>
      </trkpt>
      <trkpt lat="44.59646" lon="0.84283">
        <ele>138</ele>
        <time>2012-01-30T13:31:32Z</time>
      </trkpt>
      <trkpt lat="44.59649" lon="0.84276">
        <ele>138</ele>
        <time>2012-01-30T13:31:33Z</time>
      </trkpt>
      <trkpt lat="44.59653" lon="0.84269">
        <ele>138</ele>
        <time>2012-01-30T13:31:34Z</time>
      </trkpt>
      <trkpt lat="44.59659" lon="0.84262">
        <ele>138</ele>
        <time>2012-01-30T13:31:35Z</time>
      </trkpt>
      <trkpt lat="44.59664" lon="0.84256">
        <ele>138</ele>
        <time>2012-01-30T13:31:36Z</time>
      </trkpt>
      <trkpt lat="44.5967" lon="0.8425">
        <ele>138</ele>
        <time>2012-01-30T13:31:37Z</time>
      </trkpt>
      <trkpt lat="44.59675" lon="0.84245">
        <ele>138</ele>
        <time>2012-01-30T13:31:38Z</time>
      </trkpt>
      <trkpt lat="44.59679" lon="0.84238">
        <ele>138</ele>
        <time>2012-01-30T13:31:39Z</time>
      </trkpt>
      <trkpt lat="44.59683" lon="0.84232">
        <ele>138</ele>
        <time>2012-01-30T13:31:40Z</time>
      </trkpt>
      <trkpt lat="44.59686" lon="0.84228">
        <ele>138</ele>
        <time>2012-01-30T13:31:41Z</time>
      </trkpt>
      <trkpt lat="44.59687" lon="0.84224">
        <ele>137</ele>
        <time>2012-01-30T13:31:42Z</time>
      </trkpt>
      <trkpt lat="44.59689" lon="0.84221">
        <ele>136</ele>
        <time>2012-01-30T13:31:43Z</time>
      </trkpt>
      <trkpt lat="44.59691" lon="0.84217">
        <ele>136</ele>
        <time>2012-01-30T13:31:44Z</time>
      </trkpt>
      <trkpt lat="44.59694" lon="0.84213">
        <ele>135</ele>
        <time>2012-01-30T13:31:45Z</time>
      </trkpt>
      <trkpt lat="44.59698" lon="0.84208">
        <ele>135</ele>
        <time>2012-01-30T13:31:46Z</time>
      </trkpt>
      <trkpt lat="44.59703" lon="0.84203">
        <ele>135</ele>
        <time>2012-01-30T13:31:47Z</time>
      </trkpt>
      <trkpt lat="44.59708" lon="0.84197">
        <ele>135</ele>
        <time>2012-01-30T13:31:48Z</time>
      </trkpt>
      <trkpt lat="44.59713" lon="0.8419">
        <ele>135</ele>
        <time>2012-01-30T13:31:49Z</time>
      </trkpt>
      <trkpt lat="44.59718" lon="0.84184">
        <ele>134</ele>
        <time>2012-01-30T13:31:50Z</time>
      </trkpt>
      <trkpt lat="44.59722" lon="0.84176">
        <ele>133</ele>
        <time>2012-01-30T13:31:51Z</time>
      </trkpt>
      <trkpt lat="44.59727" lon="0.84168">
        <ele>133</ele>
        <time>2012-01-30T13:31:52Z</time>
      </trkpt>
      <trkpt lat="44.59732" lon="0.84161">
        <ele>132</ele>
        <time>2012-01-30T13:31:53Z</time>
      </trkpt>
      <trkpt lat="44.59737" lon="0.84154">
        <ele>131</ele>
        <time>2012-01-30T13:31:54Z</time>
      </trkpt>
      <trkpt lat="44.59742" lon="0.84146">
        <ele>131</ele>
        <time>2012-01-30T13:31:55Z</time>
      </trkpt>
      <trkpt lat="44.59746" lon="0.84138">
        <ele>130</ele>
        <time>2012-01-30T13:31:56Z</time>
      </trkpt>
      <trkpt lat="44.59749" lon="0.84131">
        <ele>130</ele>
        <time>2012-01-30T13:31:57Z</time>
      </trkpt>
      <trkpt lat="44.59753" lon="0.84123">
        <ele>130</ele>
        <time>2012-01-30T13:31:58Z</time>
      </trkpt>
      <trkpt lat="44.59757" lon="0.84116">
        <ele>129</ele>
        <time>2012-01-30T13:31:59Z</time>
      </trkpt>
      <trkpt lat="44.59761" lon="0.84109">
        <ele>129</ele>
        <time>2012-01-30T13:32:00Z</time>
      </trkpt>
      <trkpt lat="44.59766" lon="0.84103">
        <ele>128</ele>
        <time>2012-01-30T13:32:01Z</time>
      </trkpt>
      <trkpt lat="44.59771" lon="0.84098">
        <ele>128</ele>
        <time>2012-01-30T13:32:02Z</time>
      </trkpt>
      <trkpt lat="44.59776" lon="0.84093">
        <ele>128</ele>
        <time>2012-01-30T13:32:03Z</time>
      </trkpt>
      <trkpt lat="44.59782" lon="0.84087">
        <ele>128</ele>
        <time>2012-01-30T13:32:04Z</time>
      </trkpt>
      <trkpt lat="44.59786" lon="0.84081">
        <ele>127</ele>
        <time>2012-01-30T13:32:05Z</time>
      </trkpt>
      <trkpt lat="44.5979" lon="0.84075">
        <ele>127</ele>
        <time>2012-01-30T13:32:06Z</time>
      </trkpt>
      <trkpt lat="44.59794" lon="0.8407">
        <ele>127</ele>
        <time>2012-01-30T13:32:07Z</time>
      </trkpt>
      <trkpt lat="44.59797" lon="0.84064">
        <ele>127</ele>
        <time>2012-01-30T13:32:08Z</time>
      </trkpt>
      <trkpt lat="44.59802" lon="0.84058">
        <ele>127</ele>
        <time>2012-01-30T13:32:09Z</time>
      </trkpt>
      <trkpt lat="44.59806" lon="0.84053">
        <ele>127</ele>
        <time>2012-01-30T13:32:10Z</time>
      </trkpt>
      <trkpt lat="44.59811" lon="0.84048">
        <ele>127</ele>
        <time>2012-01-30T13:32:11Z</time>
      </trkpt>
      <trkpt lat="44.59816" lon="0.84042">
        <ele>127</ele>
        <time>2012-01-30T13:32:12Z</time>
      </trkpt>
      <trkpt lat="44.59821" lon="0.84036">
        <ele>127</ele>
        <time>2012-01-30T13:32:13Z</time>
      </trkpt>
      <trkpt lat="44.59826" lon="0.8403">
        <ele>127</ele>
        <time>2012-01-30T13:32:14Z</time>
      </trkpt>
      <trkpt lat="44.59829" lon="0.84025">
        <ele>127</ele>
        <time>2012-01-30T13:32:15Z</time>
      </trkpt>
      <trkpt lat="44.59833" lon="0.84021">
        <ele>127</ele>
        <time>2012-01-30T13:32:16Z</time>
      </trkpt>
      <trkpt lat="44.59836" lon="0.84017">
        <ele>127</ele>
        <time>2012-01-30T13:32:17Z</time>
      </trkpt>
      <trkpt lat="44.59839" lon="0.84013">
        <ele>127</ele>
        <time>2012-01-30T13:32:18Z</time>
      </trkpt>
      <trkpt lat="44.59842" lon="0.8401">
        <ele>127</ele>
        <time>2012-01-30T13:32:19Z</time>
      </trkpt>
      <trkpt lat="44.59844" lon="0.84007">
        <ele>127</ele>
        <time>2012-01-30T13:32:20Z</time>
      </trkpt>
      <trkpt lat="44.59847" lon="0.84005">
        <ele>127</ele>
        <time>2012-01-30T13:32:21Z</time>
      </trkpt>
      <trkpt lat="44.5985" lon="0.84005">
        <ele>127</ele>
        <time>2012-01-30T13:32:22Z</time>
      </trkpt>
      <trkpt lat="44.59851" lon="0.84005">
        <ele>127</ele>
        <time>2012-01-30T13:32:23Z</time>
      </trkpt>
      <trkpt lat="44.59853" lon="0.84006">
        <ele>127</ele>
        <time>2012-01-30T13:32:24Z</time>
      </trkpt>
      <trkpt lat="44.59854" lon="0.84007">
        <ele>127</ele>
        <time>2012-01-30T13:32:25Z</time>
      </trkpt>
      <trkpt lat="44.59855" lon="0.84008">
        <ele>127</ele>
        <time>2012-01-30T13:32:27Z</time>
      </trkpt>
      <trkpt lat="44.59856" lon="0.8401">
        <ele>127</ele>
        <time>2012-01-30T13:32:43Z</time>
      </trkpt>
      <trkpt lat="44.59857" lon="0.84012">
        <ele>127</ele>
        <time>2012-01-30T13:33:03Z</time>
      </trkpt>
      <trkpt lat="44.59858" lon="0.84013">
        <ele>127</ele>
        <time>2012-01-30T13:33:04Z</time>
      </trkpt>
      <trkpt lat="44.59858" lon="0.84015">
        <ele>127</ele>
        <time>2012-01-30T13:33:05Z</time>
      </trkpt>
      <trkpt lat="44.5986" lon="0.84017">
        <ele>127</ele>
        <time>2012-01-30T13:33:06Z</time>
      </trkpt>
      <trkpt lat="44.59861" lon="0.84018">
        <ele>127</ele>
        <time>2012-01-30T13:33:07Z</time>
      </trkpt>
      <trkpt lat="44.59863" lon="0.84021">
        <ele>127</ele>
        <time>2012-01-30T13:33:08Z</time>
      </trkpt>
      <trkpt lat="44.59864" lon="0.84023">
        <ele>127</ele>
        <time>2012-01-30T13:33:09Z</time>
      </trkpt>
      <trkpt lat="44.59866" lon="0.84026">
        <ele>127</ele>
        <time>2012-01-30T13:33:10Z</time>
      </trkpt>
      <trkpt lat="44.59868" lon="0.8403">
        <ele>127</ele>
        <time>2012-01-30T13:33:11Z</time>
      </trkpt>
      <trkpt lat="44.5987" lon="0.84033">
        <ele>127</ele>
        <time>2012-01-30T13:33:12Z</time>
      </trkpt>
      <trkpt lat="44.59872" lon="0.84036">
        <ele>127</ele>
        <time>2012-01-30T13:33:13Z</time>
      </trkpt>
      <trkpt lat="44.59874" lon="0.8404">
        <ele>127</ele>
        <time>2012-01-30T13:33:14Z</time>
      </trkpt>
      <trkpt lat="44.59876" lon="0.84044">
        <ele>127</ele>
        <time>2012-01-30T13:33:15Z</time>
      </trkpt>
      <trkpt lat="44.59878" lon="0.84047">
        <ele>127</ele>
        <time>2012-01-30T13:33:16Z</time>
      </trkpt>
      <trkpt lat="44.5988" lon="0.84051">
        <ele>127</ele>
        <time>2012-01-30T13:33:17Z</time>
      </trkpt>
      <trkpt lat="44.59882" lon="0.84054">
        <ele>127</ele>
        <time>2012-01-30T13:33:18Z</time>
      </trkpt>
      <trkpt lat="44.59885" lon="0.84057">
        <ele>127</ele>
        <time>2012-01-30T13:33:19Z</time>
      </trkpt>
      <trkpt lat="44.59887" lon="0.84061">
        <ele>127</ele>
        <time>2012-01-30T13:33:20Z</time>
      </trkpt>
      <trkpt lat="44.59889" lon="0.84065">
        <ele>127</ele>
        <time>2012-01-30T13:33:21Z</time>
      </trkpt>
      <trkpt lat="44.59891" lon="0.84069">
        <ele>127</ele>
        <time>2012-01-30T13:33:22Z</time>
      </trkpt>
      <trkpt lat="44.59893" lon="0.84072">
        <ele>127</ele>
        <time>2012-01-30T13:33:23Z</time>
      </trkpt>
      <trkpt lat="44.59895" lon="0.84076">
        <ele>127</ele>
        <time>2012-01-30T13:33:24Z</time>
      </trkpt>
      <trkpt lat="44.59897" lon="0.8408">
        <ele>127</ele>
        <time>2012-01-30T13:33:25Z</time>
      </trkpt>
      <trkpt lat="44.59899" lon="0.84084">
        <ele>127</ele>
        <time>2012-01-30T13:33:26Z</time>
      </trkpt>
      <trkpt lat="44.59901" lon="0.84089">
        <ele>127</ele>
        <time>2012-01-30T13:33:27Z</time>
      </trkpt>
      <trkpt lat="44.59903" lon="0.84094">
        <ele>127</ele>
        <time>2012-01-30T13:33:28Z</time>
      </trkpt>
      <trkpt lat="44.59905" lon="0.84099">
        <ele>127</ele>
        <time>2012-01-30T13:33:29Z</time>
      </trkpt>
      <trkpt lat="44.59907" lon="0.84104">
        <ele>127</ele>
        <time>2012-01-30T13:33:30Z</time>
      </trkpt>
      <trkpt lat="44.59909" lon="0.84109">
        <ele>127</ele>
        <time>2012-01-30T13:33:31Z</time>
      </trkpt>
      <trkpt lat="44.59911" lon="0.84114">
        <ele>127</ele>
        <time>2012-01-30T13:33:32Z</time>
      </trkpt>
      <trkpt lat="44.59913" lon="0.84119">
        <ele>127</ele>
        <time>2012-01-30T13:33:33Z</time>
      </trkpt>
      <trkpt lat="44.59916" lon="0.84125">
        <ele>127</ele>
        <time>2012-01-30T13:33:34Z</time>
      </trkpt>
      <trkpt lat="44.59918" lon="0.84131">
        <ele>127</ele>
        <time>2012-01-30T13:33:35Z</time>
      </trkpt>
      <trkpt lat="44.5992" lon="0.84137">
        <ele>127</ele>
        <time>2012-01-30T13:33:36Z</time>
      </trkpt>
      <trkpt lat="44.59923" lon="0.84144">
        <ele>127</ele>
        <time>2012-01-30T13:33:37Z</time>
      </trkpt>
      <trkpt lat="44.59926" lon="0.84152">
        <ele>127</ele>
        <time>2012-01-30T13:33:38Z</time>
      </trkpt>
      <trkpt lat="44.5993" lon="0.84159">
        <ele>127</ele>
        <time>2012-01-30T13:33:39Z</time>
      </trkpt>
      <trkpt lat="44.59933" lon="0.84167">
        <ele>127</ele>
        <time>2012-01-30T13:33:40Z</time>
      </trkpt>
      <trkpt lat="44.59936" lon="0.84176">
        <ele>127</ele>
        <time>2012-01-30T13:33:41Z</time>
      </trkpt>
      <trkpt lat="44.5994" lon="0.84185">
        <ele>127</ele>
        <time>2012-01-30T13:33:42Z</time>
      </trkpt>
      <trkpt lat="44.59944" lon="0.84195">
        <ele>127</ele>
        <time>2012-01-30T13:33:43Z</time>
      </trkpt>
      <trkpt lat="44.59948" lon="0.84204">
        <ele>127</ele>
        <time>2012-01-30T13:33:44Z</time>
      </trkpt>
      <trkpt lat="44.59952" lon="0.84214">
        <ele>127</ele>
        <time>2012-01-30T13:33:45Z</time>
      </trkpt>
      <trkpt lat="44.59956" lon="0.84224">
        <ele>126</ele>
        <time>2012-01-30T13:33:46Z</time>
      </trkpt>
      <trkpt lat="44.59961" lon="0.84232">
        <ele>126</ele>
        <time>2012-01-30T13:33:47Z</time>
      </trkpt>
      <trkpt lat="44.59967" lon="0.8424">
        <ele>125</ele>
        <time>2012-01-30T13:33:48Z</time>
      </trkpt>
      <trkpt lat="44.59973" lon="0.84246">
        <ele>125</ele>
        <time>2012-01-30T13:33:49Z</time>
      </trkpt>
      <trkpt lat="44.59979" lon="0.8425">
        <ele>124</ele>
        <time>2012-01-30T13:33:50Z</time>
      </trkpt>
      <trkpt lat="44.59986" lon="0.84253">
        <ele>124</ele>
        <time>2012-01-30T13:33:51Z</time>
      </trkpt>
      <trkpt lat="44.59992" lon="0.84255">
        <ele>123</ele>
        <time>2012-01-30T13:33:52Z</time>
      </trkpt>
      <trkpt lat="44.59999" lon="0.84257">
        <ele>123</ele>
        <time>2012-01-30T13:33:53Z</time>
      </trkpt>
      <trkpt lat="44.60005" lon="0.84259">
        <ele>123</ele>
        <time>2012-01-30T13:33:54Z</time>
      </trkpt>
      <trkpt lat="44.60014" lon="0.84259">
        <ele>123</ele>
        <time>2012-01-30T13:33:55Z</time>
      </trkpt>
      <trkpt lat="44.60023" lon="0.84261">
        <ele>123</ele>
        <time>2012-01-30T13:33:56Z</time>
      </trkpt>
      <trkpt lat="44.60035" lon="0.84262">
        <ele>122</ele>
        <time>2012-01-30T13:33:57Z</time>
      </trkpt>
      <trkpt lat="44.60044" lon="0.84264">
        <ele>122</ele>
        <time>2012-01-30T13:33:58Z</time>
      </trkpt>
      <trkpt lat="44.60053" lon="0.84268">
        <ele>122</ele>
        <time>2012-01-30T13:33:59Z</time>
      </trkpt>
      <trkpt lat="44.60062" lon="0.84272">
        <ele>121</ele>
        <time>2012-01-30T13:34:00Z</time>
      </trkpt>
      <trkpt lat="44.60071" lon="0.84278">
        <ele>120</ele>
        <time>2012-01-30T13:34:01Z</time>
      </trkpt>
      <trkpt lat="44.60078" lon="0.84284">
        <ele>120</ele>
        <time>2012-01-30T13:34:02Z</time>
      </trkpt>
      <trkpt lat="44.60084" lon="0.84288">
        <ele>119</ele>
        <time>2012-01-30T13:34:03Z</time>
      </trkpt>
      <trkpt lat="44.6009" lon="0.8429">
        <ele>119</ele>
        <time>2012-01-30T13:34:04Z</time>
      </trkpt>
      <trkpt lat="44.60093" lon="0.8429">
        <ele>118</ele>
        <time>2012-01-30T13:34:05Z</time>
      </trkpt>
      <trkpt lat="44.60096" lon="0.84287">
        <ele>118</ele>
        <time>2012-01-30T13:34:06Z</time>
      </trkpt>
      <trkpt lat="44.60098" lon="0.84283">
        <ele>118</ele>
        <time>2012-01-30T13:34:07Z</time>
      </trkpt>
      <trkpt lat="44.60101" lon="0.84279">
        <ele>117</ele>
        <time>2012-01-30T13:34:08Z</time>
      </trkpt>
      <trkpt lat="44.60104" lon="0.84278">
        <ele>117</ele>
        <time>2012-01-30T13:34:09Z</time>
      </trkpt>
      <trkpt lat="44.60109" lon="0.84279">
        <ele>116</ele>
        <time>2012-01-30T13:34:10Z</time>
      </trkpt>
      <trkpt lat="44.60112" lon="0.84282">
        <ele>115</ele>
        <time>2012-01-30T13:34:11Z</time>
      </trkpt>
      <trkpt lat="44.60115" lon="0.84286">
        <ele>115</ele>
        <time>2012-01-30T13:34:12Z</time>
      </trkpt>
      <trkpt lat="44.60116" lon="0.8429">
        <ele>115</ele>
        <time>2012-01-30T13:34:13Z</time>
      </trkpt>
      <trkpt lat="44.60117" lon="0.84294">
        <ele>115</ele>
        <time>2012-01-30T13:34:14Z</time>
      </trkpt>
      <trkpt lat="44.60117" lon="0.84298">
        <ele>115</ele>
        <time>2012-01-30T13:34:15Z</time>
      </trkpt>
      <trkpt lat="44.60118" lon="0.84302">
        <ele>115</ele>
        <time>2012-01-30T13:34:16Z</time>
      </trkpt>
      <trkpt lat="44.60118" lon="0.84305">
        <ele>115</ele>
        <time>2012-01-30T13:34:17Z</time>
      </trkpt>
      <trkpt lat="44.6012" lon="0.84308">
        <ele>115</ele>
        <time>2012-01-30T13:34:18Z</time>
      </trkpt>
      <trkpt lat="44.6012" lon="0.84311">
        <ele>115</ele>
        <time>2012-01-30T13:34:19Z</time>
      </trkpt>
      <trkpt lat="44.60121" lon="0.84315">
        <ele>115</ele>
        <time>2012-01-30T13:34:20Z</time>
      </trkpt>
      <trkpt lat="44.60121" lon="0.84318">
        <ele>115</ele>
        <time>2012-01-30T13:34:21Z</time>
      </trkpt>
      <trkpt lat="44.60122" lon="0.84321">
        <ele>115</ele>
        <time>2012-01-30T13:34:22Z</time>
      </trkpt>
      <trkpt lat="44.60122" lon="0.84324">
        <ele>115</ele>
        <time>2012-01-30T13:34:23Z</time>
      </trkpt>
      <trkpt lat="44.60123" lon="0.84327">
        <ele>115</ele>
        <time>2012-01-30T13:34:24Z</time>
      </trkpt>
      <trkpt lat="44.60123" lon="0.8433">
        <ele>115</ele>
        <time>2012-01-30T13:34:25Z</time>
      </trkpt>
      <trkpt lat="44.60124" lon="0.84333">
        <ele>115</ele>
        <time>2012-01-30T13:34:26Z</time>
      </trkpt>
      <trkpt lat="44.60125" lon="0.84336">
        <ele>116</ele>
        <time>2012-01-30T13:34:27Z</time>
      </trkpt>
      <trkpt lat="44.60125" lon="0.84339">
        <ele>116</ele>
        <time>2012-01-30T13:34:28Z</time>
      </trkpt>
      <trkpt lat="44.60126" lon="0.84343">
        <ele>117</ele>
        <time>2012-01-30T13:34:29Z</time>
      </trkpt>
      <trkpt lat="44.60126" lon="0.84346">
        <ele>117</ele>
        <time>2012-01-30T13:34:30Z</time>
      </trkpt>
      <trkpt lat="44.60126" lon="0.8435">
        <ele>117</ele>
        <time>2012-01-30T13:34:31Z</time>
      </trkpt>
      <trkpt lat="44.60127" lon="0.84353">
        <ele>118</ele>
        <time>2012-01-30T13:34:32Z</time>
      </trkpt>
      <trkpt lat="44.60127" lon="0.84355">
        <ele>118</ele>
        <time>2012-01-30T13:34:33Z</time>
      </trkpt>
      <trkpt lat="44.60128" lon="0.84358">
        <ele>118</ele>
        <time>2012-01-30T13:34:34Z</time>
      </trkpt>
      <trkpt lat="44.60127" lon="0.84362">
        <ele>118</ele>
        <time>2012-01-30T13:34:35Z</time>
      </trkpt>
      <trkpt lat="44.60128" lon="0.84365">
        <ele>119</ele>
        <time>2012-01-30T13:34:36Z</time>
      </trkpt>
      <trkpt lat="44.60128" lon="0.84369">
        <ele>120</ele>
        <time>2012-01-30T13:34:37Z</time>
      </trkpt>
      <trkpt lat="44.60128" lon="0.84371">
        <ele>120</ele>
        <time>2012-01-30T13:34:38Z</time>
      </trkpt>
      <trkpt lat="44.60128" lon="0.84374">
        <ele>121</ele>
        <time>2012-01-30T13:34:39Z</time>
      </trkpt>
      <trkpt lat="44.60127" lon="0.84378">
        <ele>121</ele>
        <time>2012-01-30T13:34:40Z</time>
      </trkpt>
      <trkpt lat="44.60127" lon="0.84381">
        <ele>121</ele>
        <time>2012-01-30T13:34:41Z</time>
      </trkpt>
      <trkpt lat="44.60127" lon="0.84384">
        <ele>121</ele>
        <time>2012-01-30T13:34:42Z</time>
      </trkpt>
      <trkpt lat="44.60127" lon="0.84387">
        <ele>121</ele>
        <time>2012-01-30T13:34:43Z</time>
      </trkpt>
      <trkpt lat="44.60127" lon="0.84391">
        <ele>121</ele>
        <time>2012-01-30T13:34:44Z</time>
      </trkpt>
      <trkpt lat="44.60127" lon="0.84394">
        <ele>122</ele>
        <time>2012-01-30T13:34:45Z</time>
      </trkpt>
      <trkpt lat="44.60126" lon="0.84397">
        <ele>122</ele>
        <time>2012-01-30T13:34:46Z</time>
      </trkpt>
      <trkpt lat="44.60126" lon="0.84399">
        <ele>122</ele>
        <time>2012-01-30T13:34:47Z</time>
      </trkpt>
      <trkpt lat="44.60126" lon="0.84402">
        <ele>122</ele>
        <time>2012-01-30T13:34:48Z</time>
      </trkpt>
      <trkpt lat="44.60126" lon="0.84405">
        <ele>122</ele>
        <time>2012-01-30T13:34:49Z</time>
      </trkpt>
      <trkpt lat="44.60126" lon="0.84408">
        <ele>122</ele>
        <time>2012-01-30T13:34:50Z</time>
      </trkpt>
      <trkpt lat="44.60126" lon="0.8441">
        <ele>123</ele>
        <time>2012-01-30T13:34:51Z</time>
      </trkpt>
      <trkpt lat="44.60125" lon="0.84413">
        <ele>123</ele>
        <time>2012-01-30T13:34:52Z</time>
      </trkpt>
      <trkpt lat="44.60125" lon="0.84415">
        <ele>123</ele>
        <time>2012-01-30T13:34:53Z</time>
      </trkpt>
      <trkpt lat="44.60125" lon="0.84418">
        <ele>124</ele>
        <time>2012-01-30T13:34:54Z</time>
      </trkpt>
      <trkpt lat="44.60125" lon="0.84421">
        <ele>124</ele>
        <time>2012-01-30T13:34:55Z</time>
      </trkpt>
      <trkpt lat="44.60125" lon="0.84424">
        <ele>124</ele>
        <time>2012-01-30T13:34:56Z</time>
      </trkpt>
      <trkpt lat="44.60125" lon="0.84426">
        <ele>124</ele>
        <time>2012-01-30T13:34:57Z</time>
      </trkpt>
      <trkpt lat="44.60125" lon="0.84429">
        <ele>124</ele>
        <time>2012-01-30T13:34:58Z</time>
      </trkpt>
      <trkpt lat="44.60125" lon="0.84431">
        <ele>124</ele>
        <time>2012-01-30T13:34:59Z</time>
      </trkpt>
      <trkpt lat="44.60126" lon="0.84434">
        <ele>124</ele>
        <time>2012-01-30T13:35:00Z</time>
      </trkpt>
      <trkpt lat="44.60126" lon="0.84437">
        <ele>125</ele>
        <time>2012-01-30T13:35:01Z</time>
      </trkpt>
      <trkpt lat="44.60126" lon="0.84439">
        <ele>125</ele>
        <time>2012-01-30T13:35:02Z</time>
      </trkpt>
      <trkpt lat="44.60126" lon="0.84442">
        <ele>125</ele>
        <time>2012-01-30T13:35:03Z</time>
      </trkpt>
      <trkpt lat="44.60127" lon="0.84444">
        <ele>126</ele>
        <time>2012-01-30T13:35:04Z</time>
      </trkpt>
      <trkpt lat="44.60127" lon="0.84447">
        <ele>126</ele>
        <time>2012-01-30T13:35:05Z</time>
      </trkpt>
      <trkpt lat="44.60128" lon="0.84449">
        <ele>127</ele>
        <time>2012-01-30T13:35:06Z</time>
      </trkpt>
      <trkpt lat="44.60128" lon="0.84451">
        <ele>127</ele>
        <time>2012-01-30T13:35:07Z</time>
      </trkpt>
      <trkpt lat="44.60128" lon="0.84453">
        <ele>128</ele>
        <time>2012-01-30T13:35:08Z</time>
      </trkpt>
      <trkpt lat="44.60129" lon="0.84456">
        <ele>128</ele>
        <time>2012-01-30T13:35:09Z</time>
      </trkpt>
      <trkpt lat="44.6013" lon="0.84459">
        <ele>128</ele>
        <time>2012-01-30T13:35:10Z</time>
      </trkpt>
      <trkpt lat="44.6013" lon="0.84461">
        <ele>129</ele>
        <time>2012-01-30T13:35:11Z</time>
      </trkpt>
      <trkpt lat="44.6013" lon="0.84465">
        <ele>129</ele>
        <time>2012-01-30T13:35:12Z</time>
      </trkpt>
      <trkpt lat="44.6013" lon="0.84468">
        <ele>130</ele>
        <time>2012-01-30T13:35:13Z</time>
      </trkpt>
      <trkpt lat="44.6013" lon="0.84471">
        <ele>130</ele>
        <time>2012-01-30T13:35:14Z</time>
      </trkpt>
      <trkpt lat="44.60131" lon="0.84474">
        <ele>131</ele>
        <time>2012-01-30T13:35:15Z</time>
      </trkpt>
      <trkpt lat="44.60131" lon="0.84477">
        <ele>132</ele>
        <time>2012-01-30T13:35:16Z</time>
      </trkpt>
      <trkpt lat="44.60132" lon="0.84479">
        <ele>132</ele>
        <time>2012-01-30T13:35:17Z</time>
      </trkpt>
      <trkpt lat="44.60133" lon="0.84482">
        <ele>132</ele>
        <time>2012-01-30T13:35:18Z</time>
      </trkpt>
      <trkpt lat="44.60133" lon="0.84485">
        <ele>133</ele>
        <time>2012-01-30T13:35:19Z</time>
      </trkpt>
      <trkpt lat="44.60134" lon="0.84488">
        <ele>133</ele>
        <time>2012-01-30T13:35:20Z</time>
      </trkpt>
      <trkpt lat="44.60134" lon="0.84491">
        <ele>133</ele>
        <time>2012-01-30T13:35:21Z</time>
      </trkpt>
      <trkpt lat="44.60135" lon="0.84494">
        <ele>134</ele>
        <time>2012-01-30T13:35:22Z</time>
      </trkpt>
      <trkpt lat="44.60136" lon="0.84497">
        <ele>134</ele>
        <time>2012-01-30T13:35:23Z</time>
      </trkpt>
      <trkpt lat="44.60136" lon="0.845">
        <ele>134</ele>
        <time>2012-01-30T13:35:24Z</time>
      </trkpt>
      <trkpt lat="44.60136" lon="0.84502">
        <ele>134</ele>
        <time>2012-01-30T13:35:25Z</time>
      </trkpt>
      <trkpt lat="44.60137" lon="0.84505">
        <ele>135</ele>
        <time>2012-01-30T13:35:26Z</time>
      </trkpt>
      <trkpt lat="44.60138" lon="0.84508">
        <ele>135</ele>
        <time>2012-01-30T13:35:27Z</time>
      </trkpt>
      <trkpt lat="44.60138" lon="0.84511">
        <ele>135</ele>
        <time>2012-01-30T13:35:28Z</time>
      </trkpt>
      <trkpt lat="44.60139" lon="0.84514">
        <ele>135</ele>
        <time>2012-01-30T13:35:29Z</time>
      </trkpt>
      <trkpt lat="44.60139" lon="0.84517">
        <ele>135</ele>
        <time>2012-01-30T13:35:30Z</time>
      </trkpt>
      <trkpt lat="44.6014" lon="0.8452">
        <ele>135</ele>
        <time>2012-01-30T13:35:31Z</time>
      </trkpt>
      <trkpt lat="44.6014" lon="0.84523">
        <ele>136</ele>
        <time>2012-01-30T13:35:32Z</time>
      </trkpt>
      <trkpt lat="44.60141" lon="0.84526">
        <ele>136</ele>
        <time>2012-01-30T13:35:33Z</time>
      </trkpt>
      <trkpt lat="44.60142" lon="0.84529">
        <ele>136</ele>
        <time>2012-01-30T13:35:34Z</time>
      </trkpt>
      <trkpt lat="44.60143" lon="0.84532">
        <ele>136</ele>
        <time>2012-01-30T13:35:35Z</time>
      </trkpt>
      <trkpt lat="44.60144" lon="0.84535">
        <ele>137</ele>
        <time>2012-01-30T13:35:36Z</time>
      </trkpt>
      <trkpt lat="44.60144" lon="0.84538">
        <ele>137</ele>
        <time>2012-01-30T13:35:37Z</time>
      </trkpt>
      <trkpt lat="44.60146" lon="0.84541">
        <ele>137</ele>
        <time>2012-01-30T13:35:38Z</time>
      </trkpt>
      <trkpt lat="44.60146" lon="0.84544">
        <ele>137</ele>
        <time>2012-01-30T13:35:39Z</time>
      </trkpt>
      <trkpt lat="44.60147" lon="0.84547">
        <ele>137</ele>
        <time>2012-01-30T13:35:40Z</time>
      </trkpt>
      <trkpt lat="44.60148" lon="0.8455">
        <ele>137</ele>
        <time>2012-01-30T13:35:41Z</time>
      </trkpt>
      <trkpt lat="44.60149" lon="0.84553">
        <ele>137</ele>
        <time>2012-01-30T13:35:42Z</time>
      </trkpt>
      <trkpt lat="44.6015" lon="0.84556">
        <ele>138</ele>
        <time>2012-01-30T13:35:43Z</time>
      </trkpt>
      <trkpt lat="44.60151" lon="0.84559">
        <ele>138</ele>
        <time>2012-01-30T13:35:44Z</time>
      </trkpt>
      <trkpt lat="44.60152" lon="0.84562">
        <ele>138</ele>
        <time>2012-01-30T13:35:45Z</time>
      </trkpt>
      <trkpt lat="44.60152" lon="0.84565">
        <ele>138</ele>
        <time>2012-01-30T13:35:46Z</time>
      </trkpt>
      <trkpt lat="44.60153" lon="0.84568">
        <ele>138</ele>
        <time>2012-01-30T13:35:47Z</time>
      </trkpt>
      <trkpt lat="44.60153" lon="0.84571">
        <ele>138</ele>
        <time>2012-01-30T13:35:48Z</time>
      </trkpt>
      <trkpt lat="44.60153" lon="0.84575">
        <ele>138</ele>
        <time>2012-01-30T13:35:49Z</time>
      </trkpt>
      <trkpt lat="44.60153" lon="0.84578">
        <ele>138</ele>
        <time>2012-01-30T13:35:50Z</time>
      </trkpt>
      <trkpt lat="44.60152" lon="0.84582">
        <ele>138</ele>
        <time>2012-01-30T13:35:51Z</time>
      </trkpt>
      <trkpt lat="44.60151" lon="0.84585">
        <ele>138</ele>
        <time>2012-01-30T13:35:52Z</time>
      </trkpt>
      <trkpt lat="44.60149" lon="0.84588">
        <ele>138</ele>
        <time>2012-01-30T13:35:53Z</time>
      </trkpt>
      <trkpt lat="44.60148" lon="0.84591">
        <ele>138</ele>
        <time>2012-01-30T13:35:54Z</time>
      </trkpt>
      <trkpt lat="44.60146" lon="0.84594">
        <ele>138</ele>
        <time>2012-01-30T13:35:55Z</time>
      </trkpt>
      <trkpt lat="44.60145" lon="0.84597">
        <ele>138</ele>
        <time>2012-01-30T13:35:56Z</time>
      </trkpt>
      <trkpt lat="44.60143" lon="0.84599">
        <ele>139</ele>
        <time>2012-01-30T13:35:57Z</time>
      </trkpt>
      <trkpt lat="44.60141" lon="0.84602">
        <ele>139</ele>
        <time>2012-01-30T13:35:58Z</time>
      </trkpt>
      <trkpt lat="44.6014" lon="0.84605">
        <ele>139</ele>
        <time>2012-01-30T13:35:59Z</time>
      </trkpt>
      <trkpt lat="44.60138" lon="0.84607">
        <ele>139</ele>
        <time>2012-01-30T13:36:00Z</time>
      </trkpt>
      <trkpt lat="44.60137" lon="0.8461">
        <ele>140</ele>
        <time>2012-01-30T13:36:01Z</time>
      </trkpt>
      <trkpt lat="44.60135" lon="0.84612">
        <ele>140</ele>
        <time>2012-01-30T13:36:02Z</time>
      </trkpt>
      <trkpt lat="44.60133" lon="0.84614">
        <ele>140</ele>
        <time>2012-01-30T13:36:03Z</time>
      </trkpt>
      <trkpt lat="44.60132" lon="0.84617">
        <ele>141</ele>
        <time>2012-01-30T13:36:04Z</time>
      </trkpt>
      <trkpt lat="44.6013" lon="0.8462">
        <ele>141</ele>
        <time>2012-01-30T13:36:05Z</time>
      </trkpt>
      <trkpt lat="44.60129" lon="0.84622">
        <ele>142</ele>
        <time>2012-01-30T13:36:06Z</time>
      </trkpt>
      <trkpt lat="44.60128" lon="0.84625">
        <ele>142</ele>
        <time>2012-01-30T13:36:07Z</time>
      </trkpt>
      <trkpt lat="44.60126" lon="0.84627">
        <ele>143</ele>
        <time>2012-01-30T13:36:08Z</time>
      </trkpt>
      <trkpt lat="44.60125" lon="0.8463">
        <ele>144</ele>
        <time>2012-01-30T13:36:09Z</time>
      </trkpt>
      <trkpt lat="44.60123" lon="0.84633">
        <ele>144</ele>
        <time>2012-01-30T13:36:10Z</time>
      </trkpt>
      <trkpt lat="44.60122" lon="0.84636">
        <ele>144</ele>
        <time>2012-01-30T13:36:11Z</time>
      </trkpt>
      <trkpt lat="44.6012" lon="0.84639">
        <ele>145</ele>
        <time>2012-01-30T13:36:12Z</time>
      </trkpt>
      <trkpt lat="44.60119" lon="0.84642">
        <ele>145</ele>
        <time>2012-01-30T13:36:13Z</time>
      </trkpt>
      <trkpt lat="44.60118" lon="0.84645">
        <ele>145</ele>
        <time>2012-01-30T13:36:14Z</time>
      </trkpt>
      <trkpt lat="44.60116" lon="0.84648">
        <ele>145</ele>
        <time>2012-01-30T13:36:15Z</time>
      </trkpt>
      <trkpt lat="44.60115" lon="0.84651">
        <ele>145</ele>
        <time>2012-01-30T13:36:16Z</time>
      </trkpt>
      <trkpt lat="44.60113" lon="0.84654">
        <ele>145</ele>
        <time>2012-01-30T13:36:17Z</time>
      </trkpt>
      <trkpt lat="44.60112" lon="0.84658">
        <ele>145</ele>
        <time>2012-01-30T13:36:18Z</time>
      </trkpt>
      <trkpt lat="44.6011" lon="0.84661">
        <ele>146</ele>
        <time>2012-01-30T13:36:19Z</time>
      </trkpt>
      <trkpt lat="44.60108" lon="0.84664">
        <ele>146</ele>
        <time>2012-01-30T13:36:20Z</time>
      </trkpt>
      <trkpt lat="44.60107" lon="0.84667">
        <ele>146</ele>
        <time>2012-01-30T13:36:21Z</time>
      </trkpt>
      <trkpt lat="44.60105" lon="0.84671">
        <ele>146</ele>
        <time>2012-01-30T13:36:22Z</time>
      </trkpt>
      <trkpt lat="44.60104" lon="0.84674">
        <ele>146</ele>
        <time>2012-01-30T13:36:23Z</time>
      </trkpt>
      <trkpt lat="44.60102" lon="0.84677">
        <ele>146</ele>
        <time>2012-01-30T13:36:24Z</time>
      </trkpt>
      <trkpt lat="44.60101" lon="0.8468">
        <ele>146</ele>
        <time>2012-01-30T13:36:25Z</time>
      </trkpt>
      <trkpt lat="44.60099" lon="0.84683">
        <ele>146</ele>
        <time>2012-01-30T13:36:26Z</time>
      </trkpt>
      <trkpt lat="44.60098" lon="0.84686">
        <ele>146</ele>
        <time>2012-01-30T13:36:27Z</time>
      </trkpt>
      <trkpt lat="44.60097" lon="0.84689">
        <ele>146</ele>
        <time>2012-01-30T13:36:28Z</time>
      </trkpt>
      <trkpt lat="44.60096" lon="0.84693">
        <ele>146</ele>
        <time>2012-01-30T13:36:29Z</time>
      </trkpt>
      <trkpt lat="44.60095" lon="0.84696">
        <ele>147</ele>
        <time>2012-01-30T13:36:30Z</time>
      </trkpt>
      <trkpt lat="44.60094" lon="0.84699">
        <ele>147</ele>
        <time>2012-01-30T13:36:31Z</time>
      </trkpt>
      <trkpt lat="44.60094" lon="0.84703">
        <ele>147</ele>
        <time>2012-01-30T13:36:32Z</time>
      </trkpt>
      <trkpt lat="44.60093" lon="0.84706">
        <ele>147</ele>
        <time>2012-01-30T13:36:33Z</time>
      </trkpt>
      <trkpt lat="44.60091" lon="0.84709">
        <ele>147</ele>
        <time>2012-01-30T13:36:34Z</time>
      </trkpt>
      <trkpt lat="44.60091" lon="0.84712">
        <ele>147</ele>
        <time>2012-01-30T13:36:35Z</time>
      </trkpt>
      <trkpt lat="44.6009" lon="0.84716">
        <ele>148</ele>
        <time>2012-01-30T13:36:36Z</time>
      </trkpt>
      <trkpt lat="44.60089" lon="0.84719">
        <ele>148</ele>
        <time>2012-01-30T13:36:37Z</time>
      </trkpt>
      <trkpt lat="44.60088" lon="0.84723">
        <ele>148</ele>
        <time>2012-01-30T13:36:38Z</time>
      </trkpt>
      <trkpt lat="44.60088" lon="0.84726">
        <ele>148</ele>
        <time>2012-01-30T13:36:39Z</time>
      </trkpt>
      <trkpt lat="44.60087" lon="0.8473">
        <ele>149</ele>
        <time>2012-01-30T13:36:40Z</time>
      </trkpt>
      <trkpt lat="44.60086" lon="0.84733">
        <ele>149</ele>
        <time>2012-01-30T13:36:41Z</time>
      </trkpt>
      <trkpt lat="44.60086" lon="0.84737">
        <ele>149</ele>
        <time>2012-01-30T13:36:42Z</time>
      </trkpt>
      <trkpt lat="44.60085" lon="0.84741">
        <ele>149</ele>
        <time>2012-01-30T13:36:43Z</time>
      </trkpt>
      <trkpt lat="44.60085" lon="0.84745">
        <ele>149</ele>
        <time>2012-01-30T13:36:44Z</time>
      </trkpt>
      <trkpt lat="44.60085" lon="0.84749">
        <ele>149</ele>
        <time>2012-01-30T13:36:45Z</time>
      </trkpt>
      <trkpt lat="44.60085" lon="0.84752">
        <ele>149</ele>
        <time>2012-01-30T13:36:46Z</time>
      </trkpt>
      <trkpt lat="44.60085" lon="0.84756">
        <ele>150</ele>
        <time>2012-01-30T13:36:47Z</time>
      </trkpt>
      <trkpt lat="44.60084" lon="0.84759">
        <ele>150</ele>
        <time>2012-01-30T13:36:48Z</time>
      </trkpt>
      <trkpt lat="44.60084" lon="0.84763">
        <ele>150</ele>
        <time>2012-01-30T13:36:49Z</time>
      </trkpt>
      <trkpt lat="44.60084" lon="0.84767">
        <ele>150</ele>
        <time>2012-01-30T13:36:50Z</time>
      </trkpt>
      <trkpt lat="44.60084" lon="0.84771">
        <ele>150</ele>
        <time>2012-01-30T13:36:51Z</time>
      </trkpt>
      <trkpt lat="44.60085" lon="0.84774">
        <ele>150</ele>
        <time>2012-01-30T13:36:52Z</time>
      </trkpt>
      <trkpt lat="44.60085" lon="0.84778">
        <ele>150</ele>
        <time>2012-01-30T13:36:53Z</time>
      </trkpt>
      <trkpt lat="44.60085" lon="0.84782">
        <ele>150</ele>
        <time>2012-01-30T13:36:54Z</time>
      </trkpt>
      <trkpt lat="44.60085" lon="0.84786">
        <ele>150</ele>
        <time>2012-01-30T13:36:55Z</time>
      </trkpt>
      <trkpt lat="44.60085" lon="0.8479">
        <ele>150</ele>
        <time>2012-01-30T13:36:56Z</time>
      </trkpt>
      <trkpt lat="44.60085" lon="0.84793">
        <ele>150</ele>
        <time>2012-01-30T13:36:57Z</time>
      </trkpt>
      <trkpt lat="44.60085" lon="0.84797">
        <ele>150</ele>
        <time>2012-01-30T13:36:58Z</time>
      </trkpt>
      <trkpt lat="44.60085" lon="0.848">
        <ele>151</ele>
        <time>2012-01-30T13:36:59Z</time>
      </trkpt>
      <trkpt lat="44.60085" lon="0.84804">
        <ele>151</ele>
        <time>2012-01-30T13:37:00Z</time>
      </trkpt>
      <trkpt lat="44.60085" lon="0.84808">
        <ele>151</ele>
        <time>2012-01-30T13:37:01Z</time>
      </trkpt>
      <trkpt lat="44.60085" lon="0.84812">
        <ele>151</ele>
        <time>2012-01-30T13:37:02Z</time>
      </trkpt>
      <trkpt lat="44.60085" lon="0.84815">
        <ele>151</ele>
        <time>2012-01-30T13:37:03Z</time>
      </trkpt>
      <trkpt lat="44.60085" lon="0.84819">
        <ele>152</ele>
        <time>2012-01-30T13:37:04Z</time>
      </trkpt>
      <trkpt lat="44.60085" lon="0.84822">
        <ele>152</ele>
        <time>2012-01-30T13:37:05Z</time>
      </trkpt>
      <trkpt lat="44.60085" lon="0.84826">
        <ele>152</ele>
        <time>2012-01-30T13:37:06Z</time>
      </trkpt>
      <trkpt lat="44.60086" lon="0.8483">
        <ele>152</ele>
        <time>2012-01-30T13:37:07Z</time>
      </trkpt>
      <trkpt lat="44.60086" lon="0.84833">
        <ele>152</ele>
        <time>2012-01-30T13:37:08Z</time>
      </trkpt>
      <trkpt lat="44.60086" lon="0.84837">
        <ele>152</ele>
        <time>2012-01-30T13:37:09Z</time>
      </trkpt>
      <trkpt lat="44.60086" lon="0.84841">
        <ele>153</ele>
        <time>2012-01-30T13:37:10Z</time>
      </trkpt>
      <trkpt lat="44.60086" lon="0.84844">
        <ele>153</ele>
        <time>2012-01-30T13:37:11Z</time>
      </trkpt>
      <trkpt lat="44.60086" lon="0.84848">
        <ele>153</ele>
        <time>2012-01-30T13:37:12Z</time>
      </trkpt>
      <trkpt lat="44.60086" lon="0.84851">
        <ele>153</ele>
        <time>2012-01-30T13:37:13Z</time>
      </trkpt>
      <trkpt lat="44.60086" lon="0.84855">
        <ele>153</ele>
        <time>2012-01-30T13:37:14Z</time>
      </trkpt>
      <trkpt lat="44.60086" lon="0.84859">
        <ele>153</ele>
        <time>2012-01-30T13:37:15Z</time>
      </trkpt>
      <trkpt lat="44.60086" lon="0.84863">
        <ele>154</ele>
        <time>2012-01-30T13:37:16Z</time>
      </trkpt>
      <trkpt lat="44.60086" lon="0.84866">
        <ele>154</ele>
        <time>2012-01-30T13:37:17Z</time>
      </trkpt>
      <trkpt lat="44.60086" lon="0.8487">
        <ele>154</ele>
        <time>2012-01-30T13:37:18Z</time>
      </trkpt>
      <trkpt lat="44.60086" lon="0.84874">
        <ele>154</ele>
        <time>2012-01-30T13:37:19Z</time>
      </trkpt>
      <trkpt lat="44.60086" lon="0.84878">
        <ele>154</ele>
        <time>2012-01-30T13:37:20Z</time>
      </trkpt>
      <trkpt lat="44.60085" lon="0.84882">
        <ele>154</ele>
        <time>2012-01-30T13:37:21Z</time>
      </trkpt>
      <trkpt lat="44.60085" lon="0.84886">
        <ele>154</ele>
        <time>2012-01-30T13:37:22Z</time>
      </trkpt>
      <trkpt lat="44.60085" lon="0.8489">
        <ele>155</ele>
        <time>2012-01-30T13:37:23Z</time>
      </trkpt>
      <trkpt lat="44.60085" lon="0.84894">
        <ele>155</ele>
        <time>2012-01-30T13:37:24Z</time>
      </trkpt>
      <trkpt lat="44.60084" lon="0.84897">
        <ele>155</ele>
        <time>2012-01-30T13:37:25Z</time>
      </trkpt>
      <trkpt lat="44.60084" lon="0.84901">
        <ele>155</ele>
        <time>2012-01-30T13:37:26Z</time>
      </trkpt>
      <trkpt lat="44.60084" lon="0.84905">
        <ele>155</ele>
        <time>2012-01-30T13:37:27Z</time>
      </trkpt>
      <trkpt lat="44.60083" lon="0.84908">
        <ele>155</ele>
        <time>2012-01-30T13:37:28Z</time>
      </trkpt>
      <trkpt lat="44.60083" lon="0.84912">
        <ele>155</ele>
        <time>2012-01-30T13:37:29Z</time>
      </trkpt>
      <trkpt lat="44.60083" lon="0.84916">
        <ele>155</ele>
        <time>2012-01-30T13:37:30Z</time>
      </trkpt>
      <trkpt lat="44.60083" lon="0.8492">
        <ele>155</ele>
        <time>2012-01-30T13:37:31Z</time>
      </trkpt>
      <trkpt lat="44.60082" lon="0.84924">
        <ele>155</ele>
        <time>2012-01-30T13:37:32Z</time>
      </trkpt>
      <trkpt lat="44.60081" lon="0.84927">
        <ele>155</ele>
        <time>2012-01-30T13:37:33Z</time>
      </trkpt>
      <trkpt lat="44.60081" lon="0.84931">
        <ele>155</ele>
        <time>2012-01-30T13:37:34Z</time>
      </trkpt>
      <trkpt lat="44.6008" lon="0.84934">
        <ele>155</ele>
        <time>2012-01-30T13:37:35Z</time>
      </trkpt>
      <trkpt lat="44.60079" lon="0.84938">
        <ele>156</ele>
        <time>2012-01-30T13:37:36Z</time>
      </trkpt>
      <trkpt lat="44.60078" lon="0.84942">
        <ele>156</ele>
        <time>2012-01-30T13:37:37Z</time>
      </trkpt>
      <trkpt lat="44.60077" lon="0.84947">
        <ele>156</ele>
        <time>2012-01-30T13:37:38Z</time>
      </trkpt>
      <trkpt lat="44.60076" lon="0.84951">
        <ele>156</ele>
        <time>2012-01-30T13:37:39Z</time>
      </trkpt>
      <trkpt lat="44.60075" lon="0.84956">
        <ele>157</ele>
        <time>2012-01-30T13:37:40Z</time>
      </trkpt>
      <trkpt lat="44.60073" lon="0.8496">
        <ele>157</ele>
        <time>2012-01-30T13:37:41Z</time>
      </trkpt>
      <trkpt lat="44.60072" lon="0.84964">
        <ele>157</ele>
        <time>2012-01-30T13:37:42Z</time>
      </trkpt>
      <trkpt lat="44.60071" lon="0.84969">
        <ele>157</ele>
        <time>2012-01-30T13:37:43Z</time>
      </trkpt>
      <trkpt lat="44.6007" lon="0.84973">
        <ele>157</ele>
        <time>2012-01-30T13:37:44Z</time>
      </trkpt>
      <trkpt lat="44.60069" lon="0.84978">
        <ele>157</ele>
        <time>2012-01-30T13:37:45Z</time>
      </trkpt>
      <trkpt lat="44.60068" lon="0.84982">
        <ele>157</ele>
        <time>2012-01-30T13:37:46Z</time>
      </trkpt>
      <trkpt lat="44.60067" lon="0.84986">
        <ele>158</ele>
        <time>2012-01-30T13:37:47Z</time>
      </trkpt>
      <trkpt lat="44.60065" lon="0.84991">
        <ele>158</ele>
        <time>2012-01-30T13:37:48Z</time>
      </trkpt>
      <trkpt lat="44.60064" lon="0.84995">
        <ele>158</ele>
        <time>2012-01-30T13:37:49Z</time>
      </trkpt>
      <trkpt lat="44.60063" lon="0.85">
        <ele>158</ele>
        <time>2012-01-30T13:37:50Z</time>
      </trkpt>
      <trkpt lat="44.60062" lon="0.85005">
        <ele>158</ele>
        <time>2012-01-30T13:37:51Z</time>
      </trkpt>
      <trkpt lat="44.60061" lon="0.8501">
        <ele>158</ele>
        <time>2012-01-30T13:37:52Z</time>
      </trkpt>
      <trkpt lat="44.6006" lon="0.85015">
        <ele>158</ele>
        <time>2012-01-30T13:37:53Z</time>
      </trkpt>
      <trkpt lat="44.60059" lon="0.8502">
        <ele>158</ele>
        <time>2012-01-30T13:37:54Z</time>
      </trkpt>
      <trkpt lat="44.60059" lon="0.85024">
        <ele>158</ele>
        <time>2012-01-30T13:37:55Z</time>
      </trkpt>
      <trkpt lat="44.60058" lon="0.85029">
        <ele>158</ele>
        <time>2012-01-30T13:37:56Z</time>
      </trkpt>
      <trkpt lat="44.60058" lon="0.85034">
        <ele>158</ele>
        <time>2012-01-30T13:37:57Z</time>
      </trkpt>
      <trkpt lat="44.60057" lon="0.85039">
        <ele>158</ele>
        <time>2012-01-30T13:37:58Z</time>
      </trkpt>
      <trkpt lat="44.60057" lon="0.85044">
        <ele>158</ele>
        <time>2012-01-30T13:37:59Z</time>
      </trkpt>
      <trkpt lat="44.60057" lon="0.85049">
        <ele>159</ele>
        <time>2012-01-30T13:38:00Z</time>
      </trkpt>
      <trkpt lat="44.60057" lon="0.85053">
        <ele>159</ele>
        <time>2012-01-30T13:38:01Z</time>
      </trkpt>
      <trkpt lat="44.60056" lon="0.85058">
        <ele>159</ele>
        <time>2012-01-30T13:38:02Z</time>
      </trkpt>
      <trkpt lat="44.60056" lon="0.85063">
        <ele>159</ele>
        <time>2012-01-30T13:38:03Z</time>
      </trkpt>
      <trkpt lat="44.60055" lon="0.85068">
        <ele>160</ele>
        <time>2012-01-30T13:38:04Z</time>
      </trkpt>
      <trkpt lat="44.60054" lon="0.85073">
        <ele>160</ele>
        <time>2012-01-30T13:38:05Z</time>
      </trkpt>
      <trkpt lat="44.60054" lon="0.85079">
        <ele>160</ele>
        <time>2012-01-30T13:38:06Z</time>
      </trkpt>
      <trkpt lat="44.60053" lon="0.85084">
        <ele>160</ele>
        <time>2012-01-30T13:38:07Z</time>
      </trkpt>
      <trkpt lat="44.60052" lon="0.85089">
        <ele>161</ele>
        <time>2012-01-30T13:38:08Z</time>
      </trkpt>
      <trkpt lat="44.60051" lon="0.85094">
        <ele>161</ele>
        <time>2012-01-30T13:38:09Z</time>
      </trkpt>
      <trkpt lat="44.60049" lon="0.85099">
        <ele>161</ele>
        <time>2012-01-30T13:38:10Z</time>
      </trkpt>
      <trkpt lat="44.60048" lon="0.85104">
        <ele>161</ele>
        <time>2012-01-30T13:38:11Z</time>
      </trkpt>
      <trkpt lat="44.60047" lon="0.85109">
        <ele>162</ele>
        <time>2012-01-30T13:38:12Z</time>
      </trkpt>
      <trkpt lat="44.60046" lon="0.85114">
        <ele>162</ele>
        <time>2012-01-30T13:38:13Z</time>
      </trkpt>
      <trkpt lat="44.60044" lon="0.85119">
        <ele>162</ele>
        <time>2012-01-30T13:38:14Z</time>
      </trkpt>
      <trkpt lat="44.60043" lon="0.85124">
        <ele>162</ele>
        <time>2012-01-30T13:38:15Z</time>
      </trkpt>
      <trkpt lat="44.60041" lon="0.8513">
        <ele>162</ele>
        <time>2012-01-30T13:38:16Z</time>
      </trkpt>
      <trkpt lat="44.6004" lon="0.85135">
        <ele>163</ele>
        <time>2012-01-30T13:38:17Z</time>
      </trkpt>
      <trkpt lat="44.60039" lon="0.8514">
        <ele>163</ele>
        <time>2012-01-30T13:38:18Z</time>
      </trkpt>
      <trkpt lat="44.60037" lon="0.85145">
        <ele>163</ele>
        <time>2012-01-30T13:38:19Z</time>
      </trkpt>
      <trkpt lat="44.60036" lon="0.85151">
        <ele>163</ele>
        <time>2012-01-30T13:38:20Z</time>
      </trkpt>
      <trkpt lat="44.60035" lon="0.85156">
        <ele>163</ele>
        <time>2012-01-30T13:38:21Z</time>
      </trkpt>
      <trkpt lat="44.60033" lon="0.85162">
        <ele>163</ele>
        <time>2012-01-30T13:38:22Z</time>
      </trkpt>
      <trkpt lat="44.60032" lon="0.85167">
        <ele>163</ele>
        <time>2012-01-30T13:38:23Z</time>
      </trkpt>
      <trkpt lat="44.6003" lon="0.85172">
        <ele>163</ele>
        <time>2012-01-30T13:38:24Z</time>
      </trkpt>
      <trkpt lat="44.60029" lon="0.85177">
        <ele>163</ele>
        <time>2012-01-30T13:38:25Z</time>
      </trkpt>
      <trkpt lat="44.60027" lon="0.85182">
        <ele>163</ele>
        <time>2012-01-30T13:38:26Z</time>
      </trkpt>
      <trkpt lat="44.60026" lon="0.85188">
        <ele>163</ele>
        <time>2012-01-30T13:38:27Z</time>
      </trkpt>
      <trkpt lat="44.60025" lon="0.85194">
        <ele>163</ele>
        <time>2012-01-30T13:38:28Z</time>
      </trkpt>
      <trkpt lat="44.60023" lon="0.85201">
        <ele>163</ele>
        <time>2012-01-30T13:38:29Z</time>
      </trkpt>
      <trkpt lat="44.60022" lon="0.85207">
        <ele>163</ele>
        <time>2012-01-30T13:38:30Z</time>
      </trkpt>
      <trkpt lat="44.60021" lon="0.85212">
        <ele>163</ele>
        <time>2012-01-30T13:38:31Z</time>
      </trkpt>
      <trkpt lat="44.60019" lon="0.85219">
        <ele>163</ele>
        <time>2012-01-30T13:38:32Z</time>
      </trkpt>
      <trkpt lat="44.60018" lon="0.85224">
        <ele>163</ele>
        <time>2012-01-30T13:38:33Z</time>
      </trkpt>
      <trkpt lat="44.60017" lon="0.85231">
        <ele>163</ele>
        <time>2012-01-30T13:38:34Z</time>
      </trkpt>
      <trkpt lat="44.60015" lon="0.85238">
        <ele>163</ele>
        <time>2012-01-30T13:38:35Z</time>
      </trkpt>
      <trkpt lat="44.60014" lon="0.85244">
        <ele>163</ele>
        <time>2012-01-30T13:38:36Z</time>
      </trkpt>
      <trkpt lat="44.60012" lon="0.8525">
        <ele>163</ele>
        <time>2012-01-30T13:38:37Z</time>
      </trkpt>
      <trkpt lat="44.60011" lon="0.85256">
        <ele>163</ele>
        <time>2012-01-30T13:38:38Z</time>
      </trkpt>
      <trkpt lat="44.60008" lon="0.85261">
        <ele>163</ele>
        <time>2012-01-30T13:38:39Z</time>
      </trkpt>
      <trkpt lat="44.60006" lon="0.85267">
        <ele>163</ele>
        <time>2012-01-30T13:38:40Z</time>
      </trkpt>
      <trkpt lat="44.60003" lon="0.85271">
        <ele>163</ele>
        <time>2012-01-30T13:38:41Z</time>
      </trkpt>
      <trkpt lat="44.6" lon="0.85276">
        <ele>163</ele>
        <time>2012-01-30T13:38:42Z</time>
      </trkpt>
      <trkpt lat="44.59997" lon="0.85281">
        <ele>163</ele>
        <time>2012-01-30T13:38:43Z</time>
      </trkpt>
      <trkpt lat="44.59995" lon="0.85285">
        <ele>163</ele>
        <time>2012-01-30T13:38:44Z</time>
      </trkpt>
      <trkpt lat="44.59992" lon="0.8529">
        <ele>163</ele>
        <time>2012-01-30T13:38:45Z</time>
      </trkpt>
      <trkpt lat="44.5999" lon="0.85295">
        <ele>163</ele>
        <time>2012-01-30T13:38:46Z</time>
      </trkpt>
      <trkpt lat="44.59987" lon="0.853">
        <ele>163</ele>
        <time>2012-01-30T13:38:47Z</time>
      </trkpt>
      <trkpt lat="44.59985" lon="0.85306">
        <ele>164</ele>
        <time>2012-01-30T13:38:48Z</time>
      </trkpt>
      <trkpt lat="44.59982" lon="0.85311">
        <ele>164</ele>
        <time>2012-01-30T13:38:49Z</time>
      </trkpt>
      <trkpt lat="44.5998" lon="0.85316">
        <ele>164</ele>
        <time>2012-01-30T13:38:50Z</time>
      </trkpt>
      <trkpt lat="44.59978" lon="0.85321">
        <ele>164</ele>
        <time>2012-01-30T13:38:51Z</time>
      </trkpt>
      <trkpt lat="44.59976" lon="0.85326">
        <ele>165</ele>
        <time>2012-01-30T13:38:52Z</time>
      </trkpt>
      <trkpt lat="44.59974" lon="0.85332">
        <ele>165</ele>
        <time>2012-01-30T13:38:53Z</time>
      </trkpt>
      <trkpt lat="44.59972" lon="0.85337">
        <ele>165</ele>
        <time>2012-01-30T13:38:54Z</time>
      </trkpt>
      <trkpt lat="44.5997" lon="0.85343">
        <ele>165</ele>
        <time>2012-01-30T13:38:55Z</time>
      </trkpt>
      <trkpt lat="44.59968" lon="0.85348">
        <ele>166</ele>
        <time>2012-01-30T13:38:56Z</time>
      </trkpt>
      <trkpt lat="44.59966" lon="0.85353">
        <ele>166</ele>
        <time>2012-01-30T13:38:57Z</time>
      </trkpt>
      <trkpt lat="44.59963" lon="0.85358">
        <ele>166</ele>
        <time>2012-01-30T13:38:58Z</time>
      </trkpt>
      <trkpt lat="44.59961" lon="0.85364">
        <ele>166</ele>
        <time>2012-01-30T13:38:59Z</time>
      </trkpt>
      <trkpt lat="44.59959" lon="0.85369">
        <ele>166</ele>
        <time>2012-01-30T13:39:00Z</time>
      </trkpt>
      <trkpt lat="44.59956" lon="0.85374">
        <ele>166</ele>
        <time>2012-01-30T13:39:01Z</time>
      </trkpt>
      <trkpt lat="44.59953" lon="0.85378">
        <ele>166</ele>
        <time>2012-01-30T13:39:02Z</time>
      </trkpt>
      <trkpt lat="44.59951" lon="0.85382">
        <ele>166</ele>
        <time>2012-01-30T13:39:03Z</time>
      </trkpt>
      <trkpt lat="44.59948" lon="0.85387">
        <ele>166</ele>
        <time>2012-01-30T13:39:04Z</time>
      </trkpt>
      <trkpt lat="44.59946" lon="0.85392">
        <ele>166</ele>
        <time>2012-01-30T13:39:05Z</time>
      </trkpt>
      <trkpt lat="44.59943" lon="0.85398">
        <ele>166</ele>
        <time>2012-01-30T13:39:06Z</time>
      </trkpt>
      <trkpt lat="44.59941" lon="0.85403">
        <ele>166</ele>
        <time>2012-01-30T13:39:07Z</time>
      </trkpt>
      <trkpt lat="44.59938" lon="0.85407">
        <ele>166</ele>
        <time>2012-01-30T13:39:08Z</time>
      </trkpt>
      <trkpt lat="44.59936" lon="0.85412">
        <ele>166</ele>
        <time>2012-01-30T13:39:09Z</time>
      </trkpt>
      <trkpt lat="44.59933" lon="0.85415">
        <ele>166</ele>
        <time>2012-01-30T13:39:10Z</time>
      </trkpt>
      <trkpt lat="44.5993" lon="0.85418">
        <ele>166</ele>
        <time>2012-01-30T13:39:11Z</time>
      </trkpt>
      <trkpt lat="44.59927" lon="0.85423">
        <ele>166</ele>
        <time>2012-01-30T13:39:12Z</time>
      </trkpt>
      <trkpt lat="44.59924" lon="0.85427">
        <ele>166</ele>
        <time>2012-01-30T13:39:13Z</time>
      </trkpt>
      <trkpt lat="44.59922" lon="0.85432">
        <ele>166</ele>
        <time>2012-01-30T13:39:14Z</time>
      </trkpt>
      <trkpt lat="44.59919" lon="0.85437">
        <ele>166</ele>
        <time>2012-01-30T13:39:15Z</time>
      </trkpt>
      <trkpt lat="44.59917" lon="0.85442">
        <ele>166</ele>
        <time>2012-01-30T13:39:16Z</time>
      </trkpt>
      <trkpt lat="44.59915" lon="0.85447">
        <ele>166</ele>
        <time>2012-01-30T13:39:17Z</time>
      </trkpt>
      <trkpt lat="44.59913" lon="0.85452">
        <ele>166</ele>
        <time>2012-01-30T13:39:18Z</time>
      </trkpt>
      <trkpt lat="44.59911" lon="0.85458">
        <ele>167</ele>
        <time>2012-01-30T13:39:19Z</time>
      </trkpt>
      <trkpt lat="44.5991" lon="0.85464">
        <ele>167</ele>
        <time>2012-01-30T13:39:20Z</time>
      </trkpt>
      <trkpt lat="44.59909" lon="0.8547">
        <ele>168</ele>
        <time>2012-01-30T13:39:21Z</time>
      </trkpt>
      <trkpt lat="44.59908" lon="0.85475">
        <ele>168</ele>
        <time>2012-01-30T13:39:22Z</time>
      </trkpt>
      <trkpt lat="44.59906" lon="0.85481">
        <ele>168</ele>
        <time>2012-01-30T13:39:23Z</time>
      </trkpt>
      <trkpt lat="44.59904" lon="0.85486">
        <ele>168</ele>
        <time>2012-01-30T13:39:24Z</time>
      </trkpt>
      <trkpt lat="44.59902" lon="0.85492">
        <ele>169</ele>
        <time>2012-01-30T13:39:25Z</time>
      </trkpt>
      <trkpt lat="44.599" lon="0.85496">
        <ele>169</ele>
        <time>2012-01-30T13:39:26Z</time>
      </trkpt>
      <trkpt lat="44.59897" lon="0.85502">
        <ele>169</ele>
        <time>2012-01-30T13:39:27Z</time>
      </trkpt>
      <trkpt lat="44.59895" lon="0.85506">
        <ele>169</ele>
        <time>2012-01-30T13:39:28Z</time>
      </trkpt>
      <trkpt lat="44.59893" lon="0.85511">
        <ele>169</ele>
        <time>2012-01-30T13:39:29Z</time>
      </trkpt>
      <trkpt lat="44.5989" lon="0.85516">
        <ele>169</ele>
        <time>2012-01-30T13:39:30Z</time>
      </trkpt>
      <trkpt lat="44.59888" lon="0.8552">
        <ele>169</ele>
        <time>2012-01-30T13:39:31Z</time>
      </trkpt>
      <trkpt lat="44.59886" lon="0.85525">
        <ele>170</ele>
        <time>2012-01-30T13:39:32Z</time>
      </trkpt>
      <trkpt lat="44.59884" lon="0.8553">
        <ele>170</ele>
        <time>2012-01-30T13:39:33Z</time>
      </trkpt>
      <trkpt lat="44.59882" lon="0.85535">
        <ele>170</ele>
        <time>2012-01-30T13:39:34Z</time>
      </trkpt>
      <trkpt lat="44.59879" lon="0.85539">
        <ele>171</ele>
        <time>2012-01-30T13:39:35Z</time>
      </trkpt>
      <trkpt lat="44.59877" lon="0.85544">
        <ele>171</ele>
        <time>2012-01-30T13:39:36Z</time>
      </trkpt>
      <trkpt lat="44.59875" lon="0.8555">
        <ele>172</ele>
        <time>2012-01-30T13:39:37Z</time>
      </trkpt>
      <trkpt lat="44.59874" lon="0.85555">
        <ele>172</ele>
        <time>2012-01-30T13:39:38Z</time>
      </trkpt>
      <trkpt lat="44.59872" lon="0.85561">
        <ele>173</ele>
        <time>2012-01-30T13:39:39Z</time>
      </trkpt>
      <trkpt lat="44.5987" lon="0.85566">
        <ele>173</ele>
        <time>2012-01-30T13:39:40Z</time>
      </trkpt>
      <trkpt lat="44.59869" lon="0.85572">
        <ele>174</ele>
        <time>2012-01-30T13:39:41Z</time>
      </trkpt>
      <trkpt lat="44.59868" lon="0.85578">
        <ele>174</ele>
        <time>2012-01-30T13:39:42Z</time>
      </trkpt>
      <trkpt lat="44.59866" lon="0.85584">
        <ele>175</ele>
        <time>2012-01-30T13:39:43Z</time>
      </trkpt>
      <trkpt lat="44.59865" lon="0.85591">
        <ele>175</ele>
        <time>2012-01-30T13:39:44Z</time>
      </trkpt>
      <trkpt lat="44.59863" lon="0.85597">
        <ele>175</ele>
        <time>2012-01-30T13:39:45Z</time>
      </trkpt>
      <trkpt lat="44.59862" lon="0.85602">
        <ele>175</ele>
        <time>2012-01-30T13:39:46Z</time>
      </trkpt>
      <trkpt lat="44.59861" lon="0.85608">
        <ele>175</ele>
        <time>2012-01-30T13:39:47Z</time>
      </trkpt>
      <trkpt lat="44.59859" lon="0.85613">
        <ele>175</ele>
        <time>2012-01-30T13:39:48Z</time>
      </trkpt>
      <trkpt lat="44.59858" lon="0.85619">
        <ele>175</ele>
        <time>2012-01-30T13:39:49Z</time>
      </trkpt>
      <trkpt lat="44.59856" lon="0.85625">
        <ele>175</ele>
        <time>2012-01-30T13:39:50Z</time>
      </trkpt>
      <trkpt lat="44.59855" lon="0.8563">
        <ele>176</ele>
        <time>2012-01-30T13:39:51Z</time>
      </trkpt>
      <trkpt lat="44.59853" lon="0.85636">
        <ele>176</ele>
        <time>2012-01-30T13:39:52Z</time>
      </trkpt>
      <trkpt lat="44.59852" lon="0.85641">
        <ele>176</ele>
        <time>2012-01-30T13:39:53Z</time>
      </trkpt>
      <trkpt lat="44.59851" lon="0.85646">
        <ele>176</ele>
        <time>2012-01-30T13:39:54Z</time>
      </trkpt>
      <trkpt lat="44.5985" lon="0.85652">
        <ele>176</ele>
        <time>2012-01-30T13:39:55Z</time>
      </trkpt>
      <trkpt lat="44.59848" lon="0.85659">
        <ele>176</ele>
        <time>2012-01-30T13:39:56Z</time>
      </trkpt>
      <trkpt lat="44.59847" lon="0.85666">
        <ele>176</ele>
        <time>2012-01-30T13:39:57Z</time>
      </trkpt>
      <trkpt lat="44.59845" lon="0.85674">
        <ele>176</ele>
        <time>2012-01-30T13:39:58Z</time>
      </trkpt>
      <trkpt lat="44.59844" lon="0.85682">
        <ele>176</ele>
        <time>2012-01-30T13:39:59Z</time>
      </trkpt>
      <trkpt lat="44.59843" lon="0.85691">
        <ele>176</ele>
        <time>2012-01-30T13:40:00Z</time>
      </trkpt>
      <trkpt lat="44.59841" lon="0.85699">
        <ele>176</ele>
        <time>2012-01-30T13:40:01Z</time>
      </trkpt>
      <trkpt lat="44.5984" lon="0.85707">
        <ele>176</ele>
        <time>2012-01-30T13:40:02Z</time>
      </trkpt>
      <trkpt lat="44.5984" lon="0.85715">
        <ele>176</ele>
        <time>2012-01-30T13:40:03Z</time>
      </trkpt>
      <trkpt lat="44.59839" lon="0.85723">
        <ele>176</ele>
        <time>2012-01-30T13:40:04Z</time>
      </trkpt>
      <trkpt lat="44.59838" lon="0.85732">
        <ele>176</ele>
        <time>2012-01-30T13:40:05Z</time>
      </trkpt>
      <trkpt lat="44.59837" lon="0.8574">
        <ele>175</ele>
        <time>2012-01-30T13:40:06Z</time>
      </trkpt>
      <trkpt lat="44.59837" lon="0.85747">
        <ele>175</ele>
        <time>2012-01-30T13:40:07Z</time>
      </trkpt>
      <trkpt lat="44.59837" lon="0.85755">
        <ele>175</ele>
        <time>2012-01-30T13:40:08Z</time>
      </trkpt>
      <trkpt lat="44.59837" lon="0.8576">
        <ele>175</ele>
        <time>2012-01-30T13:40:09Z</time>
      </trkpt>
      <trkpt lat="44.59837" lon="0.85765">
        <ele>175</ele>
        <time>2012-01-30T13:40:10Z</time>
      </trkpt>
      <trkpt lat="44.59836" lon="0.85769">
        <ele>175</ele>
        <time>2012-01-30T13:40:11Z</time>
      </trkpt>
      <trkpt lat="44.59836" lon="0.85772">
        <ele>175</ele>
        <time>2012-01-30T13:40:12Z</time>
      </trkpt>
      <trkpt lat="44.59836" lon="0.85774">
        <ele>175</ele>
        <time>2012-01-30T13:40:13Z</time>
      </trkpt>
      <trkpt lat="44.59836" lon="0.85778">
        <ele>175</ele>
        <time>2012-01-30T13:40:14Z</time>
      </trkpt>
      <trkpt lat="44.59836" lon="0.85781">
        <ele>175</ele>
        <time>2012-01-30T13:40:15Z</time>
      </trkpt>
      <trkpt lat="44.59836" lon="0.85785">
        <ele>175</ele>
        <time>2012-01-30T13:40:16Z</time>
      </trkpt>
      <trkpt lat="44.59836" lon="0.8579">
        <ele>175</ele>
        <time>2012-01-30T13:40:17Z</time>
      </trkpt>
      <trkpt lat="44.59836" lon="0.85795">
        <ele>175</ele>
        <time>2012-01-30T13:40:18Z</time>
      </trkpt>
      <trkpt lat="44.59837" lon="0.858">
        <ele>175</ele>
        <time>2012-01-30T13:40:19Z</time>
      </trkpt>
      <trkpt lat="44.59837" lon="0.85804">
        <ele>175</ele>
        <time>2012-01-30T13:40:20Z</time>
      </trkpt>
      <trkpt lat="44.59837" lon="0.85809">
        <ele>175</ele>
        <time>2012-01-30T13:40:21Z</time>
      </trkpt>
      <trkpt lat="44.59836" lon="0.85814">
        <ele>176</ele>
        <time>2012-01-30T13:40:22Z</time>
      </trkpt>
      <trkpt lat="44.59836" lon="0.8582">
        <ele>176</ele>
        <time>2012-01-30T13:40:23Z</time>
      </trkpt>
      <trkpt lat="44.59835" lon="0.85825">
        <ele>176</ele>
        <time>2012-01-30T13:40:24Z</time>
      </trkpt>
      <trkpt lat="44.59835" lon="0.85831">
        <ele>177</ele>
        <time>2012-01-30T13:40:25Z</time>
      </trkpt>
      <trkpt lat="44.59835" lon="0.85836">
        <ele>177</ele>
        <time>2012-01-30T13:40:26Z</time>
      </trkpt>
      <trkpt lat="44.59835" lon="0.85841">
        <ele>177</ele>
        <time>2012-01-30T13:40:27Z</time>
      </trkpt>
      <trkpt lat="44.59835" lon="0.85847">
        <ele>177</ele>
        <time>2012-01-30T13:40:28Z</time>
      </trkpt>
      <trkpt lat="44.59835" lon="0.85854">
        <ele>177</ele>
        <time>2012-01-30T13:40:29Z</time>
      </trkpt>
      <trkpt lat="44.59835" lon="0.8586">
        <ele>177</ele>
        <time>2012-01-30T13:40:30Z</time>
      </trkpt>
      <trkpt lat="44.59836" lon="0.85866">
        <ele>177</ele>
        <time>2012-01-30T13:40:31Z</time>
      </trkpt>
      <trkpt lat="44.59836" lon="0.85873">
        <ele>177</ele>
        <time>2012-01-30T13:40:32Z</time>
      </trkpt>
      <trkpt lat="44.59836" lon="0.85878">
        <ele>177</ele>
        <time>2012-01-30T13:40:33Z</time>
      </trkpt>
      <trkpt lat="44.59836" lon="0.85883">
        <ele>177</ele>
        <time>2012-01-30T13:40:34Z</time>
      </trkpt>
      <trkpt lat="44.59837" lon="0.8589">
        <ele>177</ele>
        <time>2012-01-30T13:40:35Z</time>
      </trkpt>
      <trkpt lat="44.59838" lon="0.85895">
        <ele>177</ele>
        <time>2012-01-30T13:40:36Z</time>
      </trkpt>
      <trkpt lat="44.59838" lon="0.85901">
        <ele>177</ele>
        <time>2012-01-30T13:40:37Z</time>
      </trkpt>
      <trkpt lat="44.59838" lon="0.85906">
        <ele>177</ele>
        <time>2012-01-30T13:40:38Z</time>
      </trkpt>
      <trkpt lat="44.59838" lon="0.8591">
        <ele>177</ele>
        <time>2012-01-30T13:40:39Z</time>
      </trkpt>
      <trkpt lat="44.59839" lon="0.85917">
        <ele>177</ele>
        <time>2012-01-30T13:40:40Z</time>
      </trkpt>
      <trkpt lat="44.59839" lon="0.85922">
        <ele>177</ele>
        <time>2012-01-30T13:40:41Z</time>
      </trkpt>
      <trkpt lat="44.5984" lon="0.85928">
        <ele>177</ele>
        <time>2012-01-30T13:40:42Z</time>
      </trkpt>
      <trkpt lat="44.59842" lon="0.85933">
        <ele>177</ele>
        <time>2012-01-30T13:40:43Z</time>
      </trkpt>
      <trkpt lat="44.59843" lon="0.85937">
        <ele>177</ele>
        <time>2012-01-30T13:40:44Z</time>
      </trkpt>
      <trkpt lat="44.59844" lon="0.8594">
        <ele>177</ele>
        <time>2012-01-30T13:40:45Z</time>
      </trkpt>
      <trkpt lat="44.59845" lon="0.85944">
        <ele>177</ele>
        <time>2012-01-30T13:40:46Z</time>
      </trkpt>
      <trkpt lat="44.59847" lon="0.85948">
        <ele>177</ele>
        <time>2012-01-30T13:40:47Z</time>
      </trkpt>
      <trkpt lat="44.59848" lon="0.85953">
        <ele>177</ele>
        <time>2012-01-30T13:40:48Z</time>
      </trkpt>
      <trkpt lat="44.5985" lon="0.85959">
        <ele>177</ele>
        <time>2012-01-30T13:40:49Z</time>
      </trkpt>
      <trkpt lat="44.59853" lon="0.85964">
        <ele>177</ele>
        <time>2012-01-30T13:40:50Z</time>
      </trkpt>
      <trkpt lat="44.59855" lon="0.85968">
        <ele>177</ele>
        <time>2012-01-30T13:40:51Z</time>
      </trkpt>
      <trkpt lat="44.59858" lon="0.85973">
        <ele>177</ele>
        <time>2012-01-30T13:40:52Z</time>
      </trkpt>
      <trkpt lat="44.5986" lon="0.85977">
        <ele>177</ele>
        <time>2012-01-30T13:40:53Z</time>
      </trkpt>
      <trkpt lat="44.59861" lon="0.85982">
        <ele>177</ele>
        <time>2012-01-30T13:40:54Z</time>
      </trkpt>
      <trkpt lat="44.59863" lon="0.85987">
        <ele>177</ele>
        <time>2012-01-30T13:40:55Z</time>
      </trkpt>
      <trkpt lat="44.59864" lon="0.85992">
        <ele>177</ele>
        <time>2012-01-30T13:40:56Z</time>
      </trkpt>
      <trkpt lat="44.59865" lon="0.85996">
        <ele>177</ele>
        <time>2012-01-30T13:40:57Z</time>
      </trkpt>
      <trkpt lat="44.59866" lon="0.86001">
        <ele>177</ele>
        <time>2012-01-30T13:40:58Z</time>
      </trkpt>
      <trkpt lat="44.59867" lon="0.86007">
        <ele>177</ele>
        <time>2012-01-30T13:40:59Z</time>
      </trkpt>
      <trkpt lat="44.59869" lon="0.86012">
        <ele>177</ele>
        <time>2012-01-30T13:41:00Z</time>
      </trkpt>
      <trkpt lat="44.59869" lon="0.86017">
        <ele>177</ele>
        <time>2012-01-30T13:41:01Z</time>
      </trkpt>
      <trkpt lat="44.5987" lon="0.86023">
        <ele>177</ele>
        <time>2012-01-30T13:41:02Z</time>
      </trkpt>
      <trkpt lat="44.5987" lon="0.86028">
        <ele>177</ele>
        <time>2012-01-30T13:41:03Z</time>
      </trkpt>
      <trkpt lat="44.5987" lon="0.86033">
        <ele>177</ele>
        <time>2012-01-30T13:41:04Z</time>
      </trkpt>
      <trkpt lat="44.5987" lon="0.86039">
        <ele>177</ele>
        <time>2012-01-30T13:41:05Z</time>
      </trkpt>
      <trkpt lat="44.59871" lon="0.86044">
        <ele>177</ele>
        <time>2012-01-30T13:41:06Z</time>
      </trkpt>
      <trkpt lat="44.59871" lon="0.86048">
        <ele>177</ele>
        <time>2012-01-30T13:41:07Z</time>
      </trkpt>
      <trkpt lat="44.59872" lon="0.86054">
        <ele>177</ele>
        <time>2012-01-30T13:41:08Z</time>
      </trkpt>
      <trkpt lat="44.59872" lon="0.86058">
        <ele>177</ele>
        <time>2012-01-30T13:41:09Z</time>
      </trkpt>
      <trkpt lat="44.59872" lon="0.86063">
        <ele>177</ele>
        <time>2012-01-30T13:41:10Z</time>
      </trkpt>
      <trkpt lat="44.59873" lon="0.86067">
        <ele>177</ele>
        <time>2012-01-30T13:41:11Z</time>
      </trkpt>
      <trkpt lat="44.59875" lon="0.86071">
        <ele>177</ele>
        <time>2012-01-30T13:41:12Z</time>
      </trkpt>
      <trkpt lat="44.59877" lon="0.86076">
        <ele>177</ele>
        <time>2012-01-30T13:41:13Z</time>
      </trkpt>
      <trkpt lat="44.59878" lon="0.8608">
        <ele>177</ele>
        <time>2012-01-30T13:41:14Z</time>
      </trkpt>
      <trkpt lat="44.5988" lon="0.86085">
        <ele>177</ele>
        <time>2012-01-30T13:41:15Z</time>
      </trkpt>
      <trkpt lat="44.59882" lon="0.86089">
        <ele>177</ele>
        <time>2012-01-30T13:41:16Z</time>
      </trkpt>
      <trkpt lat="44.59885" lon="0.86093">
        <ele>177</ele>
        <time>2012-01-30T13:41:17Z</time>
      </trkpt>
      <trkpt lat="44.59886" lon="0.86097">
        <ele>177</ele>
        <time>2012-01-30T13:41:18Z</time>
      </trkpt>
      <trkpt lat="44.59887" lon="0.86101">
        <ele>177</ele>
        <time>2012-01-30T13:41:19Z</time>
      </trkpt>
      <trkpt lat="44.59887" lon="0.86105">
        <ele>177</ele>
        <time>2012-01-30T13:41:20Z</time>
      </trkpt>
      <trkpt lat="44.59887" lon="0.86109">
        <ele>177</ele>
        <time>2012-01-30T13:41:21Z</time>
      </trkpt>
      <trkpt lat="44.59887" lon="0.86113">
        <ele>177</ele>
        <time>2012-01-30T13:41:22Z</time>
      </trkpt>
      <trkpt lat="44.59888" lon="0.86117">
        <ele>177</ele>
        <time>2012-01-30T13:41:23Z</time>
      </trkpt>
      <trkpt lat="44.59888" lon="0.8612">
        <ele>177</ele>
        <time>2012-01-30T13:41:24Z</time>
      </trkpt>
      <trkpt lat="44.59887" lon="0.86124">
        <ele>177</ele>
        <time>2012-01-30T13:41:25Z</time>
      </trkpt>
      <trkpt lat="44.59886" lon="0.86128">
        <ele>177</ele>
        <time>2012-01-30T13:41:26Z</time>
      </trkpt>
      <trkpt lat="44.59885" lon="0.86132">
        <ele>177</ele>
        <time>2012-01-30T13:41:27Z</time>
      </trkpt>
      <trkpt lat="44.59884" lon="0.86135">
        <ele>177</ele>
        <time>2012-01-30T13:41:28Z</time>
      </trkpt>
      <trkpt lat="44.59883" lon="0.8614">
        <ele>177</ele>
        <time>2012-01-30T13:41:29Z</time>
      </trkpt>
      <trkpt lat="44.59884" lon="0.86144">
        <ele>177</ele>
        <time>2012-01-30T13:41:30Z</time>
      </trkpt>
      <trkpt lat="44.59885" lon="0.86147">
        <ele>177</ele>
        <time>2012-01-30T13:41:31Z</time>
      </trkpt>
      <trkpt lat="44.59887" lon="0.8615">
        <ele>177</ele>
        <time>2012-01-30T13:41:32Z</time>
      </trkpt>
      <trkpt lat="44.59889" lon="0.86153">
        <ele>177</ele>
        <time>2012-01-30T13:41:33Z</time>
      </trkpt>
      <trkpt lat="44.59891" lon="0.86156">
        <ele>177</ele>
        <time>2012-01-30T13:41:34Z</time>
      </trkpt>
      <trkpt lat="44.59894" lon="0.86159">
        <ele>177</ele>
        <time>2012-01-30T13:41:35Z</time>
      </trkpt>
      <trkpt lat="44.59897" lon="0.86162">
        <ele>177</ele>
        <time>2012-01-30T13:41:36Z</time>
      </trkpt>
      <trkpt lat="44.59899" lon="0.86164">
        <ele>177</ele>
        <time>2012-01-30T13:41:37Z</time>
      </trkpt>
      <trkpt lat="44.59901" lon="0.86167">
        <ele>177</ele>
        <time>2012-01-30T13:41:38Z</time>
      </trkpt>
      <trkpt lat="44.59904" lon="0.86171">
        <ele>177</ele>
        <time>2012-01-30T13:41:39Z</time>
      </trkpt>
      <trkpt lat="44.59906" lon="0.86174">
        <ele>177</ele>
        <time>2012-01-30T13:41:40Z</time>
      </trkpt>
      <trkpt lat="44.59908" lon="0.86176">
        <ele>177</ele>
        <time>2012-01-30T13:41:41Z</time>
      </trkpt>
      <trkpt lat="44.5991" lon="0.86177">
        <ele>177</ele>
        <time>2012-01-30T13:41:42Z</time>
      </trkpt>
      <trkpt lat="44.59912" lon="0.86178">
        <ele>177</ele>
        <time>2012-01-30T13:41:43Z</time>
      </trkpt>
      <trkpt lat="44.59914" lon="0.86179">
        <ele>177</ele>
        <time>2012-01-30T13:41:44Z</time>
      </trkpt>
      <trkpt lat="44.59916" lon="0.86181">
        <ele>177</ele>
        <time>2012-01-30T13:41:45Z</time>
      </trkpt>
      <trkpt lat="44.59917" lon="0.86182">
        <ele>177</ele>
        <time>2012-01-30T13:41:46Z</time>
      </trkpt>
      <trkpt lat="44.5992" lon="0.86182">
        <ele>177</ele>
        <time>2012-01-30T13:41:47Z</time>
      </trkpt>
      <trkpt lat="44.59922" lon="0.86183">
        <ele>177</ele>
        <time>2012-01-30T13:41:48Z</time>
      </trkpt>
      <trkpt lat="44.59925" lon="0.86183">
        <ele>177</ele>
        <time>2012-01-30T13:41:49Z</time>
      </trkpt>
      <trkpt lat="44.59927" lon="0.86183">
        <ele>177</ele>
        <time>2012-01-30T13:41:50Z</time>
      </trkpt>
      <trkpt lat="44.59929" lon="0.86183">
        <ele>177</ele>
        <time>2012-01-30T13:41:51Z</time>
      </trkpt>
      <trkpt lat="44.59931" lon="0.86182">
        <ele>177</ele>
        <time>2012-01-30T13:41:52Z</time>
      </trkpt>
      <trkpt lat="44.59933" lon="0.86182">
        <ele>177</ele>
        <time>2012-01-30T13:41:53Z</time>
      </trkpt>
      <trkpt lat="44.59935" lon="0.86182">
        <ele>177</ele>
        <time>2012-01-30T13:41:54Z</time>
      </trkpt>
      <trkpt lat="44.59938" lon="0.86183">
        <ele>177</ele>
        <time>2012-01-30T13:41:55Z</time>
      </trkpt>
      <trkpt lat="44.59941" lon="0.86182">
        <ele>177</ele>
        <time>2012-01-30T13:41:56Z</time>
      </trkpt>
      <trkpt lat="44.59944" lon="0.86181">
        <ele>177</ele>
        <time>2012-01-30T13:41:57Z</time>
      </trkpt>
      <trkpt lat="44.59946" lon="0.8618">
        <ele>176</ele>
        <time>2012-01-30T13:41:58Z</time>
      </trkpt>
      <trkpt lat="44.59949" lon="0.86178">
        <ele>175</ele>
        <time>2012-01-30T13:41:59Z</time>
      </trkpt>
      <trkpt lat="44.59954" lon="0.86177">
        <ele>175</ele>
        <time>2012-01-30T13:42:00Z</time>
      </trkpt>
      <trkpt lat="44.59957" lon="0.86176">
        <ele>174</ele>
        <time>2012-01-30T13:42:01Z</time>
      </trkpt>
      <trkpt lat="44.5996" lon="0.86176">
        <ele>173</ele>
        <time>2012-01-30T13:42:02Z</time>
      </trkpt>
      <trkpt lat="44.59964" lon="0.86175">
        <ele>173</ele>
        <time>2012-01-30T13:42:03Z</time>
      </trkpt>
      <trkpt lat="44.59968" lon="0.86173">
        <ele>173</ele>
        <time>2012-01-30T13:42:04Z</time>
      </trkpt>
      <trkpt lat="44.59971" lon="0.86173">
        <ele>173</ele>
        <time>2012-01-30T13:42:05Z</time>
      </trkpt>
      <trkpt lat="44.59974" lon="0.86172">
        <ele>173</ele>
        <time>2012-01-30T13:42:06Z</time>
      </trkpt>
      <trkpt lat="44.59977" lon="0.86172">
        <ele>173</ele>
        <time>2012-01-30T13:42:07Z</time>
      </trkpt>
      <trkpt lat="44.59979" lon="0.8617">
        <ele>172</ele>
        <time>2012-01-30T13:42:08Z</time>
      </trkpt>
      <trkpt lat="44.59982" lon="0.86169">
        <ele>172</ele>
        <time>2012-01-30T13:42:09Z</time>
      </trkpt>
      <trkpt lat="44.59985" lon="0.86168">
        <ele>171</ele>
        <time>2012-01-30T13:42:10Z</time>
      </trkpt>
      <trkpt lat="44.59987" lon="0.86169">
        <ele>171</ele>
        <time>2012-01-30T13:42:11Z</time>
      </trkpt>
      <trkpt lat="44.59989" lon="0.8617">
        <ele>170</ele>
        <time>2012-01-30T13:42:12Z</time>
      </trkpt>
      <trkpt lat="44.59993" lon="0.86172">
        <ele>170</ele>
        <time>2012-01-30T13:42:13Z</time>
      </trkpt>
      <trkpt lat="44.59996" lon="0.86173">
        <ele>170</ele>
        <time>2012-01-30T13:42:14Z</time>
      </trkpt>
      <trkpt lat="44.60001" lon="0.86175">
        <ele>170</ele>
        <time>2012-01-30T13:42:15Z</time>
      </trkpt>
      <trkpt lat="44.60006" lon="0.86176">
        <ele>170</ele>
        <time>2012-01-30T13:42:16Z</time>
      </trkpt>
      <trkpt lat="44.60011" lon="0.86177">
        <ele>170</ele>
        <time>2012-01-30T13:42:17Z</time>
      </trkpt>
      <trkpt lat="44.60015" lon="0.86177">
        <ele>170</ele>
        <time>2012-01-30T13:42:18Z</time>
      </trkpt>
      <trkpt lat="44.60018" lon="0.86178">
        <ele>170</ele>
        <time>2012-01-30T13:42:19Z</time>
      </trkpt>
      <trkpt lat="44.60022" lon="0.86179">
        <ele>170</ele>
        <time>2012-01-30T13:42:20Z</time>
      </trkpt>
      <trkpt lat="44.60027" lon="0.86179">
        <ele>170</ele>
        <time>2012-01-30T13:42:21Z</time>
      </trkpt>
      <trkpt lat="44.60031" lon="0.86179">
        <ele>170</ele>
        <time>2012-01-30T13:42:22Z</time>
      </trkpt>
      <trkpt lat="44.60035" lon="0.86179">
        <ele>170</ele>
        <time>2012-01-30T13:42:23Z</time>
      </trkpt>
      <trkpt lat="44.60039" lon="0.86178">
        <ele>170</ele>
        <time>2012-01-30T13:42:24Z</time>
      </trkpt>
      <trkpt lat="44.60043" lon="0.86178">
        <ele>170</ele>
        <time>2012-01-30T13:42:25Z</time>
      </trkpt>
      <trkpt lat="44.60047" lon="0.86178">
        <ele>170</ele>
        <time>2012-01-30T13:42:26Z</time>
      </trkpt>
      <trkpt lat="44.60051" lon="0.86177">
        <ele>170</ele>
        <time>2012-01-30T13:42:27Z</time>
      </trkpt>
      <trkpt lat="44.60055" lon="0.86176">
        <ele>170</ele>
        <time>2012-01-30T13:42:28Z</time>
      </trkpt>
      <trkpt lat="44.60058" lon="0.86174">
        <ele>170</ele>
        <time>2012-01-30T13:42:29Z</time>
      </trkpt>
      <trkpt lat="44.6006" lon="0.86172">
        <ele>171</ele>
        <time>2012-01-30T13:42:30Z</time>
      </trkpt>
      <trkpt lat="44.60063" lon="0.86171">
        <ele>171</ele>
        <time>2012-01-30T13:42:31Z</time>
      </trkpt>
      <trkpt lat="44.60067" lon="0.86169">
        <ele>171</ele>
        <time>2012-01-30T13:42:32Z</time>
      </trkpt>
      <trkpt lat="44.60071" lon="0.86167">
        <ele>171</ele>
        <time>2012-01-30T13:42:33Z</time>
      </trkpt>
      <trkpt lat="44.60075" lon="0.86166">
        <ele>171</ele>
        <time>2012-01-30T13:42:34Z</time>
      </trkpt>
      <trkpt lat="44.60078" lon="0.86165">
        <ele>171</ele>
        <time>2012-01-30T13:42:35Z</time>
      </trkpt>
      <trkpt lat="44.60082" lon="0.86163">
        <ele>171</ele>
        <time>2012-01-30T13:42:36Z</time>
      </trkpt>
      <trkpt lat="44.60087" lon="0.86161">
        <ele>171</ele>
        <time>2012-01-30T13:42:37Z</time>
      </trkpt>
      <trkpt lat="44.60092" lon="0.86159">
        <ele>171</ele>
        <time>2012-01-30T13:42:38Z</time>
      </trkpt>
      <trkpt lat="44.60096" lon="0.86157">
        <ele>171</ele>
        <time>2012-01-30T13:42:39Z</time>
      </trkpt>
      <trkpt lat="44.601" lon="0.86155">
        <ele>171</ele>
        <time>2012-01-30T13:42:40Z</time>
      </trkpt>
      <trkpt lat="44.60105" lon="0.86153">
        <ele>171</ele>
        <time>2012-01-30T13:42:41Z</time>
      </trkpt>
      <trkpt lat="44.6011" lon="0.86151">
        <ele>171</ele>
        <time>2012-01-30T13:42:42Z</time>
      </trkpt>
      <trkpt lat="44.60115" lon="0.86149">
        <ele>171</ele>
        <time>2012-01-30T13:42:43Z</time>
      </trkpt>
      <trkpt lat="44.6012" lon="0.86147">
        <ele>171</ele>
        <time>2012-01-30T13:42:44Z</time>
      </trkpt>
      <trkpt lat="44.60125" lon="0.86146">
        <ele>171</ele>
        <time>2012-01-30T13:42:45Z</time>
      </trkpt>
      <trkpt lat="44.6013" lon="0.86144">
        <ele>171</ele>
        <time>2012-01-30T13:42:46Z</time>
      </trkpt>
      <trkpt lat="44.60136" lon="0.86142">
        <ele>171</ele>
        <time>2012-01-30T13:42:47Z</time>
      </trkpt>
      <trkpt lat="44.60141" lon="0.8614">
        <ele>171</ele>
        <time>2012-01-30T13:42:48Z</time>
      </trkpt>
      <trkpt lat="44.60146" lon="0.86138">
        <ele>170</ele>
        <time>2012-01-30T13:42:49Z</time>
      </trkpt>
      <trkpt lat="44.60151" lon="0.86136">
        <ele>170</ele>
        <time>2012-01-30T13:42:50Z</time>
      </trkpt>
      <trkpt lat="44.60156" lon="0.86134">
        <ele>170</ele>
        <time>2012-01-30T13:42:51Z</time>
      </trkpt>
      <trkpt lat="44.6016" lon="0.86132">
        <ele>170</ele>
        <time>2012-01-30T13:42:52Z</time>
      </trkpt>
      <trkpt lat="44.60165" lon="0.8613">
        <ele>169</ele>
        <time>2012-01-30T13:42:53Z</time>
      </trkpt>
      <trkpt lat="44.60169" lon="0.86128">
        <ele>169</ele>
        <time>2012-01-30T13:42:54Z</time>
      </trkpt>
      <trkpt lat="44.60174" lon="0.86127">
        <ele>169</ele>
        <time>2012-01-30T13:42:55Z</time>
      </trkpt>
      <trkpt lat="44.60179" lon="0.86127">
        <ele>169</ele>
        <time>2012-01-30T13:42:56Z</time>
      </trkpt>
      <trkpt lat="44.60183" lon="0.8613">
        <ele>169</ele>
        <time>2012-01-30T13:42:57Z</time>
      </trkpt>
      <trkpt lat="44.60188" lon="0.86133">
        <ele>168</ele>
        <time>2012-01-30T13:42:58Z</time>
      </trkpt>
      <trkpt lat="44.60191" lon="0.86138">
        <ele>168</ele>
        <time>2012-01-30T13:42:59Z</time>
      </trkpt>
      <trkpt lat="44.60194" lon="0.86143">
        <ele>168</ele>
        <time>2012-01-30T13:43:00Z</time>
      </trkpt>
      <trkpt lat="44.60197" lon="0.86148">
        <ele>168</ele>
        <time>2012-01-30T13:43:01Z</time>
      </trkpt>
      <trkpt lat="44.60201" lon="0.86153">
        <ele>168</ele>
        <time>2012-01-30T13:43:02Z</time>
      </trkpt>
      <trkpt lat="44.60204" lon="0.86157">
        <ele>167</ele>
        <time>2012-01-30T13:43:03Z</time>
      </trkpt>
      <trkpt lat="44.60208" lon="0.86161">
        <ele>167</ele>
        <time>2012-01-30T13:43:04Z</time>
      </trkpt>
      <trkpt lat="44.60212" lon="0.86165">
        <ele>167</ele>
        <time>2012-01-30T13:43:05Z</time>
      </trkpt>
      <trkpt lat="44.60216" lon="0.86169">
        <ele>166</ele>
        <time>2012-01-30T13:43:06Z</time>
      </trkpt>
      <trkpt lat="44.60219" lon="0.86172">
        <ele>166</ele>
        <time>2012-01-30T13:43:07Z</time>
      </trkpt>
      <trkpt lat="44.60223" lon="0.86176">
        <ele>166</ele>
        <time>2012-01-30T13:43:08Z</time>
      </trkpt>
      <trkpt lat="44.60226" lon="0.86181">
        <ele>165</ele>
        <time>2012-01-30T13:43:09Z</time>
      </trkpt>
      <trkpt lat="44.6023" lon="0.86185">
        <ele>165</ele>
        <time>2012-01-30T13:43:10Z</time>
      </trkpt>
      <trkpt lat="44.60234" lon="0.8619">
        <ele>165</ele>
        <time>2012-01-30T13:43:11Z</time>
      </trkpt>
      <trkpt lat="44.60237" lon="0.86193">
        <ele>165</ele>
        <time>2012-01-30T13:43:12Z</time>
      </trkpt>
      <trkpt lat="44.60239" lon="0.86196">
        <ele>165</ele>
        <time>2012-01-30T13:43:13Z</time>
      </trkpt>
      <trkpt lat="44.60242" lon="0.86198">
        <ele>165</ele>
        <time>2012-01-30T13:43:14Z</time>
      </trkpt>
      <trkpt lat="44.60244" lon="0.862">
        <ele>165</ele>
        <time>2012-01-30T13:43:15Z</time>
      </trkpt>
      <trkpt lat="44.60246" lon="0.86203">
        <ele>165</ele>
        <time>2012-01-30T13:43:16Z</time>
      </trkpt>
      <trkpt lat="44.60248" lon="0.86206">
        <ele>165</ele>
        <time>2012-01-30T13:43:17Z</time>
      </trkpt>
      <trkpt lat="44.6025" lon="0.86209">
        <ele>165</ele>
        <time>2012-01-30T13:43:18Z</time>
      </trkpt>
      <trkpt lat="44.60252" lon="0.86212">
        <ele>165</ele>
        <time>2012-01-30T13:43:19Z</time>
      </trkpt>
      <trkpt lat="44.60254" lon="0.86216">
        <ele>165</ele>
        <time>2012-01-30T13:43:20Z</time>
      </trkpt>
      <trkpt lat="44.60257" lon="0.86219">
        <ele>165</ele>
        <time>2012-01-30T13:43:21Z</time>
      </trkpt>
      <trkpt lat="44.60259" lon="0.86223">
        <ele>165</ele>
        <time>2012-01-30T13:43:22Z</time>
      </trkpt>
      <trkpt lat="44.60262" lon="0.86228">
        <ele>165</ele>
        <time>2012-01-30T13:43:23Z</time>
      </trkpt>
      <trkpt lat="44.60264" lon="0.86234">
        <ele>165</ele>
        <time>2012-01-30T13:43:24Z</time>
      </trkpt>
      <trkpt lat="44.60267" lon="0.86241">
        <ele>165</ele>
        <time>2012-01-30T13:43:25Z</time>
      </trkpt>
      <trkpt lat="44.6027" lon="0.86249">
        <ele>165</ele>
        <time>2012-01-30T13:43:26Z</time>
      </trkpt>
      <trkpt lat="44.60273" lon="0.86258">
        <ele>164</ele>
        <time>2012-01-30T13:43:27Z</time>
      </trkpt>
      <trkpt lat="44.60278" lon="0.86267">
        <ele>164</ele>
        <time>2012-01-30T13:43:28Z</time>
      </trkpt>
      <trkpt lat="44.60282" lon="0.86275">
        <ele>164</ele>
        <time>2012-01-30T13:43:29Z</time>
      </trkpt>
      <trkpt lat="44.60286" lon="0.86283">
        <ele>164</ele>
        <time>2012-01-30T13:43:30Z</time>
      </trkpt>
      <trkpt lat="44.60289" lon="0.86291">
        <ele>163</ele>
        <time>2012-01-30T13:43:31Z</time>
      </trkpt>
      <trkpt lat="44.60293" lon="0.863">
        <ele>162</ele>
        <time>2012-01-30T13:43:32Z</time>
      </trkpt>
      <trkpt lat="44.60296" lon="0.86309">
        <ele>161</ele>
        <time>2012-01-30T13:43:33Z</time>
      </trkpt>
      <trkpt lat="44.60299" lon="0.86318">
        <ele>160</ele>
        <time>2012-01-30T13:43:34Z</time>
      </trkpt>
      <trkpt lat="44.603" lon="0.86327">
        <ele>159</ele>
        <time>2012-01-30T13:43:35Z</time>
      </trkpt>
      <trkpt lat="44.60302" lon="0.86337">
        <ele>158</ele>
        <time>2012-01-30T13:43:36Z</time>
      </trkpt>
      <trkpt lat="44.60303" lon="0.86345">
        <ele>157</ele>
        <time>2012-01-30T13:43:37Z</time>
      </trkpt>
      <trkpt lat="44.60303" lon="0.86353">
        <ele>156</ele>
        <time>2012-01-30T13:43:38Z</time>
      </trkpt>
      <trkpt lat="44.60303" lon="0.8636">
        <ele>155</ele>
        <time>2012-01-30T13:43:39Z</time>
      </trkpt>
      <trkpt lat="44.60302" lon="0.86365">
        <ele>154</ele>
        <time>2012-01-30T13:43:40Z</time>
      </trkpt>
      <trkpt lat="44.60299" lon="0.8637">
        <ele>154</ele>
        <time>2012-01-30T13:43:41Z</time>
      </trkpt>
      <trkpt lat="44.60296" lon="0.86375">
        <ele>153</ele>
        <time>2012-01-30T13:43:42Z</time>
      </trkpt>
      <trkpt lat="44.60292" lon="0.8638">
        <ele>153</ele>
        <time>2012-01-30T13:43:43Z</time>
      </trkpt>
      <trkpt lat="44.60289" lon="0.86386">
        <ele>152</ele>
        <time>2012-01-30T13:43:44Z</time>
      </trkpt>
      <trkpt lat="44.60286" lon="0.86392">
        <ele>152</ele>
        <time>2012-01-30T13:43:45Z</time>
      </trkpt>
      <trkpt lat="44.60283" lon="0.864">
        <ele>152</ele>
        <time>2012-01-30T13:43:46Z</time>
      </trkpt>
      <trkpt lat="44.60281" lon="0.86407">
        <ele>152</ele>
        <time>2012-01-30T13:43:47Z</time>
      </trkpt>
      <trkpt lat="44.60279" lon="0.86412">
        <ele>152</ele>
        <time>2012-01-30T13:43:48Z</time>
      </trkpt>
      <trkpt lat="44.60278" lon="0.86417">
        <ele>152</ele>
        <time>2012-01-30T13:43:49Z</time>
      </trkpt>
      <trkpt lat="44.60275" lon="0.86422">
        <ele>152</ele>
        <time>2012-01-30T13:43:50Z</time>
      </trkpt>
      <trkpt lat="44.60272" lon="0.86428">
        <ele>152</ele>
        <time>2012-01-30T13:43:51Z</time>
      </trkpt>
      <trkpt lat="44.60268" lon="0.86433">
        <ele>152</ele>
        <time>2012-01-30T13:43:52Z</time>
      </trkpt>
      <trkpt lat="44.60265" lon="0.86438">
        <ele>152</ele>
        <time>2012-01-30T13:43:53Z</time>
      </trkpt>
      <trkpt lat="44.60264" lon="0.86444">
        <ele>153</ele>
        <time>2012-01-30T13:43:54Z</time>
      </trkpt>
      <trkpt lat="44.60263" lon="0.8645">
        <ele>154</ele>
        <time>2012-01-30T13:43:55Z</time>
      </trkpt>
      <trkpt lat="44.60262" lon="0.86457">
        <ele>155</ele>
        <time>2012-01-30T13:43:56Z</time>
      </trkpt>
      <trkpt lat="44.60261" lon="0.86464">
        <ele>156</ele>
        <time>2012-01-30T13:43:57Z</time>
      </trkpt>
      <trkpt lat="44.6026" lon="0.8647">
        <ele>157</ele>
        <time>2012-01-30T13:43:58Z</time>
      </trkpt>
      <trkpt lat="44.60259" lon="0.86476">
        <ele>158</ele>
        <time>2012-01-30T13:43:59Z</time>
      </trkpt>
      <trkpt lat="44.60258" lon="0.86482">
        <ele>159</ele>
        <time>2012-01-30T13:44:00Z</time>
      </trkpt>
      <trkpt lat="44.60258" lon="0.86489">
        <ele>160</ele>
        <time>2012-01-30T13:44:01Z</time>
      </trkpt>
      <trkpt lat="44.60259" lon="0.86493">
        <ele>161</ele>
        <time>2012-01-30T13:44:02Z</time>
      </trkpt>
      <trkpt lat="44.6026" lon="0.86498">
        <ele>162</ele>
        <time>2012-01-30T13:44:03Z</time>
      </trkpt>
      <trkpt lat="44.60262" lon="0.86502">
        <ele>163</ele>
        <time>2012-01-30T13:44:04Z</time>
      </trkpt>
      <trkpt lat="44.60265" lon="0.86505">
        <ele>164</ele>
        <time>2012-01-30T13:44:05Z</time>
      </trkpt>
      <trkpt lat="44.60268" lon="0.86507">
        <ele>165</ele>
        <time>2012-01-30T13:44:06Z</time>
      </trkpt>
      <trkpt lat="44.60273" lon="0.8651">
        <ele>165</ele>
        <time>2012-01-30T13:44:07Z</time>
      </trkpt>
      <trkpt lat="44.60277" lon="0.86512">
        <ele>165</ele>
        <time>2012-01-30T13:44:08Z</time>
      </trkpt>
      <trkpt lat="44.60283" lon="0.86513">
        <ele>165</ele>
        <time>2012-01-30T13:44:08Z</time>
      </trkpt>
      <trkpt lat="44.60289" lon="0.86515">
        <ele>165</ele>
        <time>2012-01-30T13:44:09Z</time>
      </trkpt>
      <trkpt lat="44.60294" lon="0.86517">
        <ele>165</ele>
        <time>2012-01-30T13:44:10Z</time>
      </trkpt>
      <trkpt lat="44.60298" lon="0.86521">
        <ele>165</ele>
        <time>2012-01-30T13:44:11Z</time>
      </trkpt>
      <trkpt lat="44.60302" lon="0.86524">
        <ele>165</ele>
        <time>2012-01-30T13:44:13Z</time>
      </trkpt>
      <trkpt lat="44.60305" lon="0.86528">
        <ele>165</ele>
        <time>2012-01-30T13:44:14Z</time>
      </trkpt>
      <trkpt lat="44.60308" lon="0.86532">
        <ele>165</ele>
        <time>2012-01-30T13:44:15Z</time>
      </trkpt>
      <trkpt lat="44.60311" lon="0.86536">
        <ele>165</ele>
        <time>2012-01-30T13:44:16Z</time>
      </trkpt>
      <trkpt lat="44.60313" lon="0.86541">
        <ele>165</ele>
        <time>2012-01-30T13:44:17Z</time>
      </trkpt>
      <trkpt lat="44.60315" lon="0.86544">
        <ele>165</ele>
        <time>2012-01-30T13:44:18Z</time>
      </trkpt>
      <trkpt lat="44.60317" lon="0.86548">
        <ele>165</ele>
        <time>2012-01-30T13:44:19Z</time>
      </trkpt>
      <trkpt lat="44.6032" lon="0.86552">
        <ele>165</ele>
        <time>2012-01-30T13:44:20Z</time>
      </trkpt>
      <trkpt lat="44.60322" lon="0.86555">
        <ele>165</ele>
        <time>2012-01-30T13:44:21Z</time>
      </trkpt>
      <trkpt lat="44.60323" lon="0.86558">
        <ele>165</ele>
        <time>2012-01-30T13:44:22Z</time>
      </trkpt>
      <trkpt lat="44.60324" lon="0.8656">
        <ele>165</ele>
        <time>2012-01-30T13:44:23Z</time>
      </trkpt>
      <trkpt lat="44.60325" lon="0.86564">
        <ele>165</ele>
        <time>2012-01-30T13:44:24Z</time>
      </trkpt>
      <trkpt lat="44.60326" lon="0.86568">
        <ele>165</ele>
        <time>2012-01-30T13:44:25Z</time>
      </trkpt>
      <trkpt lat="44.60326" lon="0.86573">
        <ele>165</ele>
        <time>2012-01-30T13:44:26Z</time>
      </trkpt>
      <trkpt lat="44.60327" lon="0.86578">
        <ele>165</ele>
        <time>2012-01-30T13:44:27Z</time>
      </trkpt>
      <trkpt lat="44.60327" lon="0.86583">
        <ele>165</ele>
        <time>2012-01-30T13:44:28Z</time>
      </trkpt>
      <trkpt lat="44.60327" lon="0.86588">
        <ele>165</ele>
        <time>2012-01-30T13:44:29Z</time>
      </trkpt>
      <trkpt lat="44.60328" lon="0.86593">
        <ele>165</ele>
        <time>2012-01-30T13:44:30Z</time>
      </trkpt>
      <trkpt lat="44.60329" lon="0.86598">
        <ele>165</ele>
        <time>2012-01-30T13:44:31Z</time>
      </trkpt>
      <trkpt lat="44.60329" lon="0.86603">
        <ele>165</ele>
        <time>2012-01-30T13:44:32Z</time>
      </trkpt>
      <trkpt lat="44.60329" lon="0.86608">
        <ele>165</ele>
        <time>2012-01-30T13:44:33Z</time>
      </trkpt>
      <trkpt lat="44.60329" lon="0.86612">
        <ele>165</ele>
        <time>2012-01-30T13:44:34Z</time>
      </trkpt>
      <trkpt lat="44.60329" lon="0.86616">
        <ele>165</ele>
        <time>2012-01-30T13:44:35Z</time>
      </trkpt>
      <trkpt lat="44.60329" lon="0.8662">
        <ele>165</ele>
        <time>2012-01-30T13:44:36Z</time>
      </trkpt>
      <trkpt lat="44.60329" lon="0.86624">
        <ele>165</ele>
        <time>2012-01-30T13:44:37Z</time>
      </trkpt>
      <trkpt lat="44.60329" lon="0.86628">
        <ele>165</ele>
        <time>2012-01-30T13:44:38Z</time>
      </trkpt>
      <trkpt lat="44.6033" lon="0.86633">
        <ele>165</ele>
        <time>2012-01-30T13:44:39Z</time>
      </trkpt>
      <trkpt lat="44.6033" lon="0.86638">
        <ele>165</ele>
        <time>2012-01-30T13:44:40Z</time>
      </trkpt>
      <trkpt lat="44.6033" lon="0.86642">
        <ele>165</ele>
        <time>2012-01-30T13:44:41Z</time>
      </trkpt>
      <trkpt lat="44.60329" lon="0.86645">
        <ele>165</ele>
        <time>2012-01-30T13:44:42Z</time>
      </trkpt>
      <trkpt lat="44.6033" lon="0.86648">
        <ele>165</ele>
        <time>2012-01-30T13:44:43Z</time>
      </trkpt>
      <trkpt lat="44.60329" lon="0.86652">
        <ele>165</ele>
        <time>2012-01-30T13:44:43Z</time>
      </trkpt>
      <trkpt lat="44.60328" lon="0.86656">
        <ele>165</ele>
        <time>2012-01-30T13:44:45Z</time>
      </trkpt>
      <trkpt lat="44.60327" lon="0.8666">
        <ele>165</ele>
        <time>2012-01-30T13:44:46Z</time>
      </trkpt>
      <trkpt lat="44.60326" lon="0.86663">
        <ele>165</ele>
        <time>2012-01-30T13:44:47Z</time>
      </trkpt>
      <trkpt lat="44.60325" lon="0.86668">
        <ele>165</ele>
        <time>2012-01-30T13:44:48Z</time>
      </trkpt>
      <trkpt lat="44.60323" lon="0.86674">
        <ele>165</ele>
        <time>2012-01-30T13:44:49Z</time>
      </trkpt>
      <trkpt lat="44.60322" lon="0.8668">
        <ele>165</ele>
        <time>2012-01-30T13:44:50Z</time>
      </trkpt>
      <trkpt lat="44.6032" lon="0.86685">
        <ele>165</ele>
        <time>2012-01-30T13:44:51Z</time>
      </trkpt>
      <trkpt lat="44.60319" lon="0.8669">
        <ele>165</ele>
        <time>2012-01-30T13:44:52Z</time>
      </trkpt>
      <trkpt lat="44.60317" lon="0.86697">
        <ele>165</ele>
        <time>2012-01-30T13:44:53Z</time>
      </trkpt>
      <trkpt lat="44.60315" lon="0.86704">
        <ele>164</ele>
        <time>2012-01-30T13:44:54Z</time>
      </trkpt>
      <trkpt lat="44.60314" lon="0.86712">
        <ele>163</ele>
        <time>2012-01-30T13:44:55Z</time>
      </trkpt>
      <trkpt lat="44.60312" lon="0.8672">
        <ele>163</ele>
        <time>2012-01-30T13:44:56Z</time>
      </trkpt>
      <trkpt lat="44.60312" lon="0.86728">
        <ele>162</ele>
        <time>2012-01-30T13:44:57Z</time>
      </trkpt>
      <trkpt lat="44.60311" lon="0.86737">
        <ele>161</ele>
        <time>2012-01-30T13:44:58Z</time>
      </trkpt>
      <trkpt lat="44.60311" lon="0.86747">
        <ele>160</ele>
        <time>2012-01-30T13:44:59Z</time>
      </trkpt>
      <trkpt lat="44.60311" lon="0.86757">
        <ele>160</ele>
        <time>2012-01-30T13:45:00Z</time>
      </trkpt>
      <trkpt lat="44.60311" lon="0.86766">
        <ele>159</ele>
        <time>2012-01-30T13:45:01Z</time>
      </trkpt>
      <trkpt lat="44.60311" lon="0.86774">
        <ele>159</ele>
        <time>2012-01-30T13:45:02Z</time>
      </trkpt>
      <trkpt lat="44.60311" lon="0.8678">
        <ele>159</ele>
        <time>2012-01-30T13:45:03Z</time>
      </trkpt>
      <trkpt lat="44.60311" lon="0.86785">
        <ele>159</ele>
        <time>2012-01-30T13:45:04Z</time>
      </trkpt>
      <trkpt lat="44.60311" lon="0.8679">
        <ele>159</ele>
        <time>2012-01-30T13:45:05Z</time>
      </trkpt>
      <trkpt lat="44.6031" lon="0.86794">
        <ele>159</ele>
        <time>2012-01-30T13:45:06Z</time>
      </trkpt>
      <trkpt lat="44.6031" lon="0.86799">
        <ele>159</ele>
        <time>2012-01-30T13:45:07Z</time>
      </trkpt>
      <trkpt lat="44.6031" lon="0.86804">
        <ele>159</ele>
        <time>2012-01-30T13:45:08Z</time>
      </trkpt>
      <trkpt lat="44.60311" lon="0.86809">
        <ele>159</ele>
        <time>2012-01-30T13:45:09Z</time>
      </trkpt>
      <trkpt lat="44.60311" lon="0.86814">
        <ele>159</ele>
        <time>2012-01-30T13:45:10Z</time>
      </trkpt>
      <trkpt lat="44.60312" lon="0.86818">
        <ele>159</ele>
        <time>2012-01-30T13:45:11Z</time>
      </trkpt>
      <trkpt lat="44.60313" lon="0.86822">
        <ele>159</ele>
        <time>2012-01-30T13:45:12Z</time>
      </trkpt>
      <trkpt lat="44.60313" lon="0.86825">
        <ele>159</ele>
        <time>2012-01-30T13:45:13Z</time>
      </trkpt>
      <trkpt lat="44.60313" lon="0.8683">
        <ele>160</ele>
        <time>2012-01-30T13:45:14Z</time>
      </trkpt>
      <trkpt lat="44.60314" lon="0.86835">
        <ele>161</ele>
        <time>2012-01-30T13:45:15Z</time>
      </trkpt>
      <trkpt lat="44.60314" lon="0.86839">
        <ele>162</ele>
        <time>2012-01-30T13:45:16Z</time>
      </trkpt>
      <trkpt lat="44.60314" lon="0.86843">
        <ele>163</ele>
        <time>2012-01-30T13:45:17Z</time>
      </trkpt>
      <trkpt lat="44.60315" lon="0.86847">
        <ele>164</ele>
        <time>2012-01-30T13:45:18Z</time>
      </trkpt>
      <trkpt lat="44.60314" lon="0.86849">
        <ele>165</ele>
        <time>2012-01-30T13:45:19Z</time>
      </trkpt>
      <trkpt lat="44.60315" lon="0.86853">
        <ele>166</ele>
        <time>2012-01-30T13:45:20Z</time>
      </trkpt>
      <trkpt lat="44.60315" lon="0.86856">
        <ele>166</ele>
        <time>2012-01-30T13:45:21Z</time>
      </trkpt>
      <trkpt lat="44.60316" lon="0.86859">
        <ele>167</ele>
        <time>2012-01-30T13:45:22Z</time>
      </trkpt>
      <trkpt lat="44.60316" lon="0.86862">
        <ele>167</ele>
        <time>2012-01-30T13:45:23Z</time>
      </trkpt>
      <trkpt lat="44.60316" lon="0.86865">
        <ele>168</ele>
        <time>2012-01-30T13:45:24Z</time>
      </trkpt>
      <trkpt lat="44.60317" lon="0.86868">
        <ele>168</ele>
        <time>2012-01-30T13:45:25Z</time>
      </trkpt>
      <trkpt lat="44.60318" lon="0.86872">
        <ele>168</ele>
        <time>2012-01-30T13:45:26Z</time>
      </trkpt>
      <trkpt lat="44.60318" lon="0.86876">
        <ele>168</ele>
        <time>2012-01-30T13:45:27Z</time>
      </trkpt>
      <trkpt lat="44.60319" lon="0.86879">
        <ele>168</ele>
        <time>2012-01-30T13:45:28Z</time>
      </trkpt>
      <trkpt lat="44.6032" lon="0.86883">
        <ele>168</ele>
        <time>2012-01-30T13:45:29Z</time>
      </trkpt>
      <trkpt lat="44.6032" lon="0.86886">
        <ele>168</ele>
        <time>2012-01-30T13:45:30Z</time>
      </trkpt>
      <trkpt lat="44.6032" lon="0.86889">
        <ele>168</ele>
        <time>2012-01-30T13:45:31Z</time>
      </trkpt>
      <trkpt lat="44.60321" lon="0.86893">
        <ele>168</ele>
        <time>2012-01-30T13:45:32Z</time>
      </trkpt>
      <trkpt lat="44.60321" lon="0.86896">
        <ele>168</ele>
        <time>2012-01-30T13:45:33Z</time>
      </trkpt>
      <trkpt lat="44.60321" lon="0.86899">
        <ele>168</ele>
        <time>2012-01-30T13:45:34Z</time>
      </trkpt>
      <trkpt lat="44.6032" lon="0.86902">
        <ele>168</ele>
        <time>2012-01-30T13:45:35Z</time>
      </trkpt>
      <trkpt lat="44.6032" lon="0.86905">
        <ele>169</ele>
        <time>2012-01-30T13:45:36Z</time>
      </trkpt>
      <trkpt lat="44.60321" lon="0.86909">
        <ele>169</ele>
        <time>2012-01-30T13:45:37Z</time>
      </trkpt>
      <trkpt lat="44.60321" lon="0.86912">
        <ele>169</ele>
        <time>2012-01-30T13:45:38Z</time>
      </trkpt>
      <trkpt lat="44.60321" lon="0.86914">
        <ele>169</ele>
        <time>2012-01-30T13:45:39Z</time>
      </trkpt>
      <trkpt lat="44.60321" lon="0.86918">
        <ele>170</ele>
        <time>2012-01-30T13:45:40Z</time>
      </trkpt>
      <trkpt lat="44.6032" lon="0.86921">
        <ele>170</ele>
        <time>2012-01-30T13:45:41Z</time>
      </trkpt>
      <trkpt lat="44.6032" lon="0.86924">
        <ele>170</ele>
        <time>2012-01-30T13:45:42Z</time>
      </trkpt>
      <trkpt lat="44.6032" lon="0.86928">
        <ele>170</ele>
        <time>2012-01-30T13:45:43Z</time>
      </trkpt>
      <trkpt lat="44.6032" lon="0.86932">
        <ele>170</ele>
        <time>2012-01-30T13:45:44Z</time>
      </trkpt>
      <trkpt lat="44.6032" lon="0.86936">
        <ele>170</ele>
        <time>2012-01-30T13:45:44Z</time>
      </trkpt>
      <trkpt lat="44.60321" lon="0.86939">
        <ele>170</ele>
        <time>2012-01-30T13:45:46Z</time>
      </trkpt>
      <trkpt lat="44.60321" lon="0.86943">
        <ele>170</ele>
        <time>2012-01-30T13:45:47Z</time>
      </trkpt>
      <trkpt lat="44.6032" lon="0.86947">
        <ele>170</ele>
        <time>2012-01-30T13:45:48Z</time>
      </trkpt>
      <trkpt lat="44.6032" lon="0.8695">
        <ele>170</ele>
        <time>2012-01-30T13:45:49Z</time>
      </trkpt>
      <trkpt lat="44.60318" lon="0.86954">
        <ele>170</ele>
        <time>2012-01-30T13:45:50Z</time>
      </trkpt>
      <trkpt lat="44.60316" lon="0.86955">
        <ele>170</ele>
        <time>2012-01-30T13:45:51Z</time>
      </trkpt>
      <trkpt lat="44.60314" lon="0.86957">
        <ele>170</ele>
        <time>2012-01-30T13:45:52Z</time>
      </trkpt>
      <trkpt lat="44.60313" lon="0.86958">
        <ele>170</ele>
        <time>2012-01-30T13:45:52Z</time>
      </trkpt>
      <trkpt lat="44.6031" lon="0.8696">
        <ele>170</ele>
        <time>2012-01-30T13:45:54Z</time>
      </trkpt>
      <trkpt lat="44.60307" lon="0.86962">
        <ele>170</ele>
        <time>2012-01-30T13:45:54Z</time>
      </trkpt>
      <trkpt lat="44.60305" lon="0.86963">
        <ele>170</ele>
        <time>2012-01-30T13:45:55Z</time>
      </trkpt>
      <trkpt lat="44.60301" lon="0.86966">
        <ele>170</ele>
        <time>2012-01-30T13:45:57Z</time>
      </trkpt>
      <trkpt lat="44.60298" lon="0.86969">
        <ele>170</ele>
        <time>2012-01-30T13:45:58Z</time>
      </trkpt>
      <trkpt lat="44.60294" lon="0.86971">
        <ele>170</ele>
        <time>2012-01-30T13:45:59Z</time>
      </trkpt>
      <trkpt lat="44.6029" lon="0.86972">
        <ele>170</ele>
        <time>2012-01-30T13:46:00Z</time>
      </trkpt>
      <trkpt lat="44.60286" lon="0.86975">
        <ele>170</ele>
        <time>2012-01-30T13:46:01Z</time>
      </trkpt>
      <trkpt lat="44.60282" lon="0.86976">
        <ele>170</ele>
        <time>2012-01-30T13:46:01Z</time>
      </trkpt>
      <trkpt lat="44.60278" lon="0.86978">
        <ele>170</ele>
        <time>2012-01-30T13:46:02Z</time>
      </trkpt>
      <trkpt lat="44.60275" lon="0.86979">
        <ele>170</ele>
        <time>2012-01-30T13:46:04Z</time>
      </trkpt>
      <trkpt lat="44.60273" lon="0.86981">
        <ele>170</ele>
        <time>2012-01-30T13:46:05Z</time>
      </trkpt>
      <trkpt lat="44.6027" lon="0.86983">
        <ele>170</ele>
        <time>2012-01-30T13:46:05Z</time>
      </trkpt>
      <trkpt lat="44.60266" lon="0.86984">
        <ele>170</ele>
        <time>2012-01-30T13:46:06Z</time>
      </trkpt>
      <trkpt lat="44.60262" lon="0.86985">
        <ele>170</ele>
        <time>2012-01-30T13:46:08Z</time>
      </trkpt>
      <trkpt lat="44.60258" lon="0.86987">
        <ele>170</ele>
        <time>2012-01-30T13:46:09Z</time>
      </trkpt>
      <trkpt lat="44.60254" lon="0.86989">
        <ele>170</ele>
        <time>2012-01-30T13:46:10Z</time>
      </trkpt>
      <trkpt lat="44.60249" lon="0.8699">
        <ele>169</ele>
        <time>2012-01-30T13:46:11Z</time>
      </trkpt>
      <trkpt lat="44.60244" lon="0.86992">
        <ele>168</ele>
        <time>2012-01-30T13:46:12Z</time>
      </trkpt>
      <trkpt lat="44.60237" lon="0.86996">
        <ele>168</ele>
        <time>2012-01-30T13:46:13Z</time>
      </trkpt>
      <trkpt lat="44.60231" lon="0.86998">
        <ele>167</ele>
        <time>2012-01-30T13:46:14Z</time>
      </trkpt>
      <trkpt lat="44.60224" lon="0.87002">
        <ele>166</ele>
        <time>2012-01-30T13:46:15Z</time>
      </trkpt>
      <trkpt lat="44.60217" lon="0.87004">
        <ele>165</ele>
        <time>2012-01-30T13:46:16Z</time>
      </trkpt>
      <trkpt lat="44.60211" lon="0.87006">
        <ele>164</ele>
        <time>2012-01-30T13:46:17Z</time>
      </trkpt>
      <trkpt lat="44.60204" lon="0.87009">
        <ele>163</ele>
        <time>2012-01-30T13:46:18Z</time>
      </trkpt>
      <trkpt lat="44.60198" lon="0.87013">
        <ele>163</ele>
        <time>2012-01-30T13:46:18Z</time>
      </trkpt>
      <trkpt lat="44.60191" lon="0.87018">
        <ele>162</ele>
        <time>2012-01-30T13:46:20Z</time>
      </trkpt>
      <trkpt lat="44.60186" lon="0.87023">
        <ele>161</ele>
        <time>2012-01-30T13:46:21Z</time>
      </trkpt>
      <trkpt lat="44.60181" lon="0.87027">
        <ele>160</ele>
        <time>2012-01-30T13:46:22Z</time>
      </trkpt>
      <trkpt lat="44.60176" lon="0.87032">
        <ele>159</ele>
        <time>2012-01-30T13:46:22Z</time>
      </trkpt>
      <trkpt lat="44.60171" lon="0.87037">
        <ele>159</ele>
        <time>2012-01-30T13:46:24Z</time>
      </trkpt>
      <trkpt lat="44.60167" lon="0.87042">
        <ele>158</ele>
        <time>2012-01-30T13:46:25Z</time>
      </trkpt>
      <trkpt lat="44.60162" lon="0.87047">
        <ele>157</ele>
        <time>2012-01-30T13:46:26Z</time>
      </trkpt>
      <trkpt lat="44.60158" lon="0.87052">
        <ele>157</ele>
        <time>2012-01-30T13:46:27Z</time>
      </trkpt>
      <trkpt lat="44.60153" lon="0.87057">
        <ele>157</ele>
        <time>2012-01-30T13:46:28Z</time>
      </trkpt>
      <trkpt lat="44.60148" lon="0.87061">
        <ele>157</ele>
        <time>2012-01-30T13:46:28Z</time>
      </trkpt>
      <trkpt lat="44.60144" lon="0.87063">
        <ele>157</ele>
        <time>2012-01-30T13:46:29Z</time>
      </trkpt>
      <trkpt lat="44.6014" lon="0.87066">
        <ele>157</ele>
        <time>2012-01-30T13:46:31Z</time>
      </trkpt>
      <trkpt lat="44.60135" lon="0.87068">
        <ele>157</ele>
        <time>2012-01-30T13:46:32Z</time>
      </trkpt>
      <trkpt lat="44.60131" lon="0.87071">
        <ele>157</ele>
        <time>2012-01-30T13:46:33Z</time>
      </trkpt>
      <trkpt lat="44.60126" lon="0.87072">
        <ele>157</ele>
        <time>2012-01-30T13:46:34Z</time>
      </trkpt>
      <trkpt lat="44.60121" lon="0.87073">
        <ele>156</ele>
        <time>2012-01-30T13:46:35Z</time>
      </trkpt>
      <trkpt lat="44.60116" lon="0.87076">
        <ele>156</ele>
        <time>2012-01-30T13:46:36Z</time>
      </trkpt>
      <trkpt lat="44.6011" lon="0.87078">
        <ele>156</ele>
        <time>2012-01-30T13:46:37Z</time>
      </trkpt>
      <trkpt lat="44.60105" lon="0.8708">
        <ele>155</ele>
        <time>2012-01-30T13:46:38Z</time>
      </trkpt>
      <trkpt lat="44.60099" lon="0.87082">
        <ele>155</ele>
        <time>2012-01-30T13:46:39Z</time>
      </trkpt>
      <trkpt lat="44.60094" lon="0.87084">
        <ele>154</ele>
        <time>2012-01-30T13:46:40Z</time>
      </trkpt>
      <trkpt lat="44.60087" lon="0.87085">
        <ele>154</ele>
        <time>2012-01-30T13:46:41Z</time>
      </trkpt>
      <trkpt lat="44.60081" lon="0.87086">
        <ele>153</ele>
        <time>2012-01-30T13:46:41Z</time>
      </trkpt>
      <trkpt lat="44.60075" lon="0.87088">
        <ele>152</ele>
        <time>2012-01-30T13:46:42Z</time>
      </trkpt>
      <trkpt lat="44.60069" lon="0.87089">
        <ele>151</ele>
        <time>2012-01-30T13:46:44Z</time>
      </trkpt>
      <trkpt lat="44.60062" lon="0.87091">
        <ele>151</ele>
        <time>2012-01-30T13:46:45Z</time>
      </trkpt>
      <trkpt lat="44.60056" lon="0.87092">
        <ele>150</ele>
        <time>2012-01-30T13:46:45Z</time>
      </trkpt>
      <trkpt lat="44.6005" lon="0.87094">
        <ele>150</ele>
        <time>2012-01-30T13:46:47Z</time>
      </trkpt>
      <trkpt lat="44.60044" lon="0.87095">
        <ele>150</ele>
        <time>2012-01-30T13:46:47Z</time>
      </trkpt>
      <trkpt lat="44.60039" lon="0.87096">
        <ele>149</ele>
        <time>2012-01-30T13:46:49Z</time>
      </trkpt>
      <trkpt lat="44.60035" lon="0.87097">
        <ele>149</ele>
        <time>2012-01-30T13:46:49Z</time>
      </trkpt>
      <trkpt lat="44.60033" lon="0.87097">
        <ele>149</ele>
        <time>2012-01-30T13:46:50Z</time>
      </trkpt>
      <trkpt lat="44.60031" lon="0.87098">
        <ele>149</ele>
        <time>2012-01-30T13:46:52Z</time>
      </trkpt>
      <trkpt lat="44.60029" lon="0.87098">
        <ele>149</ele>
        <time>2012-01-30T13:46:53Z</time>
      </trkpt>
      <trkpt lat="44.60027" lon="0.87099">
        <ele>148</ele>
        <time>2012-01-30T13:46:53Z</time>
      </trkpt>
      <trkpt lat="44.60026" lon="0.87102">
        <ele>148</ele>
        <time>2012-01-30T13:46:54Z</time>
      </trkpt>
      <trkpt lat="44.60026" lon="0.87105">
        <ele>147</ele>
        <time>2012-01-30T13:46:56Z</time>
      </trkpt>
      <trkpt lat="44.60026" lon="0.8711">
        <ele>146</ele>
        <time>2012-01-30T13:46:57Z</time>
      </trkpt>
      <trkpt lat="44.60026" lon="0.87114">
        <ele>146</ele>
        <time>2012-01-30T13:46:57Z</time>
      </trkpt>
      <trkpt lat="44.60027" lon="0.8712">
        <ele>145</ele>
        <time>2012-01-30T13:46:59Z</time>
      </trkpt>
      <trkpt lat="44.60027" lon="0.87125">
        <ele>145</ele>
        <time>2012-01-30T13:47:00Z</time>
      </trkpt>
      <trkpt lat="44.60028" lon="0.87131">
        <ele>145</ele>
        <time>2012-01-30T13:47:01Z</time>
      </trkpt>
      <trkpt lat="44.60028" lon="0.87137">
        <ele>145</ele>
        <time>2012-01-30T13:47:02Z</time>
      </trkpt>
      <trkpt lat="44.60029" lon="0.87143">
        <ele>145</ele>
        <time>2012-01-30T13:47:03Z</time>
      </trkpt>
      <trkpt lat="44.60029" lon="0.8715">
        <ele>145</ele>
        <time>2012-01-30T13:47:03Z</time>
      </trkpt>
      <trkpt lat="44.6003" lon="0.87156">
        <ele>145</ele>
        <time>2012-01-30T13:47:04Z</time>
      </trkpt>
      <trkpt lat="44.60031" lon="0.87162">
        <ele>145</ele>
        <time>2012-01-30T13:47:05Z</time>
      </trkpt>
      <trkpt lat="44.60031" lon="0.87169">
        <ele>145</ele>
        <time>2012-01-30T13:47:06Z</time>
      </trkpt>
      <trkpt lat="44.60032" lon="0.87176">
        <ele>145</ele>
        <time>2012-01-30T13:47:08Z</time>
      </trkpt>
      <trkpt lat="44.60032" lon="0.87183">
        <ele>145</ele>
        <time>2012-01-30T13:47:09Z</time>
      </trkpt>
      <trkpt lat="44.60032" lon="0.8719">
        <ele>145</ele>
        <time>2012-01-30T13:47:09Z</time>
      </trkpt>
      <trkpt lat="44.60033" lon="0.87196">
        <ele>145</ele>
        <time>2012-01-30T13:47:11Z</time>
      </trkpt>
      <trkpt lat="44.60033" lon="0.87203">
        <ele>145</ele>
        <time>2012-01-30T13:47:12Z</time>
      </trkpt>
      <trkpt lat="44.60033" lon="0.8721">
        <ele>145</ele>
        <time>2012-01-30T13:47:13Z</time>
      </trkpt>
      <trkpt lat="44.60033" lon="0.87217">
        <ele>145</ele>
        <time>2012-01-30T13:47:13Z</time>
      </trkpt>
      <trkpt lat="44.60033" lon="0.87224">
        <ele>145</ele>
        <time>2012-01-30T13:47:15Z</time>
      </trkpt>
      <trkpt lat="44.60032" lon="0.8723">
        <ele>145</ele>
        <time>2012-01-30T13:47:15Z</time>
      </trkpt>
      <trkpt lat="44.60032" lon="0.87237">
        <ele>145</ele>
        <time>2012-01-30T13:47:17Z</time>
      </trkpt>
      <trkpt lat="44.60032" lon="0.87244">
        <ele>145</ele>
        <time>2012-01-30T13:47:17Z</time>
      </trkpt>
      <trkpt lat="44.60032" lon="0.87251">
        <ele>145</ele>
        <time>2012-01-30T13:47:19Z</time>
      </trkpt>
      <trkpt lat="44.60032" lon="0.87257">
        <ele>145</ele>
        <time>2012-01-30T13:47:19Z</time>
      </trkpt>
      <trkpt lat="44.60032" lon="0.87263">
        <ele>145</ele>
        <time>2012-01-30T13:47:21Z</time>
      </trkpt>
      <trkpt lat="44.60033" lon="0.87268">
        <ele>145</ele>
        <time>2012-01-30T13:47:21Z</time>
      </trkpt>
      <trkpt lat="44.60032" lon="0.87274">
        <ele>145</ele>
        <time>2012-01-30T13:47:22Z</time>
      </trkpt>
      <trkpt lat="44.60033" lon="0.87279">
        <ele>145</ele>
        <time>2012-01-30T13:47:23Z</time>
      </trkpt>
      <trkpt lat="44.60033" lon="0.87284">
        <ele>145</ele>
        <time>2012-01-30T13:47:25Z</time>
      </trkpt>
      <trkpt lat="44.60033" lon="0.87288">
        <ele>145</ele>
        <time>2012-01-30T13:47:26Z</time>
      </trkpt>
      <trkpt lat="44.60031" lon="0.87293">
        <ele>145</ele>
        <time>2012-01-30T13:47:26Z</time>
      </trkpt>
      <trkpt lat="44.60028" lon="0.87295">
        <ele>145</ele>
        <time>2012-01-30T13:47:27Z</time>
      </trkpt>
      <trkpt lat="44.60024" lon="0.87296">
        <ele>145</ele>
        <time>2012-01-30T13:47:28Z</time>
      </trkpt>
      <trkpt lat="44.60021" lon="0.87295">
        <ele>145</ele>
        <time>2012-01-30T13:47:29Z</time>
      </trkpt>
      <trkpt lat="44.60017" lon="0.87295">
        <ele>145</ele>
        <time>2012-01-30T13:47:31Z</time>
      </trkpt>
      <trkpt lat="44.60014" lon="0.87294">
        <ele>145</ele>
        <time>2012-01-30T13:47:32Z</time>
      </trkpt>
      <trkpt lat="44.60011" lon="0.87294">
        <ele>145</ele>
        <time>2012-01-30T13:47:32Z</time>
      </trkpt>
      <trkpt lat="44.60008" lon="0.87293">
        <ele>145</ele>
        <time>2012-01-30T13:47:33Z</time>
      </trkpt>
      <trkpt lat="44.60006" lon="0.87292">
        <ele>145</ele>
        <time>2012-01-30T13:47:34Z</time>
      </trkpt>
      <trkpt lat="44.60003" lon="0.87291">
        <ele>146</ele>
        <time>2012-01-30T13:47:36Z</time>
      </trkpt>
      <trkpt lat="44.6" lon="0.87289">
        <ele>146</ele>
        <time>2012-01-30T13:47:37Z</time>
      </trkpt>
      <trkpt lat="44.59997" lon="0.87287">
        <ele>146</ele>
        <time>2012-01-30T13:47:37Z</time>
      </trkpt>
      <trkpt lat="44.59994" lon="0.87285">
        <ele>146</ele>
        <time>2012-01-30T13:47:38Z</time>
      </trkpt>
      <trkpt lat="44.59992" lon="0.87283">
        <ele>146</ele>
        <time>2012-01-30T13:47:39Z</time>
      </trkpt>
      <trkpt lat="44.5999" lon="0.87282">
        <ele>146</ele>
        <time>2012-01-30T13:47:41Z</time>
      </trkpt>
      <trkpt lat="44.59989" lon="0.87279">
        <ele>146</ele>
        <time>2012-01-30T13:47:41Z</time>
      </trkpt>
      <trkpt lat="44.59987" lon="0.87277">
        <ele>146</ele>
        <time>2012-01-30T13:47:42Z</time>
      </trkpt>
      <trkpt lat="44.59986" lon="0.87275">
        <ele>146</ele>
        <time>2012-01-30T13:47:43Z</time>
      </trkpt>
      <trkpt lat="44.59984" lon="0.87272">
        <ele>146</ele>
        <time>2012-01-30T13:47:45Z</time>
      </trkpt>
      <trkpt lat="44.59983" lon="0.87269">
        <ele>147</ele>
        <time>2012-01-30T13:47:46Z</time>
      </trkpt>
      <trkpt lat="44.59981" lon="0.87266">
        <ele>147</ele>
        <time>2012-01-30T13:47:46Z</time>
      </trkpt>
      <trkpt lat="44.59979" lon="0.87263">
        <ele>147</ele>
        <time>2012-01-30T13:47:47Z</time>
      </trkpt>
      <trkpt lat="44.59977" lon="0.8726">
        <ele>148</ele>
        <time>2012-01-30T13:47:48Z</time>
      </trkpt>
      <trkpt lat="44.59975" lon="0.87256">
        <ele>148</ele>
        <time>2012-01-30T13:47:49Z</time>
      </trkpt>
      <trkpt lat="44.59973" lon="0.87253">
        <ele>148</ele>
        <time>2012-01-30T13:47:51Z</time>
      </trkpt>
      <trkpt lat="44.59972" lon="0.87249">
        <ele>149</ele>
        <time>2012-01-30T13:47:51Z</time>
      </trkpt>
      <trkpt lat="44.59969" lon="0.87246">
        <ele>149</ele>
        <time>2012-01-30T13:47:52Z</time>
      </trkpt>
      <trkpt lat="44.59967" lon="0.87242">
        <ele>149</ele>
        <time>2012-01-30T13:47:53Z</time>
      </trkpt>
      <trkpt lat="44.59966" lon="0.87239">
        <ele>149</ele>
        <time>2012-01-30T13:47:54Z</time>
      </trkpt>
      <trkpt lat="44.59964" lon="0.87235">
        <ele>150</ele>
        <time>2012-01-30T13:47:56Z</time>
      </trkpt>
      <trkpt lat="44.59961" lon="0.87232">
        <ele>150</ele>
        <time>2012-01-30T13:47:57Z</time>
      </trkpt>
      <trkpt lat="44.59959" lon="0.87229">
        <ele>150</ele>
        <time>2012-01-30T13:47:57Z</time>
      </trkpt>
      <trkpt lat="44.59957" lon="0.87225">
        <ele>151</ele>
        <time>2012-01-30T13:47:58Z</time>
      </trkpt>
      <trkpt lat="44.59955" lon="0.87222">
        <ele>151</ele>
        <time>2012-01-30T13:47:59Z</time>
      </trkpt>
      <trkpt lat="44.59953" lon="0.87219">
        <ele>151</ele>
        <time>2012-01-30T13:48:01Z</time>
      </trkpt>
      <trkpt lat="44.5995" lon="0.87216">
        <ele>152</ele>
        <time>2012-01-30T13:48:01Z</time>
      </trkpt>
      <trkpt lat="44.59948" lon="0.87213">
        <ele>152</ele>
        <time>2012-01-30T13:48:02Z</time>
      </trkpt>
      <trkpt lat="44.59945" lon="0.87211">
        <ele>153</ele>
        <time>2012-01-30T13:48:03Z</time>
      </trkpt>
      <trkpt lat="44.59942" lon="0.87208">
        <ele>153</ele>
        <time>2012-01-30T13:48:04Z</time>
      </trkpt>
      <trkpt lat="44.59939" lon="0.87205">
        <ele>154</ele>
        <time>2012-01-30T13:48:06Z</time>
      </trkpt>
      <trkpt lat="44.59935" lon="0.87203">
        <ele>154</ele>
        <time>2012-01-30T13:48:06Z</time>
      </trkpt>
      <trkpt lat="44.59932" lon="0.872">
        <ele>154</ele>
        <time>2012-01-30T13:48:07Z</time>
      </trkpt>
      <trkpt lat="44.59927" lon="0.87198">
        <ele>154</ele>
        <time>2012-01-30T13:48:08Z</time>
      </trkpt>
      <trkpt lat="44.59924" lon="0.87195">
        <ele>154</ele>
        <time>2012-01-30T13:48:09Z</time>
      </trkpt>
      <trkpt lat="44.5992" lon="0.87193">
        <ele>154</ele>
        <time>2012-01-30T13:48:11Z</time>
      </trkpt>
      <trkpt lat="44.59916" lon="0.87191">
        <ele>154</ele>
        <time>2012-01-30T13:48:11Z</time>
      </trkpt>
      <trkpt lat="44.59911" lon="0.87189">
        <ele>154</ele>
        <time>2012-01-30T13:48:12Z</time>
      </trkpt>
      <trkpt lat="44.59907" lon="0.87187">
        <ele>154</ele>
        <time>2012-01-30T13:48:13Z</time>
      </trkpt>
      <trkpt lat="44.59902" lon="0.87187">
        <ele>154</ele>
        <time>2012-01-30T13:48:14Z</time>
      </trkpt>
      <trkpt lat="44.59898" lon="0.87186">
        <ele>154</ele>
        <time>2012-01-30T13:48:16Z</time>
      </trkpt>
      <trkpt lat="44.59893" lon="0.87187">
        <ele>154</ele>
        <time>2012-01-30T13:48:16Z</time>
      </trkpt>
      <trkpt lat="44.59889" lon="0.87188">
        <ele>154</ele>
        <time>2012-01-30T13:48:17Z</time>
      </trkpt>
      <trkpt lat="44.59884" lon="0.8719">
        <ele>154</ele>
        <time>2012-01-30T13:48:18Z</time>
      </trkpt>
      <trkpt lat="44.5988" lon="0.87191">
        <ele>154</ele>
        <time>2012-01-30T13:48:19Z</time>
      </trkpt>
      <trkpt lat="44.59876" lon="0.87195">
        <ele>154</ele>
        <time>2012-01-30T13:48:21Z</time>
      </trkpt>
      <trkpt lat="44.59873" lon="0.87199">
        <ele>154</ele>
        <time>2012-01-30T13:48:21Z</time>
      </trkpt>
      <trkpt lat="44.59871" lon="0.87202">
        <ele>154</ele>
        <time>2012-01-30T13:48:22Z</time>
      </trkpt>
      <trkpt lat="44.59868" lon="0.87206">
        <ele>154</ele>
        <time>2012-01-30T13:48:23Z</time>
      </trkpt>
      <trkpt lat="44.59865" lon="0.8721">
        <ele>154</ele>
        <time>2012-01-30T13:48:24Z</time>
      </trkpt>
      <trkpt lat="44.59863" lon="0.87214">
        <ele>154</ele>
        <time>2012-01-30T13:48:26Z</time>
      </trkpt>
      <trkpt lat="44.59861" lon="0.87218">
        <ele>154</ele>
        <time>2012-01-30T13:48:26Z</time>
      </trkpt>
      <trkpt lat="44.59858" lon="0.87222">
        <ele>154</ele>
        <time>2012-01-30T13:48:27Z</time>
      </trkpt>
      <trkpt lat="44.59855" lon="0.87226">
        <ele>154</ele>
        <time>2012-01-30T13:48:28Z</time>
      </trkpt>
      <trkpt lat="44.59853" lon="0.8723">
        <ele>154</ele>
        <time>2012-01-30T13:48:29Z</time>
      </trkpt>
      <trkpt lat="44.5985" lon="0.87234">
        <ele>154</ele>
        <time>2012-01-30T13:48:31Z</time>
      </trkpt>
      <trkpt lat="44.59847" lon="0.87238">
        <ele>154</ele>
        <time>2012-01-30T13:48:31Z</time>
      </trkpt>
      <trkpt lat="44.59844" lon="0.87242">
        <ele>154</ele>
        <time>2012-01-30T13:48:32Z</time>
      </trkpt>
      <trkpt lat="44.59841" lon="0.87246">
        <ele>154</ele>
        <time>2012-01-30T13:48:33Z</time>
      </trkpt>
      <trkpt lat="44.59838" lon="0.87252">
        <ele>154</ele>
        <time>2012-01-30T13:48:34Z</time>
      </trkpt>
      <trkpt lat="44.59835" lon="0.87257">
        <ele>154</ele>
        <time>2012-01-30T13:48:36Z</time>
      </trkpt>
      <trkpt lat="44.59832" lon="0.87262">
        <ele>154</ele>
        <time>2012-01-30T13:48:36Z</time>
      </trkpt>
      <trkpt lat="44.59829" lon="0.87269">
        <ele>154</ele>
        <time>2012-01-30T13:48:37Z</time>
      </trkpt>
      <trkpt lat="44.59826" lon="0.87273">
        <ele>154</ele>
        <time>2012-01-30T13:48:38Z</time>
      </trkpt>
      <trkpt lat="44.59822" lon="0.87278">
        <ele>154</ele>
        <time>2012-01-30T13:48:39Z</time>
      </trkpt>
      <trkpt lat="44.59819" lon="0.87283">
        <ele>154</ele>
        <time>2012-01-30T13:48:41Z</time>
      </trkpt>
      <trkpt lat="44.59816" lon="0.87287">
        <ele>154</ele>
        <time>2012-01-30T13:48:41Z</time>
      </trkpt>
      <trkpt lat="44.59813" lon="0.87292">
        <ele>154</ele>
        <time>2012-01-30T13:48:42Z</time>
      </trkpt>
      <trkpt lat="44.5981" lon="0.87297">
        <ele>154</ele>
        <time>2012-01-30T13:48:43Z</time>
      </trkpt>
      <trkpt lat="44.59807" lon="0.87301">
        <ele>154</ele>
        <time>2012-01-30T13:48:45Z</time>
      </trkpt>
      <trkpt lat="44.59803" lon="0.87305">
        <ele>154</ele>
        <time>2012-01-30T13:48:46Z</time>
      </trkpt>
      <trkpt lat="44.598" lon="0.87309">
        <ele>154</ele>
        <time>2012-01-30T13:48:46Z</time>
      </trkpt>
      <trkpt lat="44.59798" lon="0.87313">
        <ele>154</ele>
        <time>2012-01-30T13:48:48Z</time>
      </trkpt>
      <trkpt lat="44.59795" lon="0.87317">
        <ele>154</ele>
        <time>2012-01-30T13:48:49Z</time>
      </trkpt>
      <trkpt lat="44.59793" lon="0.87322">
        <ele>154</ele>
        <time>2012-01-30T13:48:50Z</time>
      </trkpt>
      <trkpt lat="44.5979" lon="0.87326">
        <ele>154</ele>
        <time>2012-01-30T13:48:50Z</time>
      </trkpt>
      <trkpt lat="44.59789" lon="0.87331">
        <ele>154</ele>
        <time>2012-01-30T13:48:52Z</time>
      </trkpt>
      <trkpt lat="44.59787" lon="0.87335">
        <ele>154</ele>
        <time>2012-01-30T13:48:53Z</time>
      </trkpt>
      <trkpt lat="44.59785" lon="0.8734">
        <ele>154</ele>
        <time>2012-01-30T13:48:53Z</time>
      </trkpt>
      <trkpt lat="44.59783" lon="0.87344">
        <ele>154</ele>
        <time>2012-01-30T13:48:54Z</time>
      </trkpt>
      <trkpt lat="44.59781" lon="0.87349">
        <ele>154</ele>
        <time>2012-01-30T13:48:56Z</time>
      </trkpt>
      <trkpt lat="44.59779" lon="0.87353">
        <ele>154</ele>
        <time>2012-01-30T13:48:56Z</time>
      </trkpt>
      <trkpt lat="44.59777" lon="0.87358">
        <ele>154</ele>
        <time>2012-01-30T13:48:58Z</time>
      </trkpt>
      <trkpt lat="44.59774" lon="0.87362">
        <ele>154</ele>
        <time>2012-01-30T13:48:58Z</time>
      </trkpt>
      <trkpt lat="44.59772" lon="0.87365">
        <ele>154</ele>
        <time>2012-01-30T13:48:59Z</time>
      </trkpt>
      <trkpt lat="44.5977" lon="0.87368">
        <ele>154</ele>
        <time>2012-01-30T13:49:01Z</time>
      </trkpt>
      <trkpt lat="44.59768" lon="0.87371">
        <ele>154</ele>
        <time>2012-01-30T13:49:01Z</time>
      </trkpt>
      <trkpt lat="44.59766" lon="0.87375">
        <ele>154</ele>
        <time>2012-01-30T13:49:03Z</time>
      </trkpt>
      <trkpt lat="44.59764" lon="0.87378">
        <ele>154</ele>
        <time>2012-01-30T13:49:03Z</time>
      </trkpt>
      <trkpt lat="44.59762" lon="0.87381">
        <ele>154</ele>
        <time>2012-01-30T13:49:05Z</time>
      </trkpt>
      <trkpt lat="44.5976" lon="0.87385">
        <ele>154</ele>
        <time>2012-01-30T13:49:05Z</time>
      </trkpt>
      <trkpt lat="44.59758" lon="0.87388">
        <ele>154</ele>
        <time>2012-01-30T13:49:07Z</time>
      </trkpt>
      <trkpt lat="44.59756" lon="0.8739">
        <ele>154</ele>
        <time>2012-01-30T13:49:08Z</time>
      </trkpt>
      <trkpt lat="44.59755" lon="0.87393">
        <ele>154</ele>
        <time>2012-01-30T13:49:08Z</time>
      </trkpt>
      <trkpt lat="44.59753" lon="0.87397">
        <ele>154</ele>
        <time>2012-01-30T13:49:10Z</time>
      </trkpt>
      <trkpt lat="44.59751" lon="0.87401">
        <ele>155</ele>
        <time>2012-01-30T13:49:10Z</time>
      </trkpt>
      <trkpt lat="44.59749" lon="0.87404">
        <ele>156</ele>
        <time>2012-01-30T13:49:11Z</time>
      </trkpt>
      <trkpt lat="44.59747" lon="0.87407">
        <ele>157</ele>
        <time>2012-01-30T13:49:12Z</time>
      </trkpt>
      <trkpt lat="44.59745" lon="0.8741">
        <ele>158</ele>
        <time>2012-01-30T13:49:14Z</time>
      </trkpt>
      <trkpt lat="44.59744" lon="0.87413">
        <ele>159</ele>
        <time>2012-01-30T13:49:14Z</time>
      </trkpt>
      <trkpt lat="44.59742" lon="0.87416">
        <ele>160</ele>
        <time>2012-01-30T13:49:16Z</time>
      </trkpt>
      <trkpt lat="44.59741" lon="0.87419">
        <ele>161</ele>
        <time>2012-01-30T13:49:17Z</time>
      </trkpt>
      <trkpt lat="44.59739" lon="0.87421">
        <ele>162</ele>
        <time>2012-01-30T13:49:17Z</time>
      </trkpt>
      <trkpt lat="44.59737" lon="0.87423">
        <ele>163</ele>
        <time>2012-01-30T13:49:19Z</time>
      </trkpt>
      <trkpt lat="44.59736" lon="0.87425">
        <ele>164</ele>
        <time>2012-01-30T13:49:20Z</time>
      </trkpt>
      <trkpt lat="44.59734" lon="0.87427">
        <ele>165</ele>
        <time>2012-01-30T13:49:20Z</time>
      </trkpt>
      <trkpt lat="44.59732" lon="0.87429">
        <ele>165</ele>
        <time>2012-01-30T13:49:21Z</time>
      </trkpt>
      <trkpt lat="44.59731" lon="0.87431">
        <ele>166</ele>
        <time>2012-01-30T13:49:22Z</time>
      </trkpt>
      <trkpt lat="44.59729" lon="0.87434">
        <ele>166</ele>
        <time>2012-01-30T13:49:24Z</time>
      </trkpt>
      <trkpt lat="44.59728" lon="0.87436">
        <ele>167</ele>
        <time>2012-01-30T13:49:25Z</time>
      </trkpt>
      <trkpt lat="44.59726" lon="0.87437">
        <ele>167</ele>
        <time>2012-01-30T13:49:25Z</time>
      </trkpt>
      <trkpt lat="44.59724" lon="0.87439">
        <ele>167</ele>
        <time>2012-01-30T13:49:27Z</time>
      </trkpt>
      <trkpt lat="44.59722" lon="0.87441">
        <ele>168</ele>
        <time>2012-01-30T13:49:28Z</time>
      </trkpt>
      <trkpt lat="44.5972" lon="0.87442">
        <ele>168</ele>
        <time>2012-01-30T13:49:28Z</time>
      </trkpt>
      <trkpt lat="44.59718" lon="0.87444">
        <ele>169</ele>
        <time>2012-01-30T13:49:29Z</time>
      </trkpt>
      <trkpt lat="44.59717" lon="0.87446">
        <ele>169</ele>
        <time>2012-01-30T13:49:31Z</time>
      </trkpt>
      <trkpt lat="44.59715" lon="0.87449">
        <ele>169</ele>
        <time>2012-01-30T13:49:31Z</time>
      </trkpt>
      <trkpt lat="44.59713" lon="0.87451">
        <ele>170</ele>
        <time>2012-01-30T13:49:33Z</time>
      </trkpt>
      <trkpt lat="44.5971" lon="0.87453">
        <ele>170</ele>
        <time>2012-01-30T13:49:33Z</time>
      </trkpt>
      <trkpt lat="44.59708" lon="0.87455">
        <ele>171</ele>
        <time>2012-01-30T13:49:34Z</time>
      </trkpt>
      <trkpt lat="44.59705" lon="0.87457">
        <ele>171</ele>
        <time>2012-01-30T13:49:36Z</time>
      </trkpt>
      <trkpt lat="44.59704" lon="0.8746">
        <ele>171</ele>
        <time>2012-01-30T13:49:36Z</time>
      </trkpt>
      <trkpt lat="44.59702" lon="0.87463">
        <ele>171</ele>
        <time>2012-01-30T13:49:38Z</time>
      </trkpt>
      <trkpt lat="44.59701" lon="0.87466">
        <ele>171</ele>
        <time>2012-01-30T13:49:38Z</time>
      </trkpt>
      <trkpt lat="44.59699" lon="0.87469">
        <ele>171</ele>
        <time>2012-01-30T13:49:39Z</time>
      </trkpt>
      <trkpt lat="44.59698" lon="0.87472">
        <ele>171</ele>
        <time>2012-01-30T13:49:41Z</time>
      </trkpt>
      <trkpt lat="44.59696" lon="0.87473">
        <ele>171</ele>
        <time>2012-01-30T13:49:41Z</time>
      </trkpt>
      <trkpt lat="44.59694" lon="0.87475">
        <ele>171</ele>
        <time>2012-01-30T13:49:43Z</time>
      </trkpt>
      <trkpt lat="44.59692" lon="0.87476">
        <ele>171</ele>
        <time>2012-01-30T13:49:43Z</time>
      </trkpt>
      <trkpt lat="44.59689" lon="0.87478">
        <ele>171</ele>
        <time>2012-01-30T13:49:45Z</time>
      </trkpt>
      <trkpt lat="44.59687" lon="0.8748">
        <ele>171</ele>
        <time>2012-01-30T13:49:46Z</time>
      </trkpt>
      <trkpt lat="44.59685" lon="0.87483">
        <ele>171</ele>
        <time>2012-01-30T13:49:46Z</time>
      </trkpt>
      <trkpt lat="44.59683" lon="0.87486">
        <ele>171</ele>
        <time>2012-01-30T13:49:47Z</time>
      </trkpt>
      <trkpt lat="44.59681" lon="0.87488">
        <ele>171</ele>
        <time>2012-01-30T13:49:48Z</time>
      </trkpt>
      <trkpt lat="44.59679" lon="0.8749">
        <ele>171</ele>
        <time>2012-01-30T13:49:49Z</time>
      </trkpt>
      <trkpt lat="44.59678" lon="0.87493">
        <ele>171</ele>
        <time>2012-01-30T13:49:51Z</time>
      </trkpt>
      <trkpt lat="44.59676" lon="0.87496">
        <ele>171</ele>
        <time>2012-01-30T13:49:51Z</time>
      </trkpt>
      <trkpt lat="44.59674" lon="0.87499">
        <ele>171</ele>
        <time>2012-01-30T13:49:52Z</time>
      </trkpt>
      <trkpt lat="44.59673" lon="0.87501">
        <ele>171</ele>
        <time>2012-01-30T13:49:53Z</time>
      </trkpt>
      <trkpt lat="44.59671" lon="0.87503">
        <ele>171</ele>
        <time>2012-01-30T13:49:54Z</time>
      </trkpt>
      <trkpt lat="44.59669" lon="0.87505">
        <ele>171</ele>
        <time>2012-01-30T13:49:56Z</time>
      </trkpt>
      <trkpt lat="44.59668" lon="0.87507">
        <ele>171</ele>
        <time>2012-01-30T13:49:56Z</time>
      </trkpt>
      <trkpt lat="44.59666" lon="0.8751">
        <ele>171</ele>
        <time>2012-01-30T13:49:57Z</time>
      </trkpt>
      <trkpt lat="44.59664" lon="0.87513">
        <ele>171</ele>
        <time>2012-01-30T13:49:58Z</time>
      </trkpt>
      <trkpt lat="44.59662" lon="0.87515">
        <ele>171</ele>
        <time>2012-01-30T13:50:00Z</time>
      </trkpt>
      <trkpt lat="44.5966" lon="0.87517">
        <ele>171</ele>
        <time>2012-01-30T13:50:00Z</time>
      </trkpt>
      <trkpt lat="44.59657" lon="0.8752">
        <ele>171</ele>
        <time>2012-01-30T13:50:02Z</time>
      </trkpt>
      <trkpt lat="44.59654" lon="0.87521">
        <ele>171</ele>
        <time>2012-01-30T13:50:02Z</time>
      </trkpt>
      <trkpt lat="44.59651" lon="0.87524">
        <ele>171</ele>
        <time>2012-01-30T13:50:03Z</time>
      </trkpt>
      <trkpt lat="44.59648" lon="0.87527">
        <ele>171</ele>
        <time>2012-01-30T13:50:04Z</time>
      </trkpt>
      <trkpt lat="44.59646" lon="0.8753">
        <ele>171</ele>
        <time>2012-01-30T13:50:05Z</time>
      </trkpt>
      <trkpt lat="44.59643" lon="0.87534">
        <ele>171</ele>
        <time>2012-01-30T13:50:07Z</time>
      </trkpt>
      <trkpt lat="44.59641" lon="0.87537">
        <ele>171</ele>
        <time>2012-01-30T13:50:07Z</time>
      </trkpt>
      <trkpt lat="44.59639" lon="0.8754">
        <ele>171</ele>
        <time>2012-01-30T13:50:08Z</time>
      </trkpt>
      <trkpt lat="44.59638" lon="0.87544">
        <ele>172</ele>
        <time>2012-01-30T13:50:09Z</time>
      </trkpt>
      <trkpt lat="44.59636" lon="0.87548">
        <ele>172</ele>
        <time>2012-01-30T13:50:10Z</time>
      </trkpt>
      <trkpt lat="44.59635" lon="0.87552">
        <ele>172</ele>
        <time>2012-01-30T13:50:12Z</time>
      </trkpt>
      <trkpt lat="44.59632" lon="0.87556">
        <ele>172</ele>
        <time>2012-01-30T13:50:12Z</time>
      </trkpt>
      <trkpt lat="44.59631" lon="0.8756">
        <ele>172</ele>
        <time>2012-01-30T13:50:13Z</time>
      </trkpt>
      <trkpt lat="44.59629" lon="0.87564">
        <ele>172</ele>
        <time>2012-01-30T13:50:14Z</time>
      </trkpt>
      <trkpt lat="44.59628" lon="0.87568">
        <ele>172</ele>
        <time>2012-01-30T13:50:15Z</time>
      </trkpt>
      <trkpt lat="44.59626" lon="0.87573">
        <ele>172</ele>
        <time>2012-01-30T13:50:17Z</time>
      </trkpt>
      <trkpt lat="44.59624" lon="0.87577">
        <ele>172</ele>
        <time>2012-01-30T13:50:17Z</time>
      </trkpt>
      <trkpt lat="44.59623" lon="0.87581">
        <ele>172</ele>
        <time>2012-01-30T13:50:18Z</time>
      </trkpt>
      <trkpt lat="44.59622" lon="0.87586">
        <ele>172</ele>
        <time>2012-01-30T13:50:19Z</time>
      </trkpt>
      <trkpt lat="44.5962" lon="0.8759">
        <ele>172</ele>
        <time>2012-01-30T13:50:20Z</time>
      </trkpt>
      <trkpt lat="44.59619" lon="0.87594">
        <ele>172</ele>
        <time>2012-01-30T13:50:22Z</time>
      </trkpt>
      <trkpt lat="44.59617" lon="0.87598">
        <ele>172</ele>
        <time>2012-01-30T13:50:22Z</time>
      </trkpt>
      <trkpt lat="44.59615" lon="0.87602">
        <ele>172</ele>
        <time>2012-01-30T13:50:23Z</time>
      </trkpt>
      <trkpt lat="44.59614" lon="0.87606">
        <ele>172</ele>
        <time>2012-01-30T13:50:24Z</time>
      </trkpt>
      <trkpt lat="44.59613" lon="0.8761">
        <ele>173</ele>
        <time>2012-01-30T13:50:25Z</time>
      </trkpt>
      <trkpt lat="44.59613" lon="0.87615">
        <ele>173</ele>
        <time>2012-01-30T13:50:27Z</time>
      </trkpt>
      <trkpt lat="44.59612" lon="0.87619">
        <ele>173</ele>
        <time>2012-01-30T13:50:28Z</time>
      </trkpt>
      <trkpt lat="44.59612" lon="0.87624">
        <ele>173</ele>
        <time>2012-01-30T13:50:28Z</time>
      </trkpt>
      <trkpt lat="44.59611" lon="0.87628">
        <ele>173</ele>
        <time>2012-01-30T13:50:29Z</time>
      </trkpt>
      <trkpt lat="44.5961" lon="0.87633">
        <ele>173</ele>
        <time>2012-01-30T13:50:30Z</time>
      </trkpt>
      <trkpt lat="44.59608" lon="0.87637">
        <ele>173</ele>
        <time>2012-01-30T13:50:32Z</time>
      </trkpt>
      <trkpt lat="44.59607" lon="0.87642">
        <ele>173</ele>
        <time>2012-01-30T13:50:32Z</time>
      </trkpt>
      <trkpt lat="44.59605" lon="0.87647">
        <ele>173</ele>
        <time>2012-01-30T13:50:33Z</time>
      </trkpt>
      <trkpt lat="44.59604" lon="0.87651">
        <ele>173</ele>
        <time>2012-01-30T13:50:34Z</time>
      </trkpt>
      <trkpt lat="44.59602" lon="0.87656">
        <ele>173</ele>
        <time>2012-01-30T13:50:36Z</time>
      </trkpt>
      <trkpt lat="44.596" lon="0.8766">
        <ele>173</ele>
        <time>2012-01-30T13:50:37Z</time>
      </trkpt>
      <trkpt lat="44.59599" lon="0.87664">
        <ele>173</ele>
        <time>2012-01-30T13:50:37Z</time>
      </trkpt>
      <trkpt lat="44.59597" lon="0.87669">
        <ele>173</ele>
        <time>2012-01-30T13:50:38Z</time>
      </trkpt>
      <trkpt lat="44.59596" lon="0.87673">
        <ele>173</ele>
        <time>2012-01-30T13:50:40Z</time>
      </trkpt>
      <trkpt lat="44.59594" lon="0.87678">
        <ele>173</ele>
        <time>2012-01-30T13:50:41Z</time>
      </trkpt>
      <trkpt lat="44.59592" lon="0.87682">
        <ele>173</ele>
        <time>2012-01-30T13:50:42Z</time>
      </trkpt>
      <trkpt lat="44.5959" lon="0.87686">
        <ele>173</ele>
        <time>2012-01-30T13:50:42Z</time>
      </trkpt>
      <trkpt lat="44.59589" lon="0.8769">
        <ele>173</ele>
        <time>2012-01-30T13:50:43Z</time>
      </trkpt>
      <trkpt lat="44.59588" lon="0.87693">
        <ele>173</ele>
        <time>2012-01-30T13:50:44Z</time>
      </trkpt>
      <trkpt lat="44.59587" lon="0.87695">
        <ele>173</ele>
        <time>2012-01-30T13:50:45Z</time>
      </trkpt>
      <trkpt lat="44.59586" lon="0.87698">
        <ele>173</ele>
        <time>2012-01-30T13:50:47Z</time>
      </trkpt>
      <trkpt lat="44.59585" lon="0.87701">
        <ele>173</ele>
        <time>2012-01-30T13:50:48Z</time>
      </trkpt>
      <trkpt lat="44.59584" lon="0.87703">
        <ele>173</ele>
        <time>2012-01-30T13:50:48Z</time>
      </trkpt>
      <trkpt lat="44.59581" lon="0.87705">
        <ele>173</ele>
        <time>2012-01-30T13:50:49Z</time>
      </trkpt>
      <trkpt lat="44.59578" lon="0.87706">
        <ele>173</ele>
        <time>2012-01-30T13:50:50Z</time>
      </trkpt>
      <trkpt lat="44.59575" lon="0.87705">
        <ele>173</ele>
        <time>2012-01-30T13:50:52Z</time>
      </trkpt>
      <trkpt lat="44.59572" lon="0.87703">
        <ele>173</ele>
        <time>2012-01-30T13:50:52Z</time>
      </trkpt>
      <trkpt lat="44.59568" lon="0.87699">
        <ele>173</ele>
        <time>2012-01-30T13:50:53Z</time>
      </trkpt>
      <trkpt lat="44.59564" lon="0.87694">
        <ele>173</ele>
        <time>2012-01-30T13:50:54Z</time>
      </trkpt>
      <trkpt lat="44.5956" lon="0.8769">
        <ele>173</ele>
        <time>2012-01-30T13:50:55Z</time>
      </trkpt>
      <trkpt lat="44.59556" lon="0.87685">
        <ele>173</ele>
        <time>2012-01-30T13:50:56Z</time>
      </trkpt>
      <trkpt lat="44.59552" lon="0.87679">
        <ele>173</ele>
        <time>2012-01-30T13:50:58Z</time>
      </trkpt>
      <trkpt lat="44.59548" lon="0.87675">
        <ele>173</ele>
        <time>2012-01-30T13:50:58Z</time>
      </trkpt>
      <trkpt lat="44.59544" lon="0.8767">
        <ele>174</ele>
        <time>2012-01-30T13:50:59Z</time>
      </trkpt>
      <trkpt lat="44.59541" lon="0.87666">
        <ele>174</ele>
        <time>2012-01-30T13:51:00Z</time>
      </trkpt>
      <trkpt lat="44.59537" lon="0.87663">
        <ele>174</ele>
        <time>2012-01-30T13:51:01Z</time>
      </trkpt>
      <trkpt lat="44.59533" lon="0.87659">
        <ele>175</ele>
        <time>2012-01-30T13:51:03Z</time>
      </trkpt>
      <trkpt lat="44.5953" lon="0.87655">
        <ele>175</ele>
        <time>2012-01-30T13:51:03Z</time>
      </trkpt>
      <trkpt lat="44.59526" lon="0.87651">
        <ele>175</ele>
        <time>2012-01-30T13:51:04Z</time>
      </trkpt>
      <trkpt lat="44.59523" lon="0.87646">
        <ele>175</ele>
        <time>2012-01-30T13:51:05Z</time>
      </trkpt>
      <trkpt lat="44.5952" lon="0.87642">
        <ele>176</ele>
        <time>2012-01-30T13:51:06Z</time>
      </trkpt>
      <trkpt lat="44.59518" lon="0.87639">
        <ele>176</ele>
        <time>2012-01-30T13:51:08Z</time>
      </trkpt>
      <trkpt lat="44.59515" lon="0.87636">
        <ele>176</ele>
        <time>2012-01-30T13:51:08Z</time>
      </trkpt>
      <trkpt lat="44.59512" lon="0.87632">
        <ele>176</ele>
        <time>2012-01-30T13:51:09Z</time>
      </trkpt>
      <trkpt lat="44.59509" lon="0.87629">
        <ele>176</ele>
        <time>2012-01-30T13:51:10Z</time>
      </trkpt>
      <trkpt lat="44.59506" lon="0.87626">
        <ele>176</ele>
        <time>2012-01-30T13:51:11Z</time>
      </trkpt>
      <trkpt lat="44.59504" lon="0.87624">
        <ele>176</ele>
        <time>2012-01-30T13:51:13Z</time>
      </trkpt>
      <trkpt lat="44.59501" lon="0.87623">
        <ele>176</ele>
        <time>2012-01-30T13:51:13Z</time>
      </trkpt>
      <trkpt lat="44.595" lon="0.87623">
        <ele>176</ele>
        <time>2012-01-30T13:51:14Z</time>
      </trkpt>
      <trkpt lat="44.59498" lon="0.87624">
        <ele>176</ele>
        <time>2012-01-30T13:51:15Z</time>
      </trkpt>
      <trkpt lat="44.59497" lon="0.87626">
        <ele>176</ele>
        <time>2012-01-30T13:51:16Z</time>
      </trkpt>
      <trkpt lat="44.59495" lon="0.87628">
        <ele>176</ele>
        <time>2012-01-30T13:51:18Z</time>
      </trkpt>
      <trkpt lat="44.59494" lon="0.87631">
        <ele>176</ele>
        <time>2012-01-30T13:51:18Z</time>
      </trkpt>
      <trkpt lat="44.59492" lon="0.87635">
        <ele>176</ele>
        <time>2012-01-30T13:51:19Z</time>
      </trkpt>
      <trkpt lat="44.5949" lon="0.87639">
        <ele>177</ele>
        <time>2012-01-30T13:51:20Z</time>
      </trkpt>
      <trkpt lat="44.59489" lon="0.87644">
        <ele>177</ele>
        <time>2012-01-30T13:51:21Z</time>
      </trkpt>
      <trkpt lat="44.59486" lon="0.87649">
        <ele>178</ele>
        <time>2012-01-30T13:51:23Z</time>
      </trkpt>
      <trkpt lat="44.59484" lon="0.87653">
        <ele>179</ele>
        <time>2012-01-30T13:51:23Z</time>
      </trkpt>
      <trkpt lat="44.59481" lon="0.87658">
        <ele>179</ele>
        <time>2012-01-30T13:51:24Z</time>
      </trkpt>
      <trkpt lat="44.59479" lon="0.87662">
        <ele>180</ele>
        <time>2012-01-30T13:51:25Z</time>
      </trkpt>
      <trkpt lat="44.59476" lon="0.87667">
        <ele>180</ele>
        <time>2012-01-30T13:51:26Z</time>
      </trkpt>
      <trkpt lat="44.59473" lon="0.87672">
        <ele>181</ele>
        <time>2012-01-30T13:51:27Z</time>
      </trkpt>
      <trkpt lat="44.59471" lon="0.87676">
        <ele>181</ele>
        <time>2012-01-30T13:51:28Z</time>
      </trkpt>
      <trkpt lat="44.59469" lon="0.8768">
        <ele>181</ele>
        <time>2012-01-30T13:51:29Z</time>
      </trkpt>
      <trkpt lat="44.59466" lon="0.87683">
        <ele>181</ele>
        <time>2012-01-30T13:51:30Z</time>
      </trkpt>
      <trkpt lat="44.59464" lon="0.87687">
        <ele>181</ele>
        <time>2012-01-30T13:51:31Z</time>
      </trkpt>
      <trkpt lat="44.59462" lon="0.87691">
        <ele>181</ele>
        <time>2012-01-30T13:51:33Z</time>
      </trkpt>
      <trkpt lat="44.59459" lon="0.87695">
        <ele>181</ele>
        <time>2012-01-30T13:51:33Z</time>
      </trkpt>
      <trkpt lat="44.59457" lon="0.877">
        <ele>181</ele>
        <time>2012-01-30T13:51:34Z</time>
      </trkpt>
      <trkpt lat="44.59454" lon="0.87703">
        <ele>181</ele>
        <time>2012-01-30T13:51:35Z</time>
      </trkpt>
      <trkpt lat="44.59452" lon="0.87707">
        <ele>181</ele>
        <time>2012-01-30T13:51:36Z</time>
      </trkpt>
      <trkpt lat="44.5945" lon="0.8771">
        <ele>181</ele>
        <time>2012-01-30T13:51:38Z</time>
      </trkpt>
      <trkpt lat="44.59447" lon="0.87712">
        <ele>181</ele>
        <time>2012-01-30T13:51:38Z</time>
      </trkpt>
      <trkpt lat="44.59445" lon="0.87715">
        <ele>182</ele>
        <time>2012-01-30T13:51:39Z</time>
      </trkpt>
      <trkpt lat="44.59443" lon="0.87718">
        <ele>183</ele>
        <time>2012-01-30T13:51:40Z</time>
      </trkpt>
      <trkpt lat="44.59441" lon="0.87721">
        <ele>184</ele>
        <time>2012-01-30T13:51:41Z</time>
      </trkpt>
      <trkpt lat="44.59439" lon="0.87723">
        <ele>185</ele>
        <time>2012-01-30T13:51:42Z</time>
      </trkpt>
      <trkpt lat="44.59437" lon="0.87727">
        <ele>186</ele>
        <time>2012-01-30T13:51:43Z</time>
      </trkpt>
      <trkpt lat="44.59434" lon="0.87731">
        <ele>187</ele>
        <time>2012-01-30T13:51:44Z</time>
      </trkpt>
      <trkpt lat="44.5943" lon="0.87735">
        <ele>188</ele>
        <time>2012-01-30T13:51:45Z</time>
      </trkpt>
      <trkpt lat="44.59428" lon="0.87739">
        <ele>189</ele>
        <time>2012-01-30T13:51:46Z</time>
      </trkpt>
      <trkpt lat="44.59424" lon="0.87743">
        <ele>190</ele>
        <time>2012-01-30T13:51:48Z</time>
      </trkpt>
      <trkpt lat="44.59421" lon="0.87748">
        <ele>191</ele>
        <time>2012-01-30T13:51:48Z</time>
      </trkpt>
      <trkpt lat="44.59418" lon="0.87752">
        <ele>192</ele>
        <time>2012-01-30T13:51:49Z</time>
      </trkpt>
      <trkpt lat="44.59415" lon="0.87756">
        <ele>193</ele>
        <time>2012-01-30T13:51:50Z</time>
      </trkpt>
      <trkpt lat="44.59413" lon="0.87761">
        <ele>194</ele>
        <time>2012-01-30T13:51:51Z</time>
      </trkpt>
      <trkpt lat="44.5941" lon="0.87767">
        <ele>195</ele>
        <time>2012-01-30T13:51:52Z</time>
      </trkpt>
      <trkpt lat="44.59408" lon="0.87771">
        <ele>196</ele>
        <time>2012-01-30T13:51:53Z</time>
      </trkpt>
      <trkpt lat="44.59406" lon="0.87775">
        <ele>196</ele>
        <time>2012-01-30T13:51:54Z</time>
      </trkpt>
      <trkpt lat="44.59404" lon="0.87779">
        <ele>196</ele>
        <time>2012-01-30T13:51:55Z</time>
      </trkpt>
      <trkpt lat="44.59402" lon="0.87783">
        <ele>196</ele>
        <time>2012-01-30T13:51:56Z</time>
      </trkpt>
      <trkpt lat="44.59401" lon="0.87787">
        <ele>197</ele>
        <time>2012-01-30T13:51:57Z</time>
      </trkpt>
      <trkpt lat="44.59399" lon="0.87791">
        <ele>197</ele>
        <time>2012-01-30T13:51:59Z</time>
      </trkpt>
      <trkpt lat="44.59396" lon="0.87795">
        <ele>197</ele>
        <time>2012-01-30T13:51:59Z</time>
      </trkpt>
      <trkpt lat="44.59393" lon="0.878">
        <ele>197</ele>
        <time>2012-01-30T13:52:00Z</time>
      </trkpt>
      <trkpt lat="44.59391" lon="0.87804">
        <ele>197</ele>
        <time>2012-01-30T13:52:01Z</time>
      </trkpt>
      <trkpt lat="44.59388" lon="0.87807">
        <ele>197</ele>
        <time>2012-01-30T13:52:02Z</time>
      </trkpt>
      <trkpt lat="44.59385" lon="0.87809">
        <ele>197</ele>
        <time>2012-01-30T13:52:04Z</time>
      </trkpt>
      <trkpt lat="44.59381" lon="0.87812">
        <ele>197</ele>
        <time>2012-01-30T13:52:04Z</time>
      </trkpt>
      <trkpt lat="44.59378" lon="0.87815">
        <ele>197</ele>
        <time>2012-01-30T13:52:05Z</time>
      </trkpt>
      <trkpt lat="44.59373" lon="0.87817">
        <ele>197</ele>
        <time>2012-01-30T13:52:06Z</time>
      </trkpt>
      <trkpt lat="44.59369" lon="0.87818">
        <ele>196</ele>
        <time>2012-01-30T13:52:07Z</time>
      </trkpt>
      <trkpt lat="44.59365" lon="0.8782">
        <ele>196</ele>
        <time>2012-01-30T13:52:09Z</time>
      </trkpt>
      <trkpt lat="44.59362" lon="0.87822">
        <ele>196</ele>
        <time>2012-01-30T13:52:09Z</time>
      </trkpt>
      <trkpt lat="44.59358" lon="0.87824">
        <ele>196</ele>
        <time>2012-01-30T13:52:10Z</time>
      </trkpt>
      <trkpt lat="44.59354" lon="0.87827">
        <ele>196</ele>
        <time>2012-01-30T13:52:12Z</time>
      </trkpt>
      <trkpt lat="44.5935" lon="0.87829">
        <ele>196</ele>
        <time>2012-01-30T13:52:12Z</time>
      </trkpt>
      <trkpt lat="44.59347" lon="0.87831">
        <ele>195</ele>
        <time>2012-01-30T13:52:14Z</time>
      </trkpt>
      <trkpt lat="44.59343" lon="0.87834">
        <ele>195</ele>
        <time>2012-01-30T13:52:14Z</time>
      </trkpt>
      <trkpt lat="44.59339" lon="0.87836">
        <ele>195</ele>
        <time>2012-01-30T13:52:16Z</time>
      </trkpt>
      <trkpt lat="44.59336" lon="0.87839">
        <ele>194</ele>
        <time>2012-01-30T13:52:16Z</time>
      </trkpt>
      <trkpt lat="44.59333" lon="0.87841">
        <ele>193</ele>
        <time>2012-01-30T13:52:17Z</time>
      </trkpt>
      <trkpt lat="44.59329" lon="0.87843">
        <ele>193</ele>
        <time>2012-01-30T13:52:19Z</time>
      </trkpt>
      <trkpt lat="44.59326" lon="0.87843">
        <ele>193</ele>
        <time>2012-01-30T13:52:20Z</time>
      </trkpt>
      <trkpt lat="44.59324" lon="0.87845">
        <ele>192</ele>
        <time>2012-01-30T13:52:20Z</time>
      </trkpt>
      <trkpt lat="44.59321" lon="0.87846">
        <ele>192</ele>
        <time>2012-01-30T13:52:21Z</time>
      </trkpt>
      <trkpt lat="44.59317" lon="0.87848">
        <ele>192</ele>
        <time>2012-01-30T13:52:22Z</time>
      </trkpt>
      <trkpt lat="44.59313" lon="0.8785">
        <ele>192</ele>
        <time>2012-01-30T13:52:24Z</time>
      </trkpt>
      <trkpt lat="44.5931" lon="0.87853">
        <ele>192</ele>
        <time>2012-01-30T13:52:24Z</time>
      </trkpt>
      <trkpt lat="44.59306" lon="0.87855">
        <ele>192</ele>
        <time>2012-01-30T13:52:25Z</time>
      </trkpt>
      <trkpt lat="44.59304" lon="0.87858">
        <ele>191</ele>
        <time>2012-01-30T13:52:26Z</time>
      </trkpt>
      <trkpt lat="44.59301" lon="0.87861">
        <ele>191</ele>
        <time>2012-01-30T13:52:27Z</time>
      </trkpt>
      <trkpt lat="44.59298" lon="0.87863">
        <ele>191</ele>
        <time>2012-01-30T13:52:28Z</time>
      </trkpt>
      <trkpt lat="44.59294" lon="0.87866">
        <ele>190</ele>
        <time>2012-01-30T13:52:29Z</time>
      </trkpt>
      <trkpt lat="44.59291" lon="0.87869">
        <ele>190</ele>
        <time>2012-01-30T13:52:30Z</time>
      </trkpt>
      <trkpt lat="44.59288" lon="0.87872">
        <ele>189</ele>
        <time>2012-01-30T13:52:31Z</time>
      </trkpt>
      <trkpt lat="44.59284" lon="0.87876">
        <ele>189</ele>
        <time>2012-01-30T13:52:33Z</time>
      </trkpt>
      <trkpt lat="44.5928" lon="0.87881">
        <ele>188</ele>
        <time>2012-01-30T13:52:33Z</time>
      </trkpt>
      <trkpt lat="44.59275" lon="0.87886">
        <ele>188</ele>
        <time>2012-01-30T13:52:35Z</time>
      </trkpt>
      <trkpt lat="44.5927" lon="0.87892">
        <ele>187</ele>
        <time>2012-01-30T13:52:35Z</time>
      </trkpt>
      <trkpt lat="44.59264" lon="0.87897">
        <ele>186</ele>
        <time>2012-01-30T13:52:36Z</time>
      </trkpt>
      <trkpt lat="44.59258" lon="0.87903">
        <ele>185</ele>
        <time>2012-01-30T13:52:37Z</time>
      </trkpt>
      <trkpt lat="44.59253" lon="0.8791">
        <ele>184</ele>
        <time>2012-01-30T13:52:38Z</time>
      </trkpt>
      <trkpt lat="44.59248" lon="0.87916">
        <ele>184</ele>
        <time>2012-01-30T13:52:40Z</time>
      </trkpt>
      <trkpt lat="44.59243" lon="0.87924">
        <ele>183</ele>
        <time>2012-01-30T13:52:41Z</time>
      </trkpt>
      <trkpt lat="44.5924" lon="0.87932">
        <ele>182</ele>
        <time>2012-01-30T13:52:41Z</time>
      </trkpt>
      <trkpt lat="44.59236" lon="0.8794">
        <ele>182</ele>
        <time>2012-01-30T13:52:42Z</time>
      </trkpt>
      <trkpt lat="44.59233" lon="0.87946">
        <ele>181</ele>
        <time>2012-01-30T13:52:43Z</time>
      </trkpt>
      <trkpt lat="44.59229" lon="0.87953">
        <ele>180</ele>
        <time>2012-01-30T13:52:44Z</time>
      </trkpt>
      <trkpt lat="44.59225" lon="0.87959">
        <ele>180</ele>
        <time>2012-01-30T13:52:45Z</time>
      </trkpt>
      <trkpt lat="44.5922" lon="0.87966">
        <ele>179</ele>
        <time>2012-01-30T13:52:46Z</time>
      </trkpt>
      <trkpt lat="44.59215" lon="0.87972">
        <ele>178</ele>
        <time>2012-01-30T13:52:47Z</time>
      </trkpt>
      <trkpt lat="44.59211" lon="0.87978">
        <ele>177</ele>
        <time>2012-01-30T13:52:48Z</time>
      </trkpt>
      <trkpt lat="44.59208" lon="0.87984">
        <ele>176</ele>
        <time>2012-01-30T13:52:49Z</time>
      </trkpt>
      <trkpt lat="44.59206" lon="0.87989">
        <ele>175</ele>
        <time>2012-01-30T13:52:51Z</time>
      </trkpt>
      <trkpt lat="44.59204" lon="0.87992">
        <ele>174</ele>
        <time>2012-01-30T13:52:51Z</time>
      </trkpt>
      <trkpt lat="44.59201" lon="0.87994">
        <ele>173</ele>
        <time>2012-01-30T13:52:52Z</time>
      </trkpt>
      <trkpt lat="44.59198" lon="0.87997">
        <ele>172</ele>
        <time>2012-01-30T13:52:53Z</time>
      </trkpt>
      <trkpt lat="44.59194" lon="0.87999">
        <ele>171</ele>
        <time>2012-01-30T13:52:54Z</time>
      </trkpt>
      <trkpt lat="44.59191" lon="0.88003">
        <ele>170</ele>
        <time>2012-01-30T13:52:56Z</time>
      </trkpt>
      <trkpt lat="44.59188" lon="0.88007">
        <ele>169</ele>
        <time>2012-01-30T13:52:56Z</time>
      </trkpt>
      <trkpt lat="44.59183" lon="0.88014">
        <ele>168</ele>
        <time>2012-01-30T13:52:57Z</time>
      </trkpt>
      <trkpt lat="44.59178" lon="0.88021">
        <ele>167</ele>
        <time>2012-01-30T13:52:58Z</time>
      </trkpt>
      <trkpt lat="44.59172" lon="0.8803">
        <ele>166</ele>
        <time>2012-01-30T13:52:59Z</time>
      </trkpt>
      <trkpt lat="44.59167" lon="0.88038">
        <ele>165</ele>
        <time>2012-01-30T13:53:01Z</time>
      </trkpt>
      <trkpt lat="44.59161" lon="0.88046">
        <ele>164</ele>
        <time>2012-01-30T13:53:01Z</time>
      </trkpt>
      <trkpt lat="44.59156" lon="0.88055">
        <ele>163</ele>
        <time>2012-01-30T13:53:02Z</time>
      </trkpt>
      <trkpt lat="44.59151" lon="0.88065">
        <ele>162</ele>
        <time>2012-01-30T13:53:03Z</time>
      </trkpt>
      <trkpt lat="44.59145" lon="0.88074">
        <ele>161</ele>
        <time>2012-01-30T13:53:04Z</time>
      </trkpt>
      <trkpt lat="44.5914" lon="0.88084">
        <ele>161</ele>
        <time>2012-01-30T13:53:05Z</time>
      </trkpt>
      <trkpt lat="44.59135" lon="0.88094">
        <ele>161</ele>
        <time>2012-01-30T13:53:06Z</time>
      </trkpt>
      <trkpt lat="44.5913" lon="0.88104">
        <ele>161</ele>
        <time>2012-01-30T13:53:07Z</time>
      </trkpt>
      <trkpt lat="44.59125" lon="0.88114">
        <ele>160</ele>
        <time>2012-01-30T13:53:08Z</time>
      </trkpt>
      <trkpt lat="44.5912" lon="0.88123">
        <ele>160</ele>
        <time>2012-01-30T13:53:09Z</time>
      </trkpt>
      <trkpt lat="44.59114" lon="0.88132">
        <ele>160</ele>
        <time>2012-01-30T13:53:11Z</time>
      </trkpt>
      <trkpt lat="44.59106" lon="0.8814">
        <ele>159</ele>
        <time>2012-01-30T13:53:11Z</time>
      </trkpt>
      <trkpt lat="44.59098" lon="0.88146">
        <ele>159</ele>
        <time>2012-01-30T13:53:12Z</time>
      </trkpt>
      <trkpt lat="44.5909" lon="0.88151">
        <ele>159</ele>
        <time>2012-01-30T13:53:13Z</time>
      </trkpt>
      <trkpt lat="44.59083" lon="0.88154">
        <ele>159</ele>
        <time>2012-01-30T13:53:14Z</time>
      </trkpt>
      <trkpt lat="44.59077" lon="0.88154">
        <ele>159</ele>
        <time>2012-01-30T13:53:15Z</time>
      </trkpt>
      <trkpt lat="44.59072" lon="0.88152">
        <ele>159</ele>
        <time>2012-01-30T13:53:16Z</time>
      </trkpt>
      <trkpt lat="44.59067" lon="0.88148">
        <ele>159</ele>
        <time>2012-01-30T13:53:17Z</time>
      </trkpt>
      <trkpt lat="44.59062" lon="0.88143">
        <ele>159</ele>
        <time>2012-01-30T13:53:18Z</time>
      </trkpt>
      <trkpt lat="44.59058" lon="0.88139">
        <ele>159</ele>
        <time>2012-01-30T13:53:19Z</time>
      </trkpt>
      <trkpt lat="44.59053" lon="0.88134">
        <ele>159</ele>
        <time>2012-01-30T13:53:21Z</time>
      </trkpt>
      <trkpt lat="44.59049" lon="0.8813">
        <ele>159</ele>
        <time>2012-01-30T13:53:21Z</time>
      </trkpt>
      <trkpt lat="44.59045" lon="0.88126">
        <ele>159</ele>
        <time>2012-01-30T13:53:22Z</time>
      </trkpt>
      <trkpt lat="44.5904" lon="0.88123">
        <ele>159</ele>
        <time>2012-01-30T13:53:23Z</time>
      </trkpt>
      <trkpt lat="44.59035" lon="0.88122">
        <ele>159</ele>
        <time>2012-01-30T13:53:24Z</time>
      </trkpt>
      <trkpt lat="44.59032" lon="0.88125">
        <ele>159</ele>
        <time>2012-01-30T13:53:25Z</time>
      </trkpt>
      <trkpt lat="44.59027" lon="0.88128">
        <ele>159</ele>
        <time>2012-01-30T13:53:26Z</time>
      </trkpt>
      <trkpt lat="44.59023" lon="0.88132">
        <ele>159</ele>
        <time>2012-01-30T13:53:27Z</time>
      </trkpt>
      <trkpt lat="44.59019" lon="0.88136">
        <ele>159</ele>
        <time>2012-01-30T13:53:28Z</time>
      </trkpt>
      <trkpt lat="44.59014" lon="0.8814">
        <ele>159</ele>
        <time>2012-01-30T13:53:29Z</time>
      </trkpt>
      <trkpt lat="44.59009" lon="0.88144">
        <ele>159</ele>
        <time>2012-01-30T13:53:30Z</time>
      </trkpt>
      <trkpt lat="44.59003" lon="0.88147">
        <ele>159</ele>
        <time>2012-01-30T13:53:31Z</time>
      </trkpt>
      <trkpt lat="44.58998" lon="0.88151">
        <ele>159</ele>
        <time>2012-01-30T13:53:32Z</time>
      </trkpt>
      <trkpt lat="44.58994" lon="0.88154">
        <ele>158</ele>
        <time>2012-01-30T13:53:33Z</time>
      </trkpt>
      <trkpt lat="44.5899" lon="0.88157">
        <ele>158</ele>
        <time>2012-01-30T13:53:34Z</time>
      </trkpt>
      <trkpt lat="44.58987" lon="0.8816">
        <ele>157</ele>
        <time>2012-01-30T13:53:35Z</time>
      </trkpt>
      <trkpt lat="44.58984" lon="0.88162">
        <ele>156</ele>
        <time>2012-01-30T13:53:36Z</time>
      </trkpt>
      <trkpt lat="44.58979" lon="0.88162">
        <ele>155</ele>
        <time>2012-01-30T13:53:37Z</time>
      </trkpt>
      <trkpt lat="44.58974" lon="0.88159">
        <ele>155</ele>
        <time>2012-01-30T13:53:38Z</time>
      </trkpt>
      <trkpt lat="44.5897" lon="0.88155">
        <ele>154</ele>
        <time>2012-01-30T13:53:39Z</time>
      </trkpt>
      <trkpt lat="44.58965" lon="0.88149">
        <ele>153</ele>
        <time>2012-01-30T13:53:40Z</time>
      </trkpt>
      <trkpt lat="44.5896" lon="0.88144">
        <ele>152</ele>
        <time>2012-01-30T13:53:41Z</time>
      </trkpt>
      <trkpt lat="44.58956" lon="0.88139">
        <ele>152</ele>
        <time>2012-01-30T13:53:42Z</time>
      </trkpt>
      <trkpt lat="44.58952" lon="0.88133">
        <ele>151</ele>
        <time>2012-01-30T13:53:43Z</time>
      </trkpt>
      <trkpt lat="44.58949" lon="0.88128">
        <ele>150</ele>
        <time>2012-01-30T13:53:44Z</time>
      </trkpt>
      <trkpt lat="44.58945" lon="0.88123">
        <ele>150</ele>
        <time>2012-01-30T13:53:45Z</time>
      </trkpt>
      <trkpt lat="44.58942" lon="0.88119">
        <ele>149</ele>
        <time>2012-01-30T13:53:46Z</time>
      </trkpt>
      <trkpt lat="44.58939" lon="0.88116">
        <ele>148</ele>
        <time>2012-01-30T13:53:47Z</time>
      </trkpt>
      <trkpt lat="44.58937" lon="0.88112">
        <ele>148</ele>
        <time>2012-01-30T13:53:48Z</time>
      </trkpt>
      <trkpt lat="44.58934" lon="0.88109">
        <ele>147</ele>
        <time>2012-01-30T13:53:49Z</time>
      </trkpt>
      <trkpt lat="44.5893" lon="0.88104">
        <ele>146</ele>
        <time>2012-01-30T13:53:50Z</time>
      </trkpt>
      <trkpt lat="44.58926" lon="0.88098">
        <ele>145</ele>
        <time>2012-01-30T13:53:51Z</time>
      </trkpt>
      <trkpt lat="44.58922" lon="0.88092">
        <ele>144</ele>
        <time>2012-01-30T13:53:52Z</time>
      </trkpt>
      <trkpt lat="44.58918" lon="0.88086">
        <ele>143</ele>
        <time>2012-01-30T13:53:53Z</time>
      </trkpt>
      <trkpt lat="44.58914" lon="0.8808">
        <ele>142</ele>
        <time>2012-01-30T13:53:54Z</time>
      </trkpt>
      <trkpt lat="44.5891" lon="0.88075">
        <ele>141</ele>
        <time>2012-01-30T13:53:56Z</time>
      </trkpt>
      <trkpt lat="44.58905" lon="0.88071">
        <ele>140</ele>
        <time>2012-01-30T13:53:56Z</time>
      </trkpt>
      <trkpt lat="44.58901" lon="0.88069">
        <ele>139</ele>
        <time>2012-01-30T13:53:57Z</time>
      </trkpt>
      <trkpt lat="44.58896" lon="0.88067">
        <ele>139</ele>
        <time>2012-01-30T13:53:58Z</time>
      </trkpt>
      <trkpt lat="44.58892" lon="0.88063">
        <ele>138</ele>
        <time>2012-01-30T13:53:59Z</time>
      </trkpt>
      <trkpt lat="44.58888" lon="0.88057">
        <ele>138</ele>
        <time>2012-01-30T13:54:00Z</time>
      </trkpt>
      <trkpt lat="44.58884" lon="0.88051">
        <ele>138</ele>
        <time>2012-01-30T13:54:01Z</time>
      </trkpt>
      <trkpt lat="44.58881" lon="0.88043">
        <ele>138</ele>
        <time>2012-01-30T13:54:02Z</time>
      </trkpt>
      <trkpt lat="44.58878" lon="0.88037">
        <ele>138</ele>
        <time>2012-01-30T13:54:03Z</time>
      </trkpt>
      <trkpt lat="44.58875" lon="0.88031">
        <ele>138</ele>
        <time>2012-01-30T13:54:04Z</time>
      </trkpt>
      <trkpt lat="44.58873" lon="0.88027">
        <ele>138</ele>
        <time>2012-01-30T13:54:05Z</time>
      </trkpt>
      <trkpt lat="44.58871" lon="0.88023">
        <ele>138</ele>
        <time>2012-01-30T13:54:06Z</time>
      </trkpt>
      <trkpt lat="44.58869" lon="0.88019">
        <ele>138</ele>
        <time>2012-01-30T13:54:07Z</time>
      </trkpt>
      <trkpt lat="44.58868" lon="0.88016">
        <ele>138</ele>
        <time>2012-01-30T13:54:08Z</time>
      </trkpt>
      <trkpt lat="44.58866" lon="0.88012">
        <ele>138</ele>
        <time>2012-01-30T13:54:09Z</time>
      </trkpt>
      <trkpt lat="44.58865" lon="0.88009">
        <ele>138</ele>
        <time>2012-01-30T13:54:10Z</time>
      </trkpt>
      <trkpt lat="44.58863" lon="0.88006">
        <ele>138</ele>
        <time>2012-01-30T13:54:11Z</time>
      </trkpt>
      <trkpt lat="44.58861" lon="0.88003">
        <ele>138</ele>
        <time>2012-01-30T13:54:12Z</time>
      </trkpt>
      <trkpt lat="44.58859" lon="0.87999">
        <ele>138</ele>
        <time>2012-01-30T13:54:13Z</time>
      </trkpt>
      <trkpt lat="44.58858" lon="0.87997">
        <ele>138</ele>
        <time>2012-01-30T13:54:14Z</time>
      </trkpt>
      <trkpt lat="44.58856" lon="0.87994">
        <ele>138</ele>
        <time>2012-01-30T13:54:15Z</time>
      </trkpt>
      <trkpt lat="44.58855" lon="0.87991">
        <ele>138</ele>
        <time>2012-01-30T13:54:16Z</time>
      </trkpt>
      <trkpt lat="44.58854" lon="0.87988">
        <ele>138</ele>
        <time>2012-01-30T13:54:17Z</time>
      </trkpt>
      <trkpt lat="44.58852" lon="0.87986">
        <ele>138</ele>
        <time>2012-01-30T13:54:18Z</time>
      </trkpt>
      <trkpt lat="44.58851" lon="0.87983">
        <ele>138</ele>
        <time>2012-01-30T13:54:19Z</time>
      </trkpt>
      <trkpt lat="44.5885" lon="0.87981">
        <ele>138</ele>
        <time>2012-01-30T13:54:20Z</time>
      </trkpt>
      <trkpt lat="44.58848" lon="0.87978">
        <ele>138</ele>
        <time>2012-01-30T13:54:21Z</time>
      </trkpt>
      <trkpt lat="44.58846" lon="0.87975">
        <ele>138</ele>
        <time>2012-01-30T13:54:22Z</time>
      </trkpt>
      <trkpt lat="44.58844" lon="0.87972">
        <ele>138</ele>
        <time>2012-01-30T13:54:23Z</time>
      </trkpt>
      <trkpt lat="44.58843" lon="0.8797">
        <ele>138</ele>
        <time>2012-01-30T13:54:24Z</time>
      </trkpt>
      <trkpt lat="44.58841" lon="0.87967">
        <ele>138</ele>
        <time>2012-01-30T13:54:25Z</time>
      </trkpt>
      <trkpt lat="44.58839" lon="0.87965">
        <ele>138</ele>
        <time>2012-01-30T13:54:26Z</time>
      </trkpt>
      <trkpt lat="44.58837" lon="0.87963">
        <ele>138</ele>
        <time>2012-01-30T13:54:27Z</time>
      </trkpt>
      <trkpt lat="44.58835" lon="0.8796">
        <ele>138</ele>
        <time>2012-01-30T13:54:28Z</time>
      </trkpt>
      <trkpt lat="44.58833" lon="0.87958">
        <ele>138</ele>
        <time>2012-01-30T13:54:29Z</time>
      </trkpt>
      <trkpt lat="44.5883" lon="0.87955">
        <ele>138</ele>
        <time>2012-01-30T13:54:30Z</time>
      </trkpt>
      <trkpt lat="44.58828" lon="0.87952">
        <ele>138</ele>
        <time>2012-01-30T13:54:31Z</time>
      </trkpt>
      <trkpt lat="44.58826" lon="0.8795">
        <ele>138</ele>
        <time>2012-01-30T13:54:32Z</time>
      </trkpt>
      <trkpt lat="44.58824" lon="0.87948">
        <ele>138</ele>
        <time>2012-01-30T13:54:33Z</time>
      </trkpt>
      <trkpt lat="44.58821" lon="0.87947">
        <ele>138</ele>
        <time>2012-01-30T13:54:34Z</time>
      </trkpt>
      <trkpt lat="44.5882" lon="0.87945">
        <ele>138</ele>
        <time>2012-01-30T13:54:35Z</time>
      </trkpt>
      <trkpt lat="44.58819" lon="0.87945">
        <ele>138</ele>
        <time>2012-01-30T13:54:38Z</time>
      </trkpt>
      <trkpt lat="44.58818" lon="0.87945">
        <ele>138</ele>
        <time>2012-01-30T13:54:41Z</time>
      </trkpt>
      <trkpt lat="44.58818" lon="0.87946">
        <ele>138</ele>
        <time>2012-01-30T13:55:03Z</time>
      </trkpt>
      <trkpt lat="44.58819" lon="0.87948">
        <ele>138</ele>
        <time>2012-01-30T13:55:07Z</time>
      </trkpt>
      <trkpt lat="44.58819" lon="0.8795">
        <ele>138</ele>
        <time>2012-01-30T13:55:13Z</time>
      </trkpt>
      <trkpt lat="44.58818" lon="0.8795">
        <ele>138</ele>
        <time>2012-01-30T13:55:24Z</time>
      </trkpt>
      <trkpt lat="44.58819" lon="0.8795">
        <ele>138</ele>
        <time>2012-01-30T13:55:29Z</time>
      </trkpt>
      <trkpt lat="44.5882" lon="0.87951">
        <ele>138</ele>
        <time>2012-01-30T13:55:33Z</time>
      </trkpt>
      <trkpt lat="44.5882" lon="0.87953">
        <ele>142</ele>
        <time>2012-01-30T13:55:59Z</time>
      </trkpt>
      <trkpt lat="44.5882" lon="0.87954">
        <ele>145</ele>
        <time>2012-01-30T13:56:26Z</time>
      </trkpt>
      <trkpt lat="44.58821" lon="0.87954">
        <ele>145</ele>
        <time>2012-01-30T13:57:06Z</time>
      </trkpt>
      <trkpt lat="44.58822" lon="0.87952">
        <ele>145</ele>
        <time>2012-01-30T13:57:54Z</time>
      </trkpt>
      <trkpt lat="44.58822" lon="0.87951">
        <ele>145</ele>
        <time>2012-01-30T13:58:19Z</time>
      </trkpt>
      <trkpt lat="44.5882" lon="0.87948">
        <ele>144</ele>
        <time>2012-01-30T13:58:24Z</time>
      </trkpt>
      <trkpt lat="44.58818" lon="0.87946">
        <ele>143</ele>
        <time>2012-01-30T13:58:25Z</time>
      </trkpt>
      <trkpt lat="44.58816" lon="0.87945">
        <ele>142</ele>
        <time>2012-01-30T13:58:26Z</time>
      </trkpt>
      <trkpt lat="44.58814" lon="0.87943">
        <ele>141</ele>
        <time>2012-01-30T13:58:27Z</time>
      </trkpt>
      <trkpt lat="44.58811" lon="0.87941">
        <ele>140</ele>
        <time>2012-01-30T13:58:28Z</time>
      </trkpt>
      <trkpt lat="44.58808" lon="0.87939">
        <ele>140</ele>
        <time>2012-01-30T13:58:29Z</time>
      </trkpt>
      <trkpt lat="44.58805" lon="0.87937">
        <ele>139</ele>
        <time>2012-01-30T13:58:30Z</time>
      </trkpt>
      <trkpt lat="44.58802" lon="0.87934">
        <ele>139</ele>
        <time>2012-01-30T13:58:31Z</time>
      </trkpt>
      <trkpt lat="44.58798" lon="0.87932">
        <ele>138</ele>
        <time>2012-01-30T13:58:32Z</time>
      </trkpt>
      <trkpt lat="44.58796" lon="0.87931">
        <ele>138</ele>
        <time>2012-01-30T13:58:33Z</time>
      </trkpt>
      <trkpt lat="44.58792" lon="0.8793">
        <ele>138</ele>
        <time>2012-01-30T13:58:34Z</time>
      </trkpt>
      <trkpt lat="44.5879" lon="0.87929">
        <ele>138</ele>
        <time>2012-01-30T13:58:35Z</time>
      </trkpt>
      <trkpt lat="44.58787" lon="0.87928">
        <ele>138</ele>
        <time>2012-01-30T13:58:36Z</time>
      </trkpt>
      <trkpt lat="44.58784" lon="0.87928">
        <ele>138</ele>
        <time>2012-01-30T13:58:37Z</time>
      </trkpt>
      <trkpt lat="44.5878" lon="0.87927">
        <ele>138</ele>
        <time>2012-01-30T13:58:38Z</time>
      </trkpt>
      <trkpt lat="44.58775" lon="0.87925">
        <ele>138</ele>
        <time>2012-01-30T13:58:39Z</time>
      </trkpt>
      <trkpt lat="44.58771" lon="0.87924">
        <ele>138</ele>
        <time>2012-01-30T13:58:40Z</time>
      </trkpt>
      <trkpt lat="44.58766" lon="0.87923">
        <ele>138</ele>
        <time>2012-01-30T13:58:41Z</time>
      </trkpt>
      <trkpt lat="44.58761" lon="0.8792">
        <ele>138</ele>
        <time>2012-01-30T13:58:42Z</time>
      </trkpt>
      <trkpt lat="44.58756" lon="0.87918">
        <ele>138</ele>
        <time>2012-01-30T13:58:43Z</time>
      </trkpt>
      <trkpt lat="44.5875" lon="0.87915">
        <ele>138</ele>
        <time>2012-01-30T13:58:44Z</time>
      </trkpt>
      <trkpt lat="44.58745" lon="0.87911">
        <ele>138</ele>
        <time>2012-01-30T13:58:45Z</time>
      </trkpt>
      <trkpt lat="44.58739" lon="0.87909">
        <ele>137</ele>
        <time>2012-01-30T13:58:46Z</time>
      </trkpt>
      <trkpt lat="44.58734" lon="0.87906">
        <ele>137</ele>
        <time>2012-01-30T13:58:47Z</time>
      </trkpt>
      <trkpt lat="44.58729" lon="0.87905">
        <ele>137</ele>
        <time>2012-01-30T13:58:48Z</time>
      </trkpt>
      <trkpt lat="44.58724" lon="0.87903">
        <ele>136</ele>
        <time>2012-01-30T13:58:49Z</time>
      </trkpt>
      <trkpt lat="44.5872" lon="0.87903">
        <ele>136</ele>
        <time>2012-01-30T13:58:50Z</time>
      </trkpt>
      <trkpt lat="44.58715" lon="0.87901">
        <ele>136</ele>
        <time>2012-01-30T13:58:51Z</time>
      </trkpt>
      <trkpt lat="44.5871" lon="0.87899">
        <ele>135</ele>
        <time>2012-01-30T13:58:52Z</time>
      </trkpt>
      <trkpt lat="44.58705" lon="0.87898">
        <ele>135</ele>
        <time>2012-01-30T13:58:53Z</time>
      </trkpt>
      <trkpt lat="44.587" lon="0.87897">
        <ele>134</ele>
        <time>2012-01-30T13:58:54Z</time>
      </trkpt>
      <trkpt lat="44.58694" lon="0.87897">
        <ele>134</ele>
        <time>2012-01-30T13:58:55Z</time>
      </trkpt>
      <trkpt lat="44.5869" lon="0.87897">
        <ele>134</ele>
        <time>2012-01-30T13:58:56Z</time>
      </trkpt>
      <trkpt lat="44.58685" lon="0.87897">
        <ele>134</ele>
        <time>2012-01-30T13:58:57Z</time>
      </trkpt>
      <trkpt lat="44.5868" lon="0.87897">
        <ele>134</ele>
        <time>2012-01-30T13:58:58Z</time>
      </trkpt>
      <trkpt lat="44.58676" lon="0.87898">
        <ele>134</ele>
        <time>2012-01-30T13:58:59Z</time>
      </trkpt>
      <trkpt lat="44.58671" lon="0.879">
        <ele>134</ele>
        <time>2012-01-30T13:59:00Z</time>
      </trkpt>
      <trkpt lat="44.58666" lon="0.87901">
        <ele>134</ele>
        <time>2012-01-30T13:59:01Z</time>
      </trkpt>
      <trkpt lat="44.58661" lon="0.87903">
        <ele>134</ele>
        <time>2012-01-30T13:59:02Z</time>
      </trkpt>
      <trkpt lat="44.58656" lon="0.87903">
        <ele>134</ele>
        <time>2012-01-30T13:59:03Z</time>
      </trkpt>
      <trkpt lat="44.58651" lon="0.87904">
        <ele>134</ele>
        <time>2012-01-30T13:59:04Z</time>
      </trkpt>
      <trkpt lat="44.58646" lon="0.87904">
        <ele>134</ele>
        <time>2012-01-30T13:59:05Z</time>
      </trkpt>
      <trkpt lat="44.58641" lon="0.87904">
        <ele>134</ele>
        <time>2012-01-30T13:59:06Z</time>
      </trkpt>
      <trkpt lat="44.58636" lon="0.87905">
        <ele>134</ele>
        <time>2012-01-30T13:59:07Z</time>
      </trkpt>
      <trkpt lat="44.58631" lon="0.87905">
        <ele>134</ele>
        <time>2012-01-30T13:59:08Z</time>
      </trkpt>
      <trkpt lat="44.58626" lon="0.87903">
        <ele>134</ele>
        <time>2012-01-30T13:59:09Z</time>
      </trkpt>
      <trkpt lat="44.58621" lon="0.87902">
        <ele>134</ele>
        <time>2012-01-30T13:59:10Z</time>
      </trkpt>
      <trkpt lat="44.58617" lon="0.87899">
        <ele>134</ele>
        <time>2012-01-30T13:59:11Z</time>
      </trkpt>
      <trkpt lat="44.58613" lon="0.87896">
        <ele>135</ele>
        <time>2012-01-30T13:59:12Z</time>
      </trkpt>
      <trkpt lat="44.58609" lon="0.87894">
        <ele>135</ele>
        <time>2012-01-30T13:59:13Z</time>
      </trkpt>
      <trkpt lat="44.58604" lon="0.87891">
        <ele>136</ele>
        <time>2012-01-30T13:59:14Z</time>
      </trkpt>
      <trkpt lat="44.58599" lon="0.87887">
        <ele>136</ele>
        <time>2012-01-30T13:59:15Z</time>
      </trkpt>
      <trkpt lat="44.58595" lon="0.87884">
        <ele>136</ele>
        <time>2012-01-30T13:59:16Z</time>
      </trkpt>
      <trkpt lat="44.58591" lon="0.8788">
        <ele>136</ele>
        <time>2012-01-30T13:59:17Z</time>
      </trkpt>
      <trkpt lat="44.58587" lon="0.87876">
        <ele>136</ele>
        <time>2012-01-30T13:59:18Z</time>
      </trkpt>
      <trkpt lat="44.58584" lon="0.87874">
        <ele>136</ele>
        <time>2012-01-30T13:59:19Z</time>
      </trkpt>
      <trkpt lat="44.5858" lon="0.87871">
        <ele>136</ele>
        <time>2012-01-30T13:59:20Z</time>
      </trkpt>
      <trkpt lat="44.58577" lon="0.87868">
        <ele>136</ele>
        <time>2012-01-30T13:59:21Z</time>
      </trkpt>
      <trkpt lat="44.58574" lon="0.87866">
        <ele>136</ele>
        <time>2012-01-30T13:59:22Z</time>
      </trkpt>
      <trkpt lat="44.5857" lon="0.87865">
        <ele>136</ele>
        <time>2012-01-30T13:59:23Z</time>
      </trkpt>
      <trkpt lat="44.58567" lon="0.87865">
        <ele>137</ele>
        <time>2012-01-30T13:59:24Z</time>
      </trkpt>
      <trkpt lat="44.58565" lon="0.87865">
        <ele>138</ele>
        <time>2012-01-30T13:59:25Z</time>
      </trkpt>
      <trkpt lat="44.58562" lon="0.87866">
        <ele>139</ele>
        <time>2012-01-30T13:59:26Z</time>
      </trkpt>
      <trkpt lat="44.58561" lon="0.87867">
        <ele>140</ele>
        <time>2012-01-30T13:59:27Z</time>
      </trkpt>
      <trkpt lat="44.58558" lon="0.87868">
        <ele>140</ele>
        <time>2012-01-30T13:59:28Z</time>
      </trkpt>
      <trkpt lat="44.58556" lon="0.87869">
        <ele>141</ele>
        <time>2012-01-30T13:59:29Z</time>
      </trkpt>
      <trkpt lat="44.58554" lon="0.8787">
        <ele>141</ele>
        <time>2012-01-30T13:59:30Z</time>
      </trkpt>
      <trkpt lat="44.58552" lon="0.8787">
        <ele>141</ele>
        <time>2012-01-30T13:59:31Z</time>
      </trkpt>
      <trkpt lat="44.5855" lon="0.8787">
        <ele>142</ele>
        <time>2012-01-30T13:59:32Z</time>
      </trkpt>
      <trkpt lat="44.58548" lon="0.87869">
        <ele>143</ele>
        <time>2012-01-30T13:59:33Z</time>
      </trkpt>
      <trkpt lat="44.58546" lon="0.87869">
        <ele>144</ele>
        <time>2012-01-30T13:59:34Z</time>
      </trkpt>
      <trkpt lat="44.58544" lon="0.87869">
        <ele>145</ele>
        <time>2012-01-30T13:59:35Z</time>
      </trkpt>
      <trkpt lat="44.58543" lon="0.87869">
        <ele>146</ele>
        <time>2012-01-30T13:59:36Z</time>
      </trkpt>
      <trkpt lat="44.58541" lon="0.87869">
        <ele>147</ele>
        <time>2012-01-30T13:59:37Z</time>
      </trkpt>
      <trkpt lat="44.58539" lon="0.8787">
        <ele>148</ele>
        <time>2012-01-30T13:59:38Z</time>
      </trkpt>
      <trkpt lat="44.58538" lon="0.8787">
        <ele>149</ele>
        <time>2012-01-30T13:59:39Z</time>
      </trkpt>
      <trkpt lat="44.58537" lon="0.87872">
        <ele>150</ele>
        <time>2012-01-30T13:59:40Z</time>
      </trkpt>
      <trkpt lat="44.58535" lon="0.87873">
        <ele>151</ele>
        <time>2012-01-30T13:59:41Z</time>
      </trkpt>
      <trkpt lat="44.58534" lon="0.87874">
        <ele>152</ele>
        <time>2012-01-30T13:59:42Z</time>
      </trkpt>
      <trkpt lat="44.58532" lon="0.87875">
        <ele>153</ele>
        <time>2012-01-30T13:59:43Z</time>
      </trkpt>
      <trkpt lat="44.58531" lon="0.87876">
        <ele>154</ele>
        <time>2012-01-30T13:59:44Z</time>
      </trkpt>
      <trkpt lat="44.58529" lon="0.87878">
        <ele>156</ele>
        <time>2012-01-30T13:59:46Z</time>
      </trkpt>
      <trkpt lat="44.58528" lon="0.87879">
        <ele>157</ele>
        <time>2012-01-30T13:59:47Z</time>
      </trkpt>
      <trkpt lat="44.58526" lon="0.8788">
        <ele>158</ele>
        <time>2012-01-30T13:59:48Z</time>
      </trkpt>
      <trkpt lat="44.58525" lon="0.87881">
        <ele>158</ele>
        <time>2012-01-30T13:59:49Z</time>
      </trkpt>
      <trkpt lat="44.58523" lon="0.87882">
        <ele>158</ele>
        <time>2012-01-30T13:59:50Z</time>
      </trkpt>
      <trkpt lat="44.58521" lon="0.87883">
        <ele>159</ele>
        <time>2012-01-30T13:59:51Z</time>
      </trkpt>
      <trkpt lat="44.58519" lon="0.87884">
        <ele>159</ele>
        <time>2012-01-30T13:59:52Z</time>
      </trkpt>
      <trkpt lat="44.58518" lon="0.87885">
        <ele>159</ele>
        <time>2012-01-30T13:59:53Z</time>
      </trkpt>
      <trkpt lat="44.58516" lon="0.87887">
        <ele>159</ele>
        <time>2012-01-30T13:59:54Z</time>
      </trkpt>
      <trkpt lat="44.58514" lon="0.87888">
        <ele>159</ele>
        <time>2012-01-30T13:59:55Z</time>
      </trkpt>
      <trkpt lat="44.58512" lon="0.87889">
        <ele>159</ele>
        <time>2012-01-30T13:59:56Z</time>
      </trkpt>
      <trkpt lat="44.5851" lon="0.8789">
        <ele>159</ele>
        <time>2012-01-30T13:59:57Z</time>
      </trkpt>
      <trkpt lat="44.58506" lon="0.87891">
        <ele>160</ele>
        <time>2012-01-30T13:59:58Z</time>
      </trkpt>
      <trkpt lat="44.58505" lon="0.87892">
        <ele>160</ele>
        <time>2012-01-30T13:59:59Z</time>
      </trkpt>
      <trkpt lat="44.58503" lon="0.87892">
        <ele>160</ele>
        <time>2012-01-30T14:00:00Z</time>
      </trkpt>
      <trkpt lat="44.58501" lon="0.87892">
        <ele>160</ele>
        <time>2012-01-30T14:00:01Z</time>
      </trkpt>
      <trkpt lat="44.58498" lon="0.87893">
        <ele>160</ele>
        <time>2012-01-30T14:00:02Z</time>
      </trkpt>
      <trkpt lat="44.58496" lon="0.87893">
        <ele>160</ele>
        <time>2012-01-30T14:00:03Z</time>
      </trkpt>
      <trkpt lat="44.58493" lon="0.87894">
        <ele>160</ele>
        <time>2012-01-30T14:00:04Z</time>
      </trkpt>
      <trkpt lat="44.58492" lon="0.87895">
        <ele>160</ele>
        <time>2012-01-30T14:00:05Z</time>
      </trkpt>
      <trkpt lat="44.58488" lon="0.87896">
        <ele>161</ele>
        <time>2012-01-30T14:00:06Z</time>
      </trkpt>
      <trkpt lat="44.58486" lon="0.87897">
        <ele>161</ele>
        <time>2012-01-30T14:00:07Z</time>
      </trkpt>
      <trkpt lat="44.58484" lon="0.87897">
        <ele>161</ele>
        <time>2012-01-30T14:00:08Z</time>
      </trkpt>
      <trkpt lat="44.58481" lon="0.87898">
        <ele>162</ele>
        <time>2012-01-30T14:00:09Z</time>
      </trkpt>
      <trkpt lat="44.58479" lon="0.87898">
        <ele>162</ele>
        <time>2012-01-30T14:00:10Z</time>
      </trkpt>
      <trkpt lat="44.58476" lon="0.87898">
        <ele>163</ele>
        <time>2012-01-30T14:00:11Z</time>
      </trkpt>
      <trkpt lat="44.58473" lon="0.87898">
        <ele>164</ele>
        <time>2012-01-30T14:00:12Z</time>
      </trkpt>
      <trkpt lat="44.58471" lon="0.87898">
        <ele>164</ele>
        <time>2012-01-30T14:00:13Z</time>
      </trkpt>
      <trkpt lat="44.58467" lon="0.87897">
        <ele>165</ele>
        <time>2012-01-30T14:00:14Z</time>
      </trkpt>
      <trkpt lat="44.58464" lon="0.87897">
        <ele>165</ele>
        <time>2012-01-30T14:00:15Z</time>
      </trkpt>
      <trkpt lat="44.58461" lon="0.87897">
        <ele>165</ele>
        <time>2012-01-30T14:00:16Z</time>
      </trkpt>
      <trkpt lat="44.58458" lon="0.87896">
        <ele>165</ele>
        <time>2012-01-30T14:00:17Z</time>
      </trkpt>
      <trkpt lat="44.58456" lon="0.87896">
        <ele>165</ele>
        <time>2012-01-30T14:00:18Z</time>
      </trkpt>
      <trkpt lat="44.58454" lon="0.87895">
        <ele>165</ele>
        <time>2012-01-30T14:00:19Z</time>
      </trkpt>
      <trkpt lat="44.58451" lon="0.87894">
        <ele>165</ele>
        <time>2012-01-30T14:00:20Z</time>
      </trkpt>
      <trkpt lat="44.58448" lon="0.87892">
        <ele>165</ele>
        <time>2012-01-30T14:00:21Z</time>
      </trkpt>
      <trkpt lat="44.58446" lon="0.87891">
        <ele>165</ele>
        <time>2012-01-30T14:00:22Z</time>
      </trkpt>
      <trkpt lat="44.58444" lon="0.8789">
        <ele>165</ele>
        <time>2012-01-30T14:00:23Z</time>
      </trkpt>
      <trkpt lat="44.58443" lon="0.87888">
        <ele>165</ele>
        <time>2012-01-30T14:00:24Z</time>
      </trkpt>
      <trkpt lat="44.58442" lon="0.87887">
        <ele>165</ele>
        <time>2012-01-30T14:00:25Z</time>
      </trkpt>
      <trkpt lat="44.5844" lon="0.87885">
        <ele>165</ele>
        <time>2012-01-30T14:00:26Z</time>
      </trkpt>
      <trkpt lat="44.58438" lon="0.87883">
        <ele>165</ele>
        <time>2012-01-30T14:00:27Z</time>
      </trkpt>
      <trkpt lat="44.58436" lon="0.87881">
        <ele>165</ele>
        <time>2012-01-30T14:00:28Z</time>
      </trkpt>
      <trkpt lat="44.58433" lon="0.87879">
        <ele>165</ele>
        <time>2012-01-30T14:00:29Z</time>
      </trkpt>
      <trkpt lat="44.58431" lon="0.87876">
        <ele>165</ele>
        <time>2012-01-30T14:00:30Z</time>
      </trkpt>
      <trkpt lat="44.58429" lon="0.87875">
        <ele>165</ele>
        <time>2012-01-30T14:00:31Z</time>
      </trkpt>
      <trkpt lat="44.58427" lon="0.87873">
        <ele>165</ele>
        <time>2012-01-30T14:00:32Z</time>
      </trkpt>
      <trkpt lat="44.58425" lon="0.87871">
        <ele>165</ele>
        <time>2012-01-30T14:00:33Z</time>
      </trkpt>
      <trkpt lat="44.58423" lon="0.87869">
        <ele>165</ele>
        <time>2012-01-30T14:00:34Z</time>
      </trkpt>
      <trkpt lat="44.58421" lon="0.87867">
        <ele>165</ele>
        <time>2012-01-30T14:00:35Z</time>
      </trkpt>
      <trkpt lat="44.58419" lon="0.87866">
        <ele>165</ele>
        <time>2012-01-30T14:00:36Z</time>
      </trkpt>
      <trkpt lat="44.58418" lon="0.87863">
        <ele>164</ele>
        <time>2012-01-30T14:00:37Z</time>
      </trkpt>
      <trkpt lat="44.58416" lon="0.87861">
        <ele>164</ele>
        <time>2012-01-30T14:00:38Z</time>
      </trkpt>
      <trkpt lat="44.58413" lon="0.87858">
        <ele>164</ele>
        <time>2012-01-30T14:00:39Z</time>
      </trkpt>
      <trkpt lat="44.58411" lon="0.87855">
        <ele>164</ele>
        <time>2012-01-30T14:00:40Z</time>
      </trkpt>
      <trkpt lat="44.58408" lon="0.87851">
        <ele>164</ele>
        <time>2012-01-30T14:00:41Z</time>
      </trkpt>
      <trkpt lat="44.58407" lon="0.87848">
        <ele>164</ele>
        <time>2012-01-30T14:00:42Z</time>
      </trkpt>
      <trkpt lat="44.58404" lon="0.87844">
        <ele>164</ele>
        <time>2012-01-30T14:00:43Z</time>
      </trkpt>
      <trkpt lat="44.58402" lon="0.8784">
        <ele>164</ele>
        <time>2012-01-30T14:00:44Z</time>
      </trkpt>
      <trkpt lat="44.584" lon="0.87836">
        <ele>164</ele>
        <time>2012-01-30T14:00:45Z</time>
      </trkpt>
      <trkpt lat="44.58397" lon="0.87831">
        <ele>164</ele>
        <time>2012-01-30T14:00:46Z</time>
      </trkpt>
      <trkpt lat="44.58395" lon="0.87827">
        <ele>164</ele>
        <time>2012-01-30T14:00:47Z</time>
      </trkpt>
      <trkpt lat="44.58393" lon="0.87822">
        <ele>164</ele>
        <time>2012-01-30T14:00:48Z</time>
      </trkpt>
      <trkpt lat="44.58392" lon="0.87817">
        <ele>164</ele>
        <time>2012-01-30T14:00:49Z</time>
      </trkpt>
      <trkpt lat="44.5839" lon="0.87811">
        <ele>164</ele>
        <time>2012-01-30T14:00:50Z</time>
      </trkpt>
      <trkpt lat="44.58386" lon="0.87806">
        <ele>164</ele>
        <time>2012-01-30T14:00:51Z</time>
      </trkpt>
      <trkpt lat="44.58384" lon="0.87801">
        <ele>164</ele>
        <time>2012-01-30T14:00:52Z</time>
      </trkpt>
      <trkpt lat="44.58381" lon="0.87796">
        <ele>163</ele>
        <time>2012-01-30T14:00:53Z</time>
      </trkpt>
      <trkpt lat="44.58378" lon="0.8779">
        <ele>163</ele>
        <time>2012-01-30T14:00:54Z</time>
      </trkpt>
      <trkpt lat="44.58376" lon="0.87784">
        <ele>162</ele>
        <time>2012-01-30T14:00:55Z</time>
      </trkpt>
      <trkpt lat="44.58373" lon="0.87777">
        <ele>161</ele>
        <time>2012-01-30T14:00:56Z</time>
      </trkpt>
      <trkpt lat="44.58371" lon="0.8777">
        <ele>161</ele>
        <time>2012-01-30T14:00:57Z</time>
      </trkpt>
      <trkpt lat="44.58369" lon="0.87764">
        <ele>160</ele>
        <time>2012-01-30T14:00:58Z</time>
      </trkpt>
      <trkpt lat="44.58366" lon="0.87758">
        <ele>159</ele>
        <time>2012-01-30T14:00:59Z</time>
      </trkpt>
      <trkpt lat="44.58365" lon="0.87752">
        <ele>159</ele>
        <time>2012-01-30T14:01:00Z</time>
      </trkpt>
      <trkpt lat="44.58363" lon="0.87747">
        <ele>158</ele>
        <time>2012-01-30T14:01:01Z</time>
      </trkpt>
      <trkpt lat="44.58361" lon="0.87742">
        <ele>157</ele>
        <time>2012-01-30T14:01:02Z</time>
      </trkpt>
      <trkpt lat="44.58359" lon="0.87735">
        <ele>157</ele>
        <time>2012-01-30T14:01:03Z</time>
      </trkpt>
      <trkpt lat="44.58358" lon="0.87729">
        <ele>157</ele>
        <time>2012-01-30T14:01:04Z</time>
      </trkpt>
      <trkpt lat="44.58356" lon="0.87722">
        <ele>156</ele>
        <time>2012-01-30T14:01:05Z</time>
      </trkpt>
      <trkpt lat="44.58354" lon="0.87716">
        <ele>156</ele>
        <time>2012-01-30T14:01:06Z</time>
      </trkpt>
      <trkpt lat="44.58352" lon="0.8771">
        <ele>156</ele>
        <time>2012-01-30T14:01:07Z</time>
      </trkpt>
      <trkpt lat="44.5835" lon="0.87704">
        <ele>155</ele>
        <time>2012-01-30T14:01:08Z</time>
      </trkpt>
      <trkpt lat="44.58349" lon="0.87699">
        <ele>154</ele>
        <time>2012-01-30T14:01:09Z</time>
      </trkpt>
      <trkpt lat="44.58348" lon="0.87694">
        <ele>154</ele>
        <time>2012-01-30T14:01:10Z</time>
      </trkpt>
      <trkpt lat="44.58347" lon="0.87691">
        <ele>153</ele>
        <time>2012-01-30T14:01:11Z</time>
      </trkpt>
      <trkpt lat="44.58347" lon="0.87688">
        <ele>153</ele>
        <time>2012-01-30T14:01:12Z</time>
      </trkpt>
      <trkpt lat="44.58346" lon="0.87683">
        <ele>152</ele>
        <time>2012-01-30T14:01:13Z</time>
      </trkpt>
      <trkpt lat="44.58344" lon="0.87678">
        <ele>152</ele>
        <time>2012-01-30T14:01:14Z</time>
      </trkpt>
      <trkpt lat="44.58343" lon="0.87674">
        <ele>151</ele>
        <time>2012-01-30T14:01:15Z</time>
      </trkpt>
      <trkpt lat="44.58342" lon="0.8767">
        <ele>151</ele>
        <time>2012-01-30T14:01:16Z</time>
      </trkpt>
      <trkpt lat="44.58339" lon="0.87666">
        <ele>150</ele>
        <time>2012-01-30T14:01:17Z</time>
      </trkpt>
      <trkpt lat="44.58337" lon="0.87662">
        <ele>150</ele>
        <time>2012-01-30T14:01:18Z</time>
      </trkpt>
      <trkpt lat="44.58334" lon="0.87659">
        <ele>149</ele>
        <time>2012-01-30T14:01:19Z</time>
      </trkpt>
      <trkpt lat="44.58331" lon="0.87656">
        <ele>149</ele>
        <time>2012-01-30T14:01:20Z</time>
      </trkpt>
      <trkpt lat="44.58327" lon="0.87652">
        <ele>148</ele>
        <time>2012-01-30T14:01:21Z</time>
      </trkpt>
      <trkpt lat="44.58323" lon="0.87648">
        <ele>148</ele>
        <time>2012-01-30T14:01:22Z</time>
      </trkpt>
      <trkpt lat="44.5832" lon="0.87645">
        <ele>147</ele>
        <time>2012-01-30T14:01:23Z</time>
      </trkpt>
      <trkpt lat="44.58316" lon="0.87643">
        <ele>147</ele>
        <time>2012-01-30T14:01:24Z</time>
      </trkpt>
      <trkpt lat="44.58312" lon="0.8764">
        <ele>147</ele>
        <time>2012-01-30T14:01:25Z</time>
      </trkpt>
      <trkpt lat="44.58309" lon="0.87638">
        <ele>146</ele>
        <time>2012-01-30T14:01:26Z</time>
      </trkpt>
      <trkpt lat="44.58306" lon="0.87637">
        <ele>146</ele>
        <time>2012-01-30T14:01:27Z</time>
      </trkpt>
      <trkpt lat="44.58302" lon="0.87635">
        <ele>146</ele>
        <time>2012-01-30T14:01:28Z</time>
      </trkpt>
      <trkpt lat="44.583" lon="0.87634">
        <ele>146</ele>
        <time>2012-01-30T14:01:29Z</time>
      </trkpt>
      <trkpt lat="44.58296" lon="0.87634">
        <ele>146</ele>
        <time>2012-01-30T14:01:30Z</time>
      </trkpt>
      <trkpt lat="44.58294" lon="0.87632">
        <ele>146</ele>
        <time>2012-01-30T14:01:31Z</time>
      </trkpt>
      <trkpt lat="44.58292" lon="0.87631">
        <ele>146</ele>
        <time>2012-01-30T14:01:32Z</time>
      </trkpt>
      <trkpt lat="44.5829" lon="0.8763">
        <ele>146</ele>
        <time>2012-01-30T14:01:33Z</time>
      </trkpt>
      <trkpt lat="44.58288" lon="0.87629">
        <ele>146</ele>
        <time>2012-01-30T14:01:34Z</time>
      </trkpt>
      <trkpt lat="44.58286" lon="0.87628">
        <ele>146</ele>
        <time>2012-01-30T14:01:35Z</time>
      </trkpt>
      <trkpt lat="44.58284" lon="0.87626">
        <ele>146</ele>
        <time>2012-01-30T14:01:36Z</time>
      </trkpt>
      <trkpt lat="44.58283" lon="0.87625">
        <ele>146</ele>
        <time>2012-01-30T14:01:37Z</time>
      </trkpt>
      <trkpt lat="44.58281" lon="0.87623">
        <ele>146</ele>
        <time>2012-01-30T14:01:38Z</time>
      </trkpt>
      <trkpt lat="44.58281" lon="0.87622">
        <ele>147</ele>
        <time>2012-01-30T14:01:39Z</time>
      </trkpt>
      <trkpt lat="44.5828" lon="0.8762">
        <ele>147</ele>
        <time>2012-01-30T14:01:40Z</time>
      </trkpt>
      <trkpt lat="44.58279" lon="0.87617">
        <ele>148</ele>
        <time>2012-01-30T14:01:41Z</time>
      </trkpt>
      <trkpt lat="44.58278" lon="0.87615">
        <ele>148</ele>
        <time>2012-01-30T14:01:42Z</time>
      </trkpt>
      <trkpt lat="44.58277" lon="0.87612">
        <ele>149</ele>
        <time>2012-01-30T14:01:43Z</time>
      </trkpt>
      <trkpt lat="44.58275" lon="0.8761">
        <ele>149</ele>
        <time>2012-01-30T14:01:44Z</time>
      </trkpt>
      <trkpt lat="44.58274" lon="0.87607">
        <ele>149</ele>
        <time>2012-01-30T14:01:45Z</time>
      </trkpt>
      <trkpt lat="44.58272" lon="0.87605">
        <ele>149</ele>
        <time>2012-01-30T14:01:46Z</time>
      </trkpt>
      <trkpt lat="44.58271" lon="0.87602">
        <ele>149</ele>
        <time>2012-01-30T14:01:47Z</time>
      </trkpt>
      <trkpt lat="44.5827" lon="0.87599">
        <ele>149</ele>
        <time>2012-01-30T14:01:48Z</time>
      </trkpt>
      <trkpt lat="44.58268" lon="0.87596">
        <ele>150</ele>
        <time>2012-01-30T14:01:49Z</time>
      </trkpt>
      <trkpt lat="44.58266" lon="0.87593">
        <ele>150</ele>
        <time>2012-01-30T14:01:50Z</time>
      </trkpt>
      <trkpt lat="44.58266" lon="0.8759">
        <ele>151</ele>
        <time>2012-01-30T14:01:51Z</time>
      </trkpt>
      <trkpt lat="44.58265" lon="0.87588">
        <ele>151</ele>
        <time>2012-01-30T14:01:52Z</time>
      </trkpt>
      <trkpt lat="44.58264" lon="0.87585">
        <ele>152</ele>
        <time>2012-01-30T14:01:53Z</time>
      </trkpt>
      <trkpt lat="44.58263" lon="0.87583">
        <ele>153</ele>
        <time>2012-01-30T14:01:54Z</time>
      </trkpt>
      <trkpt lat="44.58262" lon="0.8758">
        <ele>154</ele>
        <time>2012-01-30T14:01:55Z</time>
      </trkpt>
      <trkpt lat="44.5826" lon="0.87577">
        <ele>155</ele>
        <time>2012-01-30T14:01:56Z</time>
      </trkpt>
      <trkpt lat="44.58258" lon="0.87575">
        <ele>155</ele>
        <time>2012-01-30T14:01:57Z</time>
      </trkpt>
      <trkpt lat="44.58257" lon="0.87572">
        <ele>156</ele>
        <time>2012-01-30T14:01:58Z</time>
      </trkpt>
      <trkpt lat="44.58254" lon="0.87569">
        <ele>157</ele>
        <time>2012-01-30T14:01:59Z</time>
      </trkpt>
      <trkpt lat="44.58251" lon="0.87568">
        <ele>157</ele>
        <time>2012-01-30T14:02:00Z</time>
      </trkpt>
      <trkpt lat="44.58249" lon="0.87568">
        <ele>157</ele>
        <time>2012-01-30T14:02:01Z</time>
      </trkpt>
      <trkpt lat="44.58247" lon="0.87569">
        <ele>157</ele>
        <time>2012-01-30T14:02:02Z</time>
      </trkpt>
      <trkpt lat="44.58245" lon="0.8757">
        <ele>157</ele>
        <time>2012-01-30T14:02:03Z</time>
      </trkpt>
      <trkpt lat="44.58243" lon="0.87571">
        <ele>158</ele>
        <time>2012-01-30T14:02:04Z</time>
      </trkpt>
      <trkpt lat="44.58241" lon="0.87572">
        <ele>159</ele>
        <time>2012-01-30T14:02:05Z</time>
      </trkpt>
      <trkpt lat="44.58239" lon="0.87572">
        <ele>160</ele>
        <time>2012-01-30T14:02:06Z</time>
      </trkpt>
      <trkpt lat="44.58236" lon="0.87571">
        <ele>161</ele>
        <time>2012-01-30T14:02:07Z</time>
      </trkpt>
      <trkpt lat="44.58235" lon="0.87572">
        <ele>162</ele>
        <time>2012-01-30T14:02:08Z</time>
      </trkpt>
      <trkpt lat="44.58233" lon="0.87574">
        <ele>163</ele>
        <time>2012-01-30T14:02:09Z</time>
      </trkpt>
      <trkpt lat="44.58232" lon="0.87576">
        <ele>164</ele>
        <time>2012-01-30T14:02:10Z</time>
      </trkpt>
      <trkpt lat="44.5823" lon="0.87578">
        <ele>165</ele>
        <time>2012-01-30T14:02:11Z</time>
      </trkpt>
      <trkpt lat="44.58229" lon="0.87579">
        <ele>165</ele>
        <time>2012-01-30T14:02:12Z</time>
      </trkpt>
      <trkpt lat="44.58227" lon="0.8758">
        <ele>165</ele>
        <time>2012-01-30T14:02:13Z</time>
      </trkpt>
      <trkpt lat="44.58225" lon="0.87582">
        <ele>165</ele>
        <time>2012-01-30T14:02:15Z</time>
      </trkpt>
      <trkpt lat="44.58223" lon="0.87583">
        <ele>165</ele>
        <time>2012-01-30T14:02:17Z</time>
      </trkpt>
      <trkpt lat="44.58222" lon="0.87583">
        <ele>165</ele>
        <time>2012-01-30T14:02:19Z</time>
      </trkpt>
      <trkpt lat="44.58221" lon="0.87583">
        <ele>165</ele>
        <time>2012-01-30T14:02:21Z</time>
      </trkpt>
      <trkpt lat="44.5822" lon="0.87583">
        <ele>166</ele>
        <time>2012-01-30T14:02:24Z</time>
      </trkpt>
      <trkpt lat="44.58221" lon="0.87583">
        <ele>166</ele>
        <time>2012-01-30T14:02:27Z</time>
      </trkpt>
      <trkpt lat="44.5822" lon="0.87583">
        <ele>166</ele>
        <time>2012-01-30T14:02:32Z</time>
      </trkpt>
      <trkpt lat="44.58218" lon="0.87583">
        <ele>167</ele>
        <time>2012-01-30T14:02:35Z</time>
      </trkpt>
      <trkpt lat="44.58217" lon="0.87583">
        <ele>167</ele>
        <time>2012-01-30T14:02:37Z</time>
      </trkpt>
      <trkpt lat="44.58215" lon="0.87582">
        <ele>168</ele>
        <time>2012-01-30T14:02:39Z</time>
      </trkpt>
      <trkpt lat="44.58213" lon="0.87582">
        <ele>168</ele>
        <time>2012-01-30T14:02:41Z</time>
      </trkpt>
      <trkpt lat="44.58212" lon="0.87582">
        <ele>168</ele>
        <time>2012-01-30T14:02:43Z</time>
      </trkpt>
      <trkpt lat="44.58213" lon="0.87581">
        <ele>168</ele>
        <time>2012-01-30T14:02:48Z</time>
      </trkpt>
      <trkpt lat="44.58213" lon="0.87579">
        <ele>168</ele>
        <time>2012-01-30T14:02:51Z</time>
      </trkpt>
      <trkpt lat="44.58211" lon="0.8758">
        <ele>168</ele>
        <time>2012-01-30T14:02:55Z</time>
      </trkpt>
      <trkpt lat="44.5821" lon="0.87579">
        <ele>168</ele>
        <time>2012-01-30T14:02:57Z</time>
      </trkpt>
      <trkpt lat="44.58208" lon="0.87579">
        <ele>169</ele>
        <time>2012-01-30T14:02:59Z</time>
      </trkpt>
      <trkpt lat="44.58209" lon="0.87577">
        <ele>169</ele>
        <time>2012-01-30T14:03:02Z</time>
      </trkpt>
      <trkpt lat="44.5821" lon="0.87576">
        <ele>169</ele>
        <time>2012-01-30T14:03:05Z</time>
      </trkpt>
      <trkpt lat="44.5821" lon="0.87579">
        <ele>169</ele>
        <time>2012-01-30T14:03:08Z</time>
      </trkpt>
      <trkpt lat="44.5821" lon="0.87581">
        <ele>169</ele>
        <time>2012-01-30T14:03:10Z</time>
      </trkpt>
      <trkpt lat="44.5821" lon="0.87582">
        <ele>169</ele>
        <time>2012-01-30T14:03:11Z</time>
      </trkpt>
      <trkpt lat="44.58209" lon="0.87585">
        <ele>169</ele>
        <time>2012-01-30T14:03:13Z</time>
      </trkpt>
      <trkpt lat="44.58208" lon="0.87587">
        <ele>169</ele>
        <time>2012-01-30T14:03:15Z</time>
      </trkpt>
      <trkpt lat="44.5821" lon="0.87586">
        <ele>169</ele>
        <time>2012-01-30T14:03:20Z</time>
      </trkpt>
      <trkpt lat="44.58211" lon="0.87585">
        <ele>169</ele>
        <time>2012-01-30T14:03:26Z</time>
      </trkpt>
      <trkpt lat="44.5821" lon="0.87585">
        <ele>169</ele>
        <time>2012-01-30T14:03:32Z</time>
      </trkpt>
      <trkpt lat="44.5821" lon="0.87587">
        <ele>169</ele>
        <time>2012-01-30T14:03:38Z</time>
      </trkpt>
      <trkpt lat="44.5821" lon="0.87589">
        <ele>170</ele>
        <time>2012-01-30T14:03:42Z</time>
      </trkpt>
      <trkpt lat="44.58212" lon="0.8759">
        <ele>170</ele>
        <time>2012-01-30T14:03:44Z</time>
      </trkpt>
      <trkpt lat="44.5821" lon="0.8759">
        <ele>170</ele>
        <time>2012-01-30T14:03:49Z</time>
      </trkpt>
      <trkpt lat="44.58209" lon="0.8759">
        <ele>171</ele>
        <time>2012-01-30T14:03:52Z</time>
      </trkpt>
      <trkpt lat="44.58211" lon="0.87589">
        <ele>171</ele>
        <time>2012-01-30T14:03:56Z</time>
      </trkpt>
      <trkpt lat="44.58212" lon="0.8759">
        <ele>171</ele>
        <time>2012-01-30T14:03:59Z</time>
      </trkpt>
      <trkpt lat="44.58212" lon="0.87592">
        <ele>171</ele>
        <time>2012-01-30T14:04:09Z</time>
      </trkpt>
      <trkpt lat="44.58213" lon="0.87594">
        <ele>170</ele>
        <time>2012-01-30T14:04:20Z</time>
      </trkpt>
      <trkpt lat="44.58213" lon="0.87595">
        <ele>170</ele>
        <time>2012-01-30T14:04:22Z</time>
      </trkpt>
      <trkpt lat="44.58215" lon="0.87597">
        <ele>169</ele>
        <time>2012-01-30T14:04:24Z</time>
      </trkpt>
      <trkpt lat="44.58216" lon="0.876">
        <ele>168</ele>
        <time>2012-01-30T14:04:26Z</time>
      </trkpt>
      <trkpt lat="44.58217" lon="0.87602">
        <ele>167</ele>
        <time>2012-01-30T14:04:27Z</time>
      </trkpt>
      <trkpt lat="44.58217" lon="0.87606">
        <ele>165</ele>
        <time>2012-01-30T14:04:29Z</time>
      </trkpt>
      <trkpt lat="44.58216" lon="0.87608">
        <ele>165</ele>
        <time>2012-01-30T14:04:30Z</time>
      </trkpt>
      <trkpt lat="44.58216" lon="0.87609">
        <ele>164</ele>
        <time>2012-01-30T14:04:31Z</time>
      </trkpt>
      <trkpt lat="44.58214" lon="0.87612">
        <ele>163</ele>
        <time>2012-01-30T14:04:33Z</time>
      </trkpt>
      <trkpt lat="44.58213" lon="0.87614">
        <ele>163</ele>
        <time>2012-01-30T14:04:35Z</time>
      </trkpt>
      <trkpt lat="44.58211" lon="0.87616">
        <ele>163</ele>
        <time>2012-01-30T14:04:36Z</time>
      </trkpt>
      <trkpt lat="44.5821" lon="0.87617">
        <ele>163</ele>
        <time>2012-01-30T14:04:37Z</time>
      </trkpt>
      <trkpt lat="44.58208" lon="0.87619">
        <ele>163</ele>
        <time>2012-01-30T14:04:38Z</time>
      </trkpt>
      <trkpt lat="44.58207" lon="0.8762">
        <ele>163</ele>
        <time>2012-01-30T14:04:39Z</time>
      </trkpt>
      <trkpt lat="44.58205" lon="0.87621">
        <ele>163</ele>
        <time>2012-01-30T14:04:40Z</time>
      </trkpt>
      <trkpt lat="44.58204" lon="0.87622">
        <ele>163</ele>
        <time>2012-01-30T14:04:41Z</time>
      </trkpt>
      <trkpt lat="44.58202" lon="0.87624">
        <ele>163</ele>
        <time>2012-01-30T14:04:42Z</time>
      </trkpt>
      <trkpt lat="44.582" lon="0.87626">
        <ele>163</ele>
        <time>2012-01-30T14:04:44Z</time>
      </trkpt>
      <trkpt lat="44.58198" lon="0.87628">
        <ele>163</ele>
        <time>2012-01-30T14:04:45Z</time>
      </trkpt>
      <trkpt lat="44.58196" lon="0.8763">
        <ele>163</ele>
        <time>2012-01-30T14:04:46Z</time>
      </trkpt>
      <trkpt lat="44.58194" lon="0.8763">
        <ele>163</ele>
        <time>2012-01-30T14:04:47Z</time>
      </trkpt>
      <trkpt lat="44.58192" lon="0.87633">
        <ele>163</ele>
        <time>2012-01-30T14:04:48Z</time>
      </trkpt>
      <trkpt lat="44.58189" lon="0.87635">
        <ele>163</ele>
        <time>2012-01-30T14:04:49Z</time>
      </trkpt>
      <trkpt lat="44.58188" lon="0.87636">
        <ele>163</ele>
        <time>2012-01-30T14:04:50Z</time>
      </trkpt>
      <trkpt lat="44.58186" lon="0.87636">
        <ele>163</ele>
        <time>2012-01-30T14:04:51Z</time>
      </trkpt>
      <trkpt lat="44.58184" lon="0.87637">
        <ele>163</ele>
        <time>2012-01-30T14:04:52Z</time>
      </trkpt>
      <trkpt lat="44.58182" lon="0.87638">
        <ele>163</ele>
        <time>2012-01-30T14:04:53Z</time>
      </trkpt>
      <trkpt lat="44.5818" lon="0.87638">
        <ele>163</ele>
        <time>2012-01-30T14:04:54Z</time>
      </trkpt>
      <trkpt lat="44.58178" lon="0.87639">
        <ele>163</ele>
        <time>2012-01-30T14:04:55Z</time>
      </trkpt>
      <trkpt lat="44.58176" lon="0.87639">
        <ele>163</ele>
        <time>2012-01-30T14:04:56Z</time>
      </trkpt>
      <trkpt lat="44.58174" lon="0.8764">
        <ele>163</ele>
        <time>2012-01-30T14:04:57Z</time>
      </trkpt>
      <trkpt lat="44.58172" lon="0.8764">
        <ele>163</ele>
        <time>2012-01-30T14:04:58Z</time>
      </trkpt>
      <trkpt lat="44.5817" lon="0.87639">
        <ele>164</ele>
        <time>2012-01-30T14:04:59Z</time>
      </trkpt>
      <trkpt lat="44.58169" lon="0.87637">
        <ele>164</ele>
        <time>2012-01-30T14:05:00Z</time>
      </trkpt>
      <trkpt lat="44.58167" lon="0.87636">
        <ele>165</ele>
        <time>2012-01-30T14:05:01Z</time>
      </trkpt>
      <trkpt lat="44.58166" lon="0.87634">
        <ele>165</ele>
        <time>2012-01-30T14:05:02Z</time>
      </trkpt>
      <trkpt lat="44.58163" lon="0.87633">
        <ele>166</ele>
        <time>2012-01-30T14:05:04Z</time>
      </trkpt>
      <trkpt lat="44.58162" lon="0.87633">
        <ele>166</ele>
        <time>2012-01-30T14:05:05Z</time>
      </trkpt>
      <trkpt lat="44.5816" lon="0.87634">
        <ele>167</ele>
        <time>2012-01-30T14:05:06Z</time>
      </trkpt>
      <trkpt lat="44.58159" lon="0.87635">
        <ele>167</ele>
        <time>2012-01-30T14:05:07Z</time>
      </trkpt>
      <trkpt lat="44.58156" lon="0.87636">
        <ele>168</ele>
        <time>2012-01-30T14:05:09Z</time>
      </trkpt>
      <trkpt lat="44.58155" lon="0.87637">
        <ele>169</ele>
        <time>2012-01-30T14:05:10Z</time>
      </trkpt>
      <trkpt lat="44.58154" lon="0.87638">
        <ele>169</ele>
        <time>2012-01-30T14:05:11Z</time>
      </trkpt>
      <trkpt lat="44.58152" lon="0.87638">
        <ele>169</ele>
        <time>2012-01-30T14:05:12Z</time>
      </trkpt>
      <trkpt lat="44.58151" lon="0.87637">
        <ele>169</ele>
        <time>2012-01-30T14:05:13Z</time>
      </trkpt>
      <trkpt lat="44.5815" lon="0.87637">
        <ele>169</ele>
        <time>2012-01-30T14:05:15Z</time>
      </trkpt>
      <trkpt lat="44.58148" lon="0.87637">
        <ele>169</ele>
        <time>2012-01-30T14:05:17Z</time>
      </trkpt>
      <trkpt lat="44.58147" lon="0.87635">
        <ele>169</ele>
        <time>2012-01-30T14:05:20Z</time>
      </trkpt>
      <trkpt lat="44.58145" lon="0.87635">
        <ele>170</ele>
        <time>2012-01-30T14:05:22Z</time>
      </trkpt>
      <trkpt lat="44.58144" lon="0.87635">
        <ele>172</ele>
        <time>2012-01-30T14:05:24Z</time>
      </trkpt>
      <trkpt lat="44.58141" lon="0.87635">
        <ele>173</ele>
        <time>2012-01-30T14:05:26Z</time>
      </trkpt>
      <trkpt lat="44.5814" lon="0.87635">
        <ele>173</ele>
        <time>2012-01-30T14:05:27Z</time>
      </trkpt>
      <trkpt lat="44.58141" lon="0.87637">
        <ele>173</ele>
        <time>2012-01-30T14:05:32Z</time>
      </trkpt>
      <trkpt lat="44.58139" lon="0.87638">
        <ele>173</ele>
        <time>2012-01-30T14:05:35Z</time>
      </trkpt>
      <trkpt lat="44.58138" lon="0.87638">
        <ele>173</ele>
        <time>2012-01-30T14:05:37Z</time>
      </trkpt>
      <trkpt lat="44.58138" lon="0.8764">
        <ele>173</ele>
        <time>2012-01-30T14:05:41Z</time>
      </trkpt>
      <trkpt lat="44.58136" lon="0.87642">
        <ele>173</ele>
        <time>2012-01-30T14:05:45Z</time>
      </trkpt>
      <trkpt lat="44.58134" lon="0.87642">
        <ele>173</ele>
        <time>2012-01-30T14:05:47Z</time>
      </trkpt>
      <trkpt lat="44.58133" lon="0.87642">
        <ele>172</ele>
        <time>2012-01-30T14:05:49Z</time>
      </trkpt>
      <trkpt lat="44.58132" lon="0.87642">
        <ele>172</ele>
        <time>2012-01-30T14:05:51Z</time>
      </trkpt>
      <trkpt lat="44.58133" lon="0.87644">
        <ele>170</ele>
        <time>2012-01-30T14:05:56Z</time>
      </trkpt>
      <trkpt lat="44.58134" lon="0.87646">
        <ele>168</ele>
        <time>2012-01-30T14:06:07Z</time>
      </trkpt>
      <trkpt lat="44.58135" lon="0.87646">
        <ele>168</ele>
        <time>2012-01-30T14:06:09Z</time>
      </trkpt>
      <trkpt lat="44.58136" lon="0.87646">
        <ele>168</ele>
        <time>2012-01-30T14:06:10Z</time>
      </trkpt>
      <trkpt lat="44.58138" lon="0.87646">
        <ele>168</ele>
        <time>2012-01-30T14:06:12Z</time>
      </trkpt>
      <trkpt lat="44.58139" lon="0.87646">
        <ele>168</ele>
        <time>2012-01-30T14:06:14Z</time>
      </trkpt>
      <trkpt lat="44.5814" lon="0.87645">
        <ele>168</ele>
        <time>2012-01-30T14:06:19Z</time>
      </trkpt>
      <trkpt lat="44.58139" lon="0.87643">
        <ele>172</ele>
        <time>2012-01-30T14:06:26Z</time>
      </trkpt>
      <trkpt lat="44.58139" lon="0.87641">
        <ele>172</ele>
        <time>2012-01-30T14:06:28Z</time>
      </trkpt>
      <trkpt lat="44.58138" lon="0.8764">
        <ele>172</ele>
        <time>2012-01-30T14:06:30Z</time>
      </trkpt>
      <trkpt lat="44.58137" lon="0.87638">
        <ele>172</ele>
        <time>2012-01-30T14:06:32Z</time>
      </trkpt>
      <trkpt lat="44.58136" lon="0.87637">
        <ele>172</ele>
        <time>2012-01-30T14:06:34Z</time>
      </trkpt>
      <trkpt lat="44.58135" lon="0.87635">
        <ele>172</ele>
        <time>2012-01-30T14:06:35Z</time>
      </trkpt>
      <trkpt lat="44.58133" lon="0.87634">
        <ele>172</ele>
        <time>2012-01-30T14:06:36Z</time>
      </trkpt>
      <trkpt lat="44.58132" lon="0.8763">
        <ele>172</ele>
        <time>2012-01-30T14:06:38Z</time>
      </trkpt>
      <trkpt lat="44.58131" lon="0.87628">
        <ele>172</ele>
        <time>2012-01-30T14:06:39Z</time>
      </trkpt>
      <trkpt lat="44.5813" lon="0.87627">
        <ele>172</ele>
        <time>2012-01-30T14:06:40Z</time>
      </trkpt>
      <trkpt lat="44.58128" lon="0.87626">
        <ele>172</ele>
        <time>2012-01-30T14:06:42Z</time>
      </trkpt>
      <trkpt lat="44.58125" lon="0.87626">
        <ele>172</ele>
        <time>2012-01-30T14:06:43Z</time>
      </trkpt>
      <trkpt lat="44.58122" lon="0.87626">
        <ele>172</ele>
        <time>2012-01-30T14:06:44Z</time>
      </trkpt>
      <trkpt lat="44.5812" lon="0.87626">
        <ele>172</ele>
        <time>2012-01-30T14:06:45Z</time>
      </trkpt>
      <trkpt lat="44.58117" lon="0.87627">
        <ele>172</ele>
        <time>2012-01-30T14:06:46Z</time>
      </trkpt>
      <trkpt lat="44.58115" lon="0.87628">
        <ele>172</ele>
        <time>2012-01-30T14:06:47Z</time>
      </trkpt>
      <trkpt lat="44.58112" lon="0.87629">
        <ele>172</ele>
        <time>2012-01-30T14:06:48Z</time>
      </trkpt>
      <trkpt lat="44.5811" lon="0.87629">
        <ele>171</ele>
        <time>2012-01-30T14:06:49Z</time>
      </trkpt>
      <trkpt lat="44.58109" lon="0.87629">
        <ele>171</ele>
        <time>2012-01-30T14:06:50Z</time>
      </trkpt>
      <trkpt lat="44.58107" lon="0.8763">
        <ele>171</ele>
        <time>2012-01-30T14:06:51Z</time>
      </trkpt>
      <trkpt lat="44.58105" lon="0.87629">
        <ele>171</ele>
        <time>2012-01-30T14:06:52Z</time>
      </trkpt>
      <trkpt lat="44.58103" lon="0.87629">
        <ele>171</ele>
        <time>2012-01-30T14:06:53Z</time>
      </trkpt>
      <trkpt lat="44.58102" lon="0.87629">
        <ele>171</ele>
        <time>2012-01-30T14:06:54Z</time>
      </trkpt>
      <trkpt lat="44.58099" lon="0.8763">
        <ele>171</ele>
        <time>2012-01-30T14:06:55Z</time>
      </trkpt>
      <trkpt lat="44.58097" lon="0.8763">
        <ele>171</ele>
        <time>2012-01-30T14:06:56Z</time>
      </trkpt>
      <trkpt lat="44.58095" lon="0.87629">
        <ele>170</ele>
        <time>2012-01-30T14:06:57Z</time>
      </trkpt>
      <trkpt lat="44.58093" lon="0.87629">
        <ele>170</ele>
        <time>2012-01-30T14:06:58Z</time>
      </trkpt>
      <trkpt lat="44.58091" lon="0.87628">
        <ele>169</ele>
        <time>2012-01-30T14:06:59Z</time>
      </trkpt>
      <trkpt lat="44.58089" lon="0.87626">
        <ele>168</ele>
        <time>2012-01-30T14:07:00Z</time>
      </trkpt>
      <trkpt lat="44.58088" lon="0.87625">
        <ele>167</ele>
        <time>2012-01-30T14:07:01Z</time>
      </trkpt>
      <trkpt lat="44.58086" lon="0.87624">
        <ele>167</ele>
        <time>2012-01-30T14:07:02Z</time>
      </trkpt>
      <trkpt lat="44.58084" lon="0.87622">
        <ele>166</ele>
        <time>2012-01-30T14:07:03Z</time>
      </trkpt>
      <trkpt lat="44.58082" lon="0.87622">
        <ele>165</ele>
        <time>2012-01-30T14:07:04Z</time>
      </trkpt>
      <trkpt lat="44.5808" lon="0.8762">
        <ele>165</ele>
        <time>2012-01-30T14:07:05Z</time>
      </trkpt>
      <trkpt lat="44.58078" lon="0.87617">
        <ele>164</ele>
        <time>2012-01-30T14:07:06Z</time>
      </trkpt>
      <trkpt lat="44.58076" lon="0.87614">
        <ele>164</ele>
        <time>2012-01-30T14:07:07Z</time>
      </trkpt>
      <trkpt lat="44.58074" lon="0.87611">
        <ele>163</ele>
        <time>2012-01-30T14:07:08Z</time>
      </trkpt>
      <trkpt lat="44.58072" lon="0.87608">
        <ele>163</ele>
        <time>2012-01-30T14:07:09Z</time>
      </trkpt>
      <trkpt lat="44.58071" lon="0.87605">
        <ele>163</ele>
        <time>2012-01-30T14:07:10Z</time>
      </trkpt>
      <trkpt lat="44.5807" lon="0.87602">
        <ele>162</ele>
        <time>2012-01-30T14:07:11Z</time>
      </trkpt>
      <trkpt lat="44.58069" lon="0.87599">
        <ele>162</ele>
        <time>2012-01-30T14:07:12Z</time>
      </trkpt>
      <trkpt lat="44.58068" lon="0.87596">
        <ele>161</ele>
        <time>2012-01-30T14:07:13Z</time>
      </trkpt>
      <trkpt lat="44.58067" lon="0.87594">
        <ele>161</ele>
        <time>2012-01-30T14:07:14Z</time>
      </trkpt>
      <trkpt lat="44.58065" lon="0.87593">
        <ele>160</ele>
        <time>2012-01-30T14:07:15Z</time>
      </trkpt>
      <trkpt lat="44.58064" lon="0.87593">
        <ele>159</ele>
        <time>2012-01-30T14:07:16Z</time>
      </trkpt>
      <trkpt lat="44.58063" lon="0.87592">
        <ele>158</ele>
        <time>2012-01-30T14:07:17Z</time>
      </trkpt>
      <trkpt lat="44.58061" lon="0.8759">
        <ele>158</ele>
        <time>2012-01-30T14:07:18Z</time>
      </trkpt>
      <trkpt lat="44.58059" lon="0.87589">
        <ele>157</ele>
        <time>2012-01-30T14:07:19Z</time>
      </trkpt>
      <trkpt lat="44.58057" lon="0.87586">
        <ele>156</ele>
        <time>2012-01-30T14:07:20Z</time>
      </trkpt>
      <trkpt lat="44.58055" lon="0.87584">
        <ele>156</ele>
        <time>2012-01-30T14:07:21Z</time>
      </trkpt>
      <trkpt lat="44.58055" lon="0.87581">
        <ele>155</ele>
        <time>2012-01-30T14:07:22Z</time>
      </trkpt>
      <trkpt lat="44.58054" lon="0.87578">
        <ele>155</ele>
        <time>2012-01-30T14:07:23Z</time>
      </trkpt>
      <trkpt lat="44.58052" lon="0.87574">
        <ele>154</ele>
        <time>2012-01-30T14:07:24Z</time>
      </trkpt>
      <trkpt lat="44.58051" lon="0.87572">
        <ele>154</ele>
        <time>2012-01-30T14:07:25Z</time>
      </trkpt>
      <trkpt lat="44.58049" lon="0.87568">
        <ele>153</ele>
        <time>2012-01-30T14:07:26Z</time>
      </trkpt>
      <trkpt lat="44.58047" lon="0.87565">
        <ele>153</ele>
        <time>2012-01-30T14:07:27Z</time>
      </trkpt>
      <trkpt lat="44.58045" lon="0.87563">
        <ele>152</ele>
        <time>2012-01-30T14:07:28Z</time>
      </trkpt>
      <trkpt lat="44.58043" lon="0.87563">
        <ele>152</ele>
        <time>2012-01-30T14:07:29Z</time>
      </trkpt>
      <trkpt lat="44.5804" lon="0.87562">
        <ele>152</ele>
        <time>2012-01-30T14:07:30Z</time>
      </trkpt>
      <trkpt lat="44.58037" lon="0.87561">
        <ele>151</ele>
        <time>2012-01-30T14:07:31Z</time>
      </trkpt>
      <trkpt lat="44.58035" lon="0.87561">
        <ele>151</ele>
        <time>2012-01-30T14:07:32Z</time>
      </trkpt>
      <trkpt lat="44.58032" lon="0.87561">
        <ele>150</ele>
        <time>2012-01-30T14:07:33Z</time>
      </trkpt>
      <trkpt lat="44.58029" lon="0.8756">
        <ele>149</ele>
        <time>2012-01-30T14:07:34Z</time>
      </trkpt>
      <trkpt lat="44.58027" lon="0.8756">
        <ele>148</ele>
        <time>2012-01-30T14:07:35Z</time>
      </trkpt>
      <trkpt lat="44.58024" lon="0.8756">
        <ele>147</ele>
        <time>2012-01-30T14:07:36Z</time>
      </trkpt>
      <trkpt lat="44.58022" lon="0.87559">
        <ele>146</ele>
        <time>2012-01-30T14:07:37Z</time>
      </trkpt>
      <trkpt lat="44.58019" lon="0.87557">
        <ele>145</ele>
        <time>2012-01-30T14:07:38Z</time>
      </trkpt>
      <trkpt lat="44.58017" lon="0.87555">
        <ele>145</ele>
        <time>2012-01-30T14:07:39Z</time>
      </trkpt>
      <trkpt lat="44.58015" lon="0.87552">
        <ele>144</ele>
        <time>2012-01-30T14:07:40Z</time>
      </trkpt>
      <trkpt lat="44.58012" lon="0.87549">
        <ele>143</ele>
        <time>2012-01-30T14:07:41Z</time>
      </trkpt>
      <trkpt lat="44.58009" lon="0.87547">
        <ele>142</ele>
        <time>2012-01-30T14:07:42Z</time>
      </trkpt>
      <trkpt lat="44.58006" lon="0.87545">
        <ele>141</ele>
        <time>2012-01-30T14:07:43Z</time>
      </trkpt>
      <trkpt lat="44.58004" lon="0.87546">
        <ele>141</ele>
        <time>2012-01-30T14:07:44Z</time>
      </trkpt>
      <trkpt lat="44.58004" lon="0.87547">
        <ele>140</ele>
        <time>2012-01-30T14:07:45Z</time>
      </trkpt>
      <trkpt lat="44.58002" lon="0.87547">
        <ele>140</ele>
        <time>2012-01-30T14:07:46Z</time>
      </trkpt>
      <trkpt lat="44.58" lon="0.87545">
        <ele>140</ele>
        <time>2012-01-30T14:07:48Z</time>
      </trkpt>
      <trkpt lat="44.57999" lon="0.87543">
        <ele>140</ele>
        <time>2012-01-30T14:07:50Z</time>
      </trkpt>
      <trkpt lat="44.57997" lon="0.87543">
        <ele>140</ele>
        <time>2012-01-30T14:07:52Z</time>
      </trkpt>
      <trkpt lat="44.57995" lon="0.87542">
        <ele>140</ele>
        <time>2012-01-30T14:07:54Z</time>
      </trkpt>
      <trkpt lat="44.57994" lon="0.87542">
        <ele>140</ele>
        <time>2012-01-30T14:07:56Z</time>
      </trkpt>
      <trkpt lat="44.57992" lon="0.87541">
        <ele>140</ele>
        <time>2012-01-30T14:07:58Z</time>
      </trkpt>
      <trkpt lat="44.57992" lon="0.87543">
        <ele>141</ele>
        <time>2012-01-30T14:08:02Z</time>
      </trkpt>
      <trkpt lat="44.57992" lon="0.87546">
        <ele>141</ele>
        <time>2012-01-30T14:08:04Z</time>
      </trkpt>
      <trkpt lat="44.57992" lon="0.87547">
        <ele>141</ele>
        <time>2012-01-30T14:08:06Z</time>
      </trkpt>
      <trkpt lat="44.57991" lon="0.87549">
        <ele>141</ele>
        <time>2012-01-30T14:08:08Z</time>
      </trkpt>
      <trkpt lat="44.57991" lon="0.8755">
        <ele>141</ele>
        <time>2012-01-30T14:08:10Z</time>
      </trkpt>
      <trkpt lat="44.57991" lon="0.87552">
        <ele>141</ele>
        <time>2012-01-30T14:08:13Z</time>
      </trkpt>
      <trkpt lat="44.5799" lon="0.87554">
        <ele>141</ele>
        <time>2012-01-30T14:08:15Z</time>
      </trkpt>
      <trkpt lat="44.57989" lon="0.87555">
        <ele>140</ele>
        <time>2012-01-30T14:08:17Z</time>
      </trkpt>
      <trkpt lat="44.57988" lon="0.87557">
        <ele>140</ele>
        <time>2012-01-30T14:08:20Z</time>
      </trkpt>
      <trkpt lat="44.57987" lon="0.87558">
        <ele>140</ele>
        <time>2012-01-30T14:08:24Z</time>
      </trkpt>
      <trkpt lat="44.57987" lon="0.8756">
        <ele>140</ele>
        <time>2012-01-30T14:08:26Z</time>
      </trkpt>
      <trkpt lat="44.57988" lon="0.87562">
        <ele>140</ele>
        <time>2012-01-30T14:08:28Z</time>
      </trkpt>
      <trkpt lat="44.57988" lon="0.87565">
        <ele>140</ele>
        <time>2012-01-30T14:08:30Z</time>
      </trkpt>
      <trkpt lat="44.57987" lon="0.87567">
        <ele>139</ele>
        <time>2012-01-30T14:08:32Z</time>
      </trkpt>
      <trkpt lat="44.57987" lon="0.87568">
        <ele>138</ele>
        <time>2012-01-30T14:08:36Z</time>
      </trkpt>
      <trkpt lat="44.57986" lon="0.8757">
        <ele>137</ele>
        <time>2012-01-30T14:08:40Z</time>
      </trkpt>
      <trkpt lat="44.57986" lon="0.87572">
        <ele>136</ele>
        <time>2012-01-30T14:08:45Z</time>
      </trkpt>
      <trkpt lat="44.57985" lon="0.87573">
        <ele>136</ele>
        <time>2012-01-30T14:08:47Z</time>
      </trkpt>
      <trkpt lat="44.57984" lon="0.87575">
        <ele>136</ele>
        <time>2012-01-30T14:08:50Z</time>
      </trkpt>
      <trkpt lat="44.57983" lon="0.87577">
        <ele>136</ele>
        <time>2012-01-30T14:08:53Z</time>
      </trkpt>
      <trkpt lat="44.57982" lon="0.87579">
        <ele>136</ele>
        <time>2012-01-30T14:08:55Z</time>
      </trkpt>
      <trkpt lat="44.5798" lon="0.8758">
        <ele>136</ele>
        <time>2012-01-30T14:09:01Z</time>
      </trkpt>
      <trkpt lat="44.57979" lon="0.87581">
        <ele>136</ele>
        <time>2012-01-30T14:09:03Z</time>
      </trkpt>
      <trkpt lat="44.57977" lon="0.87579">
        <ele>136</ele>
        <time>2012-01-30T14:09:07Z</time>
      </trkpt>
      <trkpt lat="44.57976" lon="0.87577">
        <ele>136</ele>
        <time>2012-01-30T14:09:08Z</time>
      </trkpt>
      <trkpt lat="44.57976" lon="0.87576">
        <ele>136</ele>
        <time>2012-01-30T14:09:09Z</time>
      </trkpt>
      <trkpt lat="44.57976" lon="0.87574">
        <ele>136</ele>
        <time>2012-01-30T14:09:10Z</time>
      </trkpt>
      <trkpt lat="44.57975" lon="0.87571">
        <ele>135</ele>
        <time>2012-01-30T14:09:12Z</time>
      </trkpt>
      <trkpt lat="44.57974" lon="0.87569">
        <ele>134</ele>
        <time>2012-01-30T14:09:14Z</time>
      </trkpt>
      <trkpt lat="44.57973" lon="0.87568">
        <ele>134</ele>
        <time>2012-01-30T14:09:15Z</time>
      </trkpt>
      <trkpt lat="44.57972" lon="0.87567">
        <ele>133</ele>
        <time>2012-01-30T14:09:16Z</time>
      </trkpt>
      <trkpt lat="44.57969" lon="0.87565">
        <ele>132</ele>
        <time>2012-01-30T14:09:17Z</time>
      </trkpt>
      <trkpt lat="44.57967" lon="0.87562">
        <ele>132</ele>
        <time>2012-01-30T14:09:18Z</time>
      </trkpt>
      <trkpt lat="44.57966" lon="0.87559">
        <ele>131</ele>
        <time>2012-01-30T14:09:19Z</time>
      </trkpt>
      <trkpt lat="44.57965" lon="0.87555">
        <ele>130</ele>
        <time>2012-01-30T14:09:20Z</time>
      </trkpt>
      <trkpt lat="44.57964" lon="0.87551">
        <ele>130</ele>
        <time>2012-01-30T14:09:21Z</time>
      </trkpt>
      <trkpt lat="44.57962" lon="0.87547">
        <ele>129</ele>
        <time>2012-01-30T14:09:22Z</time>
      </trkpt>
      <trkpt lat="44.57961" lon="0.87543">
        <ele>129</ele>
        <time>2012-01-30T14:09:23Z</time>
      </trkpt>
      <trkpt lat="44.5796" lon="0.87538">
        <ele>128</ele>
        <time>2012-01-30T14:09:24Z</time>
      </trkpt>
      <trkpt lat="44.57959" lon="0.87534">
        <ele>128</ele>
        <time>2012-01-30T14:09:25Z</time>
      </trkpt>
      <trkpt lat="44.57959" lon="0.87531">
        <ele>128</ele>
        <time>2012-01-30T14:09:26Z</time>
      </trkpt>
      <trkpt lat="44.57959" lon="0.87528">
        <ele>128</ele>
        <time>2012-01-30T14:09:27Z</time>
      </trkpt>
      <trkpt lat="44.57958" lon="0.87525">
        <ele>128</ele>
        <time>2012-01-30T14:09:28Z</time>
      </trkpt>
      <trkpt lat="44.57958" lon="0.87522">
        <ele>128</ele>
        <time>2012-01-30T14:09:29Z</time>
      </trkpt>
      <trkpt lat="44.57959" lon="0.87519">
        <ele>128</ele>
        <time>2012-01-30T14:09:30Z</time>
      </trkpt>
      <trkpt lat="44.5796" lon="0.87515">
        <ele>128</ele>
        <time>2012-01-30T14:09:31Z</time>
      </trkpt>
      <trkpt lat="44.57962" lon="0.87513">
        <ele>128</ele>
        <time>2012-01-30T14:09:32Z</time>
      </trkpt>
      <trkpt lat="44.57962" lon="0.87511">
        <ele>128</ele>
        <time>2012-01-30T14:09:33Z</time>
      </trkpt>
      <trkpt lat="44.57963" lon="0.87509">
        <ele>127</ele>
        <time>2012-01-30T14:09:34Z</time>
      </trkpt>
      <trkpt lat="44.57963" lon="0.87507">
        <ele>127</ele>
        <time>2012-01-30T14:09:35Z</time>
      </trkpt>
      <trkpt lat="44.57964" lon="0.87506">
        <ele>124</ele>
        <time>2012-01-30T14:09:41Z</time>
      </trkpt>
      <trkpt lat="44.57966" lon="0.87505">
        <ele>123</ele>
        <time>2012-01-30T14:09:42Z</time>
      </trkpt>
      <trkpt lat="44.57966" lon="0.87503">
        <ele>123</ele>
        <time>2012-01-30T14:09:43Z</time>
      </trkpt>
      <trkpt lat="44.57966" lon="0.87501">
        <ele>123</ele>
        <time>2012-01-30T14:09:44Z</time>
      </trkpt>
      <trkpt lat="44.57965" lon="0.87499">
        <ele>123</ele>
        <time>2012-01-30T14:09:47Z</time>
      </trkpt>
      <trkpt lat="44.57967" lon="0.87497">
        <ele>123</ele>
        <time>2012-01-30T14:09:49Z</time>
      </trkpt>
      <trkpt lat="44.57967" lon="0.87495">
        <ele>123</ele>
        <time>2012-01-30T14:09:51Z</time>
      </trkpt>
      <trkpt lat="44.57966" lon="0.87494">
        <ele>123</ele>
        <time>2012-01-30T14:09:53Z</time>
      </trkpt>
      <trkpt lat="44.57966" lon="0.87492">
        <ele>124</ele>
        <time>2012-01-30T14:09:54Z</time>
      </trkpt>
      <trkpt lat="44.57965" lon="0.8749">
        <ele>125</ele>
        <time>2012-01-30T14:09:58Z</time>
      </trkpt>
      <trkpt lat="44.57967" lon="0.87488">
        <ele>125</ele>
        <time>2012-01-30T14:10:00Z</time>
      </trkpt>
      <trkpt lat="44.57967" lon="0.87486">
        <ele>125</ele>
        <time>2012-01-30T14:10:01Z</time>
      </trkpt>
      <trkpt lat="44.57968" lon="0.87485">
        <ele>125</ele>
        <time>2012-01-30T14:10:02Z</time>
      </trkpt>
      <trkpt lat="44.57969" lon="0.87482">
        <ele>125</ele>
        <time>2012-01-30T14:10:03Z</time>
      </trkpt>
      <trkpt lat="44.57969" lon="0.87479">
        <ele>125</ele>
        <time>2012-01-30T14:10:04Z</time>
      </trkpt>
      <trkpt lat="44.57969" lon="0.87476">
        <ele>125</ele>
        <time>2012-01-30T14:10:05Z</time>
      </trkpt>
      <trkpt lat="44.5797" lon="0.87474">
        <ele>125</ele>
        <time>2012-01-30T14:10:06Z</time>
      </trkpt>
      <trkpt lat="44.57971" lon="0.87472">
        <ele>125</ele>
        <time>2012-01-30T14:10:07Z</time>
      </trkpt>
      <trkpt lat="44.57971" lon="0.8747">
        <ele>125</ele>
        <time>2012-01-30T14:10:08Z</time>
      </trkpt>
      <trkpt lat="44.57971" lon="0.87467">
        <ele>125</ele>
        <time>2012-01-30T14:10:09Z</time>
      </trkpt>
      <trkpt lat="44.57971" lon="0.87465">
        <ele>125</ele>
        <time>2012-01-30T14:10:10Z</time>
      </trkpt>
      <trkpt lat="44.5797" lon="0.87462">
        <ele>125</ele>
        <time>2012-01-30T14:10:11Z</time>
      </trkpt>
      <trkpt lat="44.57969" lon="0.8746">
        <ele>125</ele>
        <time>2012-01-30T14:10:12Z</time>
      </trkpt>
      <trkpt lat="44.57967" lon="0.87457">
        <ele>125</ele>
        <time>2012-01-30T14:10:13Z</time>
      </trkpt>
      <trkpt lat="44.57967" lon="0.87455">
        <ele>125</ele>
        <time>2012-01-30T14:10:14Z</time>
      </trkpt>
      <trkpt lat="44.57966" lon="0.87452">
        <ele>124</ele>
        <time>2012-01-30T14:10:15Z</time>
      </trkpt>
      <trkpt lat="44.57965" lon="0.8745">
        <ele>124</ele>
        <time>2012-01-30T14:10:16Z</time>
      </trkpt>
      <trkpt lat="44.57965" lon="0.87448">
        <ele>123</ele>
        <time>2012-01-30T14:10:17Z</time>
      </trkpt>
      <trkpt lat="44.57965" lon="0.87446">
        <ele>123</ele>
        <time>2012-01-30T14:10:18Z</time>
      </trkpt>
      <trkpt lat="44.57966" lon="0.87444">
        <ele>123</ele>
        <time>2012-01-30T14:10:19Z</time>
      </trkpt>
      <trkpt lat="44.57966" lon="0.87443">
        <ele>122</ele>
        <time>2012-01-30T14:10:20Z</time>
      </trkpt>
      <trkpt lat="44.57965" lon="0.87441">
        <ele>122</ele>
        <time>2012-01-30T14:10:21Z</time>
      </trkpt>
      <trkpt lat="44.57964" lon="0.87438">
        <ele>121</ele>
        <time>2012-01-30T14:10:23Z</time>
      </trkpt>
      <trkpt lat="44.57965" lon="0.87434">
        <ele>121</ele>
        <time>2012-01-30T14:10:25Z</time>
      </trkpt>
      <trkpt lat="44.57965" lon="0.87432">
        <ele>121</ele>
        <time>2012-01-30T14:10:26Z</time>
      </trkpt>
      <trkpt lat="44.57964" lon="0.87431">
        <ele>121</ele>
        <time>2012-01-30T14:10:27Z</time>
      </trkpt>
      <trkpt lat="44.57964" lon="0.87427">
        <ele>121</ele>
        <time>2012-01-30T14:10:29Z</time>
      </trkpt>
      <trkpt lat="44.57962" lon="0.87425">
        <ele>121</ele>
        <time>2012-01-30T14:10:30Z</time>
      </trkpt>
      <trkpt lat="44.57961" lon="0.87423">
        <ele>122</ele>
        <time>2012-01-30T14:10:31Z</time>
      </trkpt>
      <trkpt lat="44.57959" lon="0.87422">
        <ele>123</ele>
        <time>2012-01-30T14:10:32Z</time>
      </trkpt>
      <trkpt lat="44.57958" lon="0.87421">
        <ele>124</ele>
        <time>2012-01-30T14:10:33Z</time>
      </trkpt>
      <trkpt lat="44.57957" lon="0.87419">
        <ele>125</ele>
        <time>2012-01-30T14:10:34Z</time>
      </trkpt>
      <trkpt lat="44.57956" lon="0.87419">
        <ele>126</ele>
        <time>2012-01-30T14:10:35Z</time>
      </trkpt>
      <trkpt lat="44.57953" lon="0.87419">
        <ele>127</ele>
        <time>2012-01-30T14:10:36Z</time>
      </trkpt>
      <trkpt lat="44.57952" lon="0.87418">
        <ele>128</ele>
        <time>2012-01-30T14:10:37Z</time>
      </trkpt>
      <trkpt lat="44.57949" lon="0.87417">
        <ele>129</ele>
        <time>2012-01-30T14:10:39Z</time>
      </trkpt>
      <trkpt lat="44.57948" lon="0.87417">
        <ele>129</ele>
        <time>2012-01-30T14:10:40Z</time>
      </trkpt>
      <trkpt lat="44.57946" lon="0.87416">
        <ele>130</ele>
        <time>2012-01-30T14:10:41Z</time>
      </trkpt>
      <trkpt lat="44.57944" lon="0.87417">
        <ele>132</ele>
        <time>2012-01-30T14:10:44Z</time>
      </trkpt>
      <trkpt lat="44.57941" lon="0.87417">
        <ele>132</ele>
        <time>2012-01-30T14:10:45Z</time>
      </trkpt>
      <trkpt lat="44.57938" lon="0.87416">
        <ele>132</ele>
        <time>2012-01-30T14:10:46Z</time>
      </trkpt>
      <trkpt lat="44.57936" lon="0.87415">
        <ele>132</ele>
        <time>2012-01-30T14:10:47Z</time>
      </trkpt>
      <trkpt lat="44.57934" lon="0.87415">
        <ele>133</ele>
        <time>2012-01-30T14:10:49Z</time>
      </trkpt>
      <trkpt lat="44.57933" lon="0.87415">
        <ele>133</ele>
        <time>2012-01-30T14:10:50Z</time>
      </trkpt>
      <trkpt lat="44.57932" lon="0.87415">
        <ele>133</ele>
        <time>2012-01-30T14:10:51Z</time>
      </trkpt>
      <trkpt lat="44.5793" lon="0.87415">
        <ele>133</ele>
        <time>2012-01-30T14:10:52Z</time>
      </trkpt>
      <trkpt lat="44.57927" lon="0.87414">
        <ele>133</ele>
        <time>2012-01-30T14:10:54Z</time>
      </trkpt>
      <trkpt lat="44.57924" lon="0.87413">
        <ele>133</ele>
        <time>2012-01-30T14:10:55Z</time>
      </trkpt>
      <trkpt lat="44.57922" lon="0.87412">
        <ele>133</ele>
        <time>2012-01-30T14:10:56Z</time>
      </trkpt>
      <trkpt lat="44.5792" lon="0.87412">
        <ele>133</ele>
        <time>2012-01-30T14:10:57Z</time>
      </trkpt>
      <trkpt lat="44.57919" lon="0.87413">
        <ele>133</ele>
        <time>2012-01-30T14:10:58Z</time>
      </trkpt>
      <trkpt lat="44.57917" lon="0.87413">
        <ele>134</ele>
        <time>2012-01-30T14:11:00Z</time>
      </trkpt>
      <trkpt lat="44.57915" lon="0.87413">
        <ele>134</ele>
        <time>2012-01-30T14:11:01Z</time>
      </trkpt>
      <trkpt lat="44.57913" lon="0.87414">
        <ele>135</ele>
        <time>2012-01-30T14:11:02Z</time>
      </trkpt>
      <trkpt lat="44.57911" lon="0.87414">
        <ele>135</ele>
        <time>2012-01-30T14:11:03Z</time>
      </trkpt>
      <trkpt lat="44.5791" lon="0.87414">
        <ele>136</ele>
        <time>2012-01-30T14:11:04Z</time>
      </trkpt>
      <trkpt lat="44.57908" lon="0.87415">
        <ele>136</ele>
        <time>2012-01-30T14:11:05Z</time>
      </trkpt>
      <trkpt lat="44.57907" lon="0.87416">
        <ele>136</ele>
        <time>2012-01-30T14:11:06Z</time>
      </trkpt>
      <trkpt lat="44.57906" lon="0.87417">
        <ele>136</ele>
        <time>2012-01-30T14:11:07Z</time>
      </trkpt>
      <trkpt lat="44.57904" lon="0.87418">
        <ele>136</ele>
        <time>2012-01-30T14:11:08Z</time>
      </trkpt>
      <trkpt lat="44.57903" lon="0.87418">
        <ele>136</ele>
        <time>2012-01-30T14:11:09Z</time>
      </trkpt>
      <trkpt lat="44.57901" lon="0.87418">
        <ele>136</ele>
        <time>2012-01-30T14:11:10Z</time>
      </trkpt>
      <trkpt lat="44.579" lon="0.87418">
        <ele>136</ele>
        <time>2012-01-30T14:11:12Z</time>
      </trkpt>
      <trkpt lat="44.57898" lon="0.87418">
        <ele>136</ele>
        <time>2012-01-30T14:11:14Z</time>
      </trkpt>
      <trkpt lat="44.57897" lon="0.87418">
        <ele>136</ele>
        <time>2012-01-30T14:11:16Z</time>
      </trkpt>
      <trkpt lat="44.57895" lon="0.87418">
        <ele>136</ele>
        <time>2012-01-30T14:11:18Z</time>
      </trkpt>
      <trkpt lat="44.57893" lon="0.87419">
        <ele>136</ele>
        <time>2012-01-30T14:11:19Z</time>
      </trkpt>
      <trkpt lat="44.57892" lon="0.87419">
        <ele>136</ele>
        <time>2012-01-30T14:11:20Z</time>
      </trkpt>
      <trkpt lat="44.5789" lon="0.8742">
        <ele>137</ele>
        <time>2012-01-30T14:11:21Z</time>
      </trkpt>
      <trkpt lat="44.57889" lon="0.8742">
        <ele>138</ele>
        <time>2012-01-30T14:11:22Z</time>
      </trkpt>
      <trkpt lat="44.57887" lon="0.87422">
        <ele>140</ele>
        <time>2012-01-30T14:11:24Z</time>
      </trkpt>
      <trkpt lat="44.57885" lon="0.87423">
        <ele>141</ele>
        <time>2012-01-30T14:11:25Z</time>
      </trkpt>
      <trkpt lat="44.57885" lon="0.87424">
        <ele>146</ele>
        <time>2012-01-30T14:11:29Z</time>
      </trkpt>
      <trkpt lat="44.57885" lon="0.87423">
        <ele>150</ele>
        <time>2012-01-30T14:11:33Z</time>
      </trkpt>
      <trkpt lat="44.57883" lon="0.87422">
        <ele>151</ele>
        <time>2012-01-30T14:11:34Z</time>
      </trkpt>
      <trkpt lat="44.57883" lon="0.8742">
        <ele>153</ele>
        <time>2012-01-30T14:11:37Z</time>
      </trkpt>
      <trkpt lat="44.57882" lon="0.8742">
        <ele>153</ele>
        <time>2012-01-30T14:11:38Z</time>
      </trkpt>
      <trkpt lat="44.5788" lon="0.87419">
        <ele>153</ele>
        <time>2012-01-30T14:11:40Z</time>
      </trkpt>
      <trkpt lat="44.57878" lon="0.87418">
        <ele>154</ele>
        <time>2012-01-30T14:11:42Z</time>
      </trkpt>
      <trkpt lat="44.57877" lon="0.87418">
        <ele>155</ele>
        <time>2012-01-30T14:11:44Z</time>
      </trkpt>
      <trkpt lat="44.57874" lon="0.8742">
        <ele>156</ele>
        <time>2012-01-30T14:11:48Z</time>
      </trkpt>
      <trkpt lat="44.57872" lon="0.87421">
        <ele>157</ele>
        <time>2012-01-30T14:11:49Z</time>
      </trkpt>
      <trkpt lat="44.5787" lon="0.87422">
        <ele>157</ele>
        <time>2012-01-30T14:11:50Z</time>
      </trkpt>
      <trkpt lat="44.57869" lon="0.87422">
        <ele>158</ele>
        <time>2012-01-30T14:11:51Z</time>
      </trkpt>
      <trkpt lat="44.57867" lon="0.87423">
        <ele>159</ele>
        <time>2012-01-30T14:11:52Z</time>
      </trkpt>
      <trkpt lat="44.57866" lon="0.87423">
        <ele>160</ele>
        <time>2012-01-30T14:11:53Z</time>
      </trkpt>
      <trkpt lat="44.57864" lon="0.87423">
        <ele>163</ele>
        <time>2012-01-30T14:11:57Z</time>
      </trkpt>
      <trkpt lat="44.57863" lon="0.87423">
        <ele>164</ele>
        <time>2012-01-30T14:11:58Z</time>
      </trkpt>
      <trkpt lat="44.57862" lon="0.87423">
        <ele>164</ele>
        <time>2012-01-30T14:12:01Z</time>
      </trkpt>
      <trkpt lat="44.57861" lon="0.87423">
        <ele>164</ele>
        <time>2012-01-30T14:12:02Z</time>
      </trkpt>
      <trkpt lat="44.57862" lon="0.87422">
        <ele>164</ele>
        <time>2012-01-30T14:12:04Z</time>
      </trkpt>
      <trkpt lat="44.57863" lon="0.87421">
        <ele>164</ele>
        <time>2012-01-30T14:12:06Z</time>
      </trkpt>
      <trkpt lat="44.57865" lon="0.8742">
        <ele>164</ele>
        <time>2012-01-30T14:12:11Z</time>
      </trkpt>
      <trkpt lat="44.57864" lon="0.8742">
        <ele>162</ele>
        <time>2012-01-30T14:12:15Z</time>
      </trkpt>
      <trkpt lat="44.57862" lon="0.8742">
        <ele>162</ele>
        <time>2012-01-30T14:12:16Z</time>
      </trkpt>
      <trkpt lat="44.57861" lon="0.87418">
        <ele>162</ele>
        <time>2012-01-30T14:12:18Z</time>
      </trkpt>
      <trkpt lat="44.57859" lon="0.87417">
        <ele>162</ele>
        <time>2012-01-30T14:12:20Z</time>
      </trkpt>
      <trkpt lat="44.57858" lon="0.87415">
        <ele>162</ele>
        <time>2012-01-30T14:12:22Z</time>
      </trkpt>
      <trkpt lat="44.57856" lon="0.87414">
        <ele>162</ele>
        <time>2012-01-30T14:12:24Z</time>
      </trkpt>
      <trkpt lat="44.57855" lon="0.87414">
        <ele>161</ele>
        <time>2012-01-30T14:12:25Z</time>
      </trkpt>
      <trkpt lat="44.57853" lon="0.87413">
        <ele>160</ele>
        <time>2012-01-30T14:12:26Z</time>
      </trkpt>
      <trkpt lat="44.57852" lon="0.87412">
        <ele>160</ele>
        <time>2012-01-30T14:12:27Z</time>
      </trkpt>
      <trkpt lat="44.57851" lon="0.87413">
        <ele>159</ele>
        <time>2012-01-30T14:12:28Z</time>
      </trkpt>
      <trkpt lat="44.57849" lon="0.87412">
        <ele>158</ele>
        <time>2012-01-30T14:12:29Z</time>
      </trkpt>
      <trkpt lat="44.57847" lon="0.87412">
        <ele>158</ele>
        <time>2012-01-30T14:12:30Z</time>
      </trkpt>
      <trkpt lat="44.57846" lon="0.87412">
        <ele>158</ele>
        <time>2012-01-30T14:12:31Z</time>
      </trkpt>
      <trkpt lat="44.57845" lon="0.87412">
        <ele>158</ele>
        <time>2012-01-30T14:12:32Z</time>
      </trkpt>
      <trkpt lat="44.57843" lon="0.87411">
        <ele>158</ele>
        <time>2012-01-30T14:12:33Z</time>
      </trkpt>
      <trkpt lat="44.57841" lon="0.8741">
        <ele>158</ele>
        <time>2012-01-30T14:12:35Z</time>
      </trkpt>
      <trkpt lat="44.5784" lon="0.87409">
        <ele>158</ele>
        <time>2012-01-30T14:12:36Z</time>
      </trkpt>
      <trkpt lat="44.57838" lon="0.87409">
        <ele>158</ele>
        <time>2012-01-30T14:12:37Z</time>
      </trkpt>
      <trkpt lat="44.57836" lon="0.87408">
        <ele>158</ele>
        <time>2012-01-30T14:12:41Z</time>
      </trkpt>
      <trkpt lat="44.57834" lon="0.87407">
        <ele>158</ele>
        <time>2012-01-30T14:12:42Z</time>
      </trkpt>
      <trkpt lat="44.57832" lon="0.87407">
        <ele>158</ele>
        <time>2012-01-30T14:12:43Z</time>
      </trkpt>
      <trkpt lat="44.5783" lon="0.87406">
        <ele>158</ele>
        <time>2012-01-30T14:12:44Z</time>
      </trkpt>
      <trkpt lat="44.57828" lon="0.87406">
        <ele>158</ele>
        <time>2012-01-30T14:12:45Z</time>
      </trkpt>
      <trkpt lat="44.57827" lon="0.87407">
        <ele>158</ele>
        <time>2012-01-30T14:12:55Z</time>
      </trkpt>
      <trkpt lat="44.57824" lon="0.87407">
        <ele>158</ele>
        <time>2012-01-30T14:12:57Z</time>
      </trkpt>
      <trkpt lat="44.57822" lon="0.87406">
        <ele>158</ele>
        <time>2012-01-30T14:12:58Z</time>
      </trkpt>
      <trkpt lat="44.5782" lon="0.87407">
        <ele>158</ele>
        <time>2012-01-30T14:13:08Z</time>
      </trkpt>
      <trkpt lat="44.5782" lon="0.87409">
        <ele>158</ele>
        <time>2012-01-30T14:13:12Z</time>
      </trkpt>
      <trkpt lat="44.57818" lon="0.87407">
        <ele>159</ele>
        <time>2012-01-30T14:13:14Z</time>
      </trkpt>
      <trkpt lat="44.57817" lon="0.87407">
        <ele>159</ele>
        <time>2012-01-30T14:13:15Z</time>
      </trkpt>
      <trkpt lat="44.57815" lon="0.87406">
        <ele>159</ele>
        <time>2012-01-30T14:13:16Z</time>
      </trkpt>
      <trkpt lat="44.57814" lon="0.87405">
        <ele>159</ele>
        <time>2012-01-30T14:13:18Z</time>
      </trkpt>
      <trkpt lat="44.57811" lon="0.87403">
        <ele>159</ele>
        <time>2012-01-30T14:13:20Z</time>
      </trkpt>
      <trkpt lat="44.5781" lon="0.87402">
        <ele>159</ele>
        <time>2012-01-30T14:13:21Z</time>
      </trkpt>
      <trkpt lat="44.57809" lon="0.874">
        <ele>158</ele>
        <time>2012-01-30T14:13:23Z</time>
      </trkpt>
      <trkpt lat="44.57808" lon="0.874">
        <ele>155</ele>
        <time>2012-01-30T14:13:26Z</time>
      </trkpt>
      <trkpt lat="44.57807" lon="0.87398">
        <ele>150</ele>
        <time>2012-01-30T14:13:31Z</time>
      </trkpt>
      <trkpt lat="44.57809" lon="0.87399">
        <ele>149</ele>
        <time>2012-01-30T14:13:32Z</time>
      </trkpt>
      <trkpt lat="44.57811" lon="0.87401">
        <ele>149</ele>
        <time>2012-01-30T14:13:33Z</time>
      </trkpt>
      <trkpt lat="44.57811" lon="0.87399">
        <ele>149</ele>
        <time>2012-01-30T14:13:34Z</time>
      </trkpt>
      <trkpt lat="44.57813" lon="0.87399">
        <ele>149</ele>
        <time>2012-01-30T14:13:36Z</time>
      </trkpt>
      <trkpt lat="44.57814" lon="0.874">
        <ele>149</ele>
        <time>2012-01-30T14:13:37Z</time>
      </trkpt>
      <trkpt lat="44.57815" lon="0.87401">
        <ele>149</ele>
        <time>2012-01-30T14:13:38Z</time>
      </trkpt>
      <trkpt lat="44.57816" lon="0.87401">
        <ele>158</ele>
        <time>2012-01-30T14:13:47Z</time>
      </trkpt>
      <trkpt lat="44.57818" lon="0.87402">
        <ele>160</ele>
        <time>2012-01-30T14:13:50Z</time>
      </trkpt>
      <trkpt lat="44.57817" lon="0.87402">
        <ele>160</ele>
        <time>2012-01-30T14:13:57Z</time>
      </trkpt>
      <trkpt lat="44.57816" lon="0.87401">
        <ele>160</ele>
        <time>2012-01-30T14:13:59Z</time>
      </trkpt>
      <trkpt lat="44.57814" lon="0.874">
        <ele>160</ele>
        <time>2012-01-30T14:14:02Z</time>
      </trkpt>
      <trkpt lat="44.57812" lon="0.87401">
        <ele>160</ele>
        <time>2012-01-30T14:14:05Z</time>
      </trkpt>
      <trkpt lat="44.57811" lon="0.87401">
        <ele>160</ele>
        <time>2012-01-30T14:14:07Z</time>
      </trkpt>
      <trkpt lat="44.57809" lon="0.87401">
        <ele>160</ele>
        <time>2012-01-30T14:14:10Z</time>
      </trkpt>
      <trkpt lat="44.57807" lon="0.87401">
        <ele>160</ele>
        <time>2012-01-30T14:14:12Z</time>
      </trkpt>
      <trkpt lat="44.57806" lon="0.87401">
        <ele>160</ele>
        <time>2012-01-30T14:14:14Z</time>
      </trkpt>
      <trkpt lat="44.57805" lon="0.874">
        <ele>160</ele>
        <time>2012-01-30T14:14:19Z</time>
      </trkpt>
      <trkpt lat="44.57803" lon="0.87399">
        <ele>160</ele>
        <time>2012-01-30T14:14:22Z</time>
      </trkpt>
      <trkpt lat="44.57801" lon="0.87398">
        <ele>160</ele>
        <time>2012-01-30T14:14:24Z</time>
      </trkpt>
      <trkpt lat="44.578" lon="0.87398">
        <ele>160</ele>
        <time>2012-01-30T14:14:26Z</time>
      </trkpt>
      <trkpt lat="44.57798" lon="0.87398">
        <ele>160</ele>
        <time>2012-01-30T14:14:28Z</time>
      </trkpt>
      <trkpt lat="44.57797" lon="0.87398">
        <ele>160</ele>
        <time>2012-01-30T14:14:29Z</time>
      </trkpt>
      <trkpt lat="44.57795" lon="0.87398">
        <ele>160</ele>
        <time>2012-01-30T14:14:30Z</time>
      </trkpt>
      <trkpt lat="44.57794" lon="0.87398">
        <ele>160</ele>
        <time>2012-01-30T14:14:32Z</time>
      </trkpt>
      <trkpt lat="44.57792" lon="0.87397">
        <ele>160</ele>
        <time>2012-01-30T14:14:34Z</time>
      </trkpt>
      <trkpt lat="44.5779" lon="0.87396">
        <ele>160</ele>
        <time>2012-01-30T14:14:37Z</time>
      </trkpt>
      <trkpt lat="44.57789" lon="0.87396">
        <ele>160</ele>
        <time>2012-01-30T14:14:38Z</time>
      </trkpt>
      <trkpt lat="44.57787" lon="0.87396">
        <ele>160</ele>
        <time>2012-01-30T14:14:40Z</time>
      </trkpt>
      <trkpt lat="44.57786" lon="0.87397">
        <ele>160</ele>
        <time>2012-01-30T14:14:42Z</time>
      </trkpt>
      <trkpt lat="44.57785" lon="0.87395">
        <ele>160</ele>
        <time>2012-01-30T14:14:46Z</time>
      </trkpt>
      <trkpt lat="44.57784" lon="0.87393">
        <ele>160</ele>
        <time>2012-01-30T14:14:49Z</time>
      </trkpt>
      <trkpt lat="44.57782" lon="0.87392">
        <ele>160</ele>
        <time>2012-01-30T14:14:54Z</time>
      </trkpt>
      <trkpt lat="44.5778" lon="0.87392">
        <ele>160</ele>
        <time>2012-01-30T14:14:55Z</time>
      </trkpt>
      <trkpt lat="44.57779" lon="0.87392">
        <ele>160</ele>
        <time>2012-01-30T14:15:00Z</time>
      </trkpt>
      <trkpt lat="44.57777" lon="0.87392">
        <ele>160</ele>
        <time>2012-01-30T14:15:01Z</time>
      </trkpt>
      <trkpt lat="44.57776" lon="0.87392">
        <ele>160</ele>
        <time>2012-01-30T14:15:03Z</time>
      </trkpt>
      <trkpt lat="44.57774" lon="0.87393">
        <ele>160</ele>
        <time>2012-01-30T14:15:04Z</time>
      </trkpt>
      <trkpt lat="44.57772" lon="0.87392">
        <ele>160</ele>
        <time>2012-01-30T14:15:05Z</time>
      </trkpt>
      <trkpt lat="44.57771" lon="0.87391">
        <ele>160</ele>
        <time>2012-01-30T14:15:06Z</time>
      </trkpt>
      <trkpt lat="44.5777" lon="0.8739">
        <ele>161</ele>
        <time>2012-01-30T14:15:07Z</time>
      </trkpt>
      <trkpt lat="44.57768" lon="0.87389">
        <ele>163</ele>
        <time>2012-01-30T14:15:09Z</time>
      </trkpt>
      <trkpt lat="44.57767" lon="0.87388">
        <ele>165</ele>
        <time>2012-01-30T14:15:11Z</time>
      </trkpt>
      <trkpt lat="44.57766" lon="0.87388">
        <ele>165</ele>
        <time>2012-01-30T14:15:13Z</time>
      </trkpt>
      <trkpt lat="44.57764" lon="0.87388">
        <ele>166</ele>
        <time>2012-01-30T14:15:21Z</time>
      </trkpt>
      <trkpt lat="44.57763" lon="0.87388">
        <ele>166</ele>
        <time>2012-01-30T14:15:23Z</time>
      </trkpt>
      <trkpt lat="44.57762" lon="0.87388">
        <ele>166</ele>
        <time>2012-01-30T14:15:25Z</time>
      </trkpt>
      <trkpt lat="44.57761" lon="0.87388">
        <ele>166</ele>
        <time>2012-01-30T14:15:27Z</time>
      </trkpt>
      <trkpt lat="44.57759" lon="0.87388">
        <ele>166</ele>
        <time>2012-01-30T14:15:29Z</time>
      </trkpt>
      <trkpt lat="44.57758" lon="0.87387">
        <ele>166</ele>
        <time>2012-01-30T14:15:34Z</time>
      </trkpt>
      <trkpt lat="44.57757" lon="0.87387">
        <ele>166</ele>
        <time>2012-01-30T14:15:36Z</time>
      </trkpt>
      <trkpt lat="44.57756" lon="0.87389">
        <ele>166</ele>
        <time>2012-01-30T14:15:40Z</time>
      </trkpt>
      <trkpt lat="44.57758" lon="0.87387">
        <ele>166</ele>
        <time>2012-01-30T14:15:43Z</time>
      </trkpt>
      <trkpt lat="44.57758" lon="0.87386">
        <ele>166</ele>
        <time>2012-01-30T14:15:45Z</time>
      </trkpt>
      <trkpt lat="44.57758" lon="0.87384">
        <ele>166</ele>
        <time>2012-01-30T14:15:49Z</time>
      </trkpt>
      <trkpt lat="44.57756" lon="0.87385">
        <ele>168</ele>
        <time>2012-01-30T14:16:00Z</time>
      </trkpt>
      <trkpt lat="44.57755" lon="0.87385">
        <ele>168</ele>
        <time>2012-01-30T14:16:01Z</time>
      </trkpt>
      <trkpt lat="44.57753" lon="0.87385">
        <ele>168</ele>
        <time>2012-01-30T14:16:02Z</time>
      </trkpt>
      <trkpt lat="44.57751" lon="0.87384">
        <ele>168</ele>
        <time>2012-01-30T14:16:03Z</time>
      </trkpt>
      <trkpt lat="44.57749" lon="0.87384">
        <ele>168</ele>
        <time>2012-01-30T14:16:04Z</time>
      </trkpt>
      <trkpt lat="44.57748" lon="0.87382">
        <ele>169</ele>
        <time>2012-01-30T14:16:06Z</time>
      </trkpt>
      <trkpt lat="44.57746" lon="0.8738">
        <ele>169</ele>
        <time>2012-01-30T14:16:08Z</time>
      </trkpt>
      <trkpt lat="44.57744" lon="0.87379">
        <ele>169</ele>
        <time>2012-01-30T14:16:09Z</time>
      </trkpt>
      <trkpt lat="44.57742" lon="0.87377">
        <ele>169</ele>
        <time>2012-01-30T14:16:11Z</time>
      </trkpt>
      <trkpt lat="44.57742" lon="0.87375">
        <ele>169</ele>
        <time>2012-01-30T14:16:12Z</time>
      </trkpt>
      <trkpt lat="44.57739" lon="0.87373">
        <ele>169</ele>
        <time>2012-01-30T14:16:14Z</time>
      </trkpt>
      <trkpt lat="44.57738" lon="0.87371">
        <ele>169</ele>
        <time>2012-01-30T14:16:15Z</time>
      </trkpt>
      <trkpt lat="44.57736" lon="0.87369">
        <ele>169</ele>
        <time>2012-01-30T14:16:17Z</time>
      </trkpt>
      <trkpt lat="44.57735" lon="0.87367">
        <ele>169</ele>
        <time>2012-01-30T14:16:18Z</time>
      </trkpt>
      <trkpt lat="44.57734" lon="0.87365">
        <ele>169</ele>
        <time>2012-01-30T14:16:20Z</time>
      </trkpt>
      <trkpt lat="44.57732" lon="0.87362">
        <ele>169</ele>
        <time>2012-01-30T14:16:22Z</time>
      </trkpt>
      <trkpt lat="44.57731" lon="0.87361">
        <ele>169</ele>
        <time>2012-01-30T14:16:23Z</time>
      </trkpt>
      <trkpt lat="44.57729" lon="0.87359">
        <ele>169</ele>
        <time>2012-01-30T14:16:24Z</time>
      </trkpt>
      <trkpt lat="44.57727" lon="0.87358">
        <ele>169</ele>
        <time>2012-01-30T14:16:25Z</time>
      </trkpt>
      <trkpt lat="44.57725" lon="0.87354">
        <ele>169</ele>
        <time>2012-01-30T14:16:27Z</time>
      </trkpt>
      <trkpt lat="44.57724" lon="0.87353">
        <ele>169</ele>
        <time>2012-01-30T14:16:28Z</time>
      </trkpt>
      <trkpt lat="44.57723" lon="0.87351">
        <ele>169</ele>
        <time>2012-01-30T14:16:29Z</time>
      </trkpt>
      <trkpt lat="44.57722" lon="0.8735">
        <ele>169</ele>
        <time>2012-01-30T14:16:30Z</time>
      </trkpt>
      <trkpt lat="44.57721" lon="0.87348">
        <ele>169</ele>
        <time>2012-01-30T14:16:31Z</time>
      </trkpt>
      <trkpt lat="44.5772" lon="0.87347">
        <ele>169</ele>
        <time>2012-01-30T14:16:32Z</time>
      </trkpt>
      <trkpt lat="44.57718" lon="0.87345">
        <ele>169</ele>
        <time>2012-01-30T14:16:33Z</time>
      </trkpt>
      <trkpt lat="44.57716" lon="0.87344">
        <ele>169</ele>
        <time>2012-01-30T14:16:34Z</time>
      </trkpt>
      <trkpt lat="44.57714" lon="0.87342">
        <ele>169</ele>
        <time>2012-01-30T14:16:35Z</time>
      </trkpt>
      <trkpt lat="44.57713" lon="0.8734">
        <ele>169</ele>
        <time>2012-01-30T14:16:36Z</time>
      </trkpt>
      <trkpt lat="44.57712" lon="0.87339">
        <ele>169</ele>
        <time>2012-01-30T14:16:37Z</time>
      </trkpt>
      <trkpt lat="44.57711" lon="0.87337">
        <ele>169</ele>
        <time>2012-01-30T14:16:38Z</time>
      </trkpt>
      <trkpt lat="44.5771" lon="0.87336">
        <ele>169</ele>
        <time>2012-01-30T14:16:39Z</time>
      </trkpt>
      <trkpt lat="44.57709" lon="0.87334">
        <ele>169</ele>
        <time>2012-01-30T14:16:40Z</time>
      </trkpt>
      <trkpt lat="44.57707" lon="0.87331">
        <ele>169</ele>
        <time>2012-01-30T14:16:42Z</time>
      </trkpt>
      <trkpt lat="44.57706" lon="0.87329">
        <ele>169</ele>
        <time>2012-01-30T14:16:43Z</time>
      </trkpt>
      <trkpt lat="44.57705" lon="0.87328">
        <ele>169</ele>
        <time>2012-01-30T14:16:44Z</time>
      </trkpt>
      <trkpt lat="44.57703" lon="0.87327">
        <ele>169</ele>
        <time>2012-01-30T14:16:45Z</time>
      </trkpt>
      <trkpt lat="44.57702" lon="0.87325">
        <ele>169</ele>
        <time>2012-01-30T14:16:46Z</time>
      </trkpt>
      <trkpt lat="44.577" lon="0.87323">
        <ele>169</ele>
        <time>2012-01-30T14:16:47Z</time>
      </trkpt>
      <trkpt lat="44.57699" lon="0.87322">
        <ele>169</ele>
        <time>2012-01-30T14:16:48Z</time>
      </trkpt>
      <trkpt lat="44.57697" lon="0.8732">
        <ele>169</ele>
        <time>2012-01-30T14:16:50Z</time>
      </trkpt>
      <trkpt lat="44.57696" lon="0.87318">
        <ele>169</ele>
        <time>2012-01-30T14:16:51Z</time>
      </trkpt>
      <trkpt lat="44.57694" lon="0.87318">
        <ele>169</ele>
        <time>2012-01-30T14:16:52Z</time>
      </trkpt>
      <trkpt lat="44.57693" lon="0.87317">
        <ele>169</ele>
        <time>2012-01-30T14:16:53Z</time>
      </trkpt>
      <trkpt lat="44.57691" lon="0.87315">
        <ele>170</ele>
        <time>2012-01-30T14:16:54Z</time>
      </trkpt>
      <trkpt lat="44.57689" lon="0.87313">
        <ele>171</ele>
        <time>2012-01-30T14:16:55Z</time>
      </trkpt>
      <trkpt lat="44.57687" lon="0.87313">
        <ele>171</ele>
        <time>2012-01-30T14:16:56Z</time>
      </trkpt>
      <trkpt lat="44.57686" lon="0.87312">
        <ele>171</ele>
        <time>2012-01-30T14:16:57Z</time>
      </trkpt>
      <trkpt lat="44.57684" lon="0.87312">
        <ele>172</ele>
        <time>2012-01-30T14:16:58Z</time>
      </trkpt>
      <trkpt lat="44.57681" lon="0.87312">
        <ele>172</ele>
        <time>2012-01-30T14:16:59Z</time>
      </trkpt>
      <trkpt lat="44.57679" lon="0.8731">
        <ele>172</ele>
        <time>2012-01-30T14:17:00Z</time>
      </trkpt>
      <trkpt lat="44.57676" lon="0.87309">
        <ele>172</ele>
        <time>2012-01-30T14:17:01Z</time>
      </trkpt>
      <trkpt lat="44.57674" lon="0.87308">
        <ele>172</ele>
        <time>2012-01-30T14:17:02Z</time>
      </trkpt>
      <trkpt lat="44.57672" lon="0.87307">
        <ele>173</ele>
        <time>2012-01-30T14:17:03Z</time>
      </trkpt>
      <trkpt lat="44.5767" lon="0.87305">
        <ele>173</ele>
        <time>2012-01-30T14:17:04Z</time>
      </trkpt>
      <trkpt lat="44.57668" lon="0.87304">
        <ele>173</ele>
        <time>2012-01-30T14:17:05Z</time>
      </trkpt>
      <trkpt lat="44.57665" lon="0.87302">
        <ele>173</ele>
        <time>2012-01-30T14:17:06Z</time>
      </trkpt>
      <trkpt lat="44.57662" lon="0.873">
        <ele>173</ele>
        <time>2012-01-30T14:17:07Z</time>
      </trkpt>
      <trkpt lat="44.57659" lon="0.87299">
        <ele>173</ele>
        <time>2012-01-30T14:17:08Z</time>
      </trkpt>
      <trkpt lat="44.57655" lon="0.87297">
        <ele>173</ele>
        <time>2012-01-30T14:17:09Z</time>
      </trkpt>
      <trkpt lat="44.57652" lon="0.87295">
        <ele>173</ele>
        <time>2012-01-30T14:17:10Z</time>
      </trkpt>
      <trkpt lat="44.57649" lon="0.87293">
        <ele>173</ele>
        <time>2012-01-30T14:17:11Z</time>
      </trkpt>
      <trkpt lat="44.57645" lon="0.87291">
        <ele>173</ele>
        <time>2012-01-30T14:17:12Z</time>
      </trkpt>
      <trkpt lat="44.57642" lon="0.87288">
        <ele>173</ele>
        <time>2012-01-30T14:17:13Z</time>
      </trkpt>
      <trkpt lat="44.57639" lon="0.87286">
        <ele>173</ele>
        <time>2012-01-30T14:17:14Z</time>
      </trkpt>
      <trkpt lat="44.57636" lon="0.87284">
        <ele>173</ele>
        <time>2012-01-30T14:17:15Z</time>
      </trkpt>
      <trkpt lat="44.57633" lon="0.87283">
        <ele>173</ele>
        <time>2012-01-30T14:17:16Z</time>
      </trkpt>
      <trkpt lat="44.5763" lon="0.8728">
        <ele>173</ele>
        <time>2012-01-30T14:17:17Z</time>
      </trkpt>
      <trkpt lat="44.57627" lon="0.87278">
        <ele>173</ele>
        <time>2012-01-30T14:17:18Z</time>
      </trkpt>
      <trkpt lat="44.57624" lon="0.87276">
        <ele>173</ele>
        <time>2012-01-30T14:17:19Z</time>
      </trkpt>
      <trkpt lat="44.57622" lon="0.87274">
        <ele>173</ele>
        <time>2012-01-30T14:17:20Z</time>
      </trkpt>
      <trkpt lat="44.57619" lon="0.87273">
        <ele>173</ele>
        <time>2012-01-30T14:17:21Z</time>
      </trkpt>
      <trkpt lat="44.57617" lon="0.87271">
        <ele>173</ele>
        <time>2012-01-30T14:17:22Z</time>
      </trkpt>
      <trkpt lat="44.57614" lon="0.8727">
        <ele>173</ele>
        <time>2012-01-30T14:17:23Z</time>
      </trkpt>
      <trkpt lat="44.57611" lon="0.87268">
        <ele>173</ele>
        <time>2012-01-30T14:17:24Z</time>
      </trkpt>
      <trkpt lat="44.57609" lon="0.87267">
        <ele>173</ele>
        <time>2012-01-30T14:17:25Z</time>
      </trkpt>
      <trkpt lat="44.57607" lon="0.87265">
        <ele>173</ele>
        <time>2012-01-30T14:17:26Z</time>
      </trkpt>
      <trkpt lat="44.57605" lon="0.87263">
        <ele>173</ele>
        <time>2012-01-30T14:17:27Z</time>
      </trkpt>
      <trkpt lat="44.57602" lon="0.87261">
        <ele>173</ele>
        <time>2012-01-30T14:17:28Z</time>
      </trkpt>
      <trkpt lat="44.57601" lon="0.8726">
        <ele>173</ele>
        <time>2012-01-30T14:17:29Z</time>
      </trkpt>
      <trkpt lat="44.576" lon="0.87257">
        <ele>173</ele>
        <time>2012-01-30T14:17:30Z</time>
      </trkpt>
      <trkpt lat="44.57599" lon="0.87254">
        <ele>173</ele>
        <time>2012-01-30T14:17:31Z</time>
      </trkpt>
      <trkpt lat="44.57598" lon="0.87251">
        <ele>173</ele>
        <time>2012-01-30T14:17:32Z</time>
      </trkpt>
      <trkpt lat="44.57598" lon="0.87248">
        <ele>173</ele>
        <time>2012-01-30T14:17:33Z</time>
      </trkpt>
      <trkpt lat="44.57599" lon="0.87244">
        <ele>173</ele>
        <time>2012-01-30T14:17:34Z</time>
      </trkpt>
      <trkpt lat="44.57599" lon="0.8724">
        <ele>173</ele>
        <time>2012-01-30T14:17:35Z</time>
      </trkpt>
      <trkpt lat="44.576" lon="0.87237">
        <ele>173</ele>
        <time>2012-01-30T14:17:36Z</time>
      </trkpt>
      <trkpt lat="44.57601" lon="0.87234">
        <ele>173</ele>
        <time>2012-01-30T14:17:37Z</time>
      </trkpt>
      <trkpt lat="44.57602" lon="0.8723">
        <ele>173</ele>
        <time>2012-01-30T14:17:38Z</time>
      </trkpt>
      <trkpt lat="44.57603" lon="0.87227">
        <ele>173</ele>
        <time>2012-01-30T14:17:39Z</time>
      </trkpt>
      <trkpt lat="44.57605" lon="0.87224">
        <ele>173</ele>
        <time>2012-01-30T14:17:40Z</time>
      </trkpt>
      <trkpt lat="44.57606" lon="0.8722">
        <ele>173</ele>
        <time>2012-01-30T14:17:41Z</time>
      </trkpt>
      <trkpt lat="44.57607" lon="0.87217">
        <ele>173</ele>
        <time>2012-01-30T14:17:42Z</time>
      </trkpt>
      <trkpt lat="44.57608" lon="0.87213">
        <ele>173</ele>
        <time>2012-01-30T14:17:43Z</time>
      </trkpt>
      <trkpt lat="44.57609" lon="0.8721">
        <ele>173</ele>
        <time>2012-01-30T14:17:44Z</time>
      </trkpt>
      <trkpt lat="44.5761" lon="0.87207">
        <ele>173</ele>
        <time>2012-01-30T14:17:45Z</time>
      </trkpt>
      <trkpt lat="44.57611" lon="0.87204">
        <ele>173</ele>
        <time>2012-01-30T14:17:46Z</time>
      </trkpt>
      <trkpt lat="44.57612" lon="0.87201">
        <ele>173</ele>
        <time>2012-01-30T14:17:47Z</time>
      </trkpt>
      <trkpt lat="44.57613" lon="0.87197">
        <ele>173</ele>
        <time>2012-01-30T14:17:48Z</time>
      </trkpt>
      <trkpt lat="44.57614" lon="0.87193">
        <ele>173</ele>
        <time>2012-01-30T14:17:49Z</time>
      </trkpt>
      <trkpt lat="44.57615" lon="0.87189">
        <ele>173</ele>
        <time>2012-01-30T14:17:50Z</time>
      </trkpt>
      <trkpt lat="44.57616" lon="0.87185">
        <ele>173</ele>
        <time>2012-01-30T14:17:51Z</time>
      </trkpt>
      <trkpt lat="44.57618" lon="0.87181">
        <ele>173</ele>
        <time>2012-01-30T14:17:52Z</time>
      </trkpt>
      <trkpt lat="44.57619" lon="0.87177">
        <ele>173</ele>
        <time>2012-01-30T14:17:53Z</time>
      </trkpt>
      <trkpt lat="44.5762" lon="0.87174">
        <ele>173</ele>
        <time>2012-01-30T14:17:54Z</time>
      </trkpt>
      <trkpt lat="44.57621" lon="0.8717">
        <ele>173</ele>
        <time>2012-01-30T14:17:55Z</time>
      </trkpt>
      <trkpt lat="44.57622" lon="0.87166">
        <ele>173</ele>
        <time>2012-01-30T14:17:56Z</time>
      </trkpt>
      <trkpt lat="44.57623" lon="0.87163">
        <ele>173</ele>
        <time>2012-01-30T14:17:57Z</time>
      </trkpt>
      <trkpt lat="44.57623" lon="0.87159">
        <ele>173</ele>
        <time>2012-01-30T14:17:58Z</time>
      </trkpt>
      <trkpt lat="44.57624" lon="0.87155">
        <ele>173</ele>
        <time>2012-01-30T14:17:59Z</time>
      </trkpt>
      <trkpt lat="44.57624" lon="0.87151">
        <ele>173</ele>
        <time>2012-01-30T14:18:00Z</time>
      </trkpt>
      <trkpt lat="44.57623" lon="0.87148">
        <ele>173</ele>
        <time>2012-01-30T14:18:01Z</time>
      </trkpt>
      <trkpt lat="44.57621" lon="0.87144">
        <ele>174</ele>
        <time>2012-01-30T14:18:02Z</time>
      </trkpt>
      <trkpt lat="44.57621" lon="0.8714">
        <ele>174</ele>
        <time>2012-01-30T14:18:03Z</time>
      </trkpt>
      <trkpt lat="44.57619" lon="0.87136">
        <ele>174</ele>
        <time>2012-01-30T14:18:04Z</time>
      </trkpt>
      <trkpt lat="44.57619" lon="0.87133">
        <ele>174</ele>
        <time>2012-01-30T14:18:05Z</time>
      </trkpt>
      <trkpt lat="44.57618" lon="0.87129">
        <ele>174</ele>
        <time>2012-01-30T14:18:06Z</time>
      </trkpt>
      <trkpt lat="44.57617" lon="0.87125">
        <ele>174</ele>
        <time>2012-01-30T14:18:07Z</time>
      </trkpt>
      <trkpt lat="44.57616" lon="0.87121">
        <ele>174</ele>
        <time>2012-01-30T14:18:08Z</time>
      </trkpt>
      <trkpt lat="44.57614" lon="0.87118">
        <ele>174</ele>
        <time>2012-01-30T14:18:09Z</time>
      </trkpt>
      <trkpt lat="44.57613" lon="0.87114">
        <ele>174</ele>
        <time>2012-01-30T14:18:10Z</time>
      </trkpt>
      <trkpt lat="44.57612" lon="0.8711">
        <ele>174</ele>
        <time>2012-01-30T14:18:11Z</time>
      </trkpt>
      <trkpt lat="44.57611" lon="0.87106">
        <ele>174</ele>
        <time>2012-01-30T14:18:12Z</time>
      </trkpt>
      <trkpt lat="44.5761" lon="0.87102">
        <ele>174</ele>
        <time>2012-01-30T14:18:13Z</time>
      </trkpt>
      <trkpt lat="44.57608" lon="0.87098">
        <ele>174</ele>
        <time>2012-01-30T14:18:14Z</time>
      </trkpt>
      <trkpt lat="44.57607" lon="0.87094">
        <ele>174</ele>
        <time>2012-01-30T14:18:15Z</time>
      </trkpt>
      <trkpt lat="44.57606" lon="0.8709">
        <ele>174</ele>
        <time>2012-01-30T14:18:16Z</time>
      </trkpt>
      <trkpt lat="44.57604" lon="0.87086">
        <ele>174</ele>
        <time>2012-01-30T14:18:17Z</time>
      </trkpt>
      <trkpt lat="44.57603" lon="0.87081">
        <ele>174</ele>
        <time>2012-01-30T14:18:18Z</time>
      </trkpt>
      <trkpt lat="44.57601" lon="0.87076">
        <ele>174</ele>
        <time>2012-01-30T14:18:19Z</time>
      </trkpt>
      <trkpt lat="44.576" lon="0.87071">
        <ele>174</ele>
        <time>2012-01-30T14:18:20Z</time>
      </trkpt>
      <trkpt lat="44.57598" lon="0.87065">
        <ele>174</ele>
        <time>2012-01-30T14:18:21Z</time>
      </trkpt>
      <trkpt lat="44.57596" lon="0.87059">
        <ele>174</ele>
        <time>2012-01-30T14:18:22Z</time>
      </trkpt>
      <trkpt lat="44.57594" lon="0.87051">
        <ele>174</ele>
        <time>2012-01-30T14:18:23Z</time>
      </trkpt>
      <trkpt lat="44.57592" lon="0.87043">
        <ele>174</ele>
        <time>2012-01-30T14:18:24Z</time>
      </trkpt>
      <trkpt lat="44.5759" lon="0.87035">
        <ele>174</ele>
        <time>2012-01-30T14:18:25Z</time>
      </trkpt>
      <trkpt lat="44.57588" lon="0.87026">
        <ele>174</ele>
        <time>2012-01-30T14:18:26Z</time>
      </trkpt>
      <trkpt lat="44.57586" lon="0.87017">
        <ele>174</ele>
        <time>2012-01-30T14:18:27Z</time>
      </trkpt>
      <trkpt lat="44.57583" lon="0.87008">
        <ele>174</ele>
        <time>2012-01-30T14:18:28Z</time>
      </trkpt>
      <trkpt lat="44.57582" lon="0.86999">
        <ele>173</ele>
        <time>2012-01-30T14:18:29Z</time>
      </trkpt>
      <trkpt lat="44.5758" lon="0.8699">
        <ele>172</ele>
        <time>2012-01-30T14:18:30Z</time>
      </trkpt>
      <trkpt lat="44.57579" lon="0.86982">
        <ele>172</ele>
        <time>2012-01-30T14:18:31Z</time>
      </trkpt>
      <trkpt lat="44.57577" lon="0.86974">
        <ele>171</ele>
        <time>2012-01-30T14:18:32Z</time>
      </trkpt>
      <trkpt lat="44.57575" lon="0.86967">
        <ele>171</ele>
        <time>2012-01-30T14:18:33Z</time>
      </trkpt>
      <trkpt lat="44.57574" lon="0.86959">
        <ele>171</ele>
        <time>2012-01-30T14:18:34Z</time>
      </trkpt>
      <trkpt lat="44.57573" lon="0.86952">
        <ele>171</ele>
        <time>2012-01-30T14:18:35Z</time>
      </trkpt>
      <trkpt lat="44.57571" lon="0.86946">
        <ele>171</ele>
        <time>2012-01-30T14:18:36Z</time>
      </trkpt>
      <trkpt lat="44.5757" lon="0.86939">
        <ele>171</ele>
        <time>2012-01-30T14:18:37Z</time>
      </trkpt>
      <trkpt lat="44.5757" lon="0.86933">
        <ele>171</ele>
        <time>2012-01-30T14:18:38Z</time>
      </trkpt>
      <trkpt lat="44.57569" lon="0.86927">
        <ele>171</ele>
        <time>2012-01-30T14:18:39Z</time>
      </trkpt>
      <trkpt lat="44.57568" lon="0.8692">
        <ele>171</ele>
        <time>2012-01-30T14:18:40Z</time>
      </trkpt>
      <trkpt lat="44.57567" lon="0.86914">
        <ele>171</ele>
        <time>2012-01-30T14:18:41Z</time>
      </trkpt>
      <trkpt lat="44.57567" lon="0.86908">
        <ele>171</ele>
        <time>2012-01-30T14:18:42Z</time>
      </trkpt>
      <trkpt lat="44.57566" lon="0.86901">
        <ele>171</ele>
        <time>2012-01-30T14:18:43Z</time>
      </trkpt>
      <trkpt lat="44.57566" lon="0.86895">
        <ele>171</ele>
        <time>2012-01-30T14:18:44Z</time>
      </trkpt>
      <trkpt lat="44.57566" lon="0.86889">
        <ele>171</ele>
        <time>2012-01-30T14:18:45Z</time>
      </trkpt>
      <trkpt lat="44.57566" lon="0.86883">
        <ele>171</ele>
        <time>2012-01-30T14:18:46Z</time>
      </trkpt>
      <trkpt lat="44.57566" lon="0.86878">
        <ele>171</ele>
        <time>2012-01-30T14:18:47Z</time>
      </trkpt>
      <trkpt lat="44.57567" lon="0.86873">
        <ele>171</ele>
        <time>2012-01-30T14:18:48Z</time>
      </trkpt>
      <trkpt lat="44.57567" lon="0.86867">
        <ele>171</ele>
        <time>2012-01-30T14:18:49Z</time>
      </trkpt>
      <trkpt lat="44.57567" lon="0.86862">
        <ele>171</ele>
        <time>2012-01-30T14:18:50Z</time>
      </trkpt>
      <trkpt lat="44.57566" lon="0.86857">
        <ele>171</ele>
        <time>2012-01-30T14:18:51Z</time>
      </trkpt>
      <trkpt lat="44.57566" lon="0.86851">
        <ele>171</ele>
        <time>2012-01-30T14:18:52Z</time>
      </trkpt>
      <trkpt lat="44.57564" lon="0.86845">
        <ele>171</ele>
        <time>2012-01-30T14:18:53Z</time>
      </trkpt>
      <trkpt lat="44.57563" lon="0.86839">
        <ele>171</ele>
        <time>2012-01-30T14:18:54Z</time>
      </trkpt>
      <trkpt lat="44.57562" lon="0.86833">
        <ele>171</ele>
        <time>2012-01-30T14:18:55Z</time>
      </trkpt>
      <trkpt lat="44.5756" lon="0.86825">
        <ele>171</ele>
        <time>2012-01-30T14:18:56Z</time>
      </trkpt>
      <trkpt lat="44.57558" lon="0.86817">
        <ele>171</ele>
        <time>2012-01-30T14:18:57Z</time>
      </trkpt>
      <trkpt lat="44.57556" lon="0.86809">
        <ele>171</ele>
        <time>2012-01-30T14:18:58Z</time>
      </trkpt>
      <trkpt lat="44.57554" lon="0.868">
        <ele>171</ele>
        <time>2012-01-30T14:18:59Z</time>
      </trkpt>
      <trkpt lat="44.57551" lon="0.86792">
        <ele>171</ele>
        <time>2012-01-30T14:19:00Z</time>
      </trkpt>
      <trkpt lat="44.57549" lon="0.86784">
        <ele>171</ele>
        <time>2012-01-30T14:19:01Z</time>
      </trkpt>
      <trkpt lat="44.57545" lon="0.86776">
        <ele>171</ele>
        <time>2012-01-30T14:19:02Z</time>
      </trkpt>
      <trkpt lat="44.57543" lon="0.86769">
        <ele>171</ele>
        <time>2012-01-30T14:19:03Z</time>
      </trkpt>
      <trkpt lat="44.57541" lon="0.86763">
        <ele>171</ele>
        <time>2012-01-30T14:19:04Z</time>
      </trkpt>
      <trkpt lat="44.57539" lon="0.86759">
        <ele>171</ele>
        <time>2012-01-30T14:19:05Z</time>
      </trkpt>
      <trkpt lat="44.57537" lon="0.86754">
        <ele>171</ele>
        <time>2012-01-30T14:19:06Z</time>
      </trkpt>
      <trkpt lat="44.57537" lon="0.86751">
        <ele>171</ele>
        <time>2012-01-30T14:19:07Z</time>
      </trkpt>
      <trkpt lat="44.57537" lon="0.86749">
        <ele>171</ele>
        <time>2012-01-30T14:19:08Z</time>
      </trkpt>
      <trkpt lat="44.57536" lon="0.86747">
        <ele>171</ele>
        <time>2012-01-30T14:19:10Z</time>
      </trkpt>
      <trkpt lat="44.57537" lon="0.86745">
        <ele>171</ele>
        <time>2012-01-30T14:19:11Z</time>
      </trkpt>
      <trkpt lat="44.5754" lon="0.86744">
        <ele>171</ele>
        <time>2012-01-30T14:19:12Z</time>
      </trkpt>
      <trkpt lat="44.57542" lon="0.86743">
        <ele>171</ele>
        <time>2012-01-30T14:19:13Z</time>
      </trkpt>
      <trkpt lat="44.57544" lon="0.86743">
        <ele>171</ele>
        <time>2012-01-30T14:19:14Z</time>
      </trkpt>
      <trkpt lat="44.57545" lon="0.86743">
        <ele>171</ele>
        <time>2012-01-30T14:19:15Z</time>
      </trkpt>
      <trkpt lat="44.57546" lon="0.86742">
        <ele>171</ele>
        <time>2012-01-30T14:19:17Z</time>
      </trkpt>
      <trkpt lat="44.57545" lon="0.8674">
        <ele>171</ele>
        <time>2012-01-30T14:19:18Z</time>
      </trkpt>
      <trkpt lat="44.57545" lon="0.86738">
        <ele>171</ele>
        <time>2012-01-30T14:19:19Z</time>
      </trkpt>
      <trkpt lat="44.57544" lon="0.86735">
        <ele>171</ele>
        <time>2012-01-30T14:19:20Z</time>
      </trkpt>
      <trkpt lat="44.57544" lon="0.86734">
        <ele>171</ele>
        <time>2012-01-30T14:19:21Z</time>
      </trkpt>
      <trkpt lat="44.57543" lon="0.86731">
        <ele>171</ele>
        <time>2012-01-30T14:19:22Z</time>
      </trkpt>
      <trkpt lat="44.57542" lon="0.86728">
        <ele>171</ele>
        <time>2012-01-30T14:19:23Z</time>
      </trkpt>
      <trkpt lat="44.57542" lon="0.86725">
        <ele>171</ele>
        <time>2012-01-30T14:19:24Z</time>
      </trkpt>
      <trkpt lat="44.57542" lon="0.86722">
        <ele>171</ele>
        <time>2012-01-30T14:19:25Z</time>
      </trkpt>
      <trkpt lat="44.57541" lon="0.8672">
        <ele>171</ele>
        <time>2012-01-30T14:19:26Z</time>
      </trkpt>
      <trkpt lat="44.5754" lon="0.86718">
        <ele>171</ele>
        <time>2012-01-30T14:19:28Z</time>
      </trkpt>
      <trkpt lat="44.57541" lon="0.86716">
        <ele>170</ele>
        <time>2012-01-30T14:19:31Z</time>
      </trkpt>
      <trkpt lat="44.57543" lon="0.86715">
        <ele>169</ele>
        <time>2012-01-30T14:19:35Z</time>
      </trkpt>
      <trkpt lat="44.57542" lon="0.86714">
        <ele>169</ele>
        <time>2012-01-30T14:19:38Z</time>
      </trkpt>
      <trkpt lat="44.57544" lon="0.86714">
        <ele>169</ele>
        <time>2012-01-30T14:19:40Z</time>
      </trkpt>
      <trkpt lat="44.57544" lon="0.86712">
        <ele>169</ele>
        <time>2012-01-30T14:19:42Z</time>
      </trkpt>
      <trkpt lat="44.57543" lon="0.86711">
        <ele>169</ele>
        <time>2012-01-30T14:19:44Z</time>
      </trkpt>
      <trkpt lat="44.57542" lon="0.86711">
        <ele>170</ele>
        <time>2012-01-30T14:19:47Z</time>
      </trkpt>
      <trkpt lat="44.57541" lon="0.86709">
        <ele>170</ele>
        <time>2012-01-30T14:19:56Z</time>
      </trkpt>
      <trkpt lat="44.5754" lon="0.86708">
        <ele>170</ele>
        <time>2012-01-30T14:20:01Z</time>
      </trkpt>
      <trkpt lat="44.5754" lon="0.86706">
        <ele>170</ele>
        <time>2012-01-30T14:20:17Z</time>
      </trkpt>
      <trkpt lat="44.5754" lon="0.86704">
        <ele>170</ele>
        <time>2012-01-30T14:20:19Z</time>
      </trkpt>
      <trkpt lat="44.5754" lon="0.86703">
        <ele>170</ele>
        <time>2012-01-30T14:20:21Z</time>
      </trkpt>
      <trkpt lat="44.57539" lon="0.867">
        <ele>170</ele>
        <time>2012-01-30T14:20:24Z</time>
      </trkpt>
      <trkpt lat="44.57538" lon="0.86698">
        <ele>170</ele>
        <time>2012-01-30T14:20:25Z</time>
      </trkpt>
      <trkpt lat="44.57538" lon="0.86696">
        <ele>170</ele>
        <time>2012-01-30T14:20:27Z</time>
      </trkpt>
      <trkpt lat="44.57537" lon="0.86694">
        <ele>170</ele>
        <time>2012-01-30T14:20:29Z</time>
      </trkpt>
      <trkpt lat="44.57535" lon="0.86692">
        <ele>172</ele>
        <time>2012-01-30T14:20:32Z</time>
      </trkpt>
      <trkpt lat="44.57535" lon="0.86694">
        <ele>175</ele>
        <time>2012-01-30T14:20:35Z</time>
      </trkpt>
      <trkpt lat="44.57535" lon="0.86693">
        <ele>178</ele>
        <time>2012-01-30T14:20:45Z</time>
      </trkpt>
      <trkpt lat="44.57534" lon="0.86691">
        <ele>178</ele>
        <time>2012-01-30T14:20:47Z</time>
      </trkpt>
      <trkpt lat="44.57534" lon="0.86689">
        <ele>178</ele>
        <time>2012-01-30T14:20:49Z</time>
      </trkpt>
      <trkpt lat="44.57534" lon="0.86688">
        <ele>178</ele>
        <time>2012-01-30T14:20:50Z</time>
      </trkpt>
      <trkpt lat="44.57533" lon="0.86684">
        <ele>178</ele>
        <time>2012-01-30T14:20:51Z</time>
      </trkpt>
      <trkpt lat="44.57533" lon="0.86681">
        <ele>178</ele>
        <time>2012-01-30T14:20:52Z</time>
      </trkpt>
      <trkpt lat="44.57533" lon="0.86677">
        <ele>178</ele>
        <time>2012-01-30T14:20:53Z</time>
      </trkpt>
      <trkpt lat="44.57533" lon="0.86674">
        <ele>178</ele>
        <time>2012-01-30T14:20:54Z</time>
      </trkpt>
      <trkpt lat="44.57533" lon="0.86672">
        <ele>178</ele>
        <time>2012-01-30T14:20:55Z</time>
      </trkpt>
      <trkpt lat="44.57533" lon="0.86669">
        <ele>178</ele>
        <time>2012-01-30T14:20:56Z</time>
      </trkpt>
      <trkpt lat="44.57533" lon="0.86666">
        <ele>178</ele>
        <time>2012-01-30T14:20:57Z</time>
      </trkpt>
      <trkpt lat="44.57532" lon="0.86664">
        <ele>178</ele>
        <time>2012-01-30T14:20:58Z</time>
      </trkpt>
      <trkpt lat="44.57531" lon="0.86661">
        <ele>178</ele>
        <time>2012-01-30T14:20:59Z</time>
      </trkpt>
      <trkpt lat="44.57531" lon="0.86659">
        <ele>178</ele>
        <time>2012-01-30T14:21:00Z</time>
      </trkpt>
      <trkpt lat="44.5753" lon="0.86656">
        <ele>178</ele>
        <time>2012-01-30T14:21:01Z</time>
      </trkpt>
      <trkpt lat="44.5753" lon="0.86654">
        <ele>178</ele>
        <time>2012-01-30T14:21:02Z</time>
      </trkpt>
      <trkpt lat="44.5753" lon="0.86651">
        <ele>178</ele>
        <time>2012-01-30T14:21:03Z</time>
      </trkpt>
      <trkpt lat="44.5753" lon="0.86647">
        <ele>178</ele>
        <time>2012-01-30T14:21:04Z</time>
      </trkpt>
      <trkpt lat="44.5753" lon="0.86644">
        <ele>178</ele>
        <time>2012-01-30T14:21:05Z</time>
      </trkpt>
      <trkpt lat="44.5753" lon="0.8664">
        <ele>178</ele>
        <time>2012-01-30T14:21:06Z</time>
      </trkpt>
      <trkpt lat="44.57529" lon="0.86637">
        <ele>178</ele>
        <time>2012-01-30T14:21:07Z</time>
      </trkpt>
      <trkpt lat="44.5753" lon="0.86634">
        <ele>178</ele>
        <time>2012-01-30T14:21:08Z</time>
      </trkpt>
      <trkpt lat="44.5753" lon="0.86633">
        <ele>178</ele>
        <time>2012-01-30T14:21:09Z</time>
      </trkpt>
      <trkpt lat="44.57529" lon="0.86631">
        <ele>178</ele>
        <time>2012-01-30T14:21:10Z</time>
      </trkpt>
      <trkpt lat="44.57529" lon="0.86628">
        <ele>178</ele>
        <time>2012-01-30T14:21:11Z</time>
      </trkpt>
      <trkpt lat="44.57528" lon="0.86626">
        <ele>178</ele>
        <time>2012-01-30T14:21:12Z</time>
      </trkpt>
      <trkpt lat="44.57529" lon="0.86623">
        <ele>178</ele>
        <time>2012-01-30T14:21:13Z</time>
      </trkpt>
      <trkpt lat="44.57528" lon="0.8662">
        <ele>178</ele>
        <time>2012-01-30T14:21:14Z</time>
      </trkpt>
      <trkpt lat="44.57528" lon="0.86616">
        <ele>178</ele>
        <time>2012-01-30T14:21:15Z</time>
      </trkpt>
      <trkpt lat="44.57528" lon="0.86612">
        <ele>178</ele>
        <time>2012-01-30T14:21:16Z</time>
      </trkpt>
      <trkpt lat="44.57528" lon="0.86609">
        <ele>178</ele>
        <time>2012-01-30T14:21:17Z</time>
      </trkpt>
      <trkpt lat="44.57528" lon="0.86606">
        <ele>178</ele>
        <time>2012-01-30T14:21:18Z</time>
      </trkpt>
      <trkpt lat="44.57527" lon="0.86604">
        <ele>178</ele>
        <time>2012-01-30T14:21:19Z</time>
      </trkpt>
      <trkpt lat="44.57526" lon="0.86602">
        <ele>178</ele>
        <time>2012-01-30T14:21:20Z</time>
      </trkpt>
      <trkpt lat="44.57525" lon="0.866">
        <ele>178</ele>
        <time>2012-01-30T14:21:21Z</time>
      </trkpt>
      <trkpt lat="44.57523" lon="0.86598">
        <ele>178</ele>
        <time>2012-01-30T14:21:23Z</time>
      </trkpt>
      <trkpt lat="44.57523" lon="0.86596">
        <ele>178</ele>
        <time>2012-01-30T14:21:25Z</time>
      </trkpt>
      <trkpt lat="44.57523" lon="0.86594">
        <ele>178</ele>
        <time>2012-01-30T14:21:27Z</time>
      </trkpt>
      <trkpt lat="44.57523" lon="0.86592">
        <ele>178</ele>
        <time>2012-01-30T14:21:29Z</time>
      </trkpt>
      <trkpt lat="44.57523" lon="0.8659">
        <ele>179</ele>
        <time>2012-01-30T14:21:32Z</time>
      </trkpt>
      <trkpt lat="44.57523" lon="0.86588">
        <ele>181</ele>
        <time>2012-01-30T14:21:35Z</time>
      </trkpt>
      <trkpt lat="44.57523" lon="0.86586">
        <ele>182</ele>
        <time>2012-01-30T14:21:37Z</time>
      </trkpt>
      <trkpt lat="44.57521" lon="0.86584">
        <ele>182</ele>
        <time>2012-01-30T14:21:39Z</time>
      </trkpt>
      <trkpt lat="44.57521" lon="0.86582">
        <ele>182</ele>
        <time>2012-01-30T14:21:40Z</time>
      </trkpt>
      <trkpt lat="44.5752" lon="0.8658">
        <ele>182</ele>
        <time>2012-01-30T14:21:41Z</time>
      </trkpt>
      <trkpt lat="44.57519" lon="0.86578">
        <ele>182</ele>
        <time>2012-01-30T14:21:42Z</time>
      </trkpt>
      <trkpt lat="44.57518" lon="0.86576">
        <ele>182</ele>
        <time>2012-01-30T14:21:43Z</time>
      </trkpt>
      <trkpt lat="44.57518" lon="0.86573">
        <ele>182</ele>
        <time>2012-01-30T14:21:44Z</time>
      </trkpt>
      <trkpt lat="44.57518" lon="0.8657">
        <ele>182</ele>
        <time>2012-01-30T14:21:45Z</time>
      </trkpt>
      <trkpt lat="44.57517" lon="0.86568">
        <ele>182</ele>
        <time>2012-01-30T14:21:46Z</time>
      </trkpt>
      <trkpt lat="44.57517" lon="0.86565">
        <ele>181</ele>
        <time>2012-01-30T14:21:47Z</time>
      </trkpt>
      <trkpt lat="44.57518" lon="0.86563">
        <ele>181</ele>
        <time>2012-01-30T14:21:48Z</time>
      </trkpt>
      <trkpt lat="44.57518" lon="0.86561">
        <ele>181</ele>
        <time>2012-01-30T14:21:49Z</time>
      </trkpt>
      <trkpt lat="44.57518" lon="0.86558">
        <ele>181</ele>
        <time>2012-01-30T14:21:50Z</time>
      </trkpt>
      <trkpt lat="44.57518" lon="0.86555">
        <ele>181</ele>
        <time>2012-01-30T14:21:51Z</time>
      </trkpt>
      <trkpt lat="44.57518" lon="0.86551">
        <ele>181</ele>
        <time>2012-01-30T14:21:52Z</time>
      </trkpt>
      <trkpt lat="44.57518" lon="0.86548">
        <ele>181</ele>
        <time>2012-01-30T14:21:53Z</time>
      </trkpt>
      <trkpt lat="44.57519" lon="0.86545">
        <ele>181</ele>
        <time>2012-01-30T14:21:54Z</time>
      </trkpt>
      <trkpt lat="44.57519" lon="0.86542">
        <ele>181</ele>
        <time>2012-01-30T14:21:55Z</time>
      </trkpt>
      <trkpt lat="44.57519" lon="0.86539">
        <ele>181</ele>
        <time>2012-01-30T14:21:56Z</time>
      </trkpt>
      <trkpt lat="44.57518" lon="0.86536">
        <ele>181</ele>
        <time>2012-01-30T14:21:57Z</time>
      </trkpt>
      <trkpt lat="44.57518" lon="0.86533">
        <ele>181</ele>
        <time>2012-01-30T14:21:58Z</time>
      </trkpt>
      <trkpt lat="44.57518" lon="0.86531">
        <ele>182</ele>
        <time>2012-01-30T14:21:59Z</time>
      </trkpt>
      <trkpt lat="44.57519" lon="0.86528">
        <ele>182</ele>
        <time>2012-01-30T14:22:00Z</time>
      </trkpt>
      <trkpt lat="44.57519" lon="0.86524">
        <ele>182</ele>
        <time>2012-01-30T14:22:01Z</time>
      </trkpt>
      <trkpt lat="44.57519" lon="0.86522">
        <ele>182</ele>
        <time>2012-01-30T14:22:02Z</time>
      </trkpt>
      <trkpt lat="44.5752" lon="0.86519">
        <ele>183</ele>
        <time>2012-01-30T14:22:03Z</time>
      </trkpt>
      <trkpt lat="44.57521" lon="0.86515">
        <ele>183</ele>
        <time>2012-01-30T14:22:04Z</time>
      </trkpt>
      <trkpt lat="44.57521" lon="0.86512">
        <ele>184</ele>
        <time>2012-01-30T14:22:05Z</time>
      </trkpt>
      <trkpt lat="44.57522" lon="0.86509">
        <ele>185</ele>
        <time>2012-01-30T14:22:06Z</time>
      </trkpt>
      <trkpt lat="44.57523" lon="0.86506">
        <ele>185</ele>
        <time>2012-01-30T14:22:07Z</time>
      </trkpt>
      <trkpt lat="44.57523" lon="0.86503">
        <ele>185</ele>
        <time>2012-01-30T14:22:08Z</time>
      </trkpt>
      <trkpt lat="44.57523" lon="0.865">
        <ele>186</ele>
        <time>2012-01-30T14:22:09Z</time>
      </trkpt>
      <trkpt lat="44.57525" lon="0.86497">
        <ele>186</ele>
        <time>2012-01-30T14:22:10Z</time>
      </trkpt>
      <trkpt lat="44.57526" lon="0.86494">
        <ele>186</ele>
        <time>2012-01-30T14:22:11Z</time>
      </trkpt>
      <trkpt lat="44.57526" lon="0.86491">
        <ele>186</ele>
        <time>2012-01-30T14:22:12Z</time>
      </trkpt>
      <trkpt lat="44.57527" lon="0.86488">
        <ele>186</ele>
        <time>2012-01-30T14:22:13Z</time>
      </trkpt>
      <trkpt lat="44.57528" lon="0.86486">
        <ele>186</ele>
        <time>2012-01-30T14:22:14Z</time>
      </trkpt>
      <trkpt lat="44.57527" lon="0.86483">
        <ele>186</ele>
        <time>2012-01-30T14:22:15Z</time>
      </trkpt>
      <trkpt lat="44.57527" lon="0.8648">
        <ele>186</ele>
        <time>2012-01-30T14:22:16Z</time>
      </trkpt>
      <trkpt lat="44.57527" lon="0.86477">
        <ele>186</ele>
        <time>2012-01-30T14:22:17Z</time>
      </trkpt>
      <trkpt lat="44.57526" lon="0.86474">
        <ele>186</ele>
        <time>2012-01-30T14:22:18Z</time>
      </trkpt>
      <trkpt lat="44.57526" lon="0.86471">
        <ele>186</ele>
        <time>2012-01-30T14:22:19Z</time>
      </trkpt>
      <trkpt lat="44.57526" lon="0.86469">
        <ele>186</ele>
        <time>2012-01-30T14:22:20Z</time>
      </trkpt>
      <trkpt lat="44.57526" lon="0.86467">
        <ele>186</ele>
        <time>2012-01-30T14:22:21Z</time>
      </trkpt>
      <trkpt lat="44.57527" lon="0.86464">
        <ele>186</ele>
        <time>2012-01-30T14:22:22Z</time>
      </trkpt>
      <trkpt lat="44.57527" lon="0.86462">
        <ele>186</ele>
        <time>2012-01-30T14:22:23Z</time>
      </trkpt>
      <trkpt lat="44.57526" lon="0.86461">
        <ele>186</ele>
        <time>2012-01-30T14:22:24Z</time>
      </trkpt>
      <trkpt lat="44.57526" lon="0.86459">
        <ele>186</ele>
        <time>2012-01-30T14:22:26Z</time>
      </trkpt>
      <trkpt lat="44.57526" lon="0.86457">
        <ele>187</ele>
        <time>2012-01-30T14:22:28Z</time>
      </trkpt>
      <trkpt lat="44.57527" lon="0.86455">
        <ele>189</ele>
        <time>2012-01-30T14:22:30Z</time>
      </trkpt>
      <trkpt lat="44.57528" lon="0.86454">
        <ele>191</ele>
        <time>2012-01-30T14:22:32Z</time>
      </trkpt>
      <trkpt lat="44.57529" lon="0.86454">
        <ele>193</ele>
        <time>2012-01-30T14:22:34Z</time>
      </trkpt>
      <trkpt lat="44.57531" lon="0.86453">
        <ele>194</ele>
        <time>2012-01-30T14:22:36Z</time>
      </trkpt>
      <trkpt lat="44.57532" lon="0.86454">
        <ele>196</ele>
        <time>2012-01-30T14:22:40Z</time>
      </trkpt>
      <trkpt lat="44.57533" lon="0.86453">
        <ele>196</ele>
        <time>2012-01-30T14:22:42Z</time>
      </trkpt>
      <trkpt lat="44.57532" lon="0.86452">
        <ele>200</ele>
        <time>2012-01-30T14:22:56Z</time>
      </trkpt>
      <trkpt lat="44.57531" lon="0.86451">
        <ele>200</ele>
        <time>2012-01-30T14:22:57Z</time>
      </trkpt>
      <trkpt lat="44.57531" lon="0.86449">
        <ele>200</ele>
        <time>2012-01-30T14:23:01Z</time>
      </trkpt>
      <trkpt lat="44.57532" lon="0.86447">
        <ele>200</ele>
        <time>2012-01-30T14:23:03Z</time>
      </trkpt>
      <trkpt lat="44.57531" lon="0.86444">
        <ele>200</ele>
        <time>2012-01-30T14:23:04Z</time>
      </trkpt>
      <trkpt lat="44.57532" lon="0.86443">
        <ele>200</ele>
        <time>2012-01-30T14:23:05Z</time>
      </trkpt>
      <trkpt lat="44.57531" lon="0.86441">
        <ele>200</ele>
        <time>2012-01-30T14:23:06Z</time>
      </trkpt>
      <trkpt lat="44.57531" lon="0.8644">
        <ele>200</ele>
        <time>2012-01-30T14:23:07Z</time>
      </trkpt>
      <trkpt lat="44.57529" lon="0.86438">
        <ele>200</ele>
        <time>2012-01-30T14:23:08Z</time>
      </trkpt>
      <trkpt lat="44.57529" lon="0.86436">
        <ele>199</ele>
        <time>2012-01-30T14:23:09Z</time>
      </trkpt>
      <trkpt lat="44.5753" lon="0.86434">
        <ele>199</ele>
        <time>2012-01-30T14:23:10Z</time>
      </trkpt>
      <trkpt lat="44.57529" lon="0.86432">
        <ele>199</ele>
        <time>2012-01-30T14:23:11Z</time>
      </trkpt>
      <trkpt lat="44.57529" lon="0.8643">
        <ele>199</ele>
        <time>2012-01-30T14:23:12Z</time>
      </trkpt>
      <trkpt lat="44.57529" lon="0.86427">
        <ele>199</ele>
        <time>2012-01-30T14:23:13Z</time>
      </trkpt>
      <trkpt lat="44.57528" lon="0.86425">
        <ele>198</ele>
        <time>2012-01-30T14:23:14Z</time>
      </trkpt>
      <trkpt lat="44.57528" lon="0.86423">
        <ele>198</ele>
        <time>2012-01-30T14:23:16Z</time>
      </trkpt>
      <trkpt lat="44.57529" lon="0.86422">
        <ele>198</ele>
        <time>2012-01-30T14:23:18Z</time>
      </trkpt>
      <trkpt lat="44.57528" lon="0.86418">
        <ele>198</ele>
        <time>2012-01-30T14:23:21Z</time>
      </trkpt>
      <trkpt lat="44.57528" lon="0.86417">
        <ele>198</ele>
        <time>2012-01-30T14:23:22Z</time>
      </trkpt>
      <trkpt lat="44.57528" lon="0.86415">
        <ele>198</ele>
        <time>2012-01-30T14:23:24Z</time>
      </trkpt>
      <trkpt lat="44.57528" lon="0.86413">
        <ele>198</ele>
        <time>2012-01-30T14:23:26Z</time>
      </trkpt>
      <trkpt lat="44.57529" lon="0.86411">
        <ele>198</ele>
        <time>2012-01-30T14:23:29Z</time>
      </trkpt>
      <trkpt lat="44.57531" lon="0.86409">
        <ele>198</ele>
        <time>2012-01-30T14:23:32Z</time>
      </trkpt>
      <trkpt lat="44.57531" lon="0.86406">
        <ele>198</ele>
        <time>2012-01-30T14:23:34Z</time>
      </trkpt>
      <trkpt lat="44.57532" lon="0.86405">
        <ele>198</ele>
        <time>2012-01-30T14:23:35Z</time>
      </trkpt>
      <trkpt lat="44.57532" lon="0.86403">
        <ele>198</ele>
        <time>2012-01-30T14:23:36Z</time>
      </trkpt>
      <trkpt lat="44.57531" lon="0.86401">
        <ele>198</ele>
        <time>2012-01-30T14:23:38Z</time>
      </trkpt>
      <trkpt lat="44.57531" lon="0.86399">
        <ele>198</ele>
        <time>2012-01-30T14:23:40Z</time>
      </trkpt>
      <trkpt lat="44.57531" lon="0.86397">
        <ele>198</ele>
        <time>2012-01-30T14:23:42Z</time>
      </trkpt>
      <trkpt lat="44.57531" lon="0.86395">
        <ele>198</ele>
        <time>2012-01-30T14:23:43Z</time>
      </trkpt>
      <trkpt lat="44.57531" lon="0.86393">
        <ele>198</ele>
        <time>2012-01-30T14:23:45Z</time>
      </trkpt>
      <trkpt lat="44.57531" lon="0.86391">
        <ele>198</ele>
        <time>2012-01-30T14:23:47Z</time>
      </trkpt>
      <trkpt lat="44.57531" lon="0.86389">
        <ele>198</ele>
        <time>2012-01-30T14:23:49Z</time>
      </trkpt>
      <trkpt lat="44.57533" lon="0.86387">
        <ele>198</ele>
        <time>2012-01-30T14:23:51Z</time>
      </trkpt>
      <trkpt lat="44.57534" lon="0.86385">
        <ele>198</ele>
        <time>2012-01-30T14:23:53Z</time>
      </trkpt>
      <trkpt lat="44.57534" lon="0.86383">
        <ele>198</ele>
        <time>2012-01-30T14:23:55Z</time>
      </trkpt>
      <trkpt lat="44.57534" lon="0.86381">
        <ele>197</ele>
        <time>2012-01-30T14:23:57Z</time>
      </trkpt>
      <trkpt lat="44.57534" lon="0.86379">
        <ele>196</ele>
        <time>2012-01-30T14:23:59Z</time>
      </trkpt>
      <trkpt lat="44.57535" lon="0.86378">
        <ele>196</ele>
        <time>2012-01-30T14:24:01Z</time>
      </trkpt>
      <trkpt lat="44.57536" lon="0.86375">
        <ele>196</ele>
        <time>2012-01-30T14:24:03Z</time>
      </trkpt>
      <trkpt lat="44.57536" lon="0.86372">
        <ele>196</ele>
        <time>2012-01-30T14:24:05Z</time>
      </trkpt>
      <trkpt lat="44.57536" lon="0.86369">
        <ele>196</ele>
        <time>2012-01-30T14:24:07Z</time>
      </trkpt>
      <trkpt lat="44.57536" lon="0.86368">
        <ele>195</ele>
        <time>2012-01-30T14:24:08Z</time>
      </trkpt>
      <trkpt lat="44.57536" lon="0.86366">
        <ele>195</ele>
        <time>2012-01-30T14:24:09Z</time>
      </trkpt>
      <trkpt lat="44.57535" lon="0.86363">
        <ele>195</ele>
        <time>2012-01-30T14:24:11Z</time>
      </trkpt>
      <trkpt lat="44.57535" lon="0.86361">
        <ele>195</ele>
        <time>2012-01-30T14:24:12Z</time>
      </trkpt>
      <trkpt lat="44.57533" lon="0.86358">
        <ele>195</ele>
        <time>2012-01-30T14:24:14Z</time>
      </trkpt>
      <trkpt lat="44.57532" lon="0.86356">
        <ele>195</ele>
        <time>2012-01-30T14:24:16Z</time>
      </trkpt>
      <trkpt lat="44.5753" lon="0.86353">
        <ele>195</ele>
        <time>2012-01-30T14:24:18Z</time>
      </trkpt>
      <trkpt lat="44.5753" lon="0.86352">
        <ele>195</ele>
        <time>2012-01-30T14:24:19Z</time>
      </trkpt>
      <trkpt lat="44.5753" lon="0.8635">
        <ele>195</ele>
        <time>2012-01-30T14:24:20Z</time>
      </trkpt>
      <trkpt lat="44.5753" lon="0.86348">
        <ele>195</ele>
        <time>2012-01-30T14:24:21Z</time>
      </trkpt>
      <trkpt lat="44.5753" lon="0.86346">
        <ele>195</ele>
        <time>2012-01-30T14:24:22Z</time>
      </trkpt>
      <trkpt lat="44.57529" lon="0.86344">
        <ele>195</ele>
        <time>2012-01-30T14:24:24Z</time>
      </trkpt>
      <trkpt lat="44.57529" lon="0.86342">
        <ele>195</ele>
        <time>2012-01-30T14:24:26Z</time>
      </trkpt>
      <trkpt lat="44.57529" lon="0.86339">
        <ele>195</ele>
        <time>2012-01-30T14:24:27Z</time>
      </trkpt>
      <trkpt lat="44.57529" lon="0.86337">
        <ele>195</ele>
        <time>2012-01-30T14:24:29Z</time>
      </trkpt>
      <trkpt lat="44.57528" lon="0.86335">
        <ele>195</ele>
        <time>2012-01-30T14:24:31Z</time>
      </trkpt>
      <trkpt lat="44.57529" lon="0.86334">
        <ele>195</ele>
        <time>2012-01-30T14:24:38Z</time>
      </trkpt>
      <trkpt lat="44.5753" lon="0.86334">
        <ele>195</ele>
        <time>2012-01-30T14:24:40Z</time>
      </trkpt>
      <trkpt lat="44.57529" lon="0.86332">
        <ele>195</ele>
        <time>2012-01-30T14:24:45Z</time>
      </trkpt>
      <trkpt lat="44.5753" lon="0.8633">
        <ele>195</ele>
        <time>2012-01-30T14:24:46Z</time>
      </trkpt>
      <trkpt lat="44.57529" lon="0.86328">
        <ele>195</ele>
        <time>2012-01-30T14:24:48Z</time>
      </trkpt>
      <trkpt lat="44.57528" lon="0.86327">
        <ele>195</ele>
        <time>2012-01-30T14:24:49Z</time>
      </trkpt>
      <trkpt lat="44.57526" lon="0.86325">
        <ele>195</ele>
        <time>2012-01-30T14:24:51Z</time>
      </trkpt>
      <trkpt lat="44.57527" lon="0.86323">
        <ele>195</ele>
        <time>2012-01-30T14:24:53Z</time>
      </trkpt>
      <trkpt lat="44.57527" lon="0.86321">
        <ele>195</ele>
        <time>2012-01-30T14:24:55Z</time>
      </trkpt>
      <trkpt lat="44.57527" lon="0.86319">
        <ele>195</ele>
        <time>2012-01-30T14:24:57Z</time>
      </trkpt>
      <trkpt lat="44.57526" lon="0.86318">
        <ele>195</ele>
        <time>2012-01-30T14:25:01Z</time>
      </trkpt>
      <trkpt lat="44.57525" lon="0.86316">
        <ele>195</ele>
        <time>2012-01-30T14:25:09Z</time>
      </trkpt>
      <trkpt lat="44.57526" lon="0.86315">
        <ele>195</ele>
        <time>2012-01-30T14:25:12Z</time>
      </trkpt>
      <trkpt lat="44.57526" lon="0.86313">
        <ele>195</ele>
        <time>2012-01-30T14:25:14Z</time>
      </trkpt>
      <trkpt lat="44.57527" lon="0.8631">
        <ele>195</ele>
        <time>2012-01-30T14:25:16Z</time>
      </trkpt>
      <trkpt lat="44.57527" lon="0.86308">
        <ele>195</ele>
        <time>2012-01-30T14:25:17Z</time>
      </trkpt>
      <trkpt lat="44.57528" lon="0.86306">
        <ele>195</ele>
        <time>2012-01-30T14:25:18Z</time>
      </trkpt>
      <trkpt lat="44.57529" lon="0.86302">
        <ele>194</ele>
        <time>2012-01-30T14:25:19Z</time>
      </trkpt>
      <trkpt lat="44.57529" lon="0.86298">
        <ele>194</ele>
        <time>2012-01-30T14:25:20Z</time>
      </trkpt>
      <trkpt lat="44.57529" lon="0.86293">
        <ele>193</ele>
        <time>2012-01-30T14:25:21Z</time>
      </trkpt>
      <trkpt lat="44.5753" lon="0.86288">
        <ele>193</ele>
        <time>2012-01-30T14:25:22Z</time>
      </trkpt>
      <trkpt lat="44.57531" lon="0.86284">
        <ele>193</ele>
        <time>2012-01-30T14:25:23Z</time>
      </trkpt>
      <trkpt lat="44.57531" lon="0.86279">
        <ele>192</ele>
        <time>2012-01-30T14:25:24Z</time>
      </trkpt>
      <trkpt lat="44.57532" lon="0.86274">
        <ele>192</ele>
        <time>2012-01-30T14:25:25Z</time>
      </trkpt>
      <trkpt lat="44.57533" lon="0.86269">
        <ele>192</ele>
        <time>2012-01-30T14:25:26Z</time>
      </trkpt>
      <trkpt lat="44.57534" lon="0.86264">
        <ele>191</ele>
        <time>2012-01-30T14:25:27Z</time>
      </trkpt>
      <trkpt lat="44.57535" lon="0.86259">
        <ele>191</ele>
        <time>2012-01-30T14:25:28Z</time>
      </trkpt>
      <trkpt lat="44.57536" lon="0.86253">
        <ele>190</ele>
        <time>2012-01-30T14:25:29Z</time>
      </trkpt>
      <trkpt lat="44.57537" lon="0.86248">
        <ele>189</ele>
        <time>2012-01-30T14:25:30Z</time>
      </trkpt>
      <trkpt lat="44.57538" lon="0.86243">
        <ele>189</ele>
        <time>2012-01-30T14:25:31Z</time>
      </trkpt>
      <trkpt lat="44.57539" lon="0.86238">
        <ele>188</ele>
        <time>2012-01-30T14:25:32Z</time>
      </trkpt>
      <trkpt lat="44.57539" lon="0.86233">
        <ele>187</ele>
        <time>2012-01-30T14:25:33Z</time>
      </trkpt>
      <trkpt lat="44.57539" lon="0.86229">
        <ele>186</ele>
        <time>2012-01-30T14:25:34Z</time>
      </trkpt>
      <trkpt lat="44.57539" lon="0.86224">
        <ele>186</ele>
        <time>2012-01-30T14:25:35Z</time>
      </trkpt>
      <trkpt lat="44.57539" lon="0.86219">
        <ele>185</ele>
        <time>2012-01-30T14:25:36Z</time>
      </trkpt>
      <trkpt lat="44.5754" lon="0.86214">
        <ele>185</ele>
        <time>2012-01-30T14:25:37Z</time>
      </trkpt>
      <trkpt lat="44.5754" lon="0.86209">
        <ele>185</ele>
        <time>2012-01-30T14:25:38Z</time>
      </trkpt>
      <trkpt lat="44.57541" lon="0.86205">
        <ele>184</ele>
        <time>2012-01-30T14:25:39Z</time>
      </trkpt>
      <trkpt lat="44.57541" lon="0.86201">
        <ele>184</ele>
        <time>2012-01-30T14:25:40Z</time>
      </trkpt>
      <trkpt lat="44.57542" lon="0.86197">
        <ele>184</ele>
        <time>2012-01-30T14:25:41Z</time>
      </trkpt>
      <trkpt lat="44.57542" lon="0.86193">
        <ele>183</ele>
        <time>2012-01-30T14:25:42Z</time>
      </trkpt>
      <trkpt lat="44.57541" lon="0.86189">
        <ele>183</ele>
        <time>2012-01-30T14:25:43Z</time>
      </trkpt>
      <trkpt lat="44.5754" lon="0.86185">
        <ele>182</ele>
        <time>2012-01-30T14:25:44Z</time>
      </trkpt>
      <trkpt lat="44.57538" lon="0.86181">
        <ele>182</ele>
        <time>2012-01-30T14:25:45Z</time>
      </trkpt>
      <trkpt lat="44.57536" lon="0.86177">
        <ele>182</ele>
        <time>2012-01-30T14:25:46Z</time>
      </trkpt>
      <trkpt lat="44.57534" lon="0.86173">
        <ele>181</ele>
        <time>2012-01-30T14:25:47Z</time>
      </trkpt>
      <trkpt lat="44.57532" lon="0.86168">
        <ele>181</ele>
        <time>2012-01-30T14:25:48Z</time>
      </trkpt>
      <trkpt lat="44.57531" lon="0.86163">
        <ele>181</ele>
        <time>2012-01-30T14:25:49Z</time>
      </trkpt>
      <trkpt lat="44.57531" lon="0.86158">
        <ele>180</ele>
        <time>2012-01-30T14:25:50Z</time>
      </trkpt>
      <trkpt lat="44.5753" lon="0.86153">
        <ele>180</ele>
        <time>2012-01-30T14:25:51Z</time>
      </trkpt>
      <trkpt lat="44.5753" lon="0.86148">
        <ele>180</ele>
        <time>2012-01-30T14:25:52Z</time>
      </trkpt>
      <trkpt lat="44.57529" lon="0.86143">
        <ele>180</ele>
        <time>2012-01-30T14:25:53Z</time>
      </trkpt>
      <trkpt lat="44.57528" lon="0.86139">
        <ele>180</ele>
        <time>2012-01-30T14:25:54Z</time>
      </trkpt>
      <trkpt lat="44.57526" lon="0.86135">
        <ele>180</ele>
        <time>2012-01-30T14:25:55Z</time>
      </trkpt>
      <trkpt lat="44.57526" lon="0.86131">
        <ele>179</ele>
        <time>2012-01-30T14:25:56Z</time>
      </trkpt>
      <trkpt lat="44.57524" lon="0.86127">
        <ele>179</ele>
        <time>2012-01-30T14:25:57Z</time>
      </trkpt>
      <trkpt lat="44.57523" lon="0.86123">
        <ele>178</ele>
        <time>2012-01-30T14:25:58Z</time>
      </trkpt>
      <trkpt lat="44.57522" lon="0.86119">
        <ele>178</ele>
        <time>2012-01-30T14:25:59Z</time>
      </trkpt>
      <trkpt lat="44.57521" lon="0.86115">
        <ele>178</ele>
        <time>2012-01-30T14:26:00Z</time>
      </trkpt>
      <trkpt lat="44.57519" lon="0.86111">
        <ele>177</ele>
        <time>2012-01-30T14:26:01Z</time>
      </trkpt>
      <trkpt lat="44.57517" lon="0.86107">
        <ele>177</ele>
        <time>2012-01-30T14:26:02Z</time>
      </trkpt>
      <trkpt lat="44.57515" lon="0.86103">
        <ele>177</ele>
        <time>2012-01-30T14:26:03Z</time>
      </trkpt>
      <trkpt lat="44.57515" lon="0.86099">
        <ele>177</ele>
        <time>2012-01-30T14:26:04Z</time>
      </trkpt>
      <trkpt lat="44.57513" lon="0.86095">
        <ele>177</ele>
        <time>2012-01-30T14:26:05Z</time>
      </trkpt>
      <trkpt lat="44.57513" lon="0.86092">
        <ele>177</ele>
        <time>2012-01-30T14:26:06Z</time>
      </trkpt>
      <trkpt lat="44.57511" lon="0.86089">
        <ele>177</ele>
        <time>2012-01-30T14:26:07Z</time>
      </trkpt>
      <trkpt lat="44.5751" lon="0.86086">
        <ele>177</ele>
        <time>2012-01-30T14:26:08Z</time>
      </trkpt>
      <trkpt lat="44.57509" lon="0.86083">
        <ele>177</ele>
        <time>2012-01-30T14:26:09Z</time>
      </trkpt>
      <trkpt lat="44.57508" lon="0.8608">
        <ele>177</ele>
        <time>2012-01-30T14:26:10Z</time>
      </trkpt>
      <trkpt lat="44.57507" lon="0.86078">
        <ele>177</ele>
        <time>2012-01-30T14:26:11Z</time>
      </trkpt>
      <trkpt lat="44.57507" lon="0.86076">
        <ele>177</ele>
        <time>2012-01-30T14:26:12Z</time>
      </trkpt>
      <trkpt lat="44.57506" lon="0.86073">
        <ele>176</ele>
        <time>2012-01-30T14:26:13Z</time>
      </trkpt>
      <trkpt lat="44.57505" lon="0.86072">
        <ele>176</ele>
        <time>2012-01-30T14:26:14Z</time>
      </trkpt>
      <trkpt lat="44.57504" lon="0.8607">
        <ele>176</ele>
        <time>2012-01-30T14:26:16Z</time>
      </trkpt>
      <trkpt lat="44.57502" lon="0.86068">
        <ele>176</ele>
        <time>2012-01-30T14:26:17Z</time>
      </trkpt>
      <trkpt lat="44.575" lon="0.86068">
        <ele>175</ele>
        <time>2012-01-30T14:26:18Z</time>
      </trkpt>
      <trkpt lat="44.57497" lon="0.86068">
        <ele>175</ele>
        <time>2012-01-30T14:26:19Z</time>
      </trkpt>
      <trkpt lat="44.57495" lon="0.86069">
        <ele>175</ele>
        <time>2012-01-30T14:26:20Z</time>
      </trkpt>
      <trkpt lat="44.57492" lon="0.8607">
        <ele>175</ele>
        <time>2012-01-30T14:26:21Z</time>
      </trkpt>
      <trkpt lat="44.57489" lon="0.8607">
        <ele>175</ele>
        <time>2012-01-30T14:26:22Z</time>
      </trkpt>
      <trkpt lat="44.57487" lon="0.8607">
        <ele>175</ele>
        <time>2012-01-30T14:26:23Z</time>
      </trkpt>
      <trkpt lat="44.57485" lon="0.86071">
        <ele>175</ele>
        <time>2012-01-30T14:26:24Z</time>
      </trkpt>
      <trkpt lat="44.57483" lon="0.86071">
        <ele>175</ele>
        <time>2012-01-30T14:26:25Z</time>
      </trkpt>
      <trkpt lat="44.5748" lon="0.86071">
        <ele>175</ele>
        <time>2012-01-30T14:26:26Z</time>
      </trkpt>
      <trkpt lat="44.57477" lon="0.86071">
        <ele>175</ele>
        <time>2012-01-30T14:26:27Z</time>
      </trkpt>
      <trkpt lat="44.57475" lon="0.86072">
        <ele>175</ele>
        <time>2012-01-30T14:26:28Z</time>
      </trkpt>
      <trkpt lat="44.57472" lon="0.86072">
        <ele>175</ele>
        <time>2012-01-30T14:26:29Z</time>
      </trkpt>
      <trkpt lat="44.5747" lon="0.86072">
        <ele>175</ele>
        <time>2012-01-30T14:26:30Z</time>
      </trkpt>
      <trkpt lat="44.57467" lon="0.86072">
        <ele>175</ele>
        <time>2012-01-30T14:26:31Z</time>
      </trkpt>
      <trkpt lat="44.57465" lon="0.86072">
        <ele>175</ele>
        <time>2012-01-30T14:26:32Z</time>
      </trkpt>
      <trkpt lat="44.57462" lon="0.86071">
        <ele>176</ele>
        <time>2012-01-30T14:26:33Z</time>
      </trkpt>
      <trkpt lat="44.57457" lon="0.86071">
        <ele>177</ele>
        <time>2012-01-30T14:26:34Z</time>
      </trkpt>
      <trkpt lat="44.57454" lon="0.8607">
        <ele>177</ele>
        <time>2012-01-30T14:26:35Z</time>
      </trkpt>
      <trkpt lat="44.5745" lon="0.86068">
        <ele>178</ele>
        <time>2012-01-30T14:26:36Z</time>
      </trkpt>
      <trkpt lat="44.57447" lon="0.86067">
        <ele>178</ele>
        <time>2012-01-30T14:26:37Z</time>
      </trkpt>
      <trkpt lat="44.57444" lon="0.86066">
        <ele>178</ele>
        <time>2012-01-30T14:26:38Z</time>
      </trkpt>
      <trkpt lat="44.5744" lon="0.86065">
        <ele>178</ele>
        <time>2012-01-30T14:26:39Z</time>
      </trkpt>
      <trkpt lat="44.57436" lon="0.86064">
        <ele>178</ele>
        <time>2012-01-30T14:26:40Z</time>
      </trkpt>
      <trkpt lat="44.57432" lon="0.86063">
        <ele>179</ele>
        <time>2012-01-30T14:26:41Z</time>
      </trkpt>
      <trkpt lat="44.57428" lon="0.86061">
        <ele>179</ele>
        <time>2012-01-30T14:26:42Z</time>
      </trkpt>
      <trkpt lat="44.57423" lon="0.86059">
        <ele>179</ele>
        <time>2012-01-30T14:26:43Z</time>
      </trkpt>
      <trkpt lat="44.57419" lon="0.86057">
        <ele>179</ele>
        <time>2012-01-30T14:26:44Z</time>
      </trkpt>
      <trkpt lat="44.57416" lon="0.86055">
        <ele>179</ele>
        <time>2012-01-30T14:26:45Z</time>
      </trkpt>
      <trkpt lat="44.57412" lon="0.86054">
        <ele>179</ele>
        <time>2012-01-30T14:26:46Z</time>
      </trkpt>
      <trkpt lat="44.57408" lon="0.86052">
        <ele>179</ele>
        <time>2012-01-30T14:26:47Z</time>
      </trkpt>
      <trkpt lat="44.57404" lon="0.8605">
        <ele>179</ele>
        <time>2012-01-30T14:26:48Z</time>
      </trkpt>
      <trkpt lat="44.57401" lon="0.86048">
        <ele>180</ele>
        <time>2012-01-30T14:26:49Z</time>
      </trkpt>
      <trkpt lat="44.57399" lon="0.86045">
        <ele>180</ele>
        <time>2012-01-30T14:26:50Z</time>
      </trkpt>
      <trkpt lat="44.57396" lon="0.86042">
        <ele>180</ele>
        <time>2012-01-30T14:26:51Z</time>
      </trkpt>
      <trkpt lat="44.57393" lon="0.8604">
        <ele>181</ele>
        <time>2012-01-30T14:26:52Z</time>
      </trkpt>
      <trkpt lat="44.57389" lon="0.86037">
        <ele>181</ele>
        <time>2012-01-30T14:26:53Z</time>
      </trkpt>
      <trkpt lat="44.57387" lon="0.86034">
        <ele>182</ele>
        <time>2012-01-30T14:26:54Z</time>
      </trkpt>
      <trkpt lat="44.57384" lon="0.86032">
        <ele>183</ele>
        <time>2012-01-30T14:26:55Z</time>
      </trkpt>
      <trkpt lat="44.57381" lon="0.8603">
        <ele>183</ele>
        <time>2012-01-30T14:26:56Z</time>
      </trkpt>
      <trkpt lat="44.57378" lon="0.86028">
        <ele>183</ele>
        <time>2012-01-30T14:26:57Z</time>
      </trkpt>
      <trkpt lat="44.57376" lon="0.86026">
        <ele>183</ele>
        <time>2012-01-30T14:26:58Z</time>
      </trkpt>
      <trkpt lat="44.57374" lon="0.86024">
        <ele>183</ele>
        <time>2012-01-30T14:26:59Z</time>
      </trkpt>
      <trkpt lat="44.57371" lon="0.86022">
        <ele>183</ele>
        <time>2012-01-30T14:27:00Z</time>
      </trkpt>
      <trkpt lat="44.57369" lon="0.86019">
        <ele>183</ele>
        <time>2012-01-30T14:27:01Z</time>
      </trkpt>
      <trkpt lat="44.57365" lon="0.86017">
        <ele>183</ele>
        <time>2012-01-30T14:27:02Z</time>
      </trkpt>
      <trkpt lat="44.57361" lon="0.86014">
        <ele>183</ele>
        <time>2012-01-30T14:27:03Z</time>
      </trkpt>
      <trkpt lat="44.57357" lon="0.86011">
        <ele>183</ele>
        <time>2012-01-30T14:27:04Z</time>
      </trkpt>
      <trkpt lat="44.57354" lon="0.86009">
        <ele>183</ele>
        <time>2012-01-30T14:27:05Z</time>
      </trkpt>
      <trkpt lat="44.57351" lon="0.86007">
        <ele>183</ele>
        <time>2012-01-30T14:27:06Z</time>
      </trkpt>
      <trkpt lat="44.57346" lon="0.86009">
        <ele>183</ele>
        <time>2012-01-30T14:27:07Z</time>
      </trkpt>
      <trkpt lat="44.57342" lon="0.86011">
        <ele>183</ele>
        <time>2012-01-30T14:27:08Z</time>
      </trkpt>
      <trkpt lat="44.57338" lon="0.86015">
        <ele>183</ele>
        <time>2012-01-30T14:27:09Z</time>
      </trkpt>
      <trkpt lat="44.57335" lon="0.8602">
        <ele>183</ele>
        <time>2012-01-30T14:27:10Z</time>
      </trkpt>
      <trkpt lat="44.57333" lon="0.86026">
        <ele>183</ele>
        <time>2012-01-30T14:27:11Z</time>
      </trkpt>
      <trkpt lat="44.57331" lon="0.86032">
        <ele>183</ele>
        <time>2012-01-30T14:27:12Z</time>
      </trkpt>
      <trkpt lat="44.57329" lon="0.86037">
        <ele>183</ele>
        <time>2012-01-30T14:27:13Z</time>
      </trkpt>
      <trkpt lat="44.57327" lon="0.86043">
        <ele>183</ele>
        <time>2012-01-30T14:27:14Z</time>
      </trkpt>
      <trkpt lat="44.57326" lon="0.86049">
        <ele>183</ele>
        <time>2012-01-30T14:27:15Z</time>
      </trkpt>
      <trkpt lat="44.57325" lon="0.86054">
        <ele>183</ele>
        <time>2012-01-30T14:27:16Z</time>
      </trkpt>
      <trkpt lat="44.57324" lon="0.8606">
        <ele>183</ele>
        <time>2012-01-30T14:27:17Z</time>
      </trkpt>
      <trkpt lat="44.57322" lon="0.86065">
        <ele>183</ele>
        <time>2012-01-30T14:27:18Z</time>
      </trkpt>
      <trkpt lat="44.57322" lon="0.8607">
        <ele>183</ele>
        <time>2012-01-30T14:27:19Z</time>
      </trkpt>
      <trkpt lat="44.57321" lon="0.86074">
        <ele>183</ele>
        <time>2012-01-30T14:27:20Z</time>
      </trkpt>
      <trkpt lat="44.5732" lon="0.86079">
        <ele>183</ele>
        <time>2012-01-30T14:27:21Z</time>
      </trkpt>
      <trkpt lat="44.57319" lon="0.86085">
        <ele>183</ele>
        <time>2012-01-30T14:27:22Z</time>
      </trkpt>
      <trkpt lat="44.57319" lon="0.8609">
        <ele>183</ele>
        <time>2012-01-30T14:27:23Z</time>
      </trkpt>
      <trkpt lat="44.57318" lon="0.86096">
        <ele>183</ele>
        <time>2012-01-30T14:27:24Z</time>
      </trkpt>
      <trkpt lat="44.57318" lon="0.86102">
        <ele>183</ele>
        <time>2012-01-30T14:27:25Z</time>
      </trkpt>
      <trkpt lat="44.57317" lon="0.86107">
        <ele>183</ele>
        <time>2012-01-30T14:27:26Z</time>
      </trkpt>
      <trkpt lat="44.57316" lon="0.86113">
        <ele>183</ele>
        <time>2012-01-30T14:27:27Z</time>
      </trkpt>
      <trkpt lat="44.57315" lon="0.86118">
        <ele>183</ele>
        <time>2012-01-30T14:27:28Z</time>
      </trkpt>
      <trkpt lat="44.57315" lon="0.86124">
        <ele>183</ele>
        <time>2012-01-30T14:27:29Z</time>
      </trkpt>
      <trkpt lat="44.57314" lon="0.86128">
        <ele>183</ele>
        <time>2012-01-30T14:27:30Z</time>
      </trkpt>
      <trkpt lat="44.57314" lon="0.86134">
        <ele>183</ele>
        <time>2012-01-30T14:27:31Z</time>
      </trkpt>
      <trkpt lat="44.57315" lon="0.86139">
        <ele>183</ele>
        <time>2012-01-30T14:27:32Z</time>
      </trkpt>
      <trkpt lat="44.57315" lon="0.86145">
        <ele>183</ele>
        <time>2012-01-30T14:27:33Z</time>
      </trkpt>
      <trkpt lat="44.57315" lon="0.8615">
        <ele>183</ele>
        <time>2012-01-30T14:27:34Z</time>
      </trkpt>
      <trkpt lat="44.57315" lon="0.86155">
        <ele>183</ele>
        <time>2012-01-30T14:27:35Z</time>
      </trkpt>
      <trkpt lat="44.57315" lon="0.8616">
        <ele>183</ele>
        <time>2012-01-30T14:27:36Z</time>
      </trkpt>
      <trkpt lat="44.57315" lon="0.86165">
        <ele>183</ele>
        <time>2012-01-30T14:27:37Z</time>
      </trkpt>
      <trkpt lat="44.57315" lon="0.86171">
        <ele>183</ele>
        <time>2012-01-30T14:27:38Z</time>
      </trkpt>
      <trkpt lat="44.57316" lon="0.86176">
        <ele>183</ele>
        <time>2012-01-30T14:27:39Z</time>
      </trkpt>
      <trkpt lat="44.57316" lon="0.86181">
        <ele>183</ele>
        <time>2012-01-30T14:27:40Z</time>
      </trkpt>
      <trkpt lat="44.57317" lon="0.86187">
        <ele>183</ele>
        <time>2012-01-30T14:27:41Z</time>
      </trkpt>
      <trkpt lat="44.57317" lon="0.86192">
        <ele>183</ele>
        <time>2012-01-30T14:27:42Z</time>
      </trkpt>
      <trkpt lat="44.57318" lon="0.86198">
        <ele>183</ele>
        <time>2012-01-30T14:27:43Z</time>
      </trkpt>
      <trkpt lat="44.57318" lon="0.86203">
        <ele>183</ele>
        <time>2012-01-30T14:27:44Z</time>
      </trkpt>
      <trkpt lat="44.57318" lon="0.86208">
        <ele>183</ele>
        <time>2012-01-30T14:27:45Z</time>
      </trkpt>
      <trkpt lat="44.57318" lon="0.86213">
        <ele>183</ele>
        <time>2012-01-30T14:27:46Z</time>
      </trkpt>
      <trkpt lat="44.57318" lon="0.86218">
        <ele>183</ele>
        <time>2012-01-30T14:27:47Z</time>
      </trkpt>
      <trkpt lat="44.57318" lon="0.86224">
        <ele>183</ele>
        <time>2012-01-30T14:27:48Z</time>
      </trkpt>
      <trkpt lat="44.57318" lon="0.86229">
        <ele>183</ele>
        <time>2012-01-30T14:27:49Z</time>
      </trkpt>
      <trkpt lat="44.57317" lon="0.86234">
        <ele>183</ele>
        <time>2012-01-30T14:27:50Z</time>
      </trkpt>
      <trkpt lat="44.57318" lon="0.8624">
        <ele>183</ele>
        <time>2012-01-30T14:27:51Z</time>
      </trkpt>
      <trkpt lat="44.57317" lon="0.86245">
        <ele>184</ele>
        <time>2012-01-30T14:27:52Z</time>
      </trkpt>
      <trkpt lat="44.57317" lon="0.8625">
        <ele>184</ele>
        <time>2012-01-30T14:27:53Z</time>
      </trkpt>
      <trkpt lat="44.57318" lon="0.86256">
        <ele>184</ele>
        <time>2012-01-30T14:27:54Z</time>
      </trkpt>
      <trkpt lat="44.57319" lon="0.86261">
        <ele>185</ele>
        <time>2012-01-30T14:27:55Z</time>
      </trkpt>
      <trkpt lat="44.57319" lon="0.86265">
        <ele>185</ele>
        <time>2012-01-30T14:27:56Z</time>
      </trkpt>
      <trkpt lat="44.5732" lon="0.8627">
        <ele>185</ele>
        <time>2012-01-30T14:27:57Z</time>
      </trkpt>
      <trkpt lat="44.5732" lon="0.86275">
        <ele>185</ele>
        <time>2012-01-30T14:27:58Z</time>
      </trkpt>
      <trkpt lat="44.57321" lon="0.8628">
        <ele>185</ele>
        <time>2012-01-30T14:27:59Z</time>
      </trkpt>
      <trkpt lat="44.57321" lon="0.86286">
        <ele>185</ele>
        <time>2012-01-30T14:28:00Z</time>
      </trkpt>
      <trkpt lat="44.57322" lon="0.86291">
        <ele>185</ele>
        <time>2012-01-30T14:28:01Z</time>
      </trkpt>
      <trkpt lat="44.57323" lon="0.86297">
        <ele>186</ele>
        <time>2012-01-30T14:28:02Z</time>
      </trkpt>
      <trkpt lat="44.57323" lon="0.86302">
        <ele>186</ele>
        <time>2012-01-30T14:28:03Z</time>
      </trkpt>
      <trkpt lat="44.57325" lon="0.86307">
        <ele>186</ele>
        <time>2012-01-30T14:28:04Z</time>
      </trkpt>
      <trkpt lat="44.57325" lon="0.86313">
        <ele>187</ele>
        <time>2012-01-30T14:28:05Z</time>
      </trkpt>
      <trkpt lat="44.57326" lon="0.86318">
        <ele>187</ele>
        <time>2012-01-30T14:28:06Z</time>
      </trkpt>
      <trkpt lat="44.57327" lon="0.86323">
        <ele>187</ele>
        <time>2012-01-30T14:28:07Z</time>
      </trkpt>
      <trkpt lat="44.57328" lon="0.86329">
        <ele>187</ele>
        <time>2012-01-30T14:28:08Z</time>
      </trkpt>
      <trkpt lat="44.57328" lon="0.86334">
        <ele>187</ele>
        <time>2012-01-30T14:28:09Z</time>
      </trkpt>
      <trkpt lat="44.57328" lon="0.86339">
        <ele>187</ele>
        <time>2012-01-30T14:28:10Z</time>
      </trkpt>
      <trkpt lat="44.57328" lon="0.86345">
        <ele>187</ele>
        <time>2012-01-30T14:28:11Z</time>
      </trkpt>
      <trkpt lat="44.57329" lon="0.86351">
        <ele>187</ele>
        <time>2012-01-30T14:28:12Z</time>
      </trkpt>
      <trkpt lat="44.57329" lon="0.86357">
        <ele>187</ele>
        <time>2012-01-30T14:28:13Z</time>
      </trkpt>
      <trkpt lat="44.5733" lon="0.86363">
        <ele>187</ele>
        <time>2012-01-30T14:28:14Z</time>
      </trkpt>
      <trkpt lat="44.57331" lon="0.86369">
        <ele>187</ele>
        <time>2012-01-30T14:28:15Z</time>
      </trkpt>
      <trkpt lat="44.57332" lon="0.86372">
        <ele>187</ele>
        <time>2012-01-30T14:28:16Z</time>
      </trkpt>
      <trkpt lat="44.57333" lon="0.86375">
        <ele>188</ele>
        <time>2012-01-30T14:28:17Z</time>
      </trkpt>
      <trkpt lat="44.57334" lon="0.86378">
        <ele>188</ele>
        <time>2012-01-30T14:28:18Z</time>
      </trkpt>
      <trkpt lat="44.57335" lon="0.86381">
        <ele>188</ele>
        <time>2012-01-30T14:28:19Z</time>
      </trkpt>
      <trkpt lat="44.57337" lon="0.86385">
        <ele>189</ele>
        <time>2012-01-30T14:28:20Z</time>
      </trkpt>
      <trkpt lat="44.57338" lon="0.86388">
        <ele>189</ele>
        <time>2012-01-30T14:28:21Z</time>
      </trkpt>
      <trkpt lat="44.57339" lon="0.86393">
        <ele>190</ele>
        <time>2012-01-30T14:28:22Z</time>
      </trkpt>
      <trkpt lat="44.5734" lon="0.86397">
        <ele>190</ele>
        <time>2012-01-30T14:28:23Z</time>
      </trkpt>
      <trkpt lat="44.57342" lon="0.86401">
        <ele>191</ele>
        <time>2012-01-30T14:28:24Z</time>
      </trkpt>
      <trkpt lat="44.57344" lon="0.86405">
        <ele>191</ele>
        <time>2012-01-30T14:28:25Z</time>
      </trkpt>
      <trkpt lat="44.57346" lon="0.86409">
        <ele>191</ele>
        <time>2012-01-30T14:28:26Z</time>
      </trkpt>
      <trkpt lat="44.57348" lon="0.86414">
        <ele>191</ele>
        <time>2012-01-30T14:28:27Z</time>
      </trkpt>
      <trkpt lat="44.57349" lon="0.8642">
        <ele>191</ele>
        <time>2012-01-30T14:28:28Z</time>
      </trkpt>
      <trkpt lat="44.5735" lon="0.86426">
        <ele>191</ele>
        <time>2012-01-30T14:28:29Z</time>
      </trkpt>
      <trkpt lat="44.57351" lon="0.86432">
        <ele>191</ele>
        <time>2012-01-30T14:28:30Z</time>
      </trkpt>
      <trkpt lat="44.57351" lon="0.86437">
        <ele>191</ele>
        <time>2012-01-30T14:28:31Z</time>
      </trkpt>
      <trkpt lat="44.57351" lon="0.86444">
        <ele>191</ele>
        <time>2012-01-30T14:28:32Z</time>
      </trkpt>
      <trkpt lat="44.57351" lon="0.86449">
        <ele>191</ele>
        <time>2012-01-30T14:28:33Z</time>
      </trkpt>
      <trkpt lat="44.57351" lon="0.86456">
        <ele>191</ele>
        <time>2012-01-30T14:28:34Z</time>
      </trkpt>
      <trkpt lat="44.57351" lon="0.86461">
        <ele>191</ele>
        <time>2012-01-30T14:28:35Z</time>
      </trkpt>
      <trkpt lat="44.57351" lon="0.86467">
        <ele>191</ele>
        <time>2012-01-30T14:28:36Z</time>
      </trkpt>
      <trkpt lat="44.5735" lon="0.86472">
        <ele>191</ele>
        <time>2012-01-30T14:28:37Z</time>
      </trkpt>
      <trkpt lat="44.57349" lon="0.86477">
        <ele>191</ele>
        <time>2012-01-30T14:28:38Z</time>
      </trkpt>
      <trkpt lat="44.57348" lon="0.86482">
        <ele>191</ele>
        <time>2012-01-30T14:28:39Z</time>
      </trkpt>
      <trkpt lat="44.57348" lon="0.86488">
        <ele>191</ele>
        <time>2012-01-30T14:28:40Z</time>
      </trkpt>
      <trkpt lat="44.57348" lon="0.86493">
        <ele>191</ele>
        <time>2012-01-30T14:28:41Z</time>
      </trkpt>
      <trkpt lat="44.57348" lon="0.86498">
        <ele>191</ele>
        <time>2012-01-30T14:28:42Z</time>
      </trkpt>
      <trkpt lat="44.57348" lon="0.86502">
        <ele>191</ele>
        <time>2012-01-30T14:28:43Z</time>
      </trkpt>
      <trkpt lat="44.57347" lon="0.86506">
        <ele>191</ele>
        <time>2012-01-30T14:28:44Z</time>
      </trkpt>
      <trkpt lat="44.57346" lon="0.8651">
        <ele>191</ele>
        <time>2012-01-30T14:28:45Z</time>
      </trkpt>
      <trkpt lat="44.57346" lon="0.86514">
        <ele>191</ele>
        <time>2012-01-30T14:28:46Z</time>
      </trkpt>
      <trkpt lat="44.57345" lon="0.86517">
        <ele>191</ele>
        <time>2012-01-30T14:28:47Z</time>
      </trkpt>
      <trkpt lat="44.57344" lon="0.86522">
        <ele>191</ele>
        <time>2012-01-30T14:28:48Z</time>
      </trkpt>
      <trkpt lat="44.57344" lon="0.86526">
        <ele>191</ele>
        <time>2012-01-30T14:28:49Z</time>
      </trkpt>
      <trkpt lat="44.57343" lon="0.86529">
        <ele>191</ele>
        <time>2012-01-30T14:28:50Z</time>
      </trkpt>
      <trkpt lat="44.57342" lon="0.86533">
        <ele>191</ele>
        <time>2012-01-30T14:28:51Z</time>
      </trkpt>
      <trkpt lat="44.57341" lon="0.86537">
        <ele>191</ele>
        <time>2012-01-30T14:28:52Z</time>
      </trkpt>
      <trkpt lat="44.5734" lon="0.86541">
        <ele>191</ele>
        <time>2012-01-30T14:28:53Z</time>
      </trkpt>
      <trkpt lat="44.57339" lon="0.86545">
        <ele>191</ele>
        <time>2012-01-30T14:28:54Z</time>
      </trkpt>
      <trkpt lat="44.57338" lon="0.8655">
        <ele>191</ele>
        <time>2012-01-30T14:28:55Z</time>
      </trkpt>
      <trkpt lat="44.57336" lon="0.86554">
        <ele>191</ele>
        <time>2012-01-30T14:28:56Z</time>
      </trkpt>
      <trkpt lat="44.57335" lon="0.86559">
        <ele>191</ele>
        <time>2012-01-30T14:28:57Z</time>
      </trkpt>
      <trkpt lat="44.57333" lon="0.86562">
        <ele>191</ele>
        <time>2012-01-30T14:28:58Z</time>
      </trkpt>
      <trkpt lat="44.57332" lon="0.86567">
        <ele>191</ele>
        <time>2012-01-30T14:28:59Z</time>
      </trkpt>
      <trkpt lat="44.5733" lon="0.86571">
        <ele>191</ele>
        <time>2012-01-30T14:29:00Z</time>
      </trkpt>
      <trkpt lat="44.57328" lon="0.86576">
        <ele>191</ele>
        <time>2012-01-30T14:29:01Z</time>
      </trkpt>
      <trkpt lat="44.57327" lon="0.8658">
        <ele>191</ele>
        <time>2012-01-30T14:29:02Z</time>
      </trkpt>
      <trkpt lat="44.57326" lon="0.86585">
        <ele>191</ele>
        <time>2012-01-30T14:29:03Z</time>
      </trkpt>
      <trkpt lat="44.57324" lon="0.86589">
        <ele>191</ele>
        <time>2012-01-30T14:29:04Z</time>
      </trkpt>
      <trkpt lat="44.57323" lon="0.86593">
        <ele>191</ele>
        <time>2012-01-30T14:29:05Z</time>
      </trkpt>
      <trkpt lat="44.57322" lon="0.86598">
        <ele>191</ele>
        <time>2012-01-30T14:29:06Z</time>
      </trkpt>
      <trkpt lat="44.5732" lon="0.86602">
        <ele>191</ele>
        <time>2012-01-30T14:29:07Z</time>
      </trkpt>
      <trkpt lat="44.57318" lon="0.86607">
        <ele>191</ele>
        <time>2012-01-30T14:29:08Z</time>
      </trkpt>
      <trkpt lat="44.57316" lon="0.86612">
        <ele>191</ele>
        <time>2012-01-30T14:29:09Z</time>
      </trkpt>
      <trkpt lat="44.57314" lon="0.86617">
        <ele>191</ele>
        <time>2012-01-30T14:29:10Z</time>
      </trkpt>
      <trkpt lat="44.57312" lon="0.86623">
        <ele>191</ele>
        <time>2012-01-30T14:29:11Z</time>
      </trkpt>
      <trkpt lat="44.5731" lon="0.86628">
        <ele>191</ele>
        <time>2012-01-30T14:29:12Z</time>
      </trkpt>
      <trkpt lat="44.57309" lon="0.86634">
        <ele>191</ele>
        <time>2012-01-30T14:29:13Z</time>
      </trkpt>
      <trkpt lat="44.57307" lon="0.86639">
        <ele>191</ele>
        <time>2012-01-30T14:29:14Z</time>
      </trkpt>
      <trkpt lat="44.57305" lon="0.86645">
        <ele>192</ele>
        <time>2012-01-30T14:29:15Z</time>
      </trkpt>
      <trkpt lat="44.57303" lon="0.86651">
        <ele>192</ele>
        <time>2012-01-30T14:29:16Z</time>
      </trkpt>
      <trkpt lat="44.57301" lon="0.86657">
        <ele>193</ele>
        <time>2012-01-30T14:29:17Z</time>
      </trkpt>
      <trkpt lat="44.57299" lon="0.86663">
        <ele>193</ele>
        <time>2012-01-30T14:29:18Z</time>
      </trkpt>
      <trkpt lat="44.57297" lon="0.86669">
        <ele>194</ele>
        <time>2012-01-30T14:29:19Z</time>
      </trkpt>
      <trkpt lat="44.57295" lon="0.86676">
        <ele>194</ele>
        <time>2012-01-30T14:29:20Z</time>
      </trkpt>
      <trkpt lat="44.57293" lon="0.86682">
        <ele>194</ele>
        <time>2012-01-30T14:29:21Z</time>
      </trkpt>
      <trkpt lat="44.5729" lon="0.86688">
        <ele>194</ele>
        <time>2012-01-30T14:29:22Z</time>
      </trkpt>
      <trkpt lat="44.57287" lon="0.86695">
        <ele>195</ele>
        <time>2012-01-30T14:29:23Z</time>
      </trkpt>
      <trkpt lat="44.57285" lon="0.86701">
        <ele>195</ele>
        <time>2012-01-30T14:29:24Z</time>
      </trkpt>
      <trkpt lat="44.57283" lon="0.86707">
        <ele>195</ele>
        <time>2012-01-30T14:29:25Z</time>
      </trkpt>
      <trkpt lat="44.5728" lon="0.86713">
        <ele>195</ele>
        <time>2012-01-30T14:29:26Z</time>
      </trkpt>
      <trkpt lat="44.57278" lon="0.8672">
        <ele>195</ele>
        <time>2012-01-30T14:29:27Z</time>
      </trkpt>
      <trkpt lat="44.57275" lon="0.86725">
        <ele>195</ele>
        <time>2012-01-30T14:29:28Z</time>
      </trkpt>
      <trkpt lat="44.57271" lon="0.8673">
        <ele>195</ele>
        <time>2012-01-30T14:29:29Z</time>
      </trkpt>
      <trkpt lat="44.57268" lon="0.86735">
        <ele>195</ele>
        <time>2012-01-30T14:29:30Z</time>
      </trkpt>
      <trkpt lat="44.57264" lon="0.8674">
        <ele>195</ele>
        <time>2012-01-30T14:29:31Z</time>
      </trkpt>
      <trkpt lat="44.57262" lon="0.86746">
        <ele>195</ele>
        <time>2012-01-30T14:29:32Z</time>
      </trkpt>
      <trkpt lat="44.57259" lon="0.86751">
        <ele>195</ele>
        <time>2012-01-30T14:29:33Z</time>
      </trkpt>
      <trkpt lat="44.57256" lon="0.86756">
        <ele>195</ele>
        <time>2012-01-30T14:29:34Z</time>
      </trkpt>
      <trkpt lat="44.57253" lon="0.86762">
        <ele>195</ele>
        <time>2012-01-30T14:29:35Z</time>
      </trkpt>
      <trkpt lat="44.5725" lon="0.86767">
        <ele>195</ele>
        <time>2012-01-30T14:29:36Z</time>
      </trkpt>
      <trkpt lat="44.57248" lon="0.86773">
        <ele>195</ele>
        <time>2012-01-30T14:29:37Z</time>
      </trkpt>
      <trkpt lat="44.57246" lon="0.86779">
        <ele>195</ele>
        <time>2012-01-30T14:29:38Z</time>
      </trkpt>
      <trkpt lat="44.57244" lon="0.86785">
        <ele>195</ele>
        <time>2012-01-30T14:29:39Z</time>
      </trkpt>
      <trkpt lat="44.57242" lon="0.86791">
        <ele>195</ele>
        <time>2012-01-30T14:29:40Z</time>
      </trkpt>
      <trkpt lat="44.5724" lon="0.86797">
        <ele>195</ele>
        <time>2012-01-30T14:29:41Z</time>
      </trkpt>
      <trkpt lat="44.57238" lon="0.86803">
        <ele>195</ele>
        <time>2012-01-30T14:29:42Z</time>
      </trkpt>
      <trkpt lat="44.57236" lon="0.86809">
        <ele>195</ele>
        <time>2012-01-30T14:29:43Z</time>
      </trkpt>
      <trkpt lat="44.57235" lon="0.86814">
        <ele>195</ele>
        <time>2012-01-30T14:29:44Z</time>
      </trkpt>
      <trkpt lat="44.57233" lon="0.86821">
        <ele>195</ele>
        <time>2012-01-30T14:29:45Z</time>
      </trkpt>
      <trkpt lat="44.57231" lon="0.86827">
        <ele>195</ele>
        <time>2012-01-30T14:29:46Z</time>
      </trkpt>
      <trkpt lat="44.57228" lon="0.86833">
        <ele>195</ele>
        <time>2012-01-30T14:29:47Z</time>
      </trkpt>
      <trkpt lat="44.57226" lon="0.8684">
        <ele>195</ele>
        <time>2012-01-30T14:29:48Z</time>
      </trkpt>
      <trkpt lat="44.57224" lon="0.86847">
        <ele>195</ele>
        <time>2012-01-30T14:29:49Z</time>
      </trkpt>
      <trkpt lat="44.57222" lon="0.86853">
        <ele>195</ele>
        <time>2012-01-30T14:29:50Z</time>
      </trkpt>
      <trkpt lat="44.5722" lon="0.86859">
        <ele>195</ele>
        <time>2012-01-30T14:29:51Z</time>
      </trkpt>
      <trkpt lat="44.57219" lon="0.86865">
        <ele>195</ele>
        <time>2012-01-30T14:29:52Z</time>
      </trkpt>
      <trkpt lat="44.57217" lon="0.8687">
        <ele>195</ele>
        <time>2012-01-30T14:29:53Z</time>
      </trkpt>
      <trkpt lat="44.57215" lon="0.86875">
        <ele>195</ele>
        <time>2012-01-30T14:29:54Z</time>
      </trkpt>
      <trkpt lat="44.57214" lon="0.86879">
        <ele>195</ele>
        <time>2012-01-30T14:29:55Z</time>
      </trkpt>
      <trkpt lat="44.57212" lon="0.86883">
        <ele>194</ele>
        <time>2012-01-30T14:29:56Z</time>
      </trkpt>
      <trkpt lat="44.57211" lon="0.86886">
        <ele>194</ele>
        <time>2012-01-30T14:29:57Z</time>
      </trkpt>
      <trkpt lat="44.57209" lon="0.86888">
        <ele>194</ele>
        <time>2012-01-30T14:29:58Z</time>
      </trkpt>
      <trkpt lat="44.57206" lon="0.86891">
        <ele>193</ele>
        <time>2012-01-30T14:29:59Z</time>
      </trkpt>
      <trkpt lat="44.57204" lon="0.86895">
        <ele>193</ele>
        <time>2012-01-30T14:30:00Z</time>
      </trkpt>
      <trkpt lat="44.57203" lon="0.86898">
        <ele>192</ele>
        <time>2012-01-30T14:30:01Z</time>
      </trkpt>
      <trkpt lat="44.57202" lon="0.86902">
        <ele>192</ele>
        <time>2012-01-30T14:30:02Z</time>
      </trkpt>
      <trkpt lat="44.57202" lon="0.86906">
        <ele>192</ele>
        <time>2012-01-30T14:30:03Z</time>
      </trkpt>
      <trkpt lat="44.57202" lon="0.86909">
        <ele>192</ele>
        <time>2012-01-30T14:30:04Z</time>
      </trkpt>
      <trkpt lat="44.57201" lon="0.86913">
        <ele>191</ele>
        <time>2012-01-30T14:30:05Z</time>
      </trkpt>
      <trkpt lat="44.57198" lon="0.86917">
        <ele>191</ele>
        <time>2012-01-30T14:30:06Z</time>
      </trkpt>
      <trkpt lat="44.57196" lon="0.86921">
        <ele>191</ele>
        <time>2012-01-30T14:30:07Z</time>
      </trkpt>
      <trkpt lat="44.57194" lon="0.86926">
        <ele>191</ele>
        <time>2012-01-30T14:30:08Z</time>
      </trkpt>
      <trkpt lat="44.57192" lon="0.86931">
        <ele>191</ele>
        <time>2012-01-30T14:30:09Z</time>
      </trkpt>
      <trkpt lat="44.5719" lon="0.86935">
        <ele>191</ele>
        <time>2012-01-30T14:30:10Z</time>
      </trkpt>
      <trkpt lat="44.57188" lon="0.8694">
        <ele>191</ele>
        <time>2012-01-30T14:30:11Z</time>
      </trkpt>
      <trkpt lat="44.57187" lon="0.86945">
        <ele>191</ele>
        <time>2012-01-30T14:30:12Z</time>
      </trkpt>
      <trkpt lat="44.57185" lon="0.8695">
        <ele>191</ele>
        <time>2012-01-30T14:30:13Z</time>
      </trkpt>
      <trkpt lat="44.57184" lon="0.86955">
        <ele>191</ele>
        <time>2012-01-30T14:30:14Z</time>
      </trkpt>
      <trkpt lat="44.57182" lon="0.8696">
        <ele>191</ele>
        <time>2012-01-30T14:30:15Z</time>
      </trkpt>
      <trkpt lat="44.5718" lon="0.86966">
        <ele>191</ele>
        <time>2012-01-30T14:30:16Z</time>
      </trkpt>
      <trkpt lat="44.5718" lon="0.86971">
        <ele>191</ele>
        <time>2012-01-30T14:30:17Z</time>
      </trkpt>
      <trkpt lat="44.57178" lon="0.86976">
        <ele>191</ele>
        <time>2012-01-30T14:30:18Z</time>
      </trkpt>
      <trkpt lat="44.57176" lon="0.86981">
        <ele>191</ele>
        <time>2012-01-30T14:30:19Z</time>
      </trkpt>
      <trkpt lat="44.57173" lon="0.86985">
        <ele>191</ele>
        <time>2012-01-30T14:30:20Z</time>
      </trkpt>
      <trkpt lat="44.5717" lon="0.86988">
        <ele>190</ele>
        <time>2012-01-30T14:30:21Z</time>
      </trkpt>
      <trkpt lat="44.57165" lon="0.86991">
        <ele>190</ele>
        <time>2012-01-30T14:30:22Z</time>
      </trkpt>
      <trkpt lat="44.57161" lon="0.86994">
        <ele>190</ele>
        <time>2012-01-30T14:30:23Z</time>
      </trkpt>
      <trkpt lat="44.57158" lon="0.86997">
        <ele>190</ele>
        <time>2012-01-30T14:30:24Z</time>
      </trkpt>
      <trkpt lat="44.57154" lon="0.87">
        <ele>190</ele>
        <time>2012-01-30T14:30:25Z</time>
      </trkpt>
      <trkpt lat="44.5715" lon="0.87004">
        <ele>190</ele>
        <time>2012-01-30T14:30:26Z</time>
      </trkpt>
      <trkpt lat="44.57146" lon="0.87008">
        <ele>190</ele>
        <time>2012-01-30T14:30:27Z</time>
      </trkpt>
      <trkpt lat="44.57142" lon="0.87012">
        <ele>190</ele>
        <time>2012-01-30T14:30:28Z</time>
      </trkpt>
      <trkpt lat="44.57139" lon="0.87015">
        <ele>190</ele>
        <time>2012-01-30T14:30:29Z</time>
      </trkpt>
      <trkpt lat="44.57135" lon="0.87018">
        <ele>190</ele>
        <time>2012-01-30T14:30:30Z</time>
      </trkpt>
      <trkpt lat="44.57133" lon="0.87022">
        <ele>190</ele>
        <time>2012-01-30T14:30:31Z</time>
      </trkpt>
      <trkpt lat="44.5713" lon="0.87025">
        <ele>190</ele>
        <time>2012-01-30T14:30:32Z</time>
      </trkpt>
      <trkpt lat="44.57127" lon="0.87029">
        <ele>191</ele>
        <time>2012-01-30T14:30:33Z</time>
      </trkpt>
      <trkpt lat="44.57124" lon="0.87034">
        <ele>192</ele>
        <time>2012-01-30T14:30:34Z</time>
      </trkpt>
      <trkpt lat="44.57121" lon="0.87038">
        <ele>193</ele>
        <time>2012-01-30T14:30:35Z</time>
      </trkpt>
      <trkpt lat="44.57118" lon="0.87042">
        <ele>194</ele>
        <time>2012-01-30T14:30:36Z</time>
      </trkpt>
      <trkpt lat="44.57116" lon="0.87046">
        <ele>194</ele>
        <time>2012-01-30T14:30:37Z</time>
      </trkpt>
      <trkpt lat="44.57113" lon="0.87051">
        <ele>195</ele>
        <time>2012-01-30T14:30:38Z</time>
      </trkpt>
      <trkpt lat="44.5711" lon="0.87056">
        <ele>195</ele>
        <time>2012-01-30T14:30:39Z</time>
      </trkpt>
      <trkpt lat="44.57106" lon="0.8706">
        <ele>196</ele>
        <time>2012-01-30T14:30:40Z</time>
      </trkpt>
      <trkpt lat="44.57102" lon="0.87064">
        <ele>196</ele>
        <time>2012-01-30T14:30:41Z</time>
      </trkpt>
      <trkpt lat="44.57098" lon="0.87069">
        <ele>196</ele>
        <time>2012-01-30T14:30:42Z</time>
      </trkpt>
      <trkpt lat="44.57094" lon="0.87073">
        <ele>197</ele>
        <time>2012-01-30T14:30:43Z</time>
      </trkpt>
      <trkpt lat="44.57091" lon="0.87077">
        <ele>198</ele>
        <time>2012-01-30T14:30:44Z</time>
      </trkpt>
      <trkpt lat="44.57088" lon="0.87081">
        <ele>198</ele>
        <time>2012-01-30T14:30:45Z</time>
      </trkpt>
      <trkpt lat="44.57084" lon="0.87085">
        <ele>198</ele>
        <time>2012-01-30T14:30:46Z</time>
      </trkpt>
      <trkpt lat="44.5708" lon="0.87088">
        <ele>198</ele>
        <time>2012-01-30T14:30:47Z</time>
      </trkpt>
      <trkpt lat="44.57077" lon="0.87091">
        <ele>198</ele>
        <time>2012-01-30T14:30:48Z</time>
      </trkpt>
      <trkpt lat="44.57073" lon="0.87095">
        <ele>198</ele>
        <time>2012-01-30T14:30:49Z</time>
      </trkpt>
      <trkpt lat="44.57069" lon="0.87098">
        <ele>198</ele>
        <time>2012-01-30T14:30:50Z</time>
      </trkpt>
      <trkpt lat="44.57064" lon="0.87101">
        <ele>198</ele>
        <time>2012-01-30T14:30:51Z</time>
      </trkpt>
      <trkpt lat="44.5706" lon="0.87103">
        <ele>198</ele>
        <time>2012-01-30T14:30:52Z</time>
      </trkpt>
      <trkpt lat="44.57056" lon="0.87106">
        <ele>198</ele>
        <time>2012-01-30T14:30:53Z</time>
      </trkpt>
      <trkpt lat="44.57051" lon="0.87108">
        <ele>198</ele>
        <time>2012-01-30T14:30:54Z</time>
      </trkpt>
      <trkpt lat="44.57047" lon="0.8711">
        <ele>198</ele>
        <time>2012-01-30T14:30:55Z</time>
      </trkpt>
      <trkpt lat="44.57043" lon="0.87112">
        <ele>198</ele>
        <time>2012-01-30T14:30:56Z</time>
      </trkpt>
      <trkpt lat="44.57039" lon="0.87114">
        <ele>198</ele>
        <time>2012-01-30T14:30:57Z</time>
      </trkpt>
      <trkpt lat="44.57035" lon="0.87116">
        <ele>199</ele>
        <time>2012-01-30T14:30:58Z</time>
      </trkpt>
      <trkpt lat="44.57031" lon="0.87118">
        <ele>199</ele>
        <time>2012-01-30T14:30:59Z</time>
      </trkpt>
      <trkpt lat="44.57027" lon="0.8712">
        <ele>199</ele>
        <time>2012-01-30T14:31:00Z</time>
      </trkpt>
      <trkpt lat="44.57022" lon="0.87122">
        <ele>199</ele>
        <time>2012-01-30T14:31:01Z</time>
      </trkpt>
      <trkpt lat="44.57018" lon="0.87124">
        <ele>199</ele>
        <time>2012-01-30T14:31:02Z</time>
      </trkpt>
      <trkpt lat="44.57014" lon="0.87126">
        <ele>200</ele>
        <time>2012-01-30T14:31:03Z</time>
      </trkpt>
      <trkpt lat="44.5701" lon="0.87128">
        <ele>200</ele>
        <time>2012-01-30T14:31:04Z</time>
      </trkpt>
      <trkpt lat="44.57006" lon="0.8713">
        <ele>200</ele>
        <time>2012-01-30T14:31:05Z</time>
      </trkpt>
      <trkpt lat="44.57002" lon="0.87132">
        <ele>200</ele>
        <time>2012-01-30T14:31:06Z</time>
      </trkpt>
      <trkpt lat="44.56998" lon="0.87134">
        <ele>201</ele>
        <time>2012-01-30T14:31:07Z</time>
      </trkpt>
      <trkpt lat="44.56993" lon="0.87136">
        <ele>201</ele>
        <time>2012-01-30T14:31:08Z</time>
      </trkpt>
      <trkpt lat="44.56989" lon="0.87138">
        <ele>201</ele>
        <time>2012-01-30T14:31:09Z</time>
      </trkpt>
      <trkpt lat="44.56984" lon="0.87138">
        <ele>201</ele>
        <time>2012-01-30T14:31:10Z</time>
      </trkpt>
      <trkpt lat="44.5698" lon="0.87139">
        <ele>201</ele>
        <time>2012-01-30T14:31:11Z</time>
      </trkpt>
      <trkpt lat="44.56975" lon="0.8714">
        <ele>201</ele>
        <time>2012-01-30T14:31:12Z</time>
      </trkpt>
      <trkpt lat="44.56971" lon="0.87141">
        <ele>201</ele>
        <time>2012-01-30T14:31:13Z</time>
      </trkpt>
      <trkpt lat="44.56966" lon="0.87142">
        <ele>201</ele>
        <time>2012-01-30T14:31:14Z</time>
      </trkpt>
      <trkpt lat="44.56961" lon="0.87142">
        <ele>201</ele>
        <time>2012-01-30T14:31:15Z</time>
      </trkpt>
      <trkpt lat="44.56956" lon="0.87142">
        <ele>201</ele>
        <time>2012-01-30T14:31:16Z</time>
      </trkpt>
      <trkpt lat="44.56952" lon="0.87142">
        <ele>201</ele>
        <time>2012-01-30T14:31:17Z</time>
      </trkpt>
      <trkpt lat="44.56947" lon="0.87143">
        <ele>201</ele>
        <time>2012-01-30T14:31:18Z</time>
      </trkpt>
      <trkpt lat="44.56942" lon="0.87143">
        <ele>201</ele>
        <time>2012-01-30T14:31:19Z</time>
      </trkpt>
      <trkpt lat="44.56938" lon="0.87144">
        <ele>201</ele>
        <time>2012-01-30T14:31:20Z</time>
      </trkpt>
      <trkpt lat="44.56933" lon="0.87145">
        <ele>201</ele>
        <time>2012-01-30T14:31:21Z</time>
      </trkpt>
      <trkpt lat="44.56928" lon="0.87146">
        <ele>201</ele>
        <time>2012-01-30T14:31:22Z</time>
      </trkpt>
      <trkpt lat="44.56924" lon="0.87147">
        <ele>201</ele>
        <time>2012-01-30T14:31:23Z</time>
      </trkpt>
      <trkpt lat="44.56919" lon="0.87148">
        <ele>201</ele>
        <time>2012-01-30T14:31:24Z</time>
      </trkpt>
      <trkpt lat="44.56914" lon="0.87149">
        <ele>201</ele>
        <time>2012-01-30T14:31:25Z</time>
      </trkpt>
      <trkpt lat="44.56909" lon="0.8715">
        <ele>201</ele>
        <time>2012-01-30T14:31:26Z</time>
      </trkpt>
      <trkpt lat="44.56904" lon="0.87151">
        <ele>201</ele>
        <time>2012-01-30T14:31:27Z</time>
      </trkpt>
      <trkpt lat="44.569" lon="0.87152">
        <ele>201</ele>
        <time>2012-01-30T14:31:28Z</time>
      </trkpt>
      <trkpt lat="44.56895" lon="0.87154">
        <ele>201</ele>
        <time>2012-01-30T14:31:29Z</time>
      </trkpt>
      <trkpt lat="44.5689" lon="0.87155">
        <ele>201</ele>
        <time>2012-01-30T14:31:30Z</time>
      </trkpt>
      <trkpt lat="44.56885" lon="0.87155">
        <ele>201</ele>
        <time>2012-01-30T14:31:31Z</time>
      </trkpt>
      <trkpt lat="44.5688" lon="0.87156">
        <ele>201</ele>
        <time>2012-01-30T14:31:32Z</time>
      </trkpt>
      <trkpt lat="44.56875" lon="0.87157">
        <ele>201</ele>
        <time>2012-01-30T14:31:33Z</time>
      </trkpt>
      <trkpt lat="44.5687" lon="0.87157">
        <ele>201</ele>
        <time>2012-01-30T14:31:34Z</time>
      </trkpt>
      <trkpt lat="44.56865" lon="0.87157">
        <ele>201</ele>
        <time>2012-01-30T14:31:35Z</time>
      </trkpt>
      <trkpt lat="44.5686" lon="0.87156">
        <ele>200</ele>
        <time>2012-01-30T14:31:36Z</time>
      </trkpt>
      <trkpt lat="44.56855" lon="0.87156">
        <ele>200</ele>
        <time>2012-01-30T14:31:37Z</time>
      </trkpt>
      <trkpt lat="44.5685" lon="0.87155">
        <ele>200</ele>
        <time>2012-01-30T14:31:38Z</time>
      </trkpt>
      <trkpt lat="44.56845" lon="0.87156">
        <ele>200</ele>
        <time>2012-01-30T14:31:39Z</time>
      </trkpt>
      <trkpt lat="44.5684" lon="0.87156">
        <ele>200</ele>
        <time>2012-01-30T14:31:40Z</time>
      </trkpt>
      <trkpt lat="44.56836" lon="0.87156">
        <ele>200</ele>
        <time>2012-01-30T14:31:41Z</time>
      </trkpt>
      <trkpt lat="44.56831" lon="0.87156">
        <ele>200</ele>
        <time>2012-01-30T14:31:42Z</time>
      </trkpt>
      <trkpt lat="44.56826" lon="0.87157">
        <ele>199</ele>
        <time>2012-01-30T14:31:43Z</time>
      </trkpt>
      <trkpt lat="44.56821" lon="0.87158">
        <ele>199</ele>
        <time>2012-01-30T14:31:44Z</time>
      </trkpt>
      <trkpt lat="44.56815" lon="0.8716">
        <ele>199</ele>
        <time>2012-01-30T14:31:45Z</time>
      </trkpt>
      <trkpt lat="44.56811" lon="0.87162">
        <ele>199</ele>
        <time>2012-01-30T14:31:46Z</time>
      </trkpt>
      <trkpt lat="44.56806" lon="0.87165">
        <ele>199</ele>
        <time>2012-01-30T14:31:47Z</time>
      </trkpt>
      <trkpt lat="44.56802" lon="0.87167">
        <ele>199</ele>
        <time>2012-01-30T14:31:48Z</time>
      </trkpt>
      <trkpt lat="44.56797" lon="0.87169">
        <ele>199</ele>
        <time>2012-01-30T14:31:49Z</time>
      </trkpt>
      <trkpt lat="44.56792" lon="0.87171">
        <ele>199</ele>
        <time>2012-01-30T14:31:50Z</time>
      </trkpt>
      <trkpt lat="44.56787" lon="0.87172">
        <ele>199</ele>
        <time>2012-01-30T14:31:51Z</time>
      </trkpt>
      <trkpt lat="44.56782" lon="0.87173">
        <ele>199</ele>
        <time>2012-01-30T14:31:52Z</time>
      </trkpt>
      <trkpt lat="44.56776" lon="0.87175">
        <ele>199</ele>
        <time>2012-01-30T14:31:53Z</time>
      </trkpt>
      <trkpt lat="44.56771" lon="0.87176">
        <ele>199</ele>
        <time>2012-01-30T14:31:54Z</time>
      </trkpt>
      <trkpt lat="44.56766" lon="0.87177">
        <ele>199</ele>
        <time>2012-01-30T14:31:55Z</time>
      </trkpt>
      <trkpt lat="44.56761" lon="0.87178">
        <ele>199</ele>
        <time>2012-01-30T14:31:56Z</time>
      </trkpt>
      <trkpt lat="44.56756" lon="0.87179">
        <ele>199</ele>
        <time>2012-01-30T14:31:57Z</time>
      </trkpt>
      <trkpt lat="44.56751" lon="0.87181">
        <ele>199</ele>
        <time>2012-01-30T14:31:58Z</time>
      </trkpt>
      <trkpt lat="44.56746" lon="0.87182">
        <ele>199</ele>
        <time>2012-01-30T14:31:59Z</time>
      </trkpt>
      <trkpt lat="44.56741" lon="0.87183">
        <ele>199</ele>
        <time>2012-01-30T14:32:00Z</time>
      </trkpt>
      <trkpt lat="44.56736" lon="0.87184">
        <ele>199</ele>
        <time>2012-01-30T14:32:01Z</time>
      </trkpt>
      <trkpt lat="44.56732" lon="0.87185">
        <ele>199</ele>
        <time>2012-01-30T14:32:02Z</time>
      </trkpt>
      <trkpt lat="44.56727" lon="0.87186">
        <ele>199</ele>
        <time>2012-01-30T14:32:03Z</time>
      </trkpt>
      <trkpt lat="44.56723" lon="0.87186">
        <ele>199</ele>
        <time>2012-01-30T14:32:04Z</time>
      </trkpt>
      <trkpt lat="44.56719" lon="0.87187">
        <ele>199</ele>
        <time>2012-01-30T14:32:05Z</time>
      </trkpt>
      <trkpt lat="44.56714" lon="0.87189">
        <ele>199</ele>
        <time>2012-01-30T14:32:06Z</time>
      </trkpt>
      <trkpt lat="44.5671" lon="0.8719">
        <ele>199</ele>
        <time>2012-01-30T14:32:07Z</time>
      </trkpt>
      <trkpt lat="44.56706" lon="0.87191">
        <ele>199</ele>
        <time>2012-01-30T14:32:08Z</time>
      </trkpt>
      <trkpt lat="44.56701" lon="0.87191">
        <ele>199</ele>
        <time>2012-01-30T14:32:09Z</time>
      </trkpt>
      <trkpt lat="44.56697" lon="0.87192">
        <ele>199</ele>
        <time>2012-01-30T14:32:10Z</time>
      </trkpt>
      <trkpt lat="44.56693" lon="0.87193">
        <ele>199</ele>
        <time>2012-01-30T14:32:11Z</time>
      </trkpt>
      <trkpt lat="44.56689" lon="0.87194">
        <ele>199</ele>
        <time>2012-01-30T14:32:12Z</time>
      </trkpt>
      <trkpt lat="44.56685" lon="0.87194">
        <ele>199</ele>
        <time>2012-01-30T14:32:13Z</time>
      </trkpt>
      <trkpt lat="44.56682" lon="0.87195">
        <ele>199</ele>
        <time>2012-01-30T14:32:14Z</time>
      </trkpt>
      <trkpt lat="44.56678" lon="0.87196">
        <ele>199</ele>
        <time>2012-01-30T14:32:15Z</time>
      </trkpt>
      <trkpt lat="44.56675" lon="0.87197">
        <ele>199</ele>
        <time>2012-01-30T14:32:16Z</time>
      </trkpt>
      <trkpt lat="44.56671" lon="0.87198">
        <ele>199</ele>
        <time>2012-01-30T14:32:17Z</time>
      </trkpt>
      <trkpt lat="44.56667" lon="0.872">
        <ele>199</ele>
        <time>2012-01-30T14:32:18Z</time>
      </trkpt>
      <trkpt lat="44.56662" lon="0.87201">
        <ele>199</ele>
        <time>2012-01-30T14:32:19Z</time>
      </trkpt>
      <trkpt lat="44.56656" lon="0.87203">
        <ele>199</ele>
        <time>2012-01-30T14:32:20Z</time>
      </trkpt>
      <trkpt lat="44.5665" lon="0.87204">
        <ele>199</ele>
        <time>2012-01-30T14:32:21Z</time>
      </trkpt>
      <trkpt lat="44.56643" lon="0.87205">
        <ele>199</ele>
        <time>2012-01-30T14:32:22Z</time>
      </trkpt>
      <trkpt lat="44.56636" lon="0.87206">
        <ele>199</ele>
        <time>2012-01-30T14:32:23Z</time>
      </trkpt>
      <trkpt lat="44.5663" lon="0.87206">
        <ele>199</ele>
        <time>2012-01-30T14:32:24Z</time>
      </trkpt>
      <trkpt lat="44.56623" lon="0.87206">
        <ele>199</ele>
        <time>2012-01-30T14:32:25Z</time>
      </trkpt>
      <trkpt lat="44.56615" lon="0.87206">
        <ele>198</ele>
        <time>2012-01-30T14:32:26Z</time>
      </trkpt>
      <trkpt lat="44.56608" lon="0.87206">
        <ele>197</ele>
        <time>2012-01-30T14:32:27Z</time>
      </trkpt>
      <trkpt lat="44.56601" lon="0.87206">
        <ele>197</ele>
        <time>2012-01-30T14:32:28Z</time>
      </trkpt>
      <trkpt lat="44.56593" lon="0.87206">
        <ele>197</ele>
        <time>2012-01-30T14:32:29Z</time>
      </trkpt>
      <trkpt lat="44.56586" lon="0.87207">
        <ele>196</ele>
        <time>2012-01-30T14:32:30Z</time>
      </trkpt>
      <trkpt lat="44.56578" lon="0.87208">
        <ele>195</ele>
        <time>2012-01-30T14:32:31Z</time>
      </trkpt>
      <trkpt lat="44.56571" lon="0.87209">
        <ele>195</ele>
        <time>2012-01-30T14:32:32Z</time>
      </trkpt>
      <trkpt lat="44.56564" lon="0.87209">
        <ele>194</ele>
        <time>2012-01-30T14:32:33Z</time>
      </trkpt>
      <trkpt lat="44.56556" lon="0.87209">
        <ele>194</ele>
        <time>2012-01-30T14:32:34Z</time>
      </trkpt>
      <trkpt lat="44.56548" lon="0.8721">
        <ele>193</ele>
        <time>2012-01-30T14:32:35Z</time>
      </trkpt>
      <trkpt lat="44.56541" lon="0.8721">
        <ele>193</ele>
        <time>2012-01-30T14:32:36Z</time>
      </trkpt>
      <trkpt lat="44.56534" lon="0.8721">
        <ele>192</ele>
        <time>2012-01-30T14:32:37Z</time>
      </trkpt>
      <trkpt lat="44.56527" lon="0.8721">
        <ele>192</ele>
        <time>2012-01-30T14:32:38Z</time>
      </trkpt>
      <trkpt lat="44.5652" lon="0.87211">
        <ele>192</ele>
        <time>2012-01-30T14:32:39Z</time>
      </trkpt>
      <trkpt lat="44.56513" lon="0.8721">
        <ele>192</ele>
        <time>2012-01-30T14:32:40Z</time>
      </trkpt>
      <trkpt lat="44.56506" lon="0.8721">
        <ele>191</ele>
        <time>2012-01-30T14:32:41Z</time>
      </trkpt>
      <trkpt lat="44.56499" lon="0.8721">
        <ele>191</ele>
        <time>2012-01-30T14:32:42Z</time>
      </trkpt>
      <trkpt lat="44.56492" lon="0.87209">
        <ele>191</ele>
        <time>2012-01-30T14:32:43Z</time>
      </trkpt>
      <trkpt lat="44.56485" lon="0.87209">
        <ele>191</ele>
        <time>2012-01-30T14:32:44Z</time>
      </trkpt>
      <trkpt lat="44.56479" lon="0.87209">
        <ele>191</ele>
        <time>2012-01-30T14:32:45Z</time>
      </trkpt>
      <trkpt lat="44.56472" lon="0.87209">
        <ele>190</ele>
        <time>2012-01-30T14:32:46Z</time>
      </trkpt>
      <trkpt lat="44.56465" lon="0.87208">
        <ele>190</ele>
        <time>2012-01-30T14:32:47Z</time>
      </trkpt>
      <trkpt lat="44.56458" lon="0.87208">
        <ele>190</ele>
        <time>2012-01-30T14:32:48Z</time>
      </trkpt>
      <trkpt lat="44.56451" lon="0.87207">
        <ele>189</ele>
        <time>2012-01-30T14:32:49Z</time>
      </trkpt>
      <trkpt lat="44.56445" lon="0.87207">
        <ele>189</ele>
        <time>2012-01-30T14:32:50Z</time>
      </trkpt>
      <trkpt lat="44.56438" lon="0.87207">
        <ele>189</ele>
        <time>2012-01-30T14:32:51Z</time>
      </trkpt>
      <trkpt lat="44.56431" lon="0.87208">
        <ele>189</ele>
        <time>2012-01-30T14:32:52Z</time>
      </trkpt>
      <trkpt lat="44.56425" lon="0.87209">
        <ele>189</ele>
        <time>2012-01-30T14:32:53Z</time>
      </trkpt>
      <trkpt lat="44.56419" lon="0.8721">
        <ele>189</ele>
        <time>2012-01-30T14:32:54Z</time>
      </trkpt>
      <trkpt lat="44.56413" lon="0.87211">
        <ele>189</ele>
        <time>2012-01-30T14:32:55Z</time>
      </trkpt>
      <trkpt lat="44.56408" lon="0.87212">
        <ele>189</ele>
        <time>2012-01-30T14:32:56Z</time>
      </trkpt>
      <trkpt lat="44.56401" lon="0.87214">
        <ele>189</ele>
        <time>2012-01-30T14:32:57Z</time>
      </trkpt>
      <trkpt lat="44.56395" lon="0.87215">
        <ele>189</ele>
        <time>2012-01-30T14:32:58Z</time>
      </trkpt>
      <trkpt lat="44.56389" lon="0.87217">
        <ele>189</ele>
        <time>2012-01-30T14:32:59Z</time>
      </trkpt>
      <trkpt lat="44.56383" lon="0.87218">
        <ele>189</ele>
        <time>2012-01-30T14:33:00Z</time>
      </trkpt>
      <trkpt lat="44.56377" lon="0.8722">
        <ele>189</ele>
        <time>2012-01-30T14:33:01Z</time>
      </trkpt>
      <trkpt lat="44.56371" lon="0.87222">
        <ele>189</ele>
        <time>2012-01-30T14:33:02Z</time>
      </trkpt>
      <trkpt lat="44.56365" lon="0.87225">
        <ele>189</ele>
        <time>2012-01-30T14:33:03Z</time>
      </trkpt>
      <trkpt lat="44.56359" lon="0.87228">
        <ele>189</ele>
        <time>2012-01-30T14:33:04Z</time>
      </trkpt>
      <trkpt lat="44.56353" lon="0.87231">
        <ele>189</ele>
        <time>2012-01-30T14:33:05Z</time>
      </trkpt>
      <trkpt lat="44.56347" lon="0.87234">
        <ele>189</ele>
        <time>2012-01-30T14:33:06Z</time>
      </trkpt>
      <trkpt lat="44.56341" lon="0.87238">
        <ele>189</ele>
        <time>2012-01-30T14:33:07Z</time>
      </trkpt>
      <trkpt lat="44.56335" lon="0.87242">
        <ele>189</ele>
        <time>2012-01-30T14:33:08Z</time>
      </trkpt>
      <trkpt lat="44.56329" lon="0.87244">
        <ele>189</ele>
        <time>2012-01-30T14:33:09Z</time>
      </trkpt>
      <trkpt lat="44.56324" lon="0.87247">
        <ele>189</ele>
        <time>2012-01-30T14:33:10Z</time>
      </trkpt>
      <trkpt lat="44.56319" lon="0.8725">
        <ele>189</ele>
        <time>2012-01-30T14:33:11Z</time>
      </trkpt>
      <trkpt lat="44.56316" lon="0.87252">
        <ele>189</ele>
        <time>2012-01-30T14:33:12Z</time>
      </trkpt>
      <trkpt lat="44.56312" lon="0.87253">
        <ele>189</ele>
        <time>2012-01-30T14:33:13Z</time>
      </trkpt>
      <trkpt lat="44.56309" lon="0.87252">
        <ele>188</ele>
        <time>2012-01-30T14:33:14Z</time>
      </trkpt>
      <trkpt lat="44.56308" lon="0.8725">
        <ele>188</ele>
        <time>2012-01-30T14:33:15Z</time>
      </trkpt>
      <trkpt lat="44.56308" lon="0.87248">
        <ele>188</ele>
        <time>2012-01-30T14:33:16Z</time>
      </trkpt>
      <trkpt lat="44.56309" lon="0.87245">
        <ele>187</ele>
        <time>2012-01-30T14:33:17Z</time>
      </trkpt>
      <trkpt lat="44.56311" lon="0.87243">
        <ele>187</ele>
        <time>2012-01-30T14:33:18Z</time>
      </trkpt>
      <trkpt lat="44.56313" lon="0.8724">
        <ele>187</ele>
        <time>2012-01-30T14:33:19Z</time>
      </trkpt>
      <trkpt lat="44.56315" lon="0.87236">
        <ele>187</ele>
        <time>2012-01-30T14:33:20Z</time>
      </trkpt>
      <trkpt lat="44.56315" lon="0.87231">
        <ele>187</ele>
        <time>2012-01-30T14:33:21Z</time>
      </trkpt>
      <trkpt lat="44.56313" lon="0.87226">
        <ele>187</ele>
        <time>2012-01-30T14:33:22Z</time>
      </trkpt>
      <trkpt lat="44.56313" lon="0.87221">
        <ele>187</ele>
        <time>2012-01-30T14:33:23Z</time>
      </trkpt>
      <trkpt lat="44.56312" lon="0.87216">
        <ele>187</ele>
        <time>2012-01-30T14:33:24Z</time>
      </trkpt>
      <trkpt lat="44.56311" lon="0.87211">
        <ele>187</ele>
        <time>2012-01-30T14:33:25Z</time>
      </trkpt>
      <trkpt lat="44.56308" lon="0.87205">
        <ele>187</ele>
        <time>2012-01-30T14:33:26Z</time>
      </trkpt>
      <trkpt lat="44.56303" lon="0.87198">
        <ele>186</ele>
        <time>2012-01-30T14:33:27Z</time>
      </trkpt>
      <trkpt lat="44.563" lon="0.8719">
        <ele>186</ele>
        <time>2012-01-30T14:33:28Z</time>
      </trkpt>
      <trkpt lat="44.56298" lon="0.87183">
        <ele>185</ele>
        <time>2012-01-30T14:33:29Z</time>
      </trkpt>
      <trkpt lat="44.56297" lon="0.87178">
        <ele>184</ele>
        <time>2012-01-30T14:33:30Z</time>
      </trkpt>
      <trkpt lat="44.56296" lon="0.87174">
        <ele>184</ele>
        <time>2012-01-30T14:33:31Z</time>
      </trkpt>
      <trkpt lat="44.56295" lon="0.8717">
        <ele>184</ele>
        <time>2012-01-30T14:33:32Z</time>
      </trkpt>
      <trkpt lat="44.56295" lon="0.87167">
        <ele>184</ele>
        <time>2012-01-30T14:33:33Z</time>
      </trkpt>
      <trkpt lat="44.56295" lon="0.87165">
        <ele>184</ele>
        <time>2012-01-30T14:33:34Z</time>
      </trkpt>
      <trkpt lat="44.56295" lon="0.87164">
        <ele>184</ele>
        <time>2012-01-30T14:33:36Z</time>
      </trkpt>
      <trkpt lat="44.56294" lon="0.87161">
        <ele>184</ele>
        <time>2012-01-30T14:33:38Z</time>
      </trkpt>
      <trkpt lat="44.56293" lon="0.8716">
        <ele>184</ele>
        <time>2012-01-30T14:33:40Z</time>
      </trkpt>
      <trkpt lat="44.56294" lon="0.87159">
        <ele>184</ele>
        <time>2012-01-30T14:33:43Z</time>
      </trkpt>
      <trkpt lat="44.56295" lon="0.87157">
        <ele>187</ele>
        <time>2012-01-30T14:33:46Z</time>
      </trkpt>
      <trkpt lat="44.56296" lon="0.87158">
        <ele>188</ele>
        <time>2012-01-30T14:33:50Z</time>
      </trkpt>
      <trkpt lat="44.56298" lon="0.87158">
        <ele>188</ele>
        <time>2012-01-30T14:33:52Z</time>
      </trkpt>
      <trkpt lat="44.56299" lon="0.87156">
        <ele>188</ele>
        <time>2012-01-30T14:33:54Z</time>
      </trkpt>
      <trkpt lat="44.56298" lon="0.87156">
        <ele>188</ele>
        <time>2012-01-30T14:34:01Z</time>
      </trkpt>
      <trkpt lat="44.56296" lon="0.87154">
        <ele>188</ele>
        <time>2012-01-30T14:34:06Z</time>
      </trkpt>
      <trkpt lat="44.56296" lon="0.87152">
        <ele>188</ele>
        <time>2012-01-30T14:34:08Z</time>
      </trkpt>
      <trkpt lat="44.56295" lon="0.8715">
        <ele>188</ele>
        <time>2012-01-30T14:34:09Z</time>
      </trkpt>
      <trkpt lat="44.56295" lon="0.87147">
        <ele>188</ele>
        <time>2012-01-30T14:34:10Z</time>
      </trkpt>
      <trkpt lat="44.56295" lon="0.87143">
        <ele>188</ele>
        <time>2012-01-30T14:34:11Z</time>
      </trkpt>
      <trkpt lat="44.56294" lon="0.87139">
        <ele>188</ele>
        <time>2012-01-30T14:34:12Z</time>
      </trkpt>
      <trkpt lat="44.56293" lon="0.87134">
        <ele>188</ele>
        <time>2012-01-30T14:34:13Z</time>
      </trkpt>
      <trkpt lat="44.56293" lon="0.87129">
        <ele>188</ele>
        <time>2012-01-30T14:34:14Z</time>
      </trkpt>
      <trkpt lat="44.56292" lon="0.87123">
        <ele>188</ele>
        <time>2012-01-30T14:34:15Z</time>
      </trkpt>
      <trkpt lat="44.56292" lon="0.87118">
        <ele>188</ele>
        <time>2012-01-30T14:34:16Z</time>
      </trkpt>
      <trkpt lat="44.56292" lon="0.87112">
        <ele>188</ele>
        <time>2012-01-30T14:34:17Z</time>
      </trkpt>
      <trkpt lat="44.56292" lon="0.87105">
        <ele>187</ele>
        <time>2012-01-30T14:34:18Z</time>
      </trkpt>
      <trkpt lat="44.56291" lon="0.87098">
        <ele>186</ele>
        <time>2012-01-30T14:34:19Z</time>
      </trkpt>
      <trkpt lat="44.56291" lon="0.8709">
        <ele>185</ele>
        <time>2012-01-30T14:34:20Z</time>
      </trkpt>
      <trkpt lat="44.56291" lon="0.87083">
        <ele>184</ele>
        <time>2012-01-30T14:34:21Z</time>
      </trkpt>
      <trkpt lat="44.5629" lon="0.87076">
        <ele>183</ele>
        <time>2012-01-30T14:34:22Z</time>
      </trkpt>
      <trkpt lat="44.5629" lon="0.87068">
        <ele>183</ele>
        <time>2012-01-30T14:34:23Z</time>
      </trkpt>
      <trkpt lat="44.5629" lon="0.87059">
        <ele>182</ele>
        <time>2012-01-30T14:34:24Z</time>
      </trkpt>
      <trkpt lat="44.5629" lon="0.87053">
        <ele>181</ele>
        <time>2012-01-30T14:34:25Z</time>
      </trkpt>
      <trkpt lat="44.5629" lon="0.87047">
        <ele>180</ele>
        <time>2012-01-30T14:34:26Z</time>
      </trkpt>
      <trkpt lat="44.56289" lon="0.87042">
        <ele>180</ele>
        <time>2012-01-30T14:34:27Z</time>
      </trkpt>
      <trkpt lat="44.56286" lon="0.87038">
        <ele>179</ele>
        <time>2012-01-30T14:34:28Z</time>
      </trkpt>
      <trkpt lat="44.56283" lon="0.87035">
        <ele>179</ele>
        <time>2012-01-30T14:34:29Z</time>
      </trkpt>
      <trkpt lat="44.56281" lon="0.87031">
        <ele>178</ele>
        <time>2012-01-30T14:34:30Z</time>
      </trkpt>
      <trkpt lat="44.56279" lon="0.87027">
        <ele>177</ele>
        <time>2012-01-30T14:34:31Z</time>
      </trkpt>
      <trkpt lat="44.56279" lon="0.87021">
        <ele>177</ele>
        <time>2012-01-30T14:34:32Z</time>
      </trkpt>
      <trkpt lat="44.56278" lon="0.87016">
        <ele>176</ele>
        <time>2012-01-30T14:34:33Z</time>
      </trkpt>
      <trkpt lat="44.56278" lon="0.8701">
        <ele>175</ele>
        <time>2012-01-30T14:34:34Z</time>
      </trkpt>
      <trkpt lat="44.56277" lon="0.87004">
        <ele>174</ele>
        <time>2012-01-30T14:34:35Z</time>
      </trkpt>
      <trkpt lat="44.56279" lon="0.86999">
        <ele>174</ele>
        <time>2012-01-30T14:34:36Z</time>
      </trkpt>
      <trkpt lat="44.56278" lon="0.86992">
        <ele>173</ele>
        <time>2012-01-30T14:34:37Z</time>
      </trkpt>
      <trkpt lat="44.56278" lon="0.86986">
        <ele>173</ele>
        <time>2012-01-30T14:34:38Z</time>
      </trkpt>
      <trkpt lat="44.56277" lon="0.8698">
        <ele>173</ele>
        <time>2012-01-30T14:34:39Z</time>
      </trkpt>
      <trkpt lat="44.56276" lon="0.86972">
        <ele>173</ele>
        <time>2012-01-30T14:34:40Z</time>
      </trkpt>
      <trkpt lat="44.56275" lon="0.86965">
        <ele>173</ele>
        <time>2012-01-30T14:34:41Z</time>
      </trkpt>
      <trkpt lat="44.56274" lon="0.86959">
        <ele>173</ele>
        <time>2012-01-30T14:34:42Z</time>
      </trkpt>
      <trkpt lat="44.56274" lon="0.86953">
        <ele>173</ele>
        <time>2012-01-30T14:34:43Z</time>
      </trkpt>
      <trkpt lat="44.56274" lon="0.86948">
        <ele>172</ele>
        <time>2012-01-30T14:34:44Z</time>
      </trkpt>
      <trkpt lat="44.56275" lon="0.86941">
        <ele>172</ele>
        <time>2012-01-30T14:34:45Z</time>
      </trkpt>
      <trkpt lat="44.56275" lon="0.86936">
        <ele>171</ele>
        <time>2012-01-30T14:34:46Z</time>
      </trkpt>
      <trkpt lat="44.56275" lon="0.86928">
        <ele>171</ele>
        <time>2012-01-30T14:34:47Z</time>
      </trkpt>
      <trkpt lat="44.56275" lon="0.86922">
        <ele>170</ele>
        <time>2012-01-30T14:34:48Z</time>
      </trkpt>
      <trkpt lat="44.56274" lon="0.86917">
        <ele>170</ele>
        <time>2012-01-30T14:34:49Z</time>
      </trkpt>
      <trkpt lat="44.56272" lon="0.86914">
        <ele>170</ele>
        <time>2012-01-30T14:34:50Z</time>
      </trkpt>
      <trkpt lat="44.56271" lon="0.8691">
        <ele>170</ele>
        <time>2012-01-30T14:34:51Z</time>
      </trkpt>
      <trkpt lat="44.56271" lon="0.86905">
        <ele>170</ele>
        <time>2012-01-30T14:34:52Z</time>
      </trkpt>
      <trkpt lat="44.56271" lon="0.869">
        <ele>170</ele>
        <time>2012-01-30T14:34:53Z</time>
      </trkpt>
      <trkpt lat="44.5627" lon="0.86894">
        <ele>170</ele>
        <time>2012-01-30T14:34:54Z</time>
      </trkpt>
      <trkpt lat="44.56269" lon="0.86887">
        <ele>170</ele>
        <time>2012-01-30T14:34:55Z</time>
      </trkpt>
      <trkpt lat="44.56269" lon="0.8688">
        <ele>170</ele>
        <time>2012-01-30T14:34:56Z</time>
      </trkpt>
      <trkpt lat="44.56268" lon="0.86874">
        <ele>170</ele>
        <time>2012-01-30T14:34:57Z</time>
      </trkpt>
      <trkpt lat="44.56268" lon="0.86869">
        <ele>170</ele>
        <time>2012-01-30T14:34:58Z</time>
      </trkpt>
      <trkpt lat="44.56269" lon="0.86866">
        <ele>170</ele>
        <time>2012-01-30T14:34:59Z</time>
      </trkpt>
      <trkpt lat="44.56271" lon="0.86864">
        <ele>170</ele>
        <time>2012-01-30T14:35:00Z</time>
      </trkpt>
      <trkpt lat="44.56273" lon="0.86863">
        <ele>170</ele>
        <time>2012-01-30T14:35:01Z</time>
      </trkpt>
      <trkpt lat="44.56276" lon="0.86863">
        <ele>170</ele>
        <time>2012-01-30T14:35:02Z</time>
      </trkpt>
      <trkpt lat="44.5628" lon="0.86864">
        <ele>170</ele>
        <time>2012-01-30T14:35:03Z</time>
      </trkpt>
      <trkpt lat="44.56285" lon="0.86863">
        <ele>170</ele>
        <time>2012-01-30T14:35:04Z</time>
      </trkpt>
      <trkpt lat="44.56292" lon="0.86862">
        <ele>171</ele>
        <time>2012-01-30T14:35:05Z</time>
      </trkpt>
      <trkpt lat="44.56297" lon="0.86862">
        <ele>171</ele>
        <time>2012-01-30T14:35:06Z</time>
      </trkpt>
      <trkpt lat="44.56302" lon="0.86862">
        <ele>172</ele>
        <time>2012-01-30T14:35:07Z</time>
      </trkpt>
      <trkpt lat="44.56304" lon="0.86862">
        <ele>173</ele>
        <time>2012-01-30T14:35:08Z</time>
      </trkpt>
      <trkpt lat="44.56306" lon="0.86861">
        <ele>173</ele>
        <time>2012-01-30T14:35:09Z</time>
      </trkpt>
      <trkpt lat="44.56308" lon="0.86861">
        <ele>174</ele>
        <time>2012-01-30T14:35:10Z</time>
      </trkpt>
      <trkpt lat="44.56309" lon="0.8686">
        <ele>174</ele>
        <time>2012-01-30T14:35:11Z</time>
      </trkpt>
      <trkpt lat="44.56311" lon="0.86857">
        <ele>174</ele>
        <time>2012-01-30T14:35:12Z</time>
      </trkpt>
      <trkpt lat="44.56311" lon="0.86855">
        <ele>174</ele>
        <time>2012-01-30T14:35:13Z</time>
      </trkpt>
      <trkpt lat="44.56312" lon="0.86852">
        <ele>174</ele>
        <time>2012-01-30T14:35:14Z</time>
      </trkpt>
      <trkpt lat="44.56312" lon="0.86848">
        <ele>174</ele>
        <time>2012-01-30T14:35:15Z</time>
      </trkpt>
      <trkpt lat="44.56314" lon="0.86845">
        <ele>174</ele>
        <time>2012-01-30T14:35:16Z</time>
      </trkpt>
      <trkpt lat="44.56315" lon="0.86839">
        <ele>174</ele>
        <time>2012-01-30T14:35:17Z</time>
      </trkpt>
      <trkpt lat="44.56315" lon="0.86834">
        <ele>174</ele>
        <time>2012-01-30T14:35:18Z</time>
      </trkpt>
      <trkpt lat="44.56317" lon="0.86829">
        <ele>174</ele>
        <time>2012-01-30T14:35:19Z</time>
      </trkpt>
      <trkpt lat="44.56319" lon="0.86824">
        <ele>174</ele>
        <time>2012-01-30T14:35:20Z</time>
      </trkpt>
      <trkpt lat="44.56323" lon="0.86819">
        <ele>174</ele>
        <time>2012-01-30T14:35:21Z</time>
      </trkpt>
      <trkpt lat="44.56326" lon="0.86817">
        <ele>174</ele>
        <time>2012-01-30T14:35:22Z</time>
      </trkpt>
      <trkpt lat="44.56329" lon="0.86817">
        <ele>174</ele>
        <time>2012-01-30T14:35:23Z</time>
      </trkpt>
      <trkpt lat="44.56333" lon="0.86815">
        <ele>174</ele>
        <time>2012-01-30T14:35:24Z</time>
      </trkpt>
      <trkpt lat="44.56336" lon="0.86813">
        <ele>174</ele>
        <time>2012-01-30T14:35:25Z</time>
      </trkpt>
      <trkpt lat="44.56337" lon="0.86809">
        <ele>174</ele>
        <time>2012-01-30T14:35:26Z</time>
      </trkpt>
      <trkpt lat="44.56339" lon="0.86805">
        <ele>174</ele>
        <time>2012-01-30T14:35:27Z</time>
      </trkpt>
      <trkpt lat="44.56341" lon="0.86799">
        <ele>173</ele>
        <time>2012-01-30T14:35:28Z</time>
      </trkpt>
      <trkpt lat="44.56342" lon="0.86792">
        <ele>172</ele>
        <time>2012-01-30T14:35:29Z</time>
      </trkpt>
      <trkpt lat="44.56341" lon="0.86785">
        <ele>171</ele>
        <time>2012-01-30T14:35:30Z</time>
      </trkpt>
      <trkpt lat="44.56341" lon="0.86779">
        <ele>170</ele>
        <time>2012-01-30T14:35:31Z</time>
      </trkpt>
      <trkpt lat="44.56338" lon="0.86773">
        <ele>169</ele>
        <time>2012-01-30T14:35:32Z</time>
      </trkpt>
      <trkpt lat="44.56337" lon="0.86768">
        <ele>168</ele>
        <time>2012-01-30T14:35:33Z</time>
      </trkpt>
      <trkpt lat="44.56335" lon="0.86761">
        <ele>167</ele>
        <time>2012-01-30T14:35:34Z</time>
      </trkpt>
      <trkpt lat="44.56333" lon="0.86756">
        <ele>166</ele>
        <time>2012-01-30T14:35:35Z</time>
      </trkpt>
      <trkpt lat="44.56331" lon="0.86749">
        <ele>165</ele>
        <time>2012-01-30T14:35:36Z</time>
      </trkpt>
      <trkpt lat="44.56328" lon="0.86742">
        <ele>164</ele>
        <time>2012-01-30T14:35:37Z</time>
      </trkpt>
      <trkpt lat="44.56326" lon="0.86736">
        <ele>163</ele>
        <time>2012-01-30T14:35:38Z</time>
      </trkpt>
      <trkpt lat="44.56324" lon="0.8673">
        <ele>162</ele>
        <time>2012-01-30T14:35:39Z</time>
      </trkpt>
      <trkpt lat="44.56323" lon="0.86723">
        <ele>161</ele>
        <time>2012-01-30T14:35:40Z</time>
      </trkpt>
      <trkpt lat="44.56322" lon="0.86717">
        <ele>161</ele>
        <time>2012-01-30T14:35:41Z</time>
      </trkpt>
      <trkpt lat="44.56321" lon="0.8671">
        <ele>161</ele>
        <time>2012-01-30T14:35:42Z</time>
      </trkpt>
      <trkpt lat="44.5632" lon="0.86702">
        <ele>161</ele>
        <time>2012-01-30T14:35:43Z</time>
      </trkpt>
      <trkpt lat="44.56319" lon="0.86694">
        <ele>161</ele>
        <time>2012-01-30T14:35:44Z</time>
      </trkpt>
      <trkpt lat="44.56316" lon="0.86689">
        <ele>161</ele>
        <time>2012-01-30T14:35:45Z</time>
      </trkpt>
      <trkpt lat="44.56313" lon="0.86682">
        <ele>161</ele>
        <time>2012-01-30T14:35:46Z</time>
      </trkpt>
      <trkpt lat="44.56311" lon="0.86676">
        <ele>161</ele>
        <time>2012-01-30T14:35:47Z</time>
      </trkpt>
      <trkpt lat="44.5631" lon="0.8667">
        <ele>161</ele>
        <time>2012-01-30T14:35:48Z</time>
      </trkpt>
      <trkpt lat="44.56308" lon="0.86663">
        <ele>161</ele>
        <time>2012-01-30T14:35:49Z</time>
      </trkpt>
      <trkpt lat="44.56306" lon="0.86656">
        <ele>161</ele>
        <time>2012-01-30T14:35:50Z</time>
      </trkpt>
      <trkpt lat="44.56304" lon="0.8665">
        <ele>161</ele>
        <time>2012-01-30T14:35:51Z</time>
      </trkpt>
      <trkpt lat="44.56301" lon="0.86644">
        <ele>161</ele>
        <time>2012-01-30T14:35:52Z</time>
      </trkpt>
      <trkpt lat="44.56298" lon="0.86638">
        <ele>161</ele>
        <time>2012-01-30T14:35:53Z</time>
      </trkpt>
      <trkpt lat="44.56296" lon="0.86632">
        <ele>161</ele>
        <time>2012-01-30T14:35:54Z</time>
      </trkpt>
      <trkpt lat="44.56295" lon="0.86626">
        <ele>161</ele>
        <time>2012-01-30T14:35:55Z</time>
      </trkpt>
      <trkpt lat="44.56294" lon="0.8662">
        <ele>161</ele>
        <time>2012-01-30T14:35:56Z</time>
      </trkpt>
      <trkpt lat="44.56294" lon="0.86615">
        <ele>160</ele>
        <time>2012-01-30T14:35:57Z</time>
      </trkpt>
      <trkpt lat="44.56295" lon="0.86611">
        <ele>160</ele>
        <time>2012-01-30T14:35:58Z</time>
      </trkpt>
      <trkpt lat="44.56297" lon="0.86607">
        <ele>160</ele>
        <time>2012-01-30T14:35:59Z</time>
      </trkpt>
      <trkpt lat="44.563" lon="0.86602">
        <ele>159</ele>
        <time>2012-01-30T14:36:00Z</time>
      </trkpt>
      <trkpt lat="44.56302" lon="0.86597">
        <ele>159</ele>
        <time>2012-01-30T14:36:01Z</time>
      </trkpt>
      <trkpt lat="44.56305" lon="0.86592">
        <ele>159</ele>
        <time>2012-01-30T14:36:02Z</time>
      </trkpt>
      <trkpt lat="44.56309" lon="0.86587">
        <ele>159</ele>
        <time>2012-01-30T14:36:03Z</time>
      </trkpt>
      <trkpt lat="44.56312" lon="0.86582">
        <ele>158</ele>
        <time>2012-01-30T14:36:04Z</time>
      </trkpt>
      <trkpt lat="44.56314" lon="0.86576">
        <ele>158</ele>
        <time>2012-01-30T14:36:05Z</time>
      </trkpt>
      <trkpt lat="44.56317" lon="0.86571">
        <ele>158</ele>
        <time>2012-01-30T14:36:06Z</time>
      </trkpt>
      <trkpt lat="44.5632" lon="0.86564">
        <ele>157</ele>
        <time>2012-01-30T14:36:07Z</time>
      </trkpt>
      <trkpt lat="44.56322" lon="0.86558">
        <ele>156</ele>
        <time>2012-01-30T14:36:08Z</time>
      </trkpt>
      <trkpt lat="44.56324" lon="0.86551">
        <ele>155</ele>
        <time>2012-01-30T14:36:09Z</time>
      </trkpt>
      <trkpt lat="44.56326" lon="0.86545">
        <ele>154</ele>
        <time>2012-01-30T14:36:10Z</time>
      </trkpt>
      <trkpt lat="44.56328" lon="0.8654">
        <ele>153</ele>
        <time>2012-01-30T14:36:11Z</time>
      </trkpt>
      <trkpt lat="44.5633" lon="0.86535">
        <ele>153</ele>
        <time>2012-01-30T14:36:12Z</time>
      </trkpt>
      <trkpt lat="44.56334" lon="0.86527">
        <ele>152</ele>
        <time>2012-01-30T14:36:13Z</time>
      </trkpt>
      <trkpt lat="44.56337" lon="0.86519">
        <ele>151</ele>
        <time>2012-01-30T14:36:14Z</time>
      </trkpt>
      <trkpt lat="44.56341" lon="0.86512">
        <ele>150</ele>
        <time>2012-01-30T14:36:15Z</time>
      </trkpt>
      <trkpt lat="44.56346" lon="0.86505">
        <ele>149</ele>
        <time>2012-01-30T14:36:16Z</time>
      </trkpt>
      <trkpt lat="44.56349" lon="0.86495">
        <ele>147</ele>
        <time>2012-01-30T14:36:17Z</time>
      </trkpt>
      <trkpt lat="44.56354" lon="0.86485">
        <ele>145</ele>
        <time>2012-01-30T14:36:18Z</time>
      </trkpt>
      <trkpt lat="44.56357" lon="0.86476">
        <ele>143</ele>
        <time>2012-01-30T14:36:19Z</time>
      </trkpt>
      <trkpt lat="44.56361" lon="0.86465">
        <ele>141</ele>
        <time>2012-01-30T14:36:20Z</time>
      </trkpt>
      <trkpt lat="44.56363" lon="0.86456">
        <ele>139</ele>
        <time>2012-01-30T14:36:21Z</time>
      </trkpt>
      <trkpt lat="44.56368" lon="0.86444">
        <ele>137</ele>
        <time>2012-01-30T14:36:22Z</time>
      </trkpt>
      <trkpt lat="44.5637" lon="0.86434">
        <ele>135</ele>
        <time>2012-01-30T14:36:23Z</time>
      </trkpt>
      <trkpt lat="44.56371" lon="0.86422">
        <ele>133</ele>
        <time>2012-01-30T14:36:24Z</time>
      </trkpt>
      <trkpt lat="44.56372" lon="0.86412">
        <ele>131</ele>
        <time>2012-01-30T14:36:25Z</time>
      </trkpt>
      <trkpt lat="44.56373" lon="0.86402">
        <ele>129</ele>
        <time>2012-01-30T14:36:26Z</time>
      </trkpt>
      <trkpt lat="44.56371" lon="0.86395">
        <ele>128</ele>
        <time>2012-01-30T14:36:27Z</time>
      </trkpt>
      <trkpt lat="44.56374" lon="0.86385">
        <ele>128</ele>
        <time>2012-01-30T14:36:28Z</time>
      </trkpt>
      <trkpt lat="44.56373" lon="0.86376">
        <ele>128</ele>
        <time>2012-01-30T14:36:29Z</time>
      </trkpt>
      <trkpt lat="44.56372" lon="0.86366">
        <ele>129</ele>
        <time>2012-01-30T14:36:30Z</time>
      </trkpt>
      <trkpt lat="44.5637" lon="0.86357">
        <ele>131</ele>
        <time>2012-01-30T14:36:31Z</time>
      </trkpt>
      <trkpt lat="44.56366" lon="0.86347">
        <ele>133</ele>
        <time>2012-01-30T14:36:32Z</time>
      </trkpt>
      <trkpt lat="44.56363" lon="0.86339">
        <ele>135</ele>
        <time>2012-01-30T14:36:33Z</time>
      </trkpt>
      <trkpt lat="44.56359" lon="0.8633">
        <ele>137</ele>
        <time>2012-01-30T14:36:34Z</time>
      </trkpt>
      <trkpt lat="44.56356" lon="0.86322">
        <ele>139</ele>
        <time>2012-01-30T14:36:35Z</time>
      </trkpt>
      <trkpt lat="44.56354" lon="0.86313">
        <ele>141</ele>
        <time>2012-01-30T14:36:36Z</time>
      </trkpt>
      <trkpt lat="44.56352" lon="0.86305">
        <ele>142</ele>
        <time>2012-01-30T14:36:37Z</time>
      </trkpt>
      <trkpt lat="44.5635" lon="0.86298">
        <ele>143</ele>
        <time>2012-01-30T14:36:38Z</time>
      </trkpt>
      <trkpt lat="44.56348" lon="0.86291">
        <ele>144</ele>
        <time>2012-01-30T14:36:39Z</time>
      </trkpt>
      <trkpt lat="44.56346" lon="0.86284">
        <ele>145</ele>
        <time>2012-01-30T14:36:40Z</time>
      </trkpt>
      <trkpt lat="44.56345" lon="0.86275">
        <ele>145</ele>
        <time>2012-01-30T14:36:41Z</time>
      </trkpt>
      <trkpt lat="44.56346" lon="0.86267">
        <ele>145</ele>
        <time>2012-01-30T14:36:42Z</time>
      </trkpt>
      <trkpt lat="44.56346" lon="0.86258">
        <ele>145</ele>
        <time>2012-01-30T14:36:43Z</time>
      </trkpt>
      <trkpt lat="44.56346" lon="0.86248">
        <ele>145</ele>
        <time>2012-01-30T14:36:44Z</time>
      </trkpt>
      <trkpt lat="44.56346" lon="0.86238">
        <ele>145</ele>
        <time>2012-01-30T14:36:45Z</time>
      </trkpt>
      <trkpt lat="44.56345" lon="0.86228">
        <ele>145</ele>
        <time>2012-01-30T14:36:46Z</time>
      </trkpt>
      <trkpt lat="44.56342" lon="0.8622">
        <ele>145</ele>
        <time>2012-01-30T14:36:47Z</time>
      </trkpt>
      <trkpt lat="44.56338" lon="0.86212">
        <ele>145</ele>
        <time>2012-01-30T14:36:48Z</time>
      </trkpt>
      <trkpt lat="44.56334" lon="0.86204">
        <ele>145</ele>
        <time>2012-01-30T14:36:49Z</time>
      </trkpt>
      <trkpt lat="44.5633" lon="0.86197">
        <ele>145</ele>
        <time>2012-01-30T14:36:50Z</time>
      </trkpt>
      <trkpt lat="44.56324" lon="0.86191">
        <ele>145</ele>
        <time>2012-01-30T14:36:51Z</time>
      </trkpt>
      <trkpt lat="44.56318" lon="0.86185">
        <ele>145</ele>
        <time>2012-01-30T14:36:52Z</time>
      </trkpt>
      <trkpt lat="44.56312" lon="0.8618">
        <ele>145</ele>
        <time>2012-01-30T14:36:53Z</time>
      </trkpt>
      <trkpt lat="44.56305" lon="0.86174">
        <ele>145</ele>
        <time>2012-01-30T14:36:54Z</time>
      </trkpt>
      <trkpt lat="44.563" lon="0.86171">
        <ele>145</ele>
        <time>2012-01-30T14:36:55Z</time>
      </trkpt>
      <trkpt lat="44.56295" lon="0.86167">
        <ele>145</ele>
        <time>2012-01-30T14:36:56Z</time>
      </trkpt>
      <trkpt lat="44.5629" lon="0.86161">
        <ele>145</ele>
        <time>2012-01-30T14:36:57Z</time>
      </trkpt>
      <trkpt lat="44.56284" lon="0.86156">
        <ele>145</ele>
        <time>2012-01-30T14:36:58Z</time>
      </trkpt>
      <trkpt lat="44.5628" lon="0.86153">
        <ele>145</ele>
        <time>2012-01-30T14:36:59Z</time>
      </trkpt>
      <trkpt lat="44.56276" lon="0.86149">
        <ele>145</ele>
        <time>2012-01-30T14:37:00Z</time>
      </trkpt>
      <trkpt lat="44.56274" lon="0.86145">
        <ele>145</ele>
        <time>2012-01-30T14:37:01Z</time>
      </trkpt>
      <trkpt lat="44.56273" lon="0.86143">
        <ele>145</ele>
        <time>2012-01-30T14:37:02Z</time>
      </trkpt>
      <trkpt lat="44.56274" lon="0.86142">
        <ele>145</ele>
        <time>2012-01-30T14:37:03Z</time>
      </trkpt>
      <trkpt lat="44.56277" lon="0.8614">
        <ele>144</ele>
        <time>2012-01-30T14:37:05Z</time>
      </trkpt>
      <trkpt lat="44.56278" lon="0.8614">
        <ele>144</ele>
        <time>2012-01-30T14:37:07Z</time>
      </trkpt>
      <trkpt lat="44.56279" lon="0.8614">
        <ele>144</ele>
        <time>2012-01-30T14:37:10Z</time>
      </trkpt>
      <trkpt lat="44.56281" lon="0.8614">
        <ele>144</ele>
        <time>2012-01-30T14:37:11Z</time>
      </trkpt>
      <trkpt lat="44.56282" lon="0.86141">
        <ele>142</ele>
        <time>2012-01-30T14:37:13Z</time>
      </trkpt>
      <trkpt lat="44.56282" lon="0.86143">
        <ele>140</ele>
        <time>2012-01-30T14:37:15Z</time>
      </trkpt>
      <trkpt lat="44.5628" lon="0.86142">
        <ele>138</ele>
        <time>2012-01-30T14:37:17Z</time>
      </trkpt>
      <trkpt lat="44.56279" lon="0.86141">
        <ele>133</ele>
        <time>2012-01-30T14:37:22Z</time>
      </trkpt>
      <trkpt lat="44.56279" lon="0.86139">
        <ele>132</ele>
        <time>2012-01-30T14:37:24Z</time>
      </trkpt>
      <trkpt lat="44.5628" lon="0.86138">
        <ele>132</ele>
        <time>2012-01-30T14:37:26Z</time>
      </trkpt>
      <trkpt lat="44.56282" lon="0.86141">
        <ele>132</ele>
        <time>2012-01-30T14:37:28Z</time>
      </trkpt>
      <trkpt lat="44.56282" lon="0.86142">
        <ele>132</ele>
        <time>2012-01-30T14:37:29Z</time>
      </trkpt>
      <trkpt lat="44.56282" lon="0.86144">
        <ele>130</ele>
        <time>2012-01-30T14:37:31Z</time>
      </trkpt>
      <trkpt lat="44.56282" lon="0.86146">
        <ele>128</ele>
        <time>2012-01-30T14:37:43Z</time>
      </trkpt>
      <trkpt lat="44.5628" lon="0.86145">
        <ele>128</ele>
        <time>2012-01-30T14:37:56Z</time>
      </trkpt>
      <trkpt lat="44.56279" lon="0.86144">
        <ele>129</ele>
        <time>2012-01-30T14:38:02Z</time>
      </trkpt>
      <trkpt lat="44.56277" lon="0.86142">
        <ele>130</ele>
        <time>2012-01-30T14:38:16Z</time>
      </trkpt>
      <trkpt lat="44.56275" lon="0.86143">
        <ele>130</ele>
        <time>2012-01-30T14:38:18Z</time>
      </trkpt>
      <trkpt lat="44.56274" lon="0.86142">
        <ele>130</ele>
        <time>2012-01-30T14:38:20Z</time>
      </trkpt>
      <trkpt lat="44.56274" lon="0.8614">
        <ele>130</ele>
        <time>2012-01-30T14:38:23Z</time>
      </trkpt>
      <trkpt lat="44.56274" lon="0.86138">
        <ele>131</ele>
        <time>2012-01-30T14:38:25Z</time>
      </trkpt>
      <trkpt lat="44.56274" lon="0.8614">
        <ele>133</ele>
        <time>2012-01-30T14:38:27Z</time>
      </trkpt>
      <trkpt lat="44.56276" lon="0.86141">
        <ele>134</ele>
        <time>2012-01-30T14:38:29Z</time>
      </trkpt>
      <trkpt lat="44.56277" lon="0.86143">
        <ele>134</ele>
        <time>2012-01-30T14:38:33Z</time>
      </trkpt>
      <trkpt lat="44.56275" lon="0.86139">
        <ele>134</ele>
        <time>2012-01-30T14:38:35Z</time>
      </trkpt>
      <trkpt lat="44.56273" lon="0.86137">
        <ele>134</ele>
        <time>2012-01-30T14:38:37Z</time>
      </trkpt>
      <trkpt lat="44.56273" lon="0.86139">
        <ele>133</ele>
        <time>2012-01-30T14:38:39Z</time>
      </trkpt>
      <trkpt lat="44.56273" lon="0.86142">
        <ele>131</ele>
        <time>2012-01-30T14:38:41Z</time>
      </trkpt>
      <trkpt lat="44.56275" lon="0.86143">
        <ele>129</ele>
        <time>2012-01-30T14:38:43Z</time>
      </trkpt>
      <trkpt lat="44.56274" lon="0.86144">
        <ele>128</ele>
        <time>2012-01-30T14:38:48Z</time>
      </trkpt>
      <trkpt lat="44.56276" lon="0.86145">
        <ele>128</ele>
        <time>2012-01-30T14:38:50Z</time>
      </trkpt>
      <trkpt lat="44.56274" lon="0.86145">
        <ele>124</ele>
        <time>2012-01-30T14:38:55Z</time>
      </trkpt>
      <trkpt lat="44.56273" lon="0.86144">
        <ele>123</ele>
        <time>2012-01-30T14:39:00Z</time>
      </trkpt>
      <trkpt lat="44.56275" lon="0.86143">
        <ele>122</ele>
        <time>2012-01-30T14:39:05Z</time>
      </trkpt>
      <trkpt lat="44.56276" lon="0.86142">
        <ele>122</ele>
        <time>2012-01-30T14:39:06Z</time>
      </trkpt>
      <trkpt lat="44.56277" lon="0.86141">
        <ele>122</ele>
        <time>2012-01-30T14:39:07Z</time>
      </trkpt>
      <trkpt lat="44.56279" lon="0.86141">
        <ele>122</ele>
        <time>2012-01-30T14:39:08Z</time>
      </trkpt>
      <trkpt lat="44.56282" lon="0.86139">
        <ele>122</ele>
        <time>2012-01-30T14:39:09Z</time>
      </trkpt>
      <trkpt lat="44.56284" lon="0.86139">
        <ele>122</ele>
        <time>2012-01-30T14:39:10Z</time>
      </trkpt>
      <trkpt lat="44.56286" lon="0.86139">
        <ele>123</ele>
        <time>2012-01-30T14:39:11Z</time>
      </trkpt>
      <trkpt lat="44.56288" lon="0.8614">
        <ele>124</ele>
        <time>2012-01-30T14:39:12Z</time>
      </trkpt>
      <trkpt lat="44.5629" lon="0.86139">
        <ele>125</ele>
        <time>2012-01-30T14:39:13Z</time>
      </trkpt>
      <trkpt lat="44.56293" lon="0.86139">
        <ele>126</ele>
        <time>2012-01-30T14:39:14Z</time>
      </trkpt>
      <trkpt lat="44.56297" lon="0.86138">
        <ele>127</ele>
        <time>2012-01-30T14:39:15Z</time>
      </trkpt>
      <trkpt lat="44.56301" lon="0.86136">
        <ele>127</ele>
        <time>2012-01-30T14:39:16Z</time>
      </trkpt>
      <trkpt lat="44.56305" lon="0.86135">
        <ele>127</ele>
        <time>2012-01-30T14:39:17Z</time>
      </trkpt>
      <trkpt lat="44.56309" lon="0.86134">
        <ele>127</ele>
        <time>2012-01-30T14:39:18Z</time>
      </trkpt>
      <trkpt lat="44.56313" lon="0.86133">
        <ele>127</ele>
        <time>2012-01-30T14:39:19Z</time>
      </trkpt>
      <trkpt lat="44.56317" lon="0.86132">
        <ele>127</ele>
        <time>2012-01-30T14:39:20Z</time>
      </trkpt>
      <trkpt lat="44.56321" lon="0.86131">
        <ele>127</ele>
        <time>2012-01-30T14:39:21Z</time>
      </trkpt>
      <trkpt lat="44.56324" lon="0.86131">
        <ele>127</ele>
        <time>2012-01-30T14:39:22Z</time>
      </trkpt>
      <trkpt lat="44.56327" lon="0.86131">
        <ele>127</ele>
        <time>2012-01-30T14:39:23Z</time>
      </trkpt>
      <trkpt lat="44.5633" lon="0.86131">
        <ele>127</ele>
        <time>2012-01-30T14:39:24Z</time>
      </trkpt>
      <trkpt lat="44.56334" lon="0.8613">
        <ele>127</ele>
        <time>2012-01-30T14:39:25Z</time>
      </trkpt>
      <trkpt lat="44.56337" lon="0.86129">
        <ele>127</ele>
        <time>2012-01-30T14:39:26Z</time>
      </trkpt>
      <trkpt lat="44.56341" lon="0.86128">
        <ele>127</ele>
        <time>2012-01-30T14:39:27Z</time>
      </trkpt>
      <trkpt lat="44.56345" lon="0.86127">
        <ele>127</ele>
        <time>2012-01-30T14:39:28Z</time>
      </trkpt>
      <trkpt lat="44.56348" lon="0.86126">
        <ele>127</ele>
        <time>2012-01-30T14:39:29Z</time>
      </trkpt>
      <trkpt lat="44.56352" lon="0.86126">
        <ele>127</ele>
        <time>2012-01-30T14:39:30Z</time>
      </trkpt>
      <trkpt lat="44.56356" lon="0.86125">
        <ele>127</ele>
        <time>2012-01-30T14:39:31Z</time>
      </trkpt>
      <trkpt lat="44.5636" lon="0.86124">
        <ele>127</ele>
        <time>2012-01-30T14:39:32Z</time>
      </trkpt>
      <trkpt lat="44.56364" lon="0.86124">
        <ele>127</ele>
        <time>2012-01-30T14:39:33Z</time>
      </trkpt>
      <trkpt lat="44.56367" lon="0.86124">
        <ele>127</ele>
        <time>2012-01-30T14:39:34Z</time>
      </trkpt>
      <trkpt lat="44.56371" lon="0.86124">
        <ele>127</ele>
        <time>2012-01-30T14:39:35Z</time>
      </trkpt>
      <trkpt lat="44.56374" lon="0.86124">
        <ele>127</ele>
        <time>2012-01-30T14:39:36Z</time>
      </trkpt>
      <trkpt lat="44.56378" lon="0.86124">
        <ele>127</ele>
        <time>2012-01-30T14:39:37Z</time>
      </trkpt>
      <trkpt lat="44.56381" lon="0.86124">
        <ele>127</ele>
        <time>2012-01-30T14:39:38Z</time>
      </trkpt>
      <trkpt lat="44.56385" lon="0.86124">
        <ele>128</ele>
        <time>2012-01-30T14:39:39Z</time>
      </trkpt>
      <trkpt lat="44.56388" lon="0.86124">
        <ele>129</ele>
        <time>2012-01-30T14:39:40Z</time>
      </trkpt>
      <trkpt lat="44.56392" lon="0.86123">
        <ele>129</ele>
        <time>2012-01-30T14:39:41Z</time>
      </trkpt>
      <trkpt lat="44.56396" lon="0.86123">
        <ele>130</ele>
        <time>2012-01-30T14:39:42Z</time>
      </trkpt>
      <trkpt lat="44.564" lon="0.86123">
        <ele>131</ele>
        <time>2012-01-30T14:39:44Z</time>
      </trkpt>
      <trkpt lat="44.56404" lon="0.86122">
        <ele>132</ele>
        <time>2012-01-30T14:39:44Z</time>
      </trkpt>
      <trkpt lat="44.56408" lon="0.86122">
        <ele>133</ele>
        <time>2012-01-30T14:39:45Z</time>
      </trkpt>
      <trkpt lat="44.56412" lon="0.86122">
        <ele>134</ele>
        <time>2012-01-30T14:39:46Z</time>
      </trkpt>
      <trkpt lat="44.56416" lon="0.86122">
        <ele>135</ele>
        <time>2012-01-30T14:39:47Z</time>
      </trkpt>
      <trkpt lat="44.56419" lon="0.86121">
        <ele>136</ele>
        <time>2012-01-30T14:39:48Z</time>
      </trkpt>
      <trkpt lat="44.56423" lon="0.86121">
        <ele>137</ele>
        <time>2012-01-30T14:39:49Z</time>
      </trkpt>
      <trkpt lat="44.56427" lon="0.86121">
        <ele>138</ele>
        <time>2012-01-30T14:39:50Z</time>
      </trkpt>
      <trkpt lat="44.5643" lon="0.86121">
        <ele>139</ele>
        <time>2012-01-30T14:39:51Z</time>
      </trkpt>
      <trkpt lat="44.56434" lon="0.86121">
        <ele>139</ele>
        <time>2012-01-30T14:39:52Z</time>
      </trkpt>
      <trkpt lat="44.56438" lon="0.8612">
        <ele>140</ele>
        <time>2012-01-30T14:39:53Z</time>
      </trkpt>
      <trkpt lat="44.56441" lon="0.8612">
        <ele>141</ele>
        <time>2012-01-30T14:39:54Z</time>
      </trkpt>
      <trkpt lat="44.56445" lon="0.8612">
        <ele>141</ele>
        <time>2012-01-30T14:39:55Z</time>
      </trkpt>
      <trkpt lat="44.56449" lon="0.8612">
        <ele>142</ele>
        <time>2012-01-30T14:39:56Z</time>
      </trkpt>
      <trkpt lat="44.56452" lon="0.8612">
        <ele>143</ele>
        <time>2012-01-30T14:39:57Z</time>
      </trkpt>
      <trkpt lat="44.56456" lon="0.86119">
        <ele>144</ele>
        <time>2012-01-30T14:39:58Z</time>
      </trkpt>
      <trkpt lat="44.56461" lon="0.86118">
        <ele>144</ele>
        <time>2012-01-30T14:39:59Z</time>
      </trkpt>
      <trkpt lat="44.56467" lon="0.86115">
        <ele>144</ele>
        <time>2012-01-30T14:40:00Z</time>
      </trkpt>
      <trkpt lat="44.56471" lon="0.86115">
        <ele>144</ele>
        <time>2012-01-30T14:40:01Z</time>
      </trkpt>
      <trkpt lat="44.56475" lon="0.86114">
        <ele>144</ele>
        <time>2012-01-30T14:40:02Z</time>
      </trkpt>
      <trkpt lat="44.5648" lon="0.86113">
        <ele>144</ele>
        <time>2012-01-30T14:40:03Z</time>
      </trkpt>
      <trkpt lat="44.56484" lon="0.86113">
        <ele>144</ele>
        <time>2012-01-30T14:40:04Z</time>
      </trkpt>
      <trkpt lat="44.56488" lon="0.86113">
        <ele>144</ele>
        <time>2012-01-30T14:40:05Z</time>
      </trkpt>
      <trkpt lat="44.56492" lon="0.86113">
        <ele>144</ele>
        <time>2012-01-30T14:40:06Z</time>
      </trkpt>
      <trkpt lat="44.56496" lon="0.86114">
        <ele>144</ele>
        <time>2012-01-30T14:40:07Z</time>
      </trkpt>
      <trkpt lat="44.565" lon="0.86114">
        <ele>144</ele>
        <time>2012-01-30T14:40:08Z</time>
      </trkpt>
      <trkpt lat="44.56505" lon="0.86114">
        <ele>144</ele>
        <time>2012-01-30T14:40:09Z</time>
      </trkpt>
      <trkpt lat="44.56509" lon="0.86114">
        <ele>145</ele>
        <time>2012-01-30T14:40:10Z</time>
      </trkpt>
      <trkpt lat="44.56513" lon="0.86114">
        <ele>146</ele>
        <time>2012-01-30T14:40:11Z</time>
      </trkpt>
      <trkpt lat="44.56517" lon="0.86114">
        <ele>147</ele>
        <time>2012-01-30T14:40:12Z</time>
      </trkpt>
      <trkpt lat="44.5652" lon="0.86115">
        <ele>148</ele>
        <time>2012-01-30T14:40:13Z</time>
      </trkpt>
      <trkpt lat="44.56525" lon="0.86114">
        <ele>149</ele>
        <time>2012-01-30T14:40:14Z</time>
      </trkpt>
      <trkpt lat="44.56528" lon="0.86115">
        <ele>150</ele>
        <time>2012-01-30T14:40:15Z</time>
      </trkpt>
      <trkpt lat="44.56533" lon="0.86114">
        <ele>151</ele>
        <time>2012-01-30T14:40:16Z</time>
      </trkpt>
      <trkpt lat="44.56537" lon="0.86113">
        <ele>152</ele>
        <time>2012-01-30T14:40:17Z</time>
      </trkpt>
      <trkpt lat="44.56542" lon="0.86111">
        <ele>152</ele>
        <time>2012-01-30T14:40:18Z</time>
      </trkpt>
      <trkpt lat="44.56546" lon="0.86109">
        <ele>152</ele>
        <time>2012-01-30T14:40:19Z</time>
      </trkpt>
      <trkpt lat="44.5655" lon="0.86107">
        <ele>152</ele>
        <time>2012-01-30T14:40:20Z</time>
      </trkpt>
      <trkpt lat="44.56554" lon="0.86105">
        <ele>152</ele>
        <time>2012-01-30T14:40:21Z</time>
      </trkpt>
      <trkpt lat="44.56558" lon="0.86102">
        <ele>153</ele>
        <time>2012-01-30T14:40:22Z</time>
      </trkpt>
      <trkpt lat="44.56562" lon="0.86099">
        <ele>153</ele>
        <time>2012-01-30T14:40:23Z</time>
      </trkpt>
      <trkpt lat="44.56565" lon="0.86097">
        <ele>153</ele>
        <time>2012-01-30T14:40:24Z</time>
      </trkpt>
      <trkpt lat="44.56567" lon="0.86094">
        <ele>154</ele>
        <time>2012-01-30T14:40:25Z</time>
      </trkpt>
      <trkpt lat="44.5657" lon="0.86092">
        <ele>154</ele>
        <time>2012-01-30T14:40:26Z</time>
      </trkpt>
      <trkpt lat="44.56572" lon="0.86089">
        <ele>155</ele>
        <time>2012-01-30T14:40:27Z</time>
      </trkpt>
      <trkpt lat="44.56576" lon="0.86085">
        <ele>155</ele>
        <time>2012-01-30T14:40:28Z</time>
      </trkpt>
      <trkpt lat="44.56578" lon="0.86079">
        <ele>155</ele>
        <time>2012-01-30T14:40:29Z</time>
      </trkpt>
      <trkpt lat="44.56581" lon="0.86073">
        <ele>155</ele>
        <time>2012-01-30T14:40:30Z</time>
      </trkpt>
      <trkpt lat="44.56585" lon="0.86067">
        <ele>155</ele>
        <time>2012-01-30T14:40:31Z</time>
      </trkpt>
      <trkpt lat="44.56588" lon="0.86062">
        <ele>155</ele>
        <time>2012-01-30T14:40:32Z</time>
      </trkpt>
      <trkpt lat="44.56591" lon="0.86057">
        <ele>155</ele>
        <time>2012-01-30T14:40:33Z</time>
      </trkpt>
      <trkpt lat="44.56593" lon="0.86051">
        <ele>155</ele>
        <time>2012-01-30T14:40:34Z</time>
      </trkpt>
      <trkpt lat="44.56595" lon="0.86046">
        <ele>155</ele>
        <time>2012-01-30T14:40:35Z</time>
      </trkpt>
      <trkpt lat="44.56596" lon="0.86041">
        <ele>156</ele>
        <time>2012-01-30T14:40:36Z</time>
      </trkpt>
      <trkpt lat="44.56599" lon="0.86034">
        <ele>156</ele>
        <time>2012-01-30T14:40:37Z</time>
      </trkpt>
      <trkpt lat="44.56602" lon="0.86028">
        <ele>156</ele>
        <time>2012-01-30T14:40:38Z</time>
      </trkpt>
      <trkpt lat="44.56603" lon="0.86022">
        <ele>156</ele>
        <time>2012-01-30T14:40:39Z</time>
      </trkpt>
      <trkpt lat="44.56605" lon="0.86016">
        <ele>156</ele>
        <time>2012-01-30T14:40:40Z</time>
      </trkpt>
      <trkpt lat="44.56607" lon="0.8601">
        <ele>156</ele>
        <time>2012-01-30T14:40:41Z</time>
      </trkpt>
      <trkpt lat="44.56608" lon="0.86004">
        <ele>156</ele>
        <time>2012-01-30T14:40:42Z</time>
      </trkpt>
      <trkpt lat="44.5661" lon="0.85998">
        <ele>156</ele>
        <time>2012-01-30T14:40:43Z</time>
      </trkpt>
      <trkpt lat="44.5661" lon="0.85992">
        <ele>156</ele>
        <time>2012-01-30T14:40:44Z</time>
      </trkpt>
      <trkpt lat="44.56611" lon="0.85986">
        <ele>156</ele>
        <time>2012-01-30T14:40:45Z</time>
      </trkpt>
      <trkpt lat="44.56611" lon="0.8598">
        <ele>156</ele>
        <time>2012-01-30T14:40:46Z</time>
      </trkpt>
      <trkpt lat="44.56612" lon="0.85974">
        <ele>156</ele>
        <time>2012-01-30T14:40:47Z</time>
      </trkpt>
      <trkpt lat="44.56613" lon="0.85969">
        <ele>156</ele>
        <time>2012-01-30T14:40:48Z</time>
      </trkpt>
      <trkpt lat="44.56613" lon="0.85963">
        <ele>156</ele>
        <time>2012-01-30T14:40:49Z</time>
      </trkpt>
      <trkpt lat="44.56613" lon="0.85957">
        <ele>156</ele>
        <time>2012-01-30T14:40:50Z</time>
      </trkpt>
      <trkpt lat="44.56614" lon="0.85951">
        <ele>155</ele>
        <time>2012-01-30T14:40:51Z</time>
      </trkpt>
      <trkpt lat="44.56615" lon="0.85945">
        <ele>155</ele>
        <time>2012-01-30T14:40:52Z</time>
      </trkpt>
      <trkpt lat="44.56615" lon="0.85939">
        <ele>154</ele>
        <time>2012-01-30T14:40:53Z</time>
      </trkpt>
      <trkpt lat="44.56615" lon="0.85934">
        <ele>154</ele>
        <time>2012-01-30T14:40:54Z</time>
      </trkpt>
      <trkpt lat="44.56616" lon="0.85928">
        <ele>154</ele>
        <time>2012-01-30T14:40:55Z</time>
      </trkpt>
      <trkpt lat="44.56617" lon="0.85923">
        <ele>154</ele>
        <time>2012-01-30T14:40:56Z</time>
      </trkpt>
      <trkpt lat="44.56617" lon="0.85917">
        <ele>154</ele>
        <time>2012-01-30T14:40:57Z</time>
      </trkpt>
      <trkpt lat="44.56617" lon="0.85911">
        <ele>154</ele>
        <time>2012-01-30T14:40:58Z</time>
      </trkpt>
      <trkpt lat="44.56617" lon="0.85905">
        <ele>154</ele>
        <time>2012-01-30T14:40:59Z</time>
      </trkpt>
      <trkpt lat="44.56617" lon="0.85898">
        <ele>154</ele>
        <time>2012-01-30T14:41:00Z</time>
      </trkpt>
      <trkpt lat="44.56618" lon="0.85892">
        <ele>154</ele>
        <time>2012-01-30T14:41:01Z</time>
      </trkpt>
      <trkpt lat="44.56619" lon="0.85887">
        <ele>154</ele>
        <time>2012-01-30T14:41:02Z</time>
      </trkpt>
      <trkpt lat="44.56619" lon="0.85881">
        <ele>154</ele>
        <time>2012-01-30T14:41:03Z</time>
      </trkpt>
      <trkpt lat="44.5662" lon="0.85876">
        <ele>154</ele>
        <time>2012-01-30T14:41:04Z</time>
      </trkpt>
      <trkpt lat="44.56621" lon="0.8587">
        <ele>154</ele>
        <time>2012-01-30T14:41:05Z</time>
      </trkpt>
      <trkpt lat="44.5662" lon="0.85863">
        <ele>154</ele>
        <time>2012-01-30T14:41:06Z</time>
      </trkpt>
      <trkpt lat="44.56621" lon="0.85857">
        <ele>154</ele>
        <time>2012-01-30T14:41:07Z</time>
      </trkpt>
      <trkpt lat="44.5662" lon="0.85852">
        <ele>154</ele>
        <time>2012-01-30T14:41:08Z</time>
      </trkpt>
      <trkpt lat="44.5662" lon="0.85846">
        <ele>155</ele>
        <time>2012-01-30T14:41:09Z</time>
      </trkpt>
      <trkpt lat="44.56621" lon="0.85839">
        <ele>155</ele>
        <time>2012-01-30T14:41:10Z</time>
      </trkpt>
      <trkpt lat="44.56621" lon="0.85834">
        <ele>156</ele>
        <time>2012-01-30T14:41:11Z</time>
      </trkpt>
      <trkpt lat="44.56621" lon="0.85828">
        <ele>156</ele>
        <time>2012-01-30T14:41:12Z</time>
      </trkpt>
      <trkpt lat="44.5662" lon="0.85821">
        <ele>157</ele>
        <time>2012-01-30T14:41:13Z</time>
      </trkpt>
      <trkpt lat="44.5662" lon="0.85815">
        <ele>157</ele>
        <time>2012-01-30T14:41:14Z</time>
      </trkpt>
      <trkpt lat="44.56619" lon="0.85809">
        <ele>157</ele>
        <time>2012-01-30T14:41:15Z</time>
      </trkpt>
      <trkpt lat="44.5662" lon="0.85803">
        <ele>157</ele>
        <time>2012-01-30T14:41:16Z</time>
      </trkpt>
      <trkpt lat="44.5662" lon="0.85796">
        <ele>158</ele>
        <time>2012-01-30T14:41:17Z</time>
      </trkpt>
      <trkpt lat="44.5662" lon="0.85791">
        <ele>159</ele>
        <time>2012-01-30T14:41:18Z</time>
      </trkpt>
      <trkpt lat="44.5662" lon="0.85785">
        <ele>160</ele>
        <time>2012-01-30T14:41:19Z</time>
      </trkpt>
      <trkpt lat="44.56619" lon="0.8578">
        <ele>160</ele>
        <time>2012-01-30T14:41:20Z</time>
      </trkpt>
      <trkpt lat="44.56619" lon="0.85774">
        <ele>161</ele>
        <time>2012-01-30T14:41:21Z</time>
      </trkpt>
      <trkpt lat="44.56618" lon="0.85768">
        <ele>161</ele>
        <time>2012-01-30T14:41:22Z</time>
      </trkpt>
      <trkpt lat="44.56618" lon="0.85762">
        <ele>161</ele>
        <time>2012-01-30T14:41:23Z</time>
      </trkpt>
      <trkpt lat="44.56618" lon="0.85756">
        <ele>161</ele>
        <time>2012-01-30T14:41:24Z</time>
      </trkpt>
      <trkpt lat="44.56618" lon="0.8575">
        <ele>161</ele>
        <time>2012-01-30T14:41:25Z</time>
      </trkpt>
      <trkpt lat="44.5662" lon="0.85745">
        <ele>161</ele>
        <time>2012-01-30T14:41:26Z</time>
      </trkpt>
      <trkpt lat="44.5662" lon="0.85739">
        <ele>161</ele>
        <time>2012-01-30T14:41:27Z</time>
      </trkpt>
      <trkpt lat="44.56621" lon="0.85733">
        <ele>161</ele>
        <time>2012-01-30T14:41:28Z</time>
      </trkpt>
      <trkpt lat="44.5662" lon="0.85726">
        <ele>161</ele>
        <time>2012-01-30T14:41:29Z</time>
      </trkpt>
      <trkpt lat="44.5662" lon="0.8572">
        <ele>161</ele>
        <time>2012-01-30T14:41:30Z</time>
      </trkpt>
      <trkpt lat="44.5662" lon="0.85714">
        <ele>161</ele>
        <time>2012-01-30T14:41:31Z</time>
      </trkpt>
      <trkpt lat="44.56621" lon="0.85708">
        <ele>161</ele>
        <time>2012-01-30T14:41:32Z</time>
      </trkpt>
      <trkpt lat="44.56622" lon="0.85702">
        <ele>161</ele>
        <time>2012-01-30T14:41:33Z</time>
      </trkpt>
      <trkpt lat="44.56623" lon="0.85697">
        <ele>161</ele>
        <time>2012-01-30T14:41:34Z</time>
      </trkpt>
      <trkpt lat="44.56624" lon="0.85691">
        <ele>161</ele>
        <time>2012-01-30T14:41:35Z</time>
      </trkpt>
      <trkpt lat="44.56625" lon="0.85685">
        <ele>161</ele>
        <time>2012-01-30T14:41:36Z</time>
      </trkpt>
      <trkpt lat="44.56625" lon="0.8568">
        <ele>161</ele>
        <time>2012-01-30T14:41:37Z</time>
      </trkpt>
      <trkpt lat="44.56627" lon="0.85675">
        <ele>161</ele>
        <time>2012-01-30T14:41:38Z</time>
      </trkpt>
      <trkpt lat="44.56628" lon="0.8567">
        <ele>161</ele>
        <time>2012-01-30T14:41:39Z</time>
      </trkpt>
      <trkpt lat="44.56629" lon="0.85665">
        <ele>161</ele>
        <time>2012-01-30T14:41:40Z</time>
      </trkpt>
      <trkpt lat="44.5663" lon="0.8566">
        <ele>161</ele>
        <time>2012-01-30T14:41:41Z</time>
      </trkpt>
      <trkpt lat="44.56631" lon="0.85655">
        <ele>161</ele>
        <time>2012-01-30T14:41:42Z</time>
      </trkpt>
      <trkpt lat="44.56632" lon="0.8565">
        <ele>161</ele>
        <time>2012-01-30T14:41:43Z</time>
      </trkpt>
      <trkpt lat="44.56633" lon="0.85645">
        <ele>161</ele>
        <time>2012-01-30T14:41:44Z</time>
      </trkpt>
      <trkpt lat="44.56635" lon="0.85639">
        <ele>161</ele>
        <time>2012-01-30T14:41:45Z</time>
      </trkpt>
      <trkpt lat="44.56636" lon="0.85634">
        <ele>161</ele>
        <time>2012-01-30T14:41:46Z</time>
      </trkpt>
      <trkpt lat="44.56637" lon="0.85628">
        <ele>161</ele>
        <time>2012-01-30T14:41:47Z</time>
      </trkpt>
      <trkpt lat="44.56638" lon="0.85623">
        <ele>161</ele>
        <time>2012-01-30T14:41:48Z</time>
      </trkpt>
      <trkpt lat="44.56639" lon="0.85618">
        <ele>161</ele>
        <time>2012-01-30T14:41:49Z</time>
      </trkpt>
      <trkpt lat="44.5664" lon="0.85613">
        <ele>161</ele>
        <time>2012-01-30T14:41:50Z</time>
      </trkpt>
      <trkpt lat="44.56641" lon="0.85607">
        <ele>161</ele>
        <time>2012-01-30T14:41:51Z</time>
      </trkpt>
      <trkpt lat="44.56642" lon="0.85602">
        <ele>161</ele>
        <time>2012-01-30T14:41:52Z</time>
      </trkpt>
      <trkpt lat="44.56643" lon="0.85597">
        <ele>161</ele>
        <time>2012-01-30T14:41:53Z</time>
      </trkpt>
      <trkpt lat="44.56644" lon="0.85592">
        <ele>161</ele>
        <time>2012-01-30T14:41:54Z</time>
      </trkpt>
      <trkpt lat="44.56645" lon="0.85586">
        <ele>161</ele>
        <time>2012-01-30T14:41:55Z</time>
      </trkpt>
      <trkpt lat="44.56646" lon="0.85581">
        <ele>161</ele>
        <time>2012-01-30T14:41:56Z</time>
      </trkpt>
      <trkpt lat="44.56647" lon="0.85575">
        <ele>161</ele>
        <time>2012-01-30T14:41:57Z</time>
      </trkpt>
      <trkpt lat="44.56649" lon="0.85569">
        <ele>161</ele>
        <time>2012-01-30T14:41:58Z</time>
      </trkpt>
      <trkpt lat="44.56649" lon="0.85563">
        <ele>161</ele>
        <time>2012-01-30T14:41:59Z</time>
      </trkpt>
      <trkpt lat="44.5665" lon="0.85558">
        <ele>161</ele>
        <time>2012-01-30T14:42:00Z</time>
      </trkpt>
      <trkpt lat="44.56652" lon="0.85552">
        <ele>161</ele>
        <time>2012-01-30T14:42:01Z</time>
      </trkpt>
      <trkpt lat="44.56653" lon="0.85546">
        <ele>161</ele>
        <time>2012-01-30T14:42:02Z</time>
      </trkpt>
      <trkpt lat="44.56654" lon="0.85541">
        <ele>161</ele>
        <time>2012-01-30T14:42:03Z</time>
      </trkpt>
      <trkpt lat="44.56655" lon="0.85536">
        <ele>161</ele>
        <time>2012-01-30T14:42:04Z</time>
      </trkpt>
      <trkpt lat="44.56656" lon="0.85532">
        <ele>161</ele>
        <time>2012-01-30T14:42:05Z</time>
      </trkpt>
      <trkpt lat="44.56657" lon="0.85529">
        <ele>161</ele>
        <time>2012-01-30T14:42:06Z</time>
      </trkpt>
      <trkpt lat="44.56658" lon="0.85527">
        <ele>161</ele>
        <time>2012-01-30T14:42:07Z</time>
      </trkpt>
      <trkpt lat="44.56659" lon="0.85525">
        <ele>161</ele>
        <time>2012-01-30T14:42:08Z</time>
      </trkpt>
      <trkpt lat="44.5666" lon="0.85523">
        <ele>161</ele>
        <time>2012-01-30T14:42:09Z</time>
      </trkpt>
      <trkpt lat="44.56662" lon="0.8552">
        <ele>161</ele>
        <time>2012-01-30T14:42:10Z</time>
      </trkpt>
      <trkpt lat="44.56664" lon="0.85517">
        <ele>161</ele>
        <time>2012-01-30T14:42:11Z</time>
      </trkpt>
      <trkpt lat="44.56666" lon="0.85513">
        <ele>161</ele>
        <time>2012-01-30T14:42:12Z</time>
      </trkpt>
      <trkpt lat="44.56668" lon="0.8551">
        <ele>162</ele>
        <time>2012-01-30T14:42:13Z</time>
      </trkpt>
      <trkpt lat="44.5667" lon="0.85508">
        <ele>163</ele>
        <time>2012-01-30T14:42:14Z</time>
      </trkpt>
      <trkpt lat="44.56673" lon="0.85506">
        <ele>164</ele>
        <time>2012-01-30T14:42:15Z</time>
      </trkpt>
      <trkpt lat="44.56677" lon="0.85505">
        <ele>165</ele>
        <time>2012-01-30T14:42:16Z</time>
      </trkpt>
      <trkpt lat="44.5668" lon="0.85503">
        <ele>165</ele>
        <time>2012-01-30T14:42:17Z</time>
      </trkpt>
      <trkpt lat="44.56684" lon="0.85501">
        <ele>166</ele>
        <time>2012-01-30T14:42:18Z</time>
      </trkpt>
      <trkpt lat="44.56688" lon="0.85498">
        <ele>167</ele>
        <time>2012-01-30T14:42:19Z</time>
      </trkpt>
      <trkpt lat="44.56692" lon="0.85495">
        <ele>168</ele>
        <time>2012-01-30T14:42:20Z</time>
      </trkpt>
      <trkpt lat="44.56696" lon="0.85492">
        <ele>168</ele>
        <time>2012-01-30T14:42:21Z</time>
      </trkpt>
      <trkpt lat="44.567" lon="0.85488">
        <ele>169</ele>
        <time>2012-01-30T14:42:22Z</time>
      </trkpt>
      <trkpt lat="44.56704" lon="0.85484">
        <ele>169</ele>
        <time>2012-01-30T14:42:23Z</time>
      </trkpt>
      <trkpt lat="44.56707" lon="0.85481">
        <ele>169</ele>
        <time>2012-01-30T14:42:24Z</time>
      </trkpt>
      <trkpt lat="44.56711" lon="0.85478">
        <ele>169</ele>
        <time>2012-01-30T14:42:25Z</time>
      </trkpt>
      <trkpt lat="44.56715" lon="0.85476">
        <ele>169</ele>
        <time>2012-01-30T14:42:26Z</time>
      </trkpt>
      <trkpt lat="44.56718" lon="0.85474">
        <ele>169</ele>
        <time>2012-01-30T14:42:27Z</time>
      </trkpt>
      <trkpt lat="44.56722" lon="0.85473">
        <ele>169</ele>
        <time>2012-01-30T14:42:28Z</time>
      </trkpt>
      <trkpt lat="44.56726" lon="0.85471">
        <ele>169</ele>
        <time>2012-01-30T14:42:29Z</time>
      </trkpt>
      <trkpt lat="44.5673" lon="0.85469">
        <ele>169</ele>
        <time>2012-01-30T14:42:30Z</time>
      </trkpt>
      <trkpt lat="44.56733" lon="0.85467">
        <ele>169</ele>
        <time>2012-01-30T14:42:31Z</time>
      </trkpt>
      <trkpt lat="44.56737" lon="0.85465">
        <ele>170</ele>
        <time>2012-01-30T14:42:32Z</time>
      </trkpt>
      <trkpt lat="44.56741" lon="0.85463">
        <ele>170</ele>
        <time>2012-01-30T14:42:33Z</time>
      </trkpt>
      <trkpt lat="44.56745" lon="0.8546">
        <ele>170</ele>
        <time>2012-01-30T14:42:34Z</time>
      </trkpt>
      <trkpt lat="44.56749" lon="0.85458">
        <ele>170</ele>
        <time>2012-01-30T14:42:35Z</time>
      </trkpt>
      <trkpt lat="44.56753" lon="0.85455">
        <ele>170</ele>
        <time>2012-01-30T14:42:36Z</time>
      </trkpt>
      <trkpt lat="44.56757" lon="0.85453">
        <ele>170</ele>
        <time>2012-01-30T14:42:37Z</time>
      </trkpt>
      <trkpt lat="44.56761" lon="0.8545">
        <ele>170</ele>
        <time>2012-01-30T14:42:38Z</time>
      </trkpt>
      <trkpt lat="44.56766" lon="0.85445">
        <ele>170</ele>
        <time>2012-01-30T14:42:39Z</time>
      </trkpt>
      <trkpt lat="44.56771" lon="0.85443">
        <ele>170</ele>
        <time>2012-01-30T14:42:40Z</time>
      </trkpt>
      <trkpt lat="44.56775" lon="0.8544">
        <ele>170</ele>
        <time>2012-01-30T14:42:41Z</time>
      </trkpt>
      <trkpt lat="44.56779" lon="0.85437">
        <ele>169</ele>
        <time>2012-01-30T14:42:42Z</time>
      </trkpt>
      <trkpt lat="44.56784" lon="0.85435">
        <ele>168</ele>
        <time>2012-01-30T14:42:43Z</time>
      </trkpt>
      <trkpt lat="44.56789" lon="0.85433">
        <ele>167</ele>
        <time>2012-01-30T14:42:44Z</time>
      </trkpt>
      <trkpt lat="44.56793" lon="0.85431">
        <ele>166</ele>
        <time>2012-01-30T14:42:45Z</time>
      </trkpt>
      <trkpt lat="44.56798" lon="0.85431">
        <ele>165</ele>
        <time>2012-01-30T14:42:46Z</time>
      </trkpt>
      <trkpt lat="44.56802" lon="0.8543">
        <ele>164</ele>
        <time>2012-01-30T14:42:47Z</time>
      </trkpt>
      <trkpt lat="44.56806" lon="0.8543">
        <ele>163</ele>
        <time>2012-01-30T14:42:48Z</time>
      </trkpt>
      <trkpt lat="44.56811" lon="0.85429">
        <ele>162</ele>
        <time>2012-01-30T14:42:49Z</time>
      </trkpt>
      <trkpt lat="44.56815" lon="0.8543">
        <ele>161</ele>
        <time>2012-01-30T14:42:50Z</time>
      </trkpt>
      <trkpt lat="44.56819" lon="0.85431">
        <ele>161</ele>
        <time>2012-01-30T14:42:51Z</time>
      </trkpt>
      <trkpt lat="44.56823" lon="0.85432">
        <ele>161</ele>
        <time>2012-01-30T14:42:52Z</time>
      </trkpt>
      <trkpt lat="44.56827" lon="0.85433">
        <ele>160</ele>
        <time>2012-01-30T14:42:53Z</time>
      </trkpt>
      <trkpt lat="44.56831" lon="0.85434">
        <ele>160</ele>
        <time>2012-01-30T14:42:54Z</time>
      </trkpt>
      <trkpt lat="44.56835" lon="0.85434">
        <ele>160</ele>
        <time>2012-01-30T14:42:55Z</time>
      </trkpt>
      <trkpt lat="44.56839" lon="0.85434">
        <ele>160</ele>
        <time>2012-01-30T14:42:56Z</time>
      </trkpt>
      <trkpt lat="44.56842" lon="0.85435">
        <ele>160</ele>
        <time>2012-01-30T14:42:57Z</time>
      </trkpt>
      <trkpt lat="44.56846" lon="0.85435">
        <ele>160</ele>
        <time>2012-01-30T14:42:58Z</time>
      </trkpt>
      <trkpt lat="44.5685" lon="0.85435">
        <ele>160</ele>
        <time>2012-01-30T14:42:59Z</time>
      </trkpt>
      <trkpt lat="44.56853" lon="0.85435">
        <ele>160</ele>
        <time>2012-01-30T14:43:00Z</time>
      </trkpt>
      <trkpt lat="44.56858" lon="0.85435">
        <ele>160</ele>
        <time>2012-01-30T14:43:01Z</time>
      </trkpt>
      <trkpt lat="44.56863" lon="0.85434">
        <ele>160</ele>
        <time>2012-01-30T14:43:02Z</time>
      </trkpt>
      <trkpt lat="44.56866" lon="0.85433">
        <ele>160</ele>
        <time>2012-01-30T14:43:03Z</time>
      </trkpt>
      <trkpt lat="44.56871" lon="0.85431">
        <ele>160</ele>
        <time>2012-01-30T14:43:04Z</time>
      </trkpt>
      <trkpt lat="44.56876" lon="0.8543">
        <ele>160</ele>
        <time>2012-01-30T14:43:05Z</time>
      </trkpt>
      <trkpt lat="44.5688" lon="0.8543">
        <ele>160</ele>
        <time>2012-01-30T14:43:06Z</time>
      </trkpt>
      <trkpt lat="44.56884" lon="0.85429">
        <ele>160</ele>
        <time>2012-01-30T14:43:07Z</time>
      </trkpt>
      <trkpt lat="44.56889" lon="0.85428">
        <ele>160</ele>
        <time>2012-01-30T14:43:08Z</time>
      </trkpt>
      <trkpt lat="44.56894" lon="0.85428">
        <ele>160</ele>
        <time>2012-01-30T14:43:09Z</time>
      </trkpt>
      <trkpt lat="44.56898" lon="0.85428">
        <ele>160</ele>
        <time>2012-01-30T14:43:10Z</time>
      </trkpt>
      <trkpt lat="44.56901" lon="0.85429">
        <ele>160</ele>
        <time>2012-01-30T14:43:11Z</time>
      </trkpt>
      <trkpt lat="44.56905" lon="0.85428">
        <ele>160</ele>
        <time>2012-01-30T14:43:12Z</time>
      </trkpt>
      <trkpt lat="44.56909" lon="0.85428">
        <ele>160</ele>
        <time>2012-01-30T14:43:13Z</time>
      </trkpt>
      <trkpt lat="44.56913" lon="0.85428">
        <ele>160</ele>
        <time>2012-01-30T14:43:14Z</time>
      </trkpt>
      <trkpt lat="44.56916" lon="0.85428">
        <ele>160</ele>
        <time>2012-01-30T14:43:15Z</time>
      </trkpt>
      <trkpt lat="44.56919" lon="0.8543">
        <ele>160</ele>
        <time>2012-01-30T14:43:16Z</time>
      </trkpt>
      <trkpt lat="44.56923" lon="0.85431">
        <ele>160</ele>
        <time>2012-01-30T14:43:17Z</time>
      </trkpt>
      <trkpt lat="44.56927" lon="0.85432">
        <ele>160</ele>
        <time>2012-01-30T14:43:18Z</time>
      </trkpt>
      <trkpt lat="44.56931" lon="0.85433">
        <ele>161</ele>
        <time>2012-01-30T14:43:19Z</time>
      </trkpt>
      <trkpt lat="44.56935" lon="0.85433">
        <ele>161</ele>
        <time>2012-01-30T14:43:20Z</time>
      </trkpt>
      <trkpt lat="44.5694" lon="0.85432">
        <ele>161</ele>
        <time>2012-01-30T14:43:21Z</time>
      </trkpt>
      <trkpt lat="44.56946" lon="0.85432">
        <ele>161</ele>
        <time>2012-01-30T14:43:22Z</time>
      </trkpt>
      <trkpt lat="44.5695" lon="0.85432">
        <ele>161</ele>
        <time>2012-01-30T14:43:23Z</time>
      </trkpt>
      <trkpt lat="44.56955" lon="0.85433">
        <ele>161</ele>
        <time>2012-01-30T14:43:24Z</time>
      </trkpt>
      <trkpt lat="44.5696" lon="0.85433">
        <ele>161</ele>
        <time>2012-01-30T14:43:25Z</time>
      </trkpt>
      <trkpt lat="44.56963" lon="0.85434">
        <ele>161</ele>
        <time>2012-01-30T14:43:26Z</time>
      </trkpt>
      <trkpt lat="44.56967" lon="0.85435">
        <ele>161</ele>
        <time>2012-01-30T14:43:27Z</time>
      </trkpt>
      <trkpt lat="44.56971" lon="0.85435">
        <ele>162</ele>
        <time>2012-01-30T14:43:28Z</time>
      </trkpt>
      <trkpt lat="44.56975" lon="0.85436">
        <ele>162</ele>
        <time>2012-01-30T14:43:29Z</time>
      </trkpt>
      <trkpt lat="44.56979" lon="0.85437">
        <ele>163</ele>
        <time>2012-01-30T14:43:30Z</time>
      </trkpt>
      <trkpt lat="44.56984" lon="0.85438">
        <ele>163</ele>
        <time>2012-01-30T14:43:31Z</time>
      </trkpt>
      <trkpt lat="44.56987" lon="0.85439">
        <ele>163</ele>
        <time>2012-01-30T14:43:32Z</time>
      </trkpt>
      <trkpt lat="44.5699" lon="0.85439">
        <ele>163</ele>
        <time>2012-01-30T14:43:33Z</time>
      </trkpt>
      <trkpt lat="44.56994" lon="0.8544">
        <ele>163</ele>
        <time>2012-01-30T14:43:34Z</time>
      </trkpt>
      <trkpt lat="44.56998" lon="0.8544">
        <ele>164</ele>
        <time>2012-01-30T14:43:35Z</time>
      </trkpt>
      <trkpt lat="44.57004" lon="0.8544">
        <ele>164</ele>
        <time>2012-01-30T14:43:36Z</time>
      </trkpt>
      <trkpt lat="44.57008" lon="0.8544">
        <ele>165</ele>
        <time>2012-01-30T14:43:37Z</time>
      </trkpt>
      <trkpt lat="44.57012" lon="0.8544">
        <ele>165</ele>
        <time>2012-01-30T14:43:38Z</time>
      </trkpt>
      <trkpt lat="44.57016" lon="0.8544">
        <ele>166</ele>
        <time>2012-01-30T14:43:39Z</time>
      </trkpt>
      <trkpt lat="44.5702" lon="0.8544">
        <ele>166</ele>
        <time>2012-01-30T14:43:40Z</time>
      </trkpt>
      <trkpt lat="44.57024" lon="0.85439">
        <ele>166</ele>
        <time>2012-01-30T14:43:41Z</time>
      </trkpt>
      <trkpt lat="44.57027" lon="0.85439">
        <ele>166</ele>
        <time>2012-01-30T14:43:42Z</time>
      </trkpt>
      <trkpt lat="44.5703" lon="0.85439">
        <ele>166</ele>
        <time>2012-01-30T14:43:43Z</time>
      </trkpt>
      <trkpt lat="44.57036" lon="0.85437">
        <ele>166</ele>
        <time>2012-01-30T14:43:44Z</time>
      </trkpt>
      <trkpt lat="44.5704" lon="0.85437">
        <ele>166</ele>
        <time>2012-01-30T14:43:45Z</time>
      </trkpt>
      <trkpt lat="44.57043" lon="0.85436">
        <ele>166</ele>
        <time>2012-01-30T14:43:46Z</time>
      </trkpt>
      <trkpt lat="44.57045" lon="0.85435">
        <ele>166</ele>
        <time>2012-01-30T14:43:47Z</time>
      </trkpt>
      <trkpt lat="44.57048" lon="0.85433">
        <ele>166</ele>
        <time>2012-01-30T14:43:48Z</time>
      </trkpt>
      <trkpt lat="44.5705" lon="0.85431">
        <ele>167</ele>
        <time>2012-01-30T14:43:49Z</time>
      </trkpt>
      <trkpt lat="44.57052" lon="0.85429">
        <ele>168</ele>
        <time>2012-01-30T14:43:50Z</time>
      </trkpt>
      <trkpt lat="44.57054" lon="0.85426">
        <ele>168</ele>
        <time>2012-01-30T14:43:51Z</time>
      </trkpt>
      <trkpt lat="44.57056" lon="0.85422">
        <ele>168</ele>
        <time>2012-01-30T14:43:52Z</time>
      </trkpt>
      <trkpt lat="44.57056" lon="0.85418">
        <ele>168</ele>
        <time>2012-01-30T14:43:53Z</time>
      </trkpt>
      <trkpt lat="44.57057" lon="0.85413">
        <ele>168</ele>
        <time>2012-01-30T14:43:54Z</time>
      </trkpt>
      <trkpt lat="44.57058" lon="0.85408">
        <ele>168</ele>
        <time>2012-01-30T14:43:55Z</time>
      </trkpt>
      <trkpt lat="44.57058" lon="0.85403">
        <ele>168</ele>
        <time>2012-01-30T14:43:56Z</time>
      </trkpt>
      <trkpt lat="44.57057" lon="0.85396">
        <ele>168</ele>
        <time>2012-01-30T14:43:57Z</time>
      </trkpt>
      <trkpt lat="44.57056" lon="0.85391">
        <ele>168</ele>
        <time>2012-01-30T14:43:58Z</time>
      </trkpt>
      <trkpt lat="44.57055" lon="0.85386">
        <ele>168</ele>
        <time>2012-01-30T14:43:59Z</time>
      </trkpt>
      <trkpt lat="44.57054" lon="0.85381">
        <ele>168</ele>
        <time>2012-01-30T14:44:00Z</time>
      </trkpt>
      <trkpt lat="44.57053" lon="0.85377">
        <ele>168</ele>
        <time>2012-01-30T14:44:01Z</time>
      </trkpt>
      <trkpt lat="44.57053" lon="0.85372">
        <ele>168</ele>
        <time>2012-01-30T14:44:02Z</time>
      </trkpt>
      <trkpt lat="44.57052" lon="0.85366">
        <ele>168</ele>
        <time>2012-01-30T14:44:03Z</time>
      </trkpt>
      <trkpt lat="44.57051" lon="0.85362">
        <ele>168</ele>
        <time>2012-01-30T14:44:04Z</time>
      </trkpt>
      <trkpt lat="44.5705" lon="0.85357">
        <ele>168</ele>
        <time>2012-01-30T14:44:05Z</time>
      </trkpt>
      <trkpt lat="44.57048" lon="0.85351">
        <ele>168</ele>
        <time>2012-01-30T14:44:06Z</time>
      </trkpt>
      <trkpt lat="44.57047" lon="0.85346">
        <ele>168</ele>
        <time>2012-01-30T14:44:07Z</time>
      </trkpt>
      <trkpt lat="44.57046" lon="0.85341">
        <ele>168</ele>
        <time>2012-01-30T14:44:08Z</time>
      </trkpt>
      <trkpt lat="44.57045" lon="0.85336">
        <ele>168</ele>
        <time>2012-01-30T14:44:09Z</time>
      </trkpt>
      <trkpt lat="44.57043" lon="0.85331">
        <ele>168</ele>
        <time>2012-01-30T14:44:10Z</time>
      </trkpt>
      <trkpt lat="44.57043" lon="0.85328">
        <ele>168</ele>
        <time>2012-01-30T14:44:11Z</time>
      </trkpt>
      <trkpt lat="44.57043" lon="0.85325">
        <ele>168</ele>
        <time>2012-01-30T14:44:12Z</time>
      </trkpt>
      <trkpt lat="44.57043" lon="0.85323">
        <ele>168</ele>
        <time>2012-01-30T14:44:13Z</time>
      </trkpt>
      <trkpt lat="44.57045" lon="0.8532">
        <ele>168</ele>
        <time>2012-01-30T14:44:14Z</time>
      </trkpt>
      <trkpt lat="44.57048" lon="0.85317">
        <ele>168</ele>
        <time>2012-01-30T14:44:15Z</time>
      </trkpt>
      <trkpt lat="44.57051" lon="0.85313">
        <ele>168</ele>
        <time>2012-01-30T14:44:16Z</time>
      </trkpt>
      <trkpt lat="44.57054" lon="0.85311">
        <ele>168</ele>
        <time>2012-01-30T14:44:17Z</time>
      </trkpt>
      <trkpt lat="44.57059" lon="0.8531">
        <ele>168</ele>
        <time>2012-01-30T14:44:18Z</time>
      </trkpt>
      <trkpt lat="44.57066" lon="0.85309">
        <ele>168</ele>
        <time>2012-01-30T14:44:19Z</time>
      </trkpt>
      <trkpt lat="44.57071" lon="0.85308">
        <ele>168</ele>
        <time>2012-01-30T14:44:20Z</time>
      </trkpt>
      <trkpt lat="44.57076" lon="0.85307">
        <ele>168</ele>
        <time>2012-01-30T14:44:21Z</time>
      </trkpt>
      <trkpt lat="44.57081" lon="0.85306">
        <ele>168</ele>
        <time>2012-01-30T14:44:22Z</time>
      </trkpt>
      <trkpt lat="44.57085" lon="0.85305">
        <ele>168</ele>
        <time>2012-01-30T14:44:23Z</time>
      </trkpt>
      <trkpt lat="44.57091" lon="0.85305">
        <ele>168</ele>
        <time>2012-01-30T14:44:24Z</time>
      </trkpt>
      <trkpt lat="44.57096" lon="0.85306">
        <ele>167</ele>
        <time>2012-01-30T14:44:25Z</time>
      </trkpt>
      <trkpt lat="44.571" lon="0.85306">
        <ele>167</ele>
        <time>2012-01-30T14:44:26Z</time>
      </trkpt>
      <trkpt lat="44.57106" lon="0.85305">
        <ele>167</ele>
        <time>2012-01-30T14:44:27Z</time>
      </trkpt>
      <trkpt lat="44.57111" lon="0.85302">
        <ele>166</ele>
        <time>2012-01-30T14:44:28Z</time>
      </trkpt>
      <trkpt lat="44.57115" lon="0.85297">
        <ele>166</ele>
        <time>2012-01-30T14:44:29Z</time>
      </trkpt>
      <trkpt lat="44.57118" lon="0.85292">
        <ele>165</ele>
        <time>2012-01-30T14:44:30Z</time>
      </trkpt>
      <trkpt lat="44.57119" lon="0.85284">
        <ele>164</ele>
        <time>2012-01-30T14:44:31Z</time>
      </trkpt>
      <trkpt lat="44.57123" lon="0.85279">
        <ele>164</ele>
        <time>2012-01-30T14:44:32Z</time>
      </trkpt>
      <trkpt lat="44.57127" lon="0.85274">
        <ele>163</ele>
        <time>2012-01-30T14:44:33Z</time>
      </trkpt>
      <trkpt lat="44.57131" lon="0.85271">
        <ele>162</ele>
        <time>2012-01-30T14:44:34Z</time>
      </trkpt>
      <trkpt lat="44.57136" lon="0.85268">
        <ele>161</ele>
        <time>2012-01-30T14:44:35Z</time>
      </trkpt>
      <trkpt lat="44.5714" lon="0.85264">
        <ele>161</ele>
        <time>2012-01-30T14:44:36Z</time>
      </trkpt>
      <trkpt lat="44.57143" lon="0.85261">
        <ele>160</ele>
        <time>2012-01-30T14:44:37Z</time>
      </trkpt>
      <trkpt lat="44.57144" lon="0.8526">
        <ele>160</ele>
        <time>2012-01-30T14:44:38Z</time>
      </trkpt>
      <trkpt lat="44.57146" lon="0.85258">
        <ele>160</ele>
        <time>2012-01-30T14:44:41Z</time>
      </trkpt>
      <trkpt lat="44.57148" lon="0.85258">
        <ele>160</ele>
        <time>2012-01-30T14:44:43Z</time>
      </trkpt>
      <trkpt lat="44.57149" lon="0.85258">
        <ele>160</ele>
        <time>2012-01-30T14:44:44Z</time>
      </trkpt>
      <trkpt lat="44.57151" lon="0.85258">
        <ele>160</ele>
        <time>2012-01-30T14:44:46Z</time>
      </trkpt>
      <trkpt lat="44.57152" lon="0.85257">
        <ele>160</ele>
        <time>2012-01-30T14:44:49Z</time>
      </trkpt>
      <trkpt lat="44.57152" lon="0.85255">
        <ele>160</ele>
        <time>2012-01-30T14:44:51Z</time>
      </trkpt>
      <trkpt lat="44.57153" lon="0.85251">
        <ele>160</ele>
        <time>2012-01-30T14:44:54Z</time>
      </trkpt>
      <trkpt lat="44.57153" lon="0.85249">
        <ele>160</ele>
        <time>2012-01-30T14:44:55Z</time>
      </trkpt>
      <trkpt lat="44.57153" lon="0.85245">
        <ele>160</ele>
        <time>2012-01-30T14:44:56Z</time>
      </trkpt>
      <trkpt lat="44.57153" lon="0.85241">
        <ele>160</ele>
        <time>2012-01-30T14:44:57Z</time>
      </trkpt>
      <trkpt lat="44.57153" lon="0.85236">
        <ele>160</ele>
        <time>2012-01-30T14:44:58Z</time>
      </trkpt>
      <trkpt lat="44.57153" lon="0.85232">
        <ele>160</ele>
        <time>2012-01-30T14:44:59Z</time>
      </trkpt>
      <trkpt lat="44.57154" lon="0.85227">
        <ele>160</ele>
        <time>2012-01-30T14:45:00Z</time>
      </trkpt>
      <trkpt lat="44.57156" lon="0.85223">
        <ele>160</ele>
        <time>2012-01-30T14:45:01Z</time>
      </trkpt>
      <trkpt lat="44.57159" lon="0.85217">
        <ele>160</ele>
        <time>2012-01-30T14:45:02Z</time>
      </trkpt>
      <trkpt lat="44.57162" lon="0.85212">
        <ele>160</ele>
        <time>2012-01-30T14:45:03Z</time>
      </trkpt>
      <trkpt lat="44.57163" lon="0.85207">
        <ele>160</ele>
        <time>2012-01-30T14:45:04Z</time>
      </trkpt>
      <trkpt lat="44.57164" lon="0.852">
        <ele>160</ele>
        <time>2012-01-30T14:45:05Z</time>
      </trkpt>
      <trkpt lat="44.57163" lon="0.85194">
        <ele>159</ele>
        <time>2012-01-30T14:45:06Z</time>
      </trkpt>
      <trkpt lat="44.57162" lon="0.85188">
        <ele>158</ele>
        <time>2012-01-30T14:45:07Z</time>
      </trkpt>
      <trkpt lat="44.57161" lon="0.85182">
        <ele>157</ele>
        <time>2012-01-30T14:45:08Z</time>
      </trkpt>
      <trkpt lat="44.57161" lon="0.85177">
        <ele>156</ele>
        <time>2012-01-30T14:45:09Z</time>
      </trkpt>
      <trkpt lat="44.5716" lon="0.85173">
        <ele>155</ele>
        <time>2012-01-30T14:45:10Z</time>
      </trkpt>
      <trkpt lat="44.57159" lon="0.85169">
        <ele>154</ele>
        <time>2012-01-30T14:45:11Z</time>
      </trkpt>
      <trkpt lat="44.57159" lon="0.85165">
        <ele>153</ele>
        <time>2012-01-30T14:45:12Z</time>
      </trkpt>
      <trkpt lat="44.57159" lon="0.85161">
        <ele>152</ele>
        <time>2012-01-30T14:45:13Z</time>
      </trkpt>
      <trkpt lat="44.57159" lon="0.85157">
        <ele>151</ele>
        <time>2012-01-30T14:45:14Z</time>
      </trkpt>
      <trkpt lat="44.57158" lon="0.85152">
        <ele>150</ele>
        <time>2012-01-30T14:45:15Z</time>
      </trkpt>
      <trkpt lat="44.57158" lon="0.85148">
        <ele>149</ele>
        <time>2012-01-30T14:45:16Z</time>
      </trkpt>
      <trkpt lat="44.57158" lon="0.85144">
        <ele>148</ele>
        <time>2012-01-30T14:45:17Z</time>
      </trkpt>
      <trkpt lat="44.57157" lon="0.85139">
        <ele>148</ele>
        <time>2012-01-30T14:45:18Z</time>
      </trkpt>
      <trkpt lat="44.57157" lon="0.85134">
        <ele>148</ele>
        <time>2012-01-30T14:45:19Z</time>
      </trkpt>
      <trkpt lat="44.57157" lon="0.85129">
        <ele>148</ele>
        <time>2012-01-30T14:45:20Z</time>
      </trkpt>
      <trkpt lat="44.57156" lon="0.85124">
        <ele>148</ele>
        <time>2012-01-30T14:45:21Z</time>
      </trkpt>
      <trkpt lat="44.57156" lon="0.85119">
        <ele>148</ele>
        <time>2012-01-30T14:45:22Z</time>
      </trkpt>
      <trkpt lat="44.57156" lon="0.85114">
        <ele>148</ele>
        <time>2012-01-30T14:45:23Z</time>
      </trkpt>
      <trkpt lat="44.57155" lon="0.8511">
        <ele>148</ele>
        <time>2012-01-30T14:45:24Z</time>
      </trkpt>
      <trkpt lat="44.57156" lon="0.85108">
        <ele>148</ele>
        <time>2012-01-30T14:45:25Z</time>
      </trkpt>
      <trkpt lat="44.57156" lon="0.85105">
        <ele>148</ele>
        <time>2012-01-30T14:45:26Z</time>
      </trkpt>
      <trkpt lat="44.57157" lon="0.85103">
        <ele>148</ele>
        <time>2012-01-30T14:45:27Z</time>
      </trkpt>
      <trkpt lat="44.57159" lon="0.851">
        <ele>148</ele>
        <time>2012-01-30T14:45:28Z</time>
      </trkpt>
      <trkpt lat="44.57159" lon="0.85098">
        <ele>148</ele>
        <time>2012-01-30T14:45:29Z</time>
      </trkpt>
      <trkpt lat="44.57161" lon="0.85095">
        <ele>148</ele>
        <time>2012-01-30T14:45:30Z</time>
      </trkpt>
      <trkpt lat="44.57162" lon="0.85093">
        <ele>149</ele>
        <time>2012-01-30T14:45:31Z</time>
      </trkpt>
      <trkpt lat="44.57162" lon="0.85091">
        <ele>150</ele>
        <time>2012-01-30T14:45:32Z</time>
      </trkpt>
      <trkpt lat="44.57164" lon="0.85087">
        <ele>151</ele>
        <time>2012-01-30T14:45:33Z</time>
      </trkpt>
      <trkpt lat="44.57165" lon="0.85083">
        <ele>152</ele>
        <time>2012-01-30T14:45:34Z</time>
      </trkpt>
      <trkpt lat="44.57167" lon="0.85078">
        <ele>153</ele>
        <time>2012-01-30T14:45:35Z</time>
      </trkpt>
      <trkpt lat="44.57168" lon="0.85074">
        <ele>154</ele>
        <time>2012-01-30T14:45:36Z</time>
      </trkpt>
      <trkpt lat="44.57169" lon="0.85071">
        <ele>155</ele>
        <time>2012-01-30T14:45:37Z</time>
      </trkpt>
      <trkpt lat="44.5717" lon="0.85067">
        <ele>156</ele>
        <time>2012-01-30T14:45:38Z</time>
      </trkpt>
      <trkpt lat="44.57172" lon="0.85064">
        <ele>157</ele>
        <time>2012-01-30T14:45:39Z</time>
      </trkpt>
      <trkpt lat="44.57174" lon="0.8506">
        <ele>158</ele>
        <time>2012-01-30T14:45:40Z</time>
      </trkpt>
      <trkpt lat="44.57176" lon="0.85055">
        <ele>159</ele>
        <time>2012-01-30T14:45:41Z</time>
      </trkpt>
      <trkpt lat="44.57177" lon="0.8505">
        <ele>160</ele>
        <time>2012-01-30T14:45:42Z</time>
      </trkpt>
      <trkpt lat="44.57179" lon="0.85045">
        <ele>161</ele>
        <time>2012-01-30T14:45:43Z</time>
      </trkpt>
      <trkpt lat="44.57181" lon="0.85041">
        <ele>162</ele>
        <time>2012-01-30T14:45:44Z</time>
      </trkpt>
      <trkpt lat="44.57182" lon="0.85036">
        <ele>163</ele>
        <time>2012-01-30T14:45:45Z</time>
      </trkpt>
      <trkpt lat="44.57184" lon="0.85031">
        <ele>164</ele>
        <time>2012-01-30T14:45:46Z</time>
      </trkpt>
      <trkpt lat="44.57186" lon="0.85027">
        <ele>165</ele>
        <time>2012-01-30T14:45:47Z</time>
      </trkpt>
      <trkpt lat="44.57188" lon="0.85023">
        <ele>166</ele>
        <time>2012-01-30T14:45:48Z</time>
      </trkpt>
      <trkpt lat="44.5719" lon="0.85018">
        <ele>167</ele>
        <time>2012-01-30T14:45:49Z</time>
      </trkpt>
      <trkpt lat="44.57191" lon="0.85014">
        <ele>168</ele>
        <time>2012-01-30T14:45:50Z</time>
      </trkpt>
      <trkpt lat="44.57193" lon="0.85011">
        <ele>169</ele>
        <time>2012-01-30T14:45:51Z</time>
      </trkpt>
      <trkpt lat="44.57194" lon="0.85007">
        <ele>170</ele>
        <time>2012-01-30T14:45:52Z</time>
      </trkpt>
      <trkpt lat="44.57195" lon="0.85004">
        <ele>171</ele>
        <time>2012-01-30T14:45:53Z</time>
      </trkpt>
      <trkpt lat="44.57197" lon="0.85">
        <ele>172</ele>
        <time>2012-01-30T14:45:54Z</time>
      </trkpt>
      <trkpt lat="44.57198" lon="0.84996">
        <ele>173</ele>
        <time>2012-01-30T14:45:55Z</time>
      </trkpt>
      <trkpt lat="44.57199" lon="0.84992">
        <ele>174</ele>
        <time>2012-01-30T14:45:56Z</time>
      </trkpt>
      <trkpt lat="44.57201" lon="0.84988">
        <ele>175</ele>
        <time>2012-01-30T14:45:57Z</time>
      </trkpt>
      <trkpt lat="44.57203" lon="0.84984">
        <ele>176</ele>
        <time>2012-01-30T14:45:58Z</time>
      </trkpt>
      <trkpt lat="44.57204" lon="0.8498">
        <ele>177</ele>
        <time>2012-01-30T14:45:59Z</time>
      </trkpt>
      <trkpt lat="44.57206" lon="0.84976">
        <ele>178</ele>
        <time>2012-01-30T14:46:00Z</time>
      </trkpt>
      <trkpt lat="44.57207" lon="0.84973">
        <ele>179</ele>
        <time>2012-01-30T14:46:01Z</time>
      </trkpt>
      <trkpt lat="44.57208" lon="0.84969">
        <ele>180</ele>
        <time>2012-01-30T14:46:02Z</time>
      </trkpt>
      <trkpt lat="44.5721" lon="0.84965">
        <ele>180</ele>
        <time>2012-01-30T14:46:03Z</time>
      </trkpt>
      <trkpt lat="44.57211" lon="0.84961">
        <ele>180</ele>
        <time>2012-01-30T14:46:04Z</time>
      </trkpt>
      <trkpt lat="44.57214" lon="0.84955">
        <ele>180</ele>
        <time>2012-01-30T14:46:05Z</time>
      </trkpt>
      <trkpt lat="44.57216" lon="0.84952">
        <ele>180</ele>
        <time>2012-01-30T14:46:06Z</time>
      </trkpt>
      <trkpt lat="44.57218" lon="0.84948">
        <ele>180</ele>
        <time>2012-01-30T14:46:07Z</time>
      </trkpt>
      <trkpt lat="44.57219" lon="0.84945">
        <ele>180</ele>
        <time>2012-01-30T14:46:08Z</time>
      </trkpt>
      <trkpt lat="44.57222" lon="0.8494">
        <ele>180</ele>
        <time>2012-01-30T14:46:09Z</time>
      </trkpt>
      <trkpt lat="44.57224" lon="0.84935">
        <ele>180</ele>
        <time>2012-01-30T14:46:10Z</time>
      </trkpt>
      <trkpt lat="44.57225" lon="0.84932">
        <ele>179</ele>
        <time>2012-01-30T14:46:11Z</time>
      </trkpt>
      <trkpt lat="44.57226" lon="0.84928">
        <ele>178</ele>
        <time>2012-01-30T14:46:12Z</time>
      </trkpt>
      <trkpt lat="44.57226" lon="0.84925">
        <ele>177</ele>
        <time>2012-01-30T14:46:13Z</time>
      </trkpt>
      <trkpt lat="44.57226" lon="0.84922">
        <ele>176</ele>
        <time>2012-01-30T14:46:14Z</time>
      </trkpt>
      <trkpt lat="44.57224" lon="0.8492">
        <ele>175</ele>
        <time>2012-01-30T14:46:15Z</time>
      </trkpt>
      <trkpt lat="44.57221" lon="0.8492">
        <ele>174</ele>
        <time>2012-01-30T14:46:16Z</time>
      </trkpt>
      <trkpt lat="44.57219" lon="0.8492">
        <ele>173</ele>
        <time>2012-01-30T14:46:17Z</time>
      </trkpt>
      <trkpt lat="44.57216" lon="0.84921">
        <ele>172</ele>
        <time>2012-01-30T14:46:18Z</time>
      </trkpt>
      <trkpt lat="44.57214" lon="0.84922">
        <ele>171</ele>
        <time>2012-01-30T14:46:19Z</time>
      </trkpt>
      <trkpt lat="44.57212" lon="0.84923">
        <ele>171</ele>
        <time>2012-01-30T14:46:20Z</time>
      </trkpt>
      <trkpt lat="44.57209" lon="0.84923">
        <ele>171</ele>
        <time>2012-01-30T14:46:21Z</time>
      </trkpt>
      <trkpt lat="44.57206" lon="0.84924">
        <ele>171</ele>
        <time>2012-01-30T14:46:22Z</time>
      </trkpt>
      <trkpt lat="44.57204" lon="0.84924">
        <ele>171</ele>
        <time>2012-01-30T14:46:23Z</time>
      </trkpt>
      <trkpt lat="44.57202" lon="0.84923">
        <ele>171</ele>
        <time>2012-01-30T14:46:24Z</time>
      </trkpt>
      <trkpt lat="44.57199" lon="0.84923">
        <ele>171</ele>
        <time>2012-01-30T14:46:25Z</time>
      </trkpt>
      <trkpt lat="44.57197" lon="0.84923">
        <ele>171</ele>
        <time>2012-01-30T14:46:26Z</time>
      </trkpt>
      <trkpt lat="44.57194" lon="0.84922">
        <ele>171</ele>
        <time>2012-01-30T14:46:27Z</time>
      </trkpt>
      <trkpt lat="44.57191" lon="0.84921">
        <ele>171</ele>
        <time>2012-01-30T14:46:28Z</time>
      </trkpt>
      <trkpt lat="44.57189" lon="0.8492">
        <ele>171</ele>
        <time>2012-01-30T14:46:29Z</time>
      </trkpt>
      <trkpt lat="44.57186" lon="0.84918">
        <ele>171</ele>
        <time>2012-01-30T14:46:30Z</time>
      </trkpt>
      <trkpt lat="44.57183" lon="0.84914">
        <ele>171</ele>
        <time>2012-01-30T14:46:31Z</time>
      </trkpt>
      <trkpt lat="44.5718" lon="0.84912">
        <ele>171</ele>
        <time>2012-01-30T14:46:32Z</time>
      </trkpt>
      <trkpt lat="44.57178" lon="0.84909">
        <ele>171</ele>
        <time>2012-01-30T14:46:33Z</time>
      </trkpt>
      <trkpt lat="44.57176" lon="0.84907">
        <ele>171</ele>
        <time>2012-01-30T14:46:34Z</time>
      </trkpt>
      <trkpt lat="44.57173" lon="0.84905">
        <ele>171</ele>
        <time>2012-01-30T14:46:35Z</time>
      </trkpt>
      <trkpt lat="44.5717" lon="0.84904">
        <ele>171</ele>
        <time>2012-01-30T14:46:36Z</time>
      </trkpt>
      <trkpt lat="44.57167" lon="0.84902">
        <ele>171</ele>
        <time>2012-01-30T14:46:37Z</time>
      </trkpt>
      <trkpt lat="44.57164" lon="0.84902">
        <ele>171</ele>
        <time>2012-01-30T14:46:38Z</time>
      </trkpt>
      <trkpt lat="44.5716" lon="0.84901">
        <ele>171</ele>
        <time>2012-01-30T14:46:39Z</time>
      </trkpt>
      <trkpt lat="44.57156" lon="0.84902">
        <ele>171</ele>
        <time>2012-01-30T14:46:40Z</time>
      </trkpt>
      <trkpt lat="44.57153" lon="0.84903">
        <ele>171</ele>
        <time>2012-01-30T14:46:41Z</time>
      </trkpt>
      <trkpt lat="44.57149" lon="0.84904">
        <ele>171</ele>
        <time>2012-01-30T14:46:42Z</time>
      </trkpt>
      <trkpt lat="44.57145" lon="0.84905">
        <ele>171</ele>
        <time>2012-01-30T14:46:43Z</time>
      </trkpt>
      <trkpt lat="44.57142" lon="0.84907">
        <ele>171</ele>
        <time>2012-01-30T14:46:44Z</time>
      </trkpt>
      <trkpt lat="44.57138" lon="0.84907">
        <ele>171</ele>
        <time>2012-01-30T14:46:45Z</time>
      </trkpt>
      <trkpt lat="44.57134" lon="0.84908">
        <ele>171</ele>
        <time>2012-01-30T14:46:46Z</time>
      </trkpt>
      <trkpt lat="44.5713" lon="0.84908">
        <ele>171</ele>
        <time>2012-01-30T14:46:47Z</time>
      </trkpt>
      <trkpt lat="44.57125" lon="0.84907">
        <ele>171</ele>
        <time>2012-01-30T14:46:48Z</time>
      </trkpt>
      <trkpt lat="44.57121" lon="0.84905">
        <ele>171</ele>
        <time>2012-01-30T14:46:49Z</time>
      </trkpt>
      <trkpt lat="44.57117" lon="0.84904">
        <ele>171</ele>
        <time>2012-01-30T14:46:50Z</time>
      </trkpt>
      <trkpt lat="44.57113" lon="0.84904">
        <ele>171</ele>
        <time>2012-01-30T14:46:51Z</time>
      </trkpt>
      <trkpt lat="44.57109" lon="0.84904">
        <ele>171</ele>
        <time>2012-01-30T14:46:52Z</time>
      </trkpt>
      <trkpt lat="44.57105" lon="0.84905">
        <ele>171</ele>
        <time>2012-01-30T14:46:53Z</time>
      </trkpt>
      <trkpt lat="44.571" lon="0.84907">
        <ele>171</ele>
        <time>2012-01-30T14:46:54Z</time>
      </trkpt>
      <trkpt lat="44.57096" lon="0.84908">
        <ele>171</ele>
        <time>2012-01-30T14:46:55Z</time>
      </trkpt>
      <trkpt lat="44.5709" lon="0.84908">
        <ele>171</ele>
        <time>2012-01-30T14:46:56Z</time>
      </trkpt>
      <trkpt lat="44.57085" lon="0.84908">
        <ele>171</ele>
        <time>2012-01-30T14:46:57Z</time>
      </trkpt>
      <trkpt lat="44.57081" lon="0.84908">
        <ele>171</ele>
        <time>2012-01-30T14:46:58Z</time>
      </trkpt>
      <trkpt lat="44.57077" lon="0.84909">
        <ele>171</ele>
        <time>2012-01-30T14:46:59Z</time>
      </trkpt>
      <trkpt lat="44.57072" lon="0.84909">
        <ele>171</ele>
        <time>2012-01-30T14:47:00Z</time>
      </trkpt>
      <trkpt lat="44.57068" lon="0.8491">
        <ele>170</ele>
        <time>2012-01-30T14:47:01Z</time>
      </trkpt>
      <trkpt lat="44.57063" lon="0.84909">
        <ele>170</ele>
        <time>2012-01-30T14:47:02Z</time>
      </trkpt>
      <trkpt lat="44.57058" lon="0.84908">
        <ele>170</ele>
        <time>2012-01-30T14:47:03Z</time>
      </trkpt>
      <trkpt lat="44.57054" lon="0.84905">
        <ele>170</ele>
        <time>2012-01-30T14:47:04Z</time>
      </trkpt>
      <trkpt lat="44.5705" lon="0.84901">
        <ele>170</ele>
        <time>2012-01-30T14:47:05Z</time>
      </trkpt>
      <trkpt lat="44.57046" lon="0.84898">
        <ele>170</ele>
        <time>2012-01-30T14:47:06Z</time>
      </trkpt>
      <trkpt lat="44.5704" lon="0.84895">
        <ele>170</ele>
        <time>2012-01-30T14:47:07Z</time>
      </trkpt>
      <trkpt lat="44.57034" lon="0.84892">
        <ele>170</ele>
        <time>2012-01-30T14:47:08Z</time>
      </trkpt>
      <trkpt lat="44.57028" lon="0.84888">
        <ele>170</ele>
        <time>2012-01-30T14:47:09Z</time>
      </trkpt>
      <trkpt lat="44.57023" lon="0.84883">
        <ele>170</ele>
        <time>2012-01-30T14:47:10Z</time>
      </trkpt>
      <trkpt lat="44.57018" lon="0.8488">
        <ele>170</ele>
        <time>2012-01-30T14:47:11Z</time>
      </trkpt>
      <trkpt lat="44.57011" lon="0.84878">
        <ele>170</ele>
        <time>2012-01-30T14:47:12Z</time>
      </trkpt>
      <trkpt lat="44.57005" lon="0.84878">
        <ele>170</ele>
        <time>2012-01-30T14:47:13Z</time>
      </trkpt>
      <trkpt lat="44.56999" lon="0.8488">
        <ele>170</ele>
        <time>2012-01-30T14:47:14Z</time>
      </trkpt>
      <trkpt lat="44.56994" lon="0.84881">
        <ele>170</ele>
        <time>2012-01-30T14:47:15Z</time>
      </trkpt>
      <trkpt lat="44.5699" lon="0.84879">
        <ele>170</ele>
        <time>2012-01-30T14:47:16Z</time>
      </trkpt>
      <trkpt lat="44.56987" lon="0.84876">
        <ele>170</ele>
        <time>2012-01-30T14:47:17Z</time>
      </trkpt>
      <trkpt lat="44.56985" lon="0.84872">
        <ele>169</ele>
        <time>2012-01-30T14:47:18Z</time>
      </trkpt>
      <trkpt lat="44.56984" lon="0.84868">
        <ele>168</ele>
        <time>2012-01-30T14:47:19Z</time>
      </trkpt>
      <trkpt lat="44.56982" lon="0.84864">
        <ele>167</ele>
        <time>2012-01-30T14:47:20Z</time>
      </trkpt>
      <trkpt lat="44.56981" lon="0.84859">
        <ele>166</ele>
        <time>2012-01-30T14:47:21Z</time>
      </trkpt>
      <trkpt lat="44.56978" lon="0.84855">
        <ele>165</ele>
        <time>2012-01-30T14:47:22Z</time>
      </trkpt>
      <trkpt lat="44.56976" lon="0.84851">
        <ele>164</ele>
        <time>2012-01-30T14:47:23Z</time>
      </trkpt>
      <trkpt lat="44.56971" lon="0.8485">
        <ele>163</ele>
        <time>2012-01-30T14:47:24Z</time>
      </trkpt>
      <trkpt lat="44.56968" lon="0.8485">
        <ele>162</ele>
        <time>2012-01-30T14:47:25Z</time>
      </trkpt>
      <trkpt lat="44.56965" lon="0.84852">
        <ele>161</ele>
        <time>2012-01-30T14:47:26Z</time>
      </trkpt>
      <trkpt lat="44.5696" lon="0.84853">
        <ele>160</ele>
        <time>2012-01-30T14:47:27Z</time>
      </trkpt>
      <trkpt lat="44.56955" lon="0.84855">
        <ele>159</ele>
        <time>2012-01-30T14:47:28Z</time>
      </trkpt>
      <trkpt lat="44.56951" lon="0.84857">
        <ele>158</ele>
        <time>2012-01-30T14:47:29Z</time>
      </trkpt>
      <trkpt lat="44.56947" lon="0.84859">
        <ele>157</ele>
        <time>2012-01-30T14:47:30Z</time>
      </trkpt>
      <trkpt lat="44.56943" lon="0.8486">
        <ele>156</ele>
        <time>2012-01-30T14:47:31Z</time>
      </trkpt>
      <trkpt lat="44.56939" lon="0.84858">
        <ele>155</ele>
        <time>2012-01-30T14:47:32Z</time>
      </trkpt>
      <trkpt lat="44.56936" lon="0.84854">
        <ele>154</ele>
        <time>2012-01-30T14:47:33Z</time>
      </trkpt>
      <trkpt lat="44.56932" lon="0.8485">
        <ele>153</ele>
        <time>2012-01-30T14:47:34Z</time>
      </trkpt>
      <trkpt lat="44.56929" lon="0.84844">
        <ele>152</ele>
        <time>2012-01-30T14:47:35Z</time>
      </trkpt>
      <trkpt lat="44.56926" lon="0.84836">
        <ele>151</ele>
        <time>2012-01-30T14:47:36Z</time>
      </trkpt>
      <trkpt lat="44.56924" lon="0.84828">
        <ele>150</ele>
        <time>2012-01-30T14:47:37Z</time>
      </trkpt>
      <trkpt lat="44.56923" lon="0.8482">
        <ele>149</ele>
        <time>2012-01-30T14:47:38Z</time>
      </trkpt>
      <trkpt lat="44.56922" lon="0.84814">
        <ele>148</ele>
        <time>2012-01-30T14:47:39Z</time>
      </trkpt>
      <trkpt lat="44.56921" lon="0.84808">
        <ele>147</ele>
        <time>2012-01-30T14:47:40Z</time>
      </trkpt>
      <trkpt lat="44.5692" lon="0.84802">
        <ele>146</ele>
        <time>2012-01-30T14:47:41Z</time>
      </trkpt>
      <trkpt lat="44.56919" lon="0.84795">
        <ele>145</ele>
        <time>2012-01-30T14:47:42Z</time>
      </trkpt>
      <trkpt lat="44.56916" lon="0.84789">
        <ele>144</ele>
        <time>2012-01-30T14:47:43Z</time>
      </trkpt>
      <trkpt lat="44.56915" lon="0.84782">
        <ele>143</ele>
        <time>2012-01-30T14:47:44Z</time>
      </trkpt>
      <trkpt lat="44.56913" lon="0.84776">
        <ele>142</ele>
        <time>2012-01-30T14:47:45Z</time>
      </trkpt>
      <trkpt lat="44.56911" lon="0.84769">
        <ele>141</ele>
        <time>2012-01-30T14:47:46Z</time>
      </trkpt>
      <trkpt lat="44.56911" lon="0.84763">
        <ele>141</ele>
        <time>2012-01-30T14:47:47Z</time>
      </trkpt>
      <trkpt lat="44.5691" lon="0.84756">
        <ele>141</ele>
        <time>2012-01-30T14:47:48Z</time>
      </trkpt>
      <trkpt lat="44.56908" lon="0.8475">
        <ele>141</ele>
        <time>2012-01-30T14:47:49Z</time>
      </trkpt>
      <trkpt lat="44.56906" lon="0.84743">
        <ele>141</ele>
        <time>2012-01-30T14:47:50Z</time>
      </trkpt>
      <trkpt lat="44.56904" lon="0.84738">
        <ele>141</ele>
        <time>2012-01-30T14:47:51Z</time>
      </trkpt>
      <trkpt lat="44.56901" lon="0.84732">
        <ele>141</ele>
        <time>2012-01-30T14:47:52Z</time>
      </trkpt>
      <trkpt lat="44.56898" lon="0.84727">
        <ele>141</ele>
        <time>2012-01-30T14:47:53Z</time>
      </trkpt>
      <trkpt lat="44.56895" lon="0.84721">
        <ele>141</ele>
        <time>2012-01-30T14:47:54Z</time>
      </trkpt>
      <trkpt lat="44.56892" lon="0.84716">
        <ele>141</ele>
        <time>2012-01-30T14:47:55Z</time>
      </trkpt>
      <trkpt lat="44.56888" lon="0.84711">
        <ele>141</ele>
        <time>2012-01-30T14:47:56Z</time>
      </trkpt>
      <trkpt lat="44.56884" lon="0.84706">
        <ele>141</ele>
        <time>2012-01-30T14:47:57Z</time>
      </trkpt>
      <trkpt lat="44.5688" lon="0.84701">
        <ele>141</ele>
        <time>2012-01-30T14:47:58Z</time>
      </trkpt>
      <trkpt lat="44.56878" lon="0.84696">
        <ele>141</ele>
        <time>2012-01-30T14:47:59Z</time>
      </trkpt>
      <trkpt lat="44.56876" lon="0.84689">
        <ele>142</ele>
        <time>2012-01-30T14:48:00Z</time>
      </trkpt>
      <trkpt lat="44.56874" lon="0.84682">
        <ele>142</ele>
        <time>2012-01-30T14:48:01Z</time>
      </trkpt>
      <trkpt lat="44.56871" lon="0.84676">
        <ele>142</ele>
        <time>2012-01-30T14:48:02Z</time>
      </trkpt>
      <trkpt lat="44.56869" lon="0.8467">
        <ele>142</ele>
        <time>2012-01-30T14:48:03Z</time>
      </trkpt>
      <trkpt lat="44.56866" lon="0.84664">
        <ele>143</ele>
        <time>2012-01-30T14:48:04Z</time>
      </trkpt>
      <trkpt lat="44.56863" lon="0.84657">
        <ele>144</ele>
        <time>2012-01-30T14:48:05Z</time>
      </trkpt>
      <trkpt lat="44.56859" lon="0.84652">
        <ele>144</ele>
        <time>2012-01-30T14:48:06Z</time>
      </trkpt>
      <trkpt lat="44.56855" lon="0.84648">
        <ele>145</ele>
        <time>2012-01-30T14:48:07Z</time>
      </trkpt>
      <trkpt lat="44.5685" lon="0.84642">
        <ele>146</ele>
        <time>2012-01-30T14:48:08Z</time>
      </trkpt>
      <trkpt lat="44.56845" lon="0.84639">
        <ele>147</ele>
        <time>2012-01-30T14:48:09Z</time>
      </trkpt>
      <trkpt lat="44.5684" lon="0.84636">
        <ele>147</ele>
        <time>2012-01-30T14:48:10Z</time>
      </trkpt>
      <trkpt lat="44.56834" lon="0.84632">
        <ele>148</ele>
        <time>2012-01-30T14:48:11Z</time>
      </trkpt>
      <trkpt lat="44.56827" lon="0.8463">
        <ele>148</ele>
        <time>2012-01-30T14:48:12Z</time>
      </trkpt>
      <trkpt lat="44.56822" lon="0.84628">
        <ele>148</ele>
        <time>2012-01-30T14:48:13Z</time>
      </trkpt>
      <trkpt lat="44.56818" lon="0.84625">
        <ele>148</ele>
        <time>2012-01-30T14:48:14Z</time>
      </trkpt>
      <trkpt lat="44.56813" lon="0.84623">
        <ele>148</ele>
        <time>2012-01-30T14:48:15Z</time>
      </trkpt>
      <trkpt lat="44.56808" lon="0.8462">
        <ele>148</ele>
        <time>2012-01-30T14:48:16Z</time>
      </trkpt>
      <trkpt lat="44.56803" lon="0.84617">
        <ele>148</ele>
        <time>2012-01-30T14:48:17Z</time>
      </trkpt>
      <trkpt lat="44.56799" lon="0.84613">
        <ele>148</ele>
        <time>2012-01-30T14:48:18Z</time>
      </trkpt>
      <trkpt lat="44.56795" lon="0.8461">
        <ele>148</ele>
        <time>2012-01-30T14:48:19Z</time>
      </trkpt>
      <trkpt lat="44.5679" lon="0.84606">
        <ele>148</ele>
        <time>2012-01-30T14:48:20Z</time>
      </trkpt>
      <trkpt lat="44.56786" lon="0.846">
        <ele>148</ele>
        <time>2012-01-30T14:48:21Z</time>
      </trkpt>
      <trkpt lat="44.56783" lon="0.84595">
        <ele>148</ele>
        <time>2012-01-30T14:48:22Z</time>
      </trkpt>
      <trkpt lat="44.56779" lon="0.84588">
        <ele>148</ele>
        <time>2012-01-30T14:48:23Z</time>
      </trkpt>
      <trkpt lat="44.56775" lon="0.84584">
        <ele>148</ele>
        <time>2012-01-30T14:48:24Z</time>
      </trkpt>
      <trkpt lat="44.56773" lon="0.8458">
        <ele>148</ele>
        <time>2012-01-30T14:48:25Z</time>
      </trkpt>
      <trkpt lat="44.56771" lon="0.84578">
        <ele>148</ele>
        <time>2012-01-30T14:48:26Z</time>
      </trkpt>
      <trkpt lat="44.56769" lon="0.84576">
        <ele>148</ele>
        <time>2012-01-30T14:48:27Z</time>
      </trkpt>
      <trkpt lat="44.56767" lon="0.84575">
        <ele>147</ele>
        <time>2012-01-30T14:48:28Z</time>
      </trkpt>
      <trkpt lat="44.56765" lon="0.84574">
        <ele>146</ele>
        <time>2012-01-30T14:48:29Z</time>
      </trkpt>
      <trkpt lat="44.56763" lon="0.84575">
        <ele>145</ele>
        <time>2012-01-30T14:48:30Z</time>
      </trkpt>
      <trkpt lat="44.56761" lon="0.84578">
        <ele>144</ele>
        <time>2012-01-30T14:48:31Z</time>
      </trkpt>
      <trkpt lat="44.56761" lon="0.84581">
        <ele>143</ele>
        <time>2012-01-30T14:48:32Z</time>
      </trkpt>
      <trkpt lat="44.56762" lon="0.84585">
        <ele>143</ele>
        <time>2012-01-30T14:48:33Z</time>
      </trkpt>
      <trkpt lat="44.56762" lon="0.84589">
        <ele>142</ele>
        <time>2012-01-30T14:48:34Z</time>
      </trkpt>
      <trkpt lat="44.56762" lon="0.84592">
        <ele>142</ele>
        <time>2012-01-30T14:48:35Z</time>
      </trkpt>
      <trkpt lat="44.56762" lon="0.84596">
        <ele>141</ele>
        <time>2012-01-30T14:48:36Z</time>
      </trkpt>
      <trkpt lat="44.56762" lon="0.84599">
        <ele>141</ele>
        <time>2012-01-30T14:48:37Z</time>
      </trkpt>
      <trkpt lat="44.56761" lon="0.84603">
        <ele>141</ele>
        <time>2012-01-30T14:48:38Z</time>
      </trkpt>
      <trkpt lat="44.56761" lon="0.84606">
        <ele>140</ele>
        <time>2012-01-30T14:48:39Z</time>
      </trkpt>
      <trkpt lat="44.5676" lon="0.84609">
        <ele>140</ele>
        <time>2012-01-30T14:48:40Z</time>
      </trkpt>
      <trkpt lat="44.5676" lon="0.84613">
        <ele>140</ele>
        <time>2012-01-30T14:48:41Z</time>
      </trkpt>
      <trkpt lat="44.5676" lon="0.84617">
        <ele>139</ele>
        <time>2012-01-30T14:48:42Z</time>
      </trkpt>
      <trkpt lat="44.5676" lon="0.84621">
        <ele>139</ele>
        <time>2012-01-30T14:48:43Z</time>
      </trkpt>
      <trkpt lat="44.56759" lon="0.84626">
        <ele>138</ele>
        <time>2012-01-30T14:48:44Z</time>
      </trkpt>
      <trkpt lat="44.56758" lon="0.84631">
        <ele>138</ele>
        <time>2012-01-30T14:48:45Z</time>
      </trkpt>
      <trkpt lat="44.56757" lon="0.84635">
        <ele>138</ele>
        <time>2012-01-30T14:48:46Z</time>
      </trkpt>
      <trkpt lat="44.56757" lon="0.84639">
        <ele>138</ele>
        <time>2012-01-30T14:48:47Z</time>
      </trkpt>
      <trkpt lat="44.56755" lon="0.84643">
        <ele>138</ele>
        <time>2012-01-30T14:48:48Z</time>
      </trkpt>
      <trkpt lat="44.56754" lon="0.84648">
        <ele>138</ele>
        <time>2012-01-30T14:48:49Z</time>
      </trkpt>
      <trkpt lat="44.56753" lon="0.84652">
        <ele>138</ele>
        <time>2012-01-30T14:48:50Z</time>
      </trkpt>
      <trkpt lat="44.56752" lon="0.84656">
        <ele>138</ele>
        <time>2012-01-30T14:48:51Z</time>
      </trkpt>
      <trkpt lat="44.5675" lon="0.84659">
        <ele>138</ele>
        <time>2012-01-30T14:48:52Z</time>
      </trkpt>
      <trkpt lat="44.56749" lon="0.84663">
        <ele>138</ele>
        <time>2012-01-30T14:48:53Z</time>
      </trkpt>
      <trkpt lat="44.56747" lon="0.84668">
        <ele>138</ele>
        <time>2012-01-30T14:48:54Z</time>
      </trkpt>
      <trkpt lat="44.56745" lon="0.84672">
        <ele>138</ele>
        <time>2012-01-30T14:48:55Z</time>
      </trkpt>
      <trkpt lat="44.56743" lon="0.84676">
        <ele>138</ele>
        <time>2012-01-30T14:48:56Z</time>
      </trkpt>
      <trkpt lat="44.56741" lon="0.8468">
        <ele>138</ele>
        <time>2012-01-30T14:48:57Z</time>
      </trkpt>
      <trkpt lat="44.56739" lon="0.84684">
        <ele>138</ele>
        <time>2012-01-30T14:48:58Z</time>
      </trkpt>
      <trkpt lat="44.56736" lon="0.84687">
        <ele>138</ele>
        <time>2012-01-30T14:48:59Z</time>
      </trkpt>
      <trkpt lat="44.56733" lon="0.8469">
        <ele>138</ele>
        <time>2012-01-30T14:49:00Z</time>
      </trkpt>
      <trkpt lat="44.56731" lon="0.84694">
        <ele>138</ele>
        <time>2012-01-30T14:49:01Z</time>
      </trkpt>
      <trkpt lat="44.56728" lon="0.84698">
        <ele>138</ele>
        <time>2012-01-30T14:49:02Z</time>
      </trkpt>
      <trkpt lat="44.56725" lon="0.84701">
        <ele>138</ele>
        <time>2012-01-30T14:49:03Z</time>
      </trkpt>
      <trkpt lat="44.56723" lon="0.84704">
        <ele>138</ele>
        <time>2012-01-30T14:49:04Z</time>
      </trkpt>
      <trkpt lat="44.5672" lon="0.84707">
        <ele>138</ele>
        <time>2012-01-30T14:49:05Z</time>
      </trkpt>
      <trkpt lat="44.56716" lon="0.84709">
        <ele>138</ele>
        <time>2012-01-30T14:49:06Z</time>
      </trkpt>
      <trkpt lat="44.56713" lon="0.84712">
        <ele>138</ele>
        <time>2012-01-30T14:49:07Z</time>
      </trkpt>
      <trkpt lat="44.5671" lon="0.84715">
        <ele>138</ele>
        <time>2012-01-30T14:49:08Z</time>
      </trkpt>
      <trkpt lat="44.56707" lon="0.84718">
        <ele>138</ele>
        <time>2012-01-30T14:49:09Z</time>
      </trkpt>
      <trkpt lat="44.56704" lon="0.8472">
        <ele>138</ele>
        <time>2012-01-30T14:49:10Z</time>
      </trkpt>
      <trkpt lat="44.56701" lon="0.84723">
        <ele>138</ele>
        <time>2012-01-30T14:49:11Z</time>
      </trkpt>
      <trkpt lat="44.56698" lon="0.84726">
        <ele>138</ele>
        <time>2012-01-30T14:49:12Z</time>
      </trkpt>
      <trkpt lat="44.56695" lon="0.84729">
        <ele>138</ele>
        <time>2012-01-30T14:49:13Z</time>
      </trkpt>
      <trkpt lat="44.56692" lon="0.84733">
        <ele>138</ele>
        <time>2012-01-30T14:49:14Z</time>
      </trkpt>
      <trkpt lat="44.56689" lon="0.84736">
        <ele>139</ele>
        <time>2012-01-30T14:49:15Z</time>
      </trkpt>
      <trkpt lat="44.56686" lon="0.84739">
        <ele>139</ele>
        <time>2012-01-30T14:49:16Z</time>
      </trkpt>
      <trkpt lat="44.56683" lon="0.84743">
        <ele>139</ele>
        <time>2012-01-30T14:49:17Z</time>
      </trkpt>
      <trkpt lat="44.56679" lon="0.84746">
        <ele>139</ele>
        <time>2012-01-30T14:49:18Z</time>
      </trkpt>
      <trkpt lat="44.56676" lon="0.84748">
        <ele>140</ele>
        <time>2012-01-30T14:49:19Z</time>
      </trkpt>
      <trkpt lat="44.56673" lon="0.84751">
        <ele>140</ele>
        <time>2012-01-30T14:49:20Z</time>
      </trkpt>
      <trkpt lat="44.5667" lon="0.84754">
        <ele>140</ele>
        <time>2012-01-30T14:49:21Z</time>
      </trkpt>
      <trkpt lat="44.56666" lon="0.84756">
        <ele>140</ele>
        <time>2012-01-30T14:49:22Z</time>
      </trkpt>
      <trkpt lat="44.56662" lon="0.84759">
        <ele>140</ele>
        <time>2012-01-30T14:49:23Z</time>
      </trkpt>
      <trkpt lat="44.56659" lon="0.84762">
        <ele>140</ele>
        <time>2012-01-30T14:49:24Z</time>
      </trkpt>
      <trkpt lat="44.56656" lon="0.84765">
        <ele>140</ele>
        <time>2012-01-30T14:49:25Z</time>
      </trkpt>
      <trkpt lat="44.56652" lon="0.84769">
        <ele>141</ele>
        <time>2012-01-30T14:49:26Z</time>
      </trkpt>
      <trkpt lat="44.56648" lon="0.84772">
        <ele>141</ele>
        <time>2012-01-30T14:49:27Z</time>
      </trkpt>
      <trkpt lat="44.56644" lon="0.84776">
        <ele>142</ele>
        <time>2012-01-30T14:49:28Z</time>
      </trkpt>
      <trkpt lat="44.56641" lon="0.84779">
        <ele>142</ele>
        <time>2012-01-30T14:49:29Z</time>
      </trkpt>
      <trkpt lat="44.56638" lon="0.84782">
        <ele>143</ele>
        <time>2012-01-30T14:49:30Z</time>
      </trkpt>
      <trkpt lat="44.56634" lon="0.84786">
        <ele>144</ele>
        <time>2012-01-30T14:49:31Z</time>
      </trkpt>
      <trkpt lat="44.5663" lon="0.84789">
        <ele>144</ele>
        <time>2012-01-30T14:49:32Z</time>
      </trkpt>
      <trkpt lat="44.56627" lon="0.84793">
        <ele>145</ele>
        <time>2012-01-30T14:49:33Z</time>
      </trkpt>
      <trkpt lat="44.56623" lon="0.84795">
        <ele>145</ele>
        <time>2012-01-30T14:49:34Z</time>
      </trkpt>
      <trkpt lat="44.5662" lon="0.84798">
        <ele>146</ele>
        <time>2012-01-30T14:49:35Z</time>
      </trkpt>
      <trkpt lat="44.56617" lon="0.848">
        <ele>146</ele>
        <time>2012-01-30T14:49:36Z</time>
      </trkpt>
      <trkpt lat="44.56614" lon="0.84802">
        <ele>147</ele>
        <time>2012-01-30T14:49:37Z</time>
      </trkpt>
      <trkpt lat="44.5661" lon="0.84805">
        <ele>147</ele>
        <time>2012-01-30T14:49:38Z</time>
      </trkpt>
      <trkpt lat="44.56607" lon="0.84807">
        <ele>147</ele>
        <time>2012-01-30T14:49:39Z</time>
      </trkpt>
      <trkpt lat="44.56605" lon="0.84809">
        <ele>148</ele>
        <time>2012-01-30T14:49:40Z</time>
      </trkpt>
      <trkpt lat="44.56602" lon="0.84811">
        <ele>149</ele>
        <time>2012-01-30T14:49:41Z</time>
      </trkpt>
      <trkpt lat="44.56599" lon="0.84812">
        <ele>149</ele>
        <time>2012-01-30T14:49:42Z</time>
      </trkpt>
      <trkpt lat="44.56596" lon="0.84814">
        <ele>150</ele>
        <time>2012-01-30T14:49:43Z</time>
      </trkpt>
      <trkpt lat="44.56593" lon="0.84815">
        <ele>150</ele>
        <time>2012-01-30T14:49:44Z</time>
      </trkpt>
      <trkpt lat="44.5659" lon="0.84817">
        <ele>150</ele>
        <time>2012-01-30T14:49:45Z</time>
      </trkpt>
      <trkpt lat="44.56587" lon="0.84819">
        <ele>150</ele>
        <time>2012-01-30T14:49:46Z</time>
      </trkpt>
      <trkpt lat="44.56583" lon="0.8482">
        <ele>150</ele>
        <time>2012-01-30T14:49:47Z</time>
      </trkpt>
      <trkpt lat="44.56579" lon="0.84822">
        <ele>151</ele>
        <time>2012-01-30T14:49:48Z</time>
      </trkpt>
      <trkpt lat="44.56575" lon="0.84824">
        <ele>151</ele>
        <time>2012-01-30T14:49:49Z</time>
      </trkpt>
      <trkpt lat="44.56571" lon="0.84827">
        <ele>151</ele>
        <time>2012-01-30T14:49:50Z</time>
      </trkpt>
      <trkpt lat="44.56567" lon="0.84829">
        <ele>151</ele>
        <time>2012-01-30T14:49:51Z</time>
      </trkpt>
      <trkpt lat="44.56563" lon="0.84831">
        <ele>152</ele>
        <time>2012-01-30T14:49:52Z</time>
      </trkpt>
      <trkpt lat="44.56559" lon="0.84833">
        <ele>152</ele>
        <time>2012-01-30T14:49:53Z</time>
      </trkpt>
      <trkpt lat="44.56555" lon="0.84835">
        <ele>153</ele>
        <time>2012-01-30T14:49:54Z</time>
      </trkpt>
      <trkpt lat="44.56551" lon="0.84836">
        <ele>154</ele>
        <time>2012-01-30T14:49:55Z</time>
      </trkpt>
      <trkpt lat="44.56548" lon="0.84838">
        <ele>154</ele>
        <time>2012-01-30T14:49:56Z</time>
      </trkpt>
      <trkpt lat="44.56543" lon="0.84839">
        <ele>154</ele>
        <time>2012-01-30T14:49:57Z</time>
      </trkpt>
      <trkpt lat="44.56539" lon="0.84841">
        <ele>154</ele>
        <time>2012-01-30T14:49:58Z</time>
      </trkpt>
      <trkpt lat="44.56535" lon="0.84842">
        <ele>154</ele>
        <time>2012-01-30T14:49:59Z</time>
      </trkpt>
      <trkpt lat="44.56531" lon="0.84843">
        <ele>154</ele>
        <time>2012-01-30T14:50:00Z</time>
      </trkpt>
      <trkpt lat="44.56528" lon="0.84844">
        <ele>154</ele>
        <time>2012-01-30T14:50:01Z</time>
      </trkpt>
      <trkpt lat="44.56524" lon="0.84845">
        <ele>154</ele>
        <time>2012-01-30T14:50:02Z</time>
      </trkpt>
      <trkpt lat="44.5652" lon="0.84846">
        <ele>154</ele>
        <time>2012-01-30T14:50:03Z</time>
      </trkpt>
      <trkpt lat="44.56516" lon="0.84847">
        <ele>154</ele>
        <time>2012-01-30T14:50:04Z</time>
      </trkpt>
      <trkpt lat="44.56513" lon="0.84847">
        <ele>154</ele>
        <time>2012-01-30T14:50:05Z</time>
      </trkpt>
      <trkpt lat="44.56509" lon="0.84848">
        <ele>154</ele>
        <time>2012-01-30T14:50:06Z</time>
      </trkpt>
      <trkpt lat="44.56506" lon="0.8485">
        <ele>154</ele>
        <time>2012-01-30T14:50:07Z</time>
      </trkpt>
      <trkpt lat="44.56503" lon="0.84851">
        <ele>154</ele>
        <time>2012-01-30T14:50:08Z</time>
      </trkpt>
      <trkpt lat="44.56499" lon="0.84852">
        <ele>154</ele>
        <time>2012-01-30T14:50:09Z</time>
      </trkpt>
      <trkpt lat="44.56496" lon="0.84852">
        <ele>154</ele>
        <time>2012-01-30T14:50:10Z</time>
      </trkpt>
      <trkpt lat="44.56492" lon="0.84853">
        <ele>154</ele>
        <time>2012-01-30T14:50:11Z</time>
      </trkpt>
      <trkpt lat="44.56489" lon="0.84854">
        <ele>154</ele>
        <time>2012-01-30T14:50:12Z</time>
      </trkpt>
      <trkpt lat="44.56485" lon="0.84855">
        <ele>154</ele>
        <time>2012-01-30T14:50:13Z</time>
      </trkpt>
      <trkpt lat="44.56482" lon="0.84856">
        <ele>154</ele>
        <time>2012-01-30T14:50:14Z</time>
      </trkpt>
      <trkpt lat="44.56479" lon="0.84856">
        <ele>154</ele>
        <time>2012-01-30T14:50:15Z</time>
      </trkpt>
      <trkpt lat="44.56476" lon="0.84857">
        <ele>154</ele>
        <time>2012-01-30T14:50:16Z</time>
      </trkpt>
      <trkpt lat="44.56473" lon="0.84858">
        <ele>154</ele>
        <time>2012-01-30T14:50:17Z</time>
      </trkpt>
      <trkpt lat="44.5647" lon="0.84858">
        <ele>154</ele>
        <time>2012-01-30T14:50:18Z</time>
      </trkpt>
      <trkpt lat="44.56467" lon="0.84858">
        <ele>154</ele>
        <time>2012-01-30T14:50:19Z</time>
      </trkpt>
      <trkpt lat="44.56464" lon="0.84858">
        <ele>154</ele>
        <time>2012-01-30T14:50:20Z</time>
      </trkpt>
      <trkpt lat="44.56461" lon="0.84858">
        <ele>154</ele>
        <time>2012-01-30T14:50:21Z</time>
      </trkpt>
      <trkpt lat="44.56459" lon="0.84858">
        <ele>155</ele>
        <time>2012-01-30T14:50:22Z</time>
      </trkpt>
      <trkpt lat="44.56456" lon="0.84858">
        <ele>155</ele>
        <time>2012-01-30T14:50:23Z</time>
      </trkpt>
      <trkpt lat="44.56452" lon="0.84857">
        <ele>155</ele>
        <time>2012-01-30T14:50:24Z</time>
      </trkpt>
      <trkpt lat="44.56449" lon="0.84857">
        <ele>156</ele>
        <time>2012-01-30T14:50:25Z</time>
      </trkpt>
      <trkpt lat="44.56445" lon="0.84857">
        <ele>156</ele>
        <time>2012-01-30T14:50:26Z</time>
      </trkpt>
      <trkpt lat="44.56441" lon="0.84857">
        <ele>157</ele>
        <time>2012-01-30T14:50:27Z</time>
      </trkpt>
      <trkpt lat="44.56438" lon="0.84857">
        <ele>157</ele>
        <time>2012-01-30T14:50:28Z</time>
      </trkpt>
      <trkpt lat="44.56435" lon="0.84857">
        <ele>157</ele>
        <time>2012-01-30T14:50:29Z</time>
      </trkpt>
      <trkpt lat="44.56431" lon="0.84857">
        <ele>157</ele>
        <time>2012-01-30T14:50:30Z</time>
      </trkpt>
      <trkpt lat="44.56427" lon="0.84858">
        <ele>157</ele>
        <time>2012-01-30T14:50:31Z</time>
      </trkpt>
      <trkpt lat="44.56424" lon="0.84858">
        <ele>158</ele>
        <time>2012-01-30T14:50:32Z</time>
      </trkpt>
      <trkpt lat="44.5642" lon="0.84858">
        <ele>158</ele>
        <time>2012-01-30T14:50:33Z</time>
      </trkpt>
      <trkpt lat="44.56416" lon="0.84859">
        <ele>158</ele>
        <time>2012-01-30T14:50:34Z</time>
      </trkpt>
      <trkpt lat="44.56413" lon="0.84859">
        <ele>159</ele>
        <time>2012-01-30T14:50:35Z</time>
      </trkpt>
      <trkpt lat="44.56409" lon="0.8486">
        <ele>159</ele>
        <time>2012-01-30T14:50:36Z</time>
      </trkpt>
      <trkpt lat="44.56406" lon="0.8486">
        <ele>159</ele>
        <time>2012-01-30T14:50:37Z</time>
      </trkpt>
      <trkpt lat="44.56403" lon="0.8486">
        <ele>160</ele>
        <time>2012-01-30T14:50:38Z</time>
      </trkpt>
      <trkpt lat="44.564" lon="0.8486">
        <ele>160</ele>
        <time>2012-01-30T14:50:39Z</time>
      </trkpt>
      <trkpt lat="44.56396" lon="0.84861">
        <ele>161</ele>
        <time>2012-01-30T14:50:40Z</time>
      </trkpt>
      <trkpt lat="44.56393" lon="0.84861">
        <ele>162</ele>
        <time>2012-01-30T14:50:41Z</time>
      </trkpt>
      <trkpt lat="44.5639" lon="0.84862">
        <ele>162</ele>
        <time>2012-01-30T14:50:42Z</time>
      </trkpt>
      <trkpt lat="44.56386" lon="0.84863">
        <ele>163</ele>
        <time>2012-01-30T14:50:43Z</time>
      </trkpt>
      <trkpt lat="44.56383" lon="0.84864">
        <ele>163</ele>
        <time>2012-01-30T14:50:44Z</time>
      </trkpt>
      <trkpt lat="44.56379" lon="0.84864">
        <ele>163</ele>
        <time>2012-01-30T14:50:45Z</time>
      </trkpt>
      <trkpt lat="44.56376" lon="0.84865">
        <ele>163</ele>
        <time>2012-01-30T14:50:46Z</time>
      </trkpt>
      <trkpt lat="44.56372" lon="0.84867">
        <ele>163</ele>
        <time>2012-01-30T14:50:47Z</time>
      </trkpt>
      <trkpt lat="44.56368" lon="0.84868">
        <ele>163</ele>
        <time>2012-01-30T14:50:48Z</time>
      </trkpt>
      <trkpt lat="44.56364" lon="0.84869">
        <ele>163</ele>
        <time>2012-01-30T14:50:49Z</time>
      </trkpt>
      <trkpt lat="44.5636" lon="0.8487">
        <ele>163</ele>
        <time>2012-01-30T14:50:50Z</time>
      </trkpt>
      <trkpt lat="44.56356" lon="0.84871">
        <ele>163</ele>
        <time>2012-01-30T14:50:51Z</time>
      </trkpt>
      <trkpt lat="44.56353" lon="0.84872">
        <ele>163</ele>
        <time>2012-01-30T14:50:52Z</time>
      </trkpt>
      <trkpt lat="44.56349" lon="0.84874">
        <ele>163</ele>
        <time>2012-01-30T14:50:53Z</time>
      </trkpt>
      <trkpt lat="44.56345" lon="0.84875">
        <ele>163</ele>
        <time>2012-01-30T14:50:54Z</time>
      </trkpt>
      <trkpt lat="44.56342" lon="0.84876">
        <ele>163</ele>
        <time>2012-01-30T14:50:55Z</time>
      </trkpt>
      <trkpt lat="44.56338" lon="0.84876">
        <ele>162</ele>
        <time>2012-01-30T14:50:56Z</time>
      </trkpt>
      <trkpt lat="44.56334" lon="0.84874">
        <ele>162</ele>
        <time>2012-01-30T14:50:57Z</time>
      </trkpt>
      <trkpt lat="44.5633" lon="0.84873">
        <ele>162</ele>
        <time>2012-01-30T14:50:58Z</time>
      </trkpt>
      <trkpt lat="44.56326" lon="0.84871">
        <ele>162</ele>
        <time>2012-01-30T14:50:59Z</time>
      </trkpt>
      <trkpt lat="44.56321" lon="0.84868">
        <ele>162</ele>
        <time>2012-01-30T14:51:00Z</time>
      </trkpt>
      <trkpt lat="44.56316" lon="0.84865">
        <ele>161</ele>
        <time>2012-01-30T14:51:01Z</time>
      </trkpt>
      <trkpt lat="44.56312" lon="0.84862">
        <ele>161</ele>
        <time>2012-01-30T14:51:02Z</time>
      </trkpt>
      <trkpt lat="44.56307" lon="0.84859">
        <ele>161</ele>
        <time>2012-01-30T14:51:03Z</time>
      </trkpt>
      <trkpt lat="44.56303" lon="0.84856">
        <ele>161</ele>
        <time>2012-01-30T14:51:04Z</time>
      </trkpt>
      <trkpt lat="44.56298" lon="0.84852">
        <ele>161</ele>
        <time>2012-01-30T14:51:05Z</time>
      </trkpt>
      <trkpt lat="44.56293" lon="0.84849">
        <ele>161</ele>
        <time>2012-01-30T14:51:06Z</time>
      </trkpt>
      <trkpt lat="44.56289" lon="0.84845">
        <ele>161</ele>
        <time>2012-01-30T14:51:07Z</time>
      </trkpt>
      <trkpt lat="44.56284" lon="0.84841">
        <ele>161</ele>
        <time>2012-01-30T14:51:08Z</time>
      </trkpt>
      <trkpt lat="44.56279" lon="0.84837">
        <ele>161</ele>
        <time>2012-01-30T14:51:09Z</time>
      </trkpt>
      <trkpt lat="44.56275" lon="0.84832">
        <ele>160</ele>
        <time>2012-01-30T14:51:10Z</time>
      </trkpt>
      <trkpt lat="44.56271" lon="0.84827">
        <ele>160</ele>
        <time>2012-01-30T14:51:11Z</time>
      </trkpt>
      <trkpt lat="44.56266" lon="0.84822">
        <ele>160</ele>
        <time>2012-01-30T14:51:12Z</time>
      </trkpt>
      <trkpt lat="44.56262" lon="0.84816">
        <ele>159</ele>
        <time>2012-01-30T14:51:13Z</time>
      </trkpt>
      <trkpt lat="44.56259" lon="0.84809">
        <ele>159</ele>
        <time>2012-01-30T14:51:14Z</time>
      </trkpt>
      <trkpt lat="44.56255" lon="0.84802">
        <ele>158</ele>
        <time>2012-01-30T14:51:15Z</time>
      </trkpt>
      <trkpt lat="44.56253" lon="0.84795">
        <ele>157</ele>
        <time>2012-01-30T14:51:16Z</time>
      </trkpt>
      <trkpt lat="44.5625" lon="0.84788">
        <ele>157</ele>
        <time>2012-01-30T14:51:17Z</time>
      </trkpt>
      <trkpt lat="44.56247" lon="0.8478">
        <ele>156</ele>
        <time>2012-01-30T14:51:18Z</time>
      </trkpt>
      <trkpt lat="44.56245" lon="0.84773">
        <ele>156</ele>
        <time>2012-01-30T14:51:19Z</time>
      </trkpt>
      <trkpt lat="44.56241" lon="0.84765">
        <ele>156</ele>
        <time>2012-01-30T14:51:20Z</time>
      </trkpt>
      <trkpt lat="44.56238" lon="0.84758">
        <ele>155</ele>
        <time>2012-01-30T14:51:21Z</time>
      </trkpt>
      <trkpt lat="44.56234" lon="0.84751">
        <ele>155</ele>
        <time>2012-01-30T14:51:22Z</time>
      </trkpt>
      <trkpt lat="44.56231" lon="0.84744">
        <ele>155</ele>
        <time>2012-01-30T14:51:23Z</time>
      </trkpt>
      <trkpt lat="44.56226" lon="0.84738">
        <ele>154</ele>
        <time>2012-01-30T14:51:24Z</time>
      </trkpt>
      <trkpt lat="44.56223" lon="0.84732">
        <ele>154</ele>
        <time>2012-01-30T14:51:25Z</time>
      </trkpt>
      <trkpt lat="44.56218" lon="0.84725">
        <ele>154</ele>
        <time>2012-01-30T14:51:26Z</time>
      </trkpt>
      <trkpt lat="44.56213" lon="0.84719">
        <ele>153</ele>
        <time>2012-01-30T14:51:27Z</time>
      </trkpt>
      <trkpt lat="44.56208" lon="0.84712">
        <ele>153</ele>
        <time>2012-01-30T14:51:28Z</time>
      </trkpt>
      <trkpt lat="44.56203" lon="0.84706">
        <ele>153</ele>
        <time>2012-01-30T14:51:29Z</time>
      </trkpt>
      <trkpt lat="44.56199" lon="0.847">
        <ele>152</ele>
        <time>2012-01-30T14:51:30Z</time>
      </trkpt>
      <trkpt lat="44.56194" lon="0.84693">
        <ele>152</ele>
        <time>2012-01-30T14:51:31Z</time>
      </trkpt>
      <trkpt lat="44.56191" lon="0.84686">
        <ele>152</ele>
        <time>2012-01-30T14:51:32Z</time>
      </trkpt>
      <trkpt lat="44.56188" lon="0.84676">
        <ele>151</ele>
        <time>2012-01-30T14:51:33Z</time>
      </trkpt>
      <trkpt lat="44.56187" lon="0.84667">
        <ele>151</ele>
        <time>2012-01-30T14:51:34Z</time>
      </trkpt>
      <trkpt lat="44.56185" lon="0.84658">
        <ele>150</ele>
        <time>2012-01-30T14:51:35Z</time>
      </trkpt>
      <trkpt lat="44.56182" lon="0.84648">
        <ele>150</ele>
        <time>2012-01-30T14:51:36Z</time>
      </trkpt>
      <trkpt lat="44.56178" lon="0.8464">
        <ele>149</ele>
        <time>2012-01-30T14:51:37Z</time>
      </trkpt>
      <trkpt lat="44.56173" lon="0.84633">
        <ele>149</ele>
        <time>2012-01-30T14:51:38Z</time>
      </trkpt>
      <trkpt lat="44.56168" lon="0.84627">
        <ele>148</ele>
        <time>2012-01-30T14:51:39Z</time>
      </trkpt>
      <trkpt lat="44.56163" lon="0.84623">
        <ele>148</ele>
        <time>2012-01-30T14:51:40Z</time>
      </trkpt>
      <trkpt lat="44.56158" lon="0.84619">
        <ele>148</ele>
        <time>2012-01-30T14:51:41Z</time>
      </trkpt>
      <trkpt lat="44.56152" lon="0.84615">
        <ele>148</ele>
        <time>2012-01-30T14:51:42Z</time>
      </trkpt>
      <trkpt lat="44.56147" lon="0.84611">
        <ele>148</ele>
        <time>2012-01-30T14:51:43Z</time>
      </trkpt>
      <trkpt lat="44.5614" lon="0.84608">
        <ele>147</ele>
        <time>2012-01-30T14:51:44Z</time>
      </trkpt>
      <trkpt lat="44.56133" lon="0.84605">
        <ele>147</ele>
        <time>2012-01-30T14:51:45Z</time>
      </trkpt>
      <trkpt lat="44.56126" lon="0.84602">
        <ele>147</ele>
        <time>2012-01-30T14:51:46Z</time>
      </trkpt>
      <trkpt lat="44.5612" lon="0.846">
        <ele>146</ele>
        <time>2012-01-30T14:51:47Z</time>
      </trkpt>
      <trkpt lat="44.56113" lon="0.84597">
        <ele>146</ele>
        <time>2012-01-30T14:51:48Z</time>
      </trkpt>
      <trkpt lat="44.56108" lon="0.84595">
        <ele>145</ele>
        <time>2012-01-30T14:51:49Z</time>
      </trkpt>
      <trkpt lat="44.56103" lon="0.84592">
        <ele>144</ele>
        <time>2012-01-30T14:51:50Z</time>
      </trkpt>
      <trkpt lat="44.56099" lon="0.84587">
        <ele>144</ele>
        <time>2012-01-30T14:51:51Z</time>
      </trkpt>
      <trkpt lat="44.56096" lon="0.84581">
        <ele>143</ele>
        <time>2012-01-30T14:51:52Z</time>
      </trkpt>
      <trkpt lat="44.56094" lon="0.84575">
        <ele>142</ele>
        <time>2012-01-30T14:51:53Z</time>
      </trkpt>
      <trkpt lat="44.56094" lon="0.84566">
        <ele>141</ele>
        <time>2012-01-30T14:51:54Z</time>
      </trkpt>
      <trkpt lat="44.56096" lon="0.84556">
        <ele>140</ele>
        <time>2012-01-30T14:51:55Z</time>
      </trkpt>
      <trkpt lat="44.56097" lon="0.84545">
        <ele>139</ele>
        <time>2012-01-30T14:51:56Z</time>
      </trkpt>
      <trkpt lat="44.56098" lon="0.84534">
        <ele>138</ele>
        <time>2012-01-30T14:51:57Z</time>
      </trkpt>
      <trkpt lat="44.56098" lon="0.84522">
        <ele>137</ele>
        <time>2012-01-30T14:51:58Z</time>
      </trkpt>
      <trkpt lat="44.56099" lon="0.8451">
        <ele>136</ele>
        <time>2012-01-30T14:51:59Z</time>
      </trkpt>
      <trkpt lat="44.561" lon="0.84499">
        <ele>135</ele>
        <time>2012-01-30T14:52:00Z</time>
      </trkpt>
      <trkpt lat="44.56102" lon="0.84487">
        <ele>134</ele>
        <time>2012-01-30T14:52:01Z</time>
      </trkpt>
      <trkpt lat="44.56103" lon="0.84475">
        <ele>133</ele>
        <time>2012-01-30T14:52:02Z</time>
      </trkpt>
      <trkpt lat="44.56104" lon="0.84463">
        <ele>132</ele>
        <time>2012-01-30T14:52:03Z</time>
      </trkpt>
      <trkpt lat="44.56105" lon="0.84451">
        <ele>131</ele>
        <time>2012-01-30T14:52:04Z</time>
      </trkpt>
      <trkpt lat="44.56107" lon="0.84438">
        <ele>130</ele>
        <time>2012-01-30T14:52:05Z</time>
      </trkpt>
      <trkpt lat="44.56108" lon="0.84425">
        <ele>129</ele>
        <time>2012-01-30T14:52:06Z</time>
      </trkpt>
      <trkpt lat="44.56109" lon="0.84411">
        <ele>129</ele>
        <time>2012-01-30T14:52:07Z</time>
      </trkpt>
      <trkpt lat="44.5611" lon="0.84398">
        <ele>128</ele>
        <time>2012-01-30T14:52:08Z</time>
      </trkpt>
      <trkpt lat="44.5611" lon="0.84385">
        <ele>127</ele>
        <time>2012-01-30T14:52:09Z</time>
      </trkpt>
      <trkpt lat="44.56109" lon="0.84372">
        <ele>126</ele>
        <time>2012-01-30T14:52:10Z</time>
      </trkpt>
      <trkpt lat="44.56108" lon="0.84358">
        <ele>126</ele>
        <time>2012-01-30T14:52:11Z</time>
      </trkpt>
      <trkpt lat="44.56107" lon="0.84345">
        <ele>125</ele>
        <time>2012-01-30T14:52:12Z</time>
      </trkpt>
      <trkpt lat="44.56106" lon="0.84331">
        <ele>124</ele>
        <time>2012-01-30T14:52:13Z</time>
      </trkpt>
      <trkpt lat="44.56104" lon="0.84319">
        <ele>124</ele>
        <time>2012-01-30T14:52:14Z</time>
      </trkpt>
      <trkpt lat="44.56103" lon="0.84306">
        <ele>123</ele>
        <time>2012-01-30T14:52:15Z</time>
      </trkpt>
      <trkpt lat="44.56103" lon="0.84293">
        <ele>122</ele>
        <time>2012-01-30T14:52:16Z</time>
      </trkpt>
      <trkpt lat="44.56102" lon="0.84281">
        <ele>122</ele>
        <time>2012-01-30T14:52:17Z</time>
      </trkpt>
      <trkpt lat="44.561" lon="0.84268">
        <ele>122</ele>
        <time>2012-01-30T14:52:18Z</time>
      </trkpt>
      <trkpt lat="44.561" lon="0.84255">
        <ele>121</ele>
        <time>2012-01-30T14:52:19Z</time>
      </trkpt>
      <trkpt lat="44.56102" lon="0.84242">
        <ele>121</ele>
        <time>2012-01-30T14:52:20Z</time>
      </trkpt>
      <trkpt lat="44.56105" lon="0.84229">
        <ele>121</ele>
        <time>2012-01-30T14:52:21Z</time>
      </trkpt>
      <trkpt lat="44.56108" lon="0.84215">
        <ele>121</ele>
        <time>2012-01-30T14:52:22Z</time>
      </trkpt>
      <trkpt lat="44.5611" lon="0.84202">
        <ele>121</ele>
        <time>2012-01-30T14:52:23Z</time>
      </trkpt>
      <trkpt lat="44.56112" lon="0.8419">
        <ele>120</ele>
        <time>2012-01-30T14:52:24Z</time>
      </trkpt>
      <trkpt lat="44.56115" lon="0.8418">
        <ele>119</ele>
        <time>2012-01-30T14:52:25Z</time>
      </trkpt>
      <trkpt lat="44.56118" lon="0.84173">
        <ele>118</ele>
        <time>2012-01-30T14:52:26Z</time>
      </trkpt>
      <trkpt lat="44.56123" lon="0.84167">
        <ele>118</ele>
        <time>2012-01-30T14:52:27Z</time>
      </trkpt>
      <trkpt lat="44.56127" lon="0.84163">
        <ele>117</ele>
        <time>2012-01-30T14:52:28Z</time>
      </trkpt>
      <trkpt lat="44.56129" lon="0.84158">
        <ele>116</ele>
        <time>2012-01-30T14:52:29Z</time>
      </trkpt>
      <trkpt lat="44.56131" lon="0.84154">
        <ele>116</ele>
        <time>2012-01-30T14:52:30Z</time>
      </trkpt>
      <trkpt lat="44.56131" lon="0.84151">
        <ele>115</ele>
        <time>2012-01-30T14:52:31Z</time>
      </trkpt>
      <trkpt lat="44.56129" lon="0.84148">
        <ele>115</ele>
        <time>2012-01-30T14:52:32Z</time>
      </trkpt>
      <trkpt lat="44.56127" lon="0.84147">
        <ele>115</ele>
        <time>2012-01-30T14:52:33Z</time>
      </trkpt>
      <trkpt lat="44.56123" lon="0.84147">
        <ele>115</ele>
        <time>2012-01-30T14:52:34Z</time>
      </trkpt>
      <trkpt lat="44.56119" lon="0.84146">
        <ele>115</ele>
        <time>2012-01-30T14:52:35Z</time>
      </trkpt>
      <trkpt lat="44.56115" lon="0.84146">
        <ele>115</ele>
        <time>2012-01-30T14:52:36Z</time>
      </trkpt>
      <trkpt lat="44.5611" lon="0.84145">
        <ele>114</ele>
        <time>2012-01-30T14:52:37Z</time>
      </trkpt>
      <trkpt lat="44.56104" lon="0.84145">
        <ele>114</ele>
        <time>2012-01-30T14:52:38Z</time>
      </trkpt>
      <trkpt lat="44.56099" lon="0.84145">
        <ele>114</ele>
        <time>2012-01-30T14:52:39Z</time>
      </trkpt>
      <trkpt lat="44.56094" lon="0.84146">
        <ele>114</ele>
        <time>2012-01-30T14:52:40Z</time>
      </trkpt>
      <trkpt lat="44.56089" lon="0.84146">
        <ele>114</ele>
        <time>2012-01-30T14:52:41Z</time>
      </trkpt>
      <trkpt lat="44.56083" lon="0.84146">
        <ele>114</ele>
        <time>2012-01-30T14:52:42Z</time>
      </trkpt>
      <trkpt lat="44.56077" lon="0.84146">
        <ele>114</ele>
        <time>2012-01-30T14:52:43Z</time>
      </trkpt>
      <trkpt lat="44.56073" lon="0.84144">
        <ele>114</ele>
        <time>2012-01-30T14:52:44Z</time>
      </trkpt>
      <trkpt lat="44.56068" lon="0.8414">
        <ele>114</ele>
        <time>2012-01-30T14:52:45Z</time>
      </trkpt>
      <trkpt lat="44.56064" lon="0.84136">
        <ele>114</ele>
        <time>2012-01-30T14:52:46Z</time>
      </trkpt>
      <trkpt lat="44.56059" lon="0.84131">
        <ele>113</ele>
        <time>2012-01-30T14:52:47Z</time>
      </trkpt>
      <trkpt lat="44.56055" lon="0.84127">
        <ele>113</ele>
        <time>2012-01-30T14:52:48Z</time>
      </trkpt>
      <trkpt lat="44.5605" lon="0.84122">
        <ele>113</ele>
        <time>2012-01-30T14:52:49Z</time>
      </trkpt>
      <trkpt lat="44.56047" lon="0.84116">
        <ele>113</ele>
        <time>2012-01-30T14:52:50Z</time>
      </trkpt>
      <trkpt lat="44.56042" lon="0.8411">
        <ele>113</ele>
        <time>2012-01-30T14:52:51Z</time>
      </trkpt>
      <trkpt lat="44.56038" lon="0.84106">
        <ele>113</ele>
        <time>2012-01-30T14:52:52Z</time>
      </trkpt>
      <trkpt lat="44.56033" lon="0.84104">
        <ele>113</ele>
        <time>2012-01-30T14:52:53Z</time>
      </trkpt>
      <trkpt lat="44.56029" lon="0.84102">
        <ele>113</ele>
        <time>2012-01-30T14:52:54Z</time>
      </trkpt>
      <trkpt lat="44.56025" lon="0.84099">
        <ele>113</ele>
        <time>2012-01-30T14:52:55Z</time>
      </trkpt>
      <trkpt lat="44.5602" lon="0.84095">
        <ele>113</ele>
        <time>2012-01-30T14:52:56Z</time>
      </trkpt>
      <trkpt lat="44.56015" lon="0.84092">
        <ele>113</ele>
        <time>2012-01-30T14:52:57Z</time>
      </trkpt>
      <trkpt lat="44.56009" lon="0.84088">
        <ele>113</ele>
        <time>2012-01-30T14:52:58Z</time>
      </trkpt>
      <trkpt lat="44.56003" lon="0.84084">
        <ele>113</ele>
        <time>2012-01-30T14:52:59Z</time>
      </trkpt>
      <trkpt lat="44.55997" lon="0.84082">
        <ele>113</ele>
        <time>2012-01-30T14:53:00Z</time>
      </trkpt>
      <trkpt lat="44.55991" lon="0.8408">
        <ele>113</ele>
        <time>2012-01-30T14:53:01Z</time>
      </trkpt>
      <trkpt lat="44.55986" lon="0.8408">
        <ele>113</ele>
        <time>2012-01-30T14:53:02Z</time>
      </trkpt>
      <trkpt lat="44.5598" lon="0.8408">
        <ele>113</ele>
        <time>2012-01-30T14:53:03Z</time>
      </trkpt>
      <trkpt lat="44.55976" lon="0.84081">
        <ele>113</ele>
        <time>2012-01-30T14:53:04Z</time>
      </trkpt>
      <trkpt lat="44.55972" lon="0.84082">
        <ele>113</ele>
        <time>2012-01-30T14:53:05Z</time>
      </trkpt>
      <trkpt lat="44.55967" lon="0.84083">
        <ele>113</ele>
        <time>2012-01-30T14:53:06Z</time>
      </trkpt>
      <trkpt lat="44.55963" lon="0.84084">
        <ele>113</ele>
        <time>2012-01-30T14:53:07Z</time>
      </trkpt>
      <trkpt lat="44.55959" lon="0.84084">
        <ele>113</ele>
        <time>2012-01-30T14:53:08Z</time>
      </trkpt>
      <trkpt lat="44.55954" lon="0.84086">
        <ele>113</ele>
        <time>2012-01-30T14:53:09Z</time>
      </trkpt>
      <trkpt lat="44.55951" lon="0.84087">
        <ele>113</ele>
        <time>2012-01-30T14:53:10Z</time>
      </trkpt>
      <trkpt lat="44.55948" lon="0.84087">
        <ele>113</ele>
        <time>2012-01-30T14:53:11Z</time>
      </trkpt>
      <trkpt lat="44.55944" lon="0.84088">
        <ele>113</ele>
        <time>2012-01-30T14:53:12Z</time>
      </trkpt>
      <trkpt lat="44.55941" lon="0.84089">
        <ele>113</ele>
        <time>2012-01-30T14:53:13Z</time>
      </trkpt>
      <trkpt lat="44.55938" lon="0.8409">
        <ele>114</ele>
        <time>2012-01-30T14:53:14Z</time>
      </trkpt>
      <trkpt lat="44.55935" lon="0.84091">
        <ele>114</ele>
        <time>2012-01-30T14:53:15Z</time>
      </trkpt>
      <trkpt lat="44.55932" lon="0.84092">
        <ele>115</ele>
        <time>2012-01-30T14:53:16Z</time>
      </trkpt>
      <trkpt lat="44.55929" lon="0.84093">
        <ele>115</ele>
        <time>2012-01-30T14:53:17Z</time>
      </trkpt>
      <trkpt lat="44.55925" lon="0.84095">
        <ele>116</ele>
        <time>2012-01-30T14:53:18Z</time>
      </trkpt>
      <trkpt lat="44.55923" lon="0.84097">
        <ele>116</ele>
        <time>2012-01-30T14:53:19Z</time>
      </trkpt>
      <trkpt lat="44.5592" lon="0.841">
        <ele>117</ele>
        <time>2012-01-30T14:53:20Z</time>
      </trkpt>
      <trkpt lat="44.55917" lon="0.84103">
        <ele>117</ele>
        <time>2012-01-30T14:53:21Z</time>
      </trkpt>
      <trkpt lat="44.55913" lon="0.84106">
        <ele>118</ele>
        <time>2012-01-30T14:53:22Z</time>
      </trkpt>
      <trkpt lat="44.55911" lon="0.84109">
        <ele>118</ele>
        <time>2012-01-30T14:53:23Z</time>
      </trkpt>
      <trkpt lat="44.55908" lon="0.84111">
        <ele>118</ele>
        <time>2012-01-30T14:53:24Z</time>
      </trkpt>
      <trkpt lat="44.55906" lon="0.84115">
        <ele>119</ele>
        <time>2012-01-30T14:53:25Z</time>
      </trkpt>
      <trkpt lat="44.55904" lon="0.84117">
        <ele>120</ele>
        <time>2012-01-30T14:53:26Z</time>
      </trkpt>
      <trkpt lat="44.55902" lon="0.8412">
        <ele>121</ele>
        <time>2012-01-30T14:53:27Z</time>
      </trkpt>
      <trkpt lat="44.559" lon="0.84122">
        <ele>122</ele>
        <time>2012-01-30T14:53:28Z</time>
      </trkpt>
      <trkpt lat="44.55899" lon="0.84123">
        <ele>123</ele>
        <time>2012-01-30T14:53:29Z</time>
      </trkpt>
      <trkpt lat="44.55897" lon="0.84123">
        <ele>124</ele>
        <time>2012-01-30T14:53:30Z</time>
      </trkpt>
      <trkpt lat="44.55896" lon="0.84123">
        <ele>125</ele>
        <time>2012-01-30T14:53:31Z</time>
      </trkpt>
      <trkpt lat="44.55894" lon="0.84123">
        <ele>126</ele>
        <time>2012-01-30T14:53:32Z</time>
      </trkpt>
      <trkpt lat="44.55892" lon="0.84125">
        <ele>127</ele>
        <time>2012-01-30T14:53:33Z</time>
      </trkpt>
      <trkpt lat="44.55889" lon="0.84127">
        <ele>128</ele>
        <time>2012-01-30T14:53:34Z</time>
      </trkpt>
      <trkpt lat="44.55888" lon="0.84128">
        <ele>128</ele>
        <time>2012-01-30T14:53:35Z</time>
      </trkpt>
      <trkpt lat="44.55886" lon="0.84131">
        <ele>129</ele>
        <time>2012-01-30T14:53:36Z</time>
      </trkpt>
      <trkpt lat="44.55885" lon="0.84133">
        <ele>130</ele>
        <time>2012-01-30T14:53:37Z</time>
      </trkpt>
      <trkpt lat="44.55884" lon="0.84136">
        <ele>130</ele>
        <time>2012-01-30T14:53:38Z</time>
      </trkpt>
      <trkpt lat="44.55883" lon="0.84139">
        <ele>131</ele>
        <time>2012-01-30T14:53:39Z</time>
      </trkpt>
      <trkpt lat="44.55882" lon="0.84141">
        <ele>131</ele>
        <time>2012-01-30T14:53:40Z</time>
      </trkpt>
      <trkpt lat="44.55881" lon="0.84144">
        <ele>132</ele>
        <time>2012-01-30T14:53:41Z</time>
      </trkpt>
      <trkpt lat="44.5588" lon="0.84146">
        <ele>132</ele>
        <time>2012-01-30T14:53:42Z</time>
      </trkpt>
      <trkpt lat="44.55879" lon="0.84148">
        <ele>133</ele>
        <time>2012-01-30T14:53:43Z</time>
      </trkpt>
      <trkpt lat="44.55879" lon="0.8415">
        <ele>133</ele>
        <time>2012-01-30T14:53:44Z</time>
      </trkpt>
      <trkpt lat="44.55877" lon="0.84151">
        <ele>134</ele>
        <time>2012-01-30T14:53:46Z</time>
      </trkpt>
      <trkpt lat="44.55875" lon="0.84151">
        <ele>134</ele>
        <time>2012-01-30T14:53:47Z</time>
      </trkpt>
      <trkpt lat="44.55874" lon="0.84152">
        <ele>134</ele>
        <time>2012-01-30T14:53:48Z</time>
      </trkpt>
      <trkpt lat="44.55872" lon="0.84152">
        <ele>134</ele>
        <time>2012-01-30T14:53:49Z</time>
      </trkpt>
      <trkpt lat="44.55869" lon="0.84152">
        <ele>134</ele>
        <time>2012-01-30T14:53:50Z</time>
      </trkpt>
      <trkpt lat="44.55867" lon="0.84152">
        <ele>134</ele>
        <time>2012-01-30T14:53:51Z</time>
      </trkpt>
      <trkpt lat="44.55865" lon="0.84152">
        <ele>133</ele>
        <time>2012-01-30T14:53:52Z</time>
      </trkpt>
      <trkpt lat="44.55862" lon="0.84151">
        <ele>132</ele>
        <time>2012-01-30T14:53:53Z</time>
      </trkpt>
      <trkpt lat="44.55859" lon="0.84151">
        <ele>131</ele>
        <time>2012-01-30T14:53:54Z</time>
      </trkpt>
      <trkpt lat="44.55856" lon="0.84152">
        <ele>131</ele>
        <time>2012-01-30T14:53:55Z</time>
      </trkpt>
      <trkpt lat="44.55853" lon="0.84154">
        <ele>131</ele>
        <time>2012-01-30T14:53:56Z</time>
      </trkpt>
      <trkpt lat="44.55851" lon="0.84157">
        <ele>131</ele>
        <time>2012-01-30T14:53:57Z</time>
      </trkpt>
      <trkpt lat="44.55849" lon="0.8416">
        <ele>131</ele>
        <time>2012-01-30T14:53:58Z</time>
      </trkpt>
      <trkpt lat="44.55849" lon="0.84163">
        <ele>131</ele>
        <time>2012-01-30T14:53:59Z</time>
      </trkpt>
      <trkpt lat="44.55849" lon="0.84167">
        <ele>131</ele>
        <time>2012-01-30T14:54:00Z</time>
      </trkpt>
      <trkpt lat="44.55848" lon="0.8417">
        <ele>131</ele>
        <time>2012-01-30T14:54:01Z</time>
      </trkpt>
      <trkpt lat="44.55848" lon="0.84174">
        <ele>131</ele>
        <time>2012-01-30T14:54:02Z</time>
      </trkpt>
      <trkpt lat="44.55848" lon="0.84178">
        <ele>131</ele>
        <time>2012-01-30T14:54:03Z</time>
      </trkpt>
      <trkpt lat="44.55848" lon="0.84181">
        <ele>131</ele>
        <time>2012-01-30T14:54:04Z</time>
      </trkpt>
      <trkpt lat="44.55847" lon="0.84185">
        <ele>131</ele>
        <time>2012-01-30T14:54:05Z</time>
      </trkpt>
      <trkpt lat="44.55846" lon="0.84188">
        <ele>131</ele>
        <time>2012-01-30T14:54:06Z</time>
      </trkpt>
      <trkpt lat="44.55844" lon="0.84191">
        <ele>131</ele>
        <time>2012-01-30T14:54:07Z</time>
      </trkpt>
      <trkpt lat="44.55842" lon="0.84194">
        <ele>131</ele>
        <time>2012-01-30T14:54:08Z</time>
      </trkpt>
      <trkpt lat="44.55841" lon="0.84198">
        <ele>131</ele>
        <time>2012-01-30T14:54:09Z</time>
      </trkpt>
      <trkpt lat="44.55838" lon="0.84203">
        <ele>131</ele>
        <time>2012-01-30T14:54:10Z</time>
      </trkpt>
      <trkpt lat="44.55835" lon="0.84208">
        <ele>131</ele>
        <time>2012-01-30T14:54:11Z</time>
      </trkpt>
      <trkpt lat="44.55832" lon="0.84211">
        <ele>131</ele>
        <time>2012-01-30T14:54:12Z</time>
      </trkpt>
      <trkpt lat="44.55828" lon="0.84214">
        <ele>131</ele>
        <time>2012-01-30T14:54:13Z</time>
      </trkpt>
      <trkpt lat="44.55825" lon="0.84217">
        <ele>131</ele>
        <time>2012-01-30T14:54:14Z</time>
      </trkpt>
      <trkpt lat="44.55821" lon="0.84218">
        <ele>131</ele>
        <time>2012-01-30T14:54:15Z</time>
      </trkpt>
      <trkpt lat="44.55818" lon="0.84218">
        <ele>131</ele>
        <time>2012-01-30T14:54:16Z</time>
      </trkpt>
      <trkpt lat="44.55815" lon="0.84218">
        <ele>131</ele>
        <time>2012-01-30T14:54:17Z</time>
      </trkpt>
      <trkpt lat="44.55812" lon="0.84217">
        <ele>131</ele>
        <time>2012-01-30T14:54:18Z</time>
      </trkpt>
      <trkpt lat="44.55809" lon="0.84216">
        <ele>131</ele>
        <time>2012-01-30T14:54:19Z</time>
      </trkpt>
      <trkpt lat="44.55806" lon="0.84215">
        <ele>131</ele>
        <time>2012-01-30T14:54:20Z</time>
      </trkpt>
      <trkpt lat="44.55804" lon="0.84214">
        <ele>131</ele>
        <time>2012-01-30T14:54:21Z</time>
      </trkpt>
      <trkpt lat="44.558" lon="0.84212">
        <ele>131</ele>
        <time>2012-01-30T14:54:22Z</time>
      </trkpt>
      <trkpt lat="44.55798" lon="0.84213">
        <ele>131</ele>
        <time>2012-01-30T14:54:23Z</time>
      </trkpt>
      <trkpt lat="44.55795" lon="0.84212">
        <ele>131</ele>
        <time>2012-01-30T14:54:24Z</time>
      </trkpt>
      <trkpt lat="44.55793" lon="0.84211">
        <ele>131</ele>
        <time>2012-01-30T14:54:25Z</time>
      </trkpt>
      <trkpt lat="44.55791" lon="0.84211">
        <ele>131</ele>
        <time>2012-01-30T14:54:26Z</time>
      </trkpt>
      <trkpt lat="44.55789" lon="0.8421">
        <ele>131</ele>
        <time>2012-01-30T14:54:27Z</time>
      </trkpt>
      <trkpt lat="44.55787" lon="0.84208">
        <ele>131</ele>
        <time>2012-01-30T14:54:29Z</time>
      </trkpt>
      <trkpt lat="44.55785" lon="0.84207">
        <ele>131</ele>
        <time>2012-01-30T14:54:30Z</time>
      </trkpt>
      <trkpt lat="44.55783" lon="0.84206">
        <ele>131</ele>
        <time>2012-01-30T14:54:31Z</time>
      </trkpt>
      <trkpt lat="44.55782" lon="0.84204">
        <ele>131</ele>
        <time>2012-01-30T14:54:32Z</time>
      </trkpt>
      <trkpt lat="44.5578" lon="0.84203">
        <ele>131</ele>
        <time>2012-01-30T14:54:33Z</time>
      </trkpt>
      <trkpt lat="44.55777" lon="0.84201">
        <ele>131</ele>
        <time>2012-01-30T14:54:34Z</time>
      </trkpt>
      <trkpt lat="44.55775" lon="0.84198">
        <ele>131</ele>
        <time>2012-01-30T14:54:35Z</time>
      </trkpt>
      <trkpt lat="44.55772" lon="0.84195">
        <ele>131</ele>
        <time>2012-01-30T14:54:36Z</time>
      </trkpt>
      <trkpt lat="44.55768" lon="0.8419">
        <ele>131</ele>
        <time>2012-01-30T14:54:37Z</time>
      </trkpt>
      <trkpt lat="44.55764" lon="0.84187">
        <ele>131</ele>
        <time>2012-01-30T14:54:38Z</time>
      </trkpt>
      <trkpt lat="44.5576" lon="0.84184">
        <ele>131</ele>
        <time>2012-01-30T14:54:39Z</time>
      </trkpt>
      <trkpt lat="44.55757" lon="0.84182">
        <ele>131</ele>
        <time>2012-01-30T14:54:40Z</time>
      </trkpt>
      <trkpt lat="44.55754" lon="0.84179">
        <ele>131</ele>
        <time>2012-01-30T14:54:41Z</time>
      </trkpt>
      <trkpt lat="44.55751" lon="0.84177">
        <ele>131</ele>
        <time>2012-01-30T14:54:42Z</time>
      </trkpt>
      <trkpt lat="44.55748" lon="0.84174">
        <ele>131</ele>
        <time>2012-01-30T14:54:43Z</time>
      </trkpt>
      <trkpt lat="44.55746" lon="0.84173">
        <ele>131</ele>
        <time>2012-01-30T14:54:44Z</time>
      </trkpt>
      <trkpt lat="44.55744" lon="0.84172">
        <ele>131</ele>
        <time>2012-01-30T14:54:45Z</time>
      </trkpt>
      <trkpt lat="44.55743" lon="0.84168">
        <ele>129</ele>
        <time>2012-01-30T14:54:47Z</time>
      </trkpt>
      <trkpt lat="44.55744" lon="0.84166">
        <ele>128</ele>
        <time>2012-01-30T14:54:48Z</time>
      </trkpt>
      <trkpt lat="44.55745" lon="0.84162">
        <ele>127</ele>
        <time>2012-01-30T14:54:49Z</time>
      </trkpt>
      <trkpt lat="44.55745" lon="0.84159">
        <ele>127</ele>
        <time>2012-01-30T14:54:50Z</time>
      </trkpt>
      <trkpt lat="44.55746" lon="0.84156">
        <ele>127</ele>
        <time>2012-01-30T14:54:51Z</time>
      </trkpt>
      <trkpt lat="44.55748" lon="0.84152">
        <ele>126</ele>
        <time>2012-01-30T14:54:52Z</time>
      </trkpt>
      <trkpt lat="44.5575" lon="0.8415">
        <ele>125</ele>
        <time>2012-01-30T14:54:53Z</time>
      </trkpt>
      <trkpt lat="44.55752" lon="0.84148">
        <ele>124</ele>
        <time>2012-01-30T14:54:54Z</time>
      </trkpt>
      <trkpt lat="44.55753" lon="0.84146">
        <ele>124</ele>
        <time>2012-01-30T14:54:55Z</time>
      </trkpt>
      <trkpt lat="44.55755" lon="0.84145">
        <ele>123</ele>
        <time>2012-01-30T14:54:56Z</time>
      </trkpt>
      <trkpt lat="44.55757" lon="0.84142">
        <ele>123</ele>
        <time>2012-01-30T14:54:57Z</time>
      </trkpt>
      <trkpt lat="44.55759" lon="0.84141">
        <ele>122</ele>
        <time>2012-01-30T14:54:58Z</time>
      </trkpt>
      <trkpt lat="44.5576" lon="0.8414">
        <ele>122</ele>
        <time>2012-01-30T14:54:59Z</time>
      </trkpt>
      <trkpt lat="44.55762" lon="0.84137">
        <ele>121</ele>
        <time>2012-01-30T14:55:01Z</time>
      </trkpt>
      <trkpt lat="44.55763" lon="0.84136">
        <ele>121</ele>
        <time>2012-01-30T14:55:02Z</time>
      </trkpt>
      <trkpt lat="44.55764" lon="0.84134">
        <ele>121</ele>
        <time>2012-01-30T14:55:03Z</time>
      </trkpt>
      <trkpt lat="44.55766" lon="0.84132">
        <ele>121</ele>
        <time>2012-01-30T14:55:04Z</time>
      </trkpt>
      <trkpt lat="44.55767" lon="0.8413">
        <ele>121</ele>
        <time>2012-01-30T14:55:05Z</time>
      </trkpt>
      <trkpt lat="44.55769" lon="0.84128">
        <ele>121</ele>
        <time>2012-01-30T14:55:06Z</time>
      </trkpt>
      <trkpt lat="44.5577" lon="0.84125">
        <ele>121</ele>
        <time>2012-01-30T14:55:07Z</time>
      </trkpt>
      <trkpt lat="44.55772" lon="0.84122">
        <ele>121</ele>
        <time>2012-01-30T14:55:08Z</time>
      </trkpt>
      <trkpt lat="44.55773" lon="0.84117">
        <ele>121</ele>
        <time>2012-01-30T14:55:09Z</time>
      </trkpt>
      <trkpt lat="44.55774" lon="0.84113">
        <ele>121</ele>
        <time>2012-01-30T14:55:10Z</time>
      </trkpt>
      <trkpt lat="44.55776" lon="0.84109">
        <ele>121</ele>
        <time>2012-01-30T14:55:11Z</time>
      </trkpt>
      <trkpt lat="44.55777" lon="0.84104">
        <ele>121</ele>
        <time>2012-01-30T14:55:12Z</time>
      </trkpt>
      <trkpt lat="44.55779" lon="0.84099">
        <ele>121</ele>
        <time>2012-01-30T14:55:13Z</time>
      </trkpt>
      <trkpt lat="44.55781" lon="0.84094">
        <ele>121</ele>
        <time>2012-01-30T14:55:14Z</time>
      </trkpt>
      <trkpt lat="44.55782" lon="0.8409">
        <ele>121</ele>
        <time>2012-01-30T14:55:15Z</time>
      </trkpt>
      <trkpt lat="44.55784" lon="0.84086">
        <ele>121</ele>
        <time>2012-01-30T14:55:16Z</time>
      </trkpt>
      <trkpt lat="44.55785" lon="0.84082">
        <ele>121</ele>
        <time>2012-01-30T14:55:17Z</time>
      </trkpt>
      <trkpt lat="44.55787" lon="0.84076">
        <ele>121</ele>
        <time>2012-01-30T14:55:18Z</time>
      </trkpt>
      <trkpt lat="44.55789" lon="0.84071">
        <ele>121</ele>
        <time>2012-01-30T14:55:19Z</time>
      </trkpt>
      <trkpt lat="44.5579" lon="0.84066">
        <ele>121</ele>
        <time>2012-01-30T14:55:20Z</time>
      </trkpt>
      <trkpt lat="44.55791" lon="0.84062">
        <ele>121</ele>
        <time>2012-01-30T14:55:21Z</time>
      </trkpt>
      <trkpt lat="44.55792" lon="0.84058">
        <ele>121</ele>
        <time>2012-01-30T14:55:22Z</time>
      </trkpt>
      <trkpt lat="44.55792" lon="0.84056">
        <ele>121</ele>
        <time>2012-01-30T14:55:23Z</time>
      </trkpt>
      <trkpt lat="44.55793" lon="0.84054">
        <ele>120</ele>
        <time>2012-01-30T14:55:24Z</time>
      </trkpt>
      <trkpt lat="44.55793" lon="0.84052">
        <ele>120</ele>
        <time>2012-01-30T14:55:25Z</time>
      </trkpt>
      <trkpt lat="44.55793" lon="0.8405">
        <ele>119</ele>
        <time>2012-01-30T14:55:26Z</time>
      </trkpt>
      <trkpt lat="44.55793" lon="0.84049">
        <ele>119</ele>
        <time>2012-01-30T14:55:27Z</time>
      </trkpt>
      <trkpt lat="44.55793" lon="0.84047">
        <ele>116</ele>
        <time>2012-01-30T14:55:32Z</time>
      </trkpt>
      <trkpt lat="44.55791" lon="0.84047">
        <ele>115</ele>
        <time>2012-01-30T14:55:34Z</time>
      </trkpt>
      <trkpt lat="44.5579" lon="0.84047">
        <ele>113</ele>
        <time>2012-01-30T14:55:38Z</time>
      </trkpt>
      <trkpt lat="44.55791" lon="0.84044">
        <ele>113</ele>
        <time>2012-01-30T14:55:44Z</time>
      </trkpt>
      <trkpt lat="44.55793" lon="0.84043">
        <ele>113</ele>
        <time>2012-01-30T14:55:45Z</time>
      </trkpt>
      <trkpt lat="44.55794" lon="0.84041">
        <ele>113</ele>
        <time>2012-01-30T14:55:46Z</time>
      </trkpt>
      <trkpt lat="44.55795" lon="0.84039">
        <ele>113</ele>
        <time>2012-01-30T14:55:47Z</time>
      </trkpt>
      <trkpt lat="44.55795" lon="0.84036">
        <ele>113</ele>
        <time>2012-01-30T14:55:48Z</time>
      </trkpt>
      <trkpt lat="44.55796" lon="0.84034">
        <ele>113</ele>
        <time>2012-01-30T14:55:49Z</time>
      </trkpt>
      <trkpt lat="44.55796" lon="0.84032">
        <ele>113</ele>
        <time>2012-01-30T14:55:50Z</time>
      </trkpt>
      <trkpt lat="44.55796" lon="0.8403">
        <ele>113</ele>
        <time>2012-01-30T14:55:51Z</time>
      </trkpt>
      <trkpt lat="44.55796" lon="0.84027">
        <ele>113</ele>
        <time>2012-01-30T14:55:52Z</time>
      </trkpt>
      <trkpt lat="44.55797" lon="0.84025">
        <ele>113</ele>
        <time>2012-01-30T14:55:53Z</time>
      </trkpt>
      <trkpt lat="44.55798" lon="0.84023">
        <ele>113</ele>
        <time>2012-01-30T14:55:54Z</time>
      </trkpt>
      <trkpt lat="44.55799" lon="0.84021">
        <ele>113</ele>
        <time>2012-01-30T14:55:55Z</time>
      </trkpt>
      <trkpt lat="44.55801" lon="0.84019">
        <ele>113</ele>
        <time>2012-01-30T14:55:56Z</time>
      </trkpt>
      <trkpt lat="44.55804" lon="0.84016">
        <ele>113</ele>
        <time>2012-01-30T14:55:57Z</time>
      </trkpt>
      <trkpt lat="44.55806" lon="0.84013">
        <ele>113</ele>
        <time>2012-01-30T14:55:58Z</time>
      </trkpt>
      <trkpt lat="44.55809" lon="0.8401">
        <ele>113</ele>
        <time>2012-01-30T14:55:59Z</time>
      </trkpt>
      <trkpt lat="44.55813" lon="0.84006">
        <ele>113</ele>
        <time>2012-01-30T14:56:00Z</time>
      </trkpt>
      <trkpt lat="44.55816" lon="0.84003">
        <ele>112</ele>
        <time>2012-01-30T14:56:01Z</time>
      </trkpt>
      <trkpt lat="44.5582" lon="0.83999">
        <ele>111</ele>
        <time>2012-01-30T14:56:02Z</time>
      </trkpt>
      <trkpt lat="44.55822" lon="0.83997">
        <ele>110</ele>
        <time>2012-01-30T14:56:03Z</time>
      </trkpt>
      <trkpt lat="44.55825" lon="0.83994">
        <ele>109</ele>
        <time>2012-01-30T14:56:04Z</time>
      </trkpt>
      <trkpt lat="44.55827" lon="0.83992">
        <ele>108</ele>
        <time>2012-01-30T14:56:05Z</time>
      </trkpt>
      <trkpt lat="44.55828" lon="0.83991">
        <ele>108</ele>
        <time>2012-01-30T14:56:06Z</time>
      </trkpt>
      <trkpt lat="44.5583" lon="0.83988">
        <ele>108</ele>
        <time>2012-01-30T14:56:07Z</time>
      </trkpt>
      <trkpt lat="44.55833" lon="0.83987">
        <ele>108</ele>
        <time>2012-01-30T14:56:08Z</time>
      </trkpt>
      <trkpt lat="44.55834" lon="0.83985">
        <ele>108</ele>
        <time>2012-01-30T14:56:09Z</time>
      </trkpt>
      <trkpt lat="44.55835" lon="0.83983">
        <ele>108</ele>
        <time>2012-01-30T14:56:10Z</time>
      </trkpt>
      <trkpt lat="44.55837" lon="0.83981">
        <ele>108</ele>
        <time>2012-01-30T14:56:11Z</time>
      </trkpt>
      <trkpt lat="44.55838" lon="0.83979">
        <ele>108</ele>
        <time>2012-01-30T14:56:12Z</time>
      </trkpt>
      <trkpt lat="44.5584" lon="0.83977">
        <ele>108</ele>
        <time>2012-01-30T14:56:13Z</time>
      </trkpt>
      <trkpt lat="44.55842" lon="0.83975">
        <ele>108</ele>
        <time>2012-01-30T14:56:14Z</time>
      </trkpt>
      <trkpt lat="44.55844" lon="0.83973">
        <ele>108</ele>
        <time>2012-01-30T14:56:15Z</time>
      </trkpt>
      <trkpt lat="44.55845" lon="0.83971">
        <ele>108</ele>
        <time>2012-01-30T14:56:16Z</time>
      </trkpt>
      <trkpt lat="44.55847" lon="0.83969">
        <ele>108</ele>
        <time>2012-01-30T14:56:17Z</time>
      </trkpt>
      <trkpt lat="44.55848" lon="0.83968">
        <ele>108</ele>
        <time>2012-01-30T14:56:18Z</time>
      </trkpt>
      <trkpt lat="44.5585" lon="0.83965">
        <ele>108</ele>
        <time>2012-01-30T14:56:19Z</time>
      </trkpt>
      <trkpt lat="44.55852" lon="0.83961">
        <ele>108</ele>
        <time>2012-01-30T14:56:20Z</time>
      </trkpt>
      <trkpt lat="44.55853" lon="0.83959">
        <ele>107</ele>
        <time>2012-01-30T14:56:21Z</time>
      </trkpt>
      <trkpt lat="44.55855" lon="0.83957">
        <ele>106</ele>
        <time>2012-01-30T14:56:22Z</time>
      </trkpt>
      <trkpt lat="44.55856" lon="0.83954">
        <ele>105</ele>
        <time>2012-01-30T14:56:23Z</time>
      </trkpt>
      <trkpt lat="44.55857" lon="0.83951">
        <ele>104</ele>
        <time>2012-01-30T14:56:24Z</time>
      </trkpt>
      <trkpt lat="44.55858" lon="0.83948">
        <ele>103</ele>
        <time>2012-01-30T14:56:25Z</time>
      </trkpt>
      <trkpt lat="44.5586" lon="0.83946">
        <ele>102</ele>
        <time>2012-01-30T14:56:26Z</time>
      </trkpt>
      <trkpt lat="44.55861" lon="0.83942">
        <ele>102</ele>
        <time>2012-01-30T14:56:27Z</time>
      </trkpt>
      <trkpt lat="44.55862" lon="0.8394">
        <ele>102</ele>
        <time>2012-01-30T14:56:28Z</time>
      </trkpt>
      <trkpt lat="44.55862" lon="0.83938">
        <ele>102</ele>
        <time>2012-01-30T14:56:29Z</time>
      </trkpt>
      <trkpt lat="44.55864" lon="0.83936">
        <ele>102</ele>
        <time>2012-01-30T14:56:30Z</time>
      </trkpt>
      <trkpt lat="44.55865" lon="0.83934">
        <ele>102</ele>
        <time>2012-01-30T14:56:31Z</time>
      </trkpt>
      <trkpt lat="44.55866" lon="0.83932">
        <ele>102</ele>
        <time>2012-01-30T14:56:32Z</time>
      </trkpt>
      <trkpt lat="44.55867" lon="0.8393">
        <ele>102</ele>
        <time>2012-01-30T14:56:33Z</time>
      </trkpt>
      <trkpt lat="44.55868" lon="0.83928">
        <ele>102</ele>
        <time>2012-01-30T14:56:34Z</time>
      </trkpt>
      <trkpt lat="44.55869" lon="0.83926">
        <ele>102</ele>
        <time>2012-01-30T14:56:35Z</time>
      </trkpt>
      <trkpt lat="44.55869" lon="0.83924">
        <ele>102</ele>
        <time>2012-01-30T14:56:36Z</time>
      </trkpt>
      <trkpt lat="44.5587" lon="0.83921">
        <ele>102</ele>
        <time>2012-01-30T14:56:37Z</time>
      </trkpt>
      <trkpt lat="44.55871" lon="0.83919">
        <ele>103</ele>
        <time>2012-01-30T14:56:38Z</time>
      </trkpt>
      <trkpt lat="44.55871" lon="0.83917">
        <ele>103</ele>
        <time>2012-01-30T14:56:39Z</time>
      </trkpt>
      <trkpt lat="44.55872" lon="0.83916">
        <ele>104</ele>
        <time>2012-01-30T14:56:40Z</time>
      </trkpt>
      <trkpt lat="44.55873" lon="0.83914">
        <ele>104</ele>
        <time>2012-01-30T14:56:41Z</time>
      </trkpt>
      <trkpt lat="44.55874" lon="0.83912">
        <ele>105</ele>
        <time>2012-01-30T14:56:42Z</time>
      </trkpt>
      <trkpt lat="44.55875" lon="0.83911">
        <ele>105</ele>
        <time>2012-01-30T14:56:43Z</time>
      </trkpt>
      <trkpt lat="44.55876" lon="0.83908">
        <ele>105</ele>
        <time>2012-01-30T14:56:44Z</time>
      </trkpt>
      <trkpt lat="44.55878" lon="0.83907">
        <ele>105</ele>
        <time>2012-01-30T14:56:45Z</time>
      </trkpt>
      <trkpt lat="44.55879" lon="0.83904">
        <ele>105</ele>
        <time>2012-01-30T14:56:46Z</time>
      </trkpt>
      <trkpt lat="44.55881" lon="0.83903">
        <ele>105</ele>
        <time>2012-01-30T14:56:47Z</time>
      </trkpt>
      <trkpt lat="44.55883" lon="0.83901">
        <ele>105</ele>
        <time>2012-01-30T14:56:49Z</time>
      </trkpt>
      <trkpt lat="44.55884" lon="0.83899">
        <ele>105</ele>
        <time>2012-01-30T14:56:50Z</time>
      </trkpt>
      <trkpt lat="44.55886" lon="0.83897">
        <ele>106</ele>
        <time>2012-01-30T14:56:52Z</time>
      </trkpt>
      <trkpt lat="44.55886" lon="0.83895">
        <ele>107</ele>
        <time>2012-01-30T14:56:53Z</time>
      </trkpt>
      <trkpt lat="44.55889" lon="0.83893">
        <ele>108</ele>
        <time>2012-01-30T14:56:55Z</time>
      </trkpt>
      <trkpt lat="44.55891" lon="0.8389">
        <ele>109</ele>
        <time>2012-01-30T14:56:57Z</time>
      </trkpt>
      <trkpt lat="44.55892" lon="0.83889">
        <ele>110</ele>
        <time>2012-01-30T14:56:58Z</time>
      </trkpt>
      <trkpt lat="44.55893" lon="0.83887">
        <ele>110</ele>
        <time>2012-01-30T14:56:59Z</time>
      </trkpt>
      <trkpt lat="44.55894" lon="0.83884">
        <ele>112</ele>
        <time>2012-01-30T14:57:01Z</time>
      </trkpt>
      <trkpt lat="44.55895" lon="0.83883">
        <ele>113</ele>
        <time>2012-01-30T14:57:02Z</time>
      </trkpt>
      <trkpt lat="44.55896" lon="0.83881">
        <ele>113</ele>
        <time>2012-01-30T14:57:03Z</time>
      </trkpt>
      <trkpt lat="44.55898" lon="0.83879">
        <ele>115</ele>
        <time>2012-01-30T14:57:05Z</time>
      </trkpt>
      <trkpt lat="44.559" lon="0.83875">
        <ele>117</ele>
        <time>2012-01-30T14:57:07Z</time>
      </trkpt>
      <trkpt lat="44.55901" lon="0.83873">
        <ele>118</ele>
        <time>2012-01-30T14:57:08Z</time>
      </trkpt>
      <trkpt lat="44.55902" lon="0.83871">
        <ele>119</ele>
        <time>2012-01-30T14:57:09Z</time>
      </trkpt>
      <trkpt lat="44.55902" lon="0.83869">
        <ele>119</ele>
        <time>2012-01-30T14:57:10Z</time>
      </trkpt>
      <trkpt lat="44.55903" lon="0.83867">
        <ele>120</ele>
        <time>2012-01-30T14:57:11Z</time>
      </trkpt>
      <trkpt lat="44.55904" lon="0.83865">
        <ele>120</ele>
        <time>2012-01-30T14:57:12Z</time>
      </trkpt>
      <trkpt lat="44.55905" lon="0.83863">
        <ele>120</ele>
        <time>2012-01-30T14:57:13Z</time>
      </trkpt>
      <trkpt lat="44.55906" lon="0.83861">
        <ele>120</ele>
        <time>2012-01-30T14:57:14Z</time>
      </trkpt>
      <trkpt lat="44.55906" lon="0.83859">
        <ele>120</ele>
        <time>2012-01-30T14:57:15Z</time>
      </trkpt>
      <trkpt lat="44.55907" lon="0.83857">
        <ele>121</ele>
        <time>2012-01-30T14:57:16Z</time>
      </trkpt>
      <trkpt lat="44.55908" lon="0.83855">
        <ele>121</ele>
        <time>2012-01-30T14:57:17Z</time>
      </trkpt>
      <trkpt lat="44.55909" lon="0.83853">
        <ele>121</ele>
        <time>2012-01-30T14:57:18Z</time>
      </trkpt>
      <trkpt lat="44.5591" lon="0.83852">
        <ele>122</ele>
        <time>2012-01-30T14:57:19Z</time>
      </trkpt>
      <trkpt lat="44.5591" lon="0.8385">
        <ele>122</ele>
        <time>2012-01-30T14:57:20Z</time>
      </trkpt>
      <trkpt lat="44.55911" lon="0.83848">
        <ele>122</ele>
        <time>2012-01-30T14:57:21Z</time>
      </trkpt>
      <trkpt lat="44.55912" lon="0.83846">
        <ele>123</ele>
        <time>2012-01-30T14:57:22Z</time>
      </trkpt>
      <trkpt lat="44.55913" lon="0.83844">
        <ele>123</ele>
        <time>2012-01-30T14:57:23Z</time>
      </trkpt>
      <trkpt lat="44.55914" lon="0.83842">
        <ele>123</ele>
        <time>2012-01-30T14:57:24Z</time>
      </trkpt>
      <trkpt lat="44.55914" lon="0.8384">
        <ele>124</ele>
        <time>2012-01-30T14:57:25Z</time>
      </trkpt>
      <trkpt lat="44.55915" lon="0.83838">
        <ele>124</ele>
        <time>2012-01-30T14:57:26Z</time>
      </trkpt>
      <trkpt lat="44.55916" lon="0.83836">
        <ele>124</ele>
        <time>2012-01-30T14:57:27Z</time>
      </trkpt>
      <trkpt lat="44.55917" lon="0.83833">
        <ele>124</ele>
        <time>2012-01-30T14:57:28Z</time>
      </trkpt>
      <trkpt lat="44.55919" lon="0.83832">
        <ele>124</ele>
        <time>2012-01-30T14:57:29Z</time>
      </trkpt>
      <trkpt lat="44.5592" lon="0.8383">
        <ele>124</ele>
        <time>2012-01-30T14:57:30Z</time>
      </trkpt>
      <trkpt lat="44.55921" lon="0.83828">
        <ele>124</ele>
        <time>2012-01-30T14:57:31Z</time>
      </trkpt>
      <trkpt lat="44.55922" lon="0.83827">
        <ele>125</ele>
        <time>2012-01-30T14:57:32Z</time>
      </trkpt>
      <trkpt lat="44.55924" lon="0.83824">
        <ele>125</ele>
        <time>2012-01-30T14:57:33Z</time>
      </trkpt>
      <trkpt lat="44.55925" lon="0.83822">
        <ele>125</ele>
        <time>2012-01-30T14:57:34Z</time>
      </trkpt>
      <trkpt lat="44.55927" lon="0.8382">
        <ele>125</ele>
        <time>2012-01-30T14:57:35Z</time>
      </trkpt>
      <trkpt lat="44.55928" lon="0.83817">
        <ele>125</ele>
        <time>2012-01-30T14:57:36Z</time>
      </trkpt>
      <trkpt lat="44.5593" lon="0.83815">
        <ele>125</ele>
        <time>2012-01-30T14:57:37Z</time>
      </trkpt>
      <trkpt lat="44.55931" lon="0.83812">
        <ele>125</ele>
        <time>2012-01-30T14:57:38Z</time>
      </trkpt>
      <trkpt lat="44.55933" lon="0.8381">
        <ele>125</ele>
        <time>2012-01-30T14:57:39Z</time>
      </trkpt>
      <trkpt lat="44.55935" lon="0.83807">
        <ele>125</ele>
        <time>2012-01-30T14:57:40Z</time>
      </trkpt>
      <trkpt lat="44.55936" lon="0.83805">
        <ele>125</ele>
        <time>2012-01-30T14:57:41Z</time>
      </trkpt>
      <trkpt lat="44.55938" lon="0.83803">
        <ele>125</ele>
        <time>2012-01-30T14:57:42Z</time>
      </trkpt>
      <trkpt lat="44.55939" lon="0.83801">
        <ele>125</ele>
        <time>2012-01-30T14:57:43Z</time>
      </trkpt>
      <trkpt lat="44.55941" lon="0.83798">
        <ele>125</ele>
        <time>2012-01-30T14:57:44Z</time>
      </trkpt>
      <trkpt lat="44.55943" lon="0.83796">
        <ele>125</ele>
        <time>2012-01-30T14:57:45Z</time>
      </trkpt>
      <trkpt lat="44.55944" lon="0.83794">
        <ele>125</ele>
        <time>2012-01-30T14:57:46Z</time>
      </trkpt>
      <trkpt lat="44.55945" lon="0.83793">
        <ele>125</ele>
        <time>2012-01-30T14:57:47Z</time>
      </trkpt>
      <trkpt lat="44.55946" lon="0.8379">
        <ele>125</ele>
        <time>2012-01-30T14:57:48Z</time>
      </trkpt>
      <trkpt lat="44.55947" lon="0.83789">
        <ele>125</ele>
        <time>2012-01-30T14:57:49Z</time>
      </trkpt>
      <trkpt lat="44.55949" lon="0.83787">
        <ele>125</ele>
        <time>2012-01-30T14:57:50Z</time>
      </trkpt>
      <trkpt lat="44.5595" lon="0.83785">
        <ele>125</ele>
        <time>2012-01-30T14:57:51Z</time>
      </trkpt>
      <trkpt lat="44.55951" lon="0.83782">
        <ele>125</ele>
        <time>2012-01-30T14:57:52Z</time>
      </trkpt>
      <trkpt lat="44.55952" lon="0.8378">
        <ele>125</ele>
        <time>2012-01-30T14:57:53Z</time>
      </trkpt>
      <trkpt lat="44.55952" lon="0.83777">
        <ele>125</ele>
        <time>2012-01-30T14:57:54Z</time>
      </trkpt>
      <trkpt lat="44.55952" lon="0.83775">
        <ele>125</ele>
        <time>2012-01-30T14:57:55Z</time>
      </trkpt>
      <trkpt lat="44.55952" lon="0.83773">
        <ele>125</ele>
        <time>2012-01-30T14:57:56Z</time>
      </trkpt>
      <trkpt lat="44.5595" lon="0.83772">
        <ele>125</ele>
        <time>2012-01-30T14:57:57Z</time>
      </trkpt>
      <trkpt lat="44.55949" lon="0.83771">
        <ele>125</ele>
        <time>2012-01-30T14:58:00Z</time>
      </trkpt>
      <trkpt lat="44.55951" lon="0.83771">
        <ele>125</ele>
        <time>2012-01-30T14:58:03Z</time>
      </trkpt>
      <trkpt lat="44.55951" lon="0.83769">
        <ele>127</ele>
        <time>2012-01-30T14:58:13Z</time>
      </trkpt>
      <trkpt lat="44.55953" lon="0.83769">
        <ele>127</ele>
        <time>2012-01-30T14:58:20Z</time>
      </trkpt>
      <trkpt lat="44.55954" lon="0.83768">
        <ele>127</ele>
        <time>2012-01-30T14:58:22Z</time>
      </trkpt>
      <trkpt lat="44.55955" lon="0.83768">
        <ele>127</ele>
        <time>2012-01-30T14:58:24Z</time>
      </trkpt>
      <trkpt lat="44.55954" lon="0.83768">
        <ele>127</ele>
        <time>2012-01-30T14:58:32Z</time>
      </trkpt>
      <trkpt lat="44.55952" lon="0.83767">
        <ele>127</ele>
        <time>2012-01-30T14:58:35Z</time>
      </trkpt>
      <trkpt lat="44.55951" lon="0.83766">
        <ele>126</ele>
        <time>2012-01-30T14:58:37Z</time>
      </trkpt>
      <trkpt lat="44.5595" lon="0.83765">
        <ele>126</ele>
        <time>2012-01-30T14:58:40Z</time>
      </trkpt>
      <trkpt lat="44.5595" lon="0.83766">
        <ele>126</ele>
        <time>2012-01-30T14:58:49Z</time>
      </trkpt>
      <trkpt lat="44.55951" lon="0.83767">
        <ele>133</ele>
        <time>2012-01-30T14:59:00Z</time>
      </trkpt>
      <trkpt lat="44.5595" lon="0.83765">
        <ele>136</ele>
        <time>2012-01-30T14:59:03Z</time>
      </trkpt>
      <trkpt lat="44.55949" lon="0.83764">
        <ele>137</ele>
        <time>2012-01-30T14:59:07Z</time>
      </trkpt>
      <trkpt lat="44.55947" lon="0.83763">
        <ele>137</ele>
        <time>2012-01-30T14:59:08Z</time>
      </trkpt>
      <trkpt lat="44.55946" lon="0.8376">
        <ele>137</ele>
        <time>2012-01-30T14:59:10Z</time>
      </trkpt>
      <trkpt lat="44.55946" lon="0.83758">
        <ele>137</ele>
        <time>2012-01-30T14:59:11Z</time>
      </trkpt>
      <trkpt lat="44.55946" lon="0.83755">
        <ele>137</ele>
        <time>2012-01-30T14:59:12Z</time>
      </trkpt>
      <trkpt lat="44.55947" lon="0.83753">
        <ele>137</ele>
        <time>2012-01-30T14:59:13Z</time>
      </trkpt>
      <trkpt lat="44.55947" lon="0.8375">
        <ele>137</ele>
        <time>2012-01-30T14:59:14Z</time>
      </trkpt>
      <trkpt lat="44.55948" lon="0.83748">
        <ele>137</ele>
        <time>2012-01-30T14:59:15Z</time>
      </trkpt>
      <trkpt lat="44.55949" lon="0.83745">
        <ele>137</ele>
        <time>2012-01-30T14:59:16Z</time>
      </trkpt>
      <trkpt lat="44.55949" lon="0.83742">
        <ele>137</ele>
        <time>2012-01-30T14:59:17Z</time>
      </trkpt>
      <trkpt lat="44.5595" lon="0.8374">
        <ele>137</ele>
        <time>2012-01-30T14:59:18Z</time>
      </trkpt>
      <trkpt lat="44.55951" lon="0.83737">
        <ele>137</ele>
        <time>2012-01-30T14:59:19Z</time>
      </trkpt>
      <trkpt lat="44.55952" lon="0.83734">
        <ele>137</ele>
        <time>2012-01-30T14:59:20Z</time>
      </trkpt>
      <trkpt lat="44.55952" lon="0.83731">
        <ele>137</ele>
        <time>2012-01-30T14:59:21Z</time>
      </trkpt>
      <trkpt lat="44.55953" lon="0.83728">
        <ele>136</ele>
        <time>2012-01-30T14:59:22Z</time>
      </trkpt>
      <trkpt lat="44.55953" lon="0.83724">
        <ele>135</ele>
        <time>2012-01-30T14:59:23Z</time>
      </trkpt>
      <trkpt lat="44.55955" lon="0.83721">
        <ele>135</ele>
        <time>2012-01-30T14:59:24Z</time>
      </trkpt>
      <trkpt lat="44.55957" lon="0.83718">
        <ele>134</ele>
        <time>2012-01-30T14:59:25Z</time>
      </trkpt>
      <trkpt lat="44.55958" lon="0.83715">
        <ele>134</ele>
        <time>2012-01-30T14:59:26Z</time>
      </trkpt>
      <trkpt lat="44.55959" lon="0.83712">
        <ele>134</ele>
        <time>2012-01-30T14:59:27Z</time>
      </trkpt>
      <trkpt lat="44.5596" lon="0.83708">
        <ele>134</ele>
        <time>2012-01-30T14:59:28Z</time>
      </trkpt>
      <trkpt lat="44.55961" lon="0.83704">
        <ele>133</ele>
        <time>2012-01-30T14:59:29Z</time>
      </trkpt>
      <trkpt lat="44.55962" lon="0.837">
        <ele>133</ele>
        <time>2012-01-30T14:59:30Z</time>
      </trkpt>
      <trkpt lat="44.55963" lon="0.83696">
        <ele>133</ele>
        <time>2012-01-30T14:59:31Z</time>
      </trkpt>
      <trkpt lat="44.55964" lon="0.83693">
        <ele>133</ele>
        <time>2012-01-30T14:59:32Z</time>
      </trkpt>
      <trkpt lat="44.55965" lon="0.83689">
        <ele>133</ele>
        <time>2012-01-30T14:59:33Z</time>
      </trkpt>
      <trkpt lat="44.55967" lon="0.83685">
        <ele>132</ele>
        <time>2012-01-30T14:59:34Z</time>
      </trkpt>
      <trkpt lat="44.55968" lon="0.83682">
        <ele>132</ele>
        <time>2012-01-30T14:59:35Z</time>
      </trkpt>
      <trkpt lat="44.55969" lon="0.83677">
        <ele>132</ele>
        <time>2012-01-30T14:59:36Z</time>
      </trkpt>
      <trkpt lat="44.55969" lon="0.83673">
        <ele>131</ele>
        <time>2012-01-30T14:59:37Z</time>
      </trkpt>
      <trkpt lat="44.55969" lon="0.83667">
        <ele>131</ele>
        <time>2012-01-30T14:59:38Z</time>
      </trkpt>
      <trkpt lat="44.55968" lon="0.83663">
        <ele>130</ele>
        <time>2012-01-30T14:59:39Z</time>
      </trkpt>
      <trkpt lat="44.55967" lon="0.83658">
        <ele>130</ele>
        <time>2012-01-30T14:59:40Z</time>
      </trkpt>
      <trkpt lat="44.55967" lon="0.83652">
        <ele>129</ele>
        <time>2012-01-30T14:59:41Z</time>
      </trkpt>
      <trkpt lat="44.55966" lon="0.83647">
        <ele>128</ele>
        <time>2012-01-30T14:59:42Z</time>
      </trkpt>
      <trkpt lat="44.55963" lon="0.83641">
        <ele>127</ele>
        <time>2012-01-30T14:59:43Z</time>
      </trkpt>
      <trkpt lat="44.5596" lon="0.83635">
        <ele>126</ele>
        <time>2012-01-30T14:59:44Z</time>
      </trkpt>
      <trkpt lat="44.55957" lon="0.83631">
        <ele>125</ele>
        <time>2012-01-30T14:59:45Z</time>
      </trkpt>
      <trkpt lat="44.55954" lon="0.83626">
        <ele>124</ele>
        <time>2012-01-30T14:59:46Z</time>
      </trkpt>
      <trkpt lat="44.5595" lon="0.83624">
        <ele>124</ele>
        <time>2012-01-30T14:59:47Z</time>
      </trkpt>
      <trkpt lat="44.55946" lon="0.83623">
        <ele>123</ele>
        <time>2012-01-30T14:59:48Z</time>
      </trkpt>
      <trkpt lat="44.55941" lon="0.83623">
        <ele>123</ele>
        <time>2012-01-30T14:59:49Z</time>
      </trkpt>
      <trkpt lat="44.55936" lon="0.83623">
        <ele>123</ele>
        <time>2012-01-30T14:59:50Z</time>
      </trkpt>
      <trkpt lat="44.5593" lon="0.83622">
        <ele>123</ele>
        <time>2012-01-30T14:59:51Z</time>
      </trkpt>
      <trkpt lat="44.55924" lon="0.83618">
        <ele>122</ele>
        <time>2012-01-30T14:59:52Z</time>
      </trkpt>
      <trkpt lat="44.5592" lon="0.83613">
        <ele>122</ele>
        <time>2012-01-30T14:59:53Z</time>
      </trkpt>
      <trkpt lat="44.55917" lon="0.83607">
        <ele>122</ele>
        <time>2012-01-30T14:59:54Z</time>
      </trkpt>
      <trkpt lat="44.55915" lon="0.83601">
        <ele>121</ele>
        <time>2012-01-30T14:59:55Z</time>
      </trkpt>
      <trkpt lat="44.55915" lon="0.83595">
        <ele>121</ele>
        <time>2012-01-30T14:59:56Z</time>
      </trkpt>
      <trkpt lat="44.55914" lon="0.83588">
        <ele>120</ele>
        <time>2012-01-30T14:59:57Z</time>
      </trkpt>
      <trkpt lat="44.5591" lon="0.83581">
        <ele>119</ele>
        <time>2012-01-30T14:59:58Z</time>
      </trkpt>
      <trkpt lat="44.55907" lon="0.83573">
        <ele>118</ele>
        <time>2012-01-30T14:59:59Z</time>
      </trkpt>
      <trkpt lat="44.55902" lon="0.83566">
        <ele>117</ele>
        <time>2012-01-30T15:00:00Z</time>
      </trkpt>
      <trkpt lat="44.55899" lon="0.8356">
        <ele>116</ele>
        <time>2012-01-30T15:00:01Z</time>
      </trkpt>
      <trkpt lat="44.55896" lon="0.83553">
        <ele>115</ele>
        <time>2012-01-30T15:00:02Z</time>
      </trkpt>
      <trkpt lat="44.55893" lon="0.83548">
        <ele>114</ele>
        <time>2012-01-30T15:00:03Z</time>
      </trkpt>
      <trkpt lat="44.5589" lon="0.83543">
        <ele>113</ele>
        <time>2012-01-30T15:00:04Z</time>
      </trkpt>
      <trkpt lat="44.55885" lon="0.83539">
        <ele>112</ele>
        <time>2012-01-30T15:00:05Z</time>
      </trkpt>
      <trkpt lat="44.55881" lon="0.83536">
        <ele>111</ele>
        <time>2012-01-30T15:00:06Z</time>
      </trkpt>
      <trkpt lat="44.55878" lon="0.83531">
        <ele>110</ele>
        <time>2012-01-30T15:00:07Z</time>
      </trkpt>
      <trkpt lat="44.55876" lon="0.83526">
        <ele>109</ele>
        <time>2012-01-30T15:00:08Z</time>
      </trkpt>
      <trkpt lat="44.55874" lon="0.8352">
        <ele>108</ele>
        <time>2012-01-30T15:00:09Z</time>
      </trkpt>
      <trkpt lat="44.55875" lon="0.83513">
        <ele>107</ele>
        <time>2012-01-30T15:00:10Z</time>
      </trkpt>
      <trkpt lat="44.55875" lon="0.83507">
        <ele>107</ele>
        <time>2012-01-30T15:00:11Z</time>
      </trkpt>
      <trkpt lat="44.55873" lon="0.83501">
        <ele>107</ele>
        <time>2012-01-30T15:00:12Z</time>
      </trkpt>
      <trkpt lat="44.55871" lon="0.83497">
        <ele>107</ele>
        <time>2012-01-30T15:00:13Z</time>
      </trkpt>
      <trkpt lat="44.55866" lon="0.83495">
        <ele>107</ele>
        <time>2012-01-30T15:00:14Z</time>
      </trkpt>
      <trkpt lat="44.55862" lon="0.83494">
        <ele>107</ele>
        <time>2012-01-30T15:00:15Z</time>
      </trkpt>
      <trkpt lat="44.55857" lon="0.83493">
        <ele>107</ele>
        <time>2012-01-30T15:00:16Z</time>
      </trkpt>
      <trkpt lat="44.55854" lon="0.83491">
        <ele>107</ele>
        <time>2012-01-30T15:00:17Z</time>
      </trkpt>
      <trkpt lat="44.55849" lon="0.8349">
        <ele>107</ele>
        <time>2012-01-30T15:00:18Z</time>
      </trkpt>
      <trkpt lat="44.55845" lon="0.83489">
        <ele>107</ele>
        <time>2012-01-30T15:00:19Z</time>
      </trkpt>
      <trkpt lat="44.55841" lon="0.83488">
        <ele>107</ele>
        <time>2012-01-30T15:00:20Z</time>
      </trkpt>
      <trkpt lat="44.55837" lon="0.83486">
        <ele>107</ele>
        <time>2012-01-30T15:00:21Z</time>
      </trkpt>
      <trkpt lat="44.55835" lon="0.83484">
        <ele>107</ele>
        <time>2012-01-30T15:00:22Z</time>
      </trkpt>
      <trkpt lat="44.55833" lon="0.83481">
        <ele>107</ele>
        <time>2012-01-30T15:00:23Z</time>
      </trkpt>
      <trkpt lat="44.55832" lon="0.83478">
        <ele>107</ele>
        <time>2012-01-30T15:00:24Z</time>
      </trkpt>
      <trkpt lat="44.55832" lon="0.83476">
        <ele>107</ele>
        <time>2012-01-30T15:00:25Z</time>
      </trkpt>
      <trkpt lat="44.55832" lon="0.83473">
        <ele>107</ele>
        <time>2012-01-30T15:00:26Z</time>
      </trkpt>
      <trkpt lat="44.55834" lon="0.83471">
        <ele>107</ele>
        <time>2012-01-30T15:00:27Z</time>
      </trkpt>
      <trkpt lat="44.55836" lon="0.83469">
        <ele>107</ele>
        <time>2012-01-30T15:00:28Z</time>
      </trkpt>
      <trkpt lat="44.55838" lon="0.83469">
        <ele>107</ele>
        <time>2012-01-30T15:00:29Z</time>
      </trkpt>
      <trkpt lat="44.55841" lon="0.8347">
        <ele>107</ele>
        <time>2012-01-30T15:00:30Z</time>
      </trkpt>
      <trkpt lat="44.55844" lon="0.8347">
        <ele>107</ele>
        <time>2012-01-30T15:00:31Z</time>
      </trkpt>
      <trkpt lat="44.55847" lon="0.8347">
        <ele>107</ele>
        <time>2012-01-30T15:00:32Z</time>
      </trkpt>
      <trkpt lat="44.55851" lon="0.83469">
        <ele>107</ele>
        <time>2012-01-30T15:00:33Z</time>
      </trkpt>
      <trkpt lat="44.55855" lon="0.83468">
        <ele>107</ele>
        <time>2012-01-30T15:00:34Z</time>
      </trkpt>
      <trkpt lat="44.55859" lon="0.83466">
        <ele>107</ele>
        <time>2012-01-30T15:00:35Z</time>
      </trkpt>
      <trkpt lat="44.55862" lon="0.83464">
        <ele>107</ele>
        <time>2012-01-30T15:00:36Z</time>
      </trkpt>
      <trkpt lat="44.55865" lon="0.83464">
        <ele>107</ele>
        <time>2012-01-30T15:00:37Z</time>
      </trkpt>
      <trkpt lat="44.55868" lon="0.83464">
        <ele>107</ele>
        <time>2012-01-30T15:00:38Z</time>
      </trkpt>
      <trkpt lat="44.55872" lon="0.83464">
        <ele>107</ele>
        <time>2012-01-30T15:00:39Z</time>
      </trkpt>
      <trkpt lat="44.55875" lon="0.83463">
        <ele>107</ele>
        <time>2012-01-30T15:00:40Z</time>
      </trkpt>
      <trkpt lat="44.55878" lon="0.83462">
        <ele>107</ele>
        <time>2012-01-30T15:00:41Z</time>
      </trkpt>
      <trkpt lat="44.55882" lon="0.8346">
        <ele>107</ele>
        <time>2012-01-30T15:00:42Z</time>
      </trkpt>
      <trkpt lat="44.55886" lon="0.83459">
        <ele>107</ele>
        <time>2012-01-30T15:00:43Z</time>
      </trkpt>
      <trkpt lat="44.5589" lon="0.83457">
        <ele>107</ele>
        <time>2012-01-30T15:00:44Z</time>
      </trkpt>
      <trkpt lat="44.55893" lon="0.83456">
        <ele>107</ele>
        <time>2012-01-30T15:00:45Z</time>
      </trkpt>
      <trkpt lat="44.55897" lon="0.83454">
        <ele>107</ele>
        <time>2012-01-30T15:00:46Z</time>
      </trkpt>
      <trkpt lat="44.55901" lon="0.83452">
        <ele>107</ele>
        <time>2012-01-30T15:00:47Z</time>
      </trkpt>
      <trkpt lat="44.55903" lon="0.83451">
        <ele>107</ele>
        <time>2012-01-30T15:00:48Z</time>
      </trkpt>
      <trkpt lat="44.55905" lon="0.8345">
        <ele>107</ele>
        <time>2012-01-30T15:00:49Z</time>
      </trkpt>
      <trkpt lat="44.55907" lon="0.83447">
        <ele>107</ele>
        <time>2012-01-30T15:00:50Z</time>
      </trkpt>
      <trkpt lat="44.55909" lon="0.83445">
        <ele>107</ele>
        <time>2012-01-30T15:00:51Z</time>
      </trkpt>
      <trkpt lat="44.5591" lon="0.83443">
        <ele>107</ele>
        <time>2012-01-30T15:00:52Z</time>
      </trkpt>
      <trkpt lat="44.5591" lon="0.8344">
        <ele>107</ele>
        <time>2012-01-30T15:00:53Z</time>
      </trkpt>
      <trkpt lat="44.55911" lon="0.83438">
        <ele>107</ele>
        <time>2012-01-30T15:00:54Z</time>
      </trkpt>
      <trkpt lat="44.55913" lon="0.83434">
        <ele>107</ele>
        <time>2012-01-30T15:00:55Z</time>
      </trkpt>
      <trkpt lat="44.55914" lon="0.83431">
        <ele>107</ele>
        <time>2012-01-30T15:00:56Z</time>
      </trkpt>
      <trkpt lat="44.55917" lon="0.83428">
        <ele>107</ele>
        <time>2012-01-30T15:00:57Z</time>
      </trkpt>
      <trkpt lat="44.55919" lon="0.83424">
        <ele>107</ele>
        <time>2012-01-30T15:00:58Z</time>
      </trkpt>
      <trkpt lat="44.5592" lon="0.83421">
        <ele>107</ele>
        <time>2012-01-30T15:00:59Z</time>
      </trkpt>
      <trkpt lat="44.55921" lon="0.83417">
        <ele>107</ele>
        <time>2012-01-30T15:01:00Z</time>
      </trkpt>
      <trkpt lat="44.55922" lon="0.83414">
        <ele>107</ele>
        <time>2012-01-30T15:01:01Z</time>
      </trkpt>
      <trkpt lat="44.55924" lon="0.83411">
        <ele>107</ele>
        <time>2012-01-30T15:01:02Z</time>
      </trkpt>
      <trkpt lat="44.55925" lon="0.83408">
        <ele>107</ele>
        <time>2012-01-30T15:01:03Z</time>
      </trkpt>
      <trkpt lat="44.55925" lon="0.83405">
        <ele>107</ele>
        <time>2012-01-30T15:01:04Z</time>
      </trkpt>
      <trkpt lat="44.55926" lon="0.83401">
        <ele>107</ele>
        <time>2012-01-30T15:01:05Z</time>
      </trkpt>
      <trkpt lat="44.55928" lon="0.83396">
        <ele>107</ele>
        <time>2012-01-30T15:01:06Z</time>
      </trkpt>
      <trkpt lat="44.55928" lon="0.83392">
        <ele>108</ele>
        <time>2012-01-30T15:01:07Z</time>
      </trkpt>
      <trkpt lat="44.55929" lon="0.83386">
        <ele>108</ele>
        <time>2012-01-30T15:01:08Z</time>
      </trkpt>
      <trkpt lat="44.55931" lon="0.83382">
        <ele>109</ele>
        <time>2012-01-30T15:01:09Z</time>
      </trkpt>
      <trkpt lat="44.55932" lon="0.83377">
        <ele>110</ele>
        <time>2012-01-30T15:01:10Z</time>
      </trkpt>
      <trkpt lat="44.55933" lon="0.83373">
        <ele>110</ele>
        <time>2012-01-30T15:01:11Z</time>
      </trkpt>
      <trkpt lat="44.55933" lon="0.83369">
        <ele>111</ele>
        <time>2012-01-30T15:01:12Z</time>
      </trkpt>
      <trkpt lat="44.55933" lon="0.83365">
        <ele>111</ele>
        <time>2012-01-30T15:01:13Z</time>
      </trkpt>
      <trkpt lat="44.55934" lon="0.83361">
        <ele>111</ele>
        <time>2012-01-30T15:01:14Z</time>
      </trkpt>
      <trkpt lat="44.55934" lon="0.83357">
        <ele>111</ele>
        <time>2012-01-30T15:01:15Z</time>
      </trkpt>
      <trkpt lat="44.55935" lon="0.83354">
        <ele>111</ele>
        <time>2012-01-30T15:01:16Z</time>
      </trkpt>
      <trkpt lat="44.55935" lon="0.83351">
        <ele>111</ele>
        <time>2012-01-30T15:01:17Z</time>
      </trkpt>
      <trkpt lat="44.55936" lon="0.83347">
        <ele>111</ele>
        <time>2012-01-30T15:01:18Z</time>
      </trkpt>
      <trkpt lat="44.55936" lon="0.83344">
        <ele>111</ele>
        <time>2012-01-30T15:01:19Z</time>
      </trkpt>
      <trkpt lat="44.55936" lon="0.8334">
        <ele>111</ele>
        <time>2012-01-30T15:01:20Z</time>
      </trkpt>
      <trkpt lat="44.55936" lon="0.83337">
        <ele>111</ele>
        <time>2012-01-30T15:01:21Z</time>
      </trkpt>
      <trkpt lat="44.55936" lon="0.83334">
        <ele>111</ele>
        <time>2012-01-30T15:01:22Z</time>
      </trkpt>
      <trkpt lat="44.55937" lon="0.83331">
        <ele>111</ele>
        <time>2012-01-30T15:01:23Z</time>
      </trkpt>
      <trkpt lat="44.55936" lon="0.83328">
        <ele>111</ele>
        <time>2012-01-30T15:01:24Z</time>
      </trkpt>
      <trkpt lat="44.55935" lon="0.83324">
        <ele>111</ele>
        <time>2012-01-30T15:01:25Z</time>
      </trkpt>
      <trkpt lat="44.55934" lon="0.83321">
        <ele>111</ele>
        <time>2012-01-30T15:01:26Z</time>
      </trkpt>
      <trkpt lat="44.55933" lon="0.83319">
        <ele>111</ele>
        <time>2012-01-30T15:01:27Z</time>
      </trkpt>
      <trkpt lat="44.55933" lon="0.83317">
        <ele>111</ele>
        <time>2012-01-30T15:01:28Z</time>
      </trkpt>
      <trkpt lat="44.55932" lon="0.83315">
        <ele>111</ele>
        <time>2012-01-30T15:01:29Z</time>
      </trkpt>
      <trkpt lat="44.55932" lon="0.83312">
        <ele>111</ele>
        <time>2012-01-30T15:01:30Z</time>
      </trkpt>
      <trkpt lat="44.55933" lon="0.83309">
        <ele>111</ele>
        <time>2012-01-30T15:01:31Z</time>
      </trkpt>
      <trkpt lat="44.55935" lon="0.83305">
        <ele>111</ele>
        <time>2012-01-30T15:01:32Z</time>
      </trkpt>
      <trkpt lat="44.55937" lon="0.83301">
        <ele>111</ele>
        <time>2012-01-30T15:01:33Z</time>
      </trkpt>
      <trkpt lat="44.55938" lon="0.83297">
        <ele>111</ele>
        <time>2012-01-30T15:01:34Z</time>
      </trkpt>
      <trkpt lat="44.55939" lon="0.83293">
        <ele>111</ele>
        <time>2012-01-30T15:01:35Z</time>
      </trkpt>
      <trkpt lat="44.55939" lon="0.83289">
        <ele>111</ele>
        <time>2012-01-30T15:01:36Z</time>
      </trkpt>
      <trkpt lat="44.5594" lon="0.83284">
        <ele>112</ele>
        <time>2012-01-30T15:01:37Z</time>
      </trkpt>
      <trkpt lat="44.55941" lon="0.8328">
        <ele>112</ele>
        <time>2012-01-30T15:01:38Z</time>
      </trkpt>
      <trkpt lat="44.55942" lon="0.83277">
        <ele>112</ele>
        <time>2012-01-30T15:01:39Z</time>
      </trkpt>
      <trkpt lat="44.55943" lon="0.83274">
        <ele>112</ele>
        <time>2012-01-30T15:01:40Z</time>
      </trkpt>
      <trkpt lat="44.55943" lon="0.83271">
        <ele>112</ele>
        <time>2012-01-30T15:01:41Z</time>
      </trkpt>
      <trkpt lat="44.55944" lon="0.83268">
        <ele>113</ele>
        <time>2012-01-30T15:01:42Z</time>
      </trkpt>
      <trkpt lat="44.55944" lon="0.83265">
        <ele>113</ele>
        <time>2012-01-30T15:01:43Z</time>
      </trkpt>
      <trkpt lat="44.55944" lon="0.83262">
        <ele>113</ele>
        <time>2012-01-30T15:01:44Z</time>
      </trkpt>
      <trkpt lat="44.55945" lon="0.83259">
        <ele>114</ele>
        <time>2012-01-30T15:01:45Z</time>
      </trkpt>
      <trkpt lat="44.55944" lon="0.83255">
        <ele>114</ele>
        <time>2012-01-30T15:01:46Z</time>
      </trkpt>
      <trkpt lat="44.55945" lon="0.83252">
        <ele>114</ele>
        <time>2012-01-30T15:01:47Z</time>
      </trkpt>
      <trkpt lat="44.55944" lon="0.83249">
        <ele>114</ele>
        <time>2012-01-30T15:01:48Z</time>
      </trkpt>
      <trkpt lat="44.55944" lon="0.83246">
        <ele>114</ele>
        <time>2012-01-30T15:01:49Z</time>
      </trkpt>
      <trkpt lat="44.55943" lon="0.83244">
        <ele>114</ele>
        <time>2012-01-30T15:01:50Z</time>
      </trkpt>
      <trkpt lat="44.55941" lon="0.83241">
        <ele>114</ele>
        <time>2012-01-30T15:01:51Z</time>
      </trkpt>
      <trkpt lat="44.5594" lon="0.8324">
        <ele>114</ele>
        <time>2012-01-30T15:01:52Z</time>
      </trkpt>
      <trkpt lat="44.55939" lon="0.83239">
        <ele>114</ele>
        <time>2012-01-30T15:01:53Z</time>
      </trkpt>
      <trkpt lat="44.55938" lon="0.83237">
        <ele>114</ele>
        <time>2012-01-30T15:01:54Z</time>
      </trkpt>
      <trkpt lat="44.55938" lon="0.83236">
        <ele>114</ele>
        <time>2012-01-30T15:01:55Z</time>
      </trkpt>
      <trkpt lat="44.55938" lon="0.83234">
        <ele>114</ele>
        <time>2012-01-30T15:01:56Z</time>
      </trkpt>
      <trkpt lat="44.55937" lon="0.83231">
        <ele>114</ele>
        <time>2012-01-30T15:01:57Z</time>
      </trkpt>
      <trkpt lat="44.55937" lon="0.83227">
        <ele>114</ele>
        <time>2012-01-30T15:01:58Z</time>
      </trkpt>
      <trkpt lat="44.55936" lon="0.83224">
        <ele>114</ele>
        <time>2012-01-30T15:01:59Z</time>
      </trkpt>
      <trkpt lat="44.55935" lon="0.83221">
        <ele>114</ele>
        <time>2012-01-30T15:02:00Z</time>
      </trkpt>
      <trkpt lat="44.55934" lon="0.83219">
        <ele>114</ele>
        <time>2012-01-30T15:02:01Z</time>
      </trkpt>
      <trkpt lat="44.55934" lon="0.83217">
        <ele>114</ele>
        <time>2012-01-30T15:02:02Z</time>
      </trkpt>
      <trkpt lat="44.55935" lon="0.83214">
        <ele>114</ele>
        <time>2012-01-30T15:02:03Z</time>
      </trkpt>
      <trkpt lat="44.55935" lon="0.83212">
        <ele>114</ele>
        <time>2012-01-30T15:02:04Z</time>
      </trkpt>
      <trkpt lat="44.55936" lon="0.8321">
        <ele>114</ele>
        <time>2012-01-30T15:02:05Z</time>
      </trkpt>
      <trkpt lat="44.55936" lon="0.83207">
        <ele>114</ele>
        <time>2012-01-30T15:02:06Z</time>
      </trkpt>
      <trkpt lat="44.55937" lon="0.83205">
        <ele>114</ele>
        <time>2012-01-30T15:02:07Z</time>
      </trkpt>
      <trkpt lat="44.55938" lon="0.83204">
        <ele>114</ele>
        <time>2012-01-30T15:02:08Z</time>
      </trkpt>
      <trkpt lat="44.55939" lon="0.83201">
        <ele>114</ele>
        <time>2012-01-30T15:02:10Z</time>
      </trkpt>
      <trkpt lat="44.5594" lon="0.832">
        <ele>115</ele>
        <time>2012-01-30T15:02:12Z</time>
      </trkpt>
      <trkpt lat="44.55941" lon="0.83198">
        <ele>116</ele>
        <time>2012-01-30T15:02:14Z</time>
      </trkpt>
      <trkpt lat="44.55941" lon="0.83196">
        <ele>116</ele>
        <time>2012-01-30T15:02:16Z</time>
      </trkpt>
      <trkpt lat="44.55941" lon="0.83195">
        <ele>116</ele>
        <time>2012-01-30T15:02:17Z</time>
      </trkpt>
      <trkpt lat="44.55941" lon="0.83193">
        <ele>116</ele>
        <time>2012-01-30T15:02:18Z</time>
      </trkpt>
      <trkpt lat="44.55941" lon="0.83191">
        <ele>116</ele>
        <time>2012-01-30T15:02:19Z</time>
      </trkpt>
      <trkpt lat="44.55942" lon="0.8319">
        <ele>117</ele>
        <time>2012-01-30T15:02:20Z</time>
      </trkpt>
      <trkpt lat="44.55941" lon="0.83188">
        <ele>118</ele>
        <time>2012-01-30T15:02:22Z</time>
      </trkpt>
      <trkpt lat="44.55942" lon="0.83186">
        <ele>119</ele>
        <time>2012-01-30T15:02:24Z</time>
      </trkpt>
      <trkpt lat="44.55943" lon="0.83184">
        <ele>120</ele>
        <time>2012-01-30T15:02:26Z</time>
      </trkpt>
      <trkpt lat="44.55944" lon="0.83182">
        <ele>120</ele>
        <time>2012-01-30T15:02:27Z</time>
      </trkpt>
      <trkpt lat="44.55944" lon="0.83179">
        <ele>120</ele>
        <time>2012-01-30T15:02:28Z</time>
      </trkpt>
      <trkpt lat="44.55944" lon="0.83176">
        <ele>121</ele>
        <time>2012-01-30T15:02:29Z</time>
      </trkpt>
      <trkpt lat="44.55945" lon="0.83174">
        <ele>121</ele>
        <time>2012-01-30T15:02:30Z</time>
      </trkpt>
      <trkpt lat="44.55946" lon="0.8317">
        <ele>121</ele>
        <time>2012-01-30T15:02:31Z</time>
      </trkpt>
      <trkpt lat="44.55946" lon="0.83167">
        <ele>122</ele>
        <time>2012-01-30T15:02:32Z</time>
      </trkpt>
      <trkpt lat="44.55947" lon="0.83164">
        <ele>122</ele>
        <time>2012-01-30T15:02:33Z</time>
      </trkpt>
      <trkpt lat="44.55947" lon="0.83159">
        <ele>122</ele>
        <time>2012-01-30T15:02:34Z</time>
      </trkpt>
      <trkpt lat="44.55948" lon="0.83154">
        <ele>122</ele>
        <time>2012-01-30T15:02:35Z</time>
      </trkpt>
      <trkpt lat="44.55948" lon="0.8315">
        <ele>122</ele>
        <time>2012-01-30T15:02:36Z</time>
      </trkpt>
      <trkpt lat="44.55949" lon="0.83146">
        <ele>122</ele>
        <time>2012-01-30T15:02:37Z</time>
      </trkpt>
      <trkpt lat="44.55949" lon="0.83143">
        <ele>122</ele>
        <time>2012-01-30T15:02:38Z</time>
      </trkpt>
      <trkpt lat="44.5595" lon="0.83139">
        <ele>122</ele>
        <time>2012-01-30T15:02:39Z</time>
      </trkpt>
      <trkpt lat="44.55951" lon="0.83135">
        <ele>122</ele>
        <time>2012-01-30T15:02:40Z</time>
      </trkpt>
      <trkpt lat="44.55953" lon="0.83131">
        <ele>122</ele>
        <time>2012-01-30T15:02:41Z</time>
      </trkpt>
      <trkpt lat="44.55954" lon="0.83127">
        <ele>122</ele>
        <time>2012-01-30T15:02:42Z</time>
      </trkpt>
      <trkpt lat="44.55954" lon="0.83123">
        <ele>122</ele>
        <time>2012-01-30T15:02:43Z</time>
      </trkpt>
      <trkpt lat="44.55955" lon="0.83118">
        <ele>122</ele>
        <time>2012-01-30T15:02:44Z</time>
      </trkpt>
      <trkpt lat="44.55956" lon="0.83114">
        <ele>122</ele>
        <time>2012-01-30T15:02:45Z</time>
      </trkpt>
      <trkpt lat="44.55956" lon="0.83111">
        <ele>122</ele>
        <time>2012-01-30T15:02:46Z</time>
      </trkpt>
      <trkpt lat="44.55957" lon="0.83109">
        <ele>122</ele>
        <time>2012-01-30T15:02:47Z</time>
      </trkpt>
      <trkpt lat="44.55958" lon="0.83106">
        <ele>122</ele>
        <time>2012-01-30T15:02:48Z</time>
      </trkpt>
      <trkpt lat="44.55958" lon="0.83103">
        <ele>122</ele>
        <time>2012-01-30T15:02:49Z</time>
      </trkpt>
      <trkpt lat="44.55959" lon="0.831">
        <ele>122</ele>
        <time>2012-01-30T15:02:50Z</time>
      </trkpt>
      <trkpt lat="44.55959" lon="0.83095">
        <ele>122</ele>
        <time>2012-01-30T15:02:51Z</time>
      </trkpt>
      <trkpt lat="44.55961" lon="0.8309">
        <ele>122</ele>
        <time>2012-01-30T15:02:52Z</time>
      </trkpt>
      <trkpt lat="44.55962" lon="0.83085">
        <ele>122</ele>
        <time>2012-01-30T15:02:53Z</time>
      </trkpt>
      <trkpt lat="44.55965" lon="0.8308">
        <ele>122</ele>
        <time>2012-01-30T15:02:54Z</time>
      </trkpt>
      <trkpt lat="44.55966" lon="0.83075">
        <ele>122</ele>
        <time>2012-01-30T15:02:55Z</time>
      </trkpt>
      <trkpt lat="44.55968" lon="0.8307">
        <ele>122</ele>
        <time>2012-01-30T15:02:56Z</time>
      </trkpt>
      <trkpt lat="44.55969" lon="0.83065">
        <ele>122</ele>
        <time>2012-01-30T15:02:57Z</time>
      </trkpt>
      <trkpt lat="44.5597" lon="0.83061">
        <ele>122</ele>
        <time>2012-01-30T15:02:58Z</time>
      </trkpt>
      <trkpt lat="44.55971" lon="0.83057">
        <ele>122</ele>
        <time>2012-01-30T15:02:59Z</time>
      </trkpt>
      <trkpt lat="44.55971" lon="0.83051">
        <ele>122</ele>
        <time>2012-01-30T15:03:00Z</time>
      </trkpt>
      <trkpt lat="44.55973" lon="0.83044">
        <ele>122</ele>
        <time>2012-01-30T15:03:01Z</time>
      </trkpt>
      <trkpt lat="44.55975" lon="0.83037">
        <ele>122</ele>
        <time>2012-01-30T15:03:02Z</time>
      </trkpt>
      <trkpt lat="44.55976" lon="0.8303">
        <ele>122</ele>
        <time>2012-01-30T15:03:03Z</time>
      </trkpt>
      <trkpt lat="44.55978" lon="0.83024">
        <ele>122</ele>
        <time>2012-01-30T15:03:04Z</time>
      </trkpt>
      <trkpt lat="44.55979" lon="0.83019">
        <ele>121</ele>
        <time>2012-01-30T15:03:05Z</time>
      </trkpt>
      <trkpt lat="44.5598" lon="0.83014">
        <ele>120</ele>
        <time>2012-01-30T15:03:06Z</time>
      </trkpt>
      <trkpt lat="44.55981" lon="0.83011">
        <ele>119</ele>
        <time>2012-01-30T15:03:07Z</time>
      </trkpt>
      <trkpt lat="44.55982" lon="0.83008">
        <ele>118</ele>
        <time>2012-01-30T15:03:08Z</time>
      </trkpt>
      <trkpt lat="44.55982" lon="0.83005">
        <ele>118</ele>
        <time>2012-01-30T15:03:09Z</time>
      </trkpt>
      <trkpt lat="44.55983" lon="0.83003">
        <ele>117</ele>
        <time>2012-01-30T15:03:10Z</time>
      </trkpt>
      <trkpt lat="44.55983" lon="0.82999">
        <ele>117</ele>
        <time>2012-01-30T15:03:11Z</time>
      </trkpt>
      <trkpt lat="44.55984" lon="0.82996">
        <ele>117</ele>
        <time>2012-01-30T15:03:12Z</time>
      </trkpt>
      <trkpt lat="44.55984" lon="0.82993">
        <ele>117</ele>
        <time>2012-01-30T15:03:13Z</time>
      </trkpt>
      <trkpt lat="44.55985" lon="0.8299">
        <ele>117</ele>
        <time>2012-01-30T15:03:14Z</time>
      </trkpt>
      <trkpt lat="44.55986" lon="0.82986">
        <ele>117</ele>
        <time>2012-01-30T15:03:15Z</time>
      </trkpt>
      <trkpt lat="44.55986" lon="0.82984">
        <ele>117</ele>
        <time>2012-01-30T15:03:16Z</time>
      </trkpt>
      <trkpt lat="44.55987" lon="0.82982">
        <ele>117</ele>
        <time>2012-01-30T15:03:17Z</time>
      </trkpt>
      <trkpt lat="44.55987" lon="0.82979">
        <ele>117</ele>
        <time>2012-01-30T15:03:18Z</time>
      </trkpt>
      <trkpt lat="44.55988" lon="0.82974">
        <ele>117</ele>
        <time>2012-01-30T15:03:19Z</time>
      </trkpt>
      <trkpt lat="44.55989" lon="0.8297">
        <ele>117</ele>
        <time>2012-01-30T15:03:20Z</time>
      </trkpt>
      <trkpt lat="44.5599" lon="0.82965">
        <ele>117</ele>
        <time>2012-01-30T15:03:21Z</time>
      </trkpt>
      <trkpt lat="44.55991" lon="0.8296">
        <ele>117</ele>
        <time>2012-01-30T15:03:22Z</time>
      </trkpt>
      <trkpt lat="44.55991" lon="0.82955">
        <ele>117</ele>
        <time>2012-01-30T15:03:23Z</time>
      </trkpt>
      <trkpt lat="44.55992" lon="0.8295">
        <ele>117</ele>
        <time>2012-01-30T15:03:24Z</time>
      </trkpt>
      <trkpt lat="44.55994" lon="0.82944">
        <ele>117</ele>
        <time>2012-01-30T15:03:25Z</time>
      </trkpt>
      <trkpt lat="44.55995" lon="0.82938">
        <ele>117</ele>
        <time>2012-01-30T15:03:26Z</time>
      </trkpt>
      <trkpt lat="44.55996" lon="0.82932">
        <ele>117</ele>
        <time>2012-01-30T15:03:27Z</time>
      </trkpt>
      <trkpt lat="44.55997" lon="0.82926">
        <ele>117</ele>
        <time>2012-01-30T15:03:28Z</time>
      </trkpt>
      <trkpt lat="44.55997" lon="0.8292">
        <ele>117</ele>
        <time>2012-01-30T15:03:29Z</time>
      </trkpt>
      <trkpt lat="44.55999" lon="0.82913">
        <ele>117</ele>
        <time>2012-01-30T15:03:30Z</time>
      </trkpt>
      <trkpt lat="44.56" lon="0.82906">
        <ele>117</ele>
        <time>2012-01-30T15:03:31Z</time>
      </trkpt>
      <trkpt lat="44.56001" lon="0.829">
        <ele>117</ele>
        <time>2012-01-30T15:03:32Z</time>
      </trkpt>
      <trkpt lat="44.56002" lon="0.82896">
        <ele>117</ele>
        <time>2012-01-30T15:03:33Z</time>
      </trkpt>
      <trkpt lat="44.56003" lon="0.82892">
        <ele>117</ele>
        <time>2012-01-30T15:03:34Z</time>
      </trkpt>
      <trkpt lat="44.56003" lon="0.82887">
        <ele>117</ele>
        <time>2012-01-30T15:03:35Z</time>
      </trkpt>
      <trkpt lat="44.56003" lon="0.82883">
        <ele>117</ele>
        <time>2012-01-30T15:03:36Z</time>
      </trkpt>
      <trkpt lat="44.56004" lon="0.82879">
        <ele>117</ele>
        <time>2012-01-30T15:03:37Z</time>
      </trkpt>
      <trkpt lat="44.56004" lon="0.82875">
        <ele>117</ele>
        <time>2012-01-30T15:03:38Z</time>
      </trkpt>
      <trkpt lat="44.56006" lon="0.82871">
        <ele>117</ele>
        <time>2012-01-30T15:03:39Z</time>
      </trkpt>
      <trkpt lat="44.56006" lon="0.82867">
        <ele>117</ele>
        <time>2012-01-30T15:03:40Z</time>
      </trkpt>
      <trkpt lat="44.56007" lon="0.82863">
        <ele>116</ele>
        <time>2012-01-30T15:03:41Z</time>
      </trkpt>
      <trkpt lat="44.56008" lon="0.8286">
        <ele>116</ele>
        <time>2012-01-30T15:03:42Z</time>
      </trkpt>
      <trkpt lat="44.56008" lon="0.82856">
        <ele>116</ele>
        <time>2012-01-30T15:03:43Z</time>
      </trkpt>
      <trkpt lat="44.5601" lon="0.82851">
        <ele>115</ele>
        <time>2012-01-30T15:03:44Z</time>
      </trkpt>
      <trkpt lat="44.5601" lon="0.82846">
        <ele>115</ele>
        <time>2012-01-30T15:03:45Z</time>
      </trkpt>
      <trkpt lat="44.56011" lon="0.82841">
        <ele>114</ele>
        <time>2012-01-30T15:03:46Z</time>
      </trkpt>
      <trkpt lat="44.56011" lon="0.82835">
        <ele>113</ele>
        <time>2012-01-30T15:03:47Z</time>
      </trkpt>
      <trkpt lat="44.56012" lon="0.82829">
        <ele>112</ele>
        <time>2012-01-30T15:03:48Z</time>
      </trkpt>
      <trkpt lat="44.56013" lon="0.82823">
        <ele>111</ele>
        <time>2012-01-30T15:03:49Z</time>
      </trkpt>
      <trkpt lat="44.56013" lon="0.82815">
        <ele>110</ele>
        <time>2012-01-30T15:03:50Z</time>
      </trkpt>
      <trkpt lat="44.56014" lon="0.82809">
        <ele>109</ele>
        <time>2012-01-30T15:03:51Z</time>
      </trkpt>
      <trkpt lat="44.56015" lon="0.82801">
        <ele>109</ele>
        <time>2012-01-30T15:03:52Z</time>
      </trkpt>
      <trkpt lat="44.56016" lon="0.82794">
        <ele>108</ele>
        <time>2012-01-30T15:03:53Z</time>
      </trkpt>
      <trkpt lat="44.56018" lon="0.82787">
        <ele>108</ele>
        <time>2012-01-30T15:03:54Z</time>
      </trkpt>
      <trkpt lat="44.56018" lon="0.82779">
        <ele>108</ele>
        <time>2012-01-30T15:03:55Z</time>
      </trkpt>
      <trkpt lat="44.56018" lon="0.82773">
        <ele>107</ele>
        <time>2012-01-30T15:03:56Z</time>
      </trkpt>
      <trkpt lat="44.56019" lon="0.82767">
        <ele>106</ele>
        <time>2012-01-30T15:03:57Z</time>
      </trkpt>
      <trkpt lat="44.5602" lon="0.82762">
        <ele>105</ele>
        <time>2012-01-30T15:03:58Z</time>
      </trkpt>
      <trkpt lat="44.56022" lon="0.82758">
        <ele>104</ele>
        <time>2012-01-30T15:03:59Z</time>
      </trkpt>
      <trkpt lat="44.56024" lon="0.82756">
        <ele>104</ele>
        <time>2012-01-30T15:04:00Z</time>
      </trkpt>
      <trkpt lat="44.56025" lon="0.82755">
        <ele>104</ele>
        <time>2012-01-30T15:04:01Z</time>
      </trkpt>
      <trkpt lat="44.56027" lon="0.82753">
        <ele>104</ele>
        <time>2012-01-30T15:04:02Z</time>
      </trkpt>
      <trkpt lat="44.56029" lon="0.8275">
        <ele>104</ele>
        <time>2012-01-30T15:04:03Z</time>
      </trkpt>
      <trkpt lat="44.56031" lon="0.82749">
        <ele>104</ele>
        <time>2012-01-30T15:04:04Z</time>
      </trkpt>
      <trkpt lat="44.56033" lon="0.82749">
        <ele>104</ele>
        <time>2012-01-30T15:04:05Z</time>
      </trkpt>
      <trkpt lat="44.56035" lon="0.82748">
        <ele>104</ele>
        <time>2012-01-30T15:04:06Z</time>
      </trkpt>
      <trkpt lat="44.56037" lon="0.82748">
        <ele>104</ele>
        <time>2012-01-30T15:04:07Z</time>
      </trkpt>
      <trkpt lat="44.56039" lon="0.82747">
        <ele>104</ele>
        <time>2012-01-30T15:04:08Z</time>
      </trkpt>
      <trkpt lat="44.5604" lon="0.82746">
        <ele>104</ele>
        <time>2012-01-30T15:04:09Z</time>
      </trkpt>
      <trkpt lat="44.56042" lon="0.82746">
        <ele>104</ele>
        <time>2012-01-30T15:04:11Z</time>
      </trkpt>
      <trkpt lat="44.56044" lon="0.82744">
        <ele>104</ele>
        <time>2012-01-30T15:04:12Z</time>
      </trkpt>
      <trkpt lat="44.56047" lon="0.82743">
        <ele>104</ele>
        <time>2012-01-30T15:04:13Z</time>
      </trkpt>
      <trkpt lat="44.56049" lon="0.82742">
        <ele>104</ele>
        <time>2012-01-30T15:04:14Z</time>
      </trkpt>
      <trkpt lat="44.56051" lon="0.8274">
        <ele>104</ele>
        <time>2012-01-30T15:04:15Z</time>
      </trkpt>
      <trkpt lat="44.56054" lon="0.82739">
        <ele>104</ele>
        <time>2012-01-30T15:04:16Z</time>
      </trkpt>
      <trkpt lat="44.56056" lon="0.82738">
        <ele>104</ele>
        <time>2012-01-30T15:04:17Z</time>
      </trkpt>
      <trkpt lat="44.56058" lon="0.82736">
        <ele>104</ele>
        <time>2012-01-30T15:04:18Z</time>
      </trkpt>
      <trkpt lat="44.5606" lon="0.82736">
        <ele>104</ele>
        <time>2012-01-30T15:04:19Z</time>
      </trkpt>
      <trkpt lat="44.56062" lon="0.82735">
        <ele>104</ele>
        <time>2012-01-30T15:04:20Z</time>
      </trkpt>
      <trkpt lat="44.56065" lon="0.82734">
        <ele>104</ele>
        <time>2012-01-30T15:04:21Z</time>
      </trkpt>
      <trkpt lat="44.56067" lon="0.82733">
        <ele>104</ele>
        <time>2012-01-30T15:04:22Z</time>
      </trkpt>
      <trkpt lat="44.56069" lon="0.82733">
        <ele>104</ele>
        <time>2012-01-30T15:04:23Z</time>
      </trkpt>
      <trkpt lat="44.56071" lon="0.82733">
        <ele>104</ele>
        <time>2012-01-30T15:04:24Z</time>
      </trkpt>
      <trkpt lat="44.56074" lon="0.82732">
        <ele>104</ele>
        <time>2012-01-30T15:04:25Z</time>
      </trkpt>
      <trkpt lat="44.56076" lon="0.82732">
        <ele>104</ele>
        <time>2012-01-30T15:04:26Z</time>
      </trkpt>
      <trkpt lat="44.56078" lon="0.82731">
        <ele>104</ele>
        <time>2012-01-30T15:04:27Z</time>
      </trkpt>
      <trkpt lat="44.5608" lon="0.8273">
        <ele>104</ele>
        <time>2012-01-30T15:04:28Z</time>
      </trkpt>
      <trkpt lat="44.56082" lon="0.82727">
        <ele>104</ele>
        <time>2012-01-30T15:04:29Z</time>
      </trkpt>
      <trkpt lat="44.56084" lon="0.82725">
        <ele>104</ele>
        <time>2012-01-30T15:04:30Z</time>
      </trkpt>
      <trkpt lat="44.56086" lon="0.82723">
        <ele>104</ele>
        <time>2012-01-30T15:04:31Z</time>
      </trkpt>
      <trkpt lat="44.56088" lon="0.82721">
        <ele>105</ele>
        <time>2012-01-30T15:04:32Z</time>
      </trkpt>
      <trkpt lat="44.56089" lon="0.82719">
        <ele>105</ele>
        <time>2012-01-30T15:04:33Z</time>
      </trkpt>
      <trkpt lat="44.56091" lon="0.82716">
        <ele>105</ele>
        <time>2012-01-30T15:04:34Z</time>
      </trkpt>
      <trkpt lat="44.56092" lon="0.82714">
        <ele>105</ele>
        <time>2012-01-30T15:04:35Z</time>
      </trkpt>
      <trkpt lat="44.56094" lon="0.82711">
        <ele>105</ele>
        <time>2012-01-30T15:04:36Z</time>
      </trkpt>
      <trkpt lat="44.56096" lon="0.82709">
        <ele>105</ele>
        <time>2012-01-30T15:04:37Z</time>
      </trkpt>
      <trkpt lat="44.56098" lon="0.82706">
        <ele>105</ele>
        <time>2012-01-30T15:04:38Z</time>
      </trkpt>
      <trkpt lat="44.56099" lon="0.82704">
        <ele>105</ele>
        <time>2012-01-30T15:04:39Z</time>
      </trkpt>
      <trkpt lat="44.561" lon="0.82702">
        <ele>105</ele>
        <time>2012-01-30T15:04:40Z</time>
      </trkpt>
      <trkpt lat="44.56102" lon="0.827">
        <ele>105</ele>
        <time>2012-01-30T15:04:41Z</time>
      </trkpt>
      <trkpt lat="44.56103" lon="0.82698">
        <ele>105</ele>
        <time>2012-01-30T15:04:42Z</time>
      </trkpt>
      <trkpt lat="44.56105" lon="0.82697">
        <ele>105</ele>
        <time>2012-01-30T15:04:43Z</time>
      </trkpt>
      <trkpt lat="44.56106" lon="0.82695">
        <ele>105</ele>
        <time>2012-01-30T15:04:44Z</time>
      </trkpt>
      <trkpt lat="44.56107" lon="0.82693">
        <ele>105</ele>
        <time>2012-01-30T15:04:45Z</time>
      </trkpt>
      <trkpt lat="44.56107" lon="0.82691">
        <ele>105</ele>
        <time>2012-01-30T15:04:46Z</time>
      </trkpt>
      <trkpt lat="44.56108" lon="0.82689">
        <ele>105</ele>
        <time>2012-01-30T15:04:47Z</time>
      </trkpt>
      <trkpt lat="44.56109" lon="0.82687">
        <ele>105</ele>
        <time>2012-01-30T15:04:48Z</time>
      </trkpt>
      <trkpt lat="44.5611" lon="0.82685">
        <ele>105</ele>
        <time>2012-01-30T15:04:49Z</time>
      </trkpt>
      <trkpt lat="44.56111" lon="0.82684">
        <ele>105</ele>
        <time>2012-01-30T15:04:50Z</time>
      </trkpt>
      <trkpt lat="44.56112" lon="0.82682">
        <ele>106</ele>
        <time>2012-01-30T15:04:51Z</time>
      </trkpt>
      <trkpt lat="44.56113" lon="0.82679">
        <ele>107</ele>
        <time>2012-01-30T15:04:52Z</time>
      </trkpt>
      <trkpt lat="44.56114" lon="0.82676">
        <ele>108</ele>
        <time>2012-01-30T15:04:53Z</time>
      </trkpt>
      <trkpt lat="44.56115" lon="0.82674">
        <ele>109</ele>
        <time>2012-01-30T15:04:54Z</time>
      </trkpt>
      <trkpt lat="44.56117" lon="0.82671">
        <ele>110</ele>
        <time>2012-01-30T15:04:55Z</time>
      </trkpt>
      <trkpt lat="44.56118" lon="0.82668">
        <ele>110</ele>
        <time>2012-01-30T15:04:56Z</time>
      </trkpt>
      <trkpt lat="44.56119" lon="0.82665">
        <ele>110</ele>
        <time>2012-01-30T15:04:57Z</time>
      </trkpt>
      <trkpt lat="44.5612" lon="0.82663">
        <ele>110</ele>
        <time>2012-01-30T15:04:58Z</time>
      </trkpt>
      <trkpt lat="44.56121" lon="0.8266">
        <ele>110</ele>
        <time>2012-01-30T15:04:59Z</time>
      </trkpt>
      <trkpt lat="44.56121" lon="0.82657">
        <ele>110</ele>
        <time>2012-01-30T15:05:00Z</time>
      </trkpt>
      <trkpt lat="44.56122" lon="0.82655">
        <ele>111</ele>
        <time>2012-01-30T15:05:01Z</time>
      </trkpt>
      <trkpt lat="44.56123" lon="0.82653">
        <ele>112</ele>
        <time>2012-01-30T15:05:02Z</time>
      </trkpt>
      <trkpt lat="44.56124" lon="0.8265">
        <ele>112</ele>
        <time>2012-01-30T15:05:03Z</time>
      </trkpt>
      <trkpt lat="44.56124" lon="0.82647">
        <ele>113</ele>
        <time>2012-01-30T15:05:04Z</time>
      </trkpt>
      <trkpt lat="44.56124" lon="0.82644">
        <ele>113</ele>
        <time>2012-01-30T15:05:05Z</time>
      </trkpt>
      <trkpt lat="44.56125" lon="0.82642">
        <ele>113</ele>
        <time>2012-01-30T15:05:06Z</time>
      </trkpt>
      <trkpt lat="44.56126" lon="0.82639">
        <ele>113</ele>
        <time>2012-01-30T15:05:07Z</time>
      </trkpt>
      <trkpt lat="44.56126" lon="0.82637">
        <ele>114</ele>
        <time>2012-01-30T15:05:08Z</time>
      </trkpt>
      <trkpt lat="44.56127" lon="0.82634">
        <ele>114</ele>
        <time>2012-01-30T15:05:09Z</time>
      </trkpt>
      <trkpt lat="44.56127" lon="0.82632">
        <ele>114</ele>
        <time>2012-01-30T15:05:10Z</time>
      </trkpt>
      <trkpt lat="44.56128" lon="0.82629">
        <ele>115</ele>
        <time>2012-01-30T15:05:11Z</time>
      </trkpt>
      <trkpt lat="44.56128" lon="0.82627">
        <ele>115</ele>
        <time>2012-01-30T15:05:12Z</time>
      </trkpt>
      <trkpt lat="44.56129" lon="0.82626">
        <ele>115</ele>
        <time>2012-01-30T15:05:13Z</time>
      </trkpt>
      <trkpt lat="44.5613" lon="0.82624">
        <ele>116</ele>
        <time>2012-01-30T15:05:14Z</time>
      </trkpt>
      <trkpt lat="44.56131" lon="0.82622">
        <ele>116</ele>
        <time>2012-01-30T15:05:15Z</time>
      </trkpt>
      <trkpt lat="44.56132" lon="0.82618">
        <ele>116</ele>
        <time>2012-01-30T15:05:16Z</time>
      </trkpt>
      <trkpt lat="44.56134" lon="0.82616">
        <ele>116</ele>
        <time>2012-01-30T15:05:17Z</time>
      </trkpt>
      <trkpt lat="44.56135" lon="0.82614">
        <ele>116</ele>
        <time>2012-01-30T15:05:18Z</time>
      </trkpt>
      <trkpt lat="44.56137" lon="0.82612">
        <ele>116</ele>
        <time>2012-01-30T15:05:19Z</time>
      </trkpt>
      <trkpt lat="44.56139" lon="0.8261">
        <ele>116</ele>
        <time>2012-01-30T15:05:20Z</time>
      </trkpt>
      <trkpt lat="44.5614" lon="0.82609">
        <ele>116</ele>
        <time>2012-01-30T15:05:21Z</time>
      </trkpt>
      <trkpt lat="44.56142" lon="0.82607">
        <ele>116</ele>
        <time>2012-01-30T15:05:22Z</time>
      </trkpt>
      <trkpt lat="44.56144" lon="0.82606">
        <ele>116</ele>
        <time>2012-01-30T15:05:23Z</time>
      </trkpt>
      <trkpt lat="44.56146" lon="0.82603">
        <ele>116</ele>
        <time>2012-01-30T15:05:25Z</time>
      </trkpt>
      <trkpt lat="44.56147" lon="0.826">
        <ele>116</ele>
        <time>2012-01-30T15:05:26Z</time>
      </trkpt>
      <trkpt lat="44.56149" lon="0.82598">
        <ele>116</ele>
        <time>2012-01-30T15:05:27Z</time>
      </trkpt>
      <trkpt lat="44.56151" lon="0.82596">
        <ele>116</ele>
        <time>2012-01-30T15:05:28Z</time>
      </trkpt>
      <trkpt lat="44.56152" lon="0.82594">
        <ele>116</ele>
        <time>2012-01-30T15:05:29Z</time>
      </trkpt>
      <trkpt lat="44.56154" lon="0.82592">
        <ele>116</ele>
        <time>2012-01-30T15:05:30Z</time>
      </trkpt>
      <trkpt lat="44.56155" lon="0.8259">
        <ele>116</ele>
        <time>2012-01-30T15:05:31Z</time>
      </trkpt>
      <trkpt lat="44.56157" lon="0.82588">
        <ele>116</ele>
        <time>2012-01-30T15:05:32Z</time>
      </trkpt>
      <trkpt lat="44.56159" lon="0.82586">
        <ele>116</ele>
        <time>2012-01-30T15:05:33Z</time>
      </trkpt>
      <trkpt lat="44.5616" lon="0.82583">
        <ele>115</ele>
        <time>2012-01-30T15:05:34Z</time>
      </trkpt>
      <trkpt lat="44.56162" lon="0.82581">
        <ele>114</ele>
        <time>2012-01-30T15:05:35Z</time>
      </trkpt>
      <trkpt lat="44.56164" lon="0.82578">
        <ele>113</ele>
        <time>2012-01-30T15:05:36Z</time>
      </trkpt>
      <trkpt lat="44.56166" lon="0.82577">
        <ele>112</ele>
        <time>2012-01-30T15:05:37Z</time>
      </trkpt>
      <trkpt lat="44.56167" lon="0.82574">
        <ele>112</ele>
        <time>2012-01-30T15:05:38Z</time>
      </trkpt>
      <trkpt lat="44.56169" lon="0.82572">
        <ele>112</ele>
        <time>2012-01-30T15:05:39Z</time>
      </trkpt>
      <trkpt lat="44.56171" lon="0.8257">
        <ele>112</ele>
        <time>2012-01-30T15:05:40Z</time>
      </trkpt>
      <trkpt lat="44.56172" lon="0.82567">
        <ele>112</ele>
        <time>2012-01-30T15:05:41Z</time>
      </trkpt>
      <trkpt lat="44.56174" lon="0.82565">
        <ele>112</ele>
        <time>2012-01-30T15:05:42Z</time>
      </trkpt>
      <trkpt lat="44.56176" lon="0.82563">
        <ele>112</ele>
        <time>2012-01-30T15:05:43Z</time>
      </trkpt>
      <trkpt lat="44.56177" lon="0.8256">
        <ele>112</ele>
        <time>2012-01-30T15:05:44Z</time>
      </trkpt>
      <trkpt lat="44.56179" lon="0.82558">
        <ele>112</ele>
        <time>2012-01-30T15:05:45Z</time>
      </trkpt>
      <trkpt lat="44.5618" lon="0.82556">
        <ele>112</ele>
        <time>2012-01-30T15:05:46Z</time>
      </trkpt>
      <trkpt lat="44.56181" lon="0.82553">
        <ele>112</ele>
        <time>2012-01-30T15:05:47Z</time>
      </trkpt>
      <trkpt lat="44.56183" lon="0.82551">
        <ele>112</ele>
        <time>2012-01-30T15:05:48Z</time>
      </trkpt>
      <trkpt lat="44.56184" lon="0.82548">
        <ele>112</ele>
        <time>2012-01-30T15:05:50Z</time>
      </trkpt>
      <trkpt lat="44.56186" lon="0.82546">
        <ele>112</ele>
        <time>2012-01-30T15:05:51Z</time>
      </trkpt>
      <trkpt lat="44.56187" lon="0.82544">
        <ele>112</ele>
        <time>2012-01-30T15:05:52Z</time>
      </trkpt>
      <trkpt lat="44.56189" lon="0.82542">
        <ele>112</ele>
        <time>2012-01-30T15:05:53Z</time>
      </trkpt>
      <trkpt lat="44.5619" lon="0.82539">
        <ele>112</ele>
        <time>2012-01-30T15:05:54Z</time>
      </trkpt>
      <trkpt lat="44.56191" lon="0.82537">
        <ele>112</ele>
        <time>2012-01-30T15:05:55Z</time>
      </trkpt>
      <trkpt lat="44.56192" lon="0.82534">
        <ele>112</ele>
        <time>2012-01-30T15:05:56Z</time>
      </trkpt>
      <trkpt lat="44.56194" lon="0.82531">
        <ele>112</ele>
        <time>2012-01-30T15:05:57Z</time>
      </trkpt>
      <trkpt lat="44.56195" lon="0.82528">
        <ele>112</ele>
        <time>2012-01-30T15:05:58Z</time>
      </trkpt>
      <trkpt lat="44.56196" lon="0.82526">
        <ele>112</ele>
        <time>2012-01-30T15:05:59Z</time>
      </trkpt>
      <trkpt lat="44.56197" lon="0.82524">
        <ele>112</ele>
        <time>2012-01-30T15:06:00Z</time>
      </trkpt>
      <trkpt lat="44.56198" lon="0.82522">
        <ele>112</ele>
        <time>2012-01-30T15:06:01Z</time>
      </trkpt>
      <trkpt lat="44.562" lon="0.82519">
        <ele>112</ele>
        <time>2012-01-30T15:06:02Z</time>
      </trkpt>
      <trkpt lat="44.56201" lon="0.82517">
        <ele>112</ele>
        <time>2012-01-30T15:06:03Z</time>
      </trkpt>
      <trkpt lat="44.56202" lon="0.82515">
        <ele>112</ele>
        <time>2012-01-30T15:06:04Z</time>
      </trkpt>
      <trkpt lat="44.56203" lon="0.82512">
        <ele>113</ele>
        <time>2012-01-30T15:06:05Z</time>
      </trkpt>
      <trkpt lat="44.56204" lon="0.8251">
        <ele>113</ele>
        <time>2012-01-30T15:06:06Z</time>
      </trkpt>
      <trkpt lat="44.56205" lon="0.82508">
        <ele>114</ele>
        <time>2012-01-30T15:06:07Z</time>
      </trkpt>
      <trkpt lat="44.56207" lon="0.82505">
        <ele>115</ele>
        <time>2012-01-30T15:06:08Z</time>
      </trkpt>
      <trkpt lat="44.56208" lon="0.82503">
        <ele>115</ele>
        <time>2012-01-30T15:06:09Z</time>
      </trkpt>
      <trkpt lat="44.5621" lon="0.825">
        <ele>116</ele>
        <time>2012-01-30T15:06:10Z</time>
      </trkpt>
      <trkpt lat="44.56211" lon="0.82498">
        <ele>116</ele>
        <time>2012-01-30T15:06:11Z</time>
      </trkpt>
      <trkpt lat="44.56213" lon="0.82495">
        <ele>116</ele>
        <time>2012-01-30T15:06:12Z</time>
      </trkpt>
      <trkpt lat="44.56214" lon="0.82493">
        <ele>117</ele>
        <time>2012-01-30T15:06:13Z</time>
      </trkpt>
      <trkpt lat="44.56216" lon="0.8249">
        <ele>117</ele>
        <time>2012-01-30T15:06:14Z</time>
      </trkpt>
      <trkpt lat="44.56217" lon="0.82488">
        <ele>118</ele>
        <time>2012-01-30T15:06:15Z</time>
      </trkpt>
      <trkpt lat="44.56218" lon="0.82485">
        <ele>118</ele>
        <time>2012-01-30T15:06:16Z</time>
      </trkpt>
      <trkpt lat="44.56219" lon="0.82483">
        <ele>118</ele>
        <time>2012-01-30T15:06:17Z</time>
      </trkpt>
      <trkpt lat="44.5622" lon="0.8248">
        <ele>119</ele>
        <time>2012-01-30T15:06:18Z</time>
      </trkpt>
      <trkpt lat="44.56221" lon="0.82477">
        <ele>119</ele>
        <time>2012-01-30T15:06:19Z</time>
      </trkpt>
      <trkpt lat="44.56222" lon="0.82475">
        <ele>120</ele>
        <time>2012-01-30T15:06:20Z</time>
      </trkpt>
      <trkpt lat="44.56223" lon="0.82472">
        <ele>120</ele>
        <time>2012-01-30T15:06:21Z</time>
      </trkpt>
      <trkpt lat="44.56224" lon="0.8247">
        <ele>120</ele>
        <time>2012-01-30T15:06:22Z</time>
      </trkpt>
      <trkpt lat="44.56226" lon="0.82468">
        <ele>120</ele>
        <time>2012-01-30T15:06:23Z</time>
      </trkpt>
      <trkpt lat="44.56226" lon="0.82466">
        <ele>121</ele>
        <time>2012-01-30T15:06:24Z</time>
      </trkpt>
      <trkpt lat="44.56228" lon="0.82463">
        <ele>121</ele>
        <time>2012-01-30T15:06:25Z</time>
      </trkpt>
      <trkpt lat="44.56229" lon="0.82461">
        <ele>121</ele>
        <time>2012-01-30T15:06:26Z</time>
      </trkpt>
      <trkpt lat="44.56231" lon="0.82459">
        <ele>121</ele>
        <time>2012-01-30T15:06:27Z</time>
      </trkpt>
      <trkpt lat="44.56233" lon="0.82456">
        <ele>122</ele>
        <time>2012-01-30T15:06:28Z</time>
      </trkpt>
      <trkpt lat="44.56234" lon="0.82454">
        <ele>122</ele>
        <time>2012-01-30T15:06:29Z</time>
      </trkpt>
      <trkpt lat="44.56236" lon="0.82451">
        <ele>122</ele>
        <time>2012-01-30T15:06:30Z</time>
      </trkpt>
      <trkpt lat="44.56237" lon="0.82449">
        <ele>122</ele>
        <time>2012-01-30T15:06:31Z</time>
      </trkpt>
      <trkpt lat="44.56239" lon="0.82446">
        <ele>122</ele>
        <time>2012-01-30T15:06:32Z</time>
      </trkpt>
      <trkpt lat="44.5624" lon="0.82444">
        <ele>122</ele>
        <time>2012-01-30T15:06:33Z</time>
      </trkpt>
      <trkpt lat="44.56242" lon="0.82442">
        <ele>122</ele>
        <time>2012-01-30T15:06:34Z</time>
      </trkpt>
      <trkpt lat="44.56243" lon="0.82439">
        <ele>122</ele>
        <time>2012-01-30T15:06:35Z</time>
      </trkpt>
      <trkpt lat="44.56244" lon="0.82437">
        <ele>122</ele>
        <time>2012-01-30T15:06:36Z</time>
      </trkpt>
      <trkpt lat="44.56245" lon="0.82434">
        <ele>122</ele>
        <time>2012-01-30T15:06:37Z</time>
      </trkpt>
      <trkpt lat="44.56245" lon="0.82432">
        <ele>122</ele>
        <time>2012-01-30T15:06:38Z</time>
      </trkpt>
      <trkpt lat="44.56245" lon="0.82429">
        <ele>122</ele>
        <time>2012-01-30T15:06:39Z</time>
      </trkpt>
      <trkpt lat="44.56244" lon="0.82427">
        <ele>122</ele>
        <time>2012-01-30T15:06:40Z</time>
      </trkpt>
      <trkpt lat="44.56244" lon="0.82424">
        <ele>122</ele>
        <time>2012-01-30T15:06:41Z</time>
      </trkpt>
      <trkpt lat="44.56243" lon="0.82422">
        <ele>122</ele>
        <time>2012-01-30T15:06:42Z</time>
      </trkpt>
      <trkpt lat="44.56242" lon="0.82419">
        <ele>122</ele>
        <time>2012-01-30T15:06:43Z</time>
      </trkpt>
      <trkpt lat="44.56242" lon="0.82417">
        <ele>122</ele>
        <time>2012-01-30T15:06:44Z</time>
      </trkpt>
      <trkpt lat="44.56241" lon="0.82414">
        <ele>122</ele>
        <time>2012-01-30T15:06:45Z</time>
      </trkpt>
      <trkpt lat="44.56241" lon="0.82412">
        <ele>122</ele>
        <time>2012-01-30T15:06:46Z</time>
      </trkpt>
      <trkpt lat="44.5624" lon="0.82409">
        <ele>122</ele>
        <time>2012-01-30T15:06:47Z</time>
      </trkpt>
      <trkpt lat="44.56239" lon="0.82407">
        <ele>122</ele>
        <time>2012-01-30T15:06:48Z</time>
      </trkpt>
      <trkpt lat="44.56239" lon="0.82404">
        <ele>122</ele>
        <time>2012-01-30T15:06:49Z</time>
      </trkpt>
      <trkpt lat="44.56238" lon="0.82402">
        <ele>122</ele>
        <time>2012-01-30T15:06:50Z</time>
      </trkpt>
      <trkpt lat="44.56237" lon="0.82399">
        <ele>122</ele>
        <time>2012-01-30T15:06:51Z</time>
      </trkpt>
      <trkpt lat="44.56236" lon="0.82396">
        <ele>122</ele>
        <time>2012-01-30T15:06:52Z</time>
      </trkpt>
      <trkpt lat="44.56236" lon="0.82394">
        <ele>122</ele>
        <time>2012-01-30T15:06:53Z</time>
      </trkpt>
      <trkpt lat="44.56235" lon="0.82391">
        <ele>122</ele>
        <time>2012-01-30T15:06:54Z</time>
      </trkpt>
      <trkpt lat="44.56234" lon="0.82389">
        <ele>122</ele>
        <time>2012-01-30T15:06:55Z</time>
      </trkpt>
      <trkpt lat="44.56234" lon="0.82386">
        <ele>122</ele>
        <time>2012-01-30T15:06:56Z</time>
      </trkpt>
      <trkpt lat="44.56233" lon="0.82383">
        <ele>122</ele>
        <time>2012-01-30T15:06:57Z</time>
      </trkpt>
      <trkpt lat="44.56232" lon="0.82381">
        <ele>122</ele>
        <time>2012-01-30T15:06:58Z</time>
      </trkpt>
      <trkpt lat="44.56232" lon="0.82378">
        <ele>122</ele>
        <time>2012-01-30T15:06:59Z</time>
      </trkpt>
      <trkpt lat="44.56231" lon="0.82375">
        <ele>122</ele>
        <time>2012-01-30T15:07:00Z</time>
      </trkpt>
      <trkpt lat="44.5623" lon="0.82373">
        <ele>122</ele>
        <time>2012-01-30T15:07:01Z</time>
      </trkpt>
      <trkpt lat="44.56228" lon="0.8237">
        <ele>122</ele>
        <time>2012-01-30T15:07:02Z</time>
      </trkpt>
      <trkpt lat="44.56227" lon="0.82368">
        <ele>122</ele>
        <time>2012-01-30T15:07:03Z</time>
      </trkpt>
      <trkpt lat="44.56226" lon="0.82365">
        <ele>122</ele>
        <time>2012-01-30T15:07:04Z</time>
      </trkpt>
      <trkpt lat="44.56225" lon="0.82363">
        <ele>122</ele>
        <time>2012-01-30T15:07:05Z</time>
      </trkpt>
      <trkpt lat="44.56224" lon="0.8236">
        <ele>122</ele>
        <time>2012-01-30T15:07:06Z</time>
      </trkpt>
      <trkpt lat="44.56224" lon="0.82357">
        <ele>122</ele>
        <time>2012-01-30T15:07:07Z</time>
      </trkpt>
      <trkpt lat="44.56223" lon="0.82355">
        <ele>122</ele>
        <time>2012-01-30T15:07:08Z</time>
      </trkpt>
      <trkpt lat="44.56223" lon="0.82353">
        <ele>122</ele>
        <time>2012-01-30T15:07:09Z</time>
      </trkpt>
      <trkpt lat="44.56221" lon="0.8235">
        <ele>122</ele>
        <time>2012-01-30T15:07:10Z</time>
      </trkpt>
      <trkpt lat="44.56221" lon="0.82348">
        <ele>122</ele>
        <time>2012-01-30T15:07:11Z</time>
      </trkpt>
      <trkpt lat="44.56218" lon="0.82345">
        <ele>122</ele>
        <time>2012-01-30T15:07:12Z</time>
      </trkpt>
      <trkpt lat="44.56217" lon="0.82343">
        <ele>122</ele>
        <time>2012-01-30T15:07:13Z</time>
      </trkpt>
      <trkpt lat="44.56216" lon="0.8234">
        <ele>122</ele>
        <time>2012-01-30T15:07:14Z</time>
      </trkpt>
      <trkpt lat="44.56214" lon="0.82338">
        <ele>122</ele>
        <time>2012-01-30T15:07:15Z</time>
      </trkpt>
      <trkpt lat="44.56213" lon="0.82335">
        <ele>122</ele>
        <time>2012-01-30T15:07:16Z</time>
      </trkpt>
      <trkpt lat="44.56212" lon="0.82333">
        <ele>122</ele>
        <time>2012-01-30T15:07:17Z</time>
      </trkpt>
      <trkpt lat="44.56211" lon="0.8233">
        <ele>122</ele>
        <time>2012-01-30T15:07:18Z</time>
      </trkpt>
      <trkpt lat="44.5621" lon="0.82327">
        <ele>122</ele>
        <time>2012-01-30T15:07:19Z</time>
      </trkpt>
      <trkpt lat="44.56209" lon="0.82325">
        <ele>122</ele>
        <time>2012-01-30T15:07:20Z</time>
      </trkpt>
      <trkpt lat="44.56207" lon="0.82322">
        <ele>122</ele>
        <time>2012-01-30T15:07:21Z</time>
      </trkpt>
      <trkpt lat="44.56206" lon="0.82319">
        <ele>122</ele>
        <time>2012-01-30T15:07:22Z</time>
      </trkpt>
      <trkpt lat="44.56205" lon="0.82317">
        <ele>122</ele>
        <time>2012-01-30T15:07:23Z</time>
      </trkpt>
      <trkpt lat="44.56204" lon="0.82314">
        <ele>122</ele>
        <time>2012-01-30T15:07:24Z</time>
      </trkpt>
      <trkpt lat="44.56202" lon="0.82311">
        <ele>122</ele>
        <time>2012-01-30T15:07:25Z</time>
      </trkpt>
      <trkpt lat="44.562" lon="0.82309">
        <ele>122</ele>
        <time>2012-01-30T15:07:26Z</time>
      </trkpt>
      <trkpt lat="44.56199" lon="0.82306">
        <ele>122</ele>
        <time>2012-01-30T15:07:27Z</time>
      </trkpt>
      <trkpt lat="44.56198" lon="0.82304">
        <ele>122</ele>
        <time>2012-01-30T15:07:28Z</time>
      </trkpt>
      <trkpt lat="44.56197" lon="0.82301">
        <ele>122</ele>
        <time>2012-01-30T15:07:29Z</time>
      </trkpt>
      <trkpt lat="44.56195" lon="0.82298">
        <ele>122</ele>
        <time>2012-01-30T15:07:30Z</time>
      </trkpt>
      <trkpt lat="44.56195" lon="0.82296">
        <ele>122</ele>
        <time>2012-01-30T15:07:31Z</time>
      </trkpt>
      <trkpt lat="44.56193" lon="0.82293">
        <ele>122</ele>
        <time>2012-01-30T15:07:32Z</time>
      </trkpt>
      <trkpt lat="44.56192" lon="0.82291">
        <ele>122</ele>
        <time>2012-01-30T15:07:33Z</time>
      </trkpt>
      <trkpt lat="44.56191" lon="0.82288">
        <ele>122</ele>
        <time>2012-01-30T15:07:34Z</time>
      </trkpt>
      <trkpt lat="44.5619" lon="0.82285">
        <ele>122</ele>
        <time>2012-01-30T15:07:35Z</time>
      </trkpt>
      <trkpt lat="44.5619" lon="0.82283">
        <ele>122</ele>
        <time>2012-01-30T15:07:36Z</time>
      </trkpt>
      <trkpt lat="44.56189" lon="0.8228">
        <ele>122</ele>
        <time>2012-01-30T15:07:37Z</time>
      </trkpt>
      <trkpt lat="44.56189" lon="0.82278">
        <ele>122</ele>
        <time>2012-01-30T15:07:38Z</time>
      </trkpt>
      <trkpt lat="44.56188" lon="0.82275">
        <ele>122</ele>
        <time>2012-01-30T15:07:39Z</time>
      </trkpt>
      <trkpt lat="44.56187" lon="0.82273">
        <ele>122</ele>
        <time>2012-01-30T15:07:40Z</time>
      </trkpt>
      <trkpt lat="44.56186" lon="0.8227">
        <ele>122</ele>
        <time>2012-01-30T15:07:41Z</time>
      </trkpt>
      <trkpt lat="44.56186" lon="0.82268">
        <ele>122</ele>
        <time>2012-01-30T15:07:42Z</time>
      </trkpt>
      <trkpt lat="44.56185" lon="0.82266">
        <ele>122</ele>
        <time>2012-01-30T15:07:43Z</time>
      </trkpt>
      <trkpt lat="44.56184" lon="0.82263">
        <ele>122</ele>
        <time>2012-01-30T15:07:44Z</time>
      </trkpt>
      <trkpt lat="44.56183" lon="0.82261">
        <ele>122</ele>
        <time>2012-01-30T15:07:45Z</time>
      </trkpt>
      <trkpt lat="44.56183" lon="0.82258">
        <ele>122</ele>
        <time>2012-01-30T15:07:46Z</time>
      </trkpt>
      <trkpt lat="44.56182" lon="0.82256">
        <ele>122</ele>
        <time>2012-01-30T15:07:47Z</time>
      </trkpt>
      <trkpt lat="44.56181" lon="0.82254">
        <ele>122</ele>
        <time>2012-01-30T15:07:48Z</time>
      </trkpt>
      <trkpt lat="44.56181" lon="0.82251">
        <ele>122</ele>
        <time>2012-01-30T15:07:49Z</time>
      </trkpt>
      <trkpt lat="44.5618" lon="0.82249">
        <ele>122</ele>
        <time>2012-01-30T15:07:50Z</time>
      </trkpt>
      <trkpt lat="44.56179" lon="0.82246">
        <ele>122</ele>
        <time>2012-01-30T15:07:51Z</time>
      </trkpt>
      <trkpt lat="44.56178" lon="0.82244">
        <ele>122</ele>
        <time>2012-01-30T15:07:52Z</time>
      </trkpt>
      <trkpt lat="44.56177" lon="0.82241">
        <ele>122</ele>
        <time>2012-01-30T15:07:53Z</time>
      </trkpt>
      <trkpt lat="44.56176" lon="0.82239">
        <ele>122</ele>
        <time>2012-01-30T15:07:54Z</time>
      </trkpt>
      <trkpt lat="44.56176" lon="0.82236">
        <ele>122</ele>
        <time>2012-01-30T15:07:55Z</time>
      </trkpt>
      <trkpt lat="44.56175" lon="0.82234">
        <ele>122</ele>
        <time>2012-01-30T15:07:56Z</time>
      </trkpt>
      <trkpt lat="44.56174" lon="0.82231">
        <ele>122</ele>
        <time>2012-01-30T15:07:57Z</time>
      </trkpt>
      <trkpt lat="44.56173" lon="0.82229">
        <ele>122</ele>
        <time>2012-01-30T15:07:58Z</time>
      </trkpt>
      <trkpt lat="44.56172" lon="0.82226">
        <ele>122</ele>
        <time>2012-01-30T15:07:59Z</time>
      </trkpt>
      <trkpt lat="44.56171" lon="0.82223">
        <ele>122</ele>
        <time>2012-01-30T15:08:00Z</time>
      </trkpt>
      <trkpt lat="44.56171" lon="0.82221">
        <ele>122</ele>
        <time>2012-01-30T15:08:01Z</time>
      </trkpt>
      <trkpt lat="44.5617" lon="0.82218">
        <ele>122</ele>
        <time>2012-01-30T15:08:02Z</time>
      </trkpt>
      <trkpt lat="44.56169" lon="0.82215">
        <ele>122</ele>
        <time>2012-01-30T15:08:03Z</time>
      </trkpt>
      <trkpt lat="44.56168" lon="0.82213">
        <ele>122</ele>
        <time>2012-01-30T15:08:04Z</time>
      </trkpt>
      <trkpt lat="44.56168" lon="0.8221">
        <ele>122</ele>
        <time>2012-01-30T15:08:05Z</time>
      </trkpt>
      <trkpt lat="44.56167" lon="0.82207">
        <ele>122</ele>
        <time>2012-01-30T15:08:06Z</time>
      </trkpt>
      <trkpt lat="44.56166" lon="0.82204">
        <ele>122</ele>
        <time>2012-01-30T15:08:07Z</time>
      </trkpt>
      <trkpt lat="44.56165" lon="0.82201">
        <ele>122</ele>
        <time>2012-01-30T15:08:08Z</time>
      </trkpt>
      <trkpt lat="44.56165" lon="0.82199">
        <ele>122</ele>
        <time>2012-01-30T15:08:09Z</time>
      </trkpt>
      <trkpt lat="44.56164" lon="0.82196">
        <ele>122</ele>
        <time>2012-01-30T15:08:10Z</time>
      </trkpt>
      <trkpt lat="44.56163" lon="0.82193">
        <ele>122</ele>
        <time>2012-01-30T15:08:11Z</time>
      </trkpt>
      <trkpt lat="44.56163" lon="0.82191">
        <ele>123</ele>
        <time>2012-01-30T15:08:12Z</time>
      </trkpt>
      <trkpt lat="44.56162" lon="0.82188">
        <ele>123</ele>
        <time>2012-01-30T15:08:13Z</time>
      </trkpt>
      <trkpt lat="44.56161" lon="0.82185">
        <ele>123</ele>
        <time>2012-01-30T15:08:14Z</time>
      </trkpt>
      <trkpt lat="44.5616" lon="0.82183">
        <ele>123</ele>
        <time>2012-01-30T15:08:15Z</time>
      </trkpt>
      <trkpt lat="44.5616" lon="0.8218">
        <ele>123</ele>
        <time>2012-01-30T15:08:16Z</time>
      </trkpt>
      <trkpt lat="44.56159" lon="0.82177">
        <ele>124</ele>
        <time>2012-01-30T15:08:17Z</time>
      </trkpt>
      <trkpt lat="44.56158" lon="0.82174">
        <ele>124</ele>
        <time>2012-01-30T15:08:18Z</time>
      </trkpt>
      <trkpt lat="44.56157" lon="0.82171">
        <ele>124</ele>
        <time>2012-01-30T15:08:19Z</time>
      </trkpt>
      <trkpt lat="44.56157" lon="0.82169">
        <ele>124</ele>
        <time>2012-01-30T15:08:20Z</time>
      </trkpt>
      <trkpt lat="44.56156" lon="0.82166">
        <ele>124</ele>
        <time>2012-01-30T15:08:21Z</time>
      </trkpt>
      <trkpt lat="44.56155" lon="0.82164">
        <ele>124</ele>
        <time>2012-01-30T15:08:22Z</time>
      </trkpt>
      <trkpt lat="44.56155" lon="0.82161">
        <ele>125</ele>
        <time>2012-01-30T15:08:23Z</time>
      </trkpt>
      <trkpt lat="44.56154" lon="0.82159">
        <ele>125</ele>
        <time>2012-01-30T15:08:24Z</time>
      </trkpt>
      <trkpt lat="44.56153" lon="0.82157">
        <ele>125</ele>
        <time>2012-01-30T15:08:25Z</time>
      </trkpt>
      <trkpt lat="44.56152" lon="0.82154">
        <ele>125</ele>
        <time>2012-01-30T15:08:26Z</time>
      </trkpt>
      <trkpt lat="44.56152" lon="0.82152">
        <ele>125</ele>
        <time>2012-01-30T15:08:27Z</time>
      </trkpt>
      <trkpt lat="44.56151" lon="0.82149">
        <ele>125</ele>
        <time>2012-01-30T15:08:28Z</time>
      </trkpt>
      <trkpt lat="44.5615" lon="0.82146">
        <ele>125</ele>
        <time>2012-01-30T15:08:29Z</time>
      </trkpt>
      <trkpt lat="44.5615" lon="0.82144">
        <ele>125</ele>
        <time>2012-01-30T15:08:30Z</time>
      </trkpt>
      <trkpt lat="44.56149" lon="0.82141">
        <ele>125</ele>
        <time>2012-01-30T15:08:31Z</time>
      </trkpt>
      <trkpt lat="44.56148" lon="0.82138">
        <ele>125</ele>
        <time>2012-01-30T15:08:32Z</time>
      </trkpt>
      <trkpt lat="44.56147" lon="0.82136">
        <ele>125</ele>
        <time>2012-01-30T15:08:33Z</time>
      </trkpt>
      <trkpt lat="44.56146" lon="0.82133">
        <ele>125</ele>
        <time>2012-01-30T15:08:34Z</time>
      </trkpt>
      <trkpt lat="44.56145" lon="0.8213">
        <ele>125</ele>
        <time>2012-01-30T15:08:35Z</time>
      </trkpt>
      <trkpt lat="44.56144" lon="0.82127">
        <ele>126</ele>
        <time>2012-01-30T15:08:36Z</time>
      </trkpt>
      <trkpt lat="44.56144" lon="0.82125">
        <ele>126</ele>
        <time>2012-01-30T15:08:37Z</time>
      </trkpt>
      <trkpt lat="44.56143" lon="0.82122">
        <ele>126</ele>
        <time>2012-01-30T15:08:38Z</time>
      </trkpt>
      <trkpt lat="44.56142" lon="0.8212">
        <ele>126</ele>
        <time>2012-01-30T15:08:39Z</time>
      </trkpt>
      <trkpt lat="44.56142" lon="0.82117">
        <ele>126</ele>
        <time>2012-01-30T15:08:40Z</time>
      </trkpt>
      <trkpt lat="44.56141" lon="0.82114">
        <ele>126</ele>
        <time>2012-01-30T15:08:41Z</time>
      </trkpt>
      <trkpt lat="44.56141" lon="0.82111">
        <ele>127</ele>
        <time>2012-01-30T15:08:42Z</time>
      </trkpt>
      <trkpt lat="44.5614" lon="0.82108">
        <ele>127</ele>
        <time>2012-01-30T15:08:43Z</time>
      </trkpt>
      <trkpt lat="44.5614" lon="0.82106">
        <ele>127</ele>
        <time>2012-01-30T15:08:44Z</time>
      </trkpt>
      <trkpt lat="44.56139" lon="0.82103">
        <ele>127</ele>
        <time>2012-01-30T15:08:45Z</time>
      </trkpt>
      <trkpt lat="44.56139" lon="0.821">
        <ele>127</ele>
        <time>2012-01-30T15:08:46Z</time>
      </trkpt>
      <trkpt lat="44.56138" lon="0.82098">
        <ele>127</ele>
        <time>2012-01-30T15:08:47Z</time>
      </trkpt>
      <trkpt lat="44.56137" lon="0.82095">
        <ele>127</ele>
        <time>2012-01-30T15:08:48Z</time>
      </trkpt>
      <trkpt lat="44.56137" lon="0.82093">
        <ele>127</ele>
        <time>2012-01-30T15:08:49Z</time>
      </trkpt>
      <trkpt lat="44.56136" lon="0.8209">
        <ele>127</ele>
        <time>2012-01-30T15:08:50Z</time>
      </trkpt>
      <trkpt lat="44.56136" lon="0.82088">
        <ele>127</ele>
        <time>2012-01-30T15:08:51Z</time>
      </trkpt>
      <trkpt lat="44.56135" lon="0.82085">
        <ele>127</ele>
        <time>2012-01-30T15:08:52Z</time>
      </trkpt>
      <trkpt lat="44.56134" lon="0.82082">
        <ele>127</ele>
        <time>2012-01-30T15:08:53Z</time>
      </trkpt>
      <trkpt lat="44.56134" lon="0.8208">
        <ele>127</ele>
        <time>2012-01-30T15:08:54Z</time>
      </trkpt>
      <trkpt lat="44.56133" lon="0.82077">
        <ele>127</ele>
        <time>2012-01-30T15:08:55Z</time>
      </trkpt>
      <trkpt lat="44.56133" lon="0.82075">
        <ele>127</ele>
        <time>2012-01-30T15:08:56Z</time>
      </trkpt>
      <trkpt lat="44.56132" lon="0.82072">
        <ele>127</ele>
        <time>2012-01-30T15:08:57Z</time>
      </trkpt>
      <trkpt lat="44.56131" lon="0.82069">
        <ele>127</ele>
        <time>2012-01-30T15:08:58Z</time>
      </trkpt>
      <trkpt lat="44.56131" lon="0.82067">
        <ele>127</ele>
        <time>2012-01-30T15:08:59Z</time>
      </trkpt>
      <trkpt lat="44.5613" lon="0.82064">
        <ele>127</ele>
        <time>2012-01-30T15:09:00Z</time>
      </trkpt>
      <trkpt lat="44.5613" lon="0.82062">
        <ele>128</ele>
        <time>2012-01-30T15:09:01Z</time>
      </trkpt>
      <trkpt lat="44.5613" lon="0.8206">
        <ele>128</ele>
        <time>2012-01-30T15:09:02Z</time>
      </trkpt>
      <trkpt lat="44.5613" lon="0.82059">
        <ele>128</ele>
        <time>2012-01-30T15:09:03Z</time>
      </trkpt>
      <trkpt lat="44.56131" lon="0.82056">
        <ele>128</ele>
        <time>2012-01-30T15:09:04Z</time>
      </trkpt>
      <trkpt lat="44.56131" lon="0.82055">
        <ele>128</ele>
        <time>2012-01-30T15:09:05Z</time>
      </trkpt>
      <trkpt lat="44.56133" lon="0.82054">
        <ele>129</ele>
        <time>2012-01-30T15:09:06Z</time>
      </trkpt>
      <trkpt lat="44.56134" lon="0.82053">
        <ele>129</ele>
        <time>2012-01-30T15:09:07Z</time>
      </trkpt>
      <trkpt lat="44.56136" lon="0.82052">
        <ele>129</ele>
        <time>2012-01-30T15:09:08Z</time>
      </trkpt>
      <trkpt lat="44.56138" lon="0.82051">
        <ele>130</ele>
        <time>2012-01-30T15:09:09Z</time>
      </trkpt>
      <trkpt lat="44.5614" lon="0.82051">
        <ele>130</ele>
        <time>2012-01-30T15:09:10Z</time>
      </trkpt>
      <trkpt lat="44.56142" lon="0.82051">
        <ele>130</ele>
        <time>2012-01-30T15:09:11Z</time>
      </trkpt>
      <trkpt lat="44.56144" lon="0.82051">
        <ele>130</ele>
        <time>2012-01-30T15:09:12Z</time>
      </trkpt>
      <trkpt lat="44.56147" lon="0.82052">
        <ele>130</ele>
        <time>2012-01-30T15:09:13Z</time>
      </trkpt>
      <trkpt lat="44.5615" lon="0.82052">
        <ele>130</ele>
        <time>2012-01-30T15:09:14Z</time>
      </trkpt>
      <trkpt lat="44.56153" lon="0.82052">
        <ele>130</ele>
        <time>2012-01-30T15:09:15Z</time>
      </trkpt>
      <trkpt lat="44.56156" lon="0.82052">
        <ele>130</ele>
        <time>2012-01-30T15:09:16Z</time>
      </trkpt>
      <trkpt lat="44.56159" lon="0.82051">
        <ele>130</ele>
        <time>2012-01-30T15:09:17Z</time>
      </trkpt>
      <trkpt lat="44.56162" lon="0.82049">
        <ele>130</ele>
        <time>2012-01-30T15:09:18Z</time>
      </trkpt>
      <trkpt lat="44.56165" lon="0.82047">
        <ele>130</ele>
        <time>2012-01-30T15:09:19Z</time>
      </trkpt>
      <trkpt lat="44.56166" lon="0.82043">
        <ele>130</ele>
        <time>2012-01-30T15:09:20Z</time>
      </trkpt>
      <trkpt lat="44.56167" lon="0.82038">
        <ele>130</ele>
        <time>2012-01-30T15:09:21Z</time>
      </trkpt>
      <trkpt lat="44.56167" lon="0.82035">
        <ele>130</ele>
        <time>2012-01-30T15:09:22Z</time>
      </trkpt>
      <trkpt lat="44.56166" lon="0.82032">
        <ele>130</ele>
        <time>2012-01-30T15:09:23Z</time>
      </trkpt>
      <trkpt lat="44.56165" lon="0.82029">
        <ele>130</ele>
        <time>2012-01-30T15:09:24Z</time>
      </trkpt>
      <trkpt lat="44.56163" lon="0.82026">
        <ele>130</ele>
        <time>2012-01-30T15:09:25Z</time>
      </trkpt>
      <trkpt lat="44.56162" lon="0.82023">
        <ele>130</ele>
        <time>2012-01-30T15:09:26Z</time>
      </trkpt>
      <trkpt lat="44.5616" lon="0.8202">
        <ele>130</ele>
        <time>2012-01-30T15:09:27Z</time>
      </trkpt>
      <trkpt lat="44.56158" lon="0.82017">
        <ele>130</ele>
        <time>2012-01-30T15:09:28Z</time>
      </trkpt>
      <trkpt lat="44.56157" lon="0.82014">
        <ele>130</ele>
        <time>2012-01-30T15:09:29Z</time>
      </trkpt>
      <trkpt lat="44.56155" lon="0.82012">
        <ele>130</ele>
        <time>2012-01-30T15:09:30Z</time>
      </trkpt>
      <trkpt lat="44.56153" lon="0.82009">
        <ele>130</ele>
        <time>2012-01-30T15:09:31Z</time>
      </trkpt>
      <trkpt lat="44.56151" lon="0.82007">
        <ele>130</ele>
        <time>2012-01-30T15:09:32Z</time>
      </trkpt>
      <trkpt lat="44.5615" lon="0.82004">
        <ele>130</ele>
        <time>2012-01-30T15:09:33Z</time>
      </trkpt>
      <trkpt lat="44.56149" lon="0.82001">
        <ele>130</ele>
        <time>2012-01-30T15:09:34Z</time>
      </trkpt>
      <trkpt lat="44.56148" lon="0.81999">
        <ele>130</ele>
        <time>2012-01-30T15:09:35Z</time>
      </trkpt>
      <trkpt lat="44.56147" lon="0.81996">
        <ele>130</ele>
        <time>2012-01-30T15:09:36Z</time>
      </trkpt>
      <trkpt lat="44.56147" lon="0.81993">
        <ele>130</ele>
        <time>2012-01-30T15:09:37Z</time>
      </trkpt>
      <trkpt lat="44.56146" lon="0.81989">
        <ele>130</ele>
        <time>2012-01-30T15:09:38Z</time>
      </trkpt>
      <trkpt lat="44.56146" lon="0.81985">
        <ele>130</ele>
        <time>2012-01-30T15:09:39Z</time>
      </trkpt>
      <trkpt lat="44.56145" lon="0.8198">
        <ele>130</ele>
        <time>2012-01-30T15:09:40Z</time>
      </trkpt>
      <trkpt lat="44.56144" lon="0.81976">
        <ele>130</ele>
        <time>2012-01-30T15:09:41Z</time>
      </trkpt>
      <trkpt lat="44.56143" lon="0.81972">
        <ele>130</ele>
        <time>2012-01-30T15:09:42Z</time>
      </trkpt>
      <trkpt lat="44.56142" lon="0.81969">
        <ele>130</ele>
        <time>2012-01-30T15:09:43Z</time>
      </trkpt>
      <trkpt lat="44.56141" lon="0.81966">
        <ele>130</ele>
        <time>2012-01-30T15:09:44Z</time>
      </trkpt>
      <trkpt lat="44.56139" lon="0.81962">
        <ele>130</ele>
        <time>2012-01-30T15:09:45Z</time>
      </trkpt>
      <trkpt lat="44.56137" lon="0.81959">
        <ele>130</ele>
        <time>2012-01-30T15:09:46Z</time>
      </trkpt>
      <trkpt lat="44.56136" lon="0.81956">
        <ele>130</ele>
        <time>2012-01-30T15:09:47Z</time>
      </trkpt>
      <trkpt lat="44.56134" lon="0.81953">
        <ele>130</ele>
        <time>2012-01-30T15:09:48Z</time>
      </trkpt>
      <trkpt lat="44.56133" lon="0.81949">
        <ele>130</ele>
        <time>2012-01-30T15:09:49Z</time>
      </trkpt>
      <trkpt lat="44.56131" lon="0.81945">
        <ele>130</ele>
        <time>2012-01-30T15:09:50Z</time>
      </trkpt>
      <trkpt lat="44.56129" lon="0.81941">
        <ele>130</ele>
        <time>2012-01-30T15:09:51Z</time>
      </trkpt>
      <trkpt lat="44.56128" lon="0.81937">
        <ele>130</ele>
        <time>2012-01-30T15:09:52Z</time>
      </trkpt>
      <trkpt lat="44.56126" lon="0.81932">
        <ele>130</ele>
        <time>2012-01-30T15:09:53Z</time>
      </trkpt>
      <trkpt lat="44.56125" lon="0.81928">
        <ele>130</ele>
        <time>2012-01-30T15:09:54Z</time>
      </trkpt>
      <trkpt lat="44.56124" lon="0.81923">
        <ele>130</ele>
        <time>2012-01-30T15:09:55Z</time>
      </trkpt>
      <trkpt lat="44.56123" lon="0.81919">
        <ele>130</ele>
        <time>2012-01-30T15:09:56Z</time>
      </trkpt>
      <trkpt lat="44.56122" lon="0.81915">
        <ele>130</ele>
        <time>2012-01-30T15:09:57Z</time>
      </trkpt>
      <trkpt lat="44.56121" lon="0.81911">
        <ele>130</ele>
        <time>2012-01-30T15:09:58Z</time>
      </trkpt>
      <trkpt lat="44.5612" lon="0.81907">
        <ele>130</ele>
        <time>2012-01-30T15:09:59Z</time>
      </trkpt>
      <trkpt lat="44.56118" lon="0.81903">
        <ele>130</ele>
        <time>2012-01-30T15:10:00Z</time>
      </trkpt>
      <trkpt lat="44.56117" lon="0.81899">
        <ele>130</ele>
        <time>2012-01-30T15:10:01Z</time>
      </trkpt>
      <trkpt lat="44.56115" lon="0.81895">
        <ele>130</ele>
        <time>2012-01-30T15:10:02Z</time>
      </trkpt>
      <trkpt lat="44.56114" lon="0.81891">
        <ele>130</ele>
        <time>2012-01-30T15:10:03Z</time>
      </trkpt>
      <trkpt lat="44.56113" lon="0.81887">
        <ele>130</ele>
        <time>2012-01-30T15:10:04Z</time>
      </trkpt>
      <trkpt lat="44.56111" lon="0.81884">
        <ele>130</ele>
        <time>2012-01-30T15:10:05Z</time>
      </trkpt>
      <trkpt lat="44.5611" lon="0.8188">
        <ele>130</ele>
        <time>2012-01-30T15:10:06Z</time>
      </trkpt>
      <trkpt lat="44.56108" lon="0.81878">
        <ele>130</ele>
        <time>2012-01-30T15:10:07Z</time>
      </trkpt>
      <trkpt lat="44.56106" lon="0.81876">
        <ele>130</ele>
        <time>2012-01-30T15:10:08Z</time>
      </trkpt>
      <trkpt lat="44.56103" lon="0.81875">
        <ele>130</ele>
        <time>2012-01-30T15:10:09Z</time>
      </trkpt>
      <trkpt lat="44.561" lon="0.81875">
        <ele>130</ele>
        <time>2012-01-30T15:10:10Z</time>
      </trkpt>
      <trkpt lat="44.56098" lon="0.81877">
        <ele>130</ele>
        <time>2012-01-30T15:10:11Z</time>
      </trkpt>
      <trkpt lat="44.56096" lon="0.8188">
        <ele>130</ele>
        <time>2012-01-30T15:10:12Z</time>
      </trkpt>
      <trkpt lat="44.56094" lon="0.81882">
        <ele>130</ele>
        <time>2012-01-30T15:10:13Z</time>
      </trkpt>
      <trkpt lat="44.56092" lon="0.81884">
        <ele>130</ele>
        <time>2012-01-30T15:10:14Z</time>
      </trkpt>
      <trkpt lat="44.5609" lon="0.81886">
        <ele>130</ele>
        <time>2012-01-30T15:10:15Z</time>
      </trkpt>
      <trkpt lat="44.56088" lon="0.81888">
        <ele>130</ele>
        <time>2012-01-30T15:10:16Z</time>
      </trkpt>
      <trkpt lat="44.56086" lon="0.8189">
        <ele>130</ele>
        <time>2012-01-30T15:10:17Z</time>
      </trkpt>
      <trkpt lat="44.56083" lon="0.81892">
        <ele>130</ele>
        <time>2012-01-30T15:10:18Z</time>
      </trkpt>
      <trkpt lat="44.56081" lon="0.81893">
        <ele>130</ele>
        <time>2012-01-30T15:10:19Z</time>
      </trkpt>
      <trkpt lat="44.56079" lon="0.81895">
        <ele>130</ele>
        <time>2012-01-30T15:10:20Z</time>
      </trkpt>
      <trkpt lat="44.56078" lon="0.81897">
        <ele>130</ele>
        <time>2012-01-30T15:10:21Z</time>
      </trkpt>
      <trkpt lat="44.56076" lon="0.81899">
        <ele>130</ele>
        <time>2012-01-30T15:10:22Z</time>
      </trkpt>
      <trkpt lat="44.56074" lon="0.81901">
        <ele>130</ele>
        <time>2012-01-30T15:10:23Z</time>
      </trkpt>
      <trkpt lat="44.56072" lon="0.81902">
        <ele>130</ele>
        <time>2012-01-30T15:10:24Z</time>
      </trkpt>
      <trkpt lat="44.5607" lon="0.81904">
        <ele>130</ele>
        <time>2012-01-30T15:10:25Z</time>
      </trkpt>
      <trkpt lat="44.56068" lon="0.81906">
        <ele>130</ele>
        <time>2012-01-30T15:10:26Z</time>
      </trkpt>
      <trkpt lat="44.56065" lon="0.81908">
        <ele>130</ele>
        <time>2012-01-30T15:10:27Z</time>
      </trkpt>
      <trkpt lat="44.56063" lon="0.8191">
        <ele>130</ele>
        <time>2012-01-30T15:10:28Z</time>
      </trkpt>
      <trkpt lat="44.56061" lon="0.81911">
        <ele>130</ele>
        <time>2012-01-30T15:10:29Z</time>
      </trkpt>
      <trkpt lat="44.56059" lon="0.81912">
        <ele>130</ele>
        <time>2012-01-30T15:10:30Z</time>
      </trkpt>
      <trkpt lat="44.56057" lon="0.81914">
        <ele>130</ele>
        <time>2012-01-30T15:10:31Z</time>
      </trkpt>
      <trkpt lat="44.56055" lon="0.81915">
        <ele>130</ele>
        <time>2012-01-30T15:10:32Z</time>
      </trkpt>
      <trkpt lat="44.56054" lon="0.81915">
        <ele>130</ele>
        <time>2012-01-30T15:10:33Z</time>
      </trkpt>
      <trkpt lat="44.56052" lon="0.81915">
        <ele>130</ele>
        <time>2012-01-30T15:10:34Z</time>
      </trkpt>
      <trkpt lat="44.5605" lon="0.81914">
        <ele>130</ele>
        <time>2012-01-30T15:10:35Z</time>
      </trkpt>
      <trkpt lat="44.56048" lon="0.81914">
        <ele>130</ele>
        <time>2012-01-30T15:10:36Z</time>
      </trkpt>
      <trkpt lat="44.56046" lon="0.81913">
        <ele>130</ele>
        <time>2012-01-30T15:10:37Z</time>
      </trkpt>
      <trkpt lat="44.56044" lon="0.81913">
        <ele>131</ele>
        <time>2012-01-30T15:10:38Z</time>
      </trkpt>
      <trkpt lat="44.56042" lon="0.81913">
        <ele>131</ele>
        <time>2012-01-30T15:10:39Z</time>
      </trkpt>
      <trkpt lat="44.56041" lon="0.81913">
        <ele>131</ele>
        <time>2012-01-30T15:10:40Z</time>
      </trkpt>
      <trkpt lat="44.56039" lon="0.81912">
        <ele>132</ele>
        <time>2012-01-30T15:10:41Z</time>
      </trkpt>
      <trkpt lat="44.56037" lon="0.81912">
        <ele>132</ele>
        <time>2012-01-30T15:10:42Z</time>
      </trkpt>
      <trkpt lat="44.56036" lon="0.81911">
        <ele>132</ele>
        <time>2012-01-30T15:10:43Z</time>
      </trkpt>
      <trkpt lat="44.56034" lon="0.8191">
        <ele>132</ele>
        <time>2012-01-30T15:10:44Z</time>
      </trkpt>
      <trkpt lat="44.56032" lon="0.8191">
        <ele>133</ele>
        <time>2012-01-30T15:10:45Z</time>
      </trkpt>
      <trkpt lat="44.5603" lon="0.81909">
        <ele>133</ele>
        <time>2012-01-30T15:10:46Z</time>
      </trkpt>
      <trkpt lat="44.56028" lon="0.81909">
        <ele>134</ele>
        <time>2012-01-30T15:10:47Z</time>
      </trkpt>
      <trkpt lat="44.56026" lon="0.81908">
        <ele>134</ele>
        <time>2012-01-30T15:10:48Z</time>
      </trkpt>
      <trkpt lat="44.56025" lon="0.81907">
        <ele>135</ele>
        <time>2012-01-30T15:10:49Z</time>
      </trkpt>
      <trkpt lat="44.56023" lon="0.81907">
        <ele>135</ele>
        <time>2012-01-30T15:10:50Z</time>
      </trkpt>
      <trkpt lat="44.56021" lon="0.81906">
        <ele>135</ele>
        <time>2012-01-30T15:10:51Z</time>
      </trkpt>
      <trkpt lat="44.5602" lon="0.81905">
        <ele>135</ele>
        <time>2012-01-30T15:10:52Z</time>
      </trkpt>
      <trkpt lat="44.56018" lon="0.81905">
        <ele>136</ele>
        <time>2012-01-30T15:10:53Z</time>
      </trkpt>
      <trkpt lat="44.56017" lon="0.81904">
        <ele>136</ele>
        <time>2012-01-30T15:10:54Z</time>
      </trkpt>
      <trkpt lat="44.56015" lon="0.81903">
        <ele>136</ele>
        <time>2012-01-30T15:10:55Z</time>
      </trkpt>
      <trkpt lat="44.56014" lon="0.81903">
        <ele>136</ele>
        <time>2012-01-30T15:10:56Z</time>
      </trkpt>
      <trkpt lat="44.56012" lon="0.81902">
        <ele>137</ele>
        <time>2012-01-30T15:10:57Z</time>
      </trkpt>
      <trkpt lat="44.56011" lon="0.81902">
        <ele>137</ele>
        <time>2012-01-30T15:10:58Z</time>
      </trkpt>
      <trkpt lat="44.5601" lon="0.81901">
        <ele>137</ele>
        <time>2012-01-30T15:10:59Z</time>
      </trkpt>
      <trkpt lat="44.56008" lon="0.819">
        <ele>137</ele>
        <time>2012-01-30T15:11:01Z</time>
      </trkpt>
      <trkpt lat="44.56006" lon="0.819">
        <ele>137</ele>
        <time>2012-01-30T15:11:02Z</time>
      </trkpt>
      <trkpt lat="44.56005" lon="0.819">
        <ele>137</ele>
        <time>2012-01-30T15:11:03Z</time>
      </trkpt>
      <trkpt lat="44.56004" lon="0.819">
        <ele>137</ele>
        <time>2012-01-30T15:11:04Z</time>
      </trkpt>
      <trkpt lat="44.56002" lon="0.81899">
        <ele>138</ele>
        <time>2012-01-30T15:11:05Z</time>
      </trkpt>
      <trkpt lat="44.56001" lon="0.81899">
        <ele>138</ele>
        <time>2012-01-30T15:11:06Z</time>
      </trkpt>
      <trkpt lat="44.56" lon="0.81899">
        <ele>138</ele>
        <time>2012-01-30T15:11:07Z</time>
      </trkpt>
      <trkpt lat="44.55998" lon="0.81899">
        <ele>138</ele>
        <time>2012-01-30T15:11:08Z</time>
      </trkpt>
      <trkpt lat="44.55996" lon="0.81899">
        <ele>139</ele>
        <time>2012-01-30T15:11:09Z</time>
      </trkpt>
      <trkpt lat="44.55995" lon="0.81899">
        <ele>139</ele>
        <time>2012-01-30T15:11:10Z</time>
      </trkpt>
      <trkpt lat="44.55994" lon="0.81899">
        <ele>139</ele>
        <time>2012-01-30T15:11:11Z</time>
      </trkpt>
      <trkpt lat="44.55992" lon="0.819">
        <ele>139</ele>
        <time>2012-01-30T15:11:13Z</time>
      </trkpt>
      <trkpt lat="44.55991" lon="0.819">
        <ele>140</ele>
        <time>2012-01-30T15:11:14Z</time>
      </trkpt>
      <trkpt lat="44.55989" lon="0.81901">
        <ele>140</ele>
        <time>2012-01-30T15:11:15Z</time>
      </trkpt>
      <trkpt lat="44.55988" lon="0.81902">
        <ele>140</ele>
        <time>2012-01-30T15:11:16Z</time>
      </trkpt>
      <trkpt lat="44.55987" lon="0.81902">
        <ele>140</ele>
        <time>2012-01-30T15:11:17Z</time>
      </trkpt>
      <trkpt lat="44.55985" lon="0.81903">
        <ele>141</ele>
        <time>2012-01-30T15:11:19Z</time>
      </trkpt>
      <trkpt lat="44.55983" lon="0.81904">
        <ele>141</ele>
        <time>2012-01-30T15:11:21Z</time>
      </trkpt>
      <trkpt lat="44.55981" lon="0.81905">
        <ele>141</ele>
        <time>2012-01-30T15:11:23Z</time>
      </trkpt>
      <trkpt lat="44.55979" lon="0.81906">
        <ele>142</ele>
        <time>2012-01-30T15:11:25Z</time>
      </trkpt>
      <trkpt lat="44.55978" lon="0.81906">
        <ele>142</ele>
        <time>2012-01-30T15:11:26Z</time>
      </trkpt>
      <trkpt lat="44.55976" lon="0.81907">
        <ele>142</ele>
        <time>2012-01-30T15:11:27Z</time>
      </trkpt>
      <trkpt lat="44.55975" lon="0.81908">
        <ele>142</ele>
        <time>2012-01-30T15:11:28Z</time>
      </trkpt>
      <trkpt lat="44.55974" lon="0.81909">
        <ele>143</ele>
        <time>2012-01-30T15:11:29Z</time>
      </trkpt>
      <trkpt lat="44.55972" lon="0.8191">
        <ele>144</ele>
        <time>2012-01-30T15:11:31Z</time>
      </trkpt>
      <trkpt lat="44.5597" lon="0.81912">
        <ele>145</ele>
        <time>2012-01-30T15:11:33Z</time>
      </trkpt>
      <trkpt lat="44.55969" lon="0.81913">
        <ele>146</ele>
        <time>2012-01-30T15:11:34Z</time>
      </trkpt>
      <trkpt lat="44.55968" lon="0.81914">
        <ele>146</ele>
        <time>2012-01-30T15:11:35Z</time>
      </trkpt>
      <trkpt lat="44.55966" lon="0.81915">
        <ele>148</ele>
        <time>2012-01-30T15:11:37Z</time>
      </trkpt>
      <trkpt lat="44.55965" lon="0.81915">
        <ele>148</ele>
        <time>2012-01-30T15:11:38Z</time>
      </trkpt>
      <trkpt lat="44.55963" lon="0.81915">
        <ele>148</ele>
        <time>2012-01-30T15:11:39Z</time>
      </trkpt>
      <trkpt lat="44.55961" lon="0.81916">
        <ele>149</ele>
        <time>2012-01-30T15:11:40Z</time>
      </trkpt>
      <trkpt lat="44.55959" lon="0.81917">
        <ele>150</ele>
        <time>2012-01-30T15:11:42Z</time>
      </trkpt>
      <trkpt lat="44.55957" lon="0.81917">
        <ele>151</ele>
        <time>2012-01-30T15:11:44Z</time>
      </trkpt>
      <trkpt lat="44.55956" lon="0.81917">
        <ele>151</ele>
        <time>2012-01-30T15:11:45Z</time>
      </trkpt>
      <trkpt lat="44.55954" lon="0.81917">
        <ele>152</ele>
        <time>2012-01-30T15:11:47Z</time>
      </trkpt>
      <trkpt lat="44.55952" lon="0.81918">
        <ele>153</ele>
        <time>2012-01-30T15:11:49Z</time>
      </trkpt>
      <trkpt lat="44.55951" lon="0.81919">
        <ele>153</ele>
        <time>2012-01-30T15:11:50Z</time>
      </trkpt>
      <trkpt lat="44.55949" lon="0.81919">
        <ele>154</ele>
        <time>2012-01-30T15:11:51Z</time>
      </trkpt>
      <trkpt lat="44.55947" lon="0.81919">
        <ele>154</ele>
        <time>2012-01-30T15:11:53Z</time>
      </trkpt>
      <trkpt lat="44.55946" lon="0.81919">
        <ele>155</ele>
        <time>2012-01-30T15:11:54Z</time>
      </trkpt>
      <trkpt lat="44.55945" lon="0.8192">
        <ele>155</ele>
        <time>2012-01-30T15:11:55Z</time>
      </trkpt>
      <trkpt lat="44.55944" lon="0.8192">
        <ele>156</ele>
        <time>2012-01-30T15:11:56Z</time>
      </trkpt>
      <trkpt lat="44.55943" lon="0.8192">
        <ele>156</ele>
        <time>2012-01-30T15:11:57Z</time>
      </trkpt>
      <trkpt lat="44.55941" lon="0.8192">
        <ele>157</ele>
        <time>2012-01-30T15:11:58Z</time>
      </trkpt>
      <trkpt lat="44.5594" lon="0.81921">
        <ele>157</ele>
        <time>2012-01-30T15:11:59Z</time>
      </trkpt>
      <trkpt lat="44.55938" lon="0.81921">
        <ele>158</ele>
        <time>2012-01-30T15:12:01Z</time>
      </trkpt>
      <trkpt lat="44.55936" lon="0.81922">
        <ele>159</ele>
        <time>2012-01-30T15:12:02Z</time>
      </trkpt>
      <trkpt lat="44.55935" lon="0.81922">
        <ele>160</ele>
        <time>2012-01-30T15:12:03Z</time>
      </trkpt>
      <trkpt lat="44.55934" lon="0.81922">
        <ele>160</ele>
        <time>2012-01-30T15:12:04Z</time>
      </trkpt>
      <trkpt lat="44.55931" lon="0.81922">
        <ele>161</ele>
        <time>2012-01-30T15:12:06Z</time>
      </trkpt>
      <trkpt lat="44.5593" lon="0.81922">
        <ele>161</ele>
        <time>2012-01-30T15:12:07Z</time>
      </trkpt>
      <trkpt lat="44.55929" lon="0.81922">
        <ele>161</ele>
        <time>2012-01-30T15:12:08Z</time>
      </trkpt>
      <trkpt lat="44.55927" lon="0.81923">
        <ele>161</ele>
        <time>2012-01-30T15:12:09Z</time>
      </trkpt>
      <trkpt lat="44.55926" lon="0.81923">
        <ele>162</ele>
        <time>2012-01-30T15:12:10Z</time>
      </trkpt>
      <trkpt lat="44.55924" lon="0.81923">
        <ele>162</ele>
        <time>2012-01-30T15:12:11Z</time>
      </trkpt>
      <trkpt lat="44.55922" lon="0.81923">
        <ele>162</ele>
        <time>2012-01-30T15:12:12Z</time>
      </trkpt>
      <trkpt lat="44.55921" lon="0.81924">
        <ele>162</ele>
        <time>2012-01-30T15:12:13Z</time>
      </trkpt>
      <trkpt lat="44.55919" lon="0.81924">
        <ele>162</ele>
        <time>2012-01-30T15:12:14Z</time>
      </trkpt>
      <trkpt lat="44.55918" lon="0.81924">
        <ele>162</ele>
        <time>2012-01-30T15:12:15Z</time>
      </trkpt>
      <trkpt lat="44.55917" lon="0.81924">
        <ele>162</ele>
        <time>2012-01-30T15:12:16Z</time>
      </trkpt>
      <trkpt lat="44.55915" lon="0.81925">
        <ele>162</ele>
        <time>2012-01-30T15:12:17Z</time>
      </trkpt>
      <trkpt lat="44.55914" lon="0.81925">
        <ele>162</ele>
        <time>2012-01-30T15:12:18Z</time>
      </trkpt>
      <trkpt lat="44.55912" lon="0.81925">
        <ele>162</ele>
        <time>2012-01-30T15:12:19Z</time>
      </trkpt>
      <trkpt lat="44.55911" lon="0.81925">
        <ele>162</ele>
        <time>2012-01-30T15:12:20Z</time>
      </trkpt>
      <trkpt lat="44.55909" lon="0.81924">
        <ele>162</ele>
        <time>2012-01-30T15:12:22Z</time>
      </trkpt>
      <trkpt lat="44.55908" lon="0.81924">
        <ele>162</ele>
        <time>2012-01-30T15:12:23Z</time>
      </trkpt>
      <trkpt lat="44.55906" lon="0.81923">
        <ele>162</ele>
        <time>2012-01-30T15:12:25Z</time>
      </trkpt>
      <trkpt lat="44.55904" lon="0.81922">
        <ele>162</ele>
        <time>2012-01-30T15:12:27Z</time>
      </trkpt>
      <trkpt lat="44.55902" lon="0.81922">
        <ele>162</ele>
        <time>2012-01-30T15:12:29Z</time>
      </trkpt>
      <trkpt lat="44.55901" lon="0.81922">
        <ele>162</ele>
        <time>2012-01-30T15:12:31Z</time>
      </trkpt>
      <trkpt lat="44.55899" lon="0.81922">
        <ele>162</ele>
        <time>2012-01-30T15:12:32Z</time>
      </trkpt>
      <trkpt lat="44.55898" lon="0.81921">
        <ele>162</ele>
        <time>2012-01-30T15:12:33Z</time>
      </trkpt>
      <trkpt lat="44.55896" lon="0.81921">
        <ele>162</ele>
        <time>2012-01-30T15:12:34Z</time>
      </trkpt>
      <trkpt lat="44.55895" lon="0.81921">
        <ele>162</ele>
        <time>2012-01-30T15:12:35Z</time>
      </trkpt>
      <trkpt lat="44.55893" lon="0.81919">
        <ele>162</ele>
        <time>2012-01-30T15:12:37Z</time>
      </trkpt>
      <trkpt lat="44.55892" lon="0.8192">
        <ele>163</ele>
        <time>2012-01-30T15:12:39Z</time>
      </trkpt>
      <trkpt lat="44.55891" lon="0.81921">
        <ele>164</ele>
        <time>2012-01-30T15:12:41Z</time>
      </trkpt>
      <trkpt lat="44.5589" lon="0.81922">
        <ele>165</ele>
        <time>2012-01-30T15:12:45Z</time>
      </trkpt>
      <trkpt lat="44.55889" lon="0.8192">
        <ele>167</ele>
        <time>2012-01-30T15:12:54Z</time>
      </trkpt>
      <trkpt lat="44.55888" lon="0.81919">
        <ele>167</ele>
        <time>2012-01-30T15:12:57Z</time>
      </trkpt>
      <trkpt lat="44.55887" lon="0.81919">
        <ele>167</ele>
        <time>2012-01-30T15:12:59Z</time>
      </trkpt>
      <trkpt lat="44.55888" lon="0.81918">
        <ele>167</ele>
        <time>2012-01-30T15:13:05Z</time>
      </trkpt>
      <trkpt lat="44.55889" lon="0.81917">
        <ele>167</ele>
        <time>2012-01-30T15:13:08Z</time>
      </trkpt>
      <trkpt lat="44.5589" lon="0.81915">
        <ele>167</ele>
        <time>2012-01-30T15:13:11Z</time>
      </trkpt>
      <trkpt lat="44.5589" lon="0.81913">
        <ele>167</ele>
        <time>2012-01-30T15:13:13Z</time>
      </trkpt>
      <trkpt lat="44.5589" lon="0.81911">
        <ele>167</ele>
        <time>2012-01-30T15:13:15Z</time>
      </trkpt>
      <trkpt lat="44.55891" lon="0.8191">
        <ele>167</ele>
        <time>2012-01-30T15:13:17Z</time>
      </trkpt>
      <trkpt lat="44.55891" lon="0.81908">
        <ele>167</ele>
        <time>2012-01-30T15:13:19Z</time>
      </trkpt>
      <trkpt lat="44.55891" lon="0.81906">
        <ele>167</ele>
        <time>2012-01-30T15:13:21Z</time>
      </trkpt>
      <trkpt lat="44.55891" lon="0.81905">
        <ele>167</ele>
        <time>2012-01-30T15:13:23Z</time>
      </trkpt>
      <trkpt lat="44.55891" lon="0.81903">
        <ele>167</ele>
        <time>2012-01-30T15:13:24Z</time>
      </trkpt>
      <trkpt lat="44.55891" lon="0.81902">
        <ele>167</ele>
        <time>2012-01-30T15:13:25Z</time>
      </trkpt>
      <trkpt lat="44.55891" lon="0.81899">
        <ele>167</ele>
        <time>2012-01-30T15:13:27Z</time>
      </trkpt>
      <trkpt lat="44.55891" lon="0.81897">
        <ele>168</ele>
        <time>2012-01-30T15:13:29Z</time>
      </trkpt>
      <trkpt lat="44.55891" lon="0.81895">
        <ele>169</ele>
        <time>2012-01-30T15:13:31Z</time>
      </trkpt>
      <trkpt lat="44.55891" lon="0.81894">
        <ele>169</ele>
        <time>2012-01-30T15:13:32Z</time>
      </trkpt>
      <trkpt lat="44.55892" lon="0.81892">
        <ele>170</ele>
        <time>2012-01-30T15:13:34Z</time>
      </trkpt>
      <trkpt lat="44.55892" lon="0.8189">
        <ele>170</ele>
        <time>2012-01-30T15:13:36Z</time>
      </trkpt>
      <trkpt lat="44.55892" lon="0.81888">
        <ele>171</ele>
        <time>2012-01-30T15:13:38Z</time>
      </trkpt>
      <trkpt lat="44.55893" lon="0.81886">
        <ele>172</ele>
        <time>2012-01-30T15:13:40Z</time>
      </trkpt>
      <trkpt lat="44.55894" lon="0.81884">
        <ele>172</ele>
        <time>2012-01-30T15:13:42Z</time>
      </trkpt>
      <trkpt lat="44.55895" lon="0.81882">
        <ele>173</ele>
        <time>2012-01-30T15:13:44Z</time>
      </trkpt>
      <trkpt lat="44.55896" lon="0.81879">
        <ele>173</ele>
        <time>2012-01-30T15:13:46Z</time>
      </trkpt>
      <trkpt lat="44.55896" lon="0.81877">
        <ele>173</ele>
        <time>2012-01-30T15:13:48Z</time>
      </trkpt>
      <trkpt lat="44.55896" lon="0.81875">
        <ele>173</ele>
        <time>2012-01-30T15:13:50Z</time>
      </trkpt>
      <trkpt lat="44.55897" lon="0.81873">
        <ele>173</ele>
        <time>2012-01-30T15:13:57Z</time>
      </trkpt>
      <trkpt lat="44.55897" lon="0.81872">
        <ele>173</ele>
        <time>2012-01-30T15:14:08Z</time>
      </trkpt>
      <trkpt lat="44.55898" lon="0.8187">
        <ele>173</ele>
        <time>2012-01-30T15:14:19Z</time>
      </trkpt>
      <trkpt lat="44.55898" lon="0.81868">
        <ele>173</ele>
        <time>2012-01-30T15:14:21Z</time>
      </trkpt>
      <trkpt lat="44.55898" lon="0.81867">
        <ele>173</ele>
        <time>2012-01-30T15:14:27Z</time>
      </trkpt>
      <trkpt lat="44.55897" lon="0.81865">
        <ele>173</ele>
        <time>2012-01-30T15:14:28Z</time>
      </trkpt>
      <trkpt lat="44.55897" lon="0.81863">
        <ele>173</ele>
        <time>2012-01-30T15:14:29Z</time>
      </trkpt>
      <trkpt lat="44.55897" lon="0.81861">
        <ele>173</ele>
        <time>2012-01-30T15:14:30Z</time>
      </trkpt>
      <trkpt lat="44.55897" lon="0.81858">
        <ele>173</ele>
        <time>2012-01-30T15:14:31Z</time>
      </trkpt>
      <trkpt lat="44.55897" lon="0.81855">
        <ele>173</ele>
        <time>2012-01-30T15:14:32Z</time>
      </trkpt>
      <trkpt lat="44.55898" lon="0.81851">
        <ele>173</ele>
        <time>2012-01-30T15:14:33Z</time>
      </trkpt>
      <trkpt lat="44.55898" lon="0.81848">
        <ele>173</ele>
        <time>2012-01-30T15:14:34Z</time>
      </trkpt>
      <trkpt lat="44.55898" lon="0.81846">
        <ele>173</ele>
        <time>2012-01-30T15:14:35Z</time>
      </trkpt>
      <trkpt lat="44.55898" lon="0.81843">
        <ele>173</ele>
        <time>2012-01-30T15:14:36Z</time>
      </trkpt>
      <trkpt lat="44.55898" lon="0.81841">
        <ele>173</ele>
        <time>2012-01-30T15:14:37Z</time>
      </trkpt>
      <trkpt lat="44.55897" lon="0.8184">
        <ele>173</ele>
        <time>2012-01-30T15:14:46Z</time>
      </trkpt>
      <trkpt lat="44.55897" lon="0.81838">
        <ele>172</ele>
        <time>2012-01-30T15:14:51Z</time>
      </trkpt>
      <trkpt lat="44.55897" lon="0.81836">
        <ele>171</ele>
        <time>2012-01-30T15:15:04Z</time>
      </trkpt>
      <trkpt lat="44.55898" lon="0.81832">
        <ele>171</ele>
        <time>2012-01-30T15:15:06Z</time>
      </trkpt>
      <trkpt lat="44.55898" lon="0.8183">
        <ele>171</ele>
        <time>2012-01-30T15:15:07Z</time>
      </trkpt>
      <trkpt lat="44.55899" lon="0.81825">
        <ele>171</ele>
        <time>2012-01-30T15:15:08Z</time>
      </trkpt>
      <trkpt lat="44.559" lon="0.8182">
        <ele>171</ele>
        <time>2012-01-30T15:15:09Z</time>
      </trkpt>
      <trkpt lat="44.55902" lon="0.81815">
        <ele>171</ele>
        <time>2012-01-30T15:15:10Z</time>
      </trkpt>
      <trkpt lat="44.55904" lon="0.81809">
        <ele>171</ele>
        <time>2012-01-30T15:15:11Z</time>
      </trkpt>
      <trkpt lat="44.55905" lon="0.81802">
        <ele>171</ele>
        <time>2012-01-30T15:15:12Z</time>
      </trkpt>
      <trkpt lat="44.55908" lon="0.81795">
        <ele>170</ele>
        <time>2012-01-30T15:15:13Z</time>
      </trkpt>
      <trkpt lat="44.5591" lon="0.8179">
        <ele>170</ele>
        <time>2012-01-30T15:15:14Z</time>
      </trkpt>
      <trkpt lat="44.55912" lon="0.81786">
        <ele>169</ele>
        <time>2012-01-30T15:15:15Z</time>
      </trkpt>
      <trkpt lat="44.55914" lon="0.81783">
        <ele>169</ele>
        <time>2012-01-30T15:15:16Z</time>
      </trkpt>
      <trkpt lat="44.55915" lon="0.81779">
        <ele>168</ele>
        <time>2012-01-30T15:15:17Z</time>
      </trkpt>
      <trkpt lat="44.55915" lon="0.81775">
        <ele>168</ele>
        <time>2012-01-30T15:15:18Z</time>
      </trkpt>
      <trkpt lat="44.55914" lon="0.81771">
        <ele>167</ele>
        <time>2012-01-30T15:15:19Z</time>
      </trkpt>
      <trkpt lat="44.55912" lon="0.81767">
        <ele>167</ele>
        <time>2012-01-30T15:15:20Z</time>
      </trkpt>
      <trkpt lat="44.55909" lon="0.81763">
        <ele>166</ele>
        <time>2012-01-30T15:15:21Z</time>
      </trkpt>
      <trkpt lat="44.55905" lon="0.81757">
        <ele>166</ele>
        <time>2012-01-30T15:15:22Z</time>
      </trkpt>
      <trkpt lat="44.55901" lon="0.81751">
        <ele>165</ele>
        <time>2012-01-30T15:15:23Z</time>
      </trkpt>
      <trkpt lat="44.55896" lon="0.81746">
        <ele>164</ele>
        <time>2012-01-30T15:15:24Z</time>
      </trkpt>
      <trkpt lat="44.55892" lon="0.81741">
        <ele>164</ele>
        <time>2012-01-30T15:15:25Z</time>
      </trkpt>
      <trkpt lat="44.55886" lon="0.81739">
        <ele>163</ele>
        <time>2012-01-30T15:15:26Z</time>
      </trkpt>
      <trkpt lat="44.55881" lon="0.81737">
        <ele>162</ele>
        <time>2012-01-30T15:15:27Z</time>
      </trkpt>
      <trkpt lat="44.55877" lon="0.81735">
        <ele>161</ele>
        <time>2012-01-30T15:15:28Z</time>
      </trkpt>
      <trkpt lat="44.55872" lon="0.81733">
        <ele>160</ele>
        <time>2012-01-30T15:15:29Z</time>
      </trkpt>
      <trkpt lat="44.55869" lon="0.81731">
        <ele>159</ele>
        <time>2012-01-30T15:15:30Z</time>
      </trkpt>
      <trkpt lat="44.55865" lon="0.81729">
        <ele>158</ele>
        <time>2012-01-30T15:15:31Z</time>
      </trkpt>
      <trkpt lat="44.55862" lon="0.81727">
        <ele>157</ele>
        <time>2012-01-30T15:15:32Z</time>
      </trkpt>
      <trkpt lat="44.55859" lon="0.81727">
        <ele>156</ele>
        <time>2012-01-30T15:15:33Z</time>
      </trkpt>
      <trkpt lat="44.55855" lon="0.81726">
        <ele>155</ele>
        <time>2012-01-30T15:15:34Z</time>
      </trkpt>
      <trkpt lat="44.55851" lon="0.81724">
        <ele>154</ele>
        <time>2012-01-30T15:15:35Z</time>
      </trkpt>
      <trkpt lat="44.55846" lon="0.81721">
        <ele>153</ele>
        <time>2012-01-30T15:15:36Z</time>
      </trkpt>
      <trkpt lat="44.55843" lon="0.81717">
        <ele>152</ele>
        <time>2012-01-30T15:15:37Z</time>
      </trkpt>
      <trkpt lat="44.5584" lon="0.81714">
        <ele>151</ele>
        <time>2012-01-30T15:15:38Z</time>
      </trkpt>
      <trkpt lat="44.55837" lon="0.81711">
        <ele>150</ele>
        <time>2012-01-30T15:15:39Z</time>
      </trkpt>
      <trkpt lat="44.55836" lon="0.81706">
        <ele>149</ele>
        <time>2012-01-30T15:15:40Z</time>
      </trkpt>
      <trkpt lat="44.55837" lon="0.817">
        <ele>148</ele>
        <time>2012-01-30T15:15:41Z</time>
      </trkpt>
      <trkpt lat="44.55838" lon="0.81693">
        <ele>147</ele>
        <time>2012-01-30T15:15:42Z</time>
      </trkpt>
      <trkpt lat="44.55839" lon="0.81686">
        <ele>146</ele>
        <time>2012-01-30T15:15:43Z</time>
      </trkpt>
      <trkpt lat="44.55841" lon="0.81679">
        <ele>145</ele>
        <time>2012-01-30T15:15:44Z</time>
      </trkpt>
      <trkpt lat="44.55844" lon="0.81674">
        <ele>144</ele>
        <time>2012-01-30T15:15:45Z</time>
      </trkpt>
      <trkpt lat="44.55847" lon="0.81669">
        <ele>143</ele>
        <time>2012-01-30T15:15:46Z</time>
      </trkpt>
      <trkpt lat="44.5585" lon="0.81664">
        <ele>142</ele>
        <time>2012-01-30T15:15:47Z</time>
      </trkpt>
      <trkpt lat="44.55854" lon="0.8166">
        <ele>142</ele>
        <time>2012-01-30T15:15:48Z</time>
      </trkpt>
      <trkpt lat="44.55857" lon="0.81655">
        <ele>142</ele>
        <time>2012-01-30T15:15:49Z</time>
      </trkpt>
      <trkpt lat="44.55861" lon="0.8165">
        <ele>142</ele>
        <time>2012-01-30T15:15:50Z</time>
      </trkpt>
      <trkpt lat="44.55865" lon="0.81644">
        <ele>142</ele>
        <time>2012-01-30T15:15:51Z</time>
      </trkpt>
      <trkpt lat="44.55868" lon="0.81639">
        <ele>142</ele>
        <time>2012-01-30T15:15:52Z</time>
      </trkpt>
      <trkpt lat="44.55872" lon="0.81632">
        <ele>142</ele>
        <time>2012-01-30T15:15:53Z</time>
      </trkpt>
      <trkpt lat="44.55876" lon="0.81625">
        <ele>142</ele>
        <time>2012-01-30T15:15:54Z</time>
      </trkpt>
      <trkpt lat="44.5588" lon="0.81619">
        <ele>142</ele>
        <time>2012-01-30T15:15:55Z</time>
      </trkpt>
      <trkpt lat="44.55884" lon="0.81612">
        <ele>142</ele>
        <time>2012-01-30T15:15:56Z</time>
      </trkpt>
      <trkpt lat="44.55888" lon="0.81605">
        <ele>142</ele>
        <time>2012-01-30T15:15:57Z</time>
      </trkpt>
      <trkpt lat="44.55892" lon="0.81599">
        <ele>142</ele>
        <time>2012-01-30T15:15:58Z</time>
      </trkpt>
      <trkpt lat="44.55895" lon="0.81592">
        <ele>142</ele>
        <time>2012-01-30T15:15:59Z</time>
      </trkpt>
      <trkpt lat="44.55897" lon="0.81586">
        <ele>142</ele>
        <time>2012-01-30T15:16:00Z</time>
      </trkpt>
      <trkpt lat="44.55899" lon="0.81581">
        <ele>142</ele>
        <time>2012-01-30T15:16:01Z</time>
      </trkpt>
      <trkpt lat="44.55902" lon="0.81578">
        <ele>142</ele>
        <time>2012-01-30T15:16:02Z</time>
      </trkpt>
      <trkpt lat="44.55905" lon="0.81575">
        <ele>141</ele>
        <time>2012-01-30T15:16:03Z</time>
      </trkpt>
      <trkpt lat="44.55909" lon="0.81574">
        <ele>140</ele>
        <time>2012-01-30T15:16:04Z</time>
      </trkpt>
      <trkpt lat="44.55913" lon="0.81574">
        <ele>140</ele>
        <time>2012-01-30T15:16:05Z</time>
      </trkpt>
      <trkpt lat="44.55915" lon="0.81576">
        <ele>139</ele>
        <time>2012-01-30T15:16:06Z</time>
      </trkpt>
      <trkpt lat="44.55918" lon="0.81578">
        <ele>138</ele>
        <time>2012-01-30T15:16:07Z</time>
      </trkpt>
      <trkpt lat="44.5592" lon="0.8158">
        <ele>137</ele>
        <time>2012-01-30T15:16:08Z</time>
      </trkpt>
      <trkpt lat="44.55923" lon="0.81582">
        <ele>136</ele>
        <time>2012-01-30T15:16:09Z</time>
      </trkpt>
      <trkpt lat="44.55925" lon="0.81585">
        <ele>136</ele>
        <time>2012-01-30T15:16:10Z</time>
      </trkpt>
      <trkpt lat="44.55928" lon="0.81587">
        <ele>136</ele>
        <time>2012-01-30T15:16:11Z</time>
      </trkpt>
      <trkpt lat="44.5593" lon="0.81588">
        <ele>136</ele>
        <time>2012-01-30T15:16:12Z</time>
      </trkpt>
      <trkpt lat="44.55932" lon="0.8159">
        <ele>136</ele>
        <time>2012-01-30T15:16:13Z</time>
      </trkpt>
      <trkpt lat="44.55935" lon="0.81592">
        <ele>136</ele>
        <time>2012-01-30T15:16:14Z</time>
      </trkpt>
      <trkpt lat="44.55937" lon="0.81594">
        <ele>136</ele>
        <time>2012-01-30T15:16:15Z</time>
      </trkpt>
      <trkpt lat="44.55939" lon="0.81595">
        <ele>136</ele>
        <time>2012-01-30T15:16:16Z</time>
      </trkpt>
      <trkpt lat="44.55942" lon="0.81596">
        <ele>136</ele>
        <time>2012-01-30T15:16:17Z</time>
      </trkpt>
      <trkpt lat="44.55944" lon="0.81598">
        <ele>136</ele>
        <time>2012-01-30T15:16:18Z</time>
      </trkpt>
      <trkpt lat="44.55947" lon="0.816">
        <ele>136</ele>
        <time>2012-01-30T15:16:19Z</time>
      </trkpt>
      <trkpt lat="44.55949" lon="0.81603">
        <ele>136</ele>
        <time>2012-01-30T15:16:20Z</time>
      </trkpt>
      <trkpt lat="44.55951" lon="0.81605">
        <ele>136</ele>
        <time>2012-01-30T15:16:21Z</time>
      </trkpt>
      <trkpt lat="44.55953" lon="0.81607">
        <ele>136</ele>
        <time>2012-01-30T15:16:22Z</time>
      </trkpt>
      <trkpt lat="44.55955" lon="0.81609">
        <ele>136</ele>
        <time>2012-01-30T15:16:23Z</time>
      </trkpt>
      <trkpt lat="44.55957" lon="0.81611">
        <ele>136</ele>
        <time>2012-01-30T15:16:24Z</time>
      </trkpt>
      <trkpt lat="44.55959" lon="0.81613">
        <ele>136</ele>
        <time>2012-01-30T15:16:25Z</time>
      </trkpt>
      <trkpt lat="44.5596" lon="0.81616">
        <ele>136</ele>
        <time>2012-01-30T15:16:26Z</time>
      </trkpt>
      <trkpt lat="44.55962" lon="0.81618">
        <ele>136</ele>
        <time>2012-01-30T15:16:27Z</time>
      </trkpt>
      <trkpt lat="44.55965" lon="0.8162">
        <ele>136</ele>
        <time>2012-01-30T15:16:28Z</time>
      </trkpt>
      <trkpt lat="44.55967" lon="0.81622">
        <ele>136</ele>
        <time>2012-01-30T15:16:29Z</time>
      </trkpt>
      <trkpt lat="44.55969" lon="0.81624">
        <ele>136</ele>
        <time>2012-01-30T15:16:30Z</time>
      </trkpt>
      <trkpt lat="44.55971" lon="0.81626">
        <ele>136</ele>
        <time>2012-01-30T15:16:31Z</time>
      </trkpt>
      <trkpt lat="44.55973" lon="0.81628">
        <ele>136</ele>
        <time>2012-01-30T15:16:32Z</time>
      </trkpt>
      <trkpt lat="44.55975" lon="0.81631">
        <ele>136</ele>
        <time>2012-01-30T15:16:33Z</time>
      </trkpt>
      <trkpt lat="44.55977" lon="0.81633">
        <ele>136</ele>
        <time>2012-01-30T15:16:34Z</time>
      </trkpt>
      <trkpt lat="44.55979" lon="0.81635">
        <ele>136</ele>
        <time>2012-01-30T15:16:35Z</time>
      </trkpt>
      <trkpt lat="44.55981" lon="0.81638">
        <ele>136</ele>
        <time>2012-01-30T15:16:36Z</time>
      </trkpt>
      <trkpt lat="44.55983" lon="0.8164">
        <ele>136</ele>
        <time>2012-01-30T15:16:37Z</time>
      </trkpt>
      <trkpt lat="44.55985" lon="0.81642">
        <ele>136</ele>
        <time>2012-01-30T15:16:38Z</time>
      </trkpt>
      <trkpt lat="44.55987" lon="0.81644">
        <ele>136</ele>
        <time>2012-01-30T15:16:39Z</time>
      </trkpt>
      <trkpt lat="44.55989" lon="0.81646">
        <ele>136</ele>
        <time>2012-01-30T15:16:40Z</time>
      </trkpt>
      <trkpt lat="44.55991" lon="0.81648">
        <ele>136</ele>
        <time>2012-01-30T15:16:41Z</time>
      </trkpt>
      <trkpt lat="44.55994" lon="0.81651">
        <ele>136</ele>
        <time>2012-01-30T15:16:42Z</time>
      </trkpt>
      <trkpt lat="44.55996" lon="0.81653">
        <ele>136</ele>
        <time>2012-01-30T15:16:43Z</time>
      </trkpt>
      <trkpt lat="44.55997" lon="0.81655">
        <ele>136</ele>
        <time>2012-01-30T15:16:44Z</time>
      </trkpt>
      <trkpt lat="44.55999" lon="0.81658">
        <ele>136</ele>
        <time>2012-01-30T15:16:45Z</time>
      </trkpt>
      <trkpt lat="44.56001" lon="0.8166">
        <ele>136</ele>
        <time>2012-01-30T15:16:46Z</time>
      </trkpt>
      <trkpt lat="44.56003" lon="0.81663">
        <ele>136</ele>
        <time>2012-01-30T15:16:47Z</time>
      </trkpt>
      <trkpt lat="44.56004" lon="0.81666">
        <ele>136</ele>
        <time>2012-01-30T15:16:48Z</time>
      </trkpt>
      <trkpt lat="44.56006" lon="0.81668">
        <ele>136</ele>
        <time>2012-01-30T15:16:49Z</time>
      </trkpt>
      <trkpt lat="44.56008" lon="0.81671">
        <ele>136</ele>
        <time>2012-01-30T15:16:50Z</time>
      </trkpt>
      <trkpt lat="44.5601" lon="0.81674">
        <ele>136</ele>
        <time>2012-01-30T15:16:51Z</time>
      </trkpt>
      <trkpt lat="44.56012" lon="0.81678">
        <ele>136</ele>
        <time>2012-01-30T15:16:52Z</time>
      </trkpt>
      <trkpt lat="44.56013" lon="0.81681">
        <ele>136</ele>
        <time>2012-01-30T15:16:53Z</time>
      </trkpt>
      <trkpt lat="44.56015" lon="0.81685">
        <ele>136</ele>
        <time>2012-01-30T15:16:54Z</time>
      </trkpt>
      <trkpt lat="44.56017" lon="0.81688">
        <ele>136</ele>
        <time>2012-01-30T15:16:55Z</time>
      </trkpt>
      <trkpt lat="44.56019" lon="0.81692">
        <ele>136</ele>
        <time>2012-01-30T15:16:56Z</time>
      </trkpt>
      <trkpt lat="44.56021" lon="0.81695">
        <ele>136</ele>
        <time>2012-01-30T15:16:57Z</time>
      </trkpt>
      <trkpt lat="44.56022" lon="0.81699">
        <ele>136</ele>
        <time>2012-01-30T15:16:58Z</time>
      </trkpt>
      <trkpt lat="44.56024" lon="0.81703">
        <ele>136</ele>
        <time>2012-01-30T15:16:59Z</time>
      </trkpt>
      <trkpt lat="44.56025" lon="0.81707">
        <ele>136</ele>
        <time>2012-01-30T15:17:00Z</time>
      </trkpt>
      <trkpt lat="44.56027" lon="0.81711">
        <ele>136</ele>
        <time>2012-01-30T15:17:01Z</time>
      </trkpt>
      <trkpt lat="44.56029" lon="0.81714">
        <ele>136</ele>
        <time>2012-01-30T15:17:02Z</time>
      </trkpt>
      <trkpt lat="44.56031" lon="0.81718">
        <ele>136</ele>
        <time>2012-01-30T15:17:03Z</time>
      </trkpt>
      <trkpt lat="44.56032" lon="0.81721">
        <ele>136</ele>
        <time>2012-01-30T15:17:04Z</time>
      </trkpt>
      <trkpt lat="44.56034" lon="0.81725">
        <ele>136</ele>
        <time>2012-01-30T15:17:05Z</time>
      </trkpt>
      <trkpt lat="44.56036" lon="0.81729">
        <ele>136</ele>
        <time>2012-01-30T15:17:06Z</time>
      </trkpt>
      <trkpt lat="44.56038" lon="0.81732">
        <ele>136</ele>
        <time>2012-01-30T15:17:07Z</time>
      </trkpt>
      <trkpt lat="44.5604" lon="0.81736">
        <ele>136</ele>
        <time>2012-01-30T15:17:08Z</time>
      </trkpt>
      <trkpt lat="44.56042" lon="0.8174">
        <ele>136</ele>
        <time>2012-01-30T15:17:09Z</time>
      </trkpt>
      <trkpt lat="44.56045" lon="0.81744">
        <ele>136</ele>
        <time>2012-01-30T15:17:10Z</time>
      </trkpt>
      <trkpt lat="44.56047" lon="0.81747">
        <ele>136</ele>
        <time>2012-01-30T15:17:11Z</time>
      </trkpt>
      <trkpt lat="44.56049" lon="0.81751">
        <ele>136</ele>
        <time>2012-01-30T15:17:12Z</time>
      </trkpt>
      <trkpt lat="44.56052" lon="0.81755">
        <ele>137</ele>
        <time>2012-01-30T15:17:13Z</time>
      </trkpt>
      <trkpt lat="44.56055" lon="0.81759">
        <ele>137</ele>
        <time>2012-01-30T15:17:14Z</time>
      </trkpt>
      <trkpt lat="44.56057" lon="0.81763">
        <ele>137</ele>
        <time>2012-01-30T15:17:15Z</time>
      </trkpt>
      <trkpt lat="44.5606" lon="0.81767">
        <ele>137</ele>
        <time>2012-01-30T15:17:16Z</time>
      </trkpt>
      <trkpt lat="44.56063" lon="0.81771">
        <ele>137</ele>
        <time>2012-01-30T15:17:17Z</time>
      </trkpt>
      <trkpt lat="44.56066" lon="0.81776">
        <ele>137</ele>
        <time>2012-01-30T15:17:18Z</time>
      </trkpt>
      <trkpt lat="44.56069" lon="0.81781">
        <ele>137</ele>
        <time>2012-01-30T15:17:19Z</time>
      </trkpt>
      <trkpt lat="44.56072" lon="0.81786">
        <ele>137</ele>
        <time>2012-01-30T15:17:20Z</time>
      </trkpt>
      <trkpt lat="44.56075" lon="0.81792">
        <ele>137</ele>
        <time>2012-01-30T15:17:21Z</time>
      </trkpt>
      <trkpt lat="44.56078" lon="0.81798">
        <ele>137</ele>
        <time>2012-01-30T15:17:22Z</time>
      </trkpt>
      <trkpt lat="44.56081" lon="0.81805">
        <ele>137</ele>
        <time>2012-01-30T15:17:23Z</time>
      </trkpt>
      <trkpt lat="44.56083" lon="0.81811">
        <ele>137</ele>
        <time>2012-01-30T15:17:24Z</time>
      </trkpt>
      <trkpt lat="44.56086" lon="0.81818">
        <ele>137</ele>
        <time>2012-01-30T15:17:25Z</time>
      </trkpt>
      <trkpt lat="44.56088" lon="0.81826">
        <ele>137</ele>
        <time>2012-01-30T15:17:26Z</time>
      </trkpt>
      <trkpt lat="44.56091" lon="0.81833">
        <ele>137</ele>
        <time>2012-01-30T15:17:27Z</time>
      </trkpt>
      <trkpt lat="44.56093" lon="0.8184">
        <ele>137</ele>
        <time>2012-01-30T15:17:28Z</time>
      </trkpt>
      <trkpt lat="44.56096" lon="0.81847">
        <ele>137</ele>
        <time>2012-01-30T15:17:29Z</time>
      </trkpt>
      <trkpt lat="44.56098" lon="0.81854">
        <ele>137</ele>
        <time>2012-01-30T15:17:30Z</time>
      </trkpt>
      <trkpt lat="44.561" lon="0.81861">
        <ele>137</ele>
        <time>2012-01-30T15:17:31Z</time>
      </trkpt>
      <trkpt lat="44.56102" lon="0.81867">
        <ele>137</ele>
        <time>2012-01-30T15:17:32Z</time>
      </trkpt>
      <trkpt lat="44.56105" lon="0.81873">
        <ele>137</ele>
        <time>2012-01-30T15:17:33Z</time>
      </trkpt>
      <trkpt lat="44.56107" lon="0.81878">
        <ele>137</ele>
        <time>2012-01-30T15:17:34Z</time>
      </trkpt>
      <trkpt lat="44.56109" lon="0.81883">
        <ele>137</ele>
        <time>2012-01-30T15:17:35Z</time>
      </trkpt>
      <trkpt lat="44.56112" lon="0.81888">
        <ele>137</ele>
        <time>2012-01-30T15:17:36Z</time>
      </trkpt>
      <trkpt lat="44.56116" lon="0.81891">
        <ele>137</ele>
        <time>2012-01-30T15:17:37Z</time>
      </trkpt>
      <trkpt lat="44.5612" lon="0.81893">
        <ele>137</ele>
        <time>2012-01-30T15:17:38Z</time>
      </trkpt>
      <trkpt lat="44.56123" lon="0.81894">
        <ele>137</ele>
        <time>2012-01-30T15:17:39Z</time>
      </trkpt>
      <trkpt lat="44.56127" lon="0.81895">
        <ele>137</ele>
        <time>2012-01-30T15:17:40Z</time>
      </trkpt>
      <trkpt lat="44.56131" lon="0.81895">
        <ele>137</ele>
        <time>2012-01-30T15:17:41Z</time>
      </trkpt>
      <trkpt lat="44.56135" lon="0.81896">
        <ele>137</ele>
        <time>2012-01-30T15:17:42Z</time>
      </trkpt>
      <trkpt lat="44.56139" lon="0.81897">
        <ele>136</ele>
        <time>2012-01-30T15:17:43Z</time>
      </trkpt>
      <trkpt lat="44.56142" lon="0.81897">
        <ele>135</ele>
        <time>2012-01-30T15:17:44Z</time>
      </trkpt>
      <trkpt lat="44.56146" lon="0.81897">
        <ele>135</ele>
        <time>2012-01-30T15:17:45Z</time>
      </trkpt>
      <trkpt lat="44.5615" lon="0.81897">
        <ele>134</ele>
        <time>2012-01-30T15:17:46Z</time>
      </trkpt>
      <trkpt lat="44.56154" lon="0.81898">
        <ele>133</ele>
        <time>2012-01-30T15:17:47Z</time>
      </trkpt>
      <trkpt lat="44.56158" lon="0.81898">
        <ele>133</ele>
        <time>2012-01-30T15:17:48Z</time>
      </trkpt>
      <trkpt lat="44.56162" lon="0.81898">
        <ele>133</ele>
        <time>2012-01-30T15:17:49Z</time>
      </trkpt>
      <trkpt lat="44.56165" lon="0.81897">
        <ele>133</ele>
        <time>2012-01-30T15:17:50Z</time>
      </trkpt>
      <trkpt lat="44.56168" lon="0.81896">
        <ele>133</ele>
        <time>2012-01-30T15:17:51Z</time>
      </trkpt>
      <trkpt lat="44.56172" lon="0.81896">
        <ele>132</ele>
        <time>2012-01-30T15:17:52Z</time>
      </trkpt>
      <trkpt lat="44.56176" lon="0.81896">
        <ele>132</ele>
        <time>2012-01-30T15:17:53Z</time>
      </trkpt>
      <trkpt lat="44.5618" lon="0.81896">
        <ele>132</ele>
        <time>2012-01-30T15:17:54Z</time>
      </trkpt>
      <trkpt lat="44.56184" lon="0.81896">
        <ele>132</ele>
        <time>2012-01-30T15:17:55Z</time>
      </trkpt>
      <trkpt lat="44.56188" lon="0.81897">
        <ele>132</ele>
        <time>2012-01-30T15:17:56Z</time>
      </trkpt>
      <trkpt lat="44.56192" lon="0.81898">
        <ele>132</ele>
        <time>2012-01-30T15:17:57Z</time>
      </trkpt>
      <trkpt lat="44.56197" lon="0.819">
        <ele>132</ele>
        <time>2012-01-30T15:17:58Z</time>
      </trkpt>
      <trkpt lat="44.562" lon="0.81903">
        <ele>132</ele>
        <time>2012-01-30T15:17:59Z</time>
      </trkpt>
      <trkpt lat="44.56204" lon="0.81907">
        <ele>132</ele>
        <time>2012-01-30T15:18:00Z</time>
      </trkpt>
      <trkpt lat="44.56207" lon="0.81912">
        <ele>132</ele>
        <time>2012-01-30T15:18:01Z</time>
      </trkpt>
      <trkpt lat="44.56209" lon="0.81918">
        <ele>132</ele>
        <time>2012-01-30T15:18:02Z</time>
      </trkpt>
      <trkpt lat="44.5621" lon="0.81923">
        <ele>132</ele>
        <time>2012-01-30T15:18:03Z</time>
      </trkpt>
      <trkpt lat="44.56212" lon="0.81928">
        <ele>131</ele>
        <time>2012-01-30T15:18:04Z</time>
      </trkpt>
      <trkpt lat="44.56215" lon="0.81933">
        <ele>131</ele>
        <time>2012-01-30T15:18:05Z</time>
      </trkpt>
      <trkpt lat="44.56217" lon="0.81938">
        <ele>131</ele>
        <time>2012-01-30T15:18:06Z</time>
      </trkpt>
      <trkpt lat="44.56219" lon="0.81943">
        <ele>131</ele>
        <time>2012-01-30T15:18:07Z</time>
      </trkpt>
      <trkpt lat="44.56221" lon="0.81948">
        <ele>131</ele>
        <time>2012-01-30T15:18:08Z</time>
      </trkpt>
      <trkpt lat="44.56224" lon="0.81953">
        <ele>131</ele>
        <time>2012-01-30T15:18:09Z</time>
      </trkpt>
      <trkpt lat="44.56226" lon="0.81958">
        <ele>131</ele>
        <time>2012-01-30T15:18:10Z</time>
      </trkpt>
      <trkpt lat="44.56228" lon="0.81963">
        <ele>131</ele>
        <time>2012-01-30T15:18:11Z</time>
      </trkpt>
      <trkpt lat="44.5623" lon="0.81968">
        <ele>131</ele>
        <time>2012-01-30T15:18:12Z</time>
      </trkpt>
      <trkpt lat="44.56232" lon="0.81973">
        <ele>131</ele>
        <time>2012-01-30T15:18:13Z</time>
      </trkpt>
      <trkpt lat="44.56234" lon="0.81977">
        <ele>131</ele>
        <time>2012-01-30T15:18:14Z</time>
      </trkpt>
      <trkpt lat="44.56236" lon="0.81981">
        <ele>131</ele>
        <time>2012-01-30T15:18:15Z</time>
      </trkpt>
      <trkpt lat="44.56238" lon="0.81985">
        <ele>131</ele>
        <time>2012-01-30T15:18:16Z</time>
      </trkpt>
      <trkpt lat="44.5624" lon="0.81987">
        <ele>131</ele>
        <time>2012-01-30T15:18:17Z</time>
      </trkpt>
      <trkpt lat="44.56243" lon="0.81989">
        <ele>131</ele>
        <time>2012-01-30T15:18:18Z</time>
      </trkpt>
      <trkpt lat="44.56246" lon="0.81989">
        <ele>131</ele>
        <time>2012-01-30T15:18:19Z</time>
      </trkpt>
      <trkpt lat="44.56249" lon="0.81987">
        <ele>131</ele>
        <time>2012-01-30T15:18:20Z</time>
      </trkpt>
      <trkpt lat="44.56253" lon="0.81985">
        <ele>131</ele>
        <time>2012-01-30T15:18:21Z</time>
      </trkpt>
      <trkpt lat="44.56256" lon="0.81981">
        <ele>131</ele>
        <time>2012-01-30T15:18:22Z</time>
      </trkpt>
      <trkpt lat="44.56259" lon="0.81978">
        <ele>131</ele>
        <time>2012-01-30T15:18:23Z</time>
      </trkpt>
      <trkpt lat="44.56263" lon="0.81975">
        <ele>131</ele>
        <time>2012-01-30T15:18:24Z</time>
      </trkpt>
      <trkpt lat="44.56266" lon="0.81972">
        <ele>131</ele>
        <time>2012-01-30T15:18:25Z</time>
      </trkpt>
      <trkpt lat="44.5627" lon="0.81968">
        <ele>131</ele>
        <time>2012-01-30T15:18:26Z</time>
      </trkpt>
      <trkpt lat="44.56274" lon="0.81965">
        <ele>131</ele>
        <time>2012-01-30T15:18:27Z</time>
      </trkpt>
      <trkpt lat="44.56278" lon="0.81962">
        <ele>131</ele>
        <time>2012-01-30T15:18:28Z</time>
      </trkpt>
      <trkpt lat="44.56282" lon="0.81958">
        <ele>131</ele>
        <time>2012-01-30T15:18:29Z</time>
      </trkpt>
      <trkpt lat="44.56286" lon="0.81954">
        <ele>131</ele>
        <time>2012-01-30T15:18:30Z</time>
      </trkpt>
      <trkpt lat="44.5629" lon="0.8195">
        <ele>131</ele>
        <time>2012-01-30T15:18:31Z</time>
      </trkpt>
      <trkpt lat="44.56294" lon="0.81946">
        <ele>131</ele>
        <time>2012-01-30T15:18:32Z</time>
      </trkpt>
      <trkpt lat="44.56298" lon="0.81942">
        <ele>131</ele>
        <time>2012-01-30T15:18:33Z</time>
      </trkpt>
      <trkpt lat="44.56302" lon="0.81938">
        <ele>131</ele>
        <time>2012-01-30T15:18:34Z</time>
      </trkpt>
      <trkpt lat="44.56306" lon="0.81934">
        <ele>131</ele>
        <time>2012-01-30T15:18:35Z</time>
      </trkpt>
      <trkpt lat="44.5631" lon="0.8193">
        <ele>131</ele>
        <time>2012-01-30T15:18:36Z</time>
      </trkpt>
      <trkpt lat="44.56314" lon="0.81926">
        <ele>131</ele>
        <time>2012-01-30T15:18:37Z</time>
      </trkpt>
      <trkpt lat="44.56319" lon="0.81922">
        <ele>131</ele>
        <time>2012-01-30T15:18:38Z</time>
      </trkpt>
      <trkpt lat="44.56323" lon="0.81917">
        <ele>131</ele>
        <time>2012-01-30T15:18:39Z</time>
      </trkpt>
      <trkpt lat="44.56326" lon="0.81912">
        <ele>131</ele>
        <time>2012-01-30T15:18:40Z</time>
      </trkpt>
      <trkpt lat="44.5633" lon="0.81907">
        <ele>131</ele>
        <time>2012-01-30T15:18:41Z</time>
      </trkpt>
      <trkpt lat="44.56334" lon="0.81902">
        <ele>131</ele>
        <time>2012-01-30T15:18:42Z</time>
      </trkpt>
      <trkpt lat="44.56338" lon="0.81896">
        <ele>131</ele>
        <time>2012-01-30T15:18:43Z</time>
      </trkpt>
      <trkpt lat="44.56342" lon="0.81891">
        <ele>131</ele>
        <time>2012-01-30T15:18:44Z</time>
      </trkpt>
      <trkpt lat="44.56346" lon="0.81885">
        <ele>131</ele>
        <time>2012-01-30T15:18:45Z</time>
      </trkpt>
      <trkpt lat="44.5635" lon="0.8188">
        <ele>131</ele>
        <time>2012-01-30T15:18:46Z</time>
      </trkpt>
      <trkpt lat="44.56355" lon="0.81874">
        <ele>131</ele>
        <time>2012-01-30T15:18:47Z</time>
      </trkpt>
      <trkpt lat="44.56359" lon="0.81869">
        <ele>131</ele>
        <time>2012-01-30T15:18:48Z</time>
      </trkpt>
      <trkpt lat="44.56363" lon="0.81864">
        <ele>131</ele>
        <time>2012-01-30T15:18:49Z</time>
      </trkpt>
      <trkpt lat="44.56366" lon="0.81858">
        <ele>131</ele>
        <time>2012-01-30T15:18:50Z</time>
      </trkpt>
      <trkpt lat="44.5637" lon="0.81853">
        <ele>131</ele>
        <time>2012-01-30T15:18:51Z</time>
      </trkpt>
      <trkpt lat="44.56374" lon="0.81849">
        <ele>131</ele>
        <time>2012-01-30T15:18:52Z</time>
      </trkpt>
      <trkpt lat="44.56377" lon="0.81844">
        <ele>131</ele>
        <time>2012-01-30T15:18:53Z</time>
      </trkpt>
      <trkpt lat="44.56381" lon="0.81839">
        <ele>131</ele>
        <time>2012-01-30T15:18:54Z</time>
      </trkpt>
      <trkpt lat="44.56385" lon="0.81834">
        <ele>131</ele>
        <time>2012-01-30T15:18:55Z</time>
      </trkpt>
      <trkpt lat="44.56389" lon="0.81829">
        <ele>131</ele>
        <time>2012-01-30T15:18:56Z</time>
      </trkpt>
      <trkpt lat="44.56393" lon="0.81824">
        <ele>131</ele>
        <time>2012-01-30T15:18:57Z</time>
      </trkpt>
      <trkpt lat="44.56397" lon="0.81819">
        <ele>131</ele>
        <time>2012-01-30T15:18:58Z</time>
      </trkpt>
      <trkpt lat="44.56401" lon="0.81814">
        <ele>131</ele>
        <time>2012-01-30T15:18:59Z</time>
      </trkpt>
      <trkpt lat="44.56405" lon="0.81809">
        <ele>131</ele>
        <time>2012-01-30T15:19:00Z</time>
      </trkpt>
      <trkpt lat="44.56409" lon="0.81804">
        <ele>131</ele>
        <time>2012-01-30T15:19:01Z</time>
      </trkpt>
      <trkpt lat="44.56414" lon="0.81798">
        <ele>131</ele>
        <time>2012-01-30T15:19:02Z</time>
      </trkpt>
      <trkpt lat="44.56418" lon="0.81793">
        <ele>131</ele>
        <time>2012-01-30T15:19:03Z</time>
      </trkpt>
      <trkpt lat="44.56422" lon="0.81788">
        <ele>131</ele>
        <time>2012-01-30T15:19:04Z</time>
      </trkpt>
      <trkpt lat="44.56427" lon="0.81783">
        <ele>131</ele>
        <time>2012-01-30T15:19:05Z</time>
      </trkpt>
      <trkpt lat="44.56432" lon="0.81778">
        <ele>131</ele>
        <time>2012-01-30T15:19:06Z</time>
      </trkpt>
      <trkpt lat="44.56437" lon="0.81773">
        <ele>131</ele>
        <time>2012-01-30T15:19:07Z</time>
      </trkpt>
      <trkpt lat="44.56442" lon="0.81768">
        <ele>131</ele>
        <time>2012-01-30T15:19:08Z</time>
      </trkpt>
      <trkpt lat="44.56446" lon="0.81763">
        <ele>131</ele>
        <time>2012-01-30T15:19:09Z</time>
      </trkpt>
      <trkpt lat="44.56451" lon="0.81758">
        <ele>131</ele>
        <time>2012-01-30T15:19:10Z</time>
      </trkpt>
      <trkpt lat="44.56455" lon="0.81754">
        <ele>131</ele>
        <time>2012-01-30T15:19:11Z</time>
      </trkpt>
      <trkpt lat="44.5646" lon="0.81749">
        <ele>131</ele>
        <time>2012-01-30T15:19:12Z</time>
      </trkpt>
      <trkpt lat="44.56464" lon="0.81744">
        <ele>131</ele>
        <time>2012-01-30T15:19:13Z</time>
      </trkpt>
      <trkpt lat="44.56469" lon="0.81739">
        <ele>131</ele>
        <time>2012-01-30T15:19:14Z</time>
      </trkpt>
      <trkpt lat="44.56473" lon="0.81735">
        <ele>131</ele>
        <time>2012-01-30T15:19:15Z</time>
      </trkpt>
      <trkpt lat="44.56478" lon="0.8173">
        <ele>131</ele>
        <time>2012-01-30T15:19:16Z</time>
      </trkpt>
      <trkpt lat="44.56483" lon="0.81726">
        <ele>131</ele>
        <time>2012-01-30T15:19:17Z</time>
      </trkpt>
      <trkpt lat="44.56488" lon="0.81722">
        <ele>131</ele>
        <time>2012-01-30T15:19:18Z</time>
      </trkpt>
      <trkpt lat="44.56492" lon="0.81718">
        <ele>131</ele>
        <time>2012-01-30T15:19:19Z</time>
      </trkpt>
      <trkpt lat="44.56497" lon="0.81715">
        <ele>131</ele>
        <time>2012-01-30T15:19:20Z</time>
      </trkpt>
      <trkpt lat="44.56502" lon="0.81711">
        <ele>131</ele>
        <time>2012-01-30T15:19:21Z</time>
      </trkpt>
      <trkpt lat="44.56507" lon="0.81707">
        <ele>131</ele>
        <time>2012-01-30T15:19:22Z</time>
      </trkpt>
      <trkpt lat="44.56512" lon="0.81702">
        <ele>131</ele>
        <time>2012-01-30T15:19:23Z</time>
      </trkpt>
      <trkpt lat="44.56516" lon="0.81698">
        <ele>131</ele>
        <time>2012-01-30T15:19:24Z</time>
      </trkpt>
      <trkpt lat="44.56521" lon="0.81694">
        <ele>131</ele>
        <time>2012-01-30T15:19:25Z</time>
      </trkpt>
      <trkpt lat="44.56525" lon="0.81689">
        <ele>132</ele>
        <time>2012-01-30T15:19:26Z</time>
      </trkpt>
      <trkpt lat="44.56529" lon="0.81684">
        <ele>132</ele>
        <time>2012-01-30T15:19:27Z</time>
      </trkpt>
      <trkpt lat="44.56533" lon="0.81679">
        <ele>133</ele>
        <time>2012-01-30T15:19:28Z</time>
      </trkpt>
      <trkpt lat="44.56537" lon="0.81674">
        <ele>134</ele>
        <time>2012-01-30T15:19:29Z</time>
      </trkpt>
      <trkpt lat="44.56541" lon="0.81669">
        <ele>134</ele>
        <time>2012-01-30T15:19:30Z</time>
      </trkpt>
      <trkpt lat="44.56544" lon="0.81664">
        <ele>135</ele>
        <time>2012-01-30T15:19:31Z</time>
      </trkpt>
      <trkpt lat="44.56548" lon="0.81659">
        <ele>135</ele>
        <time>2012-01-30T15:19:32Z</time>
      </trkpt>
      <trkpt lat="44.56552" lon="0.81654">
        <ele>136</ele>
        <time>2012-01-30T15:19:33Z</time>
      </trkpt>
      <trkpt lat="44.56555" lon="0.81648">
        <ele>136</ele>
        <time>2012-01-30T15:19:34Z</time>
      </trkpt>
      <trkpt lat="44.56559" lon="0.81643">
        <ele>136</ele>
        <time>2012-01-30T15:19:35Z</time>
      </trkpt>
      <trkpt lat="44.56562" lon="0.81637">
        <ele>137</ele>
        <time>2012-01-30T15:19:36Z</time>
      </trkpt>
      <trkpt lat="44.56565" lon="0.81632">
        <ele>137</ele>
        <time>2012-01-30T15:19:37Z</time>
      </trkpt>
      <trkpt lat="44.56569" lon="0.81626">
        <ele>137</ele>
        <time>2012-01-30T15:19:38Z</time>
      </trkpt>
      <trkpt lat="44.56572" lon="0.81621">
        <ele>137</ele>
        <time>2012-01-30T15:19:39Z</time>
      </trkpt>
      <trkpt lat="44.56575" lon="0.81615">
        <ele>137</ele>
        <time>2012-01-30T15:19:40Z</time>
      </trkpt>
      <trkpt lat="44.56578" lon="0.81609">
        <ele>138</ele>
        <time>2012-01-30T15:19:41Z</time>
      </trkpt>
      <trkpt lat="44.5658" lon="0.81604">
        <ele>138</ele>
        <time>2012-01-30T15:19:42Z</time>
      </trkpt>
      <trkpt lat="44.56583" lon="0.81598">
        <ele>139</ele>
        <time>2012-01-30T15:19:43Z</time>
      </trkpt>
      <trkpt lat="44.56586" lon="0.81592">
        <ele>140</ele>
        <time>2012-01-30T15:19:44Z</time>
      </trkpt>
      <trkpt lat="44.5659" lon="0.81587">
        <ele>140</ele>
        <time>2012-01-30T15:19:45Z</time>
      </trkpt>
      <trkpt lat="44.56593" lon="0.81582">
        <ele>140</ele>
        <time>2012-01-30T15:19:46Z</time>
      </trkpt>
      <trkpt lat="44.56596" lon="0.81576">
        <ele>140</ele>
        <time>2012-01-30T15:19:47Z</time>
      </trkpt>
      <trkpt lat="44.56599" lon="0.81571">
        <ele>140</ele>
        <time>2012-01-30T15:19:48Z</time>
      </trkpt>
      <trkpt lat="44.56602" lon="0.81566">
        <ele>140</ele>
        <time>2012-01-30T15:19:49Z</time>
      </trkpt>
      <trkpt lat="44.56606" lon="0.81561">
        <ele>140</ele>
        <time>2012-01-30T15:19:50Z</time>
      </trkpt>
      <trkpt lat="44.56609" lon="0.81556">
        <ele>141</ele>
        <time>2012-01-30T15:19:51Z</time>
      </trkpt>
      <trkpt lat="44.56612" lon="0.81551">
        <ele>141</ele>
        <time>2012-01-30T15:19:52Z</time>
      </trkpt>
      <trkpt lat="44.56616" lon="0.81546">
        <ele>141</ele>
        <time>2012-01-30T15:19:53Z</time>
      </trkpt>
      <trkpt lat="44.5662" lon="0.81542">
        <ele>141</ele>
        <time>2012-01-30T15:19:54Z</time>
      </trkpt>
      <trkpt lat="44.56623" lon="0.81537">
        <ele>141</ele>
        <time>2012-01-30T15:19:55Z</time>
      </trkpt>
      <trkpt lat="44.56627" lon="0.81533">
        <ele>141</ele>
        <time>2012-01-30T15:19:56Z</time>
      </trkpt>
      <trkpt lat="44.5663" lon="0.81529">
        <ele>141</ele>
        <time>2012-01-30T15:19:57Z</time>
      </trkpt>
      <trkpt lat="44.56634" lon="0.81524">
        <ele>141</ele>
        <time>2012-01-30T15:19:58Z</time>
      </trkpt>
      <trkpt lat="44.56638" lon="0.81519">
        <ele>141</ele>
        <time>2012-01-30T15:19:59Z</time>
      </trkpt>
      <trkpt lat="44.56642" lon="0.81515">
        <ele>141</ele>
        <time>2012-01-30T15:20:00Z</time>
      </trkpt>
      <trkpt lat="44.56646" lon="0.8151">
        <ele>141</ele>
        <time>2012-01-30T15:20:01Z</time>
      </trkpt>
      <trkpt lat="44.5665" lon="0.81506">
        <ele>141</ele>
        <time>2012-01-30T15:20:02Z</time>
      </trkpt>
      <trkpt lat="44.56653" lon="0.81501">
        <ele>141</ele>
        <time>2012-01-30T15:20:03Z</time>
      </trkpt>
      <trkpt lat="44.56657" lon="0.81496">
        <ele>141</ele>
        <time>2012-01-30T15:20:04Z</time>
      </trkpt>
      <trkpt lat="44.5666" lon="0.81491">
        <ele>141</ele>
        <time>2012-01-30T15:20:05Z</time>
      </trkpt>
      <trkpt lat="44.56664" lon="0.81486">
        <ele>141</ele>
        <time>2012-01-30T15:20:06Z</time>
      </trkpt>
      <trkpt lat="44.56667" lon="0.81481">
        <ele>141</ele>
        <time>2012-01-30T15:20:07Z</time>
      </trkpt>
      <trkpt lat="44.56672" lon="0.81476">
        <ele>141</ele>
        <time>2012-01-30T15:20:08Z</time>
      </trkpt>
      <trkpt lat="44.56676" lon="0.8147">
        <ele>141</ele>
        <time>2012-01-30T15:20:09Z</time>
      </trkpt>
      <trkpt lat="44.5668" lon="0.81464">
        <ele>141</ele>
        <time>2012-01-30T15:20:10Z</time>
      </trkpt>
      <trkpt lat="44.56683" lon="0.81458">
        <ele>141</ele>
        <time>2012-01-30T15:20:11Z</time>
      </trkpt>
      <trkpt lat="44.56687" lon="0.81453">
        <ele>141</ele>
        <time>2012-01-30T15:20:12Z</time>
      </trkpt>
      <trkpt lat="44.5669" lon="0.81447">
        <ele>141</ele>
        <time>2012-01-30T15:20:13Z</time>
      </trkpt>
      <trkpt lat="44.56693" lon="0.81442">
        <ele>141</ele>
        <time>2012-01-30T15:20:14Z</time>
      </trkpt>
      <trkpt lat="44.56697" lon="0.81436">
        <ele>141</ele>
        <time>2012-01-30T15:20:15Z</time>
      </trkpt>
      <trkpt lat="44.567" lon="0.81431">
        <ele>141</ele>
        <time>2012-01-30T15:20:16Z</time>
      </trkpt>
      <trkpt lat="44.56704" lon="0.81425">
        <ele>141</ele>
        <time>2012-01-30T15:20:17Z</time>
      </trkpt>
      <trkpt lat="44.56707" lon="0.81419">
        <ele>141</ele>
        <time>2012-01-30T15:20:18Z</time>
      </trkpt>
      <trkpt lat="44.56711" lon="0.81413">
        <ele>141</ele>
        <time>2012-01-30T15:20:19Z</time>
      </trkpt>
      <trkpt lat="44.56715" lon="0.81406">
        <ele>141</ele>
        <time>2012-01-30T15:20:20Z</time>
      </trkpt>
      <trkpt lat="44.56719" lon="0.814">
        <ele>141</ele>
        <time>2012-01-30T15:20:21Z</time>
      </trkpt>
      <trkpt lat="44.56723" lon="0.81393">
        <ele>141</ele>
        <time>2012-01-30T15:20:22Z</time>
      </trkpt>
      <trkpt lat="44.56726" lon="0.81387">
        <ele>141</ele>
        <time>2012-01-30T15:20:23Z</time>
      </trkpt>
      <trkpt lat="44.5673" lon="0.81381">
        <ele>141</ele>
        <time>2012-01-30T15:20:24Z</time>
      </trkpt>
      <trkpt lat="44.56733" lon="0.81375">
        <ele>141</ele>
        <time>2012-01-30T15:20:25Z</time>
      </trkpt>
      <trkpt lat="44.56736" lon="0.81369">
        <ele>141</ele>
        <time>2012-01-30T15:20:26Z</time>
      </trkpt>
      <trkpt lat="44.56739" lon="0.81363">
        <ele>140</ele>
        <time>2012-01-30T15:20:27Z</time>
      </trkpt>
      <trkpt lat="44.56744" lon="0.81357">
        <ele>140</ele>
        <time>2012-01-30T15:20:28Z</time>
      </trkpt>
      <trkpt lat="44.56748" lon="0.81351">
        <ele>140</ele>
        <time>2012-01-30T15:20:29Z</time>
      </trkpt>
      <trkpt lat="44.56752" lon="0.81345">
        <ele>140</ele>
        <time>2012-01-30T15:20:30Z</time>
      </trkpt>
      <trkpt lat="44.56755" lon="0.81339">
        <ele>140</ele>
        <time>2012-01-30T15:20:31Z</time>
      </trkpt>
      <trkpt lat="44.56758" lon="0.81333">
        <ele>140</ele>
        <time>2012-01-30T15:20:32Z</time>
      </trkpt>
      <trkpt lat="44.56762" lon="0.81328">
        <ele>140</ele>
        <time>2012-01-30T15:20:33Z</time>
      </trkpt>
      <trkpt lat="44.56765" lon="0.81322">
        <ele>140</ele>
        <time>2012-01-30T15:20:34Z</time>
      </trkpt>
      <trkpt lat="44.56768" lon="0.81317">
        <ele>140</ele>
        <time>2012-01-30T15:20:35Z</time>
      </trkpt>
      <trkpt lat="44.56771" lon="0.81311">
        <ele>140</ele>
        <time>2012-01-30T15:20:36Z</time>
      </trkpt>
      <trkpt lat="44.56773" lon="0.81306">
        <ele>140</ele>
        <time>2012-01-30T15:20:37Z</time>
      </trkpt>
      <trkpt lat="44.56776" lon="0.813">
        <ele>140</ele>
        <time>2012-01-30T15:20:38Z</time>
      </trkpt>
      <trkpt lat="44.56779" lon="0.81295">
        <ele>140</ele>
        <time>2012-01-30T15:20:39Z</time>
      </trkpt>
      <trkpt lat="44.56782" lon="0.8129">
        <ele>140</ele>
        <time>2012-01-30T15:20:40Z</time>
      </trkpt>
      <trkpt lat="44.56786" lon="0.81285">
        <ele>140</ele>
        <time>2012-01-30T15:20:41Z</time>
      </trkpt>
      <trkpt lat="44.56789" lon="0.81279">
        <ele>140</ele>
        <time>2012-01-30T15:20:42Z</time>
      </trkpt>
      <trkpt lat="44.56792" lon="0.81274">
        <ele>140</ele>
        <time>2012-01-30T15:20:43Z</time>
      </trkpt>
      <trkpt lat="44.56795" lon="0.81268">
        <ele>139</ele>
        <time>2012-01-30T15:20:44Z</time>
      </trkpt>
      <trkpt lat="44.56798" lon="0.81262">
        <ele>139</ele>
        <time>2012-01-30T15:20:45Z</time>
      </trkpt>
      <trkpt lat="44.56801" lon="0.81256">
        <ele>139</ele>
        <time>2012-01-30T15:20:46Z</time>
      </trkpt>
      <trkpt lat="44.56805" lon="0.8125">
        <ele>139</ele>
        <time>2012-01-30T15:20:47Z</time>
      </trkpt>
      <trkpt lat="44.56808" lon="0.81244">
        <ele>139</ele>
        <time>2012-01-30T15:20:48Z</time>
      </trkpt>
      <trkpt lat="44.56812" lon="0.81239">
        <ele>138</ele>
        <time>2012-01-30T15:20:49Z</time>
      </trkpt>
      <trkpt lat="44.56815" lon="0.81233">
        <ele>138</ele>
        <time>2012-01-30T15:20:50Z</time>
      </trkpt>
      <trkpt lat="44.56819" lon="0.81226">
        <ele>138</ele>
        <time>2012-01-30T15:20:51Z</time>
      </trkpt>
      <trkpt lat="44.56823" lon="0.8122">
        <ele>138</ele>
        <time>2012-01-30T15:20:52Z</time>
      </trkpt>
      <trkpt lat="44.56826" lon="0.81214">
        <ele>137</ele>
        <time>2012-01-30T15:20:53Z</time>
      </trkpt>
      <trkpt lat="44.5683" lon="0.81208">
        <ele>137</ele>
        <time>2012-01-30T15:20:54Z</time>
      </trkpt>
      <trkpt lat="44.56834" lon="0.81202">
        <ele>137</ele>
        <time>2012-01-30T15:20:55Z</time>
      </trkpt>
      <trkpt lat="44.56837" lon="0.81196">
        <ele>136</ele>
        <time>2012-01-30T15:20:56Z</time>
      </trkpt>
      <trkpt lat="44.56841" lon="0.8119">
        <ele>136</ele>
        <time>2012-01-30T15:20:57Z</time>
      </trkpt>
      <trkpt lat="44.56845" lon="0.81183">
        <ele>136</ele>
        <time>2012-01-30T15:20:58Z</time>
      </trkpt>
      <trkpt lat="44.56848" lon="0.81177">
        <ele>136</ele>
        <time>2012-01-30T15:20:59Z</time>
      </trkpt>
      <trkpt lat="44.56852" lon="0.81172">
        <ele>136</ele>
        <time>2012-01-30T15:21:00Z</time>
      </trkpt>
      <trkpt lat="44.56855" lon="0.81166">
        <ele>136</ele>
        <time>2012-01-30T15:21:01Z</time>
      </trkpt>
      <trkpt lat="44.56858" lon="0.8116">
        <ele>136</ele>
        <time>2012-01-30T15:21:02Z</time>
      </trkpt>
      <trkpt lat="44.56862" lon="0.81154">
        <ele>136</ele>
        <time>2012-01-30T15:21:03Z</time>
      </trkpt>
      <trkpt lat="44.56866" lon="0.81148">
        <ele>136</ele>
        <time>2012-01-30T15:21:04Z</time>
      </trkpt>
      <trkpt lat="44.5687" lon="0.81142">
        <ele>136</ele>
        <time>2012-01-30T15:21:05Z</time>
      </trkpt>
      <trkpt lat="44.56875" lon="0.81135">
        <ele>136</ele>
        <time>2012-01-30T15:21:06Z</time>
      </trkpt>
      <trkpt lat="44.56879" lon="0.81129">
        <ele>136</ele>
        <time>2012-01-30T15:21:07Z</time>
      </trkpt>
      <trkpt lat="44.56883" lon="0.81123">
        <ele>136</ele>
        <time>2012-01-30T15:21:08Z</time>
      </trkpt>
      <trkpt lat="44.56887" lon="0.81117">
        <ele>136</ele>
        <time>2012-01-30T15:21:09Z</time>
      </trkpt>
      <trkpt lat="44.5689" lon="0.81111">
        <ele>136</ele>
        <time>2012-01-30T15:21:10Z</time>
      </trkpt>
      <trkpt lat="44.56894" lon="0.81105">
        <ele>136</ele>
        <time>2012-01-30T15:21:11Z</time>
      </trkpt>
      <trkpt lat="44.56897" lon="0.81099">
        <ele>136</ele>
        <time>2012-01-30T15:21:12Z</time>
      </trkpt>
      <trkpt lat="44.569" lon="0.81092">
        <ele>136</ele>
        <time>2012-01-30T15:21:13Z</time>
      </trkpt>
      <trkpt lat="44.56904" lon="0.81086">
        <ele>136</ele>
        <time>2012-01-30T15:21:14Z</time>
      </trkpt>
      <trkpt lat="44.56908" lon="0.8108">
        <ele>136</ele>
        <time>2012-01-30T15:21:15Z</time>
      </trkpt>
      <trkpt lat="44.56911" lon="0.81073">
        <ele>136</ele>
        <time>2012-01-30T15:21:16Z</time>
      </trkpt>
      <trkpt lat="44.56915" lon="0.81067">
        <ele>136</ele>
        <time>2012-01-30T15:21:17Z</time>
      </trkpt>
      <trkpt lat="44.56918" lon="0.81061">
        <ele>136</ele>
        <time>2012-01-30T15:21:18Z</time>
      </trkpt>
      <trkpt lat="44.5692" lon="0.81056">
        <ele>136</ele>
        <time>2012-01-30T15:21:19Z</time>
      </trkpt>
      <trkpt lat="44.56923" lon="0.8105">
        <ele>136</ele>
        <time>2012-01-30T15:21:20Z</time>
      </trkpt>
      <trkpt lat="44.56926" lon="0.81045">
        <ele>136</ele>
        <time>2012-01-30T15:21:21Z</time>
      </trkpt>
      <trkpt lat="44.56928" lon="0.8104">
        <ele>136</ele>
        <time>2012-01-30T15:21:22Z</time>
      </trkpt>
      <trkpt lat="44.56931" lon="0.81037">
        <ele>136</ele>
        <time>2012-01-30T15:21:23Z</time>
      </trkpt>
      <trkpt lat="44.56933" lon="0.81034">
        <ele>136</ele>
        <time>2012-01-30T15:21:24Z</time>
      </trkpt>
      <trkpt lat="44.56934" lon="0.81033">
        <ele>136</ele>
        <time>2012-01-30T15:21:25Z</time>
      </trkpt>
      <trkpt lat="44.56936" lon="0.81033">
        <ele>133</ele>
        <time>2012-01-30T15:21:31Z</time>
      </trkpt>
      <trkpt lat="44.56938" lon="0.81032">
        <ele>131</ele>
        <time>2012-01-30T15:21:33Z</time>
      </trkpt>
      <trkpt lat="44.56939" lon="0.81032">
        <ele>130</ele>
        <time>2012-01-30T15:21:35Z</time>
      </trkpt>
      <trkpt lat="44.5694" lon="0.81033">
        <ele>129</ele>
        <time>2012-01-30T15:21:38Z</time>
      </trkpt>
      <trkpt lat="44.56942" lon="0.81033">
        <ele>129</ele>
        <time>2012-01-30T15:21:41Z</time>
      </trkpt>
      <trkpt lat="44.56943" lon="0.81034">
        <ele>129</ele>
        <time>2012-01-30T15:21:47Z</time>
      </trkpt>
      <trkpt lat="44.56944" lon="0.81034">
        <ele>129</ele>
        <time>2012-01-30T15:21:50Z</time>
      </trkpt>
      <trkpt lat="44.56945" lon="0.81034">
        <ele>129</ele>
        <time>2012-01-30T15:21:54Z</time>
      </trkpt>
      <trkpt lat="44.56947" lon="0.81034">
        <ele>129</ele>
        <time>2012-01-30T15:21:55Z</time>
      </trkpt>
      <trkpt lat="44.56948" lon="0.81034">
        <ele>129</ele>
        <time>2012-01-30T15:21:56Z</time>
      </trkpt>
      <trkpt lat="44.5695" lon="0.81034">
        <ele>129</ele>
        <time>2012-01-30T15:21:57Z</time>
      </trkpt>
      <trkpt lat="44.56952" lon="0.81033">
        <ele>129</ele>
        <time>2012-01-30T15:21:58Z</time>
      </trkpt>
      <trkpt lat="44.56954" lon="0.81031">
        <ele>129</ele>
        <time>2012-01-30T15:21:59Z</time>
      </trkpt>
      <trkpt lat="44.56956" lon="0.81029">
        <ele>129</ele>
        <time>2012-01-30T15:22:00Z</time>
      </trkpt>
      <trkpt lat="44.56959" lon="0.81028">
        <ele>129</ele>
        <time>2012-01-30T15:22:01Z</time>
      </trkpt>
      <trkpt lat="44.56961" lon="0.81026">
        <ele>129</ele>
        <time>2012-01-30T15:22:02Z</time>
      </trkpt>
      <trkpt lat="44.56965" lon="0.81025">
        <ele>129</ele>
        <time>2012-01-30T15:22:03Z</time>
      </trkpt>
      <trkpt lat="44.56969" lon="0.81023">
        <ele>129</ele>
        <time>2012-01-30T15:22:04Z</time>
      </trkpt>
      <trkpt lat="44.56973" lon="0.81021">
        <ele>129</ele>
        <time>2012-01-30T15:22:05Z</time>
      </trkpt>
      <trkpt lat="44.56977" lon="0.81019">
        <ele>129</ele>
        <time>2012-01-30T15:22:06Z</time>
      </trkpt>
      <trkpt lat="44.56982" lon="0.81017">
        <ele>129</ele>
        <time>2012-01-30T15:22:07Z</time>
      </trkpt>
      <trkpt lat="44.56986" lon="0.81015">
        <ele>129</ele>
        <time>2012-01-30T15:22:08Z</time>
      </trkpt>
      <trkpt lat="44.5699" lon="0.81012">
        <ele>129</ele>
        <time>2012-01-30T15:22:09Z</time>
      </trkpt>
      <trkpt lat="44.56995" lon="0.8101">
        <ele>129</ele>
        <time>2012-01-30T15:22:10Z</time>
      </trkpt>
      <trkpt lat="44.56999" lon="0.81007">
        <ele>129</ele>
        <time>2012-01-30T15:22:11Z</time>
      </trkpt>
      <trkpt lat="44.57002" lon="0.81006">
        <ele>129</ele>
        <time>2012-01-30T15:22:12Z</time>
      </trkpt>
      <trkpt lat="44.57004" lon="0.81005">
        <ele>129</ele>
        <time>2012-01-30T15:22:13Z</time>
      </trkpt>
      <trkpt lat="44.57006" lon="0.81004">
        <ele>129</ele>
        <time>2012-01-30T15:22:14Z</time>
      </trkpt>
      <trkpt lat="44.57008" lon="0.81003">
        <ele>129</ele>
        <time>2012-01-30T15:22:15Z</time>
      </trkpt>
      <trkpt lat="44.57009" lon="0.81003">
        <ele>128</ele>
        <time>2012-01-30T15:22:18Z</time>
      </trkpt>
      <trkpt lat="44.5701" lon="0.81003">
        <ele>127</ele>
        <time>2012-01-30T15:22:23Z</time>
      </trkpt>
      <trkpt lat="44.57011" lon="0.81001">
        <ele>127</ele>
        <time>2012-01-30T15:22:26Z</time>
      </trkpt>
      <trkpt lat="44.57013" lon="0.81001">
        <ele>127</ele>
        <time>2012-01-30T15:22:28Z</time>
      </trkpt>
      <trkpt lat="44.57014" lon="0.80999">
        <ele>126</ele>
        <time>2012-01-30T15:22:39Z</time>
      </trkpt>
      <trkpt lat="44.57015" lon="0.80998">
        <ele>126</ele>
        <time>2012-01-30T15:22:43Z</time>
      </trkpt>
      <trkpt lat="44.57016" lon="0.80998">
        <ele>126</ele>
        <time>2012-01-30T15:22:54Z</time>
      </trkpt>
      <trkpt lat="44.57018" lon="0.80998">
        <ele>126</ele>
        <time>2012-01-30T15:22:55Z</time>
      </trkpt>
      <trkpt lat="44.5702" lon="0.80996">
        <ele>126</ele>
        <time>2012-01-30T15:22:57Z</time>
      </trkpt>
      <trkpt lat="44.57021" lon="0.80994">
        <ele>126</ele>
        <time>2012-01-30T15:22:58Z</time>
      </trkpt>
      <trkpt lat="44.57023" lon="0.80993">
        <ele>126</ele>
        <time>2012-01-30T15:22:59Z</time>
      </trkpt>
      <trkpt lat="44.57024" lon="0.80992">
        <ele>126</ele>
        <time>2012-01-30T15:23:00Z</time>
      </trkpt>
      <trkpt lat="44.57025" lon="0.80991">
        <ele>126</ele>
        <time>2012-01-30T15:23:01Z</time>
      </trkpt>
      <trkpt lat="44.57027" lon="0.8099">
        <ele>126</ele>
        <time>2012-01-30T15:23:02Z</time>
      </trkpt>
      <trkpt lat="44.57028" lon="0.80989">
        <ele>126</ele>
        <time>2012-01-30T15:23:03Z</time>
      </trkpt>
      <trkpt lat="44.5703" lon="0.80987">
        <ele>126</ele>
        <time>2012-01-30T15:23:04Z</time>
      </trkpt>
      <trkpt lat="44.57032" lon="0.80985">
        <ele>126</ele>
        <time>2012-01-30T15:23:05Z</time>
      </trkpt>
      <trkpt lat="44.57033" lon="0.80984">
        <ele>126</ele>
        <time>2012-01-30T15:23:06Z</time>
      </trkpt>
      <trkpt lat="44.57034" lon="0.80982">
        <ele>126</ele>
        <time>2012-01-30T15:23:07Z</time>
      </trkpt>
      <trkpt lat="44.57035" lon="0.80981">
        <ele>126</ele>
        <time>2012-01-30T15:23:08Z</time>
      </trkpt>
      <trkpt lat="44.57036" lon="0.8098">
        <ele>126</ele>
        <time>2012-01-30T15:23:09Z</time>
      </trkpt>
      <trkpt lat="44.57037" lon="0.80978">
        <ele>126</ele>
        <time>2012-01-30T15:23:10Z</time>
      </trkpt>
      <trkpt lat="44.57039" lon="0.80976">
        <ele>126</ele>
        <time>2012-01-30T15:23:11Z</time>
      </trkpt>
      <trkpt lat="44.5704" lon="0.80975">
        <ele>126</ele>
        <time>2012-01-30T15:23:12Z</time>
      </trkpt>
      <trkpt lat="44.57041" lon="0.80973">
        <ele>126</ele>
        <time>2012-01-30T15:23:13Z</time>
      </trkpt>
      <trkpt lat="44.57042" lon="0.80971">
        <ele>126</ele>
        <time>2012-01-30T15:23:14Z</time>
      </trkpt>
      <trkpt lat="44.57043" lon="0.80969">
        <ele>126</ele>
        <time>2012-01-30T15:23:15Z</time>
      </trkpt>
      <trkpt lat="44.57045" lon="0.80966">
        <ele>126</ele>
        <time>2012-01-30T15:23:16Z</time>
      </trkpt>
      <trkpt lat="44.57046" lon="0.80964">
        <ele>126</ele>
        <time>2012-01-30T15:23:17Z</time>
      </trkpt>
      <trkpt lat="44.57047" lon="0.80961">
        <ele>126</ele>
        <time>2012-01-30T15:23:18Z</time>
      </trkpt>
      <trkpt lat="44.57048" lon="0.80958">
        <ele>126</ele>
        <time>2012-01-30T15:23:19Z</time>
      </trkpt>
      <trkpt lat="44.5705" lon="0.80955">
        <ele>126</ele>
        <time>2012-01-30T15:23:20Z</time>
      </trkpt>
      <trkpt lat="44.57051" lon="0.80952">
        <ele>126</ele>
        <time>2012-01-30T15:23:21Z</time>
      </trkpt>
      <trkpt lat="44.57053" lon="0.80949">
        <ele>126</ele>
        <time>2012-01-30T15:23:22Z</time>
      </trkpt>
      <trkpt lat="44.57054" lon="0.80946">
        <ele>126</ele>
        <time>2012-01-30T15:23:23Z</time>
      </trkpt>
      <trkpt lat="44.57056" lon="0.80944">
        <ele>126</ele>
        <time>2012-01-30T15:23:24Z</time>
      </trkpt>
      <trkpt lat="44.57057" lon="0.80941">
        <ele>126</ele>
        <time>2012-01-30T15:23:25Z</time>
      </trkpt>
      <trkpt lat="44.57058" lon="0.80938">
        <ele>126</ele>
        <time>2012-01-30T15:23:26Z</time>
      </trkpt>
      <trkpt lat="44.5706" lon="0.80936">
        <ele>126</ele>
        <time>2012-01-30T15:23:27Z</time>
      </trkpt>
      <trkpt lat="44.57061" lon="0.80933">
        <ele>126</ele>
        <time>2012-01-30T15:23:28Z</time>
      </trkpt>
      <trkpt lat="44.57063" lon="0.80929">
        <ele>126</ele>
        <time>2012-01-30T15:23:29Z</time>
      </trkpt>
      <trkpt lat="44.57065" lon="0.80926">
        <ele>126</ele>
        <time>2012-01-30T15:23:30Z</time>
      </trkpt>
      <trkpt lat="44.57067" lon="0.80923">
        <ele>126</ele>
        <time>2012-01-30T15:23:31Z</time>
      </trkpt>
      <trkpt lat="44.57069" lon="0.8092">
        <ele>126</ele>
        <time>2012-01-30T15:23:32Z</time>
      </trkpt>
      <trkpt lat="44.57072" lon="0.80917">
        <ele>126</ele>
        <time>2012-01-30T15:23:33Z</time>
      </trkpt>
      <trkpt lat="44.57074" lon="0.80914">
        <ele>126</ele>
        <time>2012-01-30T15:23:34Z</time>
      </trkpt>
      <trkpt lat="44.57076" lon="0.8091">
        <ele>126</ele>
        <time>2012-01-30T15:23:35Z</time>
      </trkpt>
      <trkpt lat="44.57078" lon="0.80908">
        <ele>126</ele>
        <time>2012-01-30T15:23:36Z</time>
      </trkpt>
      <trkpt lat="44.5708" lon="0.80905">
        <ele>126</ele>
        <time>2012-01-30T15:23:37Z</time>
      </trkpt>
      <trkpt lat="44.57082" lon="0.80902">
        <ele>126</ele>
        <time>2012-01-30T15:23:38Z</time>
      </trkpt>
      <trkpt lat="44.57084" lon="0.80898">
        <ele>126</ele>
        <time>2012-01-30T15:23:39Z</time>
      </trkpt>
      <trkpt lat="44.57086" lon="0.80895">
        <ele>126</ele>
        <time>2012-01-30T15:23:40Z</time>
      </trkpt>
      <trkpt lat="44.57088" lon="0.80891">
        <ele>126</ele>
        <time>2012-01-30T15:23:41Z</time>
      </trkpt>
      <trkpt lat="44.57091" lon="0.80888">
        <ele>126</ele>
        <time>2012-01-30T15:23:42Z</time>
      </trkpt>
      <trkpt lat="44.57093" lon="0.80884">
        <ele>126</ele>
        <time>2012-01-30T15:23:43Z</time>
      </trkpt>
      <trkpt lat="44.57095" lon="0.8088">
        <ele>126</ele>
        <time>2012-01-30T15:23:44Z</time>
      </trkpt>
      <trkpt lat="44.57098" lon="0.80877">
        <ele>126</ele>
        <time>2012-01-30T15:23:45Z</time>
      </trkpt>
      <trkpt lat="44.571" lon="0.80874">
        <ele>126</ele>
        <time>2012-01-30T15:23:46Z</time>
      </trkpt>
      <trkpt lat="44.57102" lon="0.8087">
        <ele>126</ele>
        <time>2012-01-30T15:23:47Z</time>
      </trkpt>
      <trkpt lat="44.57104" lon="0.80867">
        <ele>126</ele>
        <time>2012-01-30T15:23:48Z</time>
      </trkpt>
      <trkpt lat="44.57107" lon="0.80864">
        <ele>126</ele>
        <time>2012-01-30T15:23:49Z</time>
      </trkpt>
      <trkpt lat="44.5711" lon="0.80861">
        <ele>126</ele>
        <time>2012-01-30T15:23:50Z</time>
      </trkpt>
      <trkpt lat="44.57112" lon="0.80857">
        <ele>126</ele>
        <time>2012-01-30T15:23:51Z</time>
      </trkpt>
      <trkpt lat="44.57115" lon="0.80854">
        <ele>126</ele>
        <time>2012-01-30T15:23:52Z</time>
      </trkpt>
      <trkpt lat="44.57117" lon="0.80851">
        <ele>126</ele>
        <time>2012-01-30T15:23:53Z</time>
      </trkpt>
      <trkpt lat="44.5712" lon="0.80848">
        <ele>126</ele>
        <time>2012-01-30T15:23:54Z</time>
      </trkpt>
      <trkpt lat="44.57122" lon="0.80845">
        <ele>126</ele>
        <time>2012-01-30T15:23:55Z</time>
      </trkpt>
      <trkpt lat="44.57125" lon="0.80843">
        <ele>126</ele>
        <time>2012-01-30T15:23:56Z</time>
      </trkpt>
      <trkpt lat="44.57127" lon="0.8084">
        <ele>126</ele>
        <time>2012-01-30T15:23:57Z</time>
      </trkpt>
      <trkpt lat="44.5713" lon="0.80838">
        <ele>126</ele>
        <time>2012-01-30T15:23:58Z</time>
      </trkpt>
      <trkpt lat="44.57132" lon="0.80835">
        <ele>126</ele>
        <time>2012-01-30T15:23:59Z</time>
      </trkpt>
      <trkpt lat="44.57135" lon="0.80832">
        <ele>126</ele>
        <time>2012-01-30T15:24:00Z</time>
      </trkpt>
      <trkpt lat="44.57138" lon="0.8083">
        <ele>126</ele>
        <time>2012-01-30T15:24:01Z</time>
      </trkpt>
      <trkpt lat="44.5714" lon="0.80827">
        <ele>126</ele>
        <time>2012-01-30T15:24:02Z</time>
      </trkpt>
      <trkpt lat="44.57143" lon="0.80824">
        <ele>126</ele>
        <time>2012-01-30T15:24:03Z</time>
      </trkpt>
      <trkpt lat="44.57146" lon="0.80822">
        <ele>126</ele>
        <time>2012-01-30T15:24:04Z</time>
      </trkpt>
      <trkpt lat="44.57148" lon="0.80819">
        <ele>126</ele>
        <time>2012-01-30T15:24:05Z</time>
      </trkpt>
      <trkpt lat="44.57151" lon="0.80816">
        <ele>126</ele>
        <time>2012-01-30T15:24:06Z</time>
      </trkpt>
      <trkpt lat="44.57154" lon="0.80813">
        <ele>126</ele>
        <time>2012-01-30T15:24:07Z</time>
      </trkpt>
      <trkpt lat="44.57158" lon="0.80811">
        <ele>126</ele>
        <time>2012-01-30T15:24:08Z</time>
      </trkpt>
      <trkpt lat="44.57161" lon="0.80808">
        <ele>126</ele>
        <time>2012-01-30T15:24:09Z</time>
      </trkpt>
      <trkpt lat="44.57165" lon="0.80805">
        <ele>126</ele>
        <time>2012-01-30T15:24:10Z</time>
      </trkpt>
      <trkpt lat="44.57168" lon="0.80803">
        <ele>126</ele>
        <time>2012-01-30T15:24:11Z</time>
      </trkpt>
      <trkpt lat="44.57172" lon="0.808">
        <ele>126</ele>
        <time>2012-01-30T15:24:12Z</time>
      </trkpt>
      <trkpt lat="44.57175" lon="0.80796">
        <ele>126</ele>
        <time>2012-01-30T15:24:13Z</time>
      </trkpt>
      <trkpt lat="44.57179" lon="0.80793">
        <ele>126</ele>
        <time>2012-01-30T15:24:14Z</time>
      </trkpt>
      <trkpt lat="44.57182" lon="0.80791">
        <ele>126</ele>
        <time>2012-01-30T15:24:15Z</time>
      </trkpt>
      <trkpt lat="44.57186" lon="0.80788">
        <ele>126</ele>
        <time>2012-01-30T15:24:16Z</time>
      </trkpt>
      <trkpt lat="44.57189" lon="0.80785">
        <ele>126</ele>
        <time>2012-01-30T15:24:17Z</time>
      </trkpt>
      <trkpt lat="44.57192" lon="0.80782">
        <ele>126</ele>
        <time>2012-01-30T15:24:18Z</time>
      </trkpt>
      <trkpt lat="44.57195" lon="0.8078">
        <ele>126</ele>
        <time>2012-01-30T15:24:19Z</time>
      </trkpt>
      <trkpt lat="44.57197" lon="0.80778">
        <ele>126</ele>
        <time>2012-01-30T15:24:20Z</time>
      </trkpt>
      <trkpt lat="44.57199" lon="0.80776">
        <ele>126</ele>
        <time>2012-01-30T15:24:21Z</time>
      </trkpt>
      <trkpt lat="44.57201" lon="0.80774">
        <ele>126</ele>
        <time>2012-01-30T15:24:22Z</time>
      </trkpt>
      <trkpt lat="44.57203" lon="0.80773">
        <ele>126</ele>
        <time>2012-01-30T15:24:23Z</time>
      </trkpt>
      <trkpt lat="44.57204" lon="0.80772">
        <ele>126</ele>
        <time>2012-01-30T15:24:24Z</time>
      </trkpt>
      <trkpt lat="44.57205" lon="0.8077">
        <ele>126</ele>
        <time>2012-01-30T15:24:26Z</time>
      </trkpt>
      <trkpt lat="44.57206" lon="0.8077">
        <ele>126</ele>
        <time>2012-01-30T15:24:31Z</time>
      </trkpt>
      <trkpt lat="44.57208" lon="0.80771">
        <ele>126</ele>
        <time>2012-01-30T15:24:47Z</time>
      </trkpt>
      <trkpt lat="44.57209" lon="0.80769">
        <ele>126</ele>
        <time>2012-01-30T15:24:51Z</time>
      </trkpt>
      <trkpt lat="44.5721" lon="0.80768">
        <ele>126</ele>
        <time>2012-01-30T15:24:53Z</time>
      </trkpt>
      <trkpt lat="44.57212" lon="0.80768">
        <ele>126</ele>
        <time>2012-01-30T15:24:57Z</time>
      </trkpt>
      <trkpt lat="44.57213" lon="0.80766">
        <ele>126</ele>
        <time>2012-01-30T15:25:01Z</time>
      </trkpt>
      <trkpt lat="44.57214" lon="0.80765">
        <ele>126</ele>
        <time>2012-01-30T15:25:03Z</time>
      </trkpt>
      <trkpt lat="44.57215" lon="0.80764">
        <ele>126</ele>
        <time>2012-01-30T15:25:08Z</time>
      </trkpt>
      <trkpt lat="44.57218" lon="0.80761">
        <ele>126</ele>
        <time>2012-01-30T15:25:10Z</time>
      </trkpt>
      <trkpt lat="44.5722" lon="0.80759">
        <ele>126</ele>
        <time>2012-01-30T15:25:11Z</time>
      </trkpt>
      <trkpt lat="44.57222" lon="0.80757">
        <ele>126</ele>
        <time>2012-01-30T15:25:12Z</time>
      </trkpt>
      <trkpt lat="44.57223" lon="0.80756">
        <ele>126</ele>
        <time>2012-01-30T15:25:13Z</time>
      </trkpt>
      <trkpt lat="44.57225" lon="0.80753">
        <ele>126</ele>
        <time>2012-01-30T15:25:14Z</time>
      </trkpt>
      <trkpt lat="44.57226" lon="0.80752">
        <ele>126</ele>
        <time>2012-01-30T15:25:15Z</time>
      </trkpt>
      <trkpt lat="44.57228" lon="0.80751">
        <ele>126</ele>
        <time>2012-01-30T15:25:16Z</time>
      </trkpt>
      <trkpt lat="44.5723" lon="0.80749">
        <ele>126</ele>
        <time>2012-01-30T15:25:17Z</time>
      </trkpt>
      <trkpt lat="44.57232" lon="0.80747">
        <ele>126</ele>
        <time>2012-01-30T15:25:18Z</time>
      </trkpt>
      <trkpt lat="44.57234" lon="0.80746">
        <ele>126</ele>
        <time>2012-01-30T15:25:19Z</time>
      </trkpt>
      <trkpt lat="44.57236" lon="0.80743">
        <ele>126</ele>
        <time>2012-01-30T15:25:20Z</time>
      </trkpt>
      <trkpt lat="44.57239" lon="0.80741">
        <ele>126</ele>
        <time>2012-01-30T15:25:21Z</time>
      </trkpt>
      <trkpt lat="44.57242" lon="0.80738">
        <ele>126</ele>
        <time>2012-01-30T15:25:22Z</time>
      </trkpt>
      <trkpt lat="44.57244" lon="0.80735">
        <ele>126</ele>
        <time>2012-01-30T15:25:23Z</time>
      </trkpt>
      <trkpt lat="44.57247" lon="0.80732">
        <ele>126</ele>
        <time>2012-01-30T15:25:24Z</time>
      </trkpt>
      <trkpt lat="44.57249" lon="0.80729">
        <ele>126</ele>
        <time>2012-01-30T15:25:25Z</time>
      </trkpt>
      <trkpt lat="44.57252" lon="0.80726">
        <ele>126</ele>
        <time>2012-01-30T15:25:26Z</time>
      </trkpt>
      <trkpt lat="44.57254" lon="0.80724">
        <ele>126</ele>
        <time>2012-01-30T15:25:27Z</time>
      </trkpt>
      <trkpt lat="44.57256" lon="0.80721">
        <ele>126</ele>
        <time>2012-01-30T15:25:28Z</time>
      </trkpt>
      <trkpt lat="44.57259" lon="0.80719">
        <ele>126</ele>
        <time>2012-01-30T15:25:29Z</time>
      </trkpt>
      <trkpt lat="44.57261" lon="0.80716">
        <ele>126</ele>
        <time>2012-01-30T15:25:30Z</time>
      </trkpt>
      <trkpt lat="44.57264" lon="0.80713">
        <ele>126</ele>
        <time>2012-01-30T15:25:31Z</time>
      </trkpt>
      <trkpt lat="44.57266" lon="0.80711">
        <ele>126</ele>
        <time>2012-01-30T15:25:32Z</time>
      </trkpt>
      <trkpt lat="44.57267" lon="0.80709">
        <ele>126</ele>
        <time>2012-01-30T15:25:33Z</time>
      </trkpt>
      <trkpt lat="44.57269" lon="0.80708">
        <ele>126</ele>
        <time>2012-01-30T15:25:34Z</time>
      </trkpt>
      <trkpt lat="44.5727" lon="0.80707">
        <ele>126</ele>
        <time>2012-01-30T15:25:35Z</time>
      </trkpt>
      <trkpt lat="44.57272" lon="0.80705">
        <ele>126</ele>
        <time>2012-01-30T15:25:36Z</time>
      </trkpt>
      <trkpt lat="44.57274" lon="0.80704">
        <ele>125</ele>
        <time>2012-01-30T15:25:37Z</time>
      </trkpt>
      <trkpt lat="44.57277" lon="0.80701">
        <ele>125</ele>
        <time>2012-01-30T15:25:38Z</time>
      </trkpt>
      <trkpt lat="44.57279" lon="0.80699">
        <ele>125</ele>
        <time>2012-01-30T15:25:39Z</time>
      </trkpt>
      <trkpt lat="44.57282" lon="0.80698">
        <ele>124</ele>
        <time>2012-01-30T15:25:40Z</time>
      </trkpt>
      <trkpt lat="44.57285" lon="0.80695">
        <ele>124</ele>
        <time>2012-01-30T15:25:41Z</time>
      </trkpt>
      <trkpt lat="44.57288" lon="0.80692">
        <ele>124</ele>
        <time>2012-01-30T15:25:42Z</time>
      </trkpt>
      <trkpt lat="44.57291" lon="0.8069">
        <ele>124</ele>
        <time>2012-01-30T15:25:43Z</time>
      </trkpt>
      <trkpt lat="44.57294" lon="0.80687">
        <ele>124</ele>
        <time>2012-01-30T15:25:44Z</time>
      </trkpt>
      <trkpt lat="44.57297" lon="0.80684">
        <ele>124</ele>
        <time>2012-01-30T15:25:45Z</time>
      </trkpt>
      <trkpt lat="44.573" lon="0.80682">
        <ele>124</ele>
        <time>2012-01-30T15:25:46Z</time>
      </trkpt>
      <trkpt lat="44.57303" lon="0.8068">
        <ele>124</ele>
        <time>2012-01-30T15:25:47Z</time>
      </trkpt>
      <trkpt lat="44.57306" lon="0.80677">
        <ele>124</ele>
        <time>2012-01-30T15:25:48Z</time>
      </trkpt>
      <trkpt lat="44.5731" lon="0.80674">
        <ele>124</ele>
        <time>2012-01-30T15:25:49Z</time>
      </trkpt>
      <trkpt lat="44.57314" lon="0.8067">
        <ele>124</ele>
        <time>2012-01-30T15:25:50Z</time>
      </trkpt>
      <trkpt lat="44.57317" lon="0.80668">
        <ele>124</ele>
        <time>2012-01-30T15:25:51Z</time>
      </trkpt>
      <trkpt lat="44.5732" lon="0.80665">
        <ele>124</ele>
        <time>2012-01-30T15:25:52Z</time>
      </trkpt>
      <trkpt lat="44.57324" lon="0.80661">
        <ele>124</ele>
        <time>2012-01-30T15:25:53Z</time>
      </trkpt>
      <trkpt lat="44.57327" lon="0.80657">
        <ele>124</ele>
        <time>2012-01-30T15:25:54Z</time>
      </trkpt>
      <trkpt lat="44.57329" lon="0.80654">
        <ele>124</ele>
        <time>2012-01-30T15:25:55Z</time>
      </trkpt>
      <trkpt lat="44.57331" lon="0.80651">
        <ele>124</ele>
        <time>2012-01-30T15:25:56Z</time>
      </trkpt>
      <trkpt lat="44.57333" lon="0.80648">
        <ele>124</ele>
        <time>2012-01-30T15:25:57Z</time>
      </trkpt>
      <trkpt lat="44.57336" lon="0.80645">
        <ele>124</ele>
        <time>2012-01-30T15:25:58Z</time>
      </trkpt>
      <trkpt lat="44.57339" lon="0.80641">
        <ele>124</ele>
        <time>2012-01-30T15:25:59Z</time>
      </trkpt>
      <trkpt lat="44.57341" lon="0.80638">
        <ele>124</ele>
        <time>2012-01-30T15:26:00Z</time>
      </trkpt>
      <trkpt lat="44.57343" lon="0.80634">
        <ele>124</ele>
        <time>2012-01-30T15:26:01Z</time>
      </trkpt>
      <trkpt lat="44.57344" lon="0.8063">
        <ele>124</ele>
        <time>2012-01-30T15:26:02Z</time>
      </trkpt>
      <trkpt lat="44.57346" lon="0.80627">
        <ele>124</ele>
        <time>2012-01-30T15:26:03Z</time>
      </trkpt>
      <trkpt lat="44.57349" lon="0.80624">
        <ele>124</ele>
        <time>2012-01-30T15:26:04Z</time>
      </trkpt>
      <trkpt lat="44.57351" lon="0.8062">
        <ele>124</ele>
        <time>2012-01-30T15:26:05Z</time>
      </trkpt>
      <trkpt lat="44.57352" lon="0.80616">
        <ele>124</ele>
        <time>2012-01-30T15:26:06Z</time>
      </trkpt>
      <trkpt lat="44.57355" lon="0.80612">
        <ele>124</ele>
        <time>2012-01-30T15:26:07Z</time>
      </trkpt>
      <trkpt lat="44.57358" lon="0.80608">
        <ele>124</ele>
        <time>2012-01-30T15:26:08Z</time>
      </trkpt>
      <trkpt lat="44.57362" lon="0.80603">
        <ele>124</ele>
        <time>2012-01-30T15:26:09Z</time>
      </trkpt>
      <trkpt lat="44.57365" lon="0.80598">
        <ele>124</ele>
        <time>2012-01-30T15:26:10Z</time>
      </trkpt>
      <trkpt lat="44.57369" lon="0.80593">
        <ele>124</ele>
        <time>2012-01-30T15:26:11Z</time>
      </trkpt>
      <trkpt lat="44.57373" lon="0.80587">
        <ele>124</ele>
        <time>2012-01-30T15:26:12Z</time>
      </trkpt>
      <trkpt lat="44.57376" lon="0.80581">
        <ele>124</ele>
        <time>2012-01-30T15:26:13Z</time>
      </trkpt>
      <trkpt lat="44.57379" lon="0.80576">
        <ele>124</ele>
        <time>2012-01-30T15:26:14Z</time>
      </trkpt>
      <trkpt lat="44.57382" lon="0.80572">
        <ele>124</ele>
        <time>2012-01-30T15:26:15Z</time>
      </trkpt>
      <trkpt lat="44.57385" lon="0.80569">
        <ele>124</ele>
        <time>2012-01-30T15:26:16Z</time>
      </trkpt>
      <trkpt lat="44.57389" lon="0.80566">
        <ele>124</ele>
        <time>2012-01-30T15:26:17Z</time>
      </trkpt>
      <trkpt lat="44.57393" lon="0.80564">
        <ele>123</ele>
        <time>2012-01-30T15:26:18Z</time>
      </trkpt>
      <trkpt lat="44.57397" lon="0.80564">
        <ele>123</ele>
        <time>2012-01-30T15:26:19Z</time>
      </trkpt>
      <trkpt lat="44.57401" lon="0.80565">
        <ele>122</ele>
        <time>2012-01-30T15:26:20Z</time>
      </trkpt>
      <trkpt lat="44.57403" lon="0.80568">
        <ele>121</ele>
        <time>2012-01-30T15:26:21Z</time>
      </trkpt>
      <trkpt lat="44.57406" lon="0.80572">
        <ele>121</ele>
        <time>2012-01-30T15:26:22Z</time>
      </trkpt>
      <trkpt lat="44.57408" lon="0.80577">
        <ele>120</ele>
        <time>2012-01-30T15:26:23Z</time>
      </trkpt>
      <trkpt lat="44.57411" lon="0.80581">
        <ele>120</ele>
        <time>2012-01-30T15:26:24Z</time>
      </trkpt>
      <trkpt lat="44.57413" lon="0.80586">
        <ele>119</ele>
        <time>2012-01-30T15:26:25Z</time>
      </trkpt>
      <trkpt lat="44.57415" lon="0.80592">
        <ele>119</ele>
        <time>2012-01-30T15:26:26Z</time>
      </trkpt>
      <trkpt lat="44.57417" lon="0.80598">
        <ele>118</ele>
        <time>2012-01-30T15:26:27Z</time>
      </trkpt>
      <trkpt lat="44.57416" lon="0.80605">
        <ele>118</ele>
        <time>2012-01-30T15:26:28Z</time>
      </trkpt>
      <trkpt lat="44.57416" lon="0.80612">
        <ele>118</ele>
        <time>2012-01-30T15:26:29Z</time>
      </trkpt>
      <trkpt lat="44.57416" lon="0.8062">
        <ele>117</ele>
        <time>2012-01-30T15:26:30Z</time>
      </trkpt>
      <trkpt lat="44.57416" lon="0.80628">
        <ele>116</ele>
        <time>2012-01-30T15:26:31Z</time>
      </trkpt>
      <trkpt lat="44.57415" lon="0.80636">
        <ele>116</ele>
        <time>2012-01-30T15:26:32Z</time>
      </trkpt>
      <trkpt lat="44.57415" lon="0.80644">
        <ele>115</ele>
        <time>2012-01-30T15:26:33Z</time>
      </trkpt>
      <trkpt lat="44.57415" lon="0.80653">
        <ele>114</ele>
        <time>2012-01-30T15:26:34Z</time>
      </trkpt>
      <trkpt lat="44.57415" lon="0.80661">
        <ele>114</ele>
        <time>2012-01-30T15:26:35Z</time>
      </trkpt>
      <trkpt lat="44.57414" lon="0.80669">
        <ele>113</ele>
        <time>2012-01-30T15:26:36Z</time>
      </trkpt>
      <trkpt lat="44.57414" lon="0.80677">
        <ele>113</ele>
        <time>2012-01-30T15:26:37Z</time>
      </trkpt>
      <trkpt lat="44.57414" lon="0.80686">
        <ele>113</ele>
        <time>2012-01-30T15:26:38Z</time>
      </trkpt>
      <trkpt lat="44.57414" lon="0.80694">
        <ele>112</ele>
        <time>2012-01-30T15:26:39Z</time>
      </trkpt>
      <trkpt lat="44.57414" lon="0.80702">
        <ele>111</ele>
        <time>2012-01-30T15:26:40Z</time>
      </trkpt>
      <trkpt lat="44.57414" lon="0.80709">
        <ele>111</ele>
        <time>2012-01-30T15:26:41Z</time>
      </trkpt>
      <trkpt lat="44.57413" lon="0.80716">
        <ele>110</ele>
        <time>2012-01-30T15:26:42Z</time>
      </trkpt>
      <trkpt lat="44.57414" lon="0.80721">
        <ele>109</ele>
        <time>2012-01-30T15:26:43Z</time>
      </trkpt>
      <trkpt lat="44.57414" lon="0.80727">
        <ele>108</ele>
        <time>2012-01-30T15:26:44Z</time>
      </trkpt>
      <trkpt lat="44.57414" lon="0.80733">
        <ele>108</ele>
        <time>2012-01-30T15:26:45Z</time>
      </trkpt>
      <trkpt lat="44.57415" lon="0.80739">
        <ele>107</ele>
        <time>2012-01-30T15:26:46Z</time>
      </trkpt>
      <trkpt lat="44.57415" lon="0.80746">
        <ele>107</ele>
        <time>2012-01-30T15:26:47Z</time>
      </trkpt>
      <trkpt lat="44.57415" lon="0.80754">
        <ele>106</ele>
        <time>2012-01-30T15:26:48Z</time>
      </trkpt>
      <trkpt lat="44.57414" lon="0.80762">
        <ele>106</ele>
        <time>2012-01-30T15:26:49Z</time>
      </trkpt>
      <trkpt lat="44.57413" lon="0.80769">
        <ele>105</ele>
        <time>2012-01-30T15:26:50Z</time>
      </trkpt>
      <trkpt lat="44.57412" lon="0.80776">
        <ele>104</ele>
        <time>2012-01-30T15:26:51Z</time>
      </trkpt>
      <trkpt lat="44.5741" lon="0.80782">
        <ele>104</ele>
        <time>2012-01-30T15:26:52Z</time>
      </trkpt>
      <trkpt lat="44.57409" lon="0.80788">
        <ele>103</ele>
        <time>2012-01-30T15:26:53Z</time>
      </trkpt>
      <trkpt lat="44.57408" lon="0.80795">
        <ele>103</ele>
        <time>2012-01-30T15:26:54Z</time>
      </trkpt>
      <trkpt lat="44.57407" lon="0.80802">
        <ele>103</ele>
        <time>2012-01-30T15:26:55Z</time>
      </trkpt>
      <trkpt lat="44.57407" lon="0.80809">
        <ele>103</ele>
        <time>2012-01-30T15:26:56Z</time>
      </trkpt>
      <trkpt lat="44.57407" lon="0.80816">
        <ele>103</ele>
        <time>2012-01-30T15:26:57Z</time>
      </trkpt>
      <trkpt lat="44.57406" lon="0.80822">
        <ele>103</ele>
        <time>2012-01-30T15:26:58Z</time>
      </trkpt>
      <trkpt lat="44.57406" lon="0.80829">
        <ele>103</ele>
        <time>2012-01-30T15:26:59Z</time>
      </trkpt>
      <trkpt lat="44.57406" lon="0.80836">
        <ele>103</ele>
        <time>2012-01-30T15:27:00Z</time>
      </trkpt>
      <trkpt lat="44.57406" lon="0.80843">
        <ele>103</ele>
        <time>2012-01-30T15:27:01Z</time>
      </trkpt>
      <trkpt lat="44.57407" lon="0.80848">
        <ele>102</ele>
        <time>2012-01-30T15:27:02Z</time>
      </trkpt>
      <trkpt lat="44.57408" lon="0.80853">
        <ele>101</ele>
        <time>2012-01-30T15:27:03Z</time>
      </trkpt>
      <trkpt lat="44.57408" lon="0.80859">
        <ele>101</ele>
        <time>2012-01-30T15:27:04Z</time>
      </trkpt>
      <trkpt lat="44.57407" lon="0.80864">
        <ele>100</ele>
        <time>2012-01-30T15:27:05Z</time>
      </trkpt>
      <trkpt lat="44.57404" lon="0.80869">
        <ele>100</ele>
        <time>2012-01-30T15:27:06Z</time>
      </trkpt>
      <trkpt lat="44.57402" lon="0.80874">
        <ele>99</ele>
        <time>2012-01-30T15:27:07Z</time>
      </trkpt>
      <trkpt lat="44.57399" lon="0.80879">
        <ele>98</ele>
        <time>2012-01-30T15:27:08Z</time>
      </trkpt>
      <trkpt lat="44.57397" lon="0.80884">
        <ele>98</ele>
        <time>2012-01-30T15:27:09Z</time>
      </trkpt>
      <trkpt lat="44.57395" lon="0.80888">
        <ele>97</ele>
        <time>2012-01-30T15:27:10Z</time>
      </trkpt>
      <trkpt lat="44.57393" lon="0.80892">
        <ele>97</ele>
        <time>2012-01-30T15:27:11Z</time>
      </trkpt>
      <trkpt lat="44.57391" lon="0.80896">
        <ele>96</ele>
        <time>2012-01-30T15:27:12Z</time>
      </trkpt>
      <trkpt lat="44.57389" lon="0.809">
        <ele>96</ele>
        <time>2012-01-30T15:27:13Z</time>
      </trkpt>
      <trkpt lat="44.57388" lon="0.80904">
        <ele>96</ele>
        <time>2012-01-30T15:27:14Z</time>
      </trkpt>
      <trkpt lat="44.57386" lon="0.80908">
        <ele>95</ele>
        <time>2012-01-30T15:27:15Z</time>
      </trkpt>
      <trkpt lat="44.57384" lon="0.80912">
        <ele>95</ele>
        <time>2012-01-30T15:27:16Z</time>
      </trkpt>
      <trkpt lat="44.57383" lon="0.80915">
        <ele>94</ele>
        <time>2012-01-30T15:27:17Z</time>
      </trkpt>
      <trkpt lat="44.57383" lon="0.8092">
        <ele>93</ele>
        <time>2012-01-30T15:27:18Z</time>
      </trkpt>
      <trkpt lat="44.57382" lon="0.80926">
        <ele>93</ele>
        <time>2012-01-30T15:27:19Z</time>
      </trkpt>
      <trkpt lat="44.57383" lon="0.80931">
        <ele>92</ele>
        <time>2012-01-30T15:27:20Z</time>
      </trkpt>
      <trkpt lat="44.57386" lon="0.80937">
        <ele>92</ele>
        <time>2012-01-30T15:27:21Z</time>
      </trkpt>
      <trkpt lat="44.5739" lon="0.80942">
        <ele>92</ele>
        <time>2012-01-30T15:27:22Z</time>
      </trkpt>
      <trkpt lat="44.57394" lon="0.80947">
        <ele>92</ele>
        <time>2012-01-30T15:27:23Z</time>
      </trkpt>
      <trkpt lat="44.57398" lon="0.80951">
        <ele>92</ele>
        <time>2012-01-30T15:27:24Z</time>
      </trkpt>
      <trkpt lat="44.57401" lon="0.80955">
        <ele>91</ele>
        <time>2012-01-30T15:27:25Z</time>
      </trkpt>
      <trkpt lat="44.57404" lon="0.80959">
        <ele>91</ele>
        <time>2012-01-30T15:27:26Z</time>
      </trkpt>
      <trkpt lat="44.57408" lon="0.80963">
        <ele>91</ele>
        <time>2012-01-30T15:27:27Z</time>
      </trkpt>
      <trkpt lat="44.57411" lon="0.80966">
        <ele>91</ele>
        <time>2012-01-30T15:27:28Z</time>
      </trkpt>
      <trkpt lat="44.57414" lon="0.8097">
        <ele>90</ele>
        <time>2012-01-30T15:27:29Z</time>
      </trkpt>
      <trkpt lat="44.57417" lon="0.80973">
        <ele>90</ele>
        <time>2012-01-30T15:27:30Z</time>
      </trkpt>
      <trkpt lat="44.5742" lon="0.80976">
        <ele>90</ele>
        <time>2012-01-30T15:27:31Z</time>
      </trkpt>
      <trkpt lat="44.57423" lon="0.80979">
        <ele>90</ele>
        <time>2012-01-30T15:27:32Z</time>
      </trkpt>
      <trkpt lat="44.57426" lon="0.80982">
        <ele>90</ele>
        <time>2012-01-30T15:27:33Z</time>
      </trkpt>
      <trkpt lat="44.57429" lon="0.80985">
        <ele>90</ele>
        <time>2012-01-30T15:27:34Z</time>
      </trkpt>
      <trkpt lat="44.57432" lon="0.80988">
        <ele>90</ele>
        <time>2012-01-30T15:27:35Z</time>
      </trkpt>
      <trkpt lat="44.57435" lon="0.80991">
        <ele>90</ele>
        <time>2012-01-30T15:27:36Z</time>
      </trkpt>
      <trkpt lat="44.57438" lon="0.80994">
        <ele>90</ele>
        <time>2012-01-30T15:27:37Z</time>
      </trkpt>
      <trkpt lat="44.57441" lon="0.80997">
        <ele>90</ele>
        <time>2012-01-30T15:27:38Z</time>
      </trkpt>
      <trkpt lat="44.57444" lon="0.81">
        <ele>90</ele>
        <time>2012-01-30T15:27:39Z</time>
      </trkpt>
      <trkpt lat="44.57447" lon="0.81003">
        <ele>90</ele>
        <time>2012-01-30T15:27:40Z</time>
      </trkpt>
      <trkpt lat="44.5745" lon="0.81006">
        <ele>90</ele>
        <time>2012-01-30T15:27:41Z</time>
      </trkpt>
      <trkpt lat="44.57453" lon="0.81009">
        <ele>90</ele>
        <time>2012-01-30T15:27:42Z</time>
      </trkpt>
      <trkpt lat="44.57456" lon="0.81012">
        <ele>90</ele>
        <time>2012-01-30T15:27:43Z</time>
      </trkpt>
      <trkpt lat="44.57459" lon="0.81015">
        <ele>90</ele>
        <time>2012-01-30T15:27:44Z</time>
      </trkpt>
      <trkpt lat="44.57462" lon="0.81019">
        <ele>90</ele>
        <time>2012-01-30T15:27:45Z</time>
      </trkpt>
      <trkpt lat="44.57464" lon="0.81023">
        <ele>90</ele>
        <time>2012-01-30T15:27:46Z</time>
      </trkpt>
      <trkpt lat="44.57466" lon="0.81028">
        <ele>90</ele>
        <time>2012-01-30T15:27:47Z</time>
      </trkpt>
      <trkpt lat="44.57467" lon="0.81033">
        <ele>90</ele>
        <time>2012-01-30T15:27:48Z</time>
      </trkpt>
      <trkpt lat="44.57468" lon="0.81038">
        <ele>90</ele>
        <time>2012-01-30T15:27:49Z</time>
      </trkpt>
      <trkpt lat="44.57468" lon="0.81043">
        <ele>90</ele>
        <time>2012-01-30T15:27:50Z</time>
      </trkpt>
      <trkpt lat="44.57468" lon="0.81049">
        <ele>90</ele>
        <time>2012-01-30T15:27:51Z</time>
      </trkpt>
      <trkpt lat="44.57468" lon="0.81055">
        <ele>90</ele>
        <time>2012-01-30T15:27:52Z</time>
      </trkpt>
      <trkpt lat="44.57468" lon="0.8106">
        <ele>90</ele>
        <time>2012-01-30T15:27:53Z</time>
      </trkpt>
      <trkpt lat="44.57468" lon="0.81065">
        <ele>90</ele>
        <time>2012-01-30T15:27:54Z</time>
      </trkpt>
      <trkpt lat="44.57467" lon="0.81069">
        <ele>90</ele>
        <time>2012-01-30T15:27:55Z</time>
      </trkpt>
      <trkpt lat="44.57466" lon="0.81073">
        <ele>90</ele>
        <time>2012-01-30T15:27:56Z</time>
      </trkpt>
      <trkpt lat="44.57465" lon="0.81078">
        <ele>90</ele>
        <time>2012-01-30T15:27:57Z</time>
      </trkpt>
      <trkpt lat="44.57464" lon="0.81082">
        <ele>90</ele>
        <time>2012-01-30T15:27:58Z</time>
      </trkpt>
      <trkpt lat="44.57463" lon="0.81087">
        <ele>90</ele>
        <time>2012-01-30T15:27:59Z</time>
      </trkpt>
      <trkpt lat="44.57463" lon="0.81091">
        <ele>90</ele>
        <time>2012-01-30T15:28:00Z</time>
      </trkpt>
      <trkpt lat="44.57462" lon="0.81096">
        <ele>90</ele>
        <time>2012-01-30T15:28:01Z</time>
      </trkpt>
      <trkpt lat="44.57462" lon="0.811">
        <ele>90</ele>
        <time>2012-01-30T15:28:02Z</time>
      </trkpt>
      <trkpt lat="44.57461" lon="0.81105">
        <ele>90</ele>
        <time>2012-01-30T15:28:03Z</time>
      </trkpt>
      <trkpt lat="44.57461" lon="0.81109">
        <ele>90</ele>
        <time>2012-01-30T15:28:04Z</time>
      </trkpt>
      <trkpt lat="44.5746" lon="0.81114">
        <ele>90</ele>
        <time>2012-01-30T15:28:05Z</time>
      </trkpt>
      <trkpt lat="44.5746" lon="0.81118">
        <ele>90</ele>
        <time>2012-01-30T15:28:06Z</time>
      </trkpt>
      <trkpt lat="44.57459" lon="0.81122">
        <ele>90</ele>
        <time>2012-01-30T15:28:07Z</time>
      </trkpt>
      <trkpt lat="44.57459" lon="0.81127">
        <ele>90</ele>
        <time>2012-01-30T15:28:08Z</time>
      </trkpt>
      <trkpt lat="44.57458" lon="0.81131">
        <ele>90</ele>
        <time>2012-01-30T15:28:09Z</time>
      </trkpt>
      <trkpt lat="44.57457" lon="0.81136">
        <ele>90</ele>
        <time>2012-01-30T15:28:10Z</time>
      </trkpt>
      <trkpt lat="44.57457" lon="0.8114">
        <ele>90</ele>
        <time>2012-01-30T15:28:11Z</time>
      </trkpt>
      <trkpt lat="44.57456" lon="0.81144">
        <ele>90</ele>
        <time>2012-01-30T15:28:12Z</time>
      </trkpt>
      <trkpt lat="44.57455" lon="0.81147">
        <ele>90</ele>
        <time>2012-01-30T15:28:13Z</time>
      </trkpt>
      <trkpt lat="44.57455" lon="0.8115">
        <ele>90</ele>
        <time>2012-01-30T15:28:14Z</time>
      </trkpt>
      <trkpt lat="44.57454" lon="0.81152">
        <ele>90</ele>
        <time>2012-01-30T15:28:15Z</time>
      </trkpt>
      <trkpt lat="44.57453" lon="0.81155">
        <ele>90</ele>
        <time>2012-01-30T15:28:16Z</time>
      </trkpt>
      <trkpt lat="44.57453" lon="0.81157">
        <ele>90</ele>
        <time>2012-01-30T15:28:17Z</time>
      </trkpt>
      <trkpt lat="44.57452" lon="0.8116">
        <ele>90</ele>
        <time>2012-01-30T15:28:18Z</time>
      </trkpt>
      <trkpt lat="44.57452" lon="0.81163">
        <ele>90</ele>
        <time>2012-01-30T15:28:19Z</time>
      </trkpt>
      <trkpt lat="44.57451" lon="0.81166">
        <ele>90</ele>
        <time>2012-01-30T15:28:20Z</time>
      </trkpt>
      <trkpt lat="44.5745" lon="0.81169">
        <ele>90</ele>
        <time>2012-01-30T15:28:21Z</time>
      </trkpt>
      <trkpt lat="44.5745" lon="0.81171">
        <ele>90</ele>
        <time>2012-01-30T15:28:22Z</time>
      </trkpt>
      <trkpt lat="44.57449" lon="0.81173">
        <ele>90</ele>
        <time>2012-01-30T15:28:23Z</time>
      </trkpt>
      <trkpt lat="44.57448" lon="0.81176">
        <ele>90</ele>
        <time>2012-01-30T15:28:24Z</time>
      </trkpt>
      <trkpt lat="44.57447" lon="0.81178">
        <ele>90</ele>
        <time>2012-01-30T15:28:25Z</time>
      </trkpt>
      <trkpt lat="44.57447" lon="0.81181">
        <ele>90</ele>
        <time>2012-01-30T15:28:26Z</time>
      </trkpt>
      <trkpt lat="44.57446" lon="0.81183">
        <ele>90</ele>
        <time>2012-01-30T15:28:27Z</time>
      </trkpt>
      <trkpt lat="44.57445" lon="0.81186">
        <ele>90</ele>
        <time>2012-01-30T15:28:28Z</time>
      </trkpt>
      <trkpt lat="44.57444" lon="0.81189">
        <ele>90</ele>
        <time>2012-01-30T15:28:29Z</time>
      </trkpt>
      <trkpt lat="44.57444" lon="0.81191">
        <ele>90</ele>
        <time>2012-01-30T15:28:30Z</time>
      </trkpt>
      <trkpt lat="44.57444" lon="0.81194">
        <ele>90</ele>
        <time>2012-01-30T15:28:31Z</time>
      </trkpt>
      <trkpt lat="44.57443" lon="0.81197">
        <ele>90</ele>
        <time>2012-01-30T15:28:32Z</time>
      </trkpt>
      <trkpt lat="44.57442" lon="0.81199">
        <ele>90</ele>
        <time>2012-01-30T15:28:33Z</time>
      </trkpt>
      <trkpt lat="44.57441" lon="0.81201">
        <ele>90</ele>
        <time>2012-01-30T15:28:34Z</time>
      </trkpt>
      <trkpt lat="44.57441" lon="0.81202">
        <ele>90</ele>
        <time>2012-01-30T15:28:35Z</time>
      </trkpt>
      <trkpt lat="44.5744" lon="0.81205">
        <ele>91</ele>
        <time>2012-01-30T15:28:36Z</time>
      </trkpt>
      <trkpt lat="44.5744" lon="0.81207">
        <ele>92</ele>
        <time>2012-01-30T15:28:37Z</time>
      </trkpt>
      <trkpt lat="44.5744" lon="0.8121">
        <ele>93</ele>
        <time>2012-01-30T15:28:38Z</time>
      </trkpt>
      <trkpt lat="44.57441" lon="0.81212">
        <ele>93</ele>
        <time>2012-01-30T15:28:39Z</time>
      </trkpt>
      <trkpt lat="44.57441" lon="0.81214">
        <ele>93</ele>
        <time>2012-01-30T15:28:40Z</time>
      </trkpt>
      <trkpt lat="44.57442" lon="0.81216">
        <ele>93</ele>
        <time>2012-01-30T15:28:41Z</time>
      </trkpt>
      <trkpt lat="44.57444" lon="0.81218">
        <ele>94</ele>
        <time>2012-01-30T15:28:42Z</time>
      </trkpt>
      <trkpt lat="44.57445" lon="0.81219">
        <ele>94</ele>
        <time>2012-01-30T15:28:43Z</time>
      </trkpt>
      <trkpt lat="44.57447" lon="0.81221">
        <ele>94</ele>
        <time>2012-01-30T15:28:44Z</time>
      </trkpt>
      <trkpt lat="44.57448" lon="0.81223">
        <ele>94</ele>
        <time>2012-01-30T15:28:45Z</time>
      </trkpt>
      <trkpt lat="44.57449" lon="0.81225">
        <ele>95</ele>
        <time>2012-01-30T15:28:46Z</time>
      </trkpt>
      <trkpt lat="44.5745" lon="0.81227">
        <ele>95</ele>
        <time>2012-01-30T15:28:47Z</time>
      </trkpt>
      <trkpt lat="44.57452" lon="0.81228">
        <ele>95</ele>
        <time>2012-01-30T15:28:48Z</time>
      </trkpt>
      <trkpt lat="44.57453" lon="0.8123">
        <ele>95</ele>
        <time>2012-01-30T15:28:49Z</time>
      </trkpt>
      <trkpt lat="44.57455" lon="0.81231">
        <ele>95</ele>
        <time>2012-01-30T15:28:50Z</time>
      </trkpt>
      <trkpt lat="44.57456" lon="0.81233">
        <ele>96</ele>
        <time>2012-01-30T15:28:51Z</time>
      </trkpt>
      <trkpt lat="44.57458" lon="0.81234">
        <ele>96</ele>
        <time>2012-01-30T15:28:52Z</time>
      </trkpt>
      <trkpt lat="44.57459" lon="0.81235">
        <ele>96</ele>
        <time>2012-01-30T15:28:53Z</time>
      </trkpt>
      <trkpt lat="44.57461" lon="0.81237">
        <ele>96</ele>
        <time>2012-01-30T15:28:54Z</time>
      </trkpt>
      <trkpt lat="44.57463" lon="0.81238">
        <ele>96</ele>
        <time>2012-01-30T15:28:55Z</time>
      </trkpt>
      <trkpt lat="44.57464" lon="0.8124">
        <ele>96</ele>
        <time>2012-01-30T15:28:56Z</time>
      </trkpt>
      <trkpt lat="44.57466" lon="0.81241">
        <ele>97</ele>
        <time>2012-01-30T15:28:57Z</time>
      </trkpt>
      <trkpt lat="44.57467" lon="0.81243">
        <ele>97</ele>
        <time>2012-01-30T15:28:58Z</time>
      </trkpt>
      <trkpt lat="44.57469" lon="0.81244">
        <ele>97</ele>
        <time>2012-01-30T15:28:59Z</time>
      </trkpt>
      <trkpt lat="44.5747" lon="0.81246">
        <ele>97</ele>
        <time>2012-01-30T15:29:00Z</time>
      </trkpt>
      <trkpt lat="44.57472" lon="0.81247">
        <ele>97</ele>
        <time>2012-01-30T15:29:01Z</time>
      </trkpt>
      <trkpt lat="44.57474" lon="0.81249">
        <ele>97</ele>
        <time>2012-01-30T15:29:02Z</time>
      </trkpt>
      <trkpt lat="44.57476" lon="0.81251">
        <ele>97</ele>
        <time>2012-01-30T15:29:03Z</time>
      </trkpt>
      <trkpt lat="44.57477" lon="0.81252">
        <ele>97</ele>
        <time>2012-01-30T15:29:04Z</time>
      </trkpt>
      <trkpt lat="44.57479" lon="0.81253">
        <ele>97</ele>
        <time>2012-01-30T15:29:05Z</time>
      </trkpt>
      <trkpt lat="44.57481" lon="0.81254">
        <ele>97</ele>
        <time>2012-01-30T15:29:06Z</time>
      </trkpt>
      <trkpt lat="44.57482" lon="0.81256">
        <ele>97</ele>
        <time>2012-01-30T15:29:07Z</time>
      </trkpt>
      <trkpt lat="44.57484" lon="0.81257">
        <ele>97</ele>
        <time>2012-01-30T15:29:08Z</time>
      </trkpt>
      <trkpt lat="44.57485" lon="0.81258">
        <ele>98</ele>
        <time>2012-01-30T15:29:09Z</time>
      </trkpt>
      <trkpt lat="44.57487" lon="0.8126">
        <ele>98</ele>
        <time>2012-01-30T15:29:10Z</time>
      </trkpt>
      <trkpt lat="44.57488" lon="0.81261">
        <ele>98</ele>
        <time>2012-01-30T15:29:11Z</time>
      </trkpt>
      <trkpt lat="44.5749" lon="0.81262">
        <ele>98</ele>
        <time>2012-01-30T15:29:12Z</time>
      </trkpt>
      <trkpt lat="44.57492" lon="0.81264">
        <ele>98</ele>
        <time>2012-01-30T15:29:13Z</time>
      </trkpt>
      <trkpt lat="44.57493" lon="0.81265">
        <ele>98</ele>
        <time>2012-01-30T15:29:14Z</time>
      </trkpt>
      <trkpt lat="44.57495" lon="0.81266">
        <ele>98</ele>
        <time>2012-01-30T15:29:15Z</time>
      </trkpt>
      <trkpt lat="44.57496" lon="0.81267">
        <ele>98</ele>
        <time>2012-01-30T15:29:16Z</time>
      </trkpt>
      <trkpt lat="44.57498" lon="0.81268">
        <ele>98</ele>
        <time>2012-01-30T15:29:17Z</time>
      </trkpt>
      <trkpt lat="44.57499" lon="0.81268">
        <ele>98</ele>
        <time>2012-01-30T15:29:18Z</time>
      </trkpt>
      <trkpt lat="44.57501" lon="0.81269">
        <ele>98</ele>
        <time>2012-01-30T15:29:19Z</time>
      </trkpt>
      <trkpt lat="44.57502" lon="0.81269">
        <ele>98</ele>
        <time>2012-01-30T15:29:20Z</time>
      </trkpt>
      <trkpt lat="44.57504" lon="0.81269">
        <ele>98</ele>
        <time>2012-01-30T15:29:21Z</time>
      </trkpt>
      <trkpt lat="44.57505" lon="0.81269">
        <ele>98</ele>
        <time>2012-01-30T15:29:22Z</time>
      </trkpt>
      <trkpt lat="44.57506" lon="0.81269">
        <ele>98</ele>
        <time>2012-01-30T15:29:23Z</time>
      </trkpt>
      <trkpt lat="44.57507" lon="0.8127">
        <ele>98</ele>
        <time>2012-01-30T15:29:24Z</time>
      </trkpt>
      <trkpt lat="44.57509" lon="0.8127">
        <ele>98</ele>
        <time>2012-01-30T15:29:25Z</time>
      </trkpt>
      <trkpt lat="44.57511" lon="0.8127">
        <ele>98</ele>
        <time>2012-01-30T15:29:26Z</time>
      </trkpt>
      <trkpt lat="44.57513" lon="0.8127">
        <ele>98</ele>
        <time>2012-01-30T15:29:27Z</time>
      </trkpt>
      <trkpt lat="44.57515" lon="0.8127">
        <ele>98</ele>
        <time>2012-01-30T15:29:28Z</time>
      </trkpt>
      <trkpt lat="44.57517" lon="0.8127">
        <ele>98</ele>
        <time>2012-01-30T15:29:29Z</time>
      </trkpt>
      <trkpt lat="44.57519" lon="0.8127">
        <ele>98</ele>
        <time>2012-01-30T15:29:30Z</time>
      </trkpt>
      <trkpt lat="44.57522" lon="0.8127">
        <ele>98</ele>
        <time>2012-01-30T15:29:31Z</time>
      </trkpt>
      <trkpt lat="44.57525" lon="0.8127">
        <ele>98</ele>
        <time>2012-01-30T15:29:32Z</time>
      </trkpt>
      <trkpt lat="44.57528" lon="0.81269">
        <ele>98</ele>
        <time>2012-01-30T15:29:33Z</time>
      </trkpt>
      <trkpt lat="44.57531" lon="0.81269">
        <ele>98</ele>
        <time>2012-01-30T15:29:34Z</time>
      </trkpt>
      <trkpt lat="44.57533" lon="0.81268">
        <ele>98</ele>
        <time>2012-01-30T15:29:35Z</time>
      </trkpt>
      <trkpt lat="44.57535" lon="0.81268">
        <ele>98</ele>
        <time>2012-01-30T15:29:36Z</time>
      </trkpt>
      <trkpt lat="44.57537" lon="0.81268">
        <ele>98</ele>
        <time>2012-01-30T15:29:37Z</time>
      </trkpt>
      <trkpt lat="44.5754" lon="0.81268">
        <ele>98</ele>
        <time>2012-01-30T15:29:38Z</time>
      </trkpt>
      <trkpt lat="44.57543" lon="0.81268">
        <ele>98</ele>
        <time>2012-01-30T15:29:39Z</time>
      </trkpt>
      <trkpt lat="44.57547" lon="0.81268">
        <ele>98</ele>
        <time>2012-01-30T15:29:40Z</time>
      </trkpt>
      <trkpt lat="44.5755" lon="0.81268">
        <ele>98</ele>
        <time>2012-01-30T15:29:41Z</time>
      </trkpt>
      <trkpt lat="44.57554" lon="0.81267">
        <ele>98</ele>
        <time>2012-01-30T15:29:42Z</time>
      </trkpt>
      <trkpt lat="44.57558" lon="0.81266">
        <ele>98</ele>
        <time>2012-01-30T15:29:43Z</time>
      </trkpt>
      <trkpt lat="44.57563" lon="0.81265">
        <ele>97</ele>
        <time>2012-01-30T15:29:44Z</time>
      </trkpt>
      <trkpt lat="44.57568" lon="0.81266">
        <ele>97</ele>
        <time>2012-01-30T15:29:45Z</time>
      </trkpt>
      <trkpt lat="44.57571" lon="0.81267">
        <ele>96</ele>
        <time>2012-01-30T15:29:46Z</time>
      </trkpt>
      <trkpt lat="44.57573" lon="0.81269">
        <ele>95</ele>
        <time>2012-01-30T15:29:47Z</time>
      </trkpt>
      <trkpt lat="44.57575" lon="0.8127">
        <ele>95</ele>
        <time>2012-01-30T15:29:48Z</time>
      </trkpt>
      <trkpt lat="44.57576" lon="0.81272">
        <ele>95</ele>
        <time>2012-01-30T15:29:49Z</time>
      </trkpt>
      <trkpt lat="44.57577" lon="0.81276">
        <ele>94</ele>
        <time>2012-01-30T15:29:50Z</time>
      </trkpt>
      <trkpt lat="44.57578" lon="0.8128">
        <ele>94</ele>
        <time>2012-01-30T15:29:51Z</time>
      </trkpt>
      <trkpt lat="44.57579" lon="0.81286">
        <ele>94</ele>
        <time>2012-01-30T15:29:52Z</time>
      </trkpt>
      <trkpt lat="44.57579" lon="0.81292">
        <ele>94</ele>
        <time>2012-01-30T15:29:53Z</time>
      </trkpt>
      <trkpt lat="44.57579" lon="0.81298">
        <ele>94</ele>
        <time>2012-01-30T15:29:54Z</time>
      </trkpt>
      <trkpt lat="44.57579" lon="0.81305">
        <ele>94</ele>
        <time>2012-01-30T15:29:55Z</time>
      </trkpt>
      <trkpt lat="44.57579" lon="0.81311">
        <ele>94</ele>
        <time>2012-01-30T15:29:56Z</time>
      </trkpt>
      <trkpt lat="44.57579" lon="0.81316">
        <ele>93</ele>
        <time>2012-01-30T15:29:57Z</time>
      </trkpt>
      <trkpt lat="44.57579" lon="0.81321">
        <ele>92</ele>
        <time>2012-01-30T15:29:58Z</time>
      </trkpt>
      <trkpt lat="44.57579" lon="0.81325">
        <ele>92</ele>
        <time>2012-01-30T15:29:59Z</time>
      </trkpt>
      <trkpt lat="44.57579" lon="0.81328">
        <ele>91</ele>
        <time>2012-01-30T15:30:00Z</time>
      </trkpt>
      <trkpt lat="44.57579" lon="0.81331">
        <ele>90</ele>
        <time>2012-01-30T15:30:01Z</time>
      </trkpt>
      <trkpt lat="44.57579" lon="0.81334">
        <ele>90</ele>
        <time>2012-01-30T15:30:02Z</time>
      </trkpt>
      <trkpt lat="44.57578" lon="0.81336">
        <ele>89</ele>
        <time>2012-01-30T15:30:03Z</time>
      </trkpt>
      <trkpt lat="44.57578" lon="0.8134">
        <ele>89</ele>
        <time>2012-01-30T15:30:04Z</time>
      </trkpt>
      <trkpt lat="44.57579" lon="0.81343">
        <ele>89</ele>
        <time>2012-01-30T15:30:05Z</time>
      </trkpt>
      <trkpt lat="44.5758" lon="0.81346">
        <ele>88</ele>
        <time>2012-01-30T15:30:06Z</time>
      </trkpt>
      <trkpt lat="44.57581" lon="0.81349">
        <ele>88</ele>
        <time>2012-01-30T15:30:07Z</time>
      </trkpt>
      <trkpt lat="44.57583" lon="0.8135">
        <ele>88</ele>
        <time>2012-01-30T15:30:08Z</time>
      </trkpt>
      <trkpt lat="44.57585" lon="0.81351">
        <ele>88</ele>
        <time>2012-01-30T15:30:09Z</time>
      </trkpt>
      <trkpt lat="44.57587" lon="0.81352">
        <ele>87</ele>
        <time>2012-01-30T15:30:10Z</time>
      </trkpt>
      <trkpt lat="44.57589" lon="0.81352">
        <ele>87</ele>
        <time>2012-01-30T15:30:11Z</time>
      </trkpt>
      <trkpt lat="44.57591" lon="0.81352">
        <ele>87</ele>
        <time>2012-01-30T15:30:12Z</time>
      </trkpt>
      <trkpt lat="44.57594" lon="0.81352">
        <ele>86</ele>
        <time>2012-01-30T15:30:13Z</time>
      </trkpt>
      <trkpt lat="44.57597" lon="0.81353">
        <ele>86</ele>
        <time>2012-01-30T15:30:14Z</time>
      </trkpt>
      <trkpt lat="44.57599" lon="0.81354">
        <ele>86</ele>
        <time>2012-01-30T15:30:15Z</time>
      </trkpt>
      <trkpt lat="44.57601" lon="0.81355">
        <ele>85</ele>
        <time>2012-01-30T15:30:16Z</time>
      </trkpt>
      <trkpt lat="44.57603" lon="0.81356">
        <ele>85</ele>
        <time>2012-01-30T15:30:17Z</time>
      </trkpt>
      <trkpt lat="44.57606" lon="0.81356">
        <ele>85</ele>
        <time>2012-01-30T15:30:18Z</time>
      </trkpt>
      <trkpt lat="44.57608" lon="0.81357">
        <ele>84</ele>
        <time>2012-01-30T15:30:19Z</time>
      </trkpt>
      <trkpt lat="44.5761" lon="0.81357">
        <ele>84</ele>
        <time>2012-01-30T15:30:20Z</time>
      </trkpt>
      <trkpt lat="44.57613" lon="0.81358">
        <ele>84</ele>
        <time>2012-01-30T15:30:21Z</time>
      </trkpt>
      <trkpt lat="44.57616" lon="0.81358">
        <ele>84</ele>
        <time>2012-01-30T15:30:22Z</time>
      </trkpt>
      <trkpt lat="44.57619" lon="0.81359">
        <ele>84</ele>
        <time>2012-01-30T15:30:23Z</time>
      </trkpt>
      <trkpt lat="44.57621" lon="0.8136">
        <ele>83</ele>
        <time>2012-01-30T15:30:24Z</time>
      </trkpt>
      <trkpt lat="44.57624" lon="0.8136">
        <ele>83</ele>
        <time>2012-01-30T15:30:25Z</time>
      </trkpt>
      <trkpt lat="44.57626" lon="0.81361">
        <ele>83</ele>
        <time>2012-01-30T15:30:26Z</time>
      </trkpt>
      <trkpt lat="44.57629" lon="0.81361">
        <ele>82</ele>
        <time>2012-01-30T15:30:27Z</time>
      </trkpt>
      <trkpt lat="44.57632" lon="0.81362">
        <ele>82</ele>
        <time>2012-01-30T15:30:28Z</time>
      </trkpt>
      <trkpt lat="44.57634" lon="0.81363">
        <ele>82</ele>
        <time>2012-01-30T15:30:29Z</time>
      </trkpt>
      <trkpt lat="44.57637" lon="0.81364">
        <ele>81</ele>
        <time>2012-01-30T15:30:30Z</time>
      </trkpt>
      <trkpt lat="44.57639" lon="0.81364">
        <ele>81</ele>
        <time>2012-01-30T15:30:31Z</time>
      </trkpt>
      <trkpt lat="44.57642" lon="0.81365">
        <ele>81</ele>
        <time>2012-01-30T15:30:32Z</time>
      </trkpt>
      <trkpt lat="44.57645" lon="0.81366">
        <ele>81</ele>
        <time>2012-01-30T15:30:33Z</time>
      </trkpt>
      <trkpt lat="44.57647" lon="0.81366">
        <ele>81</ele>
        <time>2012-01-30T15:30:34Z</time>
      </trkpt>
      <trkpt lat="44.57649" lon="0.81367">
        <ele>81</ele>
        <time>2012-01-30T15:30:35Z</time>
      </trkpt>
      <trkpt lat="44.57652" lon="0.81368">
        <ele>81</ele>
        <time>2012-01-30T15:30:36Z</time>
      </trkpt>
      <trkpt lat="44.57654" lon="0.81368">
        <ele>81</ele>
        <time>2012-01-30T15:30:37Z</time>
      </trkpt>
      <trkpt lat="44.57656" lon="0.81369">
        <ele>81</ele>
        <time>2012-01-30T15:30:38Z</time>
      </trkpt>
      <trkpt lat="44.57659" lon="0.8137">
        <ele>81</ele>
        <time>2012-01-30T15:30:39Z</time>
      </trkpt>
      <trkpt lat="44.57661" lon="0.81371">
        <ele>81</ele>
        <time>2012-01-30T15:30:40Z</time>
      </trkpt>
      <trkpt lat="44.57664" lon="0.81372">
        <ele>81</ele>
        <time>2012-01-30T15:30:41Z</time>
      </trkpt>
      <trkpt lat="44.57666" lon="0.81374">
        <ele>81</ele>
        <time>2012-01-30T15:30:42Z</time>
      </trkpt>
      <trkpt lat="44.57668" lon="0.81375">
        <ele>81</ele>
        <time>2012-01-30T15:30:43Z</time>
      </trkpt>
      <trkpt lat="44.57669" lon="0.81377">
        <ele>81</ele>
        <time>2012-01-30T15:30:44Z</time>
      </trkpt>
      <trkpt lat="44.5767" lon="0.81379">
        <ele>81</ele>
        <time>2012-01-30T15:30:45Z</time>
      </trkpt>
      <trkpt lat="44.57671" lon="0.81381">
        <ele>81</ele>
        <time>2012-01-30T15:30:47Z</time>
      </trkpt>
      <trkpt lat="44.57672" lon="0.81383">
        <ele>81</ele>
        <time>2012-01-30T15:30:49Z</time>
      </trkpt>
      <trkpt lat="44.57672" lon="0.81384">
        <ele>81</ele>
        <time>2012-01-30T15:30:50Z</time>
      </trkpt>
      <trkpt lat="44.57673" lon="0.81386">
        <ele>81</ele>
        <time>2012-01-30T15:30:51Z</time>
      </trkpt>
      <trkpt lat="44.57674" lon="0.81388">
        <ele>81</ele>
        <time>2012-01-30T15:30:52Z</time>
      </trkpt>
      <trkpt lat="44.57674" lon="0.81389">
        <ele>81</ele>
        <time>2012-01-30T15:30:53Z</time>
      </trkpt>
      <trkpt lat="44.57675" lon="0.81392">
        <ele>81</ele>
        <time>2012-01-30T15:30:54Z</time>
      </trkpt>
      <trkpt lat="44.57676" lon="0.81394">
        <ele>81</ele>
        <time>2012-01-30T15:30:55Z</time>
      </trkpt>
      <trkpt lat="44.57678" lon="0.81397">
        <ele>81</ele>
        <time>2012-01-30T15:30:56Z</time>
      </trkpt>
      <trkpt lat="44.5768" lon="0.81398">
        <ele>82</ele>
        <time>2012-01-30T15:30:57Z</time>
      </trkpt>
      <trkpt lat="44.57682" lon="0.814">
        <ele>83</ele>
        <time>2012-01-30T15:30:58Z</time>
      </trkpt>
      <trkpt lat="44.57683" lon="0.81402">
        <ele>84</ele>
        <time>2012-01-30T15:30:59Z</time>
      </trkpt>
      <trkpt lat="44.57685" lon="0.81404">
        <ele>85</ele>
        <time>2012-01-30T15:31:00Z</time>
      </trkpt>
      <trkpt lat="44.57686" lon="0.81406">
        <ele>85</ele>
        <time>2012-01-30T15:31:01Z</time>
      </trkpt>
      <trkpt lat="44.57688" lon="0.81408">
        <ele>85</ele>
        <time>2012-01-30T15:31:02Z</time>
      </trkpt>
      <trkpt lat="44.5769" lon="0.8141">
        <ele>85</ele>
        <time>2012-01-30T15:31:03Z</time>
      </trkpt>
      <trkpt lat="44.57692" lon="0.81411">
        <ele>85</ele>
        <time>2012-01-30T15:31:04Z</time>
      </trkpt>
      <trkpt lat="44.57693" lon="0.81413">
        <ele>85</ele>
        <time>2012-01-30T15:31:05Z</time>
      </trkpt>
      <trkpt lat="44.57695" lon="0.81414">
        <ele>85</ele>
        <time>2012-01-30T15:31:06Z</time>
      </trkpt>
      <trkpt lat="44.57696" lon="0.81415">
        <ele>85</ele>
        <time>2012-01-30T15:31:07Z</time>
      </trkpt>
      <trkpt lat="44.57697" lon="0.81417">
        <ele>86</ele>
        <time>2012-01-30T15:31:08Z</time>
      </trkpt>
      <trkpt lat="44.57699" lon="0.81419">
        <ele>86</ele>
        <time>2012-01-30T15:31:09Z</time>
      </trkpt>
      <trkpt lat="44.57701" lon="0.8142">
        <ele>86</ele>
        <time>2012-01-30T15:31:10Z</time>
      </trkpt>
      <trkpt lat="44.57703" lon="0.81422">
        <ele>86</ele>
        <time>2012-01-30T15:31:11Z</time>
      </trkpt>
      <trkpt lat="44.57704" lon="0.81424">
        <ele>87</ele>
        <time>2012-01-30T15:31:12Z</time>
      </trkpt>
      <trkpt lat="44.57706" lon="0.81425">
        <ele>87</ele>
        <time>2012-01-30T15:31:13Z</time>
      </trkpt>
      <trkpt lat="44.57707" lon="0.81427">
        <ele>88</ele>
        <time>2012-01-30T15:31:14Z</time>
      </trkpt>
      <trkpt lat="44.57708" lon="0.81428">
        <ele>88</ele>
        <time>2012-01-30T15:31:15Z</time>
      </trkpt>
      <trkpt lat="44.5771" lon="0.8143">
        <ele>88</ele>
        <time>2012-01-30T15:31:16Z</time>
      </trkpt>
      <trkpt lat="44.57711" lon="0.81432">
        <ele>88</ele>
        <time>2012-01-30T15:31:17Z</time>
      </trkpt>
      <trkpt lat="44.57713" lon="0.81434">
        <ele>88</ele>
        <time>2012-01-30T15:31:18Z</time>
      </trkpt>
      <trkpt lat="44.57714" lon="0.81435">
        <ele>88</ele>
        <time>2012-01-30T15:31:19Z</time>
      </trkpt>
      <trkpt lat="44.57715" lon="0.81436">
        <ele>88</ele>
        <time>2012-01-30T15:31:20Z</time>
      </trkpt>
      <trkpt lat="44.57716" lon="0.81437">
        <ele>88</ele>
        <time>2012-01-30T15:31:21Z</time>
      </trkpt>
      <trkpt lat="44.57718" lon="0.81439">
        <ele>88</ele>
        <time>2012-01-30T15:31:22Z</time>
      </trkpt>
      <trkpt lat="44.5772" lon="0.8144">
        <ele>88</ele>
        <time>2012-01-30T15:31:23Z</time>
      </trkpt>
      <trkpt lat="44.57722" lon="0.81442">
        <ele>88</ele>
        <time>2012-01-30T15:31:24Z</time>
      </trkpt>
      <trkpt lat="44.57724" lon="0.81443">
        <ele>88</ele>
        <time>2012-01-30T15:31:25Z</time>
      </trkpt>
      <trkpt lat="44.57725" lon="0.81445">
        <ele>88</ele>
        <time>2012-01-30T15:31:26Z</time>
      </trkpt>
      <trkpt lat="44.57727" lon="0.81447">
        <ele>90</ele>
        <time>2012-01-30T15:31:28Z</time>
      </trkpt>
      <trkpt lat="44.57729" lon="0.8145">
        <ele>91</ele>
        <time>2012-01-30T15:31:30Z</time>
      </trkpt>
      <trkpt lat="44.57731" lon="0.81451">
        <ele>91</ele>
        <time>2012-01-30T15:31:31Z</time>
      </trkpt>
      <trkpt lat="44.57732" lon="0.81453">
        <ele>91</ele>
        <time>2012-01-30T15:31:32Z</time>
      </trkpt>
      <trkpt lat="44.57734" lon="0.81454">
        <ele>92</ele>
        <time>2012-01-30T15:31:33Z</time>
      </trkpt>
      <trkpt lat="44.57735" lon="0.81455">
        <ele>92</ele>
        <time>2012-01-30T15:31:34Z</time>
      </trkpt>
      <trkpt lat="44.57737" lon="0.81456">
        <ele>93</ele>
        <time>2012-01-30T15:31:35Z</time>
      </trkpt>
      <trkpt lat="44.57738" lon="0.81457">
        <ele>94</ele>
        <time>2012-01-30T15:31:36Z</time>
      </trkpt>
      <trkpt lat="44.5774" lon="0.8146">
        <ele>96</ele>
        <time>2012-01-30T15:31:38Z</time>
      </trkpt>
      <trkpt lat="44.57742" lon="0.81462">
        <ele>96</ele>
        <time>2012-01-30T15:31:39Z</time>
      </trkpt>
      <trkpt lat="44.57743" lon="0.81464">
        <ele>96</ele>
        <time>2012-01-30T15:31:40Z</time>
      </trkpt>
      <trkpt lat="44.57745" lon="0.81466">
        <ele>96</ele>
        <time>2012-01-30T15:31:41Z</time>
      </trkpt>
      <trkpt lat="44.57746" lon="0.81468">
        <ele>96</ele>
        <time>2012-01-30T15:31:42Z</time>
      </trkpt>
      <trkpt lat="44.57748" lon="0.8147">
        <ele>96</ele>
        <time>2012-01-30T15:31:44Z</time>
      </trkpt>
      <trkpt lat="44.5775" lon="0.81471">
        <ele>96</ele>
        <time>2012-01-30T15:31:45Z</time>
      </trkpt>
      <trkpt lat="44.57751" lon="0.81472">
        <ele>96</ele>
        <time>2012-01-30T15:31:46Z</time>
      </trkpt>
      <trkpt lat="44.57753" lon="0.81473">
        <ele>96</ele>
        <time>2012-01-30T15:31:47Z</time>
      </trkpt>
      <trkpt lat="44.57755" lon="0.81476">
        <ele>96</ele>
        <time>2012-01-30T15:31:49Z</time>
      </trkpt>
      <trkpt lat="44.57757" lon="0.81477">
        <ele>96</ele>
        <time>2012-01-30T15:31:50Z</time>
      </trkpt>
      <trkpt lat="44.57758" lon="0.81479">
        <ele>96</ele>
        <time>2012-01-30T15:31:51Z</time>
      </trkpt>
      <trkpt lat="44.57759" lon="0.8148">
        <ele>96</ele>
        <time>2012-01-30T15:31:52Z</time>
      </trkpt>
      <trkpt lat="44.5776" lon="0.81482">
        <ele>96</ele>
        <time>2012-01-30T15:31:53Z</time>
      </trkpt>
      <trkpt lat="44.57762" lon="0.81484">
        <ele>96</ele>
        <time>2012-01-30T15:31:55Z</time>
      </trkpt>
      <trkpt lat="44.57764" lon="0.81487">
        <ele>97</ele>
        <time>2012-01-30T15:31:57Z</time>
      </trkpt>
      <trkpt lat="44.57766" lon="0.81488">
        <ele>97</ele>
        <time>2012-01-30T15:31:58Z</time>
      </trkpt>
      <trkpt lat="44.57767" lon="0.81491">
        <ele>97</ele>
        <time>2012-01-30T15:32:00Z</time>
      </trkpt>
      <trkpt lat="44.57769" lon="0.81493">
        <ele>97</ele>
        <time>2012-01-30T15:32:02Z</time>
      </trkpt>
      <trkpt lat="44.57771" lon="0.81496">
        <ele>97</ele>
        <time>2012-01-30T15:32:04Z</time>
      </trkpt>
      <trkpt lat="44.57772" lon="0.81498">
        <ele>97</ele>
        <time>2012-01-30T15:32:06Z</time>
      </trkpt>
      <trkpt lat="44.57774" lon="0.81499">
        <ele>97</ele>
        <time>2012-01-30T15:32:07Z</time>
      </trkpt>
      <trkpt lat="44.57775" lon="0.815">
        <ele>97</ele>
        <time>2012-01-30T15:32:08Z</time>
      </trkpt>
      <trkpt lat="44.57777" lon="0.81501">
        <ele>97</ele>
        <time>2012-01-30T15:32:09Z</time>
      </trkpt>
      <trkpt lat="44.57778" lon="0.81502">
        <ele>97</ele>
        <time>2012-01-30T15:32:10Z</time>
      </trkpt>
      <trkpt lat="44.57779" lon="0.81504">
        <ele>98</ele>
        <time>2012-01-30T15:32:12Z</time>
      </trkpt>
      <trkpt lat="44.57781" lon="0.81506">
        <ele>98</ele>
        <time>2012-01-30T15:32:14Z</time>
      </trkpt>
      <trkpt lat="44.57782" lon="0.81507">
        <ele>98</ele>
        <time>2012-01-30T15:32:16Z</time>
      </trkpt>
      <trkpt lat="44.57783" lon="0.81509">
        <ele>98</ele>
        <time>2012-01-30T15:32:18Z</time>
      </trkpt>
      <trkpt lat="44.57785" lon="0.8151">
        <ele>98</ele>
        <time>2012-01-30T15:32:20Z</time>
      </trkpt>
      <trkpt lat="44.57786" lon="0.81512">
        <ele>98</ele>
        <time>2012-01-30T15:32:22Z</time>
      </trkpt>
      <trkpt lat="44.57788" lon="0.81514">
        <ele>98</ele>
        <time>2012-01-30T15:32:24Z</time>
      </trkpt>
      <trkpt lat="44.57789" lon="0.81516">
        <ele>98</ele>
        <time>2012-01-30T15:32:26Z</time>
      </trkpt>
      <trkpt lat="44.57791" lon="0.81518">
        <ele>98</ele>
        <time>2012-01-30T15:32:28Z</time>
      </trkpt>
      <trkpt lat="44.57792" lon="0.8152">
        <ele>98</ele>
        <time>2012-01-30T15:32:31Z</time>
      </trkpt>
      <trkpt lat="44.57794" lon="0.8152">
        <ele>98</ele>
        <time>2012-01-30T15:32:32Z</time>
      </trkpt>
      <trkpt lat="44.57795" lon="0.8152">
        <ele>99</ele>
        <time>2012-01-30T15:32:33Z</time>
      </trkpt>
      <trkpt lat="44.57796" lon="0.8152">
        <ele>100</ele>
        <time>2012-01-30T15:32:34Z</time>
      </trkpt>
      <trkpt lat="44.57798" lon="0.81521">
        <ele>102</ele>
        <time>2012-01-30T15:32:36Z</time>
      </trkpt>
      <trkpt lat="44.57799" lon="0.81522">
        <ele>104</ele>
        <time>2012-01-30T15:32:38Z</time>
      </trkpt>
      <trkpt lat="44.57801" lon="0.81524">
        <ele>107</ele>
        <time>2012-01-30T15:32:42Z</time>
      </trkpt>
      <trkpt lat="44.57802" lon="0.81524">
        <ele>107</ele>
        <time>2012-01-30T15:32:44Z</time>
      </trkpt>
      <trkpt lat="44.57803" lon="0.81526">
        <ele>107</ele>
        <time>2012-01-30T15:32:46Z</time>
      </trkpt>
      <trkpt lat="44.57804" lon="0.81527">
        <ele>107</ele>
        <time>2012-01-30T15:32:48Z</time>
      </trkpt>
      <trkpt lat="44.57806" lon="0.81527">
        <ele>107</ele>
        <time>2012-01-30T15:32:53Z</time>
      </trkpt>
      <trkpt lat="44.57807" lon="0.81529">
        <ele>107</ele>
        <time>2012-01-30T15:32:58Z</time>
      </trkpt>
      <trkpt lat="44.57808" lon="0.81531">
        <ele>108</ele>
        <time>2012-01-30T15:33:00Z</time>
      </trkpt>
      <trkpt lat="44.5781" lon="0.81532">
        <ele>108</ele>
        <time>2012-01-30T15:33:01Z</time>
      </trkpt>
      <trkpt lat="44.57811" lon="0.81533">
        <ele>108</ele>
        <time>2012-01-30T15:33:02Z</time>
      </trkpt>
      <trkpt lat="44.57813" lon="0.81534">
        <ele>109</ele>
        <time>2012-01-30T15:33:03Z</time>
      </trkpt>
      <trkpt lat="44.57814" lon="0.81535">
        <ele>109</ele>
        <time>2012-01-30T15:33:04Z</time>
      </trkpt>
      <trkpt lat="44.57816" lon="0.81536">
        <ele>109</ele>
        <time>2012-01-30T15:33:05Z</time>
      </trkpt>
      <trkpt lat="44.57817" lon="0.81537">
        <ele>109</ele>
        <time>2012-01-30T15:33:06Z</time>
      </trkpt>
      <trkpt lat="44.57818" lon="0.81538">
        <ele>110</ele>
        <time>2012-01-30T15:33:07Z</time>
      </trkpt>
      <trkpt lat="44.57819" lon="0.8154">
        <ele>110</ele>
        <time>2012-01-30T15:33:08Z</time>
      </trkpt>
      <trkpt lat="44.57821" lon="0.81541">
        <ele>110</ele>
        <time>2012-01-30T15:33:09Z</time>
      </trkpt>
      <trkpt lat="44.57822" lon="0.81542">
        <ele>110</ele>
        <time>2012-01-30T15:33:10Z</time>
      </trkpt>
      <trkpt lat="44.57823" lon="0.81544">
        <ele>110</ele>
        <time>2012-01-30T15:33:11Z</time>
      </trkpt>
      <trkpt lat="44.57824" lon="0.81546">
        <ele>110</ele>
        <time>2012-01-30T15:33:12Z</time>
      </trkpt>
      <trkpt lat="44.57825" lon="0.81547">
        <ele>110</ele>
        <time>2012-01-30T15:33:13Z</time>
      </trkpt>
      <trkpt lat="44.57827" lon="0.81549">
        <ele>110</ele>
        <time>2012-01-30T15:33:14Z</time>
      </trkpt>
      <trkpt lat="44.57828" lon="0.8155">
        <ele>110</ele>
        <time>2012-01-30T15:33:15Z</time>
      </trkpt>
      <trkpt lat="44.5783" lon="0.81551">
        <ele>110</ele>
        <time>2012-01-30T15:33:16Z</time>
      </trkpt>
      <trkpt lat="44.57831" lon="0.81553">
        <ele>110</ele>
        <time>2012-01-30T15:33:17Z</time>
      </trkpt>
      <trkpt lat="44.57832" lon="0.81555">
        <ele>110</ele>
        <time>2012-01-30T15:33:18Z</time>
      </trkpt>
      <trkpt lat="44.57834" lon="0.81556">
        <ele>111</ele>
        <time>2012-01-30T15:33:19Z</time>
      </trkpt>
      <trkpt lat="44.57835" lon="0.81558">
        <ele>111</ele>
        <time>2012-01-30T15:33:20Z</time>
      </trkpt>
      <trkpt lat="44.57837" lon="0.8156">
        <ele>111</ele>
        <time>2012-01-30T15:33:21Z</time>
      </trkpt>
      <trkpt lat="44.57838" lon="0.81561">
        <ele>111</ele>
        <time>2012-01-30T15:33:22Z</time>
      </trkpt>
      <trkpt lat="44.5784" lon="0.81563">
        <ele>111</ele>
        <time>2012-01-30T15:33:23Z</time>
      </trkpt>
      <trkpt lat="44.57841" lon="0.81564">
        <ele>111</ele>
        <time>2012-01-30T15:33:24Z</time>
      </trkpt>
      <trkpt lat="44.57842" lon="0.81566">
        <ele>111</ele>
        <time>2012-01-30T15:33:25Z</time>
      </trkpt>
      <trkpt lat="44.57844" lon="0.81567">
        <ele>111</ele>
        <time>2012-01-30T15:33:26Z</time>
      </trkpt>
      <trkpt lat="44.57845" lon="0.81568">
        <ele>111</ele>
        <time>2012-01-30T15:33:27Z</time>
      </trkpt>
      <trkpt lat="44.57847" lon="0.8157">
        <ele>111</ele>
        <time>2012-01-30T15:33:28Z</time>
      </trkpt>
      <trkpt lat="44.57848" lon="0.81571">
        <ele>111</ele>
        <time>2012-01-30T15:33:29Z</time>
      </trkpt>
      <trkpt lat="44.5785" lon="0.81572">
        <ele>111</ele>
        <time>2012-01-30T15:33:30Z</time>
      </trkpt>
      <trkpt lat="44.57851" lon="0.81574">
        <ele>112</ele>
        <time>2012-01-30T15:33:31Z</time>
      </trkpt>
      <trkpt lat="44.57852" lon="0.81575">
        <ele>112</ele>
        <time>2012-01-30T15:33:32Z</time>
      </trkpt>
      <trkpt lat="44.57854" lon="0.81576">
        <ele>112</ele>
        <time>2012-01-30T15:33:33Z</time>
      </trkpt>
      <trkpt lat="44.57855" lon="0.81577">
        <ele>112</ele>
        <time>2012-01-30T15:33:34Z</time>
      </trkpt>
      <trkpt lat="44.57856" lon="0.81578">
        <ele>112</ele>
        <time>2012-01-30T15:33:35Z</time>
      </trkpt>
      <trkpt lat="44.57858" lon="0.8158">
        <ele>112</ele>
        <time>2012-01-30T15:33:36Z</time>
      </trkpt>
      <trkpt lat="44.57859" lon="0.81581">
        <ele>112</ele>
        <time>2012-01-30T15:33:37Z</time>
      </trkpt>
      <trkpt lat="44.5786" lon="0.81582">
        <ele>112</ele>
        <time>2012-01-30T15:33:38Z</time>
      </trkpt>
      <trkpt lat="44.57862" lon="0.81583">
        <ele>112</ele>
        <time>2012-01-30T15:33:39Z</time>
      </trkpt>
      <trkpt lat="44.57863" lon="0.81584">
        <ele>112</ele>
        <time>2012-01-30T15:33:40Z</time>
      </trkpt>
      <trkpt lat="44.57864" lon="0.81585">
        <ele>112</ele>
        <time>2012-01-30T15:33:41Z</time>
      </trkpt>
      <trkpt lat="44.57866" lon="0.81587">
        <ele>112</ele>
        <time>2012-01-30T15:33:42Z</time>
      </trkpt>
      <trkpt lat="44.57867" lon="0.81588">
        <ele>112</ele>
        <time>2012-01-30T15:33:43Z</time>
      </trkpt>
      <trkpt lat="44.57869" lon="0.81589">
        <ele>112</ele>
        <time>2012-01-30T15:33:44Z</time>
      </trkpt>
      <trkpt lat="44.5787" lon="0.8159">
        <ele>112</ele>
        <time>2012-01-30T15:33:45Z</time>
      </trkpt>
      <trkpt lat="44.57872" lon="0.81592">
        <ele>112</ele>
        <time>2012-01-30T15:33:46Z</time>
      </trkpt>
      <trkpt lat="44.57873" lon="0.81593">
        <ele>112</ele>
        <time>2012-01-30T15:33:47Z</time>
      </trkpt>
      <trkpt lat="44.57875" lon="0.81594">
        <ele>112</ele>
        <time>2012-01-30T15:33:48Z</time>
      </trkpt>
      <trkpt lat="44.57876" lon="0.81595">
        <ele>113</ele>
        <time>2012-01-30T15:33:49Z</time>
      </trkpt>
      <trkpt lat="44.57877" lon="0.81596">
        <ele>113</ele>
        <time>2012-01-30T15:33:50Z</time>
      </trkpt>
      <trkpt lat="44.57879" lon="0.81598">
        <ele>113</ele>
        <time>2012-01-30T15:33:51Z</time>
      </trkpt>
      <trkpt lat="44.5788" lon="0.81599">
        <ele>114</ele>
        <time>2012-01-30T15:33:52Z</time>
      </trkpt>
      <trkpt lat="44.57882" lon="0.816">
        <ele>114</ele>
        <time>2012-01-30T15:33:53Z</time>
      </trkpt>
      <trkpt lat="44.57883" lon="0.81602">
        <ele>114</ele>
        <time>2012-01-30T15:33:54Z</time>
      </trkpt>
      <trkpt lat="44.57885" lon="0.81603">
        <ele>115</ele>
        <time>2012-01-30T15:33:55Z</time>
      </trkpt>
      <trkpt lat="44.57887" lon="0.81605">
        <ele>115</ele>
        <time>2012-01-30T15:33:56Z</time>
      </trkpt>
      <trkpt lat="44.57888" lon="0.81607">
        <ele>115</ele>
        <time>2012-01-30T15:33:57Z</time>
      </trkpt>
      <trkpt lat="44.5789" lon="0.81608">
        <ele>115</ele>
        <time>2012-01-30T15:33:58Z</time>
      </trkpt>
      <trkpt lat="44.57891" lon="0.81609">
        <ele>115</ele>
        <time>2012-01-30T15:33:59Z</time>
      </trkpt>
      <trkpt lat="44.57892" lon="0.81611">
        <ele>115</ele>
        <time>2012-01-30T15:34:00Z</time>
      </trkpt>
      <trkpt lat="44.57894" lon="0.81612">
        <ele>115</ele>
        <time>2012-01-30T15:34:01Z</time>
      </trkpt>
      <trkpt lat="44.57896" lon="0.81613">
        <ele>115</ele>
        <time>2012-01-30T15:34:02Z</time>
      </trkpt>
      <trkpt lat="44.57897" lon="0.81613">
        <ele>115</ele>
        <time>2012-01-30T15:34:03Z</time>
      </trkpt>
      <trkpt lat="44.57899" lon="0.81614">
        <ele>115</ele>
        <time>2012-01-30T15:34:04Z</time>
      </trkpt>
      <trkpt lat="44.579" lon="0.81614">
        <ele>115</ele>
        <time>2012-01-30T15:34:05Z</time>
      </trkpt>
      <trkpt lat="44.57901" lon="0.81614">
        <ele>115</ele>
        <time>2012-01-30T15:34:06Z</time>
      </trkpt>
      <trkpt lat="44.57903" lon="0.81615">
        <ele>115</ele>
        <time>2012-01-30T15:34:08Z</time>
      </trkpt>
      <trkpt lat="44.57905" lon="0.81615">
        <ele>115</ele>
        <time>2012-01-30T15:34:10Z</time>
      </trkpt>
      <trkpt lat="44.57905" lon="0.81617">
        <ele>116</ele>
        <time>2012-01-30T15:34:21Z</time>
      </trkpt>
      <trkpt lat="44.57904" lon="0.81618">
        <ele>116</ele>
        <time>2012-01-30T15:34:24Z</time>
      </trkpt>
      <trkpt lat="44.57902" lon="0.81619">
        <ele>116</ele>
        <time>2012-01-30T15:34:29Z</time>
      </trkpt>
      <trkpt lat="44.57901" lon="0.8162">
        <ele>116</ele>
        <time>2012-01-30T15:34:35Z</time>
      </trkpt>
      <trkpt lat="44.57903" lon="0.81621">
        <ele>116</ele>
        <time>2012-01-30T15:34:46Z</time>
      </trkpt>
      <trkpt lat="44.57904" lon="0.81621">
        <ele>116</ele>
        <time>2012-01-30T15:34:47Z</time>
      </trkpt>
      <trkpt lat="44.57906" lon="0.81621">
        <ele>116</ele>
        <time>2012-01-30T15:34:48Z</time>
      </trkpt>
      <trkpt lat="44.57909" lon="0.81621">
        <ele>116</ele>
        <time>2012-01-30T15:34:49Z</time>
      </trkpt>
      <trkpt lat="44.57911" lon="0.8162">
        <ele>116</ele>
        <time>2012-01-30T15:34:50Z</time>
      </trkpt>
      <trkpt lat="44.57914" lon="0.8162">
        <ele>116</ele>
        <time>2012-01-30T15:34:51Z</time>
      </trkpt>
      <trkpt lat="44.57916" lon="0.8162">
        <ele>116</ele>
        <time>2012-01-30T15:34:52Z</time>
      </trkpt>
      <trkpt lat="44.57918" lon="0.8162">
        <ele>116</ele>
        <time>2012-01-30T15:34:53Z</time>
      </trkpt>
      <trkpt lat="44.57921" lon="0.8162">
        <ele>116</ele>
        <time>2012-01-30T15:34:54Z</time>
      </trkpt>
      <trkpt lat="44.57924" lon="0.81619">
        <ele>116</ele>
        <time>2012-01-30T15:34:55Z</time>
      </trkpt>
      <trkpt lat="44.57926" lon="0.81618">
        <ele>116</ele>
        <time>2012-01-30T15:34:56Z</time>
      </trkpt>
      <trkpt lat="44.5793" lon="0.81616">
        <ele>116</ele>
        <time>2012-01-30T15:34:57Z</time>
      </trkpt>
      <trkpt lat="44.57933" lon="0.81614">
        <ele>116</ele>
        <time>2012-01-30T15:34:58Z</time>
      </trkpt>
      <trkpt lat="44.57936" lon="0.81612">
        <ele>116</ele>
        <time>2012-01-30T15:34:59Z</time>
      </trkpt>
      <trkpt lat="44.57939" lon="0.81609">
        <ele>116</ele>
        <time>2012-01-30T15:35:00Z</time>
      </trkpt>
      <trkpt lat="44.57942" lon="0.81606">
        <ele>116</ele>
        <time>2012-01-30T15:35:01Z</time>
      </trkpt>
      <trkpt lat="44.57945" lon="0.81603">
        <ele>116</ele>
        <time>2012-01-30T15:35:02Z</time>
      </trkpt>
      <trkpt lat="44.57948" lon="0.816">
        <ele>116</ele>
        <time>2012-01-30T15:35:03Z</time>
      </trkpt>
      <trkpt lat="44.57951" lon="0.81597">
        <ele>116</ele>
        <time>2012-01-30T15:35:04Z</time>
      </trkpt>
      <trkpt lat="44.57954" lon="0.81594">
        <ele>116</ele>
        <time>2012-01-30T15:35:05Z</time>
      </trkpt>
      <trkpt lat="44.57957" lon="0.8159">
        <ele>116</ele>
        <time>2012-01-30T15:35:06Z</time>
      </trkpt>
      <trkpt lat="44.5796" lon="0.81587">
        <ele>116</ele>
        <time>2012-01-30T15:35:07Z</time>
      </trkpt>
      <trkpt lat="44.57964" lon="0.81584">
        <ele>116</ele>
        <time>2012-01-30T15:35:08Z</time>
      </trkpt>
      <trkpt lat="44.57968" lon="0.81581">
        <ele>116</ele>
        <time>2012-01-30T15:35:09Z</time>
      </trkpt>
      <trkpt lat="44.57972" lon="0.81578">
        <ele>116</ele>
        <time>2012-01-30T15:35:10Z</time>
      </trkpt>
      <trkpt lat="44.57975" lon="0.81577">
        <ele>116</ele>
        <time>2012-01-30T15:35:11Z</time>
      </trkpt>
      <trkpt lat="44.57979" lon="0.81576">
        <ele>116</ele>
        <time>2012-01-30T15:35:12Z</time>
      </trkpt>
      <trkpt lat="44.57982" lon="0.81575">
        <ele>116</ele>
        <time>2012-01-30T15:35:13Z</time>
      </trkpt>
      <trkpt lat="44.57986" lon="0.81574">
        <ele>116</ele>
        <time>2012-01-30T15:35:14Z</time>
      </trkpt>
      <trkpt lat="44.5799" lon="0.81572">
        <ele>116</ele>
        <time>2012-01-30T15:35:15Z</time>
      </trkpt>
      <trkpt lat="44.57993" lon="0.81571">
        <ele>116</ele>
        <time>2012-01-30T15:35:16Z</time>
      </trkpt>
      <trkpt lat="44.57997" lon="0.8157">
        <ele>116</ele>
        <time>2012-01-30T15:35:17Z</time>
      </trkpt>
      <trkpt lat="44.58001" lon="0.81569">
        <ele>116</ele>
        <time>2012-01-30T15:35:18Z</time>
      </trkpt>
      <trkpt lat="44.58004" lon="0.81568">
        <ele>116</ele>
        <time>2012-01-30T15:35:19Z</time>
      </trkpt>
      <trkpt lat="44.58008" lon="0.81567">
        <ele>116</ele>
        <time>2012-01-30T15:35:20Z</time>
      </trkpt>
      <trkpt lat="44.58011" lon="0.81566">
        <ele>116</ele>
        <time>2012-01-30T15:35:21Z</time>
      </trkpt>
      <trkpt lat="44.58015" lon="0.81565">
        <ele>116</ele>
        <time>2012-01-30T15:35:22Z</time>
      </trkpt>
      <trkpt lat="44.58018" lon="0.81565">
        <ele>116</ele>
        <time>2012-01-30T15:35:23Z</time>
      </trkpt>
      <trkpt lat="44.58022" lon="0.81564">
        <ele>115</ele>
        <time>2012-01-30T15:35:24Z</time>
      </trkpt>
      <trkpt lat="44.58025" lon="0.81563">
        <ele>115</ele>
        <time>2012-01-30T15:35:25Z</time>
      </trkpt>
      <trkpt lat="44.58028" lon="0.81563">
        <ele>115</ele>
        <time>2012-01-30T15:35:26Z</time>
      </trkpt>
      <trkpt lat="44.58031" lon="0.81562">
        <ele>115</ele>
        <time>2012-01-30T15:35:27Z</time>
      </trkpt>
      <trkpt lat="44.58035" lon="0.81561">
        <ele>114</ele>
        <time>2012-01-30T15:35:28Z</time>
      </trkpt>
      <trkpt lat="44.58038" lon="0.81561">
        <ele>114</ele>
        <time>2012-01-30T15:35:29Z</time>
      </trkpt>
      <trkpt lat="44.58041" lon="0.81561">
        <ele>114</ele>
        <time>2012-01-30T15:35:30Z</time>
      </trkpt>
      <trkpt lat="44.58044" lon="0.81561">
        <ele>114</ele>
        <time>2012-01-30T15:35:31Z</time>
      </trkpt>
      <trkpt lat="44.58047" lon="0.81561">
        <ele>114</ele>
        <time>2012-01-30T15:35:32Z</time>
      </trkpt>
      <trkpt lat="44.5805" lon="0.81561">
        <ele>114</ele>
        <time>2012-01-30T15:35:33Z</time>
      </trkpt>
      <trkpt lat="44.58052" lon="0.81564">
        <ele>114</ele>
        <time>2012-01-30T15:35:34Z</time>
      </trkpt>
      <trkpt lat="44.58054" lon="0.81567">
        <ele>114</ele>
        <time>2012-01-30T15:35:35Z</time>
      </trkpt>
      <trkpt lat="44.58054" lon="0.81571">
        <ele>114</ele>
        <time>2012-01-30T15:35:36Z</time>
      </trkpt>
      <trkpt lat="44.58055" lon="0.81575">
        <ele>114</ele>
        <time>2012-01-30T15:35:37Z</time>
      </trkpt>
      <trkpt lat="44.58055" lon="0.81579">
        <ele>114</ele>
        <time>2012-01-30T15:35:38Z</time>
      </trkpt>
      <trkpt lat="44.58056" lon="0.81583">
        <ele>114</ele>
        <time>2012-01-30T15:35:39Z</time>
      </trkpt>
      <trkpt lat="44.58056" lon="0.81587">
        <ele>114</ele>
        <time>2012-01-30T15:35:40Z</time>
      </trkpt>
      <trkpt lat="44.58057" lon="0.81591">
        <ele>114</ele>
        <time>2012-01-30T15:35:41Z</time>
      </trkpt>
      <trkpt lat="44.58058" lon="0.81596">
        <ele>114</ele>
        <time>2012-01-30T15:35:42Z</time>
      </trkpt>
      <trkpt lat="44.58058" lon="0.816">
        <ele>114</ele>
        <time>2012-01-30T15:35:43Z</time>
      </trkpt>
      <trkpt lat="44.58059" lon="0.81604">
        <ele>114</ele>
        <time>2012-01-30T15:35:44Z</time>
      </trkpt>
      <trkpt lat="44.58059" lon="0.81608">
        <ele>115</ele>
        <time>2012-01-30T15:35:45Z</time>
      </trkpt>
      <trkpt lat="44.5806" lon="0.81613">
        <ele>115</ele>
        <time>2012-01-30T15:35:46Z</time>
      </trkpt>
      <trkpt lat="44.58061" lon="0.81617">
        <ele>116</ele>
        <time>2012-01-30T15:35:47Z</time>
      </trkpt>
      <trkpt lat="44.58062" lon="0.81622">
        <ele>117</ele>
        <time>2012-01-30T15:35:48Z</time>
      </trkpt>
      <trkpt lat="44.58062" lon="0.81626">
        <ele>117</ele>
        <time>2012-01-30T15:35:49Z</time>
      </trkpt>
      <trkpt lat="44.58062" lon="0.8163">
        <ele>118</ele>
        <time>2012-01-30T15:35:50Z</time>
      </trkpt>
      <trkpt lat="44.58062" lon="0.81634">
        <ele>118</ele>
        <time>2012-01-30T15:35:51Z</time>
      </trkpt>
      <trkpt lat="44.58063" lon="0.81638">
        <ele>119</ele>
        <time>2012-01-30T15:35:52Z</time>
      </trkpt>
      <trkpt lat="44.58063" lon="0.81641">
        <ele>119</ele>
        <time>2012-01-30T15:35:53Z</time>
      </trkpt>
      <trkpt lat="44.58064" lon="0.81645">
        <ele>120</ele>
        <time>2012-01-30T15:35:54Z</time>
      </trkpt>
      <trkpt lat="44.58064" lon="0.81648">
        <ele>120</ele>
        <time>2012-01-30T15:35:55Z</time>
      </trkpt>
      <trkpt lat="44.58064" lon="0.81651">
        <ele>121</ele>
        <time>2012-01-30T15:35:56Z</time>
      </trkpt>
      <trkpt lat="44.58065" lon="0.81655">
        <ele>121</ele>
        <time>2012-01-30T15:35:57Z</time>
      </trkpt>
      <trkpt lat="44.58065" lon="0.81658">
        <ele>122</ele>
        <time>2012-01-30T15:35:58Z</time>
      </trkpt>
      <trkpt lat="44.58065" lon="0.81661">
        <ele>122</ele>
        <time>2012-01-30T15:35:59Z</time>
      </trkpt>
      <trkpt lat="44.58066" lon="0.81665">
        <ele>123</ele>
        <time>2012-01-30T15:36:00Z</time>
      </trkpt>
      <trkpt lat="44.58066" lon="0.81668">
        <ele>123</ele>
        <time>2012-01-30T15:36:01Z</time>
      </trkpt>
      <trkpt lat="44.58066" lon="0.81671">
        <ele>124</ele>
        <time>2012-01-30T15:36:02Z</time>
      </trkpt>
      <trkpt lat="44.58067" lon="0.81675">
        <ele>124</ele>
        <time>2012-01-30T15:36:03Z</time>
      </trkpt>
      <trkpt lat="44.58067" lon="0.81678">
        <ele>124</ele>
        <time>2012-01-30T15:36:04Z</time>
      </trkpt>
      <trkpt lat="44.58068" lon="0.81682">
        <ele>125</ele>
        <time>2012-01-30T15:36:05Z</time>
      </trkpt>
      <trkpt lat="44.58068" lon="0.81686">
        <ele>125</ele>
        <time>2012-01-30T15:36:06Z</time>
      </trkpt>
      <trkpt lat="44.58068" lon="0.81689">
        <ele>126</ele>
        <time>2012-01-30T15:36:07Z</time>
      </trkpt>
      <trkpt lat="44.58069" lon="0.81693">
        <ele>126</ele>
        <time>2012-01-30T15:36:08Z</time>
      </trkpt>
      <trkpt lat="44.58069" lon="0.81696">
        <ele>127</ele>
        <time>2012-01-30T15:36:09Z</time>
      </trkpt>
      <trkpt lat="44.58069" lon="0.81699">
        <ele>127</ele>
        <time>2012-01-30T15:36:10Z</time>
      </trkpt>
      <trkpt lat="44.5807" lon="0.81703">
        <ele>128</ele>
        <time>2012-01-30T15:36:11Z</time>
      </trkpt>
      <trkpt lat="44.5807" lon="0.81706">
        <ele>128</ele>
        <time>2012-01-30T15:36:12Z</time>
      </trkpt>
      <trkpt lat="44.5807" lon="0.81709">
        <ele>129</ele>
        <time>2012-01-30T15:36:13Z</time>
      </trkpt>
      <trkpt lat="44.58071" lon="0.81713">
        <ele>129</ele>
        <time>2012-01-30T15:36:14Z</time>
      </trkpt>
      <trkpt lat="44.58071" lon="0.81716">
        <ele>130</ele>
        <time>2012-01-30T15:36:15Z</time>
      </trkpt>
      <trkpt lat="44.58072" lon="0.8172">
        <ele>130</ele>
        <time>2012-01-30T15:36:16Z</time>
      </trkpt>
      <trkpt lat="44.58072" lon="0.81723">
        <ele>130</ele>
        <time>2012-01-30T15:36:17Z</time>
      </trkpt>
      <trkpt lat="44.58072" lon="0.81727">
        <ele>131</ele>
        <time>2012-01-30T15:36:18Z</time>
      </trkpt>
      <trkpt lat="44.58073" lon="0.81731">
        <ele>131</ele>
        <time>2012-01-30T15:36:19Z</time>
      </trkpt>
      <trkpt lat="44.58073" lon="0.81734">
        <ele>131</ele>
        <time>2012-01-30T15:36:20Z</time>
      </trkpt>
      <trkpt lat="44.58074" lon="0.81738">
        <ele>131</ele>
        <time>2012-01-30T15:36:21Z</time>
      </trkpt>
      <trkpt lat="44.58074" lon="0.81741">
        <ele>132</ele>
        <time>2012-01-30T15:36:22Z</time>
      </trkpt>
      <trkpt lat="44.58075" lon="0.81745">
        <ele>132</ele>
        <time>2012-01-30T15:36:23Z</time>
      </trkpt>
      <trkpt lat="44.58075" lon="0.81748">
        <ele>132</ele>
        <time>2012-01-30T15:36:24Z</time>
      </trkpt>
      <trkpt lat="44.58075" lon="0.81752">
        <ele>133</ele>
        <time>2012-01-30T15:36:25Z</time>
      </trkpt>
      <trkpt lat="44.58076" lon="0.81755">
        <ele>133</ele>
        <time>2012-01-30T15:36:26Z</time>
      </trkpt>
      <trkpt lat="44.58076" lon="0.81758">
        <ele>133</ele>
        <time>2012-01-30T15:36:27Z</time>
      </trkpt>
      <trkpt lat="44.58077" lon="0.81761">
        <ele>134</ele>
        <time>2012-01-30T15:36:28Z</time>
      </trkpt>
      <trkpt lat="44.58077" lon="0.81765">
        <ele>134</ele>
        <time>2012-01-30T15:36:29Z</time>
      </trkpt>
      <trkpt lat="44.58078" lon="0.81769">
        <ele>134</ele>
        <time>2012-01-30T15:36:30Z</time>
      </trkpt>
      <trkpt lat="44.58079" lon="0.81772">
        <ele>134</ele>
        <time>2012-01-30T15:36:31Z</time>
      </trkpt>
      <trkpt lat="44.58079" lon="0.81775">
        <ele>134</ele>
        <time>2012-01-30T15:36:32Z</time>
      </trkpt>
      <trkpt lat="44.58079" lon="0.81778">
        <ele>134</ele>
        <time>2012-01-30T15:36:33Z</time>
      </trkpt>
      <trkpt lat="44.5808" lon="0.81782">
        <ele>134</ele>
        <time>2012-01-30T15:36:34Z</time>
      </trkpt>
      <trkpt lat="44.5808" lon="0.81785">
        <ele>134</ele>
        <time>2012-01-30T15:36:35Z</time>
      </trkpt>
      <trkpt lat="44.58079" lon="0.81789">
        <ele>134</ele>
        <time>2012-01-30T15:36:36Z</time>
      </trkpt>
      <trkpt lat="44.58079" lon="0.81792">
        <ele>134</ele>
        <time>2012-01-30T15:36:37Z</time>
      </trkpt>
      <trkpt lat="44.58079" lon="0.81795">
        <ele>134</ele>
        <time>2012-01-30T15:36:38Z</time>
      </trkpt>
      <trkpt lat="44.58078" lon="0.81798">
        <ele>134</ele>
        <time>2012-01-30T15:36:39Z</time>
      </trkpt>
      <trkpt lat="44.58078" lon="0.81802">
        <ele>134</ele>
        <time>2012-01-30T15:36:40Z</time>
      </trkpt>
      <trkpt lat="44.58077" lon="0.81805">
        <ele>134</ele>
        <time>2012-01-30T15:36:41Z</time>
      </trkpt>
      <trkpt lat="44.58077" lon="0.81808">
        <ele>134</ele>
        <time>2012-01-30T15:36:42Z</time>
      </trkpt>
      <trkpt lat="44.58076" lon="0.81811">
        <ele>134</ele>
        <time>2012-01-30T15:36:43Z</time>
      </trkpt>
      <trkpt lat="44.58076" lon="0.81815">
        <ele>134</ele>
        <time>2012-01-30T15:36:44Z</time>
      </trkpt>
      <trkpt lat="44.58075" lon="0.81818">
        <ele>134</ele>
        <time>2012-01-30T15:36:45Z</time>
      </trkpt>
      <trkpt lat="44.58074" lon="0.81822">
        <ele>134</ele>
        <time>2012-01-30T15:36:46Z</time>
      </trkpt>
      <trkpt lat="44.58073" lon="0.81826">
        <ele>134</ele>
        <time>2012-01-30T15:36:47Z</time>
      </trkpt>
      <trkpt lat="44.58073" lon="0.81831">
        <ele>134</ele>
        <time>2012-01-30T15:36:48Z</time>
      </trkpt>
      <trkpt lat="44.58071" lon="0.81835">
        <ele>134</ele>
        <time>2012-01-30T15:36:49Z</time>
      </trkpt>
      <trkpt lat="44.5807" lon="0.8184">
        <ele>134</ele>
        <time>2012-01-30T15:36:50Z</time>
      </trkpt>
      <trkpt lat="44.58069" lon="0.81845">
        <ele>134</ele>
        <time>2012-01-30T15:36:51Z</time>
      </trkpt>
      <trkpt lat="44.58068" lon="0.81849">
        <ele>134</ele>
        <time>2012-01-30T15:36:52Z</time>
      </trkpt>
      <trkpt lat="44.58067" lon="0.81855">
        <ele>134</ele>
        <time>2012-01-30T15:36:53Z</time>
      </trkpt>
      <trkpt lat="44.58065" lon="0.8186">
        <ele>134</ele>
        <time>2012-01-30T15:36:54Z</time>
      </trkpt>
      <trkpt lat="44.58064" lon="0.81866">
        <ele>134</ele>
        <time>2012-01-30T15:36:55Z</time>
      </trkpt>
      <trkpt lat="44.58063" lon="0.81872">
        <ele>134</ele>
        <time>2012-01-30T15:36:56Z</time>
      </trkpt>
      <trkpt lat="44.58062" lon="0.81878">
        <ele>134</ele>
        <time>2012-01-30T15:36:57Z</time>
      </trkpt>
      <trkpt lat="44.58061" lon="0.81884">
        <ele>134</ele>
        <time>2012-01-30T15:36:58Z</time>
      </trkpt>
      <trkpt lat="44.5806" lon="0.8189">
        <ele>134</ele>
        <time>2012-01-30T15:36:59Z</time>
      </trkpt>
      <trkpt lat="44.58059" lon="0.81896">
        <ele>134</ele>
        <time>2012-01-30T15:37:00Z</time>
      </trkpt>
      <trkpt lat="44.58057" lon="0.81902">
        <ele>134</ele>
        <time>2012-01-30T15:37:01Z</time>
      </trkpt>
      <trkpt lat="44.58056" lon="0.81908">
        <ele>134</ele>
        <time>2012-01-30T15:37:02Z</time>
      </trkpt>
      <trkpt lat="44.58055" lon="0.81915">
        <ele>134</ele>
        <time>2012-01-30T15:37:03Z</time>
      </trkpt>
      <trkpt lat="44.58054" lon="0.81921">
        <ele>134</ele>
        <time>2012-01-30T15:37:04Z</time>
      </trkpt>
      <trkpt lat="44.58052" lon="0.81927">
        <ele>134</ele>
        <time>2012-01-30T15:37:05Z</time>
      </trkpt>
      <trkpt lat="44.58051" lon="0.81933">
        <ele>134</ele>
        <time>2012-01-30T15:37:06Z</time>
      </trkpt>
      <trkpt lat="44.5805" lon="0.8194">
        <ele>134</ele>
        <time>2012-01-30T15:37:07Z</time>
      </trkpt>
      <trkpt lat="44.58049" lon="0.81946">
        <ele>134</ele>
        <time>2012-01-30T15:37:08Z</time>
      </trkpt>
      <trkpt lat="44.58047" lon="0.81953">
        <ele>134</ele>
        <time>2012-01-30T15:37:09Z</time>
      </trkpt>
      <trkpt lat="44.58046" lon="0.8196">
        <ele>134</ele>
        <time>2012-01-30T15:37:10Z</time>
      </trkpt>
      <trkpt lat="44.58044" lon="0.81966">
        <ele>134</ele>
        <time>2012-01-30T15:37:11Z</time>
      </trkpt>
      <trkpt lat="44.58043" lon="0.81973">
        <ele>133</ele>
        <time>2012-01-30T15:37:12Z</time>
      </trkpt>
      <trkpt lat="44.58041" lon="0.8198">
        <ele>133</ele>
        <time>2012-01-30T15:37:13Z</time>
      </trkpt>
      <trkpt lat="44.5804" lon="0.81986">
        <ele>133</ele>
        <time>2012-01-30T15:37:14Z</time>
      </trkpt>
      <trkpt lat="44.58038" lon="0.81993">
        <ele>132</ele>
        <time>2012-01-30T15:37:15Z</time>
      </trkpt>
      <trkpt lat="44.58037" lon="0.81999">
        <ele>132</ele>
        <time>2012-01-30T15:37:16Z</time>
      </trkpt>
      <trkpt lat="44.58035" lon="0.82007">
        <ele>132</ele>
        <time>2012-01-30T15:37:17Z</time>
      </trkpt>
      <trkpt lat="44.58034" lon="0.82013">
        <ele>131</ele>
        <time>2012-01-30T15:37:18Z</time>
      </trkpt>
      <trkpt lat="44.58033" lon="0.8202">
        <ele>130</ele>
        <time>2012-01-30T15:37:19Z</time>
      </trkpt>
      <trkpt lat="44.58031" lon="0.82027">
        <ele>130</ele>
        <time>2012-01-30T15:37:20Z</time>
      </trkpt>
      <trkpt lat="44.5803" lon="0.82034">
        <ele>129</ele>
        <time>2012-01-30T15:37:21Z</time>
      </trkpt>
      <trkpt lat="44.58028" lon="0.82041">
        <ele>128</ele>
        <time>2012-01-30T15:37:22Z</time>
      </trkpt>
      <trkpt lat="44.58027" lon="0.82047">
        <ele>128</ele>
        <time>2012-01-30T15:37:23Z</time>
      </trkpt>
      <trkpt lat="44.58026" lon="0.82054">
        <ele>128</ele>
        <time>2012-01-30T15:37:24Z</time>
      </trkpt>
      <trkpt lat="44.58025" lon="0.82061">
        <ele>128</ele>
        <time>2012-01-30T15:37:25Z</time>
      </trkpt>
      <trkpt lat="44.58023" lon="0.82067">
        <ele>128</ele>
        <time>2012-01-30T15:37:26Z</time>
      </trkpt>
      <trkpt lat="44.58022" lon="0.82073">
        <ele>128</ele>
        <time>2012-01-30T15:37:27Z</time>
      </trkpt>
      <trkpt lat="44.5802" lon="0.8208">
        <ele>128</ele>
        <time>2012-01-30T15:37:28Z</time>
      </trkpt>
      <trkpt lat="44.58018" lon="0.82086">
        <ele>128</ele>
        <time>2012-01-30T15:37:29Z</time>
      </trkpt>
      <trkpt lat="44.58017" lon="0.82093">
        <ele>128</ele>
        <time>2012-01-30T15:37:30Z</time>
      </trkpt>
      <trkpt lat="44.58016" lon="0.82099">
        <ele>128</ele>
        <time>2012-01-30T15:37:31Z</time>
      </trkpt>
      <trkpt lat="44.58015" lon="0.82106">
        <ele>128</ele>
        <time>2012-01-30T15:37:32Z</time>
      </trkpt>
      <trkpt lat="44.58014" lon="0.82113">
        <ele>128</ele>
        <time>2012-01-30T15:37:33Z</time>
      </trkpt>
      <trkpt lat="44.58012" lon="0.8212">
        <ele>128</ele>
        <time>2012-01-30T15:37:34Z</time>
      </trkpt>
      <trkpt lat="44.58011" lon="0.82126">
        <ele>128</ele>
        <time>2012-01-30T15:37:35Z</time>
      </trkpt>
      <trkpt lat="44.5801" lon="0.82133">
        <ele>128</ele>
        <time>2012-01-30T15:37:36Z</time>
      </trkpt>
      <trkpt lat="44.58008" lon="0.82139">
        <ele>128</ele>
        <time>2012-01-30T15:37:37Z</time>
      </trkpt>
      <trkpt lat="44.58007" lon="0.82147">
        <ele>128</ele>
        <time>2012-01-30T15:37:38Z</time>
      </trkpt>
      <trkpt lat="44.58006" lon="0.82154">
        <ele>128</ele>
        <time>2012-01-30T15:37:39Z</time>
      </trkpt>
      <trkpt lat="44.58005" lon="0.82161">
        <ele>128</ele>
        <time>2012-01-30T15:37:40Z</time>
      </trkpt>
      <trkpt lat="44.58004" lon="0.82168">
        <ele>128</ele>
        <time>2012-01-30T15:37:41Z</time>
      </trkpt>
      <trkpt lat="44.58004" lon="0.82176">
        <ele>128</ele>
        <time>2012-01-30T15:37:42Z</time>
      </trkpt>
      <trkpt lat="44.58003" lon="0.82183">
        <ele>128</ele>
        <time>2012-01-30T15:37:43Z</time>
      </trkpt>
      <trkpt lat="44.58003" lon="0.8219">
        <ele>128</ele>
        <time>2012-01-30T15:37:44Z</time>
      </trkpt>
      <trkpt lat="44.58002" lon="0.82197">
        <ele>128</ele>
        <time>2012-01-30T15:37:45Z</time>
      </trkpt>
      <trkpt lat="44.58002" lon="0.82204">
        <ele>128</ele>
        <time>2012-01-30T15:37:46Z</time>
      </trkpt>
      <trkpt lat="44.58002" lon="0.82211">
        <ele>128</ele>
        <time>2012-01-30T15:37:47Z</time>
      </trkpt>
      <trkpt lat="44.58002" lon="0.82218">
        <ele>128</ele>
        <time>2012-01-30T15:37:48Z</time>
      </trkpt>
      <trkpt lat="44.58002" lon="0.82225">
        <ele>129</ele>
        <time>2012-01-30T15:37:49Z</time>
      </trkpt>
      <trkpt lat="44.58002" lon="0.82232">
        <ele>129</ele>
        <time>2012-01-30T15:37:50Z</time>
      </trkpt>
      <trkpt lat="44.58002" lon="0.82239">
        <ele>129</ele>
        <time>2012-01-30T15:37:51Z</time>
      </trkpt>
      <trkpt lat="44.58002" lon="0.82246">
        <ele>130</ele>
        <time>2012-01-30T15:37:52Z</time>
      </trkpt>
      <trkpt lat="44.58002" lon="0.82253">
        <ele>130</ele>
        <time>2012-01-30T15:37:53Z</time>
      </trkpt>
      <trkpt lat="44.58003" lon="0.8226">
        <ele>130</ele>
        <time>2012-01-30T15:37:54Z</time>
      </trkpt>
      <trkpt lat="44.58003" lon="0.82267">
        <ele>130</ele>
        <time>2012-01-30T15:37:55Z</time>
      </trkpt>
      <trkpt lat="44.58004" lon="0.82274">
        <ele>131</ele>
        <time>2012-01-30T15:37:56Z</time>
      </trkpt>
      <trkpt lat="44.58004" lon="0.82281">
        <ele>131</ele>
        <time>2012-01-30T15:37:57Z</time>
      </trkpt>
      <trkpt lat="44.58004" lon="0.82288">
        <ele>131</ele>
        <time>2012-01-30T15:37:58Z</time>
      </trkpt>
      <trkpt lat="44.58004" lon="0.82294">
        <ele>131</ele>
        <time>2012-01-30T15:37:59Z</time>
      </trkpt>
      <trkpt lat="44.58005" lon="0.823">
        <ele>131</ele>
        <time>2012-01-30T15:38:00Z</time>
      </trkpt>
      <trkpt lat="44.58005" lon="0.82306">
        <ele>131</ele>
        <time>2012-01-30T15:38:01Z</time>
      </trkpt>
      <trkpt lat="44.58005" lon="0.82312">
        <ele>131</ele>
        <time>2012-01-30T15:38:02Z</time>
      </trkpt>
      <trkpt lat="44.58005" lon="0.82317">
        <ele>131</ele>
        <time>2012-01-30T15:38:03Z</time>
      </trkpt>
      <trkpt lat="44.58006" lon="0.82323">
        <ele>131</ele>
        <time>2012-01-30T15:38:04Z</time>
      </trkpt>
      <trkpt lat="44.58006" lon="0.82329">
        <ele>131</ele>
        <time>2012-01-30T15:38:05Z</time>
      </trkpt>
      <trkpt lat="44.58007" lon="0.82335">
        <ele>131</ele>
        <time>2012-01-30T15:38:06Z</time>
      </trkpt>
      <trkpt lat="44.58007" lon="0.82341">
        <ele>131</ele>
        <time>2012-01-30T15:38:07Z</time>
      </trkpt>
      <trkpt lat="44.58008" lon="0.82346">
        <ele>131</ele>
        <time>2012-01-30T15:38:08Z</time>
      </trkpt>
      <trkpt lat="44.58008" lon="0.82353">
        <ele>131</ele>
        <time>2012-01-30T15:38:09Z</time>
      </trkpt>
      <trkpt lat="44.58009" lon="0.82359">
        <ele>131</ele>
        <time>2012-01-30T15:38:10Z</time>
      </trkpt>
      <trkpt lat="44.58009" lon="0.82365">
        <ele>131</ele>
        <time>2012-01-30T15:38:11Z</time>
      </trkpt>
      <trkpt lat="44.5801" lon="0.82371">
        <ele>131</ele>
        <time>2012-01-30T15:38:12Z</time>
      </trkpt>
      <trkpt lat="44.5801" lon="0.82377">
        <ele>131</ele>
        <time>2012-01-30T15:38:13Z</time>
      </trkpt>
      <trkpt lat="44.58011" lon="0.82384">
        <ele>131</ele>
        <time>2012-01-30T15:38:14Z</time>
      </trkpt>
      <trkpt lat="44.58011" lon="0.8239">
        <ele>131</ele>
        <time>2012-01-30T15:38:15Z</time>
      </trkpt>
      <trkpt lat="44.58012" lon="0.82396">
        <ele>131</ele>
        <time>2012-01-30T15:38:16Z</time>
      </trkpt>
      <trkpt lat="44.58012" lon="0.82402">
        <ele>131</ele>
        <time>2012-01-30T15:38:17Z</time>
      </trkpt>
      <trkpt lat="44.58013" lon="0.82408">
        <ele>131</ele>
        <time>2012-01-30T15:38:18Z</time>
      </trkpt>
      <trkpt lat="44.58014" lon="0.82413">
        <ele>131</ele>
        <time>2012-01-30T15:38:19Z</time>
      </trkpt>
      <trkpt lat="44.58014" lon="0.82419">
        <ele>131</ele>
        <time>2012-01-30T15:38:20Z</time>
      </trkpt>
      <trkpt lat="44.58014" lon="0.82425">
        <ele>131</ele>
        <time>2012-01-30T15:38:21Z</time>
      </trkpt>
      <trkpt lat="44.58014" lon="0.8243">
        <ele>131</ele>
        <time>2012-01-30T15:38:22Z</time>
      </trkpt>
      <trkpt lat="44.58014" lon="0.82436">
        <ele>131</ele>
        <time>2012-01-30T15:38:23Z</time>
      </trkpt>
      <trkpt lat="44.58014" lon="0.82441">
        <ele>131</ele>
        <time>2012-01-30T15:38:24Z</time>
      </trkpt>
      <trkpt lat="44.58014" lon="0.82446">
        <ele>131</ele>
        <time>2012-01-30T15:38:25Z</time>
      </trkpt>
      <trkpt lat="44.58013" lon="0.82452">
        <ele>131</ele>
        <time>2012-01-30T15:38:26Z</time>
      </trkpt>
      <trkpt lat="44.58012" lon="0.82458">
        <ele>131</ele>
        <time>2012-01-30T15:38:27Z</time>
      </trkpt>
      <trkpt lat="44.58012" lon="0.82463">
        <ele>131</ele>
        <time>2012-01-30T15:38:28Z</time>
      </trkpt>
      <trkpt lat="44.58011" lon="0.82469">
        <ele>131</ele>
        <time>2012-01-30T15:38:29Z</time>
      </trkpt>
      <trkpt lat="44.5801" lon="0.82474">
        <ele>131</ele>
        <time>2012-01-30T15:38:30Z</time>
      </trkpt>
      <trkpt lat="44.58009" lon="0.8248">
        <ele>131</ele>
        <time>2012-01-30T15:38:31Z</time>
      </trkpt>
      <trkpt lat="44.58008" lon="0.82486">
        <ele>131</ele>
        <time>2012-01-30T15:38:32Z</time>
      </trkpt>
      <trkpt lat="44.58007" lon="0.82491">
        <ele>131</ele>
        <time>2012-01-30T15:38:33Z</time>
      </trkpt>
      <trkpt lat="44.58006" lon="0.82497">
        <ele>131</ele>
        <time>2012-01-30T15:38:34Z</time>
      </trkpt>
      <trkpt lat="44.58004" lon="0.82502">
        <ele>131</ele>
        <time>2012-01-30T15:38:35Z</time>
      </trkpt>
      <trkpt lat="44.58003" lon="0.82508">
        <ele>131</ele>
        <time>2012-01-30T15:38:36Z</time>
      </trkpt>
      <trkpt lat="44.58002" lon="0.82514">
        <ele>131</ele>
        <time>2012-01-30T15:38:37Z</time>
      </trkpt>
      <trkpt lat="44.58" lon="0.82519">
        <ele>131</ele>
        <time>2012-01-30T15:38:38Z</time>
      </trkpt>
      <trkpt lat="44.57999" lon="0.82525">
        <ele>131</ele>
        <time>2012-01-30T15:38:39Z</time>
      </trkpt>
      <trkpt lat="44.57998" lon="0.82531">
        <ele>131</ele>
        <time>2012-01-30T15:38:40Z</time>
      </trkpt>
      <trkpt lat="44.57996" lon="0.82537">
        <ele>131</ele>
        <time>2012-01-30T15:38:41Z</time>
      </trkpt>
      <trkpt lat="44.57995" lon="0.82542">
        <ele>131</ele>
        <time>2012-01-30T15:38:42Z</time>
      </trkpt>
      <trkpt lat="44.57994" lon="0.82548">
        <ele>131</ele>
        <time>2012-01-30T15:38:43Z</time>
      </trkpt>
      <trkpt lat="44.57992" lon="0.82553">
        <ele>131</ele>
        <time>2012-01-30T15:38:44Z</time>
      </trkpt>
      <trkpt lat="44.57991" lon="0.82559">
        <ele>131</ele>
        <time>2012-01-30T15:38:45Z</time>
      </trkpt>
      <trkpt lat="44.5799" lon="0.82565">
        <ele>131</ele>
        <time>2012-01-30T15:38:46Z</time>
      </trkpt>
      <trkpt lat="44.57988" lon="0.8257">
        <ele>131</ele>
        <time>2012-01-30T15:38:47Z</time>
      </trkpt>
      <trkpt lat="44.57987" lon="0.82576">
        <ele>131</ele>
        <time>2012-01-30T15:38:48Z</time>
      </trkpt>
      <trkpt lat="44.57986" lon="0.82582">
        <ele>131</ele>
        <time>2012-01-30T15:38:49Z</time>
      </trkpt>
      <trkpt lat="44.57985" lon="0.82588">
        <ele>131</ele>
        <time>2012-01-30T15:38:50Z</time>
      </trkpt>
      <trkpt lat="44.57984" lon="0.82594">
        <ele>131</ele>
        <time>2012-01-30T15:38:51Z</time>
      </trkpt>
      <trkpt lat="44.57983" lon="0.826">
        <ele>131</ele>
        <time>2012-01-30T15:38:52Z</time>
      </trkpt>
      <trkpt lat="44.57982" lon="0.82607">
        <ele>131</ele>
        <time>2012-01-30T15:38:53Z</time>
      </trkpt>
      <trkpt lat="44.57982" lon="0.82613">
        <ele>131</ele>
        <time>2012-01-30T15:38:54Z</time>
      </trkpt>
      <trkpt lat="44.57981" lon="0.82619">
        <ele>131</ele>
        <time>2012-01-30T15:38:55Z</time>
      </trkpt>
      <trkpt lat="44.57981" lon="0.82625">
        <ele>131</ele>
        <time>2012-01-30T15:38:56Z</time>
      </trkpt>
      <trkpt lat="44.5798" lon="0.82631">
        <ele>131</ele>
        <time>2012-01-30T15:38:57Z</time>
      </trkpt>
      <trkpt lat="44.5798" lon="0.82637">
        <ele>131</ele>
        <time>2012-01-30T15:38:58Z</time>
      </trkpt>
      <trkpt lat="44.5798" lon="0.82643">
        <ele>131</ele>
        <time>2012-01-30T15:38:59Z</time>
      </trkpt>
      <trkpt lat="44.57981" lon="0.82649">
        <ele>131</ele>
        <time>2012-01-30T15:39:00Z</time>
      </trkpt>
      <trkpt lat="44.57981" lon="0.82655">
        <ele>131</ele>
        <time>2012-01-30T15:39:01Z</time>
      </trkpt>
      <trkpt lat="44.57981" lon="0.82661">
        <ele>131</ele>
        <time>2012-01-30T15:39:02Z</time>
      </trkpt>
      <trkpt lat="44.57982" lon="0.82666">
        <ele>132</ele>
        <time>2012-01-30T15:39:03Z</time>
      </trkpt>
      <trkpt lat="44.57982" lon="0.82672">
        <ele>132</ele>
        <time>2012-01-30T15:39:04Z</time>
      </trkpt>
      <trkpt lat="44.57983" lon="0.82678">
        <ele>132</ele>
        <time>2012-01-30T15:39:05Z</time>
      </trkpt>
      <trkpt lat="44.57983" lon="0.82684">
        <ele>132</ele>
        <time>2012-01-30T15:39:06Z</time>
      </trkpt>
      <trkpt lat="44.57984" lon="0.8269">
        <ele>132</ele>
        <time>2012-01-30T15:39:07Z</time>
      </trkpt>
      <trkpt lat="44.57985" lon="0.82696">
        <ele>132</ele>
        <time>2012-01-30T15:39:08Z</time>
      </trkpt>
      <trkpt lat="44.57985" lon="0.82701">
        <ele>133</ele>
        <time>2012-01-30T15:39:09Z</time>
      </trkpt>
      <trkpt lat="44.57986" lon="0.82707">
        <ele>133</ele>
        <time>2012-01-30T15:39:10Z</time>
      </trkpt>
      <trkpt lat="44.57987" lon="0.82713">
        <ele>133</ele>
        <time>2012-01-30T15:39:11Z</time>
      </trkpt>
      <trkpt lat="44.57987" lon="0.82719">
        <ele>133</ele>
        <time>2012-01-30T15:39:12Z</time>
      </trkpt>
      <trkpt lat="44.57988" lon="0.82725">
        <ele>133</ele>
        <time>2012-01-30T15:39:13Z</time>
      </trkpt>
      <trkpt lat="44.57988" lon="0.8273">
        <ele>133</ele>
        <time>2012-01-30T15:39:14Z</time>
      </trkpt>
      <trkpt lat="44.57989" lon="0.82736">
        <ele>133</ele>
        <time>2012-01-30T15:39:15Z</time>
      </trkpt>
      <trkpt lat="44.5799" lon="0.82742">
        <ele>133</ele>
        <time>2012-01-30T15:39:16Z</time>
      </trkpt>
      <trkpt lat="44.57991" lon="0.82747">
        <ele>133</ele>
        <time>2012-01-30T15:39:17Z</time>
      </trkpt>
      <trkpt lat="44.57991" lon="0.82753">
        <ele>133</ele>
        <time>2012-01-30T15:39:18Z</time>
      </trkpt>
      <trkpt lat="44.57992" lon="0.82758">
        <ele>133</ele>
        <time>2012-01-30T15:39:19Z</time>
      </trkpt>
      <trkpt lat="44.57993" lon="0.82763">
        <ele>133</ele>
        <time>2012-01-30T15:39:20Z</time>
      </trkpt>
      <trkpt lat="44.57993" lon="0.82769">
        <ele>133</ele>
        <time>2012-01-30T15:39:21Z</time>
      </trkpt>
      <trkpt lat="44.57994" lon="0.82774">
        <ele>133</ele>
        <time>2012-01-30T15:39:22Z</time>
      </trkpt>
      <trkpt lat="44.57995" lon="0.8278">
        <ele>133</ele>
        <time>2012-01-30T15:39:23Z</time>
      </trkpt>
      <trkpt lat="44.57996" lon="0.82785">
        <ele>133</ele>
        <time>2012-01-30T15:39:24Z</time>
      </trkpt>
      <trkpt lat="44.57996" lon="0.8279">
        <ele>133</ele>
        <time>2012-01-30T15:39:25Z</time>
      </trkpt>
      <trkpt lat="44.57997" lon="0.82796">
        <ele>133</ele>
        <time>2012-01-30T15:39:26Z</time>
      </trkpt>
      <trkpt lat="44.57998" lon="0.82801">
        <ele>133</ele>
        <time>2012-01-30T15:39:27Z</time>
      </trkpt>
      <trkpt lat="44.57999" lon="0.82806">
        <ele>133</ele>
        <time>2012-01-30T15:39:28Z</time>
      </trkpt>
      <trkpt lat="44.58001" lon="0.82812">
        <ele>133</ele>
        <time>2012-01-30T15:39:29Z</time>
      </trkpt>
      <trkpt lat="44.58002" lon="0.82817">
        <ele>133</ele>
        <time>2012-01-30T15:39:30Z</time>
      </trkpt>
      <trkpt lat="44.58003" lon="0.82822">
        <ele>133</ele>
        <time>2012-01-30T15:39:31Z</time>
      </trkpt>
      <trkpt lat="44.58005" lon="0.82827">
        <ele>133</ele>
        <time>2012-01-30T15:39:32Z</time>
      </trkpt>
      <trkpt lat="44.58007" lon="0.82832">
        <ele>133</ele>
        <time>2012-01-30T15:39:33Z</time>
      </trkpt>
      <trkpt lat="44.58008" lon="0.82837">
        <ele>133</ele>
        <time>2012-01-30T15:39:34Z</time>
      </trkpt>
      <trkpt lat="44.5801" lon="0.82842">
        <ele>133</ele>
        <time>2012-01-30T15:39:35Z</time>
      </trkpt>
      <trkpt lat="44.58012" lon="0.82847">
        <ele>133</ele>
        <time>2012-01-30T15:39:36Z</time>
      </trkpt>
      <trkpt lat="44.58014" lon="0.82851">
        <ele>133</ele>
        <time>2012-01-30T15:39:37Z</time>
      </trkpt>
      <trkpt lat="44.58015" lon="0.82856">
        <ele>133</ele>
        <time>2012-01-30T15:39:38Z</time>
      </trkpt>
      <trkpt lat="44.58016" lon="0.8286">
        <ele>133</ele>
        <time>2012-01-30T15:39:39Z</time>
      </trkpt>
      <trkpt lat="44.58018" lon="0.82865">
        <ele>134</ele>
        <time>2012-01-30T15:39:40Z</time>
      </trkpt>
      <trkpt lat="44.58018" lon="0.82868">
        <ele>134</ele>
        <time>2012-01-30T15:39:41Z</time>
      </trkpt>
      <trkpt lat="44.58019" lon="0.82872">
        <ele>134</ele>
        <time>2012-01-30T15:39:42Z</time>
      </trkpt>
      <trkpt lat="44.5802" lon="0.82876">
        <ele>134</ele>
        <time>2012-01-30T15:39:43Z</time>
      </trkpt>
      <trkpt lat="44.58021" lon="0.82879">
        <ele>134</ele>
        <time>2012-01-30T15:39:44Z</time>
      </trkpt>
      <trkpt lat="44.58023" lon="0.82883">
        <ele>134</ele>
        <time>2012-01-30T15:39:45Z</time>
      </trkpt>
      <trkpt lat="44.58025" lon="0.82886">
        <ele>134</ele>
        <time>2012-01-30T15:39:46Z</time>
      </trkpt>
      <trkpt lat="44.58027" lon="0.82888">
        <ele>134</ele>
        <time>2012-01-30T15:39:47Z</time>
      </trkpt>
      <trkpt lat="44.5803" lon="0.82888">
        <ele>134</ele>
        <time>2012-01-30T15:39:48Z</time>
      </trkpt>
      <trkpt lat="44.58034" lon="0.82886">
        <ele>134</ele>
        <time>2012-01-30T15:39:49Z</time>
      </trkpt>
      <trkpt lat="44.58037" lon="0.82883">
        <ele>134</ele>
        <time>2012-01-30T15:39:50Z</time>
      </trkpt>
      <trkpt lat="44.58041" lon="0.8288">
        <ele>134</ele>
        <time>2012-01-30T15:39:51Z</time>
      </trkpt>
      <trkpt lat="44.58044" lon="0.82876">
        <ele>134</ele>
        <time>2012-01-30T15:39:52Z</time>
      </trkpt>
      <trkpt lat="44.58048" lon="0.82873">
        <ele>134</ele>
        <time>2012-01-30T15:39:53Z</time>
      </trkpt>
      <trkpt lat="44.58052" lon="0.82869">
        <ele>134</ele>
        <time>2012-01-30T15:39:54Z</time>
      </trkpt>
      <trkpt lat="44.58056" lon="0.82866">
        <ele>134</ele>
        <time>2012-01-30T15:39:55Z</time>
      </trkpt>
      <trkpt lat="44.5806" lon="0.82862">
        <ele>134</ele>
        <time>2012-01-30T15:39:56Z</time>
      </trkpt>
      <trkpt lat="44.58064" lon="0.82858">
        <ele>134</ele>
        <time>2012-01-30T15:39:57Z</time>
      </trkpt>
      <trkpt lat="44.58068" lon="0.82854">
        <ele>134</ele>
        <time>2012-01-30T15:39:58Z</time>
      </trkpt>
      <trkpt lat="44.58072" lon="0.82851">
        <ele>134</ele>
        <time>2012-01-30T15:39:59Z</time>
      </trkpt>
      <trkpt lat="44.58075" lon="0.82849">
        <ele>134</ele>
        <time>2012-01-30T15:40:00Z</time>
      </trkpt>
      <trkpt lat="44.58079" lon="0.82846">
        <ele>134</ele>
        <time>2012-01-30T15:40:01Z</time>
      </trkpt>
      <trkpt lat="44.58083" lon="0.82842">
        <ele>135</ele>
        <time>2012-01-30T15:40:02Z</time>
      </trkpt>
      <trkpt lat="44.58087" lon="0.8284">
        <ele>135</ele>
        <time>2012-01-30T15:40:03Z</time>
      </trkpt>
      <trkpt lat="44.58091" lon="0.82837">
        <ele>136</ele>
        <time>2012-01-30T15:40:04Z</time>
      </trkpt>
      <trkpt lat="44.58094" lon="0.82833">
        <ele>136</ele>
        <time>2012-01-30T15:40:05Z</time>
      </trkpt>
      <trkpt lat="44.58098" lon="0.8283">
        <ele>136</ele>
        <time>2012-01-30T15:40:06Z</time>
      </trkpt>
      <trkpt lat="44.58102" lon="0.82826">
        <ele>136</ele>
        <time>2012-01-30T15:40:07Z</time>
      </trkpt>
      <trkpt lat="44.58105" lon="0.82823">
        <ele>137</ele>
        <time>2012-01-30T15:40:08Z</time>
      </trkpt>
      <trkpt lat="44.58109" lon="0.82819">
        <ele>137</ele>
        <time>2012-01-30T15:40:09Z</time>
      </trkpt>
      <trkpt lat="44.58113" lon="0.82816">
        <ele>138</ele>
        <time>2012-01-30T15:40:10Z</time>
      </trkpt>
      <trkpt lat="44.58117" lon="0.82812">
        <ele>138</ele>
        <time>2012-01-30T15:40:11Z</time>
      </trkpt>
      <trkpt lat="44.58121" lon="0.82809">
        <ele>138</ele>
        <time>2012-01-30T15:40:12Z</time>
      </trkpt>
      <trkpt lat="44.58126" lon="0.82805">
        <ele>138</ele>
        <time>2012-01-30T15:40:13Z</time>
      </trkpt>
      <trkpt lat="44.5813" lon="0.82801">
        <ele>138</ele>
        <time>2012-01-30T15:40:14Z</time>
      </trkpt>
      <trkpt lat="44.58134" lon="0.82798">
        <ele>138</ele>
        <time>2012-01-30T15:40:15Z</time>
      </trkpt>
      <trkpt lat="44.58139" lon="0.82794">
        <ele>138</ele>
        <time>2012-01-30T15:40:16Z</time>
      </trkpt>
      <trkpt lat="44.58143" lon="0.8279">
        <ele>138</ele>
        <time>2012-01-30T15:40:17Z</time>
      </trkpt>
      <trkpt lat="44.58147" lon="0.82787">
        <ele>138</ele>
        <time>2012-01-30T15:40:18Z</time>
      </trkpt>
      <trkpt lat="44.58152" lon="0.82784">
        <ele>138</ele>
        <time>2012-01-30T15:40:19Z</time>
      </trkpt>
      <trkpt lat="44.58157" lon="0.8278">
        <ele>138</ele>
        <time>2012-01-30T15:40:20Z</time>
      </trkpt>
      <trkpt lat="44.58161" lon="0.82778">
        <ele>139</ele>
        <time>2012-01-30T15:40:21Z</time>
      </trkpt>
      <trkpt lat="44.58166" lon="0.82775">
        <ele>139</ele>
        <time>2012-01-30T15:40:22Z</time>
      </trkpt>
      <trkpt lat="44.58171" lon="0.82772">
        <ele>139</ele>
        <time>2012-01-30T15:40:23Z</time>
      </trkpt>
      <trkpt lat="44.58176" lon="0.82769">
        <ele>139</ele>
        <time>2012-01-30T15:40:24Z</time>
      </trkpt>
      <trkpt lat="44.58181" lon="0.82766">
        <ele>139</ele>
        <time>2012-01-30T15:40:25Z</time>
      </trkpt>
      <trkpt lat="44.58186" lon="0.82763">
        <ele>139</ele>
        <time>2012-01-30T15:40:26Z</time>
      </trkpt>
      <trkpt lat="44.58191" lon="0.8276">
        <ele>139</ele>
        <time>2012-01-30T15:40:27Z</time>
      </trkpt>
      <trkpt lat="44.58196" lon="0.82757">
        <ele>139</ele>
        <time>2012-01-30T15:40:28Z</time>
      </trkpt>
      <trkpt lat="44.582" lon="0.82753">
        <ele>139</ele>
        <time>2012-01-30T15:40:29Z</time>
      </trkpt>
      <trkpt lat="44.58205" lon="0.8275">
        <ele>139</ele>
        <time>2012-01-30T15:40:30Z</time>
      </trkpt>
      <trkpt lat="44.5821" lon="0.82748">
        <ele>139</ele>
        <time>2012-01-30T15:40:31Z</time>
      </trkpt>
      <trkpt lat="44.58215" lon="0.82745">
        <ele>139</ele>
        <time>2012-01-30T15:40:32Z</time>
      </trkpt>
      <trkpt lat="44.5822" lon="0.82742">
        <ele>139</ele>
        <time>2012-01-30T15:40:33Z</time>
      </trkpt>
      <trkpt lat="44.58224" lon="0.82739">
        <ele>139</ele>
        <time>2012-01-30T15:40:34Z</time>
      </trkpt>
      <trkpt lat="44.58229" lon="0.82736">
        <ele>139</ele>
        <time>2012-01-30T15:40:35Z</time>
      </trkpt>
      <trkpt lat="44.58234" lon="0.82734">
        <ele>139</ele>
        <time>2012-01-30T15:40:36Z</time>
      </trkpt>
      <trkpt lat="44.58239" lon="0.82731">
        <ele>139</ele>
        <time>2012-01-30T15:40:37Z</time>
      </trkpt>
      <trkpt lat="44.58243" lon="0.82728">
        <ele>139</ele>
        <time>2012-01-30T15:40:38Z</time>
      </trkpt>
      <trkpt lat="44.58248" lon="0.82725">
        <ele>139</ele>
        <time>2012-01-30T15:40:39Z</time>
      </trkpt>
      <trkpt lat="44.58252" lon="0.82723">
        <ele>139</ele>
        <time>2012-01-30T15:40:40Z</time>
      </trkpt>
      <trkpt lat="44.58257" lon="0.8272">
        <ele>139</ele>
        <time>2012-01-30T15:40:41Z</time>
      </trkpt>
      <trkpt lat="44.58261" lon="0.82718">
        <ele>139</ele>
        <time>2012-01-30T15:40:42Z</time>
      </trkpt>
      <trkpt lat="44.58266" lon="0.82715">
        <ele>139</ele>
        <time>2012-01-30T15:40:43Z</time>
      </trkpt>
      <trkpt lat="44.58271" lon="0.82713">
        <ele>139</ele>
        <time>2012-01-30T15:40:44Z</time>
      </trkpt>
      <trkpt lat="44.58276" lon="0.82711">
        <ele>139</ele>
        <time>2012-01-30T15:40:45Z</time>
      </trkpt>
      <trkpt lat="44.58281" lon="0.82709">
        <ele>139</ele>
        <time>2012-01-30T15:40:46Z</time>
      </trkpt>
      <trkpt lat="44.58286" lon="0.82707">
        <ele>139</ele>
        <time>2012-01-30T15:40:47Z</time>
      </trkpt>
      <trkpt lat="44.5829" lon="0.82706">
        <ele>139</ele>
        <time>2012-01-30T15:40:48Z</time>
      </trkpt>
      <trkpt lat="44.58295" lon="0.82704">
        <ele>139</ele>
        <time>2012-01-30T15:40:49Z</time>
      </trkpt>
      <trkpt lat="44.583" lon="0.82704">
        <ele>139</ele>
        <time>2012-01-30T15:40:50Z</time>
      </trkpt>
      <trkpt lat="44.58305" lon="0.82703">
        <ele>139</ele>
        <time>2012-01-30T15:40:51Z</time>
      </trkpt>
      <trkpt lat="44.58309" lon="0.82702">
        <ele>139</ele>
        <time>2012-01-30T15:40:52Z</time>
      </trkpt>
      <trkpt lat="44.58315" lon="0.827">
        <ele>139</ele>
        <time>2012-01-30T15:40:53Z</time>
      </trkpt>
      <trkpt lat="44.58319" lon="0.827">
        <ele>139</ele>
        <time>2012-01-30T15:40:54Z</time>
      </trkpt>
      <trkpt lat="44.58324" lon="0.82699">
        <ele>139</ele>
        <time>2012-01-30T15:40:55Z</time>
      </trkpt>
      <trkpt lat="44.58329" lon="0.82697">
        <ele>139</ele>
        <time>2012-01-30T15:40:56Z</time>
      </trkpt>
      <trkpt lat="44.58334" lon="0.82695">
        <ele>139</ele>
        <time>2012-01-30T15:40:57Z</time>
      </trkpt>
      <trkpt lat="44.58339" lon="0.82693">
        <ele>139</ele>
        <time>2012-01-30T15:40:58Z</time>
      </trkpt>
      <trkpt lat="44.58344" lon="0.82691">
        <ele>139</ele>
        <time>2012-01-30T15:40:59Z</time>
      </trkpt>
      <trkpt lat="44.58348" lon="0.82688">
        <ele>139</ele>
        <time>2012-01-30T15:41:00Z</time>
      </trkpt>
      <trkpt lat="44.58353" lon="0.82685">
        <ele>139</ele>
        <time>2012-01-30T15:41:01Z</time>
      </trkpt>
      <trkpt lat="44.58358" lon="0.82682">
        <ele>139</ele>
        <time>2012-01-30T15:41:02Z</time>
      </trkpt>
      <trkpt lat="44.58362" lon="0.82679">
        <ele>139</ele>
        <time>2012-01-30T15:41:03Z</time>
      </trkpt>
      <trkpt lat="44.58367" lon="0.82676">
        <ele>139</ele>
        <time>2012-01-30T15:41:04Z</time>
      </trkpt>
      <trkpt lat="44.58372" lon="0.82673">
        <ele>139</ele>
        <time>2012-01-30T15:41:05Z</time>
      </trkpt>
      <trkpt lat="44.58376" lon="0.8267">
        <ele>139</ele>
        <time>2012-01-30T15:41:06Z</time>
      </trkpt>
      <trkpt lat="44.58381" lon="0.82666">
        <ele>139</ele>
        <time>2012-01-30T15:41:07Z</time>
      </trkpt>
      <trkpt lat="44.58385" lon="0.82664">
        <ele>139</ele>
        <time>2012-01-30T15:41:08Z</time>
      </trkpt>
      <trkpt lat="44.5839" lon="0.82661">
        <ele>139</ele>
        <time>2012-01-30T15:41:09Z</time>
      </trkpt>
      <trkpt lat="44.58394" lon="0.82658">
        <ele>139</ele>
        <time>2012-01-30T15:41:10Z</time>
      </trkpt>
      <trkpt lat="44.58398" lon="0.82656">
        <ele>139</ele>
        <time>2012-01-30T15:41:11Z</time>
      </trkpt>
      <trkpt lat="44.58402" lon="0.82653">
        <ele>139</ele>
        <time>2012-01-30T15:41:12Z</time>
      </trkpt>
      <trkpt lat="44.58406" lon="0.8265">
        <ele>139</ele>
        <time>2012-01-30T15:41:13Z</time>
      </trkpt>
      <trkpt lat="44.5841" lon="0.82647">
        <ele>139</ele>
        <time>2012-01-30T15:41:14Z</time>
      </trkpt>
      <trkpt lat="44.58414" lon="0.82644">
        <ele>139</ele>
        <time>2012-01-30T15:41:15Z</time>
      </trkpt>
      <trkpt lat="44.58418" lon="0.82641">
        <ele>139</ele>
        <time>2012-01-30T15:41:16Z</time>
      </trkpt>
      <trkpt lat="44.58422" lon="0.82638">
        <ele>139</ele>
        <time>2012-01-30T15:41:17Z</time>
      </trkpt>
      <trkpt lat="44.58426" lon="0.82634">
        <ele>139</ele>
        <time>2012-01-30T15:41:18Z</time>
      </trkpt>
      <trkpt lat="44.5843" lon="0.8263">
        <ele>139</ele>
        <time>2012-01-30T15:41:19Z</time>
      </trkpt>
      <trkpt lat="44.58434" lon="0.82627">
        <ele>139</ele>
        <time>2012-01-30T15:41:20Z</time>
      </trkpt>
      <trkpt lat="44.58438" lon="0.82623">
        <ele>139</ele>
        <time>2012-01-30T15:41:21Z</time>
      </trkpt>
      <trkpt lat="44.58442" lon="0.8262">
        <ele>139</ele>
        <time>2012-01-30T15:41:22Z</time>
      </trkpt>
      <trkpt lat="44.58446" lon="0.82616">
        <ele>139</ele>
        <time>2012-01-30T15:41:23Z</time>
      </trkpt>
      <trkpt lat="44.5845" lon="0.82613">
        <ele>139</ele>
        <time>2012-01-30T15:41:24Z</time>
      </trkpt>
      <trkpt lat="44.58453" lon="0.8261">
        <ele>139</ele>
        <time>2012-01-30T15:41:25Z</time>
      </trkpt>
      <trkpt lat="44.58456" lon="0.82607">
        <ele>139</ele>
        <time>2012-01-30T15:41:26Z</time>
      </trkpt>
      <trkpt lat="44.58458" lon="0.82605">
        <ele>139</ele>
        <time>2012-01-30T15:41:27Z</time>
      </trkpt>
      <trkpt lat="44.58459" lon="0.82604">
        <ele>139</ele>
        <time>2012-01-30T15:41:28Z</time>
      </trkpt>
      <trkpt lat="44.58461" lon="0.82603">
        <ele>139</ele>
        <time>2012-01-30T15:41:30Z</time>
      </trkpt>
      <trkpt lat="44.58462" lon="0.82601">
        <ele>139</ele>
        <time>2012-01-30T15:41:33Z</time>
      </trkpt>
      <trkpt lat="44.58463" lon="0.82599">
        <ele>139</ele>
        <time>2012-01-30T15:41:34Z</time>
      </trkpt>
      <trkpt lat="44.58464" lon="0.82598">
        <ele>139</ele>
        <time>2012-01-30T15:41:35Z</time>
      </trkpt>
      <trkpt lat="44.58466" lon="0.82596">
        <ele>139</ele>
        <time>2012-01-30T15:41:36Z</time>
      </trkpt>
      <trkpt lat="44.58469" lon="0.82594">
        <ele>139</ele>
        <time>2012-01-30T15:41:37Z</time>
      </trkpt>
      <trkpt lat="44.58472" lon="0.82591">
        <ele>139</ele>
        <time>2012-01-30T15:41:38Z</time>
      </trkpt>
      <trkpt lat="44.58475" lon="0.82587">
        <ele>139</ele>
        <time>2012-01-30T15:41:39Z</time>
      </trkpt>
      <trkpt lat="44.58479" lon="0.82584">
        <ele>139</ele>
        <time>2012-01-30T15:41:40Z</time>
      </trkpt>
      <trkpt lat="44.58482" lon="0.82581">
        <ele>139</ele>
        <time>2012-01-30T15:41:41Z</time>
      </trkpt>
      <trkpt lat="44.58486" lon="0.82577">
        <ele>139</ele>
        <time>2012-01-30T15:41:42Z</time>
      </trkpt>
      <trkpt lat="44.58489" lon="0.82573">
        <ele>139</ele>
        <time>2012-01-30T15:41:43Z</time>
      </trkpt>
      <trkpt lat="44.58492" lon="0.8257">
        <ele>139</ele>
        <time>2012-01-30T15:41:44Z</time>
      </trkpt>
      <trkpt lat="44.58495" lon="0.82567">
        <ele>139</ele>
        <time>2012-01-30T15:41:45Z</time>
      </trkpt>
      <trkpt lat="44.58498" lon="0.82565">
        <ele>139</ele>
        <time>2012-01-30T15:41:46Z</time>
      </trkpt>
      <trkpt lat="44.58501" lon="0.82561">
        <ele>139</ele>
        <time>2012-01-30T15:41:47Z</time>
      </trkpt>
      <trkpt lat="44.58504" lon="0.82558">
        <ele>139</ele>
        <time>2012-01-30T15:41:48Z</time>
      </trkpt>
      <trkpt lat="44.58508" lon="0.82555">
        <ele>139</ele>
        <time>2012-01-30T15:41:49Z</time>
      </trkpt>
      <trkpt lat="44.58511" lon="0.82552">
        <ele>139</ele>
        <time>2012-01-30T15:41:50Z</time>
      </trkpt>
      <trkpt lat="44.58514" lon="0.82548">
        <ele>139</ele>
        <time>2012-01-30T15:41:51Z</time>
      </trkpt>
      <trkpt lat="44.58517" lon="0.82545">
        <ele>139</ele>
        <time>2012-01-30T15:41:52Z</time>
      </trkpt>
      <trkpt lat="44.58521" lon="0.82542">
        <ele>138</ele>
        <time>2012-01-30T15:41:53Z</time>
      </trkpt>
      <trkpt lat="44.58524" lon="0.82538">
        <ele>138</ele>
        <time>2012-01-30T15:41:54Z</time>
      </trkpt>
      <trkpt lat="44.58527" lon="0.82535">
        <ele>137</ele>
        <time>2012-01-30T15:41:55Z</time>
      </trkpt>
      <trkpt lat="44.5853" lon="0.82531">
        <ele>137</ele>
        <time>2012-01-30T15:41:56Z</time>
      </trkpt>
      <trkpt lat="44.58533" lon="0.82528">
        <ele>137</ele>
        <time>2012-01-30T15:41:57Z</time>
      </trkpt>
      <trkpt lat="44.58537" lon="0.82525">
        <ele>137</ele>
        <time>2012-01-30T15:41:58Z</time>
      </trkpt>
      <trkpt lat="44.5854" lon="0.82521">
        <ele>137</ele>
        <time>2012-01-30T15:41:59Z</time>
      </trkpt>
      <trkpt lat="44.58544" lon="0.82518">
        <ele>137</ele>
        <time>2012-01-30T15:42:00Z</time>
      </trkpt>
      <trkpt lat="44.58548" lon="0.82515">
        <ele>137</ele>
        <time>2012-01-30T15:42:01Z</time>
      </trkpt>
      <trkpt lat="44.58551" lon="0.82511">
        <ele>137</ele>
        <time>2012-01-30T15:42:02Z</time>
      </trkpt>
      <trkpt lat="44.58555" lon="0.82508">
        <ele>137</ele>
        <time>2012-01-30T15:42:03Z</time>
      </trkpt>
      <trkpt lat="44.58558" lon="0.82505">
        <ele>137</ele>
        <time>2012-01-30T15:42:04Z</time>
      </trkpt>
      <trkpt lat="44.5856" lon="0.82503">
        <ele>137</ele>
        <time>2012-01-30T15:42:05Z</time>
      </trkpt>
      <trkpt lat="44.58562" lon="0.825">
        <ele>137</ele>
        <time>2012-01-30T15:42:06Z</time>
      </trkpt>
      <trkpt lat="44.58564" lon="0.82497">
        <ele>137</ele>
        <time>2012-01-30T15:42:07Z</time>
      </trkpt>
      <trkpt lat="44.58567" lon="0.82494">
        <ele>137</ele>
        <time>2012-01-30T15:42:08Z</time>
      </trkpt>
      <trkpt lat="44.58568" lon="0.82491">
        <ele>137</ele>
        <time>2012-01-30T15:42:09Z</time>
      </trkpt>
      <trkpt lat="44.58569" lon="0.82488">
        <ele>137</ele>
        <time>2012-01-30T15:42:10Z</time>
      </trkpt>
      <trkpt lat="44.5857" lon="0.82485">
        <ele>137</ele>
        <time>2012-01-30T15:42:11Z</time>
      </trkpt>
      <trkpt lat="44.58571" lon="0.82482">
        <ele>137</ele>
        <time>2012-01-30T15:42:12Z</time>
      </trkpt>
      <trkpt lat="44.58571" lon="0.8248">
        <ele>137</ele>
        <time>2012-01-30T15:42:13Z</time>
      </trkpt>
      <trkpt lat="44.5857" lon="0.82477">
        <ele>137</ele>
        <time>2012-01-30T15:42:14Z</time>
      </trkpt>
      <trkpt lat="44.5857" lon="0.82475">
        <ele>137</ele>
        <time>2012-01-30T15:42:15Z</time>
      </trkpt>
      <trkpt lat="44.58569" lon="0.82473">
        <ele>137</ele>
        <time>2012-01-30T15:42:16Z</time>
      </trkpt>
      <trkpt lat="44.58568" lon="0.82472">
        <ele>136</ele>
        <time>2012-01-30T15:42:17Z</time>
      </trkpt>
      <trkpt lat="44.58568" lon="0.82471">
        <ele>136</ele>
        <time>2012-01-30T15:42:27Z</time>
      </trkpt>
      <trkpt lat="44.58567" lon="0.82471">
        <ele>136</ele>
        <time>2012-01-30T15:42:34Z</time>
      </trkpt>
      <trkpt lat="44.58568" lon="0.82472">
        <ele>136</ele>
        <time>2012-01-30T15:42:45Z</time>
      </trkpt>
      <trkpt lat="44.58569" lon="0.82473">
        <ele>136</ele>
        <time>2012-01-30T15:42:52Z</time>
      </trkpt>
      <trkpt lat="44.5857" lon="0.82473">
        <ele>138</ele>
        <time>2012-01-30T15:42:56Z</time>
      </trkpt>
      <trkpt lat="44.58572" lon="0.82474">
        <ele>142</ele>
        <time>2012-01-30T15:43:09Z</time>
      </trkpt>
      <trkpt lat="44.58572" lon="0.82474">
        <ele>146</ele>
        <time>2012-01-30T15:43:19Z</time>
      </trkpt>
    </trkseg>
  </trk>
</gpx>